
Distance (Route):
Temperature : 12.8°C
Humidity : 90.4%
Pressure : 959.5hPa| Receiver | Frames | First received | Last received |
|---|---|---|---|
| BIOWL1-15 | 1187 | 2026-09-04 23:39:25 | 2026-09-05 02:57:35 |
| DM0DOS-11 | 1056 | 2026-09-04 23:36:49 | 2026-09-05 02:56:49 |
| DL1XH-west | 831 | 2026-09-04 23:59:28 | 2026-09-05 02:37:54 |
| DO2JMG | 790 | 2026-09-05 00:10:10 | 2026-09-05 02:49:33 |
| HSKMA3-T | 562 | 2026-09-05 00:44:15 | 2026-09-05 02:50:02 |
| AA1-15 | 454 | 2026-09-05 00:23:46 | 2026-09-05 02:14:52 |
| DL1XH-15 | 413 | 2026-09-05 00:19:11 | 2026-09-05 02:24:04 |
| GOEST3-10 | 270 | 2026-09-04 23:54:33 | 2026-09-05 02:25:14 |
| DB0DAN | 146 | 2026-09-05 02:07:10 | 2026-09-05 02:51:25 |
| DL3AQ-11 | 109 | 2026-09-05 00:21:45 | 2026-09-05 02:45:46 |
| DB0UT-7 | 99 | 2026-09-04 23:45:29 | 2026-09-05 02:43:43 |
| DO9LL-15 | 76 | 2026-09-04 23:38:23 | 2026-09-05 02:44:00 |
| DO3DL | 70 | 2026-09-05 00:47:07 | 2026-09-05 02:38:10 |
| WEDDY | 58 | 2026-09-04 23:35:50 | 2026-09-05 02:04:58 |
| DJ2KF-10 | 58 | 2026-09-05 00:18:47 | 2026-09-05 02:25:13 |
| DH3RM | 54 | 2026-09-05 00:08:16 | 2026-09-05 01:41:31 |
| DF5WG-10 | 52 | 2026-09-05 00:40:45 | 2026-09-05 02:06:52 |
| HTAHTA | 51 | 2026-09-04 23:40:43 | 2026-09-05 02:11:50 |
| KNMI2-11 | 49 | 2026-09-04 23:26:46 | 2026-09-05 00:05:06 |
| BIOWL9-15 | 49 | 2026-09-04 23:40:34 | 2026-09-05 02:47:55 |
| AU51GT2 | 48 | 2026-09-04 23:38:59 | 2026-09-05 01:48:23 |
| DD1CC3-15 | 44 | 2026-09-04 23:54:35 | 2026-09-05 02:46:45 |
| DL1ZP-14 | 41 | 2026-09-05 00:15:50 | 2026-09-05 02:32:00 |
| BIOWL7-15 | 40 | 2026-09-04 23:43:07 | 2026-09-05 02:49:08 |
| BUE01 | 37 | 2026-09-05 00:18:39 | 2026-09-05 02:46:09 |
| DO2KSM | 37 | 2026-09-05 00:21:18 | 2026-09-05 02:40:28 |
| DL4XJ-10 | 37 | 2026-09-05 00:42:43 | 2026-09-05 02:49:32 |
| MET0W-2 | 35 | 2026-09-04 23:56:48 | 2026-09-05 01:54:54 |
| DD1CC8 | 34 | 2026-09-05 00:03:38 | 2026-09-05 02:44:05 |
| SONCRA | 33 | 2026-09-05 00:19:13 | 2026-09-05 02:49:56 |
| DO1YAY-16 | 32 | 2026-09-05 00:00:16 | 2026-09-05 02:05:05 |
| DJ2DS-15 | 31 | 2026-09-04 23:44:46 | 2026-09-05 02:38:28 |
| DC4HF-4 | 31 | 2026-09-05 00:27:08 | 2026-09-05 02:36:57 |
| DD1CC1-15 | 29 | 2026-09-05 00:13:26 | 2026-09-05 02:43:48 |
| DF8AY | 29 | 2026-09-05 01:13:37 | 2026-09-05 02:16:01 |
| DL4BBY-15 | 28 | 2026-09-05 00:00:25 | 2026-09-05 02:50:09 |
| DF2AP-13 | 26 | 2026-09-05 00:31:54 | 2026-09-05 02:36:09 |
| DB0ND-19 | 25 | 2026-09-05 00:03:51 | 2026-09-05 02:09:02 |
| WPPR-10 | 21 | 2026-09-05 00:02:31 | 2026-09-05 01:40:52 |
| DL1LOL-11 | 20 | 2026-09-04 23:46:32 | 2026-09-05 02:38:51 |
| EDDB2-12 | 19 | 2026-09-05 01:12:48 | 2026-09-05 01:59:53 |
| DB0NH | 18 | 2026-09-05 00:33:51 | 2026-09-05 02:21:10 |
| DL1CLM-18 | 18 | 2026-09-05 00:58:01 | 2026-09-05 02:35:42 |
| HARRO8 | 15 | 2026-09-05 00:34:33 | 2026-09-05 02:06:40 |
| DL3OBA | 15 | 2026-09-05 02:27:31 | 2026-09-05 02:46:44 |
| SMARD9-15 | 14 | 2026-09-05 00:54:28 | 2026-09-05 01:41:03 |
| EDDB2-11 | 14 | 2026-09-05 00:54:50 | 2026-09-05 01:58:28 |
| SONDE2-11 | 14 | 2026-09-05 01:13:08 | 2026-09-05 02:07:28 |
| DK5PH-5 | 11 | 2026-09-05 00:44:49 | 2026-09-05 01:50:13 |
| DC6BW-12 | 11 | 2026-09-05 01:03:46 | 2026-09-05 02:04:48 |
| DJ3KS | 9 | 2026-09-05 00:14:44 | 2026-09-05 01:39:25 |
| DO3MHA-11 | 9 | 2026-09-05 00:58:00 | 2026-09-05 01:32:07 |
| DO8TBO-1 | 8 | 2026-09-05 00:51:55 | 2026-09-05 01:33:06 |
| DL8OAI-8 | 8 | 2026-09-05 02:16:16 | 2026-09-05 02:45:04 |
| DO2LYB-13 | 4 | 2026-09-05 00:47:42 | 2026-09-05 02:12:04 |
| SMARD9-10 | 4 | 2026-09-05 01:18:17 | 2026-09-05 01:31:31 |
| AM1SDL-15 | 3 | 2026-09-05 01:42:27 | 2026-09-05 02:05:20 |
| DF7PN | 2 | 2026-09-05 02:07:56 | 2026-09-05 02:13:07 |
| Receiver | Date | Latitude | Longitude | Direction | Speed | Altitude | Climb | Temperature | Humidity | Pressure | Voltage | Killtimer | Uptime | BKT | XDATA |
|---|---|---|---|---|---|---|---|---|---|---|---|---|---|---|---|
| BIOWL1-15 | 2026-09-05 02:57:35 | 51.77230 | 9.25339 | 88° | 38km/h | 524m | -3.1m/s | 12.8°C | 90.4% | 959.5hPa | 2.8V | 06:57:23 | 03:38:39 | 00:00:00 | |
| BIOWL1-15 | 2026-09-05 02:57:35 | 51.77230 | 9.25324 | 89° | 38km/h | 527m | -3.3m/s | 12.7°C | 90.9% | 959hPa | 2.8V | 06:57:23 | 03:38:38 | 00:00:00 | |
| BIOWL1-15 | 2026-09-05 02:57:32 | 51.77230 | 9.25308 | 89° | 40km/h | 530m | -3m/s | 12.7°C | 91.3% | 958.6hPa | 2.8V | 06:57:23 | 03:38:37 | 00:00:00 | |
| BIOWL1-15 | 2026-09-05 02:57:31 | 51.77230 | 9.25292 | 89° | 40km/h | 533m | -3.1m/s | 12.7°C | 91.7% | 958.1hPa | 2.8V | 06:57:23 | 03:38:36 | 00:00:00 | |
| BIOWL1-15 | 2026-09-05 02:57:30 | 51.77229 | 9.25275 | 89° | 40km/h | 536m | -2.8m/s | 12.6°C | 92% | 958hPa | 2.8V | 06:57:23 | 03:38:35 | 00:00:00 | |
| BIOWL1-15 | 2026-09-05 02:57:28 | 51.77229 | 9.25243 | 88° | 40km/h | 542m | -3.2m/s | 12.6°C | 92.5% | 957.3hPa | 2.8V | 06:57:23 | 03:38:33 | 00:00:00 | |
| BIOWL1-15 | 2026-09-05 02:57:27 | 51.77229 | 9.25226 | 88° | 42km/h | 545m | -3m/s | 12.5°C | 92.3% | 956.9hPa | 2.8V | 06:57:23 | 03:38:32 | 00:00:00 | |
| BIOWL1-15 | 2026-09-05 02:57:26 | 51.77228 | 9.25209 | 88° | 42km/h | 548m | -3.1m/s | 12.5°C | 91.7% | 956.6hPa | 2.8V | 06:57:23 | 03:38:31 | 00:00:00 | |
| BIOWL1-15 | 2026-09-05 02:57:24 | 51.77227 | 9.25176 | 88° | 42km/h | 554m | -3.1m/s | 12.5°C | 90.5% | 956hPa | 2.8V | 06:57:23 | 03:38:29 | 00:00:00 | |
| BIOWL1-15 | 2026-09-05 02:57:22 | 51.77227 | 9.25142 | 88° | 42km/h | 560m | -2.7m/s | 12.4°C | 91.2% | 955.2hPa | 2.8V | 06:57:23 | 03:38:27 | 00:00:00 | |
| BIOWL1-15 | 2026-09-05 02:57:20 | 51.77226 | 9.25092 | 89° | 40km/h | 568m | -3.1m/s | 12.3°C | 91.4% | 954.1hPa | 2.8V | 06:58:14 | 03:38:24 | 00:00:00 | |
| BIOWL1-15 | 2026-09-05 02:57:20 | 51.77226 | 9.25075 | 90° | 40km/h | 572m | -2.9m/s | 12.3°C | 91.3% | 953.9hPa | 2.8V | 06:58:14 | 03:38:23 | 00:00:00 | |
| BIOWL1-15 | 2026-09-05 02:57:17 | 51.77226 | 9.25058 | 90° | 40km/h | 574m | -2.7m/s | 12.3°C | 91.3% | 953.4hPa | 2.7V | 06:58:14 | 03:38:22 | 00:00:00 | |
| BIOWL1-15 | 2026-09-05 02:57:15 | 51.77227 | 9.24992 | 93° | 40km/h | 584m | -3m/s | 12.2°C | 93.4% | 952.2hPa | 2.8V | 06:58:14 | 03:38:18 | 00:00:00 | |
| BIOWL1-15 | 2026-09-05 02:57:15 | 51.77228 | 9.24976 | 93° | 40km/h | 587m | -3.1m/s | 12.1°C | 93.4% | 952hPa | 2.8V | 06:58:14 | 03:38:17 | 00:00:00 | |
| BIOWL1-15 | 2026-09-05 02:57:13 | 51.77228 | 9.24959 | 94° | 40km/h | 590m | -2.8m/s | 12.1°C | 93.2% | 951.7hPa | 2.8V | 06:58:14 | 03:38:16 | 00:00:00 | |
| BIOWL1-15 | 2026-09-05 02:57:10 | 51.77229 | 9.24943 | 95° | 40km/h | 593m | -2.5m/s | 12.1°C | 92.7% | 951.4hPa | 2.8V | 06:58:14 | 03:38:15 | 00:00:00 | |
| BIOWL1-15 | 2026-09-05 02:57:08 | 51.77232 | 9.24860 | 92° | 42km/h | 604m | -2.4m/s | 12°C | 92.9% | 950hPa | 2.7V | 06:58:14 | 03:38:10 | 00:00:00 | |
| BIOWL1-15 | 2026-09-05 02:57:08 | 51.77233 | 9.24843 | 91° | 42km/h | 606m | -2.5m/s | 12°C | 92.9% | 949.7hPa | 2.8V | 06:58:14 | 03:38:09 | 00:00:00 | |
| BIOWL1-15 | 2026-09-05 02:57:02 | 51.77233 | 9.24807 | 91° | 44km/h | 611m | -2.2m/s | 11.9°C | 91.9% | 949.2hPa | 2.8V | 06:58:14 | 03:38:07 | 00:00:00 | |
| BIOWL1-15 | 2026-09-05 02:57:00 | 51.77234 | 9.24771 | 92° | 44km/h | 614m | -1.5m/s | 11.9°C | 91.4% | 948.7hPa | 2.8V | 06:58:14 | 03:38:05 | 00:00:00 | |
| BIOWL1-15 | 2026-09-05 02:56:58 | 51.77235 | 9.24716 | 92° | 46km/h | 619m | -2.3m/s | 11.9°C | 92.6% | 948.1hPa | 2.8V | 06:58:14 | 03:38:02 | 00:00:00 | |
| BIOWL1-15 | 2026-09-05 02:56:58 | 51.77235 | 9.24697 | 92° | 46km/h | 621m | -2.3m/s | 11.9°C | 93.3% | 947.9hPa | 2.8V | 06:58:14 | 03:38:01 | 00:00:00 | |
| BIOWL1-15 | 2026-09-05 02:56:54 | 51.77237 | 9.24623 | 91° | 44km/h | 631m | -2.5m/s | 11.8°C | 93.3% | 946.7hPa | 2.8V | 06:58:14 | 03:37:57 | 00:00:00 | |
| BIOWL1-15 | 2026-09-05 02:56:54 | 51.77238 | 9.24605 | 91° | 44km/h | 634m | -3.1m/s | 11.8°C | 93.5% | 946.5hPa | 2.8V | 06:58:14 | 03:37:56 | 00:00:00 | |
| BIOWL1-15 | 2026-09-05 02:56:52 | 51.77238 | 9.24587 | 91° | 44km/h | 637m | -3.1m/s | 11.7°C | 93.7% | 946.3hPa | 2.8V | 06:58:14 | 03:37:55 | 00:00:00 | |
| DM0DOS-11 | 2026-09-05 02:56:49 | 51.77242 | 9.24486 | 95° | 42km/h | 652m | -2.9m/s | 11.6°C | 91.2% | 944.4hPa | 2.8V | 06:58:01 | 03:37:49 | 00:00:00 | |
| BIOWL1-15 | 2026-09-05 02:56:48 | 51.77239 | 9.24553 | 93° | 42km/h | 643m | -3.1m/s | 11.7°C | 93.8% | 945.7hPa | 2.8V | 06:58:14 | 03:37:53 | 00:00:00 | |
| BIOWL1-15 | 2026-09-05 02:56:47 | 51.77244 | 9.24453 | 94° | 42km/h | 657m | -2.3m/s | 11.5°C | 93.1% | 943.9hPa | 2.8V | 06:58:14 | 03:37:47 | 00:00:00 | |
| BIOWL1-15 | 2026-09-05 02:56:46 | 51.77245 | 9.24436 | 96° | 44km/h | 659m | -2.5m/s | 11.5°C | 92.6% | 943.7hPa | 2.8V | 06:58:14 | 03:37:46 | 00:00:00 | |
| DM0DOS-11 | 2026-09-05 02:56:43 | 51.77245 | 9.24436 | 96° | 44km/h | 659m | -2.5m/s | 11.5°C | 91.4% | 943.7hPa | 2.8V | 06:58:04 | 03:37:46 | 00:00:00 | |
| DM0DOS-11 | 2026-09-05 02:56:43 | 51.77251 | 9.24383 | 100° | 44km/h | 665m | -2.1m/s | 11.5°C | 90.1% | 942.9hPa | 2.8V | 06:58:07 | 03:37:43 | 00:00:00 | |
| BIOWL1-15 | 2026-09-05 02:56:42 | 51.77247 | 9.24418 | 97° | 44km/h | 661m | -2.1m/s | 11.5°C | 92.6% | 943.3hPa | 2.8V | 06:58:14 | 03:37:45 | 00:00:00 | |
| BIOWL1-15 | 2026-09-05 02:56:38 | 51.77251 | 9.24383 | 100° | 44km/h | 665m | -2.1m/s | 11.5°C | 91.5% | 942.9hPa | 2.8V | 06:58:14 | 03:37:43 | 00:00:00 | |
| DM0DOS-11 | 2026-09-05 02:56:36 | 51.77266 | 9.24253 | 97° | 46km/h | 684m | -2.6m/s | 11.3°C | 92% | 941hPa | 2.8V | 06:58:14 | 03:37:36 | 00:00:00 | |
| BIOWL1-15 | 2026-09-05 02:56:36 | 51.77255 | 9.24347 | 101° | 46km/h | 670m | -3m/s | 11.4°C | 93.9% | 942.4hPa | 2.8V | 06:58:14 | 03:37:41 | 00:00:00 | |
| BIOWL1-15 | 2026-09-05 02:56:34 | 51.77262 | 9.24291 | 102° | 47km/h | 679m | -2.8m/s | 11.3°C | 95.6% | 941.4hPa | 2.8V | 06:58:14 | 03:37:38 | 00:00:00 | |
| BIOWL1-15 | 2026-09-05 02:56:34 | 51.77264 | 9.24272 | 99° | 46km/h | 682m | -2.3m/s | 11.3°C | 95.7% | 941.2hPa | 2.7V | 06:58:14 | 03:37:37 | 00:00:00 | |
| BIOWL1-15 | 2026-09-05 02:56:31 | 51.77266 | 9.24253 | 97° | 46km/h | 684m | -2.6m/s | 11.3°C | 96.1% | 941hPa | 2.8V | 06:58:14 | 03:37:36 | 00:00:00 | |
| BIOWL1-15 | 2026-09-05 02:56:29 | 51.77272 | 9.24195 | 98° | 49km/h | 692m | -2.3m/s | 11.2°C | 95% | 940hPa | 2.8V | 06:59:05 | 03:37:33 | 00:00:00 | |
| BIOWL1-15 | 2026-09-05 02:56:29 | 51.77275 | 9.24176 | 103° | 47km/h | 695m | -2.8m/s | 11.2°C | 95.2% | 939.6hPa | 2.8V | 06:59:05 | 03:37:32 | 00:00:00 | |
| BIOWL1-15 | 2026-09-05 02:56:25 | 51.77285 | 9.24083 | 99° | 46km/h | 707m | -1.9m/s | 11.2°C | 94.2% | 938.3hPa | 2.8V | 06:59:05 | 03:37:27 | 00:00:00 | |
| BIOWL1-15 | 2026-09-05 02:56:25 | 51.77287 | 9.24065 | 101° | 46km/h | 709m | -2.4m/s | 11.2°C | 94.5% | 938.2hPa | 2.7V | 06:59:05 | 03:37:26 | 00:00:00 | |
| DM0DOS-11 | 2026-09-05 02:56:23 | 51.77283 | 9.24101 | 99° | 46km/h | 705m | -2.2m/s | 11.2°C | 92.9% | 938.5hPa | 2.8V | 06:58:22 | 03:37:28 | 00:00:00 | |
| BIOWL1-15 | 2026-09-05 02:56:20 | 51.77290 | 9.24046 | 101° | 47km/h | 711m | -2.3m/s | 11.2°C | 94.6% | 937.9hPa | 2.8V | 06:59:05 | 03:37:25 | 00:00:00 | |
| BIOWL1-15 | 2026-09-05 02:56:18 | 51.77295 | 9.24008 | 103° | 49km/h | 716m | -2.2m/s | 11.1°C | 94.4% | 937.5hPa | 2.8V | 06:59:05 | 03:37:23 | 00:00:00 | |
| BIOWL1-15 | 2026-09-05 02:56:16 | 51.77303 | 9.23951 | 104° | 49km/h | 722m | -2.1m/s | 11°C | 95% | 936.9hPa | 2.8V | 06:59:05 | 03:37:20 | 00:00:00 | |
| BIOWL1-15 | 2026-09-05 02:56:16 | 51.77306 | 9.23932 | 104° | 47km/h | 724m | -1.7m/s | 11°C | 95.5% | 936.6hPa | 2.8V | 06:59:05 | 03:37:19 | 00:00:00 | |
| BIOWL1-15 | 2026-09-05 02:56:13 | 51.77309 | 9.23913 | 104° | 47km/h | 725m | -2m/s | 11°C | 95.9% | 936.5hPa | 2.8V | 06:59:05 | 03:37:18 | 00:00:00 | |
| BIOWL1-15 | 2026-09-05 02:56:11 | 51.77319 | 9.23856 | 104° | 49km/h | 731m | -2.1m/s | 11°C | 94.5% | 935.7hPa | 2.7V | 06:59:05 | 03:37:15 | 00:00:00 | |
| BIOWL1-15 | 2026-09-05 02:56:11 | 51.77321 | 9.23836 | 103° | 49km/h | 733m | -1.8m/s | 11°C | 94.4% | 935.5hPa | 2.8V | 06:59:05 | 03:37:14 | 00:00:00 | |
| BIOWL1-15 | 2026-09-05 02:56:07 | 51.77338 | 9.23738 | 106° | 51km/h | 741m | -1.4m/s | 11.1°C | 92.2% | 934.7hPa | 2.8V | 06:59:05 | 03:37:09 | 00:00:00 | |
| BIOWL1-15 | 2026-09-05 02:56:07 | 51.77342 | 9.23718 | 108° | 49km/h | 742m | -1.3m/s | 11.1°C | 91.6% | 934.5hPa | 2.8V | 06:59:05 | 03:37:08 | 00:00:00 | |
| BIOWL1-15 | 2026-09-05 02:56:01 | 51.77353 | 9.23660 | 107° | 49km/h | 746m | -1.5m/s | 11.1°C | 90.6% | 933.9hPa | 2.7V | 06:59:05 | 03:37:05 | 00:00:00 | |
| BIOWL1-15 | 2026-09-05 02:56:01 | 51.77356 | 9.23641 | 107° | 49km/h | 748m | -1.7m/s | 11.1°C | 90.4% | 933.9hPa | 2.8V | 06:59:05 | 03:37:04 | 00:00:00 | |
| DM0DOS-11 | 2026-09-05 02:55:58 | 51.77364 | 9.23603 | 106° | 47km/h | 752m | -1.6m/s | 11.1°C | 88.5% | 933.5hPa | 2.8V | 06:58:48 | 03:37:02 | 00:00:00 | |
| BIOWL1-15 | 2026-09-05 02:55:57 | 51.77364 | 9.23603 | 106° | 49km/h | 752m | -1.6m/s | 11.1°C | 90.4% | 933.5hPa | 2.8V | 06:59:05 | 03:37:02 | 00:00:00 | |
| BIOWL1-15 | 2026-09-05 02:55:55 | 51.77374 | 9.23545 | 107° | 49km/h | 757m | -1.5m/s | 11.1°C | 90.2% | 933hPa | 2.8V | 06:59:05 | 03:36:59 | 00:00:00 | |
| BIOWL1-15 | 2026-09-05 02:55:55 | 51.77378 | 9.23526 | 109° | 49km/h | 758m | -1.6m/s | 11.1°C | 90.8% | 932.7hPa | 2.8V | 06:59:05 | 03:36:58 | 00:00:00 | |
| BIOWL1-15 | 2026-09-05 02:55:51 | 51.77386 | 9.23488 | 109° | 49km/h | 761m | -1.7m/s | 11.1°C | 90.5% | 932.4hPa | 2.8V | 06:59:05 | 03:36:56 | 00:00:00 | |
| BIOWL1-15 | 2026-09-05 02:55:50 | 51.77390 | 9.23469 | 108° | 49km/h | 763m | -1.7m/s | 11.1°C | 90.2% | 932.1hPa | 2.7V | 06:59:05 | 03:36:55 | 00:00:00 | |
| BIOWL1-15 | 2026-09-05 02:55:49 | 51.77394 | 9.23450 | 109° | 49km/h | 765m | -1.7m/s | 11.1°C | 89.9% | 932.2hPa | 2.8V | 06:59:05 | 03:36:54 | 00:00:00 | |
| BIOWL1-15 | 2026-09-05 02:55:47 | 51.77402 | 9.23412 | 109° | 49km/h | 768m | -1.7m/s | 11.2°C | 89% | 931.7hPa | 2.8V | 06:59:05 | 03:36:52 | 00:00:00 | |
| BIOWL1-15 | 2026-09-05 02:55:45 | 51.77411 | 9.23374 | 110° | 49km/h | 771m | -1.8m/s | 11.2°C | 88.3% | 931.3hPa | 2.8V | 06:59:05 | 03:36:50 | 00:00:00 | |
| BIOWL1-15 | 2026-09-05 02:55:44 | 51.77415 | 9.23355 | 110° | 49km/h | 773m | -1.7m/s | 11.2°C | 88.2% | 931.1hPa | 2.8V | 06:59:05 | 03:36:49 | 00:00:00 | |
| BIOWL1-15 | 2026-09-05 02:55:42 | 51.77440 | 9.23243 | 110° | 47km/h | 784m | -1.8m/s | 11.2°C | 88.3% | 930hPa | 2.8V | 06:59:56 | 03:36:43 | 00:00:00 | |
| BIOWL1-15 | 2026-09-05 02:55:42 | 51.77444 | 9.23225 | 111° | 47km/h | 785m | -1.7m/s | 11.1°C | 88.4% | 930.1hPa | 2.8V | 06:59:56 | 03:36:42 | 00:00:00 | |
| BIOWL1-15 | 2026-09-05 02:55:38 | 51.77448 | 9.23207 | 111° | 47km/h | 787m | -1.4m/s | 11.1°C | 88.5% | 929.7hPa | 2.8V | 06:59:56 | 03:36:41 | 00:00:00 | |
| BIOWL1-15 | 2026-09-05 02:55:34 | 51.77465 | 9.23135 | 109° | 47km/h | 794m | -1.8m/s | 11.1°C | 89% | 929hPa | 2.8V | 06:59:56 | 03:36:37 | 00:00:00 | |
| BIOWL1-15 | 2026-09-05 02:55:34 | 51.77469 | 9.23117 | 109° | 47km/h | 796m | -1.8m/s | 11.1°C | 89% | 928.9hPa | 2.8V | 06:59:56 | 03:36:36 | 00:00:00 | |
| BIOWL1-15 | 2026-09-05 02:55:32 | 51.77473 | 9.23099 | 109° | 47km/h | 797m | -1.7m/s | 11.1°C | 88.7% | 928.5hPa | 2.7V | 06:59:56 | 03:36:35 | 00:00:00 | |
| DM0DOS-11 | 2026-09-05 02:55:30 | 51.77473 | 9.23099 | 109° | 47km/h | 797m | -1.7m/s | 11.1°C | 85.4% | 928.5hPa | 2.7V | 06:59:15 | 03:36:35 | 00:00:00 | |
| DM0DOS-11 | 2026-09-05 02:55:30 | 51.77485 | 9.23045 | 111° | 47km/h | 802m | -1.7m/s | 11°C | 85.2% | 927.7hPa | 2.8V | 06:59:18 | 03:36:32 | 00:00:00 | |
| BIOWL1-15 | 2026-09-05 02:55:28 | 51.77481 | 9.23063 | 111° | 47km/h | 801m | -1.6m/s | 11.1°C | 88.5% | 928.2hPa | 2.8V | 06:59:56 | 03:36:33 | 00:00:00 | |
| BIOWL1-15 | 2026-09-05 02:55:27 | 51.77485 | 9.23045 | 111° | 47km/h | 802m | -1.7m/s | 11°C | 88.4% | 927.8hPa | 2.8V | 06:59:56 | 03:36:32 | 00:00:00 | |
| BIOWL1-15 | 2026-09-05 02:55:26 | 51.77489 | 9.23027 | 111° | 47km/h | 804m | -1.8m/s | 11°C | 87.8% | 927.7hPa | 2.8V | 06:59:56 | 03:36:31 | 00:00:00 | |
| BIOWL1-15 | 2026-09-05 02:55:24 | 51.77498 | 9.22991 | 112° | 47km/h | 807m | -1.8m/s | 11°C | 87.8% | 927.3hPa | 2.8V | 06:59:56 | 03:36:29 | 00:00:00 | |
| DM0DOS-11 | 2026-09-05 02:55:23 | 51.77516 | 9.22921 | 112° | 47km/h | 814m | -2m/s | 11°C | 84.6% | 926.4hPa | 2.7V | 06:59:25 | 03:36:25 | 00:00:00 | |
| BIOWL1-15 | 2026-09-05 02:55:22 | 51.77507 | 9.22956 | 112° | 46km/h | 811m | -1.8m/s | 11°C | 87.9% | 926.9hPa | 2.8V | 06:59:56 | 03:36:27 | 00:00:00 | |
| BIOWL1-15 | 2026-09-05 02:55:20 | 51.77516 | 9.22921 | 113° | 47km/h | 815m | -2m/s | 11°C | 87.7% | 926.4hPa | 2.7V | 06:59:56 | 03:36:25 | 00:00:00 | |
| BIOWL1-15 | 2026-09-05 02:55:18 | 51.77525 | 9.22885 | 113° | 47km/h | 819m | -2m/s | 10.9°C | 87.9% | 926.1hPa | 2.8V | 06:59:56 | 03:36:23 | 00:00:00 | |
| BIOWL1-15 | 2026-09-05 02:55:16 | 51.77535 | 9.22850 | 113° | 47km/h | 822m | -1.7m/s | 10.9°C | 88.1% | 925.8hPa | 2.8V | 06:59:56 | 03:36:21 | 00:00:00 | |
| BIOWL1-15 | 2026-09-05 02:55:14 | 51.77544 | 9.22815 | 113° | 46km/h | 825m | -1.8m/s | 10.9°C | 87.7% | 925.3hPa | 2.8V | 06:59:56 | 03:36:19 | 00:00:00 | |
| BIOWL1-15 | 2026-09-05 02:55:12 | 51.77558 | 9.22763 | 113° | 47km/h | 831m | -1.9m/s | 10.8°C | 88.7% | 924.7hPa | 2.7V | 06:59:56 | 03:36:16 | 00:00:00 | |
| BIOWL1-15 | 2026-09-05 02:55:12 | 51.77563 | 9.22745 | 113° | 47km/h | 833m | -1.9m/s | 10.8°C | 88.7% | 924.6hPa | 2.8V | 06:59:56 | 03:36:15 | 00:00:00 | |
| BIOWL1-15 | 2026-09-05 02:55:08 | 51.77577 | 9.22693 | 113° | 47km/h | 838m | -1.8m/s | 10.8°C | 86.7% | 923.9hPa | 2.8V | 06:59:56 | 03:36:12 | 00:00:00 | |
| BIOWL1-15 | 2026-09-05 02:55:08 | 51.77581 | 9.22675 | 113° | 46km/h | 840m | -1.7m/s | 10.8°C | 86% | 923.7hPa | 2.8V | 06:59:56 | 03:36:11 | 00:00:00 | |
| BIOWL1-15 | 2026-09-05 02:55:04 | 51.77595 | 9.22623 | 114° | 46km/h | 846m | -1.9m/s | 10.8°C | 86.2% | 923.1hPa | 2.8V | 06:59:56 | 03:36:08 | 00:00:00 | |
| BIOWL1-15 | 2026-09-05 02:55:04 | 51.77600 | 9.22606 | 113° | 46km/h | 848m | -1.9m/s | 10.8°C | 86% | 923hPa | 2.8V | 06:59:56 | 03:36:07 | 00:00:00 | |
| BIOWL1-15 | 2026-09-05 02:55:00 | 51.77609 | 9.22571 | 114° | 46km/h | 851m | -1.8m/s | 10.7°C | 85.8% | 922.6hPa | 2.8V | 06:59:56 | 03:36:05 | 00:00:00 | |
| BIOWL1-15 | 2026-09-05 02:54:59 | 51.77614 | 9.22554 | 113° | 46km/h | 853m | -1.9m/s | 10.7°C | 85.6% | 922.2hPa | 2.8V | 06:59:56 | 03:36:04 | 00:00:00 | |
| BIOWL1-15 | 2026-09-05 02:54:57 | 51.77628 | 9.22502 | 114° | 46km/h | 859m | -2.1m/s | 10.7°C | 83.9% | 921.6hPa | 2.8V | 06:59:56 | 03:36:01 | 00:00:00 | |
| BIOWL1-15 | 2026-09-05 02:54:57 | 51.77633 | 9.22484 | 113° | 47km/h | 861m | -2.1m/s | 10.7°C | 83.9% | 921.4hPa | 2.8V | 06:59:56 | 03:36:00 | 00:00:00 | |
| BIOWL1-15 | 2026-09-05 02:54:53 | 51.77642 | 9.22449 | 114° | 47km/h | 865m | -2m/s | 10.7°C | 83.5% | 921hPa | 2.8V | 06:59:56 | 03:35:58 | 00:00:00 | |
| BIOWL1-15 | 2026-09-05 02:54:51 | 51.77652 | 9.22414 | 114° | 47km/h | 869m | -1.8m/s | 10.6°C | 83.9% | 920.5hPa | 2.8V | 06:59:56 | 03:35:56 | 00:00:00 | |
| DM0DOS-11 | 2026-09-05 02:54:49 | 51.77676 | 9.22327 | 113° | 47km/h | 878m | -1.9m/s | 10.6°C | 80% | 919.5hPa | 2.8V | 06:59:59 | 03:35:51 | 00:00:00 | |
| BIOWL1-15 | 2026-09-05 02:54:49 | 51.77661 | 9.22380 | 114° | 46km/h | 873m | -2.1m/s | 10.6°C | 83.8% | 920hPa | 2.8V | 06:59:56 | 03:35:54 | 00:00:00 | |
| BIOWL1-15 | 2026-09-05 02:54:47 | 51.77671 | 9.22345 | 114° | 47km/h | 877m | -2m/s | 10.6°C | 83.7% | 919.5hPa | 2.8V | 07:00:47 | 03:35:52 | 00:00:00 | |
| BIOWL1-15 | 2026-09-05 02:54:46 | 51.77676 | 9.22327 | 114° | 47km/h | 878m | -1.9m/s | 10.6°C | 83.8% | 919.5hPa | 2.8V | 07:00:47 | 03:35:51 | 00:00:00 | |
| BIOWL1-15 | 2026-09-05 02:54:44 | 51.77685 | 9.22292 | 113° | 47km/h | 882m | -1.9m/s | 10.5°C | 83.7% | 919.1hPa | 2.8V | 07:00:47 | 03:35:49 | 00:00:00 | |
| DM0DOS-11 | 2026-09-05 02:54:43 | 51.77695 | 9.22257 | 113° | 47km/h | 886m | -2m/s | 10.5°C | 80.3% | 918.7hPa | 2.8V | 07:00:03 | 03:35:47 | 00:00:00 | |
| BIOWL1-15 | 2026-09-05 02:54:42 | 51.77699 | 9.22239 | 113° | 47km/h | 888m | -2m/s | 10.5°C | 83.8% | 918.3hPa | 2.8V | 07:00:47 | 03:35:46 | 00:00:00 | |
| BIOWL1-15 | 2026-09-05 02:54:42 | 51.77704 | 9.22222 | 113° | 47km/h | 890m | -1.8m/s | 10.5°C | 83.9% | 918.3hPa | 2.8V | 07:00:47 | 03:35:45 | 00:00:00 | |
| BIOWL1-15 | 2026-09-05 02:54:38 | 51.77713 | 9.22187 | 113° | 47km/h | 894m | -2m/s | 10.4°C | 83.9% | 917.8hPa | 2.8V | 07:00:47 | 03:35:43 | 00:00:00 | |
| BIOWL1-15 | 2026-09-05 02:54:36 | 51.77723 | 9.22152 | 113° | 46km/h | 897m | -1.8m/s | 10.4°C | 84% | 917.5hPa | 2.8V | 07:00:47 | 03:35:41 | 00:00:00 | |
| BIOWL1-15 | 2026-09-05 02:54:34 | 51.77732 | 9.22117 | 113° | 46km/h | 901m | -2m/s | 10.4°C | 84.1% | 917hPa | 2.7V | 07:00:47 | 03:35:39 | 00:00:00 | |
| BIOWL1-15 | 2026-09-05 02:54:32 | 51.77755 | 9.22030 | 113° | 46km/h | 910m | -2m/s | 10.3°C | 84.6% | 915.9hPa | 2.8V | 07:00:47 | 03:35:34 | 00:00:00 | |
| BIOWL1-15 | 2026-09-05 02:54:32 | 51.77759 | 9.22013 | 112° | 46km/h | 913m | -2.1m/s | 10.3°C | 84.7% | 915.8hPa | 2.8V | 07:00:47 | 03:35:33 | 00:00:00 | |
| BIOWL1-15 | 2026-09-05 02:54:26 | 51.77773 | 9.21961 | 113° | 46km/h | 918m | -2m/s | 10.2°C | 84.7% | 914.9hPa | 2.7V | 07:00:47 | 03:35:30 | 00:00:00 | |
| BIOWL1-15 | 2026-09-05 02:54:26 | 51.77777 | 9.21943 | 112° | 46km/h | 920m | -2m/s | 10.2°C | 84.9% | 914.9hPa | 2.8V | 07:00:47 | 03:35:29 | 00:00:00 | |
| BIOWL1-15 | 2026-09-05 02:54:23 | 51.77782 | 9.21926 | 113° | 47km/h | 922m | -2.1m/s | 10.2°C | 85.5% | 914.5hPa | 2.8V | 07:00:47 | 03:35:28 | 00:00:00 | |
| BIOWL1-15 | 2026-09-05 02:54:21 | 51.77791 | 9.21891 | 113° | 47km/h | 926m | -1.9m/s | 10.1°C | 85.6% | 914.3hPa | 2.8V | 07:00:47 | 03:35:26 | 00:00:00 | |
| BIOWL1-15 | 2026-09-05 02:54:19 | 51.77804 | 9.21838 | 112° | 46km/h | 932m | -2m/s | 10°C | 86.2% | 913.6hPa | 2.8V | 07:00:47 | 03:35:23 | 00:00:00 | |
| BIOWL1-15 | 2026-09-05 02:54:19 | 51.77809 | 9.21821 | 112° | 46km/h | 934m | -1.9m/s | 10°C | 87% | 913.4hPa | 2.8V | 07:00:47 | 03:35:22 | 00:00:00 | |
| BIOWL1-15 | 2026-09-05 02:54:16 | 51.77813 | 9.21803 | 112° | 46km/h | 936m | -2m/s | 10°C | 87.2% | 913.2hPa | 2.7V | 07:00:47 | 03:35:21 | 00:00:00 | |
| BIOWL1-15 | 2026-09-05 02:54:15 | 51.77818 | 9.21786 | 113° | 46km/h | 938m | -1.9m/s | 10°C | 87.5% | 912.9hPa | 2.8V | 07:00:47 | 03:35:20 | 00:00:00 | |
| BIOWL1-15 | 2026-09-05 02:54:13 | 51.77827 | 9.21751 | 113° | 46km/h | 942m | -1.9m/s | 10°C | 87.4% | 912.6hPa | 2.8V | 07:00:47 | 03:35:18 | 00:00:00 | |
| BIOWL1-15 | 2026-09-05 02:54:11 | 51.77840 | 9.21700 | 113° | 46km/h | 948m | -1.9m/s | 9.9°C | 86.9% | 912.1hPa | 2.8V | 07:00:47 | 03:35:15 | 00:00:00 | |
| BIOWL1-15 | 2026-09-05 02:54:11 | 51.77845 | 9.21682 | 113° | 46km/h | 949m | -1.8m/s | 9.9°C | 88% | 911.7hPa | 2.8V | 07:00:47 | 03:35:14 | 00:00:00 | |
| BIOWL1-15 | 2026-09-05 02:54:07 | 51.77854 | 9.21647 | 113° | 46km/h | 953m | -1.9m/s | 9.8°C | 87.9% | 911.3hPa | 2.7V | 07:00:47 | 03:35:12 | 00:00:00 | |
| BIOWL1-15 | 2026-09-05 02:54:05 | 51.77863 | 9.21612 | 113° | 47km/h | 957m | -2.1m/s | 9.8°C | 87.9% | 910.7hPa | 2.8V | 07:00:47 | 03:35:10 | 00:00:00 | |
| BIOWL1-15 | 2026-09-05 02:54:04 | 51.77868 | 9.21595 | 113° | 46km/h | 959m | -2m/s | 9.8°C | 88.2% | 910.6hPa | 2.8V | 07:00:47 | 03:35:09 | 00:00:00 | |
| BIOWL1-15 | 2026-09-05 02:54:02 | 51.77877 | 9.21560 | 112° | 46km/h | 963m | -2m/s | 9.7°C | 89.3% | 910.2hPa | 2.8V | 07:00:47 | 03:35:07 | 00:00:00 | |
| BIOWL1-15 | 2026-09-05 02:54:01 | 51.77881 | 9.21542 | 112° | 46km/h | 965m | -2.1m/s | 9.7°C | 89.5% | 909.8hPa | 2.8V | 07:00:47 | 03:35:06 | 00:00:00 | |
| BIOWL1-15 | 2026-09-05 02:53:59 | 51.77890 | 9.21507 | 113° | 46km/h | 970m | -2.1m/s | 9.7°C | 89.6% | 909.5hPa | 2.7V | 07:00:47 | 03:35:04 | 00:00:00 | |
| BIOWL1-15 | 2026-09-05 02:53:57 | 51.77899 | 9.21473 | 113° | 46km/h | 974m | -2.2m/s | 9.6°C | 89.9% | 909hPa | 2.8V | 07:01:38 | 03:35:02 | 00:00:00 | |
| BIOWL1-15 | 2026-09-05 02:53:56 | 51.77904 | 9.21455 | 113° | 46km/h | 976m | -2m/s | 9.6°C | 89.9% | 908.8hPa | 2.8V | 07:01:38 | 03:35:01 | 00:00:00 | |
| BIOWL1-15 | 2026-09-05 02:53:54 | 51.77913 | 9.21421 | 113° | 47km/h | 980m | -2m/s | 9.6°C | 90% | 908.3hPa | 2.8V | 07:01:38 | 03:34:59 | 00:00:00 | |
| BIOWL1-15 | 2026-09-05 02:53:53 | 51.77918 | 9.21403 | 113° | 46km/h | 982m | -2.1m/s | 9.6°C | 90.2% | 908.2hPa | 2.8V | 07:01:38 | 03:34:58 | 00:00:00 | |
| BIOWL1-15 | 2026-09-05 02:53:51 | 51.77931 | 9.21350 | 112° | 46km/h | 988m | -1.9m/s | 9.5°C | 90% | 907.6hPa | 2.7V | 07:01:38 | 03:34:55 | 00:00:00 | |
| BIOWL1-15 | 2026-09-05 02:53:51 | 51.77935 | 9.21333 | 111° | 46km/h | 990m | -2m/s | 9.5°C | 90.4% | 907.4hPa | 2.8V | 07:01:38 | 03:34:54 | 00:00:00 | |
| BIOWL1-15 | 2026-09-05 02:53:47 | 51.77949 | 9.21280 | 112° | 46km/h | 996m | -2.1m/s | 9.4°C | 90.6% | 906.6hPa | 2.8V | 07:01:38 | 03:34:51 | 00:00:00 | |
| BIOWL1-15 | 2026-09-05 02:53:47 | 51.77953 | 9.21263 | 113° | 47km/h | 998m | -2m/s | 9.4°C | 90.6% | 906.4hPa | 2.8V | 07:01:38 | 03:34:50 | 00:00:00 | |
| BIOWL1-15 | 2026-09-05 02:53:44 | 51.77958 | 9.21245 | 113° | 46km/h | 1000m | -1.9m/s | 9.4°C | 90.5% | 906.3hPa | 2.8V | 07:01:38 | 03:34:49 | 00:00:00 | |
| BIOWL1-15 | 2026-09-05 02:53:42 | 51.77967 | 9.21210 | 113° | 47km/h | 1004m | -2.2m/s | 9.3°C | 90.5% | 905.8hPa | 2.7V | 07:01:38 | 03:34:47 | 00:00:00 | |
| BIOWL1-15 | 2026-09-05 02:53:40 | 51.77980 | 9.21157 | 112° | 47km/h | 1010m | -2.2m/s | 9.3°C | 91% | 905.1hPa | 2.8V | 07:01:38 | 03:34:44 | 00:00:00 | |
| BIOWL1-15 | 2026-09-05 02:53:40 | 51.77985 | 9.21139 | 112° | 47km/h | 1012m | -2.1m/s | 9.3°C | 91.2% | 904.9hPa | 2.8V | 07:01:38 | 03:34:43 | 00:00:00 | |
| BIOWL1-15 | 2026-09-05 02:53:37 | 51.78021 | 9.20996 | 112° | 47km/h | 1029m | -2.1m/s | 9.1°C | 92.6% | 903hPa | 2.8V | 07:01:38 | 03:34:35 | 00:00:00 | |
| BIOWL1-15 | 2026-09-05 02:53:36 | 51.78025 | 9.20979 | 112° | 47km/h | 1031m | -2m/s | 9.1°C | 92.6% | 902.9hPa | 2.8V | 07:01:38 | 03:34:34 | 00:00:00 | |
| BIOWL1-15 | 2026-09-05 02:53:32 | 51.78030 | 9.20961 | 113° | 47km/h | 1033m | -2.2m/s | 9.1°C | 93.1% | 902.8hPa | 2.8V | 07:01:38 | 03:34:33 | 00:00:00 | |
| BIOWL1-15 | 2026-09-05 02:53:26 | 51.78044 | 9.20908 | 113° | 47km/h | 1039m | -2.3m/s | 9.1°C | 92.5% | 902hPa | 2.7V | 07:01:38 | 03:34:30 | 00:00:00 | |
| BIOWL1-15 | 2026-09-05 02:53:26 | 51.78048 | 9.20890 | 112° | 47km/h | 1042m | -2.1m/s | 9.1°C | 92.5% | 901.7hPa | 2.8V | 07:01:38 | 03:34:29 | 00:00:00 | |
| BIOWL1-15 | 2026-09-05 02:53:22 | 51.78062 | 9.20836 | 112° | 47km/h | 1048m | -2.2m/s | 9°C | 91.3% | 901hPa | 2.8V | 07:01:38 | 03:34:26 | 00:00:00 | |
| BIOWL1-15 | 2026-09-05 02:53:22 | 51.78066 | 9.20818 | 112° | 47km/h | 1050m | -2.1m/s | 9°C | 91.3% | 900.7hPa | 2.8V | 07:01:38 | 03:34:25 | 00:00:00 | |
| BIOWL1-15 | 2026-09-05 02:53:18 | 51.78075 | 9.20782 | 112° | 47km/h | 1054m | -2.3m/s | 9°C | 91% | 900.2hPa | 2.8V | 07:01:38 | 03:34:23 | 00:00:00 | |
| BIOWL1-15 | 2026-09-05 02:53:16 | 51.78088 | 9.20727 | 111° | 47km/h | 1061m | -2.2m/s | 9°C | 88.1% | 899.5hPa | 2.8V | 07:01:38 | 03:34:20 | 00:00:00 | |
| BIOWL1-15 | 2026-09-05 02:53:16 | 51.78093 | 9.20709 | 111° | 47km/h | 1063m | -2.1m/s | 9°C | 86.7% | 899.4hPa | 2.8V | 07:01:38 | 03:34:19 | 00:00:00 | |
| DM0DOS-11 | 2026-09-05 02:53:15 | 51.78093 | 9.20709 | 110° | 47km/h | 1063m | -2.1m/s | 9°C | 83.5% | 899.3hPa | 2.8V | 07:01:31 | 03:34:19 | 00:00:00 | |
| DM0DOS-11 | 2026-09-05 02:53:15 | 51.78110 | 9.20636 | 110° | 47km/h | 1072m | -2.3m/s | 9°C | 79.7% | 898.3hPa | 2.8V | 07:01:35 | 03:34:15 | 00:00:00 | |
| BIOWL1-15 | 2026-09-05 02:53:12 | 51.78105 | 9.20655 | 110° | 47km/h | 1070m | -2.2m/s | 9°C | 83.9% | 898.6hPa | 2.8V | 07:01:38 | 03:34:16 | 00:00:00 | |
| BIOWL1-15 | 2026-09-05 02:53:12 | 51.78110 | 9.20636 | 110° | 47km/h | 1072m | -2.3m/s | 9°C | 83.2% | 898.4hPa | 2.8V | 07:01:38 | 03:34:15 | 00:00:00 | |
| BIOWL1-15 | 2026-09-05 02:53:08 | 51.78118 | 9.20599 | 110° | 47km/h | 1076m | -2.1m/s | 9°C | 83.2% | 898hPa | 2.8V | 07:01:38 | 03:34:13 | 00:00:00 | |
| BIOWL1-15 | 2026-09-05 02:53:06 | 51.78126 | 9.20563 | 110° | 47km/h | 1081m | -2.3m/s | 8.9°C | 82.7% | 897.5hPa | 2.8V | 07:02:29 | 03:34:11 | 00:00:00 | |
| BIOWL1-15 | 2026-09-05 02:53:04 | 51.78135 | 9.20526 | 110° | 47km/h | 1085m | -2.1m/s | 8.9°C | 82.6% | 897hPa | 2.8V | 07:02:29 | 03:34:09 | 00:00:00 | |
| DM0DOS-11 | 2026-09-05 02:53:03 | 51.78152 | 9.20453 | 110° | 47km/h | 1094m | -2.2m/s | 8.8°C | 79% | 896hPa | 2.8V | 07:01:45 | 03:34:05 | 00:00:00 | |
| BIOWL1-15 | 2026-09-05 02:53:02 | 51.78143 | 9.20489 | 110° | 47km/h | 1089m | -2.2m/s | 8.9°C | 82.7% | 896.3hPa | 2.8V | 07:02:29 | 03:34:07 | 00:00:00 | |
| BIOWL1-15 | 2026-09-05 02:53:01 | 51.78148 | 9.20471 | 110° | 47km/h | 1091m | -2.3m/s | 8.9°C | 82.8% | 896.2hPa | 2.7V | 07:02:29 | 03:34:06 | 00:00:00 | |
| BIOWL1-15 | 2026-09-05 02:52:59 | 51.78160 | 9.20416 | 111° | 47km/h | 1098m | -2.5m/s | 8.8°C | 82.3% | 895.6hPa | 2.8V | 07:02:29 | 03:34:03 | 00:00:00 | |
| BIOWL1-15 | 2026-09-05 02:52:59 | 51.78164 | 9.20398 | 110° | 47km/h | 1101m | -2.2m/s | 8.8°C | 82% | 895.3hPa | 2.8V | 07:02:29 | 03:34:02 | 00:00:00 | |
| DM0DOS-11 | 2026-09-05 02:52:57 | 51.78168 | 9.20380 | 110° | 47km/h | 1103m | -2.2m/s | 8.8°C | 78.1% | 895.1hPa | 2.8V | 07:01:49 | 03:34:01 | 00:00:00 | |
| DM0DOS-11 | 2026-09-05 02:52:57 | 51.78177 | 9.20344 | 110° | 47km/h | 1107m | -2.3m/s | 8.9°C | 73.8% | 894.7hPa | 2.8V | 07:01:51 | 03:33:59 | 00:00:00 | |
| DM0DOS-11 | 2026-09-05 02:52:57 | 51.78185 | 9.20307 | 110° | 47km/h | 1112m | -2.4m/s | 8.8°C | 71.2% | 894.1hPa | 2.8V | 07:01:53 | 03:33:57 | 00:00:00 | |
| BIOWL1-15 | 2026-09-05 02:52:55 | 51.78177 | 9.20344 | 110° | 47km/h | 1107m | -2.3m/s | 8.9°C | 78.3% | 894.7hPa | 2.8V | 07:02:29 | 03:33:59 | 00:00:00 | |
| BIOWL1-15 | 2026-09-05 02:52:55 | 51.78181 | 9.20325 | 111° | 49km/h | 1109m | -2.4m/s | 8.9°C | 76.6% | 894.3hPa | 2.7V | 07:02:29 | 03:33:58 | 00:00:00 | |
| BIOWL1-15 | 2026-09-05 02:52:51 | 51.78190 | 9.20289 | 111° | 49km/h | 1114m | -2.4m/s | 8.8°C | 75.9% | 893.7hPa | 2.8V | 07:02:29 | 03:33:56 | 00:00:00 | |
| DM0DOS-11 | 2026-09-05 02:52:50 | 51.78198 | 9.20251 | 110° | 49km/h | 1119m | -2.2m/s | 8.8°C | 70.9% | 893.3hPa | 2.8V | 07:01:56 | 03:33:54 | 00:00:00 | |
| DM0DOS-11 | 2026-09-05 02:52:50 | 51.78216 | 9.20177 | 110° | 49km/h | 1127m | -2.3m/s | 8.7°C | 71.3% | 892.4hPa | 2.7V | 07:02:00 | 03:33:50 | 00:00:00 | |
| BIOWL1-15 | 2026-09-05 02:52:50 | 51.78194 | 9.20270 | 111° | 49km/h | 1116m | -2.1m/s | 8.8°C | 75.7% | 893.6hPa | 2.8V | 07:02:29 | 03:33:55 | 00:00:00 | |
| BIOWL1-15 | 2026-09-05 02:52:48 | 51.78207 | 9.20214 | 111° | 49km/h | 1123m | -2.3m/s | 8.7°C | 75.9% | 892.7hPa | 2.8V | 07:02:29 | 03:33:52 | 00:00:00 | |
| BIOWL1-15 | 2026-09-05 02:52:48 | 51.78211 | 9.20196 | 111° | 49km/h | 1125m | -2.3m/s | 8.7°C | 75.9% | 892.5hPa | 2.8V | 07:02:29 | 03:33:51 | 00:00:00 | |
| BIOWL1-15 | 2026-09-05 02:52:44 | 51.78224 | 9.20140 | 111° | 49km/h | 1132m | -2.3m/s | 8.7°C | 75.7% | 891.9hPa | 2.8V | 07:02:29 | 03:33:48 | 00:00:00 | |
| DM0DOS-11 | 2026-09-05 02:52:44 | 51.78233 | 9.20102 | 110° | 49km/h | 1136m | -2.2m/s | 8.6°C | 71.4% | 891.5hPa | 2.8V | 07:02:04 | 03:33:46 | 00:00:00 | |
| DM0DOS-11 | 2026-09-05 02:52:44 | 51.78242 | 9.20064 | 110° | 49km/h | 1141m | -2.3m/s | 8.6°C | 72.1% | 891hPa | 2.8V | 07:02:06 | 03:33:44 | 00:00:00 | |
| BIOWL1-15 | 2026-09-05 02:52:44 | 51.78229 | 9.20121 | 110° | 49km/h | 1134m | -2.2m/s | 8.6°C | 75.6% | 891.6hPa | 2.8V | 07:02:29 | 03:33:47 | 00:00:00 | |
| BIOWL1-15 | 2026-09-05 02:52:40 | 51.78238 | 9.20083 | 111° | 49km/h | 1138m | -2.2m/s | 8.6°C | 75.3% | 891.2hPa | 2.8V | 07:02:29 | 03:33:45 | 00:00:00 | |
| BIOWL1-15 | 2026-09-05 02:52:38 | 51.78246 | 9.20045 | 110° | 49km/h | 1143m | -2.2m/s | 8.6°C | 75.9% | 890.8hPa | 2.8V | 07:02:29 | 03:33:43 | 00:00:00 | |
| DM0DOS-11 | 2026-09-05 02:52:37 | 51.78264 | 9.19970 | 110° | 49km/h | 1152m | -2.3m/s | 8.5°C | 72.8% | 889.8hPa | 2.8V | 07:02:11 | 03:33:39 | 00:00:00 | |
| BIOWL1-15 | 2026-09-05 02:52:36 | 51.78255 | 9.20007 | 111° | 49km/h | 1147m | -2.1m/s | 8.5°C | 76.2% | 890.4hPa | 2.8V | 07:02:29 | 03:33:41 | 00:00:00 | |
| BIOWL1-15 | 2026-09-05 02:52:34 | 51.78268 | 9.19951 | 110° | 49km/h | 1154m | -2.2m/s | 8.5°C | 76.3% | 889.6hPa | 2.8V | 07:02:29 | 03:33:38 | 00:00:00 | |
| BIOWL1-15 | 2026-09-05 02:52:34 | 51.78273 | 9.19932 | 110° | 49km/h | 1156m | -2.3m/s | 8.4°C | 76.6% | 889.3hPa | 2.8V | 07:02:29 | 03:33:37 | 00:00:00 | |
| DM0DOS-11 | 2026-09-05 02:52:31 | 51.78281 | 9.19894 | 109° | 49km/h | 1161m | -2.3m/s | 8.4°C | 73.2% | 888.8hPa | 2.7V | 07:02:15 | 03:33:35 | 00:00:00 | |
| DM0DOS-11 | 2026-09-05 02:52:31 | 51.78289 | 9.19856 | 108° | 49km/h | 1165m | -2.1m/s | 8.4°C | 73.7% | 888.3hPa | 2.8V | 07:02:17 | 03:33:33 | 00:00:00 | |
| BIOWL1-15 | 2026-09-05 02:52:30 | 51.78285 | 9.19875 | 109° | 49km/h | 1163m | -2.3m/s | 8.4°C | 77.5% | 888.4hPa | 2.8V | 07:02:29 | 03:33:34 | 00:00:00 | |
| BIOWL1-15 | 2026-09-05 02:52:30 | 51.78289 | 9.19856 | 109° | 49km/h | 1165m | -2.1m/s | 8.4°C | 77.5% | 888.3hPa | 2.8V | 07:02:29 | 03:33:33 | 00:00:00 | |
| BIOWL1-15 | 2026-09-05 02:52:27 | 51.78293 | 9.19837 | 109° | 49km/h | 1167m | -2.3m/s | 8.3°C | 77.8% | 888hPa | 2.8V | 07:02:29 | 03:33:32 | 00:00:00 | |
| BIOWL1-15 | 2026-09-05 02:52:26 | 51.78310 | 9.19760 | 109° | 49km/h | 1177m | -2.4m/s | 8.3°C | 77.9% | 887.1hPa | 2.8V | 07:02:29 | 03:33:28 | 00:00:00 | |
| BIOWL1-15 | 2026-09-05 02:52:25 | 51.78314 | 9.19741 | 109° | 49km/h | 1179m | -2.5m/s | 8.3°C | 77.8% | 886.8hPa | 2.7V | 07:02:29 | 03:33:27 | 00:00:00 | |
| DM0DOS-11 | 2026-09-05 02:52:25 | 51.78305 | 9.19780 | 108° | 49km/h | 1174m | -2.4m/s | 8.3°C | 73.9% | 887.4hPa | 2.8V | 07:02:21 | 03:33:29 | 00:00:00 | |
| BIOWL1-15 | 2026-09-05 02:52:23 | 51.78318 | 9.19722 | 109° | 51km/h | 1182m | -2.4m/s | 8.3°C | 78.3% | 886.5hPa | 2.8V | 07:02:29 | 03:33:26 | 00:00:00 | |
| BIOWL1-15 | 2026-09-05 02:52:19 | 51.78330 | 9.19664 | 109° | 49km/h | 1188m | -2.3m/s | 8.2°C | 78.9% | 885.7hPa | 2.8V | 07:02:29 | 03:33:23 | 00:00:00 | |
| DM0DOS-11 | 2026-09-05 02:52:19 | 51.78347 | 9.19588 | 110° | 49km/h | 1198m | -2.5m/s | 8.1°C | 75.5% | 884.6hPa | 2.7V | 07:02:31 | 03:33:19 | 00:00:00 | |
| BIOWL1-15 | 2026-09-05 02:52:19 | 51.78334 | 9.19645 | 110° | 49km/h | 1191m | -2.5m/s | 8.2°C | 79.1% | 885.6hPa | 2.8V | 07:02:29 | 03:33:22 | 00:00:00 | |
| BIOWL1-15 | 2026-09-05 02:52:15 | 51.78356 | 9.19550 | 110° | 49km/h | 1203m | -2.4m/s | 8.1°C | 80.8% | 884.2hPa | 2.8V | 07:03:20 | 03:33:17 | 00:00:00 | |
| BIOWL1-15 | 2026-09-05 02:52:15 | 51.78360 | 9.19531 | 110° | 49km/h | 1205m | -2.6m/s | 8°C | 80.7% | 884hPa | 2.8V | 07:03:20 | 03:33:16 | 00:00:00 | |
| DM0DOS-11 | 2026-09-05 02:52:13 | 51.78356 | 9.19550 | 110° | 49km/h | 1203m | -2.4m/s | 8.1°C | 75.9% | 884.2hPa | 2.8V | 07:02:33 | 03:33:17 | 00:00:00 | |
| DM0DOS-11 | 2026-09-05 02:52:13 | 51.78365 | 9.19512 | 110° | 49km/h | 1208m | -2.4m/s | 8°C | 76.3% | 883.7hPa | 2.8V | 07:02:35 | 03:33:15 | 00:00:00 | |
| BIOWL1-15 | 2026-09-05 02:52:09 | 51.78373 | 9.19474 | 110° | 49km/h | 1212m | -2.3m/s | 8°C | 83.5% | 883hPa | 2.8V | 07:03:20 | 03:33:13 | 00:00:00 | |
| BIOWL1-15 | 2026-09-05 02:52:09 | 51.78378 | 9.19455 | 110° | 49km/h | 1215m | -2.2m/s | 7.9°C | 83.4% | 882.9hPa | 2.7V | 07:03:20 | 03:33:12 | 00:00:00 | |
| DM0DOS-11 | 2026-09-05 02:52:07 | 51.78382 | 9.19436 | 109° | 49km/h | 1217m | -2.3m/s | 7.9°C | 79.4% | 882.8hPa | 2.8V | 07:02:39 | 03:33:11 | 00:00:00 | |
| BIOWL1-15 | 2026-09-05 02:52:05 | 51.78386 | 9.19417 | 110° | 49km/h | 1219m | -2.2m/s | 7.9°C | 83.9% | 882.4hPa | 2.8V | 07:03:20 | 03:33:10 | 00:00:00 | |
| BIOWL1-15 | 2026-09-05 02:52:03 | 51.78395 | 9.19378 | 109° | 49km/h | 1224m | -2.4m/s | 7.8°C | 84.3% | 882.1hPa | 2.8V | 07:03:20 | 03:33:08 | 00:00:00 | |
| BIOWL1-15 | 2026-09-05 02:52:01 | 51.78403 | 9.19339 | 109° | 49km/h | 1228m | -2.4m/s | 7.8°C | 85.2% | 881.5hPa | 2.8V | 07:03:20 | 03:33:06 | 00:00:00 | |
| BIOWL1-15 | 2026-09-05 02:52:00 | 51.78407 | 9.19320 | 109° | 49km/h | 1230m | -2.2m/s | 7.8°C | 84.8% | 881.4hPa | 2.8V | 07:03:20 | 03:33:05 | 00:00:00 | |
| BIOWL1-15 | 2026-09-05 02:51:58 | 51.78437 | 9.19185 | 111° | 51km/h | 1247m | -2.4m/s | 7.6°C | 85.2% | 879.6hPa | 2.8V | 07:03:20 | 03:32:58 | 00:00:00 | |
| BIOWL1-15 | 2026-09-05 02:51:58 | 51.78442 | 9.19166 | 111° | 51km/h | 1249m | -2.3m/s | 7.6°C | 85.1% | 879.2hPa | 2.7V | 07:03:20 | 03:32:57 | 00:00:00 | |
| DM0DOS-11 | 2026-09-05 02:51:55 | 51.78442 | 9.19166 | 110° | 51km/h | 1249m | -2.3m/s | 7.6°C | 81.5% | 879.2hPa | 2.7V | 07:02:53 | 03:32:57 | 00:00:00 | |
| BIOWL1-15 | 2026-09-05 02:51:50 | 51.78451 | 9.19127 | 111° | 51km/h | 1253m | -2.2m/s | 7.6°C | 84.8% | 879hPa | 2.8V | 07:03:20 | 03:32:55 | 00:00:00 | |
| DM0DOS-11 | 2026-09-05 02:51:49 | 51.78461 | 9.19088 | 111° | 51km/h | 1258m | -2.1m/s | 7.5°C | 81.7% | 878.5hPa | 2.8V | 07:02:57 | 03:32:53 | 00:00:00 | |
| DM0DOS-11 | 2026-09-05 02:51:49 | 51.78470 | 9.19049 | 110° | 51km/h | 1262m | -2m/s | 7.5°C | 82% | 878hPa | 2.8V | 07:02:59 | 03:32:51 | 00:00:00 | |
| DM0DOS-11 | 2026-09-05 02:51:49 | 51.78479 | 9.19011 | 111° | 49km/h | 1266m | -2.1m/s | 7.5°C | 81.9% | 877.5hPa | 2.7V | 07:03:01 | 03:32:49 | 00:00:00 | |
| BIOWL1-15 | 2026-09-05 02:51:49 | 51.78456 | 9.19107 | 111° | 51km/h | 1255m | -2.1m/s | 7.6°C | 84.9% | 878.7hPa | 2.8V | 07:03:20 | 03:32:54 | 00:00:00 | |
| BIOWL1-15 | 2026-09-05 02:51:47 | 51.78465 | 9.19068 | 111° | 51km/h | 1260m | -2.1m/s | 7.5°C | 84.6% | 878.3hPa | 2.8V | 07:03:20 | 03:32:52 | 00:00:00 | |
| BIOWL1-15 | 2026-09-05 02:51:46 | 51.78470 | 9.19049 | 111° | 51km/h | 1262m | -2m/s | 7.5°C | 84.8% | 878hPa | 2.8V | 07:03:20 | 03:32:51 | 00:00:00 | |
| BIOWL1-15 | 2026-09-05 02:51:45 | 51.78474 | 9.19030 | 111° | 49km/h | 1264m | -2.1m/s | 7.5°C | 84.6% | 877.9hPa | 2.8V | 07:03:20 | 03:32:50 | 00:00:00 | |
| BIOWL1-15 | 2026-09-05 02:51:43 | 51.78484 | 9.18991 | 110° | 49km/h | 1268m | -2.2m/s | 7.4°C | 85.1% | 877.3hPa | 2.8V | 07:03:20 | 03:32:48 | 00:00:00 | |
| BIOWL1-15 | 2026-09-05 02:51:41 | 51.78492 | 9.18953 | 111° | 49km/h | 1272m | -2.3m/s | 7.4°C | 85.9% | 876.9hPa | 2.8V | 07:03:20 | 03:32:46 | 00:00:00 | |
| BIOWL1-15 | 2026-09-05 02:51:40 | 51.78497 | 9.18934 | 110° | 49km/h | 1275m | -2.4m/s | 7.4°C | 86.2% | 876.6hPa | 2.8V | 07:03:20 | 03:32:45 | 00:00:00 | |
| BIOWL1-15 | 2026-09-05 02:51:39 | 51.78501 | 9.18915 | 109° | 49km/h | 1277m | -2.5m/s | 7.3°C | 85.8% | 876.2hPa | 2.8V | 07:03:20 | 03:32:44 | 00:00:00 | |
| BIOWL1-15 | 2026-09-05 02:51:37 | 51.78514 | 9.18858 | 109° | 49km/h | 1285m | -2.3m/s | 7.3°C | 86.3% | 875.6hPa | 2.8V | 07:03:20 | 03:32:41 | 00:00:00 | |
| DM0DOS-11 | 2026-09-05 02:51:37 | 51.78522 | 9.18820 | 108° | 49km/h | 1290m | -2.4m/s | 7.2°C | 83.1% | 875.1hPa | 2.8V | 07:03:11 | 03:32:39 | 00:00:00 | |
| BIOWL1-15 | 2026-09-05 02:51:37 | 51.78518 | 9.18839 | 109° | 49km/h | 1287m | -2.5m/s | 7.2°C | 86.8% | 875.3hPa | 2.8V | 07:03:20 | 03:32:40 | 00:00:00 | |
| BIOWL1-15 | 2026-09-05 02:51:33 | 51.78546 | 9.18706 | 110° | 47km/h | 1304m | -2.7m/s | 7.1°C | 87.4% | 873.6hPa | 2.8V | 07:03:20 | 03:32:33 | 00:00:00 | |
| BIOWL1-15 | 2026-09-05 02:51:33 | 51.78550 | 9.18688 | 111° | 47km/h | 1306m | -2.3m/s | 7.1°C | 86.6% | 873.4hPa | 2.8V | 07:03:20 | 03:32:32 | 00:00:00 | |
| DM0DOS-11 | 2026-09-05 02:51:31 | 51.78555 | 9.18669 | 110° | 47km/h | 1309m | -2.1m/s | 7.1°C | 83% | 873.1hPa | 2.8V | 07:03:19 | 03:32:31 | 00:00:00 | |
| BIOWL1-15 | 2026-09-05 02:51:29 | 51.78554 | 9.18669 | 111° | 47km/h | 1309m | -2.1m/s | 7.1°C | 87.2% | 873.1hPa | 2.8V | 07:03:20 | 03:32:31 | 00:00:00 | |
| BIOWL1-15 | 2026-09-05 02:51:27 | 51.78559 | 9.18651 | 111° | 49km/h | 1311m | -2.2m/s | 7.1°C | 87.1% | 872.9hPa | 2.8V | 07:03:20 | 03:32:30 | 00:00:00 | |
| DB0DAN | 2026-09-05 02:51:25 | 51.78559 | 9.18651 | 111° | 46km/h | 1311m | -2.2m/s | 7.1°C | 82.4% | 872.93hPa | 2.8V | 00:00:00 | 00:00:00 | 00:00:00 | |
| BIOWL1-15 | 2026-09-05 02:51:24 | 51.78563 | 9.18632 | 111° | 49km/h | 1313m | -2.4m/s | 7°C | 84.9% | 872.5hPa | 2.8V | 07:04:11 | 03:32:29 | 00:00:00 | |
| BIOWL1-15 | 2026-09-05 02:51:23 | 51.78568 | 9.18613 | 111° | 49km/h | 1315m | -2.2m/s | 7°C | 86.3% | 872.4hPa | 2.8V | 07:04:11 | 03:32:28 | 00:00:00 | |
| BIOWL1-15 | 2026-09-05 02:51:21 | 51.78577 | 9.18575 | 111° | 49km/h | 1320m | -2.4m/s | 7°C | 85.7% | 871.9hPa | 2.8V | 07:04:11 | 03:32:26 | 00:00:00 | |
| BIOWL1-15 | 2026-09-05 02:51:19 | 51.78590 | 9.18518 | 110° | 49km/h | 1326m | -2m/s | 6.9°C | 86.3% | 871hPa | 2.8V | 07:04:11 | 03:32:23 | 00:00:00 | |
| DM0DOS-11 | 2026-09-05 02:51:19 | 51.78599 | 9.18481 | 109° | 47km/h | 1330m | -2.1m/s | 6.8°C | 82.9% | 870.6hPa | 2.8V | 07:03:29 | 03:32:21 | 00:00:00 | |
| DM0DOS-11 | 2026-09-05 02:51:19 | 51.78607 | 9.18444 | 108° | 47km/h | 1335m | -2.5m/s | 6.8°C | 83% | 870.2hPa | 2.8V | 07:03:31 | 03:32:19 | 00:00:00 | |
| BIOWL1-15 | 2026-09-05 02:51:19 | 51.78595 | 9.18500 | 110° | 49km/h | 1328m | -2m/s | 6.9°C | 85.8% | 871hPa | 2.8V | 07:04:11 | 03:32:22 | 00:00:00 | |
| BIOWL1-15 | 2026-09-05 02:51:15 | 51.78603 | 9.18463 | 109° | 47km/h | 1333m | -2.1m/s | 6.8°C | 86.8% | 870.4hPa | 2.7V | 07:04:11 | 03:32:20 | 00:00:00 | |
| DM0DOS-11 | 2026-09-05 02:51:13 | 51.78622 | 9.18372 | 108° | 46km/h | 1344m | -2.6m/s | 6.7°C | 86.3% | 869.1hPa | 2.8V | 07:03:35 | 03:32:15 | 00:00:00 | |
| BIOWL1-15 | 2026-09-05 02:51:13 | 51.78611 | 9.18426 | 109° | 47km/h | 1337m | -2.1m/s | 6.7°C | 86.5% | 870hPa | 2.8V | 07:04:11 | 03:32:18 | 00:00:00 | |
| BIOWL1-15 | 2026-09-05 02:51:11 | 51.78626 | 9.18354 | 108° | 46km/h | 1347m | -2.5m/s | 6.7°C | 89.9% | 869hPa | 2.8V | 07:04:11 | 03:32:14 | 00:00:00 | |
| BIOWL1-15 | 2026-09-05 02:51:11 | 51.78630 | 9.18336 | 109° | 47km/h | 1349m | -2.5m/s | 6.6°C | 89.9% | 868.6hPa | 2.7V | 07:04:11 | 03:32:13 | 00:00:00 | |
| DB0DAN | 2026-09-05 02:51:10 | 51.78622 | 9.18372 | 109° | 44km/h | 1344m | -2.6m/s | 6.7°C | 85.8% | 869.07hPa | 2.8V | 00:00:00 | 00:00:00 | 00:00:00 | |
| BIOWL1-15 | 2026-09-05 02:51:09 | 51.78633 | 9.18318 | 109° | 47km/h | 1352m | -2.3m/s | 6.6°C | 89.7% | 868.5hPa | 2.8V | 07:04:11 | 03:32:12 | 00:00:00 | |
| DM0DOS-11 | 2026-09-05 02:51:07 | 51.78637 | 9.18300 | 108° | 47km/h | 1354m | -2.5m/s | 6.6°C | 87.1% | 868.2hPa | 2.8V | 07:03:39 | 03:32:11 | 00:00:00 | |
| DM0DOS-11 | 2026-09-05 02:51:07 | 51.78652 | 9.18226 | 108° | 47km/h | 1364m | -2.4m/s | 6.5°C | 87.5% | 867.1hPa | 2.8V | 07:03:43 | 03:32:07 | 00:00:00 | |
| BIOWL1-15 | 2026-09-05 02:51:06 | 51.78637 | 9.18300 | 108° | 47km/h | 1354m | -2.5m/s | 6.6°C | 89.6% | 868.2hPa | 2.8V | 07:04:11 | 03:32:11 | 00:00:00 | |
| BIOWL1-15 | 2026-09-05 02:51:05 | 51.78641 | 9.18281 | 108° | 47km/h | 1357m | -2.6m/s | 6.6°C | 89.6% | 867.8hPa | 2.8V | 07:04:11 | 03:32:10 | 00:00:00 | |
| BIOWL1-15 | 2026-09-05 02:51:04 | 51.78645 | 9.18263 | 107° | 47km/h | 1359m | -2.4m/s | 6.5°C | 89.9% | 867.5hPa | 2.8V | 07:04:11 | 03:32:09 | 00:00:00 | |
| BIOWL1-15 | 2026-09-05 02:51:03 | 51.78648 | 9.18245 | 107° | 47km/h | 1362m | -2.5m/s | 6.5°C | 90.1% | 867.3hPa | 2.8V | 07:04:11 | 03:32:08 | 00:00:00 | |
| BIOWL1-15 | 2026-09-05 02:51:01 | 51.78666 | 9.18153 | 105° | 46km/h | 1374m | -2.4m/s | 6.4°C | 91.3% | 866hPa | 2.8V | 07:04:11 | 03:32:03 | 00:00:00 | |
| DM0DOS-11 | 2026-09-05 02:51:01 | 51.78672 | 9.18116 | 104° | 47km/h | 1379m | -2.4m/s | 6.3°C | 88.2% | 865.5hPa | 2.8V | 07:03:49 | 03:32:01 | 00:00:00 | |
| BIOWL1-15 | 2026-09-05 02:51:01 | 51.78669 | 9.18134 | 106° | 46km/h | 1376m | -2.4m/s | 6.4°C | 91.4% | 866hPa | 2.8V | 07:04:11 | 03:32:02 | 00:00:00 | |
| BIOWL1-15 | 2026-09-05 02:50:56 | 51.78672 | 9.18116 | 105° | 47km/h | 1379m | -2.4m/s | 6.3°C | 91.5% | 865.5hPa | 2.8V | 07:04:11 | 03:32:01 | 00:00:00 | |
| DB0DAN | 2026-09-05 02:50:55 | 51.78675 | 9.18098 | 106° | 44km/h | 1382m | -2.6m/s | 6.3°C | 87.9% | 865.26hPa | 2.8V | 00:00:00 | 00:00:00 | 00:00:00 | |
| DM0DOS-11 | 2026-09-05 02:50:55 | 51.78685 | 9.18042 | 105° | 46km/h | 1389m | -2.5m/s | 6.2°C | 88.8% | 864.4hPa | 2.8V | 07:03:53 | 03:31:57 | 00:00:00 | |
| BIOWL1-15 | 2026-09-05 02:50:54 | 51.78681 | 9.18061 | 106° | 47km/h | 1387m | -2.5m/s | 6.3°C | 92.2% | 864.8hPa | 2.8V | 07:04:11 | 03:31:58 | 00:00:00 | |
| BIOWL1-15 | 2026-09-05 02:50:54 | 51.78685 | 9.18042 | 105° | 46km/h | 1389m | -2.5m/s | 6.2°C | 92.3% | 864.4hPa | 2.8V | 07:04:11 | 03:31:57 | 00:00:00 | |
| BIOWL1-15 | 2026-09-05 02:50:50 | 51.78693 | 9.17988 | 104° | 46km/h | 1397m | -2.6m/s | 6.2°C | 92.7% | 863.7hPa | 2.8V | 07:04:11 | 03:31:54 | 00:00:00 | |
| BIOWL1-15 | 2026-09-05 02:50:50 | 51.78696 | 9.17970 | 104° | 46km/h | 1399m | -2.6m/s | 6.1°C | 92.6% | 863.5hPa | 2.8V | 07:04:11 | 03:31:53 | 00:00:00 | |
| DM0DOS-11 | 2026-09-05 02:50:49 | 51.78707 | 9.17899 | 105° | 44km/h | 1410m | -2.5m/s | 6°C | 90.7% | 862.3hPa | 2.8V | 07:04:01 | 03:31:49 | 00:00:00 | |
| BIOWL1-15 | 2026-09-05 02:50:46 | 51.78704 | 9.17917 | 105° | 44km/h | 1407m | -2.5m/s | 6.1°C | 93.1% | 862.6hPa | 2.8V | 07:04:11 | 03:31:50 | 00:00:00 | |
| BIOWL1-15 | 2026-09-05 02:50:46 | 51.78707 | 9.17899 | 106° | 44km/h | 1410m | -2.5m/s | 6°C | 93.6% | 862.3hPa | 2.8V | 07:04:11 | 03:31:49 | 00:00:00 | |
| DM0DOS-11 | 2026-09-05 02:50:43 | 51.78713 | 9.17864 | 104° | 46km/h | 1415m | -2.4m/s | 6°C | 91.3% | 861.8hPa | 2.8V | 07:04:03 | 03:31:47 | 00:00:00 | |
| DM0DOS-11 | 2026-09-05 02:50:43 | 51.78724 | 9.17793 | 103° | 44km/h | 1425m | -2.5m/s | 5.9°C | 92% | 860.8hPa | 2.8V | 07:04:07 | 03:31:43 | 00:00:00 | |
| BIOWL1-15 | 2026-09-05 02:50:43 | 51.78710 | 9.17882 | 105° | 44km/h | 1412m | -2.4m/s | 6°C | 93.9% | 862.1hPa | 2.8V | 07:04:11 | 03:31:48 | 00:00:00 | |
| BIOWL1-15 | 2026-09-05 02:50:41 | 51.78718 | 9.17828 | 104° | 46km/h | 1420m | -2.5m/s | 6°C | 94.3% | 861.3hPa | 2.7V | 07:04:11 | 03:31:45 | 00:00:00 | |
| BIOWL1-15 | 2026-09-05 02:50:41 | 51.78721 | 9.17810 | 104° | 46km/h | 1422m | -2.4m/s | 5.9°C | 94.2% | 861hPa | 2.8V | 07:04:11 | 03:31:44 | 00:00:00 | |
| DB0DAN | 2026-09-05 02:50:40 | 51.78718 | 9.17828 | 104° | 42km/h | 1420m | -2.5m/s | 6°C | 91.2% | 861.33hPa | 2.7V | 00:00:00 | 00:00:00 | 00:00:00 | |
| BIOWL1-15 | 2026-09-05 02:50:37 | 51.78731 | 9.17739 | 103° | 46km/h | 1432m | -2.5m/s | 5.9°C | 94.9% | 859.9hPa | 2.8V | 07:04:11 | 03:31:40 | 00:00:00 | |
| BIOWL1-15 | 2026-09-05 02:50:37 | 51.78734 | 9.17721 | 102° | 44km/h | 1435m | -2.7m/s | 5.8°C | 94.9% | 859.7hPa | 2.8V | 07:04:11 | 03:31:39 | 00:00:00 | |
| DM0DOS-11 | 2026-09-05 02:50:37 | 51.78734 | 9.17721 | 102° | 44km/h | 1435m | -2.6m/s | 5.8°C | 92.2% | 859.7hPa | 2.8V | 07:04:11 | 03:31:39 | 00:00:00 | |
| DM0DOS-11 | 2026-09-05 02:50:37 | 51.78738 | 9.17686 | 101° | 44km/h | 1440m | -2.2m/s | 5.8°C | 92.4% | 859.2hPa | 2.8V | 07:04:13 | 03:31:37 | 00:00:00 | |
| BIOWL1-15 | 2026-09-05 02:50:35 | 51.78736 | 9.17704 | 104° | 44km/h | 1437m | -2.5m/s | 5.8°C | 94.9% | 859.4hPa | 2.7V | 07:05:02 | 03:31:38 | 00:00:00 | |
| DM0DOS-11 | 2026-09-05 02:50:31 | 51.78743 | 9.17651 | 102° | 44km/h | 1444m | -2.5m/s | 5.8°C | 91.7% | 858.6hPa | 2.8V | 07:04:15 | 03:31:35 | 00:00:00 | |
| DM0DOS-11 | 2026-09-05 02:50:31 | 51.78748 | 9.17615 | 102° | 44km/h | 1449m | -2.7m/s | 5.8°C | 91.3% | 858.2hPa | 2.8V | 07:04:17 | 03:31:33 | 00:00:00 | |
| DM0DOS-11 | 2026-09-05 02:50:31 | 51.78753 | 9.17580 | 103° | 44km/h | 1455m | -2.6m/s | 5.8°C | 88.4% | 857.6hPa | 2.7V | 07:04:19 | 03:31:31 | 00:00:00 | |
| BIOWL1-15 | 2026-09-05 02:50:31 | 51.78741 | 9.17668 | 102° | 44km/h | 1442m | -2.6m/s | 5.8°C | 94.7% | 858.9hPa | 2.8V | 07:05:02 | 03:31:36 | 00:00:00 | |
| BIOWL1-15 | 2026-09-05 02:50:30 | 51.78743 | 9.17651 | 103° | 44km/h | 1444m | -2.5m/s | 5.8°C | 94.5% | 858.6hPa | 2.8V | 07:05:02 | 03:31:35 | 00:00:00 | |
| BIOWL1-15 | 2026-09-05 02:50:28 | 51.78753 | 9.17580 | 103° | 44km/h | 1455m | -2.6m/s | 5.8°C | 91.4% | 857.6hPa | 2.7V | 07:05:02 | 03:31:31 | 00:00:00 | |
| BIOWL1-15 | 2026-09-05 02:50:28 | 51.78756 | 9.17563 | 104° | 44km/h | 1457m | -2.6m/s | 5.8°C | 90.6% | 857.2hPa | 2.8V | 07:05:02 | 03:31:30 | 00:00:00 | |
| BIOWL1-15 | 2026-09-05 02:50:26 | 51.78759 | 9.17546 | 104° | 44km/h | 1460m | -2.6m/s | 5.8°C | 90.9% | 856.9hPa | 2.8V | 07:05:02 | 03:31:29 | 00:00:00 | |
| DB0DAN | 2026-09-05 02:50:25 | 51.78756 | 9.17563 | 104° | 42km/h | 1457m | -2.6m/s | 5.8°C | 87.2% | 857.23hPa | 2.8V | 00:00:00 | 00:00:00 | 00:00:00 | |
| DM0DOS-11 | 2026-09-05 02:50:25 | 51.78764 | 9.17511 | 103° | 42km/h | 1465m | -2.5m/s | 5.8°C | 85.3% | 856.5hPa | 2.8V | 07:04:23 | 03:31:27 | 00:00:00 | |
| DM0DOS-11 | 2026-09-05 02:50:25 | 51.78769 | 9.17477 | 104° | 42km/h | 1470m | -2.6m/s | 5.8°C | 83.7% | 855.9hPa | 2.8V | 07:04:25 | 03:31:25 | 00:00:00 | |
| BIOWL1-15 | 2026-09-05 02:50:22 | 51.78766 | 9.17494 | 104° | 44km/h | 1467m | -2.7m/s | 5.8°C | 87.7% | 856.2hPa | 2.8V | 07:05:02 | 03:31:26 | 00:00:00 | |
| BIOWL1-15 | 2026-09-05 02:50:22 | 51.78769 | 9.17477 | 104° | 42km/h | 1470m | -2.6m/s | 5.8°C | 87.3% | 855.9hPa | 2.8V | 07:05:02 | 03:31:25 | 00:00:00 | |
| DM0DOS-11 | 2026-09-05 02:50:19 | 51.78785 | 9.17376 | 103° | 42km/h | 1486m | -2.5m/s | 5.6°C | 83.8% | 854.2hPa | 2.8V | 07:04:31 | 03:31:19 | 00:00:00 | |
| BIOWL1-15 | 2026-09-05 02:50:18 | 51.78774 | 9.17444 | 104° | 42km/h | 1475m | -2.7m/s | 5.7°C | 87.4% | 855.3hPa | 2.8V | 07:05:02 | 03:31:23 | 00:00:00 | |
| BIOWL1-15 | 2026-09-05 02:50:16 | 51.78779 | 9.17410 | 104° | 42km/h | 1480m | -2.8m/s | 5.7°C | 87.6% | 854.7hPa | 2.8V | 07:05:02 | 03:31:21 | 00:00:00 | |
| BIOWL1-15 | 2026-09-05 02:50:14 | 51.78795 | 9.17308 | 104° | 44km/h | 1496m | -2.9m/s | 5.6°C | 88.8% | 853.2hPa | 2.8V | 07:05:02 | 03:31:15 | 00:00:00 | |
| BIOWL1-15 | 2026-09-05 02:50:14 | 51.78798 | 9.17291 | 104° | 44km/h | 1498m | -2.6m/s | 5.6°C | 88.8% | 853hPa | 2.8V | 07:05:02 | 03:31:14 | 00:00:00 | |
| DM0DOS-11 | 2026-09-05 02:50:13 | 51.78790 | 9.17342 | 103° | 42km/h | 1490m | -2.5m/s | 5.6°C | 85.7% | 853.9hPa | 2.7V | 07:04:33 | 03:31:17 | 00:00:00 | |
| BIOWL1-15 | 2026-09-05 02:50:12 | 51.78800 | 9.17274 | 104° | 44km/h | 1501m | -2.5m/s | 5.5°C | 89.3% | 852.7hPa | 2.8V | 07:05:02 | 03:31:13 | 00:00:00 | |
| DB0DAN | 2026-09-05 02:50:10 | 51.78795 | 9.17308 | 104° | 42km/h | 1496m | -2.9m/s | 5.6°C | 85.1% | 853.19hPa | 2.8V | 00:00:00 | 00:00:00 | 00:00:00 | |
| DL4BBY-15 | 2026-09-05 02:50:09 | 51.78797 | 9.17291 | 105° | 46km/h | 1499m | -2.6m/s | 5.5°C | 0% | 0hPa | 2.8V | 00:00:00 | 00:00:00 | 00:00:00 | |
| DM0DOS-11 | 2026-09-05 02:50:07 | 51.78806 | 9.17240 | 103° | 44km/h | 1506m | -2.7m/s | 5.5°C | 85.5% | 851.9hPa | 2.8V | 07:04:39 | 03:31:11 | 00:00:00 | |
| BIOWL1-15 | 2026-09-05 02:50:06 | 51.78810 | 9.17206 | 103° | 42km/h | 1512m | -2.7m/s | 5.4°C | 89.5% | 851.6hPa | 2.8V | 07:05:02 | 03:31:09 | 00:00:00 | |
| BIOWL1-15 | 2026-09-05 02:50:06 | 51.78813 | 9.17189 | 103° | 42km/h | 1514m | -2.7m/s | 5.4°C | 90% | 851.3hPa | 2.8V | 07:05:02 | 03:31:08 | 00:00:00 | |
| HSKMA3-T | 2026-09-05 02:50:02 | 51.78815 | 9.17172 | 103° | 42km/h | 1517m | -2.7m/s | 5.5°C | 91.1% | 851.1hPa | 2.8V | 07:08:26 | 03:31:07 | 00:00:00 | |
| DM0DOS-11 | 2026-09-05 02:50:01 | 51.78830 | 9.17071 | 103° | 44km/h | 1532m | -2.6m/s | 5.3°C | 85.4% | 849.4hPa | 2.8V | 07:04:49 | 03:31:01 | 00:00:00 | |
| BIOWL1-15 | 2026-09-05 02:50:01 | 51.78817 | 9.17155 | 103° | 42km/h | 1519m | -2.6m/s | 5.4°C | 90% | 850.9hPa | 2.7V | 07:05:02 | 03:31:06 | 00:00:00 | |
| BIOWL1-15 | 2026-09-05 02:49:59 | 51.78830 | 9.17071 | 103° | 44km/h | 1532m | -2.6m/s | 5.4°C | 88.4% | 849.4hPa | 2.8V | 07:05:02 | 03:31:01 | 00:00:00 | |
| BIOWL1-15 | 2026-09-05 02:49:59 | 51.78832 | 9.17054 | 103° | 42km/h | 1535m | -2.6m/s | 5.3°C | 88% | 849.2hPa | 2.8V | 07:05:02 | 03:31:00 | 00:00:00 | |
| SONCRA | 2026-09-05 02:49:56 | 51.78830 | 9.17071 | 103° | 42km/h | 1532m | -2.6m/s | 5.4°C | 84.9% | 849.4hPa | 2.8V | 00:00:00 | 00:00:00 | 00:00:00 | |
| DB0DAN | 2026-09-05 02:49:55 | 51.78832 | 9.17054 | 103° | 40km/h | 1535m | -2.6m/s | 5.3°C | 84.5% | 849.25hPa | 2.8V | 00:00:00 | 00:00:00 | 00:00:00 | |
| BIOWL1-15 | 2026-09-05 02:49:53 | 51.78837 | 9.17020 | 104° | 44km/h | 1540m | -2.5m/s | 5.3°C | 89.2% | 848.5hPa | 2.7V | 07:05:02 | 03:30:58 | 00:00:00 | |
| BIOWL1-15 | 2026-09-05 02:49:51 | 51.78845 | 9.16968 | 104° | 44km/h | 1548m | -2.8m/s | 5.3°C | 89.1% | 847.7hPa | 2.8V | 07:05:02 | 03:30:55 | 00:00:00 | |
| BIOWL1-15 | 2026-09-05 02:49:51 | 51.78848 | 9.16951 | 103° | 44km/h | 1551m | -2.7m/s | 5.3°C | 88.9% | 847.5hPa | 2.8V | 07:05:02 | 03:30:54 | 00:00:00 | |
| DM0DOS-11 | 2026-09-05 02:49:49 | 51.78855 | 9.16900 | 102° | 44km/h | 1558m | -2.5m/s | 5.2°C | 85.6% | 846.8hPa | 2.7V | 07:04:59 | 03:30:51 | 00:00:00 | |
| BIOWL1-15 | 2026-09-05 02:49:47 | 51.78853 | 9.16917 | 103° | 44km/h | 1556m | -2.6m/s | 5.2°C | 88.5% | 846.9hPa | 2.8V | 07:05:02 | 03:30:52 | 00:00:00 | |
| BIOWL1-15 | 2026-09-05 02:49:46 | 51.78855 | 9.16900 | 103° | 44km/h | 1558m | -2.5m/s | 5.2°C | 88.5% | 846.8hPa | 2.7V | 07:05:02 | 03:30:51 | 00:00:00 | |
| BIOWL1-15 | 2026-09-05 02:49:45 | 51.78858 | 9.16882 | 103° | 44km/h | 1561m | -2.7m/s | 5.2°C | 88.5% | 846.4hPa | 2.8V | 07:05:02 | 03:30:50 | 00:00:00 | |
| DM0DOS-11 | 2026-09-05 02:49:43 | 51.78865 | 9.16830 | 101° | 44km/h | 1569m | -2.6m/s | 5.2°C | 83% | 845.7hPa | 2.8V | 07:05:03 | 03:30:47 | 00:00:00 | |
| BIOWL1-15 | 2026-09-05 02:49:43 | 51.78863 | 9.16847 | 102° | 44km/h | 1566m | -2.7m/s | 5.2°C | 87.6% | 845.9hPa | 2.8V | 07:05:02 | 03:30:48 | 00:00:00 | |
| BIOWL1-15 | 2026-09-05 02:49:42 | 51.78865 | 9.16830 | 102° | 44km/h | 1569m | -2.6m/s | 5.2°C | 86% | 845.7hPa | 2.8V | 07:05:53 | 03:30:47 | 00:00:00 | |
| DB0DAN | 2026-09-05 02:49:40 | 51.78869 | 9.16794 | 101° | 42km/h | 1574m | -2.5m/s | 5.1°C | 81.6% | 845.02hPa | 2.8V | 00:00:00 | 00:00:00 | 00:00:00 | |
| BIOWL1-15 | 2026-09-05 02:49:40 | 51.78869 | 9.16794 | 101° | 44km/h | 1574m | -2.5m/s | 5.1°C | 84.9% | 845hPa | 2.8V | 07:05:53 | 03:30:45 | 00:00:00 | |
| BIOWL1-15 | 2026-09-05 02:49:39 | 51.78872 | 9.16776 | 101° | 44km/h | 1576m | -2.5m/s | 5.1°C | 86.8% | 844.9hPa | 2.7V | 07:05:53 | 03:30:44 | 00:00:00 | |
| BIOWL1-15 | 2026-09-05 02:49:37 | 51.78876 | 9.16741 | 102° | 46km/h | 1581m | -2.6m/s | 5.1°C | 87.2% | 844.2hPa | 2.8V | 07:05:53 | 03:30:42 | 00:00:00 | |
| BIOWL1-15 | 2026-09-05 02:49:36 | 51.78879 | 9.16723 | 103° | 46km/h | 1584m | -2.8m/s | 5°C | 87.3% | 844hPa | 2.8V | 07:05:53 | 03:30:41 | 00:00:00 | |
| BIOWL1-15 | 2026-09-05 02:49:35 | 51.78881 | 9.16705 | 104° | 46km/h | 1586m | -2.7m/s | 5°C | 87.3% | 843.8hPa | 2.8V | 07:05:53 | 03:30:40 | 00:00:00 | |
| DO2JMG | 2026-09-05 02:49:33 | 51.78887 | 9.16670 | 105° | 44km/h | 1591m | -2.6m/s | 5°C | 86.3% | 843.4hPa | 2.7V | 07:05:53 | 03:30:38 | 00:00:00 | |
| DO2JMG | 2026-09-05 02:49:32 | 51.78890 | 9.16652 | 106° | 46km/h | 1594m | -2.6m/s | 5°C | 85.8% | 843hPa | 2.8V | 07:05:53 | 03:30:37 | 00:00:00 | |
| DL4XJ-10 | 2026-09-05 02:49:32 | 51.78890 | 9.16652 | 106° | 46km/h | 1593m | -2.6m/s | 4.9°C | 0% | 0hPa | 2.7V | 00:00:00 | 00:00:00 | 00:00:00 | |
| DM0DOS-11 | 2026-09-05 02:49:31 | 51.78909 | 9.16545 | 106° | 46km/h | 1609m | -2.4m/s | 4.9°C | 82.8% | 841.5hPa | 2.7V | 07:05:19 | 03:30:31 | 00:00:00 | |
| DO2JMG | 2026-09-05 02:49:30 | 51.78896 | 9.16617 | 106° | 46km/h | 1599m | -2.6m/s | 5°C | 85.5% | 842.4hPa | 2.8V | 07:05:53 | 03:30:35 | 00:00:00 | |
| DO2JMG | 2026-09-05 02:49:29 | 51.78899 | 9.16599 | 106° | 46km/h | 1601m | -2.7m/s | 4.9°C | 85.5% | 842.1hPa | 2.8V | 07:05:53 | 03:30:34 | 00:00:00 | |
| BIOWL1-15 | 2026-09-05 02:49:27 | 51.78912 | 9.16527 | 106° | 46km/h | 1611m | -2.7m/s | 4.9°C | 85% | 841.1hPa | 2.8V | 07:05:53 | 03:30:30 | 00:00:00 | |
| DO2JMG | 2026-09-05 02:49:26 | 51.78909 | 9.16545 | 106° | 46km/h | 1609m | -2.4m/s | 4.9°C | 85.3% | 841.5hPa | 2.7V | 07:05:53 | 03:30:31 | 00:00:00 | |
| DB0DAN | 2026-09-05 02:49:25 | 51.78912 | 9.16527 | 106° | 44km/h | 1611m | -2.7m/s | 4.9°C | 81.9% | 841.09hPa | 2.8V | 00:00:00 | 00:00:00 | 00:00:00 | |
| BIOWL1-15 | 2026-09-05 02:49:24 | 51.78915 | 9.16509 | 106° | 47km/h | 1614m | -2.7m/s | 4.9°C | 84.5% | 840.8hPa | 2.8V | 07:05:53 | 03:30:29 | 00:00:00 | |
| DO2JMG | 2026-09-05 02:49:23 | 51.78919 | 9.16491 | 106° | 46km/h | 1617m | -2.7m/s | 4.9°C | 83.5% | 840.5hPa | 2.8V | 07:05:53 | 03:30:28 | 00:00:00 | |
| BIOWL1-15 | 2026-09-05 02:49:22 | 51.78922 | 9.16473 | 106° | 47km/h | 1619m | -2.9m/s | 4.9°C | 83.2% | 840.3hPa | 2.8V | 07:05:53 | 03:30:27 | 00:00:00 | |
| DO2JMG | 2026-09-05 02:49:21 | 51.78925 | 9.16454 | 106° | 46km/h | 1622m | -2.7m/s | 4.9°C | 83.2% | 839.9hPa | 2.8V | 07:05:53 | 03:30:26 | 00:00:00 | |
| DO2JMG | 2026-09-05 02:49:20 | 51.78929 | 9.16436 | 106° | 46km/h | 1624m | -2.6m/s | 4.9°C | 82.7% | 839.8hPa | 2.8V | 07:05:53 | 03:30:25 | 00:00:00 | |
| DM0DOS-11 | 2026-09-05 02:49:19 | 51.78941 | 9.16363 | 105° | 47km/h | 1634m | -2.7m/s | 4.9°C | 77.2% | 838.6hPa | 2.7V | 07:05:29 | 03:30:21 | 00:00:00 | |
| BIOWL1-15 | 2026-09-05 02:49:19 | 51.78932 | 9.16418 | 106° | 47km/h | 1627m | -2.9m/s | 4.9°C | 82% | 839.6hPa | 2.8V | 07:05:53 | 03:30:24 | 00:00:00 | |
| DO2JMG | 2026-09-05 02:49:18 | 51.78935 | 9.16399 | 106° | 46km/h | 1629m | -2.6m/s | 4.9°C | 82% | 839.2hPa | 2.8V | 07:05:53 | 03:30:23 | 00:00:00 | |
| BIOWL1-15 | 2026-09-05 02:49:17 | 51.78938 | 9.16381 | 105° | 46km/h | 1632m | -2.5m/s | 4.9°C | 81.1% | 839hPa | 2.8V | 07:05:53 | 03:30:22 | 00:00:00 | |
| BIOWL1-15 | 2026-09-05 02:49:16 | 51.78941 | 9.16363 | 106° | 47km/h | 1634m | -2.7m/s | 4.9°C | 80.2% | 838.6hPa | 2.7V | 07:05:53 | 03:30:21 | 00:00:00 | |
| DO2JMG | 2026-09-05 02:49:15 | 51.78945 | 9.16344 | 106° | 47km/h | 1637m | -2.9m/s | 4.9°C | 79.6% | 838.5hPa | 2.7V | 07:05:53 | 03:30:20 | 00:00:00 | |
| BIOWL1-15 | 2026-09-05 02:49:14 | 51.78948 | 9.16326 | 106° | 47km/h | 1640m | -3m/s | 4.9°C | 78.9% | 838.1hPa | 2.8V | 07:05:53 | 03:30:19 | 00:00:00 | |
| BIOWL1-15 | 2026-09-05 02:49:13 | 51.78951 | 9.16307 | 106° | 47km/h | 1643m | -2.8m/s | 4.9°C | 78.4% | 837.9hPa | 2.8V | 07:05:53 | 03:30:18 | 00:00:00 | |
| DO2JMG | 2026-09-05 02:49:12 | 51.78955 | 9.16288 | 106° | 47km/h | 1646m | -2.8m/s | 4.9°C | 78.2% | 837.5hPa | 2.8V | 07:05:53 | 03:30:17 | 00:00:00 | |
| DB0DAN | 2026-09-05 02:49:10 | 51.78962 | 9.16250 | 107° | 46km/h | 1651m | -2.7m/s | 4.9°C | 74.1% | 837.03hPa | 2.8V | 00:00:00 | 00:00:00 | 00:00:00 | |
| DO2JMG | 2026-09-05 02:49:10 | 51.78962 | 9.16250 | 107° | 47km/h | 1651m | -2.7m/s | 4.9°C | 77.6% | 837hPa | 2.8V | 07:05:53 | 03:30:15 | 00:00:00 | |
| DO2JMG | 2026-09-05 02:49:09 | 51.78965 | 9.16231 | 107° | 47km/h | 1654m | -2.5m/s | 4.9°C | 76.9% | 837hPa | 2.8V | 07:05:53 | 03:30:14 | 00:00:00 | |
| BIOWL7-15 | 2026-09-05 02:49:08 | 51.78965 | 9.16231 | 108° | 47km/h | 1654m | -2.5m/s | 4.9°C | 73.3% | 837.0hPa | 2.8V | 00:00:00 | 00:00:00 | 00:00:00 | |
| DM0DOS-11 | 2026-09-05 02:49:07 | 51.78991 | 9.16099 | 106° | 49km/h | 1671m | -2.4m/s | 4.9°C | 73.1% | 835.1hPa | 2.8V | 07:05:43 | 03:30:07 | 00:00:00 | |
| DO2JMG | 2026-09-05 02:49:07 | 51.78972 | 9.16194 | 107° | 47km/h | 1658m | -2.5m/s | 4.9°C | 76.7% | 836.4hPa | 2.8V | 07:05:53 | 03:30:12 | 00:00:00 | |
| BIOWL1-15 | 2026-09-05 02:49:07 | 51.78979 | 9.16156 | 108° | 49km/h | 1664m | -2.6m/s | 4.9°C | 76.3% | 835.7hPa | 2.8V | 07:05:53 | 03:30:10 | 00:00:00 | |
| DO2JMG | 2026-09-05 02:49:06 | 51.78976 | 9.16175 | 107° | 47km/h | 1661m | -2.8m/s | 4.9°C | 76.7% | 836.1hPa | 2.8V | 07:05:53 | 03:30:11 | 00:00:00 | |
| DO2JMG | 2026-09-05 02:49:04 | 51.78983 | 9.16137 | 109° | 49km/h | 1666m | -2.4m/s | 4.9°C | 76.2% | 835.5hPa | 2.7V | 07:05:53 | 03:30:09 | 00:00:00 | |
| BIOWL1-15 | 2026-09-05 02:49:03 | 51.78987 | 9.16118 | 109° | 49km/h | 1668m | -2.5m/s | 4.9°C | 76.1% | 835.3hPa | 2.7V | 07:05:53 | 03:30:08 | 00:00:00 | |
| BIOWL1-15 | 2026-09-05 02:49:02 | 51.78991 | 9.16099 | 107° | 49km/h | 1671m | -2.4m/s | 4.9°C | 76.1% | 835.1hPa | 2.8V | 07:05:53 | 03:30:07 | 00:00:00 | |
| DO2JMG | 2026-09-05 02:49:00 | 51.78998 | 9.16061 | 106° | 49km/h | 1675m | -2.2m/s | 4.9°C | 75.4% | 834.5hPa | 2.8V | 07:05:53 | 03:30:05 | 00:00:00 | |
| DO2JMG | 2026-09-05 02:48:59 | 51.79002 | 9.16041 | 109° | 51km/h | 1678m | -2.5m/s | 4.9°C | 75.3% | 834.3hPa | 2.8V | 07:05:53 | 03:30:04 | 00:00:00 | |
| BIOWL1-15 | 2026-09-05 02:48:57 | 51.79009 | 9.16002 | 107° | 51km/h | 1683m | -2.6m/s | 4.9°C | 75.4% | 833.6hPa | 2.8V | 07:05:53 | 03:30:02 | 00:00:00 | |
| DB0DAN | 2026-09-05 02:48:55 | 51.79017 | 9.15962 | 108° | 49km/h | 1688m | -2.6m/s | 4.8°C | 70.8% | 833.14hPa | 2.8V | 00:00:00 | 00:00:00 | 00:00:00 | |
| BIOWL1-15 | 2026-09-05 02:48:55 | 51.79017 | 9.15962 | 108° | 53km/h | 1688m | -2.6m/s | 4.8°C | 74.9% | 833.1hPa | 2.8V | 07:05:53 | 03:30:00 | 00:00:00 | |
| BIOWL1-15 | 2026-09-05 02:48:54 | 51.79021 | 9.15941 | 105° | 51km/h | 1690m | -2.4m/s | 4.8°C | 74.6% | 833hPa | 2.8V | 07:05:53 | 03:29:59 | 00:00:00 | |
| DO2JMG | 2026-09-05 02:48:53 | 51.79024 | 9.15921 | 106° | 53km/h | 1693m | -2.7m/s | 4.8°C | 74.3% | 832.8hPa | 2.8V | 07:05:53 | 03:29:58 | 00:00:00 | |
| BIOWL1-15 | 2026-09-05 02:48:52 | 51.79028 | 9.15900 | 108° | 53km/h | 1695m | -2.6m/s | 4.8°C | 74.3% | 832.4hPa | 2.8V | 07:05:53 | 03:29:57 | 00:00:00 | |
| DO2JMG | 2026-09-05 02:48:51 | 51.79032 | 9.15880 | 105° | 51km/h | 1697m | -2.6m/s | 4.8°C | 73.8% | 832.3hPa | 2.8V | 07:09:17 | 03:29:56 | 00:00:00 | |
| DO2JMG | 2026-09-05 02:48:49 | 51.79039 | 9.15839 | 105° | 53km/h | 1703m | -2.7m/s | 4.8°C | 73% | 831.7hPa | 2.8V | 07:09:17 | 03:29:54 | 00:00:00 | |
| DO2JMG | 2026-09-05 02:48:48 | 51.79043 | 9.15818 | 106° | 53km/h | 1705m | -2.6m/s | 4.8°C | 72.7% | 831.4hPa | 2.8V | 07:09:17 | 03:29:53 | 00:00:00 | |
| DO2JMG | 2026-09-05 02:48:46 | 51.79050 | 9.15776 | 105° | 53km/h | 1710m | -2.2m/s | 5°C | 68.9% | 831.1hPa | 2.8V | 07:09:17 | 03:29:51 | 00:00:00 | |
| BIOWL1-15 | 2026-09-05 02:48:45 | 51.79054 | 9.15755 | 106° | 53km/h | 1712m | -2.4m/s | 5°C | 67.8% | 830.9hPa | 2.8V | 07:06:44 | 03:29:50 | 00:00:00 | |
| DO2JMG | 2026-09-05 02:48:44 | 51.79057 | 9.15734 | 105° | 55km/h | 1715m | -2.6m/s | 5°C | 64.8% | 830.5hPa | 2.8V | 07:09:17 | 03:29:49 | 00:00:00 | |
| BIOWL1-15 | 2026-09-05 02:48:43 | 51.79064 | 9.15690 | 104° | 55km/h | 1720m | -2.7m/s | 5°C | 65.1% | 830hPa | 2.7V | 07:06:44 | 03:29:47 | 00:00:00 | |
| DO2JMG | 2026-09-05 02:48:43 | 51.79061 | 9.15712 | 104° | 55km/h | 1717m | -2.7m/s | 5°C | 65.3% | 830.2hPa | 2.8V | 07:09:17 | 03:29:48 | 00:00:00 | |
| DO2JMG | 2026-09-05 02:48:41 | 51.79067 | 9.15669 | 104° | 55km/h | 1722m | -2.6m/s | 5°C | 64.2% | 829.8hPa | 2.8V | 07:09:17 | 03:29:46 | 00:00:00 | |
| DB0DAN | 2026-09-05 02:48:40 | 51.79071 | 9.15647 | 104° | 53km/h | 1725m | -2.6m/s | 5°C | 60.1% | 829.56hPa | 2.7V | 00:00:00 | 00:00:00 | 00:00:00 | |
| HSKMA3-T | 2026-09-05 02:48:39 | 51.79074 | 9.15625 | 104° | 57km/h | 1728m | -2.2m/s | 4.9°C | 65.1% | 829.4hPa | 2.7V | 07:08:26 | 03:29:44 | 00:00:00 | |
| BIOWL1-15 | 2026-09-05 02:48:39 | 51.79080 | 9.15581 | 103° | 55km/h | 1732m | -2.5m/s | 4.9°C | 64.8% | 828.8hPa | 2.8V | 07:06:44 | 03:29:42 | 00:00:00 | |
| DO2JMG | 2026-09-05 02:48:38 | 51.79077 | 9.15603 | 104° | 55km/h | 1730m | -2.1m/s | 4.9°C | 64.6% | 829.2hPa | 2.8V | 07:09:17 | 03:29:43 | 00:00:00 | |
| DM0DOS-11 | 2026-09-05 02:48:37 | 51.79083 | 9.15559 | 104° | 55km/h | 1734m | -2.1m/s | 4.9°C | 59.9% | 828.6hPa | 2.8V | 07:06:09 | 03:29:41 | 00:00:00 | |
| BIOWL1-15 | 2026-09-05 02:48:36 | 51.79083 | 9.15559 | 105° | 55km/h | 1734m | -2.1m/s | 4.9°C | 64.2% | 828.6hPa | 2.8V | 07:06:44 | 03:29:41 | 00:00:00 | |
| BIOWL1-15 | 2026-09-05 02:48:35 | 51.79087 | 9.15537 | 106° | 57km/h | 1736m | -2m/s | 4.9°C | 64.7% | 828.3hPa | 2.8V | 07:06:44 | 03:29:40 | 00:00:00 | |
| BIOWL1-15 | 2026-09-05 02:48:33 | 51.79094 | 9.15493 | 105° | 57km/h | 1741m | -2m/s | 4.9°C | 62.9% | 827.9hPa | 2.8V | 07:06:44 | 03:29:38 | 00:00:00 | |
| BIOWL1-15 | 2026-09-05 02:48:31 | 51.79101 | 9.15449 | 103° | 57km/h | 1745m | -2.7m/s | 4.9°C | 62.4% | 827.7hPa | 2.8V | 07:06:44 | 03:29:36 | 00:00:00 | |
| BIOWL1-15 | 2026-09-05 02:48:29 | 51.79107 | 9.15404 | 104° | 58km/h | 1750m | -2.5m/s | 4.8°C | 61.6% | 827.1hPa | 2.8V | 07:06:44 | 03:29:34 | 00:00:00 | |
| DO2JMG | 2026-09-05 02:48:28 | 51.79111 | 9.15381 | 105° | 57km/h | 1752m | -2.1m/s | 4.9°C | 61.3% | 826.7hPa | 2.8V | 07:09:17 | 03:29:33 | 00:00:00 | |
| BIOWL1-15 | 2026-09-05 02:48:27 | 51.79114 | 9.15359 | 103° | 57km/h | 1754m | -2.1m/s | 4.9°C | 59% | 826.6hPa | 2.8V | 07:06:44 | 03:29:32 | 00:00:00 | |
| DO2JMG | 2026-09-05 02:48:26 | 51.79117 | 9.15336 | 103° | 57km/h | 1756m | -2.1m/s | 4.8°C | 59.6% | 826.3hPa | 2.7V | 07:09:17 | 03:29:31 | 00:00:00 | |
| DB0DAN | 2026-09-05 02:48:25 | 51.79121 | 9.15313 | 103° | 55km/h | 1758m | -2.1m/s | 4.8°C | 57.3% | 826.19hPa | 2.8V | 00:00:00 | 00:00:00 | 00:00:00 | |
| DM0DOS-11 | 2026-09-05 02:48:25 | 51.79124 | 9.15291 | 104° | 58km/h | 1761m | -2.1m/s | 4.9°C | 53.9% | 825.9hPa | 2.8V | 07:06:21 | 03:29:29 | 00:00:00 | |
| DM0DOS-11 | 2026-09-05 02:48:25 | 51.79131 | 9.15244 | 103° | 58km/h | 1764m | -2.3m/s | 5°C | 52.7% | 825.5hPa | 2.8V | 07:06:23 | 03:29:27 | 00:00:00 | |
| DO2JMG | 2026-09-05 02:48:25 | 51.79121 | 9.15313 | 103° | 57km/h | 1758m | -2.1m/s | 4.8°C | 60.5% | 826.2hPa | 2.8V | 07:09:17 | 03:29:30 | 00:00:00 | |
| DO2JMG | 2026-09-05 02:48:23 | 51.79128 | 9.15268 | 103° | 58km/h | 1762m | -2.3m/s | 4.9°C | 58.5% | 825.8hPa | 2.8V | 07:09:17 | 03:29:28 | 00:00:00 | |
| DO2JMG | 2026-09-05 02:48:22 | 51.79131 | 9.15244 | 104° | 58km/h | 1765m | -2.3m/s | 5°C | 56.5% | 825.5hPa | 2.8V | 07:09:17 | 03:29:27 | 00:00:00 | |
| DO2JMG | 2026-09-05 02:48:20 | 51.79138 | 9.15198 | 104° | 58km/h | 1769m | -2.4m/s | 5°C | 55.3% | 825hPa | 2.7V | 07:09:17 | 03:29:25 | 00:00:00 | |
| DM0DOS-11 | 2026-09-05 02:48:19 | 51.79159 | 9.15058 | 102° | 58km/h | 1784m | -2.5m/s | 4.9°C | 51% | 823.6hPa | 2.8V | 07:06:31 | 03:29:19 | 00:00:00 | |
| DO2JMG | 2026-09-05 02:48:19 | 51.79142 | 9.15175 | 104° | 58km/h | 1772m | -2.6m/s | 5°C | 53.9% | 824.8hPa | 2.8V | 07:09:17 | 03:29:24 | 00:00:00 | |
| BIOWL1-15 | 2026-09-05 02:48:18 | 51.79145 | 9.15152 | 104° | 58km/h | 1774m | -2.4m/s | 4.9°C | 55% | 824.5hPa | 2.8V | 07:06:44 | 03:29:23 | 00:00:00 | |
| BIOWL1-15 | 2026-09-05 02:48:17 | 51.79149 | 9.15128 | 104° | 58km/h | 1776m | -2.4m/s | 4.9°C | 55.1% | 824.2hPa | 2.8V | 07:06:44 | 03:29:22 | 00:00:00 | |
| BIOWL1-15 | 2026-09-05 02:48:16 | 51.79152 | 9.15105 | 103° | 58km/h | 1779m | -2.5m/s | 4.9°C | 55.1% | 824.1hPa | 2.8V | 07:06:44 | 03:29:21 | 00:00:00 | |
| DO2JMG | 2026-09-05 02:48:15 | 51.79156 | 9.15082 | 103° | 58km/h | 1781m | -2.5m/s | 4.9°C | 54.6% | 823.8hPa | 2.8V | 07:09:17 | 03:29:20 | 00:00:00 | |
| BIOWL1-15 | 2026-09-05 02:48:14 | 51.79169 | 9.14987 | 103° | 60km/h | 1791m | -2.4m/s | 5°C | 49.7% | 822.9hPa | 2.8V | 07:06:44 | 03:29:16 | 00:00:00 | |
| DM0DOS-11 | 2026-09-05 02:48:13 | 51.79178 | 9.14915 | 101° | 60km/h | 1798m | -2.6m/s | 5.1°C | 39.8% | 822.2hPa | 2.8V | 07:06:37 | 03:29:13 | 00:00:00 | |
| DO2JMG | 2026-09-05 02:48:13 | 51.79162 | 9.15035 | 103° | 58km/h | 1786m | -2.3m/s | 4.9°C | 54% | 823.3hPa | 2.8V | 07:09:17 | 03:29:18 | 00:00:00 | |
| DO2JMG | 2026-09-05 02:48:12 | 51.79166 | 9.15011 | 102° | 60km/h | 1788m | -2.4m/s | 5°C | 50% | 823.1hPa | 2.8V | 07:09:17 | 03:29:17 | 00:00:00 | |
| DB0DAN | 2026-09-05 02:48:10 | 51.79172 | 9.14963 | 102° | 57km/h | 1793m | -2.6m/s | 4.9°C | 46.8% | 822.64hPa | 2.7V | 00:00:00 | 00:00:00 | 00:00:00 | |
| DO2JMG | 2026-09-05 02:48:10 | 51.79172 | 9.14963 | 102° | 60km/h | 1793m | -2.6m/s | 4.9°C | 51.2% | 822.6hPa | 2.7V | 07:09:17 | 03:29:15 | 00:00:00 | |
| BIOWL1-15 | 2026-09-05 02:48:08 | 51.79178 | 9.14915 | 102° | 60km/h | 1798m | -2.6m/s | 5.1°C | 44.3% | 822.2hPa | 2.8V | 07:06:44 | 03:29:13 | 00:00:00 | |
| BIOWL7-15 | 2026-09-05 02:48:07 | 51.79178 | 9.14915 | 103° | 60km/h | 1798m | -2.6m/s | 5.1°C | 39.6% | 822.2hPa | 2.8V | 07:06:00 | 00:00:00 | 00:00:00 | |
| DM0DOS-11 | 2026-09-05 02:48:07 | 51.79191 | 9.14818 | 101° | 60km/h | 1808m | -2.5m/s | 5.1°C | 37.4% | 821.1hPa | 2.8V | 07:06:41 | 03:29:09 | 00:00:00 | |
| DM0DOS-11 | 2026-09-05 02:48:07 | 51.79197 | 9.14769 | 101° | 60km/h | 1813m | -2.5m/s | 5.1°C | 37.2% | 820.7hPa | 2.7V | 07:06:43 | 03:29:07 | 00:00:00 | |
| BIOWL1-15 | 2026-09-05 02:48:06 | 51.79188 | 9.14842 | 102° | 62km/h | 1806m | -2.5m/s | 5.1°C | 41.8% | 821.3hPa | 2.8V | 07:06:44 | 03:29:10 | 00:00:00 | |
| BIOWL1-15 | 2026-09-05 02:48:06 | 51.79191 | 9.14818 | 102° | 60km/h | 1808m | -2.5m/s | 5.1°C | 41.7% | 821.1hPa | 2.8V | 07:06:44 | 03:29:09 | 00:00:00 | |
| DO2JMG | 2026-09-05 02:48:06 | 51.79185 | 9.14867 | 102° | 60km/h | 1803m | -2.6m/s | 5.1°C | 42.1% | 821.6hPa | 2.8V | 07:09:17 | 03:29:11 | 00:00:00 | |
| DO2JMG | 2026-09-05 02:48:03 | 51.79194 | 9.14794 | 102° | 60km/h | 1811m | -2.4m/s | 5.1°C | 41.6% | 820.9hPa | 2.8V | 07:09:17 | 03:29:08 | 00:00:00 | |
| BIOWL1-15 | 2026-09-05 02:48:02 | 51.79200 | 9.14745 | 102° | 62km/h | 1815m | -2.5m/s | 5.1°C | 41.2% | 820.5hPa | 2.7V | 07:06:44 | 03:29:06 | 00:00:00 | |
| HSKMA3-T | 2026-09-05 02:48:02 | 51.79197 | 9.14769 | 101° | 60km/h | 1813m | -2.5m/s | 5.1°C | 41.5% | 820.7hPa | 2.7V | 07:08:26 | 03:29:07 | 00:00:00 | |
| DM0DOS-11 | 2026-09-05 02:48:01 | 51.79216 | 9.14623 | 101° | 60km/h | 1828m | -2.6m/s | 5°C | 35.9% | 819.1hPa | 2.8V | 07:06:49 | 03:29:01 | 00:00:00 | |
| DO2JMG | 2026-09-05 02:48:00 | 51.79203 | 9.14721 | 101° | 60km/h | 1818m | -2.4m/s | 5.1°C | 40.7% | 820.2hPa | 2.7V | 07:09:17 | 03:29:05 | 00:00:00 | |
| BIOWL1-15 | 2026-09-05 02:47:58 | 51.79209 | 9.14672 | 102° | 62km/h | 1823m | -2.6m/s | 5.1°C | 40.4% | 819.6hPa | 2.7V | 07:07:35 | 03:29:03 | 00:00:00 | |
| BIOWL1-15 | 2026-09-05 02:47:57 | 51.79213 | 9.14647 | 101° | 60km/h | 1825m | -2.5m/s | 5°C | 40.3% | 819.5hPa | 2.8V | 07:07:35 | 03:29:02 | 00:00:00 | |
| BIOWL9-15 | 2026-09-05 02:47:55 | 51.79219 | 9.14599 | 101° | 60km/h | 1830m | -2.6m/s | 5.0°C | 35.6% | 818.9hPa | 2.8V | 00:00:00 | 00:00:00 | 00:00:00 | |
| DB0DAN | 2026-09-05 02:47:55 | 51.79219 | 9.14599 | 102° | 58km/h | 1830m | -2.6m/s | 5°C | 35.6% | 818.94hPa | 2.8V | 00:00:00 | 00:00:00 | 00:00:00 | |
| BIOWL1-15 | 2026-09-05 02:47:55 | 51.79219 | 9.14599 | 102° | 60km/h | 1830m | -2.6m/s | 5°C | 39.9% | 818.9hPa | 2.8V | 07:07:35 | 03:29:00 | 00:00:00 | |
| BIOWL1-15 | 2026-09-05 02:47:54 | 51.79222 | 9.14574 | 102° | 60km/h | 1833m | -2.5m/s | 5°C | 39.7% | 818.7hPa | 2.8V | 07:07:35 | 03:28:59 | 00:00:00 | |
| BIOWL1-15 | 2026-09-05 02:47:52 | 51.79228 | 9.14526 | 102° | 60km/h | 1838m | -2.4m/s | 5°C | 39.5% | 818hPa | 2.7V | 07:07:35 | 03:28:57 | 00:00:00 | |
| DO2JMG | 2026-09-05 02:47:51 | 51.79232 | 9.14501 | 102° | 62km/h | 1840m | -2.7m/s | 5°C | 39% | 817.9hPa | 2.8V | 07:09:17 | 03:28:56 | 00:00:00 | |
| BIOWL1-15 | 2026-09-05 02:47:50 | 51.79235 | 9.14477 | 102° | 62km/h | 1843m | -2.7m/s | 5°C | 38.4% | 817.6hPa | 2.7V | 07:07:35 | 03:28:55 | 00:00:00 | |
| DM0DOS-11 | 2026-09-05 02:47:49 | 51.79242 | 9.14427 | 102° | 62km/h | 1848m | -2.7m/s | 5°C | 32.3% | 817hPa | 2.7V | 07:06:57 | 03:28:53 | 00:00:00 | |
| DM0DOS-11 | 2026-09-05 02:47:49 | 51.79248 | 9.14378 | 102° | 62km/h | 1853m | -2.6m/s | 5°C | 31.6% | 816.5hPa | 2.8V | 07:06:59 | 03:28:51 | 00:00:00 | |
| BIOWL1-15 | 2026-09-05 02:47:48 | 51.79241 | 9.14427 | 102° | 62km/h | 1848m | -2.7m/s | 5°C | 36.3% | 817hPa | 2.7V | 07:07:35 | 03:28:53 | 00:00:00 | |
| BIOWL1-15 | 2026-09-05 02:47:46 | 51.79251 | 9.14354 | 103° | 62km/h | 1856m | -2.7m/s | 4.9°C | 35.4% | 816.3hPa | 2.8V | 07:07:35 | 03:28:50 | 00:00:00 | |
| BIOWL1-15 | 2026-09-05 02:47:46 | 51.79255 | 9.14329 | 102° | 60km/h | 1858m | -2.8m/s | 4.9°C | 34.7% | 816.1hPa | 2.8V | 07:07:35 | 03:28:49 | 00:00:00 | |
| HSKMA3-T | 2026-09-05 02:47:43 | 51.79258 | 9.14305 | 103° | 60km/h | 1861m | -2.8m/s | 4.9°C | 34.5% | 815.7hPa | 2.8V | 07:08:26 | 03:28:48 | 00:00:00 | |
| BIOWL1-15 | 2026-09-05 02:47:42 | 51.79261 | 9.14281 | 103° | 60km/h | 1864m | -2.8m/s | 4.9°C | 34.3% | 815.4hPa | 2.8V | 07:07:35 | 03:28:47 | 00:00:00 | |
| DB0DAN | 2026-09-05 02:47:40 | 51.79268 | 9.14232 | 103° | 58km/h | 1869m | -2.8m/s | 4.9°C | 29.3% | 815.16hPa | 2.7V | 00:00:00 | 00:00:00 | 00:00:00 | |
| BIOWL1-15 | 2026-09-05 02:47:40 | 51.79268 | 9.14232 | 103° | 60km/h | 1869m | -2.8m/s | 4.9°C | 33.3% | 815.2hPa | 2.7V | 07:07:35 | 03:28:45 | 00:00:00 | |
| BIOWL1-15 | 2026-09-05 02:47:39 | 51.79272 | 9.14208 | 104° | 60km/h | 1872m | -2.7m/s | 4.9°C | 33.1% | 814.7hPa | 2.7V | 07:07:35 | 03:28:44 | 00:00:00 | |
| BIOWL1-15 | 2026-09-05 02:47:37 | 51.79280 | 9.14160 | 104° | 60km/h | 1877m | -2.6m/s | 4.8°C | 33.5% | 814.3hPa | 2.7V | 07:07:35 | 03:28:42 | 00:00:00 | |
| BIOWL1-15 | 2026-09-05 02:47:35 | 51.79287 | 9.14111 | 105° | 62km/h | 1882m | -2.7m/s | 4.8°C | 34.3% | 813.6hPa | 2.8V | 07:07:35 | 03:28:40 | 00:00:00 | |
| DO2JMG | 2026-09-05 02:47:34 | 51.79291 | 9.14087 | 105° | 60km/h | 1885m | -2.6m/s | 4.8°C | 34.8% | 813.3hPa | 2.8V | 07:09:17 | 03:28:39 | 00:00:00 | |
| BIOWL1-15 | 2026-09-05 02:47:33 | 51.79312 | 9.13966 | 106° | 62km/h | 1899m | -2.8m/s | 4.6°C | 35.4% | 811.9hPa | 2.8V | 07:07:35 | 03:28:34 | 00:00:00 | |
| HSKMA3-T | 2026-09-05 02:47:32 | 51.79299 | 9.14039 | 105° | 62km/h | 1890m | -2.9m/s | 4.7°C | 36.3% | 812.8hPa | 2.8V | 07:08:26 | 03:28:37 | 00:00:00 | |
| DO2JMG | 2026-09-05 02:47:30 | 51.79307 | 9.13991 | 106° | 62km/h | 1896m | -2.9m/s | 4.6°C | 36.1% | 812.3hPa | 2.7V | 07:09:17 | 03:28:35 | 00:00:00 | |
| BIOWL1-15 | 2026-09-05 02:47:27 | 51.79333 | 9.13845 | 106° | 62km/h | 1912m | -2.7m/s | 4.5°C | 35.2% | 810.8hPa | 2.8V | 07:07:35 | 03:28:29 | 00:00:00 | |
| BIOWL1-15 | 2026-09-05 02:47:27 | 51.79337 | 9.13820 | 105° | 62km/h | 1914m | -2.6m/s | 4.5°C | 35.4% | 810.3hPa | 2.8V | 07:07:35 | 03:28:28 | 00:00:00 | |
| DB0DAN | 2026-09-05 02:47:25 | 51.79328 | 9.13869 | 105° | 58km/h | 1909m | -2.7m/s | 4.5°C | 31.3% | 810.99hPa | 2.7V | 00:00:00 | 00:00:00 | 00:00:00 | |
| DM0DOS-11 | 2026-09-05 02:47:24 | 51.79337 | 9.13820 | 105° | 62km/h | 1914m | -2.6m/s | 4.5°C | 31.5% | 810.3hPa | 2.8V | 07:07:22 | 03:28:28 | 00:00:00 | |
| DM0DOS-11 | 2026-09-05 02:47:24 | 51.79345 | 9.13771 | 105° | 62km/h | 1920m | -2.9m/s | 4.4°C | 32.9% | 809.8hPa | 2.8V | 07:07:24 | 03:28:26 | 00:00:00 | |
| BIOWL1-15 | 2026-09-05 02:47:22 | 51.79341 | 9.13796 | 106° | 62km/h | 1917m | -2.8m/s | 4.5°C | 35.9% | 810.1hPa | 2.8V | 07:07:35 | 03:28:27 | 00:00:00 | |
| DO2JMG | 2026-09-05 02:47:21 | 51.79345 | 9.13771 | 105° | 62km/h | 1920m | -2.9m/s | 4.4°C | 37% | 809.8hPa | 2.8V | 07:09:17 | 03:28:26 | 00:00:00 | |
| BIOWL1-15 | 2026-09-05 02:47:20 | 51.79358 | 9.13699 | 106° | 62km/h | 1928m | -2.8m/s | 4.4°C | 34.8% | 809hPa | 2.7V | 07:07:35 | 03:28:23 | 00:00:00 | |
| DO2JMG | 2026-09-05 02:47:19 | 51.79354 | 9.13723 | 107° | 62km/h | 1926m | -2.9m/s | 4.5°C | 34.7% | 809.4hPa | 2.8V | 07:09:17 | 03:28:24 | 00:00:00 | |
| DM0DOS-11 | 2026-09-05 02:47:18 | 51.79367 | 9.13650 | 106° | 62km/h | 1934m | -3m/s | 4.4°C | 30.8% | 808.5hPa | 2.7V | 07:07:29 | 03:28:21 | 00:00:00 | |
| BIOWL1-15 | 2026-09-05 02:47:17 | 51.79363 | 9.13675 | 106° | 62km/h | 1932m | -2.8m/s | 4.4°C | 34.6% | 808.8hPa | 2.7V | 07:07:35 | 03:28:22 | 00:00:00 | |
| BIOWL1-15 | 2026-09-05 02:47:16 | 51.79367 | 9.13650 | 107° | 62km/h | 1934m | -3m/s | 4.4°C | 34.8% | 808.5hPa | 2.7V | 07:07:35 | 03:28:21 | 00:00:00 | |
| DO2JMG | 2026-09-05 02:47:15 | 51.79371 | 9.13626 | 107° | 62km/h | 1937m | -3.1m/s | 4.4°C | 34.8% | 808.1hPa | 2.7V | 07:09:17 | 03:28:20 | 00:00:00 | |
| BIOWL1-15 | 2026-09-05 02:47:13 | 51.79380 | 9.13578 | 107° | 62km/h | 1943m | -2.8m/s | 4.4°C | 33.9% | 807.7hPa | 2.8V | 07:07:35 | 03:28:18 | 00:00:00 | |
| BIOWL1-15 | 2026-09-05 02:47:12 | 51.79385 | 9.13554 | 107° | 60km/h | 1946m | -3m/s | 4.3°C | 34.1% | 807.3hPa | 2.8V | 07:07:35 | 03:28:17 | 00:00:00 | |
| DO2JMG | 2026-09-05 02:47:11 | 51.79390 | 9.13530 | 107° | 62km/h | 1949m | -3.1m/s | 4.3°C | 34% | 807.1hPa | 2.7V | 07:09:17 | 03:28:16 | 00:00:00 | |
| DB0DAN | 2026-09-05 02:47:10 | 51.79394 | 9.13506 | 107° | 58km/h | 1952m | -3.1m/s | 4.3°C | 29.8% | 806.84hPa | 2.7V | 00:00:00 | 00:00:00 | 00:00:00 | |
| BIOWL1-15 | 2026-09-05 02:47:10 | 51.79394 | 9.13506 | 107° | 62km/h | 1952m | -3.1m/s | 4.3°C | 34% | 806.8hPa | 2.7V | 07:07:35 | 03:28:15 | 00:00:00 | |
| BIOWL1-15 | 2026-09-05 02:47:09 | 51.79399 | 9.13482 | 107° | 62km/h | 1955m | -2.9m/s | 4.3°C | 34.1% | 806.6hPa | 2.7V | 07:08:26 | 03:28:14 | 00:00:00 | |
| BIOWL1-15 | 2026-09-05 02:47:07 | 51.79408 | 9.13434 | 107° | 62km/h | 1960m | -2.9m/s | 4.3°C | 34.3% | 805.9hPa | 2.7V | 07:08:26 | 03:28:12 | 00:00:00 | |
| DM0DOS-11 | 2026-09-05 02:47:05 | 51.79417 | 9.13385 | 107° | 62km/h | 1967m | -3.1m/s | 4.2°C | 30.1% | 805.2hPa | 2.7V | 07:07:40 | 03:28:10 | 00:00:00 | |
| DM0DOS-11 | 2026-09-05 02:47:05 | 51.79431 | 9.13312 | 107° | 62km/h | 1976m | -2.9m/s | 4.2°C | 29.9% | 804.3hPa | 2.7V | 07:07:43 | 03:28:07 | 00:00:00 | |
| DM0DOS-11 | 2026-09-05 02:47:05 | 51.79440 | 9.13264 | 106° | 62km/h | 1982m | -2.8m/s | 4.1°C | 30% | 803.9hPa | 2.7V | 07:07:45 | 03:28:05 | 00:00:00 | |
| BIOWL1-15 | 2026-09-05 02:47:05 | 51.79417 | 9.13385 | 107° | 62km/h | 1967m | -3.1m/s | 4.2°C | 34.2% | 805.2hPa | 2.7V | 07:08:26 | 03:28:10 | 00:00:00 | |
| BIOWL1-15 | 2026-09-05 02:47:04 | 51.79422 | 9.13361 | 107° | 62km/h | 1970m | -3.1m/s | 4.2°C | 34.1% | 805.1hPa | 2.7V | 07:08:26 | 03:28:09 | 00:00:00 | |
| BIOWL1-15 | 2026-09-05 02:47:02 | 51.79431 | 9.13312 | 107° | 62km/h | 1976m | -2.9m/s | 4.2°C | 33.9% | 804.4hPa | 2.7V | 07:08:26 | 03:28:07 | 00:00:00 | |
| BIOWL1-15 | 2026-09-05 02:47:00 | 51.79445 | 9.13239 | 107° | 62km/h | 1984m | -2.8m/s | 4.1°C | 34.1% | 803.7hPa | 2.7V | 07:08:26 | 03:28:04 | 00:00:00 | |
| BIOWL1-15 | 2026-09-05 02:47:00 | 51.79450 | 9.13215 | 107° | 62km/h | 1987m | -3m/s | 4.1°C | 34.1% | 803.3hPa | 2.7V | 07:08:26 | 03:28:03 | 00:00:00 | |
| DM0DOS-11 | 2026-09-05 02:46:59 | 51.79450 | 9.13215 | 107° | 62km/h | 1987m | -3m/s | 4.1°C | 30.1% | 803.2hPa | 2.7V | 07:07:47 | 03:28:03 | 00:00:00 | |
| DM0DOS-11 | 2026-09-05 02:46:59 | 51.79459 | 9.13166 | 107° | 64km/h | 1993m | -3m/s | 4°C | 30.1% | 802.8hPa | 2.8V | 07:07:49 | 03:28:01 | 00:00:00 | |
| DM0DOS-11 | 2026-09-05 02:46:59 | 51.79469 | 9.13117 | 106° | 64km/h | 1999m | -3m/s | 4°C | 30.1% | 802.2hPa | 2.7V | 07:07:51 | 03:27:59 | 00:00:00 | |
| BIOWL1-15 | 2026-09-05 02:46:56 | 51.79459 | 9.13166 | 107° | 64km/h | 1993m | -3m/s | 4°C | 34.2% | 802.8hPa | 2.8V | 07:08:26 | 03:28:01 | 00:00:00 | |
| DB0DAN | 2026-09-05 02:46:55 | 51.79464 | 9.13141 | 107° | 60km/h | 1996m | -2.9m/s | 4°C | 29.9% | 802.49hPa | 2.7V | 00:00:00 | 00:00:00 | 00:00:00 | |
| BIOWL1-15 | 2026-09-05 02:46:55 | 51.79464 | 9.13141 | 107° | 62km/h | 1996m | -2.9m/s | 4°C | 34.2% | 802.5hPa | 2.7V | 07:08:26 | 03:28:00 | 00:00:00 | |
| BIOWL1-15 | 2026-09-05 02:46:54 | 51.79468 | 9.13117 | 107° | 64km/h | 1999m | -3m/s | 4°C | 34.2% | 802.2hPa | 2.7V | 07:08:26 | 03:27:59 | 00:00:00 | |
| BIOWL9-15 | 2026-09-05 02:46:53 | 51.79473 | 9.13092 | 107° | 62km/h | 2002m | -3.0m/s | 4.0°C | 30.0% | 801.9hPa | 2.7V | 00:00:00 | 00:00:00 | 00:00:00 | |
| DM0DOS-11 | 2026-09-05 02:46:52 | 51.79478 | 9.13067 | 106° | 62km/h | 2005m | -2.9m/s | 4°C | 30.1% | 801.5hPa | 2.7V | 07:07:53 | 03:27:57 | 00:00:00 | |
| DM0DOS-11 | 2026-09-05 02:46:52 | 51.79502 | 9.12944 | 107° | 62km/h | 2020m | -3m/s | 3.8°C | 31% | 800hPa | 2.7V | 07:07:58 | 03:27:52 | 00:00:00 | |
| SONCRA | 2026-09-05 02:46:50 | 51.79492 | 9.12993 | 107° | 62km/h | 2014m | -3.1m/s | 3.9°C | 30.5% | 800.6hPa | 2.8V | 00:00:00 | 00:00:00 | 00:00:00 | |
| DM0DOS-11 | 2026-09-05 02:46:47 | 51.79527 | 9.12822 | 108° | 64km/h | 2035m | -3m/s | 3.7°C | 31.7% | 798.6hPa | 2.8V | 07:08:03 | 03:27:47 | 00:00:00 | |
| BIOWL1-15 | 2026-09-05 02:46:46 | 51.79517 | 9.12871 | 108° | 64km/h | 2028m | -2.9m/s | 3.7°C | 35.7% | 799.2hPa | 2.8V | 07:08:26 | 03:27:49 | 00:00:00 | |
| DD1CC3-15 | 2026-09-05 02:46:45 | 51.79507 | 9.12920 | 109° | 64km/h | 2023m | -3.1m/s | 3.8°C | 31.2% | 799.7hPa | 2.7V | 07:08:00 | 00:00:00 | 00:00:00 | |
| DL3OBA | 2026-09-05 02:46:44 | 51.79512 | 9.12895 | 109° | 64km/h | 2026m | -3.2m/s | 3.8°C | 31.3% | 799.4hPa | 2.7V | 07:08:00 | 00:00:00 | 00:00:00 | |
| DM0DOS-11 | 2026-09-05 02:46:42 | 51.79552 | 9.12698 | 107° | 66km/h | 2049m | -3m/s | 3.6°C | 30.8% | 796.9hPa | 2.7V | 07:08:08 | 03:27:42 | 00:00:00 | |
| HSKMA3-T | 2026-09-05 02:46:42 | 51.79527 | 9.12822 | 108° | 64km/h | 2035m | -3m/s | 3.7°C | 35.8% | 798.6hPa | 2.8V | 07:08:26 | 03:27:47 | 00:00:00 | |
| DB0DAN | 2026-09-05 02:46:40 | 51.79537 | 9.12773 | 109° | 60km/h | 2040m | -3m/s | 3.7°C | 30.6% | 798.07hPa | 2.7V | 00:00:00 | 00:00:00 | 00:00:00 | |
| BIOWL7-15 | 2026-09-05 02:46:39 | 51.79537 | 9.12773 | 110° | 64km/h | 2040m | -3.0m/s | 3.7°C | 30.6% | 798.1hPa | 2.7V | 07:08:00 | 00:00:00 | 00:00:00 | |
| DM0DOS-11 | 2026-09-05 02:46:37 | 51.79578 | 9.12571 | 107° | 66km/h | 2064m | -3m/s | 3.4°C | 30.8% | 795.7hPa | 2.7V | 07:08:13 | 03:27:37 | 00:00:00 | |
| BIOWL1-15 | 2026-09-05 02:46:34 | 51.79568 | 9.12622 | 108° | 66km/h | 2058m | -3.1m/s | 3.5°C | 34.8% | 796.1hPa | 2.7V | 07:08:26 | 03:27:39 | 00:00:00 | |
| DO2JMG | 2026-09-05 02:46:29 | 51.79592 | 9.12496 | 108° | 66km/h | 2073m | -3m/s | 3.4°C | 34.4% | 794.6hPa | 2.7V | 07:09:17 | 03:27:34 | 00:00:00 | |
| DM0DOS-11 | 2026-09-05 02:46:27 | 51.79628 | 9.12319 | 107° | 66km/h | 2094m | -3.2m/s | 3.2°C | 30.6% | 792.6hPa | 2.7V | 07:08:23 | 03:27:27 | 00:00:00 | |
| DB0DAN | 2026-09-05 02:46:25 | 51.79612 | 9.12395 | 108° | 62km/h | 2085m | -3.2m/s | 3.3°C | 30.3% | 793.61hPa | 2.7V | 00:00:00 | 00:00:00 | 00:00:00 | |
| BIOWL1-15 | 2026-09-05 02:46:24 | 51.79618 | 9.12369 | 108° | 64km/h | 2088m | -3m/s | 3.2°C | 34.1% | 793.2hPa | 2.7V | 07:08:26 | 03:27:29 | 00:00:00 | |
| DL3OBA | 2026-09-05 02:46:23 | 51.79618 | 9.12369 | 109° | 64km/h | 2088m | -3.0m/s | 3.2°C | 30.3% | 793.2hPa | 2.7V | 07:08:00 | 00:00:00 | 00:00:00 | |
| DM0DOS-11 | 2026-09-05 02:46:22 | 51.79652 | 9.12190 | 105° | 68km/h | 2110m | -3m/s | 3°C | 31% | 791.1hPa | 2.7V | 07:08:28 | 03:27:22 | 00:00:00 | |
| BIOWL1-15 | 2026-09-05 02:46:14 | 51.79666 | 9.12110 | 105° | 68km/h | 2119m | -3.4m/s | 3°C | 35.6% | 790.2hPa | 2.7V | 07:09:17 | 03:27:19 | 00:00:00 | |
| DM0DOS-11 | 2026-09-05 02:46:12 | 51.79674 | 9.12057 | 104° | 68km/h | 2126m | -3.3m/s | 2.9°C | 32.4% | 789.7hPa | 2.7V | 07:08:33 | 03:27:17 | 00:00:00 | |
| DM0DOS-11 | 2026-09-05 02:46:12 | 51.79696 | 9.11920 | 104° | 69km/h | 2142m | -3.2m/s | 2.9°C | 34.6% | 788hPa | 2.7V | 07:08:38 | 03:27:12 | 00:00:00 | |
| HSKMA3-T | 2026-09-05 02:46:12 | 51.79674 | 9.12057 | 104° | 68km/h | 2126m | -3.3m/s | 2.9°C | 36.2% | 789.7hPa | 2.7V | 07:10:59 | 03:27:17 | 00:00:00 | |
| DB0DAN | 2026-09-05 02:46:10 | 51.79683 | 9.12002 | 104° | 66km/h | 2133m | -3.4m/s | 2.9°C | 32.5% | 789.02hPa | 2.7V | 00:00:00 | 00:00:00 | 00:00:00 | |
| DO2JMG | 2026-09-05 02:46:10 | 51.79683 | 9.12002 | 104° | 69km/h | 2133m | -3.4m/s | 2.9°C | 36.5% | 789hPa | 2.7V | 07:09:17 | 03:27:15 | 00:00:00 | |
| BUE01 | 2026-09-05 02:46:09 | 51.79691 | 9.11948 | 105° | 68km/h | 2139m | -2.8m/s | 2.9°C | 34.0% | 788.2hPa | 2.7V | 00:00:00 | 00:00:00 | 00:00:00 | |
| DM0DOS-11 | 2026-09-05 02:46:07 | 51.79718 | 9.11783 | 104° | 69km/h | 2157m | -3m/s | 2.9°C | 36.8% | 786.6hPa | 2.7V | 07:08:43 | 03:27:07 | 00:00:00 | |
| BIOWL1-15 | 2026-09-05 02:46:03 | 51.79713 | 9.11810 | 104° | 69km/h | 2154m | -3m/s | 2.9°C | 40.2% | 786.9hPa | 2.7V | 07:09:17 | 03:27:08 | 00:00:00 | |
| DO2JMG | 2026-09-05 02:46:01 | 51.79726 | 9.11727 | 103° | 69km/h | 2163m | -3.2m/s | 2.9°C | 44.5% | 786hPa | 2.7V | 07:09:17 | 03:27:05 | 00:00:00 | |
| BIOWL7-15 | 2026-09-05 02:45:58 | 51.79730 | 9.11700 | 106° | 69km/h | 2167m | -3.1m/s | 3.0°C | 37.1% | 785.7hPa | 2.7V | 00:00:00 | 00:00:00 | 00:00:00 | |
| DM0DOS-11 | 2026-09-05 02:45:57 | 51.79760 | 9.11504 | 103° | 71km/h | 2188m | -3.1m/s | 3.1°C | 36.3% | 783.6hPa | 2.7V | 07:08:53 | 03:26:57 | 00:00:00 | |
| DB0DAN | 2026-09-05 02:45:55 | 51.79748 | 9.11588 | 104° | 68km/h | 2179m | -3.1m/s | 3°C | 32.4% | 784.61hPa | 2.7V | 00:00:00 | 00:00:00 | 00:00:00 | |
| BIOWL1-15 | 2026-09-05 02:45:53 | 51.79756 | 9.11532 | 104° | 71km/h | 2185m | -3.3m/s | 3.1°C | 37.8% | 783.8hPa | 2.7V | 07:09:17 | 03:26:58 | 00:00:00 | |
| DM0DOS-11 | 2026-09-05 02:45:52 | 51.79782 | 9.11365 | 104° | 69km/h | 2204m | -3.1m/s | 3.1°C | 39% | 782hPa | 2.7V | 07:08:58 | 03:26:52 | 00:00:00 | |
| HSKMA3-T | 2026-09-05 02:45:51 | 51.79765 | 9.11476 | 104° | 71km/h | 2192m | -3.1m/s | 3.1°C | 41.2% | 783.2hPa | 2.7V | 07:10:59 | 03:26:56 | 00:00:00 | |
| DO2JMG | 2026-09-05 02:45:49 | 51.79773 | 9.11421 | 104° | 69km/h | 2198m | -3.1m/s | 3.1°C | 42.1% | 782.6hPa | 2.7V | 07:09:17 | 03:26:54 | 00:00:00 | |
| SONCRA | 2026-09-05 02:45:48 | 51.79782 | 9.11365 | 104° | 69km/h | 2204m | -3.1m/s | 3.1°C | 38.7% | 782.0hPa | 2.7V | 00:00:00 | 00:00:00 | 00:00:00 | |
| DL3AQ-11 | 2026-09-05 02:45:46 | 51.79791 | 9.11310 | 104° | 69km/h | 2210m | -3.3m/s | 3.1°C | 38.9% | 781.5hPa | 2.7V | 00:00:00 | 00:00:00 | 00:00:00 | |
| DD1CC3-15 | 2026-09-05 02:45:43 | 51.79795 | 9.11282 | 106° | 69km/h | 2213m | -3.2m/s | 3.0°C | 39.4% | 781.1hPa | 2.7V | 07:09:00 | 00:00:00 | 00:00:00 | |
| DM0DOS-11 | 2026-09-05 02:45:42 | 51.79827 | 9.11085 | 104° | 71km/h | 2235m | -3.1m/s | 2.9°C | 41% | 778.9hPa | 2.7V | 07:09:08 | 03:26:42 | 00:00:00 | |
| BIOWL1-15 | 2026-09-05 02:45:42 | 51.79804 | 9.11226 | 104° | 71km/h | 2220m | -3.1m/s | 3°C | 44.7% | 780.5hPa | 2.7V | 07:09:17 | 03:26:47 | 00:00:00 | |
| DB0DAN | 2026-09-05 02:45:40 | 51.79813 | 9.11170 | 104° | 68km/h | 2226m | -3.3m/s | 2.9°C | 40.1% | 779.86hPa | 2.7V | 00:00:00 | 00:00:00 | 00:00:00 | |
| DO2JMG | 2026-09-05 02:45:38 | 51.79822 | 9.11113 | 104° | 71km/h | 2232m | -3m/s | 2.9°C | 45.2% | 779.2hPa | 2.7V | 07:09:17 | 03:26:43 | 00:00:00 | |
| HSKMA3-T | 2026-09-05 02:45:35 | 51.79836 | 9.11028 | 105° | 71km/h | 2241m | -3.5m/s | 2.8°C | 45.8% | 778.4hPa | 2.7V | 07:10:59 | 03:26:40 | 00:00:00 | |
| DM0DOS-11 | 2026-09-05 02:45:32 | 51.79850 | 9.10943 | 105° | 71km/h | 2251m | -3.3m/s | 2.8°C | 41.4% | 777.5hPa | 2.7V | 07:09:13 | 03:26:37 | 00:00:00 | |
| DM0DOS-11 | 2026-09-05 02:45:32 | 51.79874 | 9.10801 | 104° | 73km/h | 2267m | -3.4m/s | 2.8°C | 39.9% | 776.1hPa | 2.7V | 07:09:18 | 03:26:32 | 00:00:00 | |
| BIOWL1-15 | 2026-09-05 02:45:31 | 51.79855 | 9.10915 | 105° | 71km/h | 2254m | -3m/s | 2.8°C | 45.4% | 777.2hPa | 2.7V | 07:09:17 | 03:26:36 | 00:00:00 | |
| DM0DOS-11 | 2026-09-05 02:45:27 | 51.79897 | 9.10654 | 105° | 75km/h | 2283m | -3.2m/s | 2.7°C | 39.3% | 774.5hPa | 2.7V | 07:09:23 | 03:26:27 | 00:00:00 | |
| DO2JMG | 2026-09-05 02:45:27 | 51.79874 | 9.10801 | 105° | 73km/h | 2267m | -3.4m/s | 2.8°C | 43.8% | 776.1hPa | 2.7V | 07:10:08 | 03:26:32 | 00:00:00 | |
| DB0DAN | 2026-09-05 02:45:25 | 51.79883 | 9.10742 | 104° | 71km/h | 2273m | -3m/s | 2.8°C | 39.5% | 775.32hPa | 2.7V | 00:00:00 | 00:00:00 | 00:00:00 | |
| DM0DOS-11 | 2026-09-05 02:45:22 | 51.79921 | 9.10504 | 103° | 75km/h | 2299m | -3.5m/s | 2.6°C | 38.9% | 773hPa | 2.7V | 07:09:28 | 03:26:22 | 00:00:00 | |
| BIOWL1-15 | 2026-09-05 02:45:20 | 51.79907 | 9.10594 | 104° | 75km/h | 2289m | -3.1m/s | 2.7°C | 43.3% | 774hPa | 2.7V | 07:10:08 | 03:26:25 | 00:00:00 | |
| DM0DOS-11 | 2026-09-05 02:45:17 | 51.79944 | 9.10352 | 104° | 77km/h | 2314m | -3.2m/s | 2.5°C | 36.7% | 771.5hPa | 2.7V | 07:09:33 | 03:26:17 | 00:00:00 | |
| DO2JMG | 2026-09-05 02:45:16 | 51.79925 | 9.10474 | 103° | 77km/h | 2302m | -3.2m/s | 2.6°C | 42.6% | 772.6hPa | 2.7V | 07:10:08 | 03:26:21 | 00:00:00 | |
| DM0DOS-11 | 2026-09-05 02:45:12 | 51.79967 | 9.10198 | 103° | 78km/h | 2331m | -3m/s | 2.5°C | 34.8% | 770hPa | 2.7V | 07:09:38 | 03:26:12 | 00:00:00 | |
| HSKMA3-T | 2026-09-05 02:45:11 | 51.79949 | 9.10322 | 104° | 78km/h | 2318m | -3.4m/s | 2.5°C | 40.5% | 771.1hPa | 2.7V | 07:10:59 | 03:26:16 | 00:00:00 | |
| DB0DAN | 2026-09-05 02:45:10 | 51.79954 | 9.10291 | 104° | 73km/h | 2321m | -3.2m/s | 2.5°C | 35.9% | 770.95hPa | 2.7V | 00:00:00 | 00:00:00 | 00:00:00 | |
| BIOWL1-15 | 2026-09-05 02:45:09 | 51.79958 | 9.10260 | 103° | 78km/h | 2324m | -3.6m/s | 2.5°C | 39.7% | 770.5hPa | 2.7V | 07:10:08 | 03:26:14 | 00:00:00 | |
| DM0DOS-11 | 2026-09-05 02:45:07 | 51.79990 | 9.10043 | 103° | 78km/h | 2346m | -2.9m/s | 2.6°C | 30.4% | 768.4hPa | 2.7V | 07:09:43 | 03:26:07 | 00:00:00 | |
| DO2JMG | 2026-09-05 02:45:06 | 51.79972 | 9.10167 | 104° | 77km/h | 2334m | -3m/s | 2.6°C | 38.2% | 769.5hPa | 2.7V | 07:10:08 | 03:26:11 | 00:00:00 | |
| DL3AQ-11 | 2026-09-05 02:45:05 | 51.79976 | 9.10136 | 104° | 77km/h | 2337m | -2.8m/s | 2.6°C | 33.6% | 769.3hPa | 2.7V | 00:00:00 | 00:00:00 | 00:00:00 | |
| DL8OAI-8 | 2026-09-05 02:45:04 | 51.79976 | 9.10136 | 105° | 78km/h | 2337m | -2.8m/s | 2.6°C | 33.6% | 769.3hPa | 2.7V | 00:00:00 | 00:00:00 | 00:00:00 | |
| DM0DOS-11 | 2026-09-05 02:45:02 | 51.80014 | 9.09886 | 103° | 80km/h | 2361m | -3.1m/s | 2.6°C | 30.4% | 767hPa | 2.7V | 07:09:48 | 03:26:02 | 00:00:00 | |
| BIOWL1-15 | 2026-09-05 02:44:59 | 51.80004 | 9.09949 | 103° | 78km/h | 2355m | -2.9m/s | 2.6°C | 34% | 767.5hPa | 2.7V | 07:10:08 | 03:26:04 | 00:00:00 | |
| DO2JMG | 2026-09-05 02:44:56 | 51.80018 | 9.09855 | 104° | 80km/h | 2364m | -3.1m/s | 2.6°C | 34.4% | 766.8hPa | 2.7V | 07:10:08 | 03:26:01 | 00:00:00 | |
| DB0DAN | 2026-09-05 02:44:55 | 51.80023 | 9.09823 | 103° | 75km/h | 2368m | -3.1m/s | 2.6°C | 30.2% | 766.48hPa | 2.7V | 00:00:00 | 00:00:00 | 00:00:00 | |
| HSKMA3-T | 2026-09-05 02:44:54 | 51.80028 | 9.09792 | 103° | 80km/h | 2370m | -3m/s | 2.6°C | 34.2% | 766.1hPa | 2.7V | 07:10:59 | 03:25:59 | 00:00:00 | |
| DL3AQ-11 | 2026-09-05 02:44:53 | 51.80037 | 9.09728 | 102° | 78km/h | 2377m | -3.1m/s | 2.6°C | 29.0% | 765.6hPa | 2.7V | 00:00:00 | 00:00:00 | 00:00:00 | |
| DM0DOS-11 | 2026-09-05 02:44:52 | 51.80059 | 9.09569 | 102° | 80km/h | 2392m | -3.1m/s | 2.5°C | 27.6% | 764hPa | 2.7V | 07:09:58 | 03:25:52 | 00:00:00 | |
| BIOWL1-15 | 2026-09-05 02:44:50 | 51.80055 | 9.09601 | 103° | 80km/h | 2389m | -3.1m/s | 2.5°C | 31.3% | 764.4hPa | 2.7V | 07:10:08 | 03:25:53 | 00:00:00 | |
| DO2JMG | 2026-09-05 02:44:45 | 51.80069 | 9.09506 | 103° | 80km/h | 2398m | -3m/s | 2.6°C | 30.3% | 763.5hPa | 2.7V | 07:10:08 | 03:25:50 | 00:00:00 | |
| HSKMA3-T | 2026-09-05 02:44:43 | 51.80078 | 9.09442 | 103° | 78km/h | 2404m | -3.1m/s | 2.6°C | 29.1% | 763hPa | 2.7V | 07:10:59 | 03:25:48 | 00:00:00 | |
| DM0DOS-11 | 2026-09-05 02:44:42 | 51.80106 | 9.09254 | 103° | 78km/h | 2422m | -3m/s | 2.6°C | 23.7% | 761.4hPa | 2.7V | 07:10:08 | 03:25:42 | 00:00:00 | |
| DB0DAN | 2026-09-05 02:44:40 | 51.80092 | 9.09348 | 104° | 75km/h | 2413m | -3.1m/s | 2.6°C | 24.6% | 762.16hPa | 2.7V | 00:00:00 | 00:00:00 | 00:00:00 | |
| BIOWL1-15 | 2026-09-05 02:44:39 | 51.80106 | 9.09254 | 104° | 78km/h | 2422m | -3m/s | 2.6°C | 26.8% | 761.4hPa | 2.7V | 07:10:08 | 03:25:42 | 00:00:00 | |
| DM0DOS-11 | 2026-09-05 02:44:37 | 51.80131 | 9.09095 | 104° | 80km/h | 2437m | -3.1m/s | 2.5°C | 24.5% | 759.9hPa | 2.7V | 07:10:13 | 03:25:37 | 00:00:00 | |
| DO2JMG | 2026-09-05 02:44:35 | 51.80116 | 9.09191 | 104° | 80km/h | 2428m | -3.1m/s | 2.6°C | 27% | 760.7hPa | 2.7V | 07:11:50 | 03:25:40 | 00:00:00 | |
| DM0DOS-11 | 2026-09-05 02:44:32 | 51.80157 | 9.08933 | 104° | 82km/h | 2451m | -2.7m/s | 2.4°C | 24.2% | 758.5hPa | 2.7V | 07:10:18 | 03:25:32 | 00:00:00 | |
| HSKMA3-T | 2026-09-05 02:44:31 | 51.80136 | 9.09062 | 105° | 82km/h | 2440m | -2.9m/s | 2.5°C | 27.3% | 759.6hPa | 2.7V | 07:10:59 | 03:25:36 | 00:00:00 | |
| BIOWL1-15 | 2026-09-05 02:44:31 | 51.80157 | 9.08933 | 104° | 82km/h | 2451m | -2.7m/s | 2.4°C | 27.4% | 758.5hPa | 2.7V | 07:10:59 | 03:25:32 | 00:00:00 | |
| BIOWL7-15 | 2026-09-05 02:44:29 | 51.80142 | 9.09030 | 106° | 82km/h | 2443m | -2.8m/s | 2.5°C | 24.0% | 759.2hPa | 2.7V | 07:10:00 | 00:00:00 | 00:00:00 | |
| DB0DAN | 2026-09-05 02:44:25 | 51.80168 | 9.08869 | 105° | 78km/h | 2457m | -2.9m/s | 2.3°C | 24.3% | 758hPa | 2.7V | 00:00:00 | 00:00:00 | 00:00:00 | |
| DO2JMG | 2026-09-05 02:44:24 | 51.80173 | 9.08837 | 105° | 82km/h | 2459m | -2.8m/s | 2.3°C | 27.9% | 757.7hPa | 2.7V | 07:11:50 | 03:25:29 | 00:00:00 | |
| DM0DOS-11 | 2026-09-05 02:44:22 | 51.80183 | 9.08772 | 104° | 82km/h | 2465m | -2.8m/s | 2.3°C | 24.7% | 757.1hPa | 2.7V | 07:10:23 | 03:25:27 | 00:00:00 | |
| DM0DOS-11 | 2026-09-05 02:44:22 | 51.80209 | 9.08609 | 104° | 84km/h | 2479m | -2.8m/s | 2.2°C | 24.4% | 755.8hPa | 2.7V | 07:10:28 | 03:25:22 | 00:00:00 | |
| HSKMA3-T | 2026-09-05 02:44:20 | 51.80194 | 9.08707 | 105° | 82km/h | 2471m | -2.8m/s | 2.2°C | 27.9% | 756.6hPa | 2.7V | 07:10:59 | 03:25:25 | 00:00:00 | |
| BIOWL1-15 | 2026-09-05 02:44:16 | 51.80215 | 9.08576 | 105° | 84km/h | 2482m | -2.8m/s | 2.2°C | 28% | 755.6hPa | 2.7V | 07:10:59 | 03:25:21 | 00:00:00 | |
| DO2JMG | 2026-09-05 02:44:14 | 51.80225 | 9.08511 | 105° | 84km/h | 2487m | -3.1m/s | 2.1°C | 29% | 755.1hPa | 2.7V | 07:11:50 | 03:25:19 | 00:00:00 | |
| DM0DOS-11 | 2026-09-05 02:44:12 | 51.80263 | 9.08281 | 105° | 84km/h | 2507m | -2.8m/s | 2°C | 25.2% | 753.2hPa | 2.7V | 07:10:38 | 03:25:12 | 00:00:00 | |
| DB0DAN | 2026-09-05 02:44:10 | 51.80247 | 9.08379 | 105° | 78km/h | 2498m | -2.9m/s | 2°C | 25.7% | 754.18hPa | 2.7V | 00:00:00 | 00:00:00 | 00:00:00 | |
| HSKMA3-T | 2026-09-05 02:44:08 | 51.80258 | 9.08314 | 105° | 84km/h | 2504m | -2.9m/s | 2°C | 29% | 753.6hPa | 2.7V | 07:10:59 | 03:25:13 | 00:00:00 | |
| DM0DOS-11 | 2026-09-05 02:44:07 | 51.80290 | 9.08118 | 104° | 82km/h | 2520m | -2.8m/s | 2°C | 23.1% | 752.1hPa | 2.7V | 07:10:43 | 03:25:07 | 00:00:00 | |
| BIOWL1-15 | 2026-09-05 02:44:06 | 51.80268 | 9.08248 | 105° | 82km/h | 2510m | -2.7m/s | 2.1°C | 27.5% | 753hPa | 2.7V | 07:10:59 | 03:25:11 | 00:00:00 | |
| DD1CC8 | 2026-09-05 02:44:05 | 51.80279 | 9.08183 | 104° | 82km/h | 2515m | -2.8m/s | 2.1°C | 23.6% | 752.6hPa | 2.7V | 00:00:00 | 00:00:00 | 00:00:00 | |
| BUE01 | 2026-09-05 02:44:04 | 51.80279 | 9.08183 | 104° | 82km/h | 2515m | -2.8m/s | 2.1°C | 23.6% | 752.6hPa | 2.7V | 00:00:00 | 00:00:00 | 00:00:00 | |
| DL4BBY-15 | 2026-09-05 02:44:03 | 51.80284 | 9.08150 | 105° | 80km/h | 2518m | -2.7m/s | 2.0°C | 0% | 0hPa | 2.7V | 00:00:00 | 00:00:00 | 00:00:00 | |
| DM0DOS-11 | 2026-09-05 02:44:02 | 51.80316 | 9.07955 | 104° | 82km/h | 2534m | -2.7m/s | 1.9°C | 23.1% | 750.8hPa | 2.7V | 07:10:48 | 03:25:02 | 00:00:00 | |
| DL3AQ-11 | 2026-09-05 02:44:01 | 51.80295 | 9.08085 | 104° | 82km/h | 2523m | -2.8m/s | 2.0°C | 22.8% | 751.7hPa | 2.7V | 00:00:00 | 00:00:00 | 00:00:00 | |
| DO9LL-15 | 2026-09-05 02:44:00 | 51.80301 | 9.08052 | 105° | 82km/h | 2526m | -2.8m/s | 1.9°C | 23.0% | 751.4hPa | 2.7V | 00:00:00 | 03:25:05 | 00:00:00 | |
| DL3OBA | 2026-09-05 02:43:58 | 51.80306 | 9.08020 | 106° | 82km/h | 2529m | -2.7m/s | 2.0°C | 22.8% | 751.3hPa | 2.7V | 07:10:00 | 00:00:00 | 00:00:00 | |
| DM0DOS-11 | 2026-09-05 02:43:57 | 51.80341 | 9.07792 | 103° | 82km/h | 2547m | -2.5m/s | 2°C | 20.9% | 749.4hPa | 2.7V | 07:10:53 | 03:24:57 | 00:00:00 | |
| HSKMA3-T | 2026-09-05 02:43:57 | 51.80316 | 9.07955 | 104° | 82km/h | 2534m | -2.7m/s | 1.9°C | 25.9% | 750.8hPa | 2.7V | 07:10:59 | 03:25:02 | 00:00:00 | |
| BIOWL1-15 | 2026-09-05 02:43:57 | 51.80326 | 9.07890 | 104° | 82km/h | 2539m | -2.7m/s | 1.9°C | 25.8% | 750.4hPa | 2.7V | 07:10:59 | 03:25:00 | 00:00:00 | |
| DB0DAN | 2026-09-05 02:43:55 | 51.80326 | 9.07890 | 104° | 78km/h | 2539m | -2.7m/s | 1.9°C | 22.9% | 750.4hPa | 2.7V | 00:00:00 | 00:00:00 | 00:00:00 | |
| DM0DOS-11 | 2026-09-05 02:43:52 | 51.80365 | 9.07630 | 104° | 80km/h | 2560m | -2.5m/s | 2°C | 20.4% | 748.3hPa | 2.7V | 07:10:58 | 03:24:52 | 00:00:00 | |
| DD1CC1-15 | 2026-09-05 02:43:48 | 51.80355 | 9.07695 | 105° | 82km/h | 2555m | -2.8m/s | 0°C | 0% | 0hPa | 2.7V | 00:00:00 | 00:00:00 | 00:00:00 | |
| DM0DOS-11 | 2026-09-05 02:43:47 | 51.80390 | 9.07471 | 104° | 80km/h | 2573m | -2.7m/s | 1.9°C | 25.8% | 747.1hPa | 2.7V | 07:11:03 | 03:24:47 | 00:00:00 | |
| HSKMA3-T | 2026-09-05 02:43:46 | 51.80370 | 9.07598 | 104° | 80km/h | 2562m | -2.5m/s | 2°C | 24.5% | 748.1hPa | 2.7V | 07:10:59 | 03:24:51 | 00:00:00 | |
| DL3AQ-11 | 2026-09-05 02:43:46 | 51.80375 | 9.07567 | 104° | 78km/h | 2565m | -2.4m/s | 2.0°C | 23.6% | 747.8hPa | 2.7V | 00:00:00 | 00:00:00 | 00:00:00 | |
| BIOWL1-15 | 2026-09-05 02:43:44 | 51.80380 | 9.07535 | 104° | 80km/h | 2568m | -2.7m/s | 1.9°C | 28.5% | 747.7hPa | 2.7V | 07:11:50 | 03:24:49 | 00:00:00 | |
| DB0UT-7 | 2026-09-05 02:43:43 | 51.80385 | 9.07503 | 105° | 78km/h | 2570m | -2.6m/s | 1.9°C | 25.7% | 747.4hPa | 2.7V | 00:00:00 | 03:24:48 | 00:00:00 | |
| DB0DAN | 2026-09-05 02:43:40 | 51.80400 | 9.07408 | 103° | 77km/h | 2578m | -2.6m/s | 1.9°C | 25.8% | 746.73hPa | 2.7V | 00:00:00 | 00:00:00 | 00:00:00 | |
| DO2JMG | 2026-09-05 02:43:39 | 51.80404 | 9.07376 | 104° | 80km/h | 2581m | -2.5m/s | 1.8°C | 29.3% | 746.4hPa | 2.7V | 07:11:50 | 03:24:44 | 00:00:00 | |
| BIOWL1-15 | 2026-09-05 02:43:38 | 51.80427 | 9.07218 | 102° | 78km/h | 2593m | -2.6m/s | 1.8°C | 29% | 745.2hPa | 2.7V | 07:11:50 | 03:24:39 | 00:00:00 | |
| DM0DOS-11 | 2026-09-05 02:43:37 | 51.80413 | 9.07312 | 102° | 80km/h | 2586m | -2.5m/s | 1.8°C | 26% | 745.9hPa | 2.7V | 07:11:08 | 03:24:42 | 00:00:00 | |
| DM0DOS-11 | 2026-09-05 02:43:37 | 51.80436 | 9.07155 | 102° | 78km/h | 2598m | -2.5m/s | 1.8°C | 25.1% | 744.9hPa | 2.7V | 07:11:13 | 03:24:37 | 00:00:00 | |
| HSKMA3-T | 2026-09-05 02:43:35 | 51.80423 | 9.07249 | 103° | 78km/h | 2590m | -2.6m/s | 1.8°C | 29% | 745.5hPa | 2.7V | 07:12:41 | 03:24:40 | 00:00:00 | |
| DO2JMG | 2026-09-05 02:43:29 | 51.80448 | 9.07060 | 102° | 80km/h | 2605m | -2.5m/s | 1.8°C | 27.8% | 744.2hPa | 2.7V | 07:11:50 | 03:24:34 | 00:00:00 | |
| DM0DOS-11 | 2026-09-05 02:43:27 | 51.80457 | 9.06997 | 102° | 78km/h | 2610m | -2.4m/s | 1.7°C | 24.7% | 743.7hPa | 2.7V | 07:11:18 | 03:24:32 | 00:00:00 | |
| DM0DOS-11 | 2026-09-05 02:43:27 | 51.80478 | 9.06841 | 101° | 78km/h | 2622m | -2.4m/s | 1.7°C | 21.6% | 742.6hPa | 2.7V | 07:11:23 | 03:24:27 | 00:00:00 | |
| DB0DAN | 2026-09-05 02:43:25 | 51.80465 | 9.06935 | 103° | 75km/h | 2615m | -2.3m/s | 1.7°C | 23.7% | 743.26hPa | 2.7V | 00:00:00 | 00:00:00 | 00:00:00 | |
| HSKMA3-T | 2026-09-05 02:43:25 | 51.80465 | 9.06935 | 103° | 78km/h | 2615m | -2.3m/s | 1.7°C | 26.8% | 743.3hPa | 2.7V | 07:12:41 | 03:24:30 | 00:00:00 | |
| BIOWL1-15 | 2026-09-05 02:43:23 | 51.80474 | 9.06872 | 102° | 78km/h | 2620m | -2.3m/s | 1.7°C | 25% | 742.8hPa | 2.7V | 07:11:50 | 03:24:28 | 00:00:00 | |
| DM0DOS-11 | 2026-09-05 02:43:22 | 51.80497 | 9.06684 | 100° | 78km/h | 2635m | -2.4m/s | 1.8°C | 17.2% | 741.4hPa | 2.7V | 07:11:28 | 03:24:22 | 00:00:00 | |
| DO2JMG | 2026-09-05 02:43:18 | 51.80493 | 9.06715 | 100° | 78km/h | 2632m | -2.5m/s | 1.8°C | 21% | 741.7hPa | 2.7V | 07:11:50 | 03:24:23 | 00:00:00 | |
| HSKMA3-T | 2026-09-05 02:43:14 | 51.80507 | 9.06589 | 100° | 78km/h | 2642m | -2.2m/s | 1.9°C | 18.9% | 740.8hPa | 2.6V | 07:12:41 | 03:24:19 | 00:00:00 | |
| BIOWL1-15 | 2026-09-05 02:43:13 | 51.80510 | 9.06558 | 100° | 77km/h | 2644m | -2.1m/s | 1.9°C | 18.8% | 740.6hPa | 2.7V | 07:11:50 | 03:24:18 | 00:00:00 | |
| DB0DAN | 2026-09-05 02:43:10 | 51.80521 | 9.06465 | 100° | 73km/h | 2651m | -2.4m/s | 1.9°C | 15.5% | 739.9hPa | 2.7V | 00:00:00 | 00:00:00 | 00:00:00 | |
| DO2JMG | 2026-09-05 02:43:08 | 51.80527 | 9.06403 | 100° | 77km/h | 2656m | -2.2m/s | 1.9°C | 16.1% | 739.5hPa | 2.7V | 07:11:50 | 03:24:13 | 00:00:00 | |
| HSKMA3-T | 2026-09-05 02:43:04 | 51.80540 | 9.06279 | 100° | 77km/h | 2665m | -2.2m/s | 1.9°C | 15.2% | 738.7hPa | 2.7V | 07:12:41 | 03:24:09 | 00:00:00 | |
| BIOWL1-15 | 2026-09-05 02:43:03 | 51.80544 | 9.06248 | 99° | 77km/h | 2667m | -2.3m/s | 1.9°C | 15.1% | 738.4hPa | 2.7V | 07:11:50 | 03:24:08 | 00:00:00 | |
| DO2JMG | 2026-09-05 02:42:57 | 51.80563 | 9.06064 | 100° | 75km/h | 2680m | -2.3m/s | 1.9°C | 14.7% | 737.2hPa | 2.6V | 07:11:50 | 03:24:02 | 00:00:00 | |
| DB0DAN | 2026-09-05 02:42:55 | 51.80570 | 9.06003 | 100° | 71km/h | 2685m | -2.2m/s | 1.9°C | 13.4% | 736.94hPa | 2.7V | 00:00:00 | 00:00:00 | 00:00:00 | |
| HSKMA3-T | 2026-09-05 02:42:53 | 51.80576 | 9.05942 | 99° | 75km/h | 2689m | -2.5m/s | 1.9°C | 14.1% | 736.4hPa | 2.7V | 07:12:41 | 03:23:58 | 00:00:00 | |
| DL3AQ-11 | 2026-09-05 02:42:53 | 51.80579 | 9.05912 | 99° | 75km/h | 2691m | -2.2m/s | 1.9°C | 12.6% | 736.4hPa | 2.7V | 00:00:00 | 00:00:00 | 00:00:00 | |
| DM0DOS-11 | 2026-09-05 02:42:52 | 51.80579 | 9.05912 | 99° | 75km/h | 2691m | -2.2m/s | 1.9°C | 12.7% | 736.4hPa | 2.7V | 07:11:53 | 03:23:57 | 00:00:00 | |
| BIOWL1-15 | 2026-09-05 02:42:52 | 51.80579 | 9.05912 | 99° | 75km/h | 2691m | -2.2m/s | 1.9°C | 13.6% | 736.4hPa | 2.7V | 07:12:41 | 03:23:57 | 00:00:00 | |
| DO9LL-15 | 2026-09-05 02:42:52 | 51.80579 | 9.05912 | 100° | 75km/h | 2691m | -2.2m/s | 1.9°C | 12.7% | 736.3hPa | 2.7V | 00:00:00 | 03:23:57 | 00:00:00 | |
| DM0DOS-11 | 2026-09-05 02:42:47 | 51.80611 | 9.05610 | 100° | 75km/h | 2713m | -2.2m/s | 1.8°C | 12.7% | 734.2hPa | 2.7V | 07:12:03 | 03:23:47 | 00:00:00 | |
| DO2JMG | 2026-09-05 02:42:47 | 51.80595 | 9.05761 | 100° | 75km/h | 2702m | -2.3m/s | 1.9°C | 13.3% | 735.3hPa | 2.6V | 07:12:41 | 03:23:52 | 00:00:00 | |
| BIOWL9-15 | 2026-09-05 02:42:45 | 51.80601 | 9.05701 | 99° | 75km/h | 2707m | -2.4m/s | 1.9°C | 12.5% | 734.8hPa | 2.7V | 00:00:00 | 00:00:00 | 00:00:00 | |
| HSKMA3-T | 2026-09-05 02:42:42 | 51.80611 | 9.05610 | 100° | 75km/h | 2713m | -2.2m/s | 1.8°C | 13.5% | 734.2hPa | 2.7V | 07:12:41 | 03:23:47 | 00:00:00 | |
| BIOWL1-15 | 2026-09-05 02:42:41 | 51.80614 | 9.05579 | 100° | 75km/h | 2715m | -2m/s | 1.8°C | 13.4% | 734hPa | 2.7V | 07:12:41 | 03:23:46 | 00:00:00 | |
| DB0DAN | 2026-09-05 02:42:40 | 51.80618 | 9.05549 | 100° | 71km/h | 2717m | -2.1m/s | 1.8°C | 12.4% | 733.83hPa | 2.7V | 00:00:00 | 00:00:00 | 00:00:00 | |
| DM0DOS-11 | 2026-09-05 02:42:37 | 51.80644 | 9.05306 | 99° | 75km/h | 2734m | -2m/s | 1.8°C | 11.9% | 732.4hPa | 2.7V | 07:12:13 | 03:23:37 | 00:00:00 | |
| DO2JMG | 2026-09-05 02:42:36 | 51.80631 | 9.05428 | 100° | 75km/h | 2726m | -2m/s | 1.8°C | 13% | 733.2hPa | 2.7V | 07:12:41 | 03:23:41 | 00:00:00 | |
| DL4BBY-15 | 2026-09-05 02:42:33 | 51.80640 | 9.05337 | 100° | 77km/h | 2732m | -1.9m/s | 1.7°C | 0% | 0hPa | 2.7V | 00:00:00 | 00:00:00 | 00:00:00 | |
| DM0DOS-11 | 2026-09-05 02:42:32 | 51.80660 | 9.05153 | 99° | 77km/h | 2744m | -2.2m/s | 1.7°C | 12% | 731.3hPa | 2.7V | 07:12:18 | 03:23:32 | 00:00:00 | |
| HSKMA3-T | 2026-09-05 02:42:32 | 51.80644 | 9.05306 | 100° | 75km/h | 2734m | -2m/s | 1.8°C | 12.5% | 732.4hPa | 2.7V | 07:12:41 | 03:23:37 | 00:00:00 | |
| BIOWL1-15 | 2026-09-05 02:42:30 | 51.80650 | 9.05245 | 100° | 77km/h | 2738m | -2.1m/s | 1.8°C | 12.6% | 732hPa | 2.6V | 07:12:41 | 03:23:35 | 00:00:00 | |
| DB0DAN | 2026-09-05 02:42:25 | 51.80667 | 9.05091 | 100° | 73km/h | 2748m | -2m/s | 1.7°C | 12.1% | 731.02hPa | 2.7V | 00:00:00 | 00:00:00 | 00:00:00 | |
| DO2JMG | 2026-09-05 02:42:24 | 51.80670 | 9.05060 | 100° | 77km/h | 2750m | -1.9m/s | 1.7°C | 12.9% | 730.9hPa | 2.7V | 07:12:41 | 03:23:29 | 00:00:00 | |
| HSKMA3-T | 2026-09-05 02:42:22 | 51.80677 | 9.04998 | 100° | 77km/h | 2754m | -1.9m/s | 1.7°C | 13.2% | 730.5hPa | 2.7V | 07:12:41 | 03:23:27 | 00:00:00 | |
| BIOWL1-15 | 2026-09-05 02:42:18 | 51.80691 | 9.04874 | 100° | 77km/h | 2762m | -2m/s | 1.7°C | 12% | 729.9hPa | 2.7V | 07:12:41 | 03:23:23 | 00:00:00 | |
| DM0DOS-11 | 2026-09-05 02:42:17 | 51.80694 | 9.04843 | 99° | 77km/h | 2764m | -2m/s | 1.7°C | 11.5% | 729.6hPa | 2.7V | 07:12:28 | 03:23:22 | 00:00:00 | |
| DM0DOS-11 | 2026-09-05 02:42:17 | 51.80712 | 9.04688 | 100° | 77km/h | 2774m | -1.9m/s | 1.7°C | 11.4% | 728.8hPa | 2.6V | 07:12:33 | 03:23:17 | 00:00:00 | |
| DO2JMG | 2026-09-05 02:42:13 | 51.80708 | 9.04719 | 100° | 77km/h | 2772m | -1.9m/s | 1.7°C | 11.9% | 729hPa | 2.7V | 07:12:41 | 03:23:18 | 00:00:00 | |
| HSKMA3-T | 2026-09-05 02:42:11 | 51.80715 | 9.04657 | 100° | 78km/h | 2776m | -2m/s | 1.7°C | 11.9% | 728.6hPa | 2.6V | 07:12:41 | 03:23:16 | 00:00:00 | |
| DB0DAN | 2026-09-05 02:42:10 | 51.80719 | 9.04625 | 101° | 75km/h | 2777m | -1.9m/s | 1.7°C | 11.4% | 728.35hPa | 2.7V | 00:00:00 | 00:00:00 | 00:00:00 | |
| BIOWL1-15 | 2026-09-05 02:42:09 | 51.80730 | 9.04532 | 101° | 78km/h | 2783m | -1.9m/s | 1.7°C | 12.2% | 727.9hPa | 2.7V | 07:12:41 | 03:23:12 | 00:00:00 | |
| DM0DOS-11 | 2026-09-05 02:42:07 | 51.80730 | 9.04532 | 101° | 78km/h | 2783m | -1.9m/s | 1.7°C | 11.7% | 727.9hPa | 2.7V | 07:12:38 | 03:23:12 | 00:00:00 | |
| DM0DOS-11 | 2026-09-05 02:42:07 | 51.80750 | 9.04376 | 101° | 78km/h | 2793m | -2m/s | 1.6°C | 11.4% | 727hPa | 2.7V | 07:12:43 | 03:23:07 | 00:00:00 | |
| DO2JMG | 2026-09-05 02:42:03 | 51.80745 | 9.04408 | 101° | 78km/h | 2791m | -2m/s | 1.6°C | 11.9% | 727.3hPa | 2.7V | 07:13:32 | 03:23:08 | 00:00:00 | |
| HSKMA3-T | 2026-09-05 02:42:01 | 51.80754 | 9.04345 | 102° | 78km/h | 2795m | -1.8m/s | 1.6°C | 11.9% | 726.9hPa | 2.7V | 07:14:23 | 03:23:06 | 00:00:00 | |
| BUE01 | 2026-09-05 02:42:00 | 51.80758 | 9.04314 | 102° | 78km/h | 2796m | -1.9m/s | 1.6°C | 11.5% | 726.8hPa | 2.7V | 00:00:00 | 00:00:00 | 00:00:00 | |
| BIOWL7-15 | 2026-09-05 02:41:58 | 51.80762 | 9.04282 | 103° | 78km/h | 2798m | -2.0m/s | 1.6°C | 11.5% | 726.4hPa | 2.7V | 00:00:00 | 00:00:00 | 00:00:00 | |
| DM0DOS-11 | 2026-09-05 02:41:57 | 51.80793 | 9.04061 | 103° | 78km/h | 2811m | -1.6m/s | 1.6°C | 11.4% | 725.4hPa | 2.7V | 07:12:53 | 03:22:57 | 00:00:00 | |
| BIOWL1-15 | 2026-09-05 02:41:56 | 51.80775 | 9.04188 | 102° | 78km/h | 2804m | -1.7m/s | 1.6°C | 12.2% | 726hPa | 2.7V | 07:13:32 | 03:23:01 | 00:00:00 | |
| DB0DAN | 2026-09-05 02:41:55 | 51.80779 | 9.04156 | 103° | 77km/h | 2806m | -1.8m/s | 1.6°C | 11.5% | 725.71hPa | 2.7V | 00:00:00 | 00:00:00 | 00:00:00 | |
| DO2JMG | 2026-09-05 02:41:53 | 51.80788 | 9.04092 | 103° | 78km/h | 2809m | -1.7m/s | 1.6°C | 12% | 725.5hPa | 2.7V | 07:13:32 | 03:22:58 | 00:00:00 | |
| HSKMA3-T | 2026-09-05 02:41:50 | 51.80802 | 9.03998 | 103° | 78km/h | 2814m | -1.8m/s | 1.6°C | 11.8% | 725hPa | 2.6V | 07:14:23 | 03:22:55 | 00:00:00 | |
| DM0DOS-11 | 2026-09-05 02:41:47 | 51.80838 | 9.03745 | 103° | 80km/h | 2829m | -1.9m/s | 1.7°C | 11.4% | 723.8hPa | 2.7V | 07:13:03 | 03:22:47 | 00:00:00 | |
| DL4XJ-10 | 2026-09-05 02:41:47 | 51.80815 | 9.03903 | 103° | 80km/h | 2819m | -1.8m/s | 1.6°C | 0% | 0hPa | 2.7V | 00:00:00 | 00:00:00 | 00:00:00 | |
| DB0UT-7 | 2026-09-05 02:41:45 | 51.80824 | 9.03840 | 104° | 80km/h | 2824m | -1.8m/s | 1.6°C | 11.4% | 724.2hPa | 2.7V | 00:00:00 | 03:22:50 | 00:00:00 | |
| BIOWL1-15 | 2026-09-05 02:41:45 | 51.80824 | 9.03840 | 103° | 80km/h | 2823m | -1.9m/s | 1.6°C | 12% | 724.2hPa | 2.7V | 07:13:32 | 03:22:50 | 00:00:00 | |
| BIOWL9-15 | 2026-09-05 02:41:43 | 51.80833 | 9.03776 | 103° | 80km/h | 2827m | -1.7m/s | 1.7°C | 11.3% | 723.9hPa | 2.7V | 00:00:00 | 00:00:00 | 00:00:00 | |
| DM0DOS-11 | 2026-09-05 02:41:42 | 51.80862 | 9.03585 | 103° | 80km/h | 2838m | -1.9m/s | 1.5°C | 11.5% | 723hPa | 2.7V | 07:13:08 | 03:22:42 | 00:00:00 | |
| DO2JMG | 2026-09-05 02:41:42 | 51.80838 | 9.03744 | 104° | 80km/h | 2829m | -1.9m/s | 1.7°C | 11.9% | 723.8hPa | 2.7V | 07:13:32 | 03:22:47 | 00:00:00 | |
| DB0DAN | 2026-09-05 02:41:40 | 51.80848 | 9.03681 | 104° | 77km/h | 2833m | -1.7m/s | 1.6°C | 11.3% | 723.35hPa | 2.6V | 00:00:00 | 00:00:00 | 00:00:00 | |
| HSKMA3-T | 2026-09-05 02:41:39 | 51.80853 | 9.03649 | 104° | 80km/h | 2834m | -1.9m/s | 1.6°C | 12% | 723.2hPa | 2.7V | 07:14:23 | 03:22:44 | 00:00:00 | |
| BIOWL1-15 | 2026-09-05 02:41:35 | 51.80872 | 9.03522 | 104° | 80km/h | 2841m | -1.9m/s | 1.5°C | 12.1% | 722.8hPa | 2.6V | 07:13:32 | 03:22:40 | 00:00:00 | |
| DL3OBA | 2026-09-05 02:41:34 | 51.80872 | 9.03522 | 105° | 80km/h | 2841m | -1.9m/s | 1.5°C | 11.4% | 722.8hPa | 2.7V | 07:13:00 | 00:00:00 | 00:00:00 | |
| DM0DOS-11 | 2026-09-05 02:41:32 | 51.80887 | 9.03428 | 104° | 80km/h | 2847m | -1.7m/s | 1.5°C | 11.6% | 722.1hPa | 2.7V | 07:13:13 | 03:22:37 | 00:00:00 | |
| DM0DOS-11 | 2026-09-05 02:41:32 | 51.80913 | 9.03268 | 105° | 82km/h | 2855m | -1.7m/s | 1.5°C | 12.2% | 721.5hPa | 2.6V | 07:13:18 | 03:22:32 | 00:00:00 | |
| DO2JMG | 2026-09-05 02:41:32 | 51.80887 | 9.03427 | 105° | 80km/h | 2847m | -1.7m/s | 1.5°C | 12.2% | 722.1hPa | 2.7V | 07:13:32 | 03:22:37 | 00:00:00 | |
| HSKMA3-T | 2026-09-05 02:41:29 | 51.80902 | 9.03332 | 105° | 82km/h | 2852m | -1.9m/s | 1.5°C | 12.9% | 721.6hPa | 2.7V | 07:14:23 | 03:22:34 | 00:00:00 | |
| DB0DAN | 2026-09-05 02:41:25 | 51.80924 | 9.03203 | 105° | 78km/h | 2859m | -1.8m/s | 1.5°C | 12.3% | 721.12hPa | 2.7V | 00:00:00 | 00:00:00 | 00:00:00 | |
| BIOWL1-15 | 2026-09-05 02:41:25 | 51.80924 | 9.03203 | 105° | 82km/h | 2859m | -1.8m/s | 1.5°C | 13.2% | 721.1hPa | 2.7V | 07:13:32 | 03:22:30 | 00:00:00 | |
| DB0UT-7 | 2026-09-05 02:41:25 | 51.80924 | 9.03203 | 106° | 84km/h | 2859m | -1.8m/s | 1.4°C | 12.4% | 721.1hPa | 2.7V | 00:00:00 | 00:00:00 | 00:00:00 | |
| DM0DOS-11 | 2026-09-05 02:41:22 | 51.80967 | 9.02943 | 105° | 82km/h | 2873m | -1.8m/s | 1.4°C | 12.8% | 719.7hPa | 2.7V | 07:13:28 | 03:22:22 | 00:00:00 | |
| DO2JMG | 2026-09-05 02:41:21 | 51.80945 | 9.03073 | 105° | 82km/h | 2866m | -1.7m/s | 1.5°C | 13.5% | 720.4hPa | 2.7V | 07:13:32 | 03:22:26 | 00:00:00 | |
| HSKMA3-T | 2026-09-05 02:41:18 | 51.80962 | 9.02975 | 105° | 82km/h | 2871m | -2m/s | 1.4°C | 13.7% | 719.9hPa | 2.6V | 07:14:23 | 03:22:23 | 00:00:00 | |
| BIOWL1-15 | 2026-09-05 02:41:17 | 51.80978 | 9.02877 | 105° | 84km/h | 2877m | -1.8m/s | 1.4°C | 13.8% | 719.6hPa | 2.7V | 07:13:32 | 03:22:20 | 00:00:00 | |
| DD1CC3-15 | 2026-09-05 02:41:15 | 51.80973 | 9.02910 | 106° | 84km/h | 2875m | -2.0m/s | 1.4°C | 12.7% | 719.7hPa | 2.7V | 07:13:00 | 00:00:00 | 00:00:00 | |
| DL3OBA | 2026-09-05 02:41:13 | 51.80984 | 9.02844 | 106° | 84km/h | 2879m | -1.8m/s | 1.4°C | 12.7% | 719.4hPa | 2.7V | 07:13:00 | 00:00:00 | 00:00:00 | |
| DM0DOS-11 | 2026-09-05 02:41:12 | 51.81022 | 9.02613 | 104° | 84km/h | 2890m | -2.1m/s | 1.3°C | 12.4% | 718.3hPa | 2.7V | 07:13:38 | 03:22:12 | 00:00:00 | |
| DO2JMG | 2026-09-05 02:41:11 | 51.81000 | 9.02746 | 105° | 84km/h | 2884m | -1.9m/s | 1.3°C | 13.6% | 718.9hPa | 2.6V | 07:14:23 | 03:22:16 | 00:00:00 | |
| DB0DAN | 2026-09-05 02:41:10 | 51.81005 | 9.02712 | 105° | 80km/h | 2886m | -1.9m/s | 1.3°C | 12.5% | 718.76hPa | 2.6V | 00:00:00 | 00:00:00 | 00:00:00 | |
| HSKMA3-T | 2026-09-05 02:41:07 | 51.81022 | 9.02613 | 105° | 84km/h | 2890m | -2.1m/s | 1.3°C | 13.2% | 718.3hPa | 2.7V | 07:14:23 | 03:22:12 | 00:00:00 | |
| BIOWL1-15 | 2026-09-05 02:41:05 | 51.81033 | 9.02546 | 105° | 84km/h | 2894m | -1.8m/s | 1.3°C | 12.8% | 718hPa | 2.7V | 07:14:23 | 03:22:10 | 00:00:00 | |
| DO2JMG | 2026-09-05 02:41:01 | 51.81055 | 9.02412 | 105° | 84km/h | 2901m | -1.5m/s | 1.4°C | 12.4% | 717.4hPa | 2.6V | 07:14:23 | 03:22:06 | 00:00:00 | |
| BUE01 | 2026-09-05 02:40:58 | 51.81072 | 9.02312 | 105° | 84km/h | 2906m | -1.7m/s | 1.4°C | 11.7% | 716.9hPa | 2.7V | 00:00:00 | 00:00:00 | 00:00:00 | |
| DM0DOS-11 | 2026-09-05 02:40:57 | 51.81078 | 9.02279 | 105° | 84km/h | 2907m | -1.6m/s | 1.4°C | 11.8% | 716.8hPa | 2.7V | 07:13:48 | 03:22:02 | 00:00:00 | |
| DM0DOS-11 | 2026-09-05 02:40:57 | 51.81107 | 9.02114 | 106° | 84km/h | 2916m | -1.7m/s | 1.3°C | 11.9% | 716hPa | 2.7V | 07:13:53 | 03:21:57 | 00:00:00 | |
| HSKMA3-T | 2026-09-05 02:40:57 | 51.81077 | 9.02279 | 106° | 84km/h | 2907m | -1.6m/s | 1.4°C | 12.5% | 716.8hPa | 2.7V | 07:14:23 | 03:22:02 | 00:00:00 | |
| DB0DAN | 2026-09-05 02:40:55 | 51.81089 | 9.02213 | 106° | 80km/h | 2911m | -1.7m/s | 1.4°C | 11.7% | 716.45hPa | 2.7V | 00:00:00 | 00:00:00 | 00:00:00 | |
| BIOWL1-15 | 2026-09-05 02:40:54 | 51.81095 | 9.02180 | 106° | 84km/h | 2912m | -1.9m/s | 1.4°C | 12.6% | 716.4hPa | 2.6V | 07:14:23 | 03:21:59 | 00:00:00 | |
| DO2JMG | 2026-09-05 02:40:51 | 51.81112 | 9.02081 | 106° | 84km/h | 2918m | -1.7m/s | 1.3°C | 12.6% | 715.8hPa | 2.7V | 07:14:23 | 03:21:56 | 00:00:00 | |
| DM0DOS-11 | 2026-09-05 02:40:47 | 51.81136 | 9.01949 | 105° | 84km/h | 2924m | -1.6m/s | 1.3°C | 12% | 715.3hPa | 2.7V | 07:13:58 | 03:21:52 | 00:00:00 | |
| DM0DOS-11 | 2026-09-05 02:40:47 | 51.81165 | 9.01783 | 105° | 84km/h | 2932m | -1.8m/s | 1.2°C | 12.1% | 714.5hPa | 2.7V | 07:14:03 | 03:21:47 | 00:00:00 | |
| HSKMA3-T | 2026-09-05 02:40:47 | 51.81136 | 9.01949 | 106° | 84km/h | 2924m | -1.7m/s | 1.3°C | 12.8% | 715.3hPa | 2.7V | 07:14:23 | 03:21:52 | 00:00:00 | |
| BIOWL1-15 | 2026-09-05 02:40:44 | 51.81153 | 9.01849 | 106° | 84km/h | 2929m | -1.4m/s | 1.2°C | 12.8% | 714.9hPa | 2.7V | 07:14:23 | 03:21:49 | 00:00:00 | |
| DM0DOS-11 | 2026-09-05 02:40:42 | 51.81193 | 9.01618 | 104° | 84km/h | 2941m | -1.6m/s | 1.2°C | 12.2% | 713.9hPa | 2.7V | 07:14:08 | 03:21:42 | 00:00:00 | |
| DB0DAN | 2026-09-05 02:40:40 | 51.81176 | 9.01717 | 106° | 80km/h | 2936m | -1.6m/s | 1.2°C | 12% | 714.14hPa | 2.6V | 00:00:00 | 00:00:00 | 00:00:00 | |
| DO2JMG | 2026-09-05 02:40:40 | 51.81176 | 9.01717 | 106° | 84km/h | 2936m | -1.6m/s | 1.2°C | 12.9% | 714.1hPa | 2.6V | 07:14:23 | 03:21:45 | 00:00:00 | |
| DM0DOS-11 | 2026-09-05 02:40:37 | 51.81220 | 9.01452 | 104° | 84km/h | 2949m | -1.5m/s | 1.2°C | 12.1% | 713.1hPa | 2.7V | 07:14:13 | 03:21:37 | 00:00:00 | |
| HSKMA3-T | 2026-09-05 02:40:36 | 51.81198 | 9.01585 | 105° | 84km/h | 2943m | -1.7m/s | 1.2°C | 13% | 713.7hPa | 2.7V | 07:14:23 | 03:21:41 | 00:00:00 | |
| BIOWL1-15 | 2026-09-05 02:40:33 | 51.81215 | 9.01485 | 105° | 84km/h | 2947m | -1.6m/s | 1.2°C | 12.9% | 713.3hPa | 2.7V | 07:14:23 | 03:21:38 | 00:00:00 | |
| DO2JMG | 2026-09-05 02:40:29 | 51.81237 | 9.01351 | 105° | 86km/h | 2954m | -1.7m/s | 1.2°C | 12.6% | 712.7hPa | 2.7V | 07:14:23 | 03:21:34 | 00:00:00 | |
| DO2KSM | 2026-09-05 02:40:28 | 51.81237 | 9.01351 | 106° | 86km/h | 2954m | -1.7m/s | 1.2°C | 11.8% | 712.7hPa | 2.7V | 00:00:00 | 00:00:00 | 00:00:00 | |
| DB0DAN | 2026-09-05 02:40:25 | 51.81259 | 9.01215 | 105° | 82km/h | 2961m | -1.7m/s | 1.2°C | 11.9% | 712.12hPa | 2.7V | 00:00:00 | 00:00:00 | 00:00:00 | |
| HSKMA3-T | 2026-09-05 02:40:23 | 51.81271 | 9.01146 | 105° | 88km/h | 2964m | -1.7m/s | 1.2°C | 12.8% | 711.8hPa | 2.6V | 07:14:23 | 03:21:28 | 00:00:00 | |
| DM0DOS-11 | 2026-09-05 02:40:22 | 51.81276 | 9.01112 | 104° | 86km/h | 2966m | -1.9m/s | 1.1°C | 12.1% | 711.6hPa | 2.7V | 07:14:23 | 03:21:27 | 00:00:00 | |
| DO2JMG | 2026-09-05 02:40:19 | 51.81293 | 9.01009 | 105° | 86km/h | 2971m | -1.7m/s | 1.1°C | 13% | 711.2hPa | 2.7V | 07:15:14 | 03:21:24 | 00:00:00 | |
| BIOWL1-15 | 2026-09-05 02:40:13 | 51.81326 | 9.00805 | 104° | 86km/h | 2981m | -1.6m/s | 1.1°C | 14% | 710.4hPa | 2.7V | 07:15:14 | 03:21:18 | 00:00:00 | |
| DM0DOS-11 | 2026-09-05 02:40:12 | 51.81331 | 9.00771 | 104° | 86km/h | 2982m | -1.8m/s | 1.1°C | 13.1% | 710.1hPa | 2.7V | 07:14:33 | 03:21:17 | 00:00:00 | |
| HSKMA3-T | 2026-09-05 02:40:12 | 51.81331 | 9.00771 | 105° | 86km/h | 2982m | -1.8m/s | 1.1°C | 14.2% | 710.1hPa | 2.7V | 07:15:14 | 03:21:17 | 00:00:00 | |
| DB0DAN | 2026-09-05 02:40:10 | 51.81342 | 9.00703 | 104° | 82km/h | 2986m | -1.7m/s | 1.1°C | 13.7% | 709.79hPa | 2.7V | 00:00:00 | 00:00:00 | 00:00:00 | |
| DO2JMG | 2026-09-05 02:40:09 | 51.81347 | 9.00669 | 104° | 86km/h | 2988m | -1.8m/s | 1.1°C | 15.3% | 709.8hPa | 2.7V | 07:15:14 | 03:21:14 | 00:00:00 | |
| DL4XJ-10 | 2026-09-05 02:40:07 | 51.81358 | 9.00602 | 105° | 84km/h | 2992m | -1.9m/s | 1.0°C | 0% | 0hPa | 2.7V | 00:00:00 | 00:00:00 | 00:00:00 | |
| SONCRA | 2026-09-05 02:40:06 | 51.81363 | 9.00568 | 104° | 84km/h | 2993m | -1.8m/s | 1.1°C | 14.1% | 709.3hPa | 2.7V | 00:00:00 | 00:00:00 | 00:00:00 | |
| DB0UT-7 | 2026-09-05 02:40:05 | 51.81369 | 9.00535 | 105° | 84km/h | 2995m | -1.8m/s | 1.1°C | 14.2% | 709.0hPa | 2.7V | 00:00:00 | 00:00:00 | 00:00:00 | |
| DM0DOS-11 | 2026-09-05 02:40:02 | 51.81409 | 9.00268 | 103° | 84km/h | 3009m | -1.8m/s | 1.1°C | 12.9% | 707.9hPa | 2.7V | 07:14:48 | 03:21:02 | 00:00:00 | |
| HSKMA3-T | 2026-09-05 02:40:02 | 51.81384 | 9.00435 | 104° | 84km/h | 3000m | -1.8m/s | 1.1°C | 14.9% | 708.6hPa | 2.7V | 07:15:14 | 03:21:07 | 00:00:00 | |
| DL3AQ-11 | 2026-09-05 02:40:01 | 51.81389 | 9.00402 | 103° | 82km/h | 3002m | -1.8m/s | 1.1°C | 13.4% | 708.4hPa | 2.6V | 00:00:00 | 00:00:00 | 00:00:00 | |
| DO2KSM | 2026-09-05 02:40:00 | 51.81389 | 9.00401 | 105° | 84km/h | 3002m | -1.8m/s | 1.1°C | 13.4% | 708.4hPa | 2.6V | 07:15:00 | 00:00:00 | 00:00:00 | |
| DM0DOS-11 | 2026-09-05 02:39:57 | 51.81434 | 9.00103 | 103° | 82km/h | 3018m | -1.7m/s | 1.1°C | 12.9% | 707.1hPa | 2.6V | 07:14:53 | 03:20:57 | 00:00:00 | |
| BUE01 | 2026-09-05 02:39:56 | 51.81415 | 9.00235 | 103° | 82km/h | 3011m | -2.0m/s | 1.2°C | 12.8% | 707.5hPa | 2.7V | 00:00:00 | 00:00:00 | 00:00:00 | |
| DB0DAN | 2026-09-05 02:39:55 | 51.81420 | 9.00202 | 104° | 78km/h | 3013m | -1.8m/s | 1.2°C | 12.9% | 707.55hPa | 2.7V | 00:00:00 | 00:00:00 | 00:00:00 | |
| DD1CC3-15 | 2026-09-05 02:39:54 | 51.81420 | 9.00202 | 105° | 84km/h | 3013m | -1.8m/s | 1.2°C | 12.9% | 707.6hPa | 2.7V | 07:15:00 | 00:00:00 | 00:00:00 | |
| DM0DOS-11 | 2026-09-05 02:39:52 | 51.81458 | 8.99938 | 103° | 82km/h | 3026m | -1.8m/s | 1.1°C | 12.7% | 706.3hPa | 2.7V | 07:14:58 | 03:20:52 | 00:00:00 | |
| BIOWL1-15 | 2026-09-05 02:39:52 | 51.81434 | 9.00103 | 103° | 84km/h | 3018m | -1.7m/s | 1.1°C | 13.9% | 707.1hPa | 2.6V | 07:15:14 | 03:20:57 | 00:00:00 | |
| HSKMA3-T | 2026-09-05 02:39:51 | 51.81439 | 9.00069 | 103° | 84km/h | 3020m | -1.6m/s | 1.1°C | 13.7% | 706.9hPa | 2.6V | 07:15:14 | 03:20:56 | 00:00:00 | |
| DO2JMG | 2026-09-05 02:39:47 | 51.81458 | 8.99938 | 104° | 82km/h | 3027m | -1.8m/s | 1.1°C | 13.6% | 706.3hPa | 2.7V | 07:15:14 | 03:20:52 | 00:00:00 | |
| DL4XJ-10 | 2026-09-05 02:39:47 | 51.81458 | 8.99938 | 104° | 82km/h | 3027m | -1.7m/s | 1.0°C | 0% | 0hPa | 2.7V | 00:00:00 | 00:00:00 | 00:00:00 | |
| DB0UT-7 | 2026-09-05 02:39:45 | 51.81468 | 8.99872 | 104° | 82km/h | 3030m | -2.0m/s | 1.0°C | 12.8% | 705.9hPa | 2.7V | 07:15:00 | 03:20:50 | 00:00:00 | |
| DM0DOS-11 | 2026-09-05 02:39:42 | 51.81482 | 8.99774 | 103° | 82km/h | 3036m | -1.7m/s | 1.1°C | 12.9% | 705.5hPa | 2.7V | 07:15:03 | 03:20:47 | 00:00:00 | |
| DM0DOS-11 | 2026-09-05 02:39:42 | 51.81506 | 8.99611 | 104° | 82km/h | 3046m | -1.8m/s | 1.1°C | 13% | 704.6hPa | 2.7V | 07:15:08 | 03:20:42 | 00:00:00 | |
| BIOWL1-15 | 2026-09-05 02:39:41 | 51.81487 | 8.99741 | 103° | 82km/h | 3038m | -1.8m/s | 1.1°C | 13.9% | 705.4hPa | 2.7V | 07:15:14 | 03:20:46 | 00:00:00 | |
| DB0DAN | 2026-09-05 02:39:40 | 51.81492 | 8.99709 | 103° | 78km/h | 3039m | -1.8m/s | 1.1°C | 12.8% | 705.23hPa | 2.7V | 00:00:00 | 00:00:00 | 00:00:00 | |
| HSKMA3-T | 2026-09-05 02:39:40 | 51.81492 | 8.99709 | 103° | 82km/h | 3039m | -1.8m/s | 1.1°C | 13.9% | 705.2hPa | 2.7V | 07:15:14 | 03:20:45 | 00:00:00 | |
| DO2JMG | 2026-09-05 02:39:36 | 51.81512 | 8.99579 | 104° | 82km/h | 3047m | -1.9m/s | 1.1°C | 14.1% | 704.5hPa | 2.6V | 07:15:14 | 03:20:41 | 00:00:00 | |
| SONCRA | 2026-09-05 02:39:35 | 51.81517 | 8.99546 | 104° | 82km/h | 3049m | -1.9m/s | 1.1°C | 12.9% | 704.4hPa | 2.7V | 00:00:00 | 00:00:00 | 00:00:00 | |
| DD1CC3-15 | 2026-09-05 02:39:34 | 51.81517 | 8.99546 | 105° | 82km/h | 3049m | -1.9m/s | 1.1°C | 12.9% | 704.4hPa | 2.7V | 07:15:00 | 00:00:00 | 00:00:00 | |
| DM0DOS-11 | 2026-09-05 02:39:32 | 51.81532 | 8.99448 | 104° | 82km/h | 3055m | -2m/s | 1.1°C | 13.1% | 703.8hPa | 2.7V | 07:15:13 | 03:20:37 | 00:00:00 | |
| DM0DOS-11 | 2026-09-05 02:39:32 | 51.81558 | 8.99284 | 104° | 82km/h | 3064m | -2.2m/s | 1.1°C | 12.6% | 703hPa | 2.6V | 07:15:18 | 03:20:32 | 00:00:00 | |
| BIOWL1-15 | 2026-09-05 02:39:30 | 51.81542 | 8.99383 | 104° | 82km/h | 3059m | -2m/s | 1.1°C | 13.9% | 703.5hPa | 2.7V | 07:16:05 | 03:20:35 | 00:00:00 | |
| HSKMA3-T | 2026-09-05 02:39:29 | 51.81548 | 8.99350 | 104° | 82km/h | 3060m | -1.8m/s | 1.1°C | 13.8% | 703.2hPa | 2.7V | 07:16:05 | 03:20:34 | 00:00:00 | |
| DM0DOS-11 | 2026-09-05 02:39:27 | 51.81584 | 8.99122 | 104° | 82km/h | 3074m | -2.1m/s | 1.1°C | 12.6% | 702.1hPa | 2.7V | 07:15:23 | 03:20:27 | 00:00:00 | |
| DB0DAN | 2026-09-05 02:39:25 | 51.81568 | 8.99219 | 105° | 78km/h | 3068m | -2m/s | 1.1°C | 12.4% | 702.53hPa | 2.7V | 00:00:00 | 00:00:00 | 00:00:00 | |
| DO2JMG | 2026-09-05 02:39:25 | 51.81568 | 8.99219 | 105° | 82km/h | 3068m | -2m/s | 1.1°C | 13.4% | 702.5hPa | 2.7V | 07:16:05 | 03:20:30 | 00:00:00 | |
| BUE01 | 2026-09-05 02:39:25 | 51.81574 | 8.99187 | 104° | 82km/h | 3070m | -2.0m/s | 1.2°C | 12.4% | 702.4hPa | 2.7V | 00:00:00 | 00:00:00 | 00:00:00 | |
| DM0DOS-11 | 2026-09-05 02:39:22 | 51.81611 | 8.98960 | 105° | 82km/h | 3085m | -2.3m/s | 1.1°C | 12.7% | 701.1hPa | 2.7V | 07:15:28 | 03:20:22 | 00:00:00 | |
| BIOWL1-15 | 2026-09-05 02:39:19 | 51.81600 | 8.99025 | 105° | 82km/h | 3081m | -2.4m/s | 1.1°C | 13.6% | 701.5hPa | 2.6V | 07:16:05 | 03:20:24 | 00:00:00 | |
| DO2JMG | 2026-09-05 02:39:14 | 51.81627 | 8.98862 | 105° | 82km/h | 3092m | -2.1m/s | 1.1°C | 13.7% | 700.5hPa | 2.7V | 07:16:05 | 03:20:19 | 00:00:00 | |
| DD1CC3-15 | 2026-09-05 02:39:13 | 51.81627 | 8.98862 | 106° | 82km/h | 3092m | -2.1m/s | 1.1°C | 12.6% | 700.5hPa | 2.7V | 07:16:00 | 00:00:00 | 00:00:00 | |
| DM0DOS-11 | 2026-09-05 02:39:12 | 51.81665 | 8.98631 | 104° | 84km/h | 3106m | -2.3m/s | 1.1°C | 14.9% | 699.2hPa | 2.7V | 07:15:38 | 03:20:12 | 00:00:00 | |
| DB0DAN | 2026-09-05 02:39:10 | 51.81649 | 8.98731 | 105° | 80km/h | 3100m | -2.3m/s | 1.1°C | 13.8% | 699.86hPa | 2.7V | 00:00:00 | 00:00:00 | 00:00:00 | |
| HSKMA3-T | 2026-09-05 02:39:08 | 51.81659 | 8.98665 | 105° | 84km/h | 3104m | -2.2m/s | 1.1°C | 16.3% | 699.5hPa | 2.7V | 07:16:05 | 03:20:13 | 00:00:00 | |
| DO2JMG | 2026-09-05 02:39:04 | 51.81681 | 8.98532 | 105° | 84km/h | 3112m | -2.4m/s | 1.1°C | 17% | 698.8hPa | 2.6V | 07:16:05 | 03:20:09 | 00:00:00 | |
| DL8OAI-8 | 2026-09-05 02:39:01 | 51.81692 | 8.98465 | 106° | 84km/h | 3117m | -2.3m/s | 1.0°C | 15.6% | 698.3hPa | 2.6V | 07:16:00 | 00:00:00 | 00:00:00 | |
| DM0DOS-11 | 2026-09-05 02:38:57 | 51.81718 | 8.98298 | 104° | 84km/h | 3128m | -2.4m/s | 1.1°C | 16.6% | 697.3hPa | 2.6V | 07:15:48 | 03:20:02 | 00:00:00 | |
| HSKMA3-T | 2026-09-05 02:38:57 | 51.81718 | 8.98298 | 105° | 84km/h | 3128m | -2.4m/s | 1.1°C | 18.6% | 697.3hPa | 2.6V | 07:16:05 | 03:20:02 | 00:00:00 | |
| DB0DAN | 2026-09-05 02:38:55 | 51.81729 | 8.98231 | 105° | 80km/h | 3133m | -2.4m/s | 1°C | 16.6% | 696.92hPa | 2.7V | 00:00:00 | 00:00:00 | 00:00:00 | |
| DO2JMG | 2026-09-05 02:38:53 | 51.81740 | 8.98164 | 105° | 86km/h | 3137m | -2.1m/s | 1°C | 18.9% | 696.6hPa | 2.7V | 07:16:05 | 03:19:58 | 00:00:00 | |
| DL3AQ-11 | 2026-09-05 02:38:53 | 51.81745 | 8.98131 | 104° | 84km/h | 3139m | -2.3m/s | 1.0°C | 16.7% | 696.4hPa | 2.7V | 00:00:00 | 00:00:00 | 00:00:00 | |
| DM0DOS-11 | 2026-09-05 02:38:52 | 51.81772 | 8.97963 | 104° | 84km/h | 3150m | -2.3m/s | 0.9°C | 16.9% | 695.4hPa | 2.7V | 07:15:58 | 03:19:52 | 00:00:00 | |
| DO9LL-15 | 2026-09-05 02:38:52 | 51.81745 | 8.98131 | 105° | 84km/h | 3139m | -2.2m/s | 0.9°C | 16.9% | 696.3hPa | 2.6V | 00:00:00 | 03:19:57 | 00:00:00 | |
| DL1LOL-11 | 2026-09-05 02:38:51 | 51.81745 | 8.98131 | 106° | 84km/h | 3139m | -2.3m/s | 1.0°C | 16.7% | 696.4hPa | 2.6V | 00:00:00 | 00:00:00 | 00:00:00 | |
| DL3OBA | 2026-09-05 02:38:49 | 51.81756 | 8.98064 | 106° | 84km/h | 3144m | -2.3m/s | 1.0°C | 16.6% | 696.0hPa | 2.6V | 07:16:00 | 00:00:00 | 00:00:00 | |
| DM0DOS-11 | 2026-09-05 02:38:47 | 51.81799 | 8.97797 | 104° | 84km/h | 3162m | -2.3m/s | 0.8°C | 17.7% | 694.5hPa | 2.6V | 07:16:03 | 03:19:47 | 00:00:00 | |
| HSKMA3-T | 2026-09-05 02:38:47 | 51.81772 | 8.97963 | 104° | 84km/h | 3150m | -2.3m/s | 0.9°C | 19% | 695.4hPa | 2.7V | 07:16:05 | 03:19:52 | 00:00:00 | |
| BIOWL1-15 | 2026-09-05 02:38:46 | 51.81778 | 8.97930 | 104° | 84km/h | 3153m | -2.5m/s | 0.9°C | 19.3% | 695.1hPa | 2.7V | 07:16:05 | 03:19:51 | 00:00:00 | |
| DB0UT-7 | 2026-09-05 02:38:45 | 51.81783 | 8.97897 | 105° | 86km/h | 3155m | -2.2m/s | 0.8°C | 17.2% | 694.8hPa | 2.7V | 00:00:00 | 03:19:50 | 00:00:00 | |
| BIOWL7-15 | 2026-09-05 02:38:44 | 51.81783 | 8.97897 | 105° | 84km/h | 3155m | -2.3m/s | 0.9°C | 17.0% | 694.9hPa | 2.7V | 07:16:00 | 00:00:00 | 00:00:00 | |
| DM0DOS-11 | 2026-09-05 02:38:42 | 51.81825 | 8.97630 | 104° | 84km/h | 3174m | -2.5m/s | 0.7°C | 17.4% | 693.5hPa | 2.7V | 07:16:08 | 03:19:42 | 00:00:00 | |
| BIOWL1-15 | 2026-09-05 02:38:38 | 51.81831 | 8.97597 | 105° | 86km/h | 3177m | -2.4m/s | 0.7°C | 19.3% | 693.3hPa | 2.7V | 07:16:56 | 03:19:41 | 00:00:00 | |
| DM0DOS-11 | 2026-09-05 02:38:37 | 51.81853 | 8.97463 | 104° | 84km/h | 3186m | -2.6m/s | 0.6°C | 17.9% | 692.4hPa | 2.7V | 07:16:13 | 03:19:37 | 00:00:00 | |
| HSKMA3-T | 2026-09-05 02:38:37 | 51.81825 | 8.97630 | 105° | 86km/h | 3174m | -2.5m/s | 0.7°C | 19.6% | 693.5hPa | 2.7V | 07:16:56 | 03:19:42 | 00:00:00 | |
| DO2JMG | 2026-09-05 02:38:34 | 51.81842 | 8.97530 | 105° | 86km/h | 3181m | -2.4m/s | 0.7°C | 19.8% | 692.8hPa | 2.6V | 07:16:56 | 03:19:39 | 00:00:00 | |
| SONCRA | 2026-09-05 02:38:33 | 51.81847 | 8.97496 | 105° | 84km/h | 3183m | -2.3m/s | 0.6°C | 17.4% | 692.6hPa | 2.6V | 00:00:00 | 00:00:00 | 00:00:00 | |
| DM0DOS-11 | 2026-09-05 02:38:32 | 51.81880 | 8.97295 | 105° | 86km/h | 3198m | -2.4m/s | 0.5°C | 19.1% | 691.4hPa | 2.6V | 07:16:18 | 03:19:32 | 00:00:00 | |
| DL3OBA | 2026-09-05 02:38:29 | 51.81863 | 8.97395 | 106° | 84km/h | 3191m | -2.5m/s | 0.6°C | 18.2% | 691.9hPa | 2.7V | 07:16:00 | 00:00:00 | 00:00:00 | |
| DJ2DS-15 | 2026-09-05 02:38:28 | 51.81886 | 8.97262 | 105° | 84km/h | 3200m | -2.7m/s | 0.5°C | 19.0% | 691.1hPa | 2.7V | 00:00:00 | 00:00:00 | 00:00:00 | |
| DM0DOS-11 | 2026-09-05 02:38:27 | 51.81909 | 8.97127 | 105° | 86km/h | 3210m | -2.5m/s | 0.4°C | 19.4% | 690.3hPa | 2.7V | 07:16:23 | 03:19:27 | 00:00:00 | |
| HSKMA3-T | 2026-09-05 02:38:26 | 51.81886 | 8.97262 | 105° | 86km/h | 3200m | -2.7m/s | 0.5°C | 21.7% | 691.1hPa | 2.6V | 07:16:56 | 03:19:31 | 00:00:00 | |
| BIOWL1-15 | 2026-09-05 02:38:25 | 51.81891 | 8.97228 | 106° | 84km/h | 3203m | -2.3m/s | 0.5°C | 22% | 690.9hPa | 2.7V | 07:16:56 | 03:19:30 | 00:00:00 | |
| DO2JMG | 2026-09-05 02:38:24 | 51.81897 | 8.97195 | 105° | 86km/h | 3205m | -2.4m/s | 0.5°C | 21.9% | 690.7hPa | 2.7V | 07:16:56 | 03:19:29 | 00:00:00 | |
| BUE01 | 2026-09-05 02:38:23 | 51.81909 | 8.97127 | 105° | 84km/h | 3209m | -2.5m/s | 0.4°C | 19.2% | 690.3hPa | 2.7V | 00:00:00 | 00:00:00 | 00:00:00 | |
| DO9LL-15 | 2026-09-05 02:38:22 | 51.81908 | 8.97127 | 106° | 86km/h | 3210m | -2.4m/s | 0.4°C | 19.4% | 690.3hPa | 2.7V | 00:00:00 | 03:19:27 | 00:00:00 | |
| DL8OAI-8 | 2026-09-05 02:38:20 | 51.81914 | 8.97093 | 106° | 86km/h | 3212m | -2.6m/s | 0.4°C | 19.2% | 690.1hPa | 2.7V | 00:00:00 | 00:00:00 | 00:00:00 | |
| DM0DOS-11 | 2026-09-05 02:38:17 | 51.81938 | 8.96958 | 105° | 86km/h | 3222m | -2.6m/s | 0.3°C | 19.6% | 689.1hPa | 2.7V | 07:16:28 | 03:19:22 | 00:00:00 | |
| DM0DOS-11 | 2026-09-05 02:38:17 | 51.81967 | 8.96789 | 105° | 86km/h | 3235m | -2.6m/s | 0.2°C | 19.5% | 688.1hPa | 2.6V | 07:16:33 | 03:19:17 | 00:00:00 | |
| HSKMA3-T | 2026-09-05 02:38:16 | 51.81943 | 8.96924 | 106° | 86km/h | 3225m | -2.3m/s | 0.3°C | 22.2% | 689.1hPa | 2.7V | 07:16:56 | 03:19:21 | 00:00:00 | |
| BIOWL1-15 | 2026-09-05 02:38:14 | 51.81955 | 8.96857 | 106° | 86km/h | 3230m | -2.7m/s | 0.3°C | 22.2% | 688.7hPa | 2.7V | 07:16:56 | 03:19:19 | 00:00:00 | |
| DO2JMG | 2026-09-05 02:38:13 | 51.81961 | 8.96823 | 106° | 86km/h | 3232m | -2.6m/s | 0.2°C | 22.2% | 688.3hPa | 2.7V | 07:16:56 | 03:19:18 | 00:00:00 | |
| DD1CC3-15 | 2026-09-05 02:38:12 | 51.81961 | 8.96823 | 107° | 86km/h | 3232m | -2.6m/s | 0.2°C | 19.3% | 688.3hPa | 2.7V | 07:16:00 | 00:00:00 | 00:00:00 | |
| DO3DL | 2026-09-05 02:38:10 | 51.81973 | 8.96756 | 107° | 86km/h | 3237m | -2.6m/s | 0.2°C | 19.3% | 687.9hPa | 2.7V | 07:16:00 | 00:00:00 | 00:00:00 | |
| DL3OBA | 2026-09-05 02:38:09 | 51.81979 | 8.96722 | 107° | 86km/h | 3240m | -2.7m/s | 0.2°C | 19.2% | 687.7hPa | 2.7V | 07:16:00 | 00:00:00 | 00:00:00 | |
| DM0DOS-11 | 2026-09-05 02:38:07 | 51.82026 | 8.96450 | 104° | 88km/h | 3261m | -2.6m/s | 0.1°C | 19.4% | 686hPa | 2.7V | 07:16:43 | 03:19:07 | 00:00:00 | |
| BIOWL1-15 | 2026-09-05 02:38:06 | 51.82015 | 8.96519 | 105° | 88km/h | 3256m | -2.7m/s | 0.1°C | 22.1% | 686.4hPa | 2.6V | 07:16:56 | 03:19:09 | 00:00:00 | |
| HSKMA3-T | 2026-09-05 02:38:05 | 51.82009 | 8.96553 | 106° | 86km/h | 3253m | -2.7m/s | 0.2°C | 22.1% | 686.6hPa | 2.7V | 07:16:56 | 03:19:10 | 00:00:00 | |
| DO2JMG | 2026-09-05 02:38:03 | 51.82020 | 8.96484 | 106° | 86km/h | 3259m | -2.6m/s | 0.1°C | 22.1% | 686hPa | 2.6V | 07:16:56 | 03:19:08 | 00:00:00 | |
| DM0DOS-11 | 2026-09-05 02:38:02 | 51.82054 | 8.96280 | 104° | 88km/h | 3274m | -2.8m/s | 0.1°C | 19.1% | 684.8hPa | 2.6V | 07:16:48 | 03:19:02 | 00:00:00 | |
| DL8OAI-8 | 2026-09-05 02:37:58 | 51.82043 | 8.96348 | 106° | 86km/h | 3269m | -2.7m/s | 0.1°C | 18.9% | 685.3hPa | 2.7V | 00:00:00 | 00:00:00 | 00:00:00 | |
| DM0DOS-11 | 2026-09-05 02:37:57 | 51.82081 | 8.96107 | 103° | 88km/h | 3287m | -2.6m/s | -0°C | 19.6% | 683.7hPa | 2.7V | 07:16:53 | 03:18:57 | 00:00:00 | |
| DL1XH-west | 2026-09-05 02:37:54 | 51.82070 | 8.96176 | 104° | 88km/h | 3282m | -2.5m/s | 0°C | 22.3% | 684.1hPa | 2.7V | 07:18:38 | 03:18:59 | 00:00:00 | |
| DO2JMG | 2026-09-05 02:37:52 | 51.82081 | 8.96107 | 104° | 88km/h | 3287m | -2.6m/s | -0°C | 22.3% | 683.7hPa | 2.7V | 07:16:56 | 03:18:57 | 00:00:00 | |
| BUE01 | 2026-09-05 02:37:52 | 51.82087 | 8.96073 | 103° | 86km/h | 3290m | -2.7m/s | -0.0°C | 19.5% | 683.4hPa | 2.7V | 00:00:00 | 00:00:00 | 00:00:00 | |
| DL3AQ-11 | 2026-09-05 02:37:46 | 51.82119 | 8.95867 | 103° | 86km/h | 3306m | -2.5m/s | -0.1°C | 19.6% | 682.1hPa | 2.7V | 00:00:00 | 00:00:00 | 00:00:00 | |
| HSKMA3-T | 2026-09-05 02:37:43 | 51.82129 | 8.95798 | 104° | 88km/h | 3311m | -2.9m/s | -0.2°C | 23.9% | 681.6hPa | 2.7V | 07:17:47 | 03:18:48 | 00:00:00 | |
| DM0DOS-11 | 2026-09-05 02:37:42 | 51.82135 | 8.95763 | 103° | 86km/h | 3314m | -2.7m/s | -0.2°C | 21% | 681.4hPa | 2.6V | 07:17:03 | 03:18:47 | 00:00:00 | |
| DO2JMG | 2026-09-05 02:37:41 | 51.82140 | 8.95729 | 104° | 88km/h | 3317m | -2.7m/s | -0.2°C | 24% | 681.1hPa | 2.6V | 07:17:47 | 03:18:46 | 00:00:00 | |
| BIOWL1-15 | 2026-09-05 02:37:33 | 51.82181 | 8.95453 | 103° | 86km/h | 3339m | -2.6m/s | -0.3°C | 23.7% | 679.3hPa | 2.7V | 07:17:47 | 03:18:38 | 00:00:00 | |
| DM0DOS-11 | 2026-09-05 02:37:32 | 51.82186 | 8.95419 | 102° | 86km/h | 3342m | -2.7m/s | -0.3°C | 20.7% | 679hPa | 2.7V | 07:17:13 | 03:18:37 | 00:00:00 | |
| DM0DOS-11 | 2026-09-05 02:37:32 | 51.82210 | 8.95247 | 102° | 86km/h | 3355m | -2.5m/s | -0.4°C | 20.4% | 677.9hPa | 2.6V | 07:17:18 | 03:18:32 | 00:00:00 | |
| HSKMA3-T | 2026-09-05 02:37:32 | 51.82186 | 8.95419 | 103° | 86km/h | 3342m | -2.7m/s | -0.4°C | 23.6% | 679hPa | 2.7V | 07:17:47 | 03:18:37 | 00:00:00 | |
| DO2JMG | 2026-09-05 02:37:30 | 51.82196 | 8.95350 | 103° | 86km/h | 3347m | -2.7m/s | -0.4°C | 23.4% | 678.7hPa | 2.7V | 07:17:47 | 03:18:35 | 00:00:00 | |
| DO3DL | 2026-09-05 02:37:29 | 51.82201 | 8.95316 | 104° | 86km/h | 3350m | -2.6m/s | -0.4°C | 20.2% | 678.3hPa | 2.7V | 07:17:00 | 00:00:00 | 00:00:00 | |
| DL3OBA | 2026-09-05 02:37:28 | 51.82201 | 8.95316 | 104° | 86km/h | 3350m | -2.6m/s | -0.4°C | 20.2% | 678.3hPa | 2.7V | 07:17:00 | 00:00:00 | 00:00:00 | |
| DM0DOS-11 | 2026-09-05 02:37:27 | 51.82233 | 8.95076 | 101° | 86km/h | 3368m | -2.8m/s | -0.5°C | 20.2% | 676.7hPa | 2.7V | 07:17:23 | 03:18:27 | 00:00:00 | |
| DB0DAN | 2026-09-05 02:37:25 | 51.82219 | 8.95179 | 102° | 82km/h | 3360m | -2.9m/s | -0.5°C | 20% | 677.54hPa | 2.7V | 00:00:00 | 00:00:00 | 00:00:00 | |
| DM0DOS-11 | 2026-09-05 02:37:22 | 51.82256 | 8.94904 | 101° | 86km/h | 3383m | -2.8m/s | -0.6°C | 20.1% | 675.5hPa | 2.7V | 07:17:28 | 03:18:22 | 00:00:00 | |
| BIOWL1-15 | 2026-09-05 02:37:22 | 51.82233 | 8.95076 | 102° | 86km/h | 3368m | -2.8m/s | -0.5°C | 23.1% | 676.7hPa | 2.7V | 07:17:47 | 03:18:27 | 00:00:00 | |
| DO2JMG | 2026-09-05 02:37:19 | 51.82247 | 8.94973 | 102° | 86km/h | 3377m | -2.8m/s | -0.6°C | 23% | 676hPa | 2.7V | 07:17:47 | 03:18:24 | 00:00:00 | |
| DM0DOS-11 | 2026-09-05 02:37:17 | 51.82278 | 8.94732 | 102° | 86km/h | 3396m | -2.8m/s | -0.7°C | 20.3% | 674.3hPa | 2.7V | 07:17:33 | 03:18:17 | 00:00:00 | |
| DO3DL | 2026-09-05 02:37:15 | 51.82260 | 8.94869 | 103° | 86km/h | 3386m | -2.9m/s | -0.6°C | 19.9% | 675.4hPa | 2.6V | 07:17:00 | 00:00:00 | 00:00:00 | |
| DM0DOS-11 | 2026-09-05 02:37:12 | 51.82302 | 8.94560 | 102° | 86km/h | 3410m | -2.7m/s | -0.8°C | 20.4% | 673hPa | 2.6V | 07:17:38 | 03:18:12 | 00:00:00 | |
| BIOWL1-15 | 2026-09-05 02:37:11 | 51.82283 | 8.94698 | 102° | 86km/h | 3399m | -2.6m/s | -0.7°C | 23.3% | 674hPa | 2.7V | 07:17:47 | 03:18:16 | 00:00:00 | |
| DB0DAN | 2026-09-05 02:37:10 | 51.82288 | 8.94663 | 102° | 82km/h | 3402m | -3.1m/s | -0.7°C | 20.2% | 673.89hPa | 2.7V | 00:00:00 | 00:00:00 | 00:00:00 | |
| DO2JMG | 2026-09-05 02:37:08 | 51.82297 | 8.94594 | 103° | 86km/h | 3408m | -2.9m/s | -0.8°C | 23% | 673.5hPa | 2.7V | 07:17:47 | 03:18:13 | 00:00:00 | |
| BIOWL1-15 | 2026-09-05 02:37:01 | 51.82332 | 8.94352 | 103° | 88km/h | 3427m | -3m/s | -0.9°C | 22.7% | 671.7hPa | 2.7V | 07:17:47 | 03:18:06 | 00:00:00 | |
| DO2JMG | 2026-09-05 02:36:58 | 51.82346 | 8.94247 | 103° | 88km/h | 3436m | -2.9m/s | -0.9°C | 22.6% | 671hPa | 2.7V | 07:17:47 | 03:18:03 | 00:00:00 | |
| DC4HF-4 | 2026-09-05 02:36:57 | 51.82351 | 8.94212 | 102° | 88km/h | 3439m | -3.1m/s | -1.0°C | 19.6% | 670.7hPa | 2.7V | 00:00:00 | 00:00:00 | 00:00:00 | |
| DB0DAN | 2026-09-05 02:36:55 | 51.82360 | 8.94143 | 102° | 84km/h | 3445m | -3.1m/s | -1°C | 19.9% | 670.16hPa | 2.7V | 00:00:00 | 00:00:00 | 00:00:00 | |
| HSKMA3-T | 2026-09-05 02:36:50 | 51.82384 | 8.93969 | 103° | 88km/h | 3460m | -2.9m/s | -1.1°C | 23% | 669hPa | 2.7V | 07:18:38 | 03:17:55 | 00:00:00 | |
| BIOWL1-15 | 2026-09-05 02:36:48 | 51.82393 | 8.93899 | 102° | 88km/h | 3466m | -3m/s | -1.1°C | 23% | 668.4hPa | 2.7V | 07:18:38 | 03:17:53 | 00:00:00 | |
| DM0DOS-11 | 2026-09-05 02:36:47 | 51.82421 | 8.93691 | 102° | 86km/h | 3483m | -3.1m/s | -1.3°C | 20.1% | 667hPa | 2.7V | 07:18:03 | 03:17:47 | 00:00:00 | |
| DO2JMG | 2026-09-05 02:36:47 | 51.82398 | 8.93864 | 103° | 88km/h | 3469m | -2.9m/s | -1.2°C | 23% | 668.3hPa | 2.7V | 07:18:38 | 03:17:52 | 00:00:00 | |
| DL4XJ-10 | 2026-09-05 02:36:46 | 51.82403 | 8.93830 | 103° | 88km/h | 3471m | -2.8m/s | -1.2°C | 0% | 0hPa | 2.7V | 00:00:00 | 00:00:00 | 00:00:00 | |
| DO3DL | 2026-09-05 02:36:44 | 51.82407 | 8.93795 | 103° | 88km/h | 3474m | -2.8m/s | -1.2°C | 19.8% | 667.8hPa | 2.7V | 07:18:00 | 00:00:00 | 00:00:00 | |
| DM0DOS-11 | 2026-09-05 02:36:42 | 51.82444 | 8.93518 | 102° | 88km/h | 3498m | -2.7m/s | -1.4°C | 19.8% | 665.8hPa | 2.7V | 07:18:08 | 03:17:42 | 00:00:00 | |
| DL1XH-west | 2026-09-05 02:36:42 | 51.82421 | 8.93691 | 102° | 86km/h | 3483m | -3.1m/s | -1.3°C | 22.9% | 667hPa | 2.7V | 07:18:38 | 03:17:47 | 00:00:00 | |
| DB0DAN | 2026-09-05 02:36:40 | 51.82430 | 8.93622 | 102° | 82km/h | 3489m | -2.8m/s | -1.3°C | 19.7% | 666.56hPa | 2.7V | 00:00:00 | 00:00:00 | 00:00:00 | |
| HSKMA3-T | 2026-09-05 02:36:39 | 51.82435 | 8.93587 | 102° | 88km/h | 3492m | -3.2m/s | -1.3°C | 22.8% | 666.3hPa | 2.6V | 07:18:38 | 03:17:44 | 00:00:00 | |
| DM0DOS-11 | 2026-09-05 02:36:37 | 51.82467 | 8.93343 | 101° | 88km/h | 3513m | -3.1m/s | -1.4°C | 19.5% | 664.5hPa | 2.6V | 07:18:13 | 03:17:37 | 00:00:00 | |
| BIOWL1-15 | 2026-09-05 02:36:37 | 51.82444 | 8.93518 | 103° | 88km/h | 3498m | -2.7m/s | -1.4°C | 22.6% | 665.8hPa | 2.7V | 07:18:38 | 03:17:42 | 00:00:00 | |
| DO2JMG | 2026-09-05 02:36:36 | 51.82449 | 8.93483 | 102° | 88km/h | 3501m | -3.1m/s | -1.4°C | 22.6% | 665.5hPa | 2.7V | 07:18:38 | 03:17:41 | 00:00:00 | |
| BIOWL7-15 | 2026-09-05 02:36:35 | 51.82449 | 8.93483 | 103° | 88km/h | 3501m | -3.1m/s | -1.4°C | 19.5% | 665.5hPa | 2.7V | 00:00:00 | 00:00:00 | 00:00:00 | |
| BIOWL9-15 | 2026-09-05 02:36:33 | 51.82467 | 8.93343 | 101° | 86km/h | 3512m | -3.1m/s | -1.4°C | 19.2% | 664.5hPa | 2.7V | 00:00:00 | 00:00:00 | 00:00:00 | |
| DM0DOS-11 | 2026-09-05 02:36:32 | 51.82490 | 8.93170 | 101° | 86km/h | 3527m | -2.9m/s | -1.5°C | 19.5% | 663.3hPa | 2.7V | 07:18:18 | 03:17:32 | 00:00:00 | |
| DL1XH-west | 2026-09-05 02:36:32 | 51.82467 | 8.93343 | 102° | 88km/h | 3513m | -3.1m/s | -1.4°C | 22.3% | 664.5hPa | 2.6V | 07:18:38 | 03:17:37 | 00:00:00 | |
| HSKMA3-T | 2026-09-05 02:36:28 | 51.82485 | 8.93205 | 102° | 86km/h | 3525m | -3m/s | -1.5°C | 22.2% | 663.6hPa | 2.7V | 07:18:38 | 03:17:33 | 00:00:00 | |
| DO2JMG | 2026-09-05 02:36:26 | 51.82494 | 8.93136 | 102° | 86km/h | 3530m | -2.9m/s | -1.5°C | 22.4% | 663hPa | 2.7V | 07:18:38 | 03:17:31 | 00:00:00 | |
| DB0DAN | 2026-09-05 02:36:25 | 51.82498 | 8.93102 | 102° | 82km/h | 3533m | -3.2m/s | -1.6°C | 19.3% | 662.76hPa | 2.6V | 00:00:00 | 00:00:00 | 00:00:00 | |
| DL1XH-west | 2026-09-05 02:36:21 | 51.82515 | 8.92965 | 102° | 86km/h | 3545m | -3.3m/s | -1.6°C | 22.6% | 661.8hPa | 2.7V | 07:18:38 | 03:17:26 | 00:00:00 | |
| HSKMA3-T | 2026-09-05 02:36:18 | 51.82528 | 8.92863 | 102° | 84km/h | 3555m | -2.9m/s | -1.7°C | 22.6% | 661hPa | 2.6V | 07:18:38 | 03:17:23 | 00:00:00 | |
| DM0DOS-11 | 2026-09-05 02:36:17 | 51.82533 | 8.92829 | 101° | 84km/h | 3557m | -2.9m/s | -1.7°C | 19.8% | 660.8hPa | 2.6V | 07:18:28 | 03:17:22 | 00:00:00 | |
| BIOWL1-15 | 2026-09-05 02:36:16 | 51.82537 | 8.92796 | 102° | 84km/h | 3560m | -3m/s | -1.7°C | 22.7% | 660.6hPa | 2.7V | 07:18:38 | 03:17:21 | 00:00:00 | |
| DO2JMG | 2026-09-05 02:36:15 | 51.82542 | 8.92762 | 102° | 84km/h | 3563m | -3.5m/s | -1.8°C | 22.6% | 660.3hPa | 2.7V | 07:18:38 | 03:17:20 | 00:00:00 | |
| BIOWL7-15 | 2026-09-05 02:36:14 | 51.82542 | 8.92762 | 103° | 84km/h | 3563m | -3.5m/s | -1.8°C | 19.5% | 660.3hPa | 2.7V | 00:00:00 | 00:00:00 | 00:00:00 | |
| DL3AQ-11 | 2026-09-05 02:36:13 | 51.82554 | 8.92661 | 100° | 82km/h | 3573m | -3.2m/s | -1.8°C | 19.5% | 659.5hPa | 2.7V | 00:00:00 | 00:00:00 | 00:00:00 | |
| DM0DOS-11 | 2026-09-05 02:36:12 | 51.82574 | 8.92495 | 100° | 82km/h | 3588m | -2.9m/s | -1.9°C | 19.8% | 658.3hPa | 2.7V | 07:18:38 | 03:17:12 | 00:00:00 | |
| DL1XH-west | 2026-09-05 02:36:11 | 51.82558 | 8.92628 | 101° | 82km/h | 3576m | -3m/s | -1.8°C | 22.6% | 659.2hPa | 2.6V | 07:18:38 | 03:17:16 | 00:00:00 | |
| DO3DL | 2026-09-05 02:36:10 | 51.82558 | 8.92628 | 102° | 82km/h | 3576m | -3.0m/s | -1.8°C | 19.5% | 659.2hPa | 2.7V | 07:18:00 | 00:00:00 | 00:00:00 | |
| DF2AP-13 | 2026-09-05 02:36:09 | 51.82566 | 8.92561 | 101° | 84km/h | 3582m | -3.0m/s | -1.8°C | 19.9% | 658.7hPa | 2.7V | 00:00:00 | 03:17:14 | 00:00:00 | |
| DB0UT-7 | 2026-09-05 02:36:08 | 51.82570 | 8.92528 | 101° | 84km/h | 3585m | -3.0m/s | -1.9°C | 19.9% | 658.5hPa | 2.7V | 00:00:00 | 03:17:13 | 00:00:00 | |
| DM0DOS-11 | 2026-09-05 02:36:07 | 51.82594 | 8.92327 | 101° | 84km/h | 3603m | -3.1m/s | -2°C | 20.2% | 656.9hPa | 2.7V | 07:18:43 | 03:17:07 | 00:00:00 | |
| HSKMA3-T | 2026-09-05 02:36:07 | 51.82574 | 8.92495 | 101° | 82km/h | 3588m | -2.9m/s | -1.9°C | 22.6% | 658.3hPa | 2.7V | 07:18:38 | 03:17:12 | 00:00:00 | |
| BIOWL1-15 | 2026-09-05 02:36:05 | 51.82582 | 8.92428 | 102° | 84km/h | 3594m | -3.1m/s | -2°C | 22.9% | 657.8hPa | 2.7V | 07:21:11 | 03:17:10 | 00:00:00 | |
| DO3DL | 2026-09-05 02:36:03 | 51.82586 | 8.92395 | 102° | 84km/h | 3597m | -3.1m/s | -2.0°C | 20.1% | 657.5hPa | 2.6V | 00:00:00 | 00:00:00 | 00:00:00 | |
| DM0DOS-11 | 2026-09-05 02:36:02 | 51.82616 | 8.92160 | 101° | 84km/h | 3618m | -3.2m/s | -2.1°C | 19.8% | 655.8hPa | 2.6V | 07:18:48 | 03:17:02 | 00:00:00 | |
| DL1XH-west | 2026-09-05 02:36:01 | 51.82598 | 8.92294 | 101° | 84km/h | 3607m | -3.1m/s | -2°C | 23.1% | 656.8hPa | 2.7V | 07:19:29 | 03:17:06 | 00:00:00 | |
| SONCRA | 2026-09-05 02:35:58 | 51.82616 | 8.92160 | 101° | 84km/h | 3618m | -3.2m/s | -2.1°C | 19.5% | 655.8hPa | 2.7V | 00:00:00 | 00:00:00 | 00:00:00 | |
| DM0DOS-11 | 2026-09-05 02:35:57 | 51.82638 | 8.91990 | 102° | 84km/h | 3634m | -2.9m/s | -2.1°C | 18.9% | 654.6hPa | 2.7V | 07:18:53 | 03:16:57 | 00:00:00 | |
| HSKMA3-T | 2026-09-05 02:35:57 | 51.82616 | 8.92160 | 102° | 84km/h | 3619m | -3.2m/s | -2.1°C | 22.6% | 655.8hPa | 2.6V | 07:19:29 | 03:17:02 | 00:00:00 | |
| BIOWL1-15 | 2026-09-05 02:35:54 | 51.82629 | 8.92058 | 102° | 86km/h | 3627m | -3.1m/s | -2.1°C | 21.7% | 654.9hPa | 2.7V | 07:21:11 | 03:16:59 | 00:00:00 | |
| DL1XH-west | 2026-09-05 02:35:50 | 51.82647 | 8.91923 | 102° | 84km/h | 3640m | -2.9m/s | -2.2°C | 21.5% | 654hPa | 2.6V | 07:19:29 | 03:16:55 | 00:00:00 | |
| DD1CC8 | 2026-09-05 02:35:48 | 51.82661 | 8.91821 | 102° | 84km/h | 3648m | -3.1m/s | -2.2°C | 18.4% | 653.3hPa | 2.7V | 00:00:00 | 00:00:00 | 00:00:00 | |
| DM0DOS-11 | 2026-09-05 02:35:47 | 51.82661 | 8.91821 | 102° | 86km/h | 3648m | -3.1m/s | -2.2°C | 18.8% | 653.2hPa | 2.7V | 07:18:58 | 03:16:52 | 00:00:00 | |
| DM0DOS-11 | 2026-09-05 02:35:47 | 51.82684 | 8.91650 | 101° | 86km/h | 3664m | -3.2m/s | -2.3°C | 18.6% | 652hPa | 2.7V | 07:19:03 | 03:16:47 | 00:00:00 | |
| HSKMA3-T | 2026-09-05 02:35:46 | 51.82665 | 8.91787 | 102° | 84km/h | 3652m | -3m/s | -2.2°C | 21.5% | 653.2hPa | 2.7V | 07:19:29 | 03:16:51 | 00:00:00 | |
| DC4HF-4 | 2026-09-05 02:35:45 | 51.82670 | 8.91753 | 102° | 84km/h | 3655m | -3.2m/s | -2.3°C | 18.5% | 652.8hPa | 2.6V | 00:00:00 | 00:00:00 | 00:00:00 | |
| DO2JMG | 2026-09-05 02:35:44 | 51.82674 | 8.91719 | 102° | 86km/h | 3658m | -3.1m/s | -2.3°C | 21.4% | 652.6hPa | 2.6V | 07:19:29 | 03:16:49 | 00:00:00 | |
| DO3DL | 2026-09-05 02:35:43 | 51.82674 | 8.91719 | 103° | 86km/h | 3658m | -3.1m/s | -2.3°C | 18.4% | 652.6hPa | 2.7V | 00:00:00 | 00:00:00 | 00:00:00 | |
| DL1CLM-18 | 2026-09-05 02:35:42 | 51.82679 | 8.91684 | 103° | 86km/h | 3661m | -3.0m/s | -2.3°C | 18.3% | 652.2hPa | 2.7V | 00:00:00 | 00:00:00 | 00:00:00 | |
| DB0DAN | 2026-09-05 02:35:40 | 51.82692 | 8.91582 | 102° | 82km/h | 3669m | -3m/s | -2.4°C | 18.4% | 651.53hPa | 2.7V | 00:00:00 | 00:00:00 | 00:00:00 | |
| DL1XH-west | 2026-09-05 02:35:40 | 51.82692 | 8.91582 | 102° | 86km/h | 3670m | -3m/s | -2.4°C | 21.4% | 651.5hPa | 2.7V | 07:19:29 | 03:16:45 | 00:00:00 | |
| DM0DOS-11 | 2026-09-05 02:35:37 | 51.82706 | 8.91479 | 102° | 86km/h | 3678m | -2.8m/s | -2.4°C | 19% | 650.7hPa | 2.6V | 07:19:08 | 03:16:42 | 00:00:00 | |
| DM0DOS-11 | 2026-09-05 02:35:37 | 51.82729 | 8.91310 | 102° | 84km/h | 3693m | -3.2m/s | -2.6°C | 19.2% | 649.7hPa | 2.7V | 07:19:13 | 03:16:37 | 00:00:00 | |
| HSKMA3-T | 2026-09-05 02:35:35 | 51.82715 | 8.91411 | 103° | 84km/h | 3684m | -3m/s | -2.5°C | 21.8% | 650.3hPa | 2.7V | 07:19:29 | 03:16:40 | 00:00:00 | |
| BIOWL1-15 | 2026-09-05 02:35:33 | 51.82725 | 8.91344 | 103° | 84km/h | 3690m | -3m/s | -2.5°C | 21.9% | 649.8hPa | 2.7V | 07:21:11 | 03:16:38 | 00:00:00 | |
| DL1XH-west | 2026-09-05 02:35:29 | 51.82744 | 8.91208 | 103° | 84km/h | 3702m | -3.1m/s | -2.6°C | 22.1% | 648.9hPa | 2.7V | 07:19:29 | 03:16:34 | 00:00:00 | |
| DD1CC3-15 | 2026-09-05 02:35:27 | 51.82748 | 8.91175 | 104° | 84km/h | 3705m | -3.1m/s | -2.7°C | 19.0% | 648.5hPa | 2.6V | 07:19:00 | 00:00:00 | 00:00:00 | |
| DB0DAN | 2026-09-05 02:35:25 | 51.82763 | 8.91073 | 103° | 80km/h | 3715m | -3m/s | -2.7°C | 19% | 647.77hPa | 2.6V | 00:00:00 | 00:00:00 | 00:00:00 | |
| HSKMA3-T | 2026-09-05 02:35:25 | 51.82763 | 8.91073 | 103° | 86km/h | 3715m | -3m/s | -2.7°C | 22.2% | 647.8hPa | 2.6V | 07:19:29 | 03:16:30 | 00:00:00 | |
| DO2JMG | 2026-09-05 02:35:23 | 51.82772 | 8.91005 | 103° | 86km/h | 3721m | -3.3m/s | -2.8°C | 22.3% | 647.3hPa | 2.7V | 07:19:29 | 03:16:28 | 00:00:00 | |
| DL1XH-west | 2026-09-05 02:35:18 | 51.82796 | 8.90834 | 103° | 86km/h | 3736m | -2.9m/s | -2.9°C | 22.2% | 646hPa | 2.6V | 07:19:29 | 03:16:23 | 00:00:00 | |
| DM0DOS-11 | 2026-09-05 02:35:17 | 51.82827 | 8.90630 | 104° | 86km/h | 3755m | -3.1m/s | -3°C | 19.4% | 644.6hPa | 2.6V | 07:19:33 | 03:16:17 | 00:00:00 | |
| HSKMA3-T | 2026-09-05 02:35:14 | 51.82816 | 8.90698 | 104° | 86km/h | 3748m | -3.1m/s | -3°C | 22.2% | 645hPa | 2.7V | 07:20:20 | 03:16:19 | 00:00:00 | |
| DO2JMG | 2026-09-05 02:35:12 | 51.82827 | 8.90630 | 104° | 86km/h | 3755m | -3.1m/s | -3°C | 22.2% | 644.6hPa | 2.6V | 07:20:20 | 03:16:17 | 00:00:00 | |
| DB0DAN | 2026-09-05 02:35:10 | 51.82838 | 8.90562 | 104° | 82km/h | 3761m | -3.2m/s | -3.1°C | 19% | 644.07hPa | 2.7V | 00:00:00 | 00:00:00 | 00:00:00 | |
| DL1XH-west | 2026-09-05 02:35:08 | 51.82848 | 8.90494 | 104° | 86km/h | 3767m | -3m/s | -3.1°C | 21.9% | 643.6hPa | 2.7V | 07:20:20 | 03:16:13 | 00:00:00 | |
| DM0DOS-11 | 2026-09-05 02:35:07 | 51.82853 | 8.90460 | 103° | 86km/h | 3770m | -3m/s | -3.1°C | 19.1% | 643.3hPa | 2.7V | 07:19:38 | 03:16:12 | 00:00:00 | |
| DM0DOS-11 | 2026-09-05 02:35:07 | 51.82880 | 8.90289 | 104° | 88km/h | 3785m | -3.1m/s | -3.2°C | 18.5% | 642.1hPa | 2.7V | 07:19:43 | 03:16:07 | 00:00:00 | |
| BIOWL1-15 | 2026-09-05 02:35:07 | 51.82853 | 8.90460 | 104° | 86km/h | 3770m | -3m/s | -3.1°C | 21.9% | 643.3hPa | 2.7V | 07:21:11 | 03:16:12 | 00:00:00 | |
| HSKMA3-T | 2026-09-05 02:35:03 | 51.82875 | 8.90323 | 104° | 88km/h | 3782m | -3.2m/s | -3.2°C | 21.3% | 642.3hPa | 2.7V | 07:20:20 | 03:16:08 | 00:00:00 | |
| DO2JMG | 2026-09-05 02:35:02 | 51.82880 | 8.90289 | 104° | 88km/h | 3785m | -3.1m/s | -3.2°C | 21.2% | 642.1hPa | 2.7V | 07:20:20 | 03:16:07 | 00:00:00 | |
| DD1CC1-15 | 2026-09-05 02:35:00 | 51.82891 | 8.90219 | 105° | 86km/h | 3791m | -3.0m/s | -3.3°C | 18.4% | 641.6hPa | 2.6V | 07:20:00 | 00:00:00 | 00:00:00 | |
| DF2AP-13 | 2026-09-05 02:34:59 | 51.82896 | 8.90185 | 105° | 86km/h | 3794m | -3.0m/s | -3.3°C | 18.8% | 641.4hPa | 2.6V | 00:00:00 | 03:16:04 | 00:00:00 | |
| DM0DOS-11 | 2026-09-05 02:34:57 | 51.82935 | 8.89946 | 104° | 86km/h | 3815m | -3.3m/s | -3.5°C | 18.6% | 639.7hPa | 2.6V | 07:19:53 | 03:15:57 | 00:00:00 | |
| DL1XH-west | 2026-09-05 02:34:56 | 51.82913 | 8.90082 | 105° | 86km/h | 3803m | -2.9m/s | -3.4°C | 21.7% | 640.6hPa | 2.7V | 07:20:20 | 03:16:01 | 00:00:00 | |
| DB0DAN | 2026-09-05 02:34:55 | 51.82918 | 8.90048 | 104° | 82km/h | 3806m | -3.1m/s | -3.4°C | 18.6% | 640.39hPa | 2.7V | 00:00:00 | 00:00:00 | 00:00:00 | |
| HSKMA3-T | 2026-09-05 02:34:53 | 51.82929 | 8.89980 | 105° | 86km/h | 3812m | -3.1m/s | -3.5°C | 21.6% | 640hPa | 2.7V | 07:20:20 | 03:15:58 | 00:00:00 | |
| DL3AQ-11 | 2026-09-05 02:34:53 | 51.82935 | 8.89946 | 104° | 86km/h | 3815m | -3.3m/s | -3.5°C | 18.2% | 639.7hPa | 2.7V | 00:00:00 | 00:00:00 | 00:00:00 | |
| DM0DOS-11 | 2026-09-05 02:34:52 | 51.82962 | 8.89776 | 104° | 86km/h | 3830m | -2.9m/s | -3.6°C | 17.9% | 638.4hPa | 2.7V | 07:19:58 | 03:15:52 | 00:00:00 | |
| DO2JMG | 2026-09-05 02:34:51 | 51.82940 | 8.89912 | 105° | 86km/h | 3819m | -3.2m/s | -3.5°C | 20.9% | 639.4hPa | 2.6V | 07:20:20 | 03:15:56 | 00:00:00 | |
| BIOWL1-15 | 2026-09-05 02:34:48 | 51.82968 | 8.89742 | 105° | 88km/h | 3833m | -3m/s | -3.6°C | 20.5% | 638.2hPa | 2.6V | 07:21:11 | 03:15:51 | 00:00:00 | |
| DM0DOS-11 | 2026-09-05 02:34:47 | 51.82990 | 8.89605 | 104° | 86km/h | 3845m | -3.1m/s | -3.7°C | 18% | 637.1hPa | 2.7V | 07:20:03 | 03:15:47 | 00:00:00 | |
| DL1XH-west | 2026-09-05 02:34:45 | 51.82974 | 8.89707 | 105° | 86km/h | 3836m | -3.1m/s | -3.6°C | 20.5% | 638hPa | 2.6V | 07:20:20 | 03:15:50 | 00:00:00 | |
| DO3DL | 2026-09-05 02:34:44 | 51.82979 | 8.89673 | 106° | 86km/h | 3840m | -3.0m/s | -3.6°C | 17.5% | 637.7hPa | 2.7V | 07:20:00 | 00:00:00 | 00:00:00 | |
| DL3OBA | 2026-09-05 02:34:43 | 51.82979 | 8.89673 | 106° | 86km/h | 3840m | -3.0m/s | -3.6°C | 17.5% | 637.7hPa | 2.7V | 07:20:00 | 00:00:00 | 00:00:00 | |
| DM0DOS-11 | 2026-09-05 02:34:42 | 51.83017 | 8.89434 | 104° | 86km/h | 3860m | -3.1m/s | -3.8°C | 18.2% | 636hPa | 2.7V | 07:20:08 | 03:15:42 | 00:00:00 | |
| HSKMA3-T | 2026-09-05 02:34:42 | 51.82990 | 8.89605 | 104° | 86km/h | 3845m | -3.1m/s | -3.7°C | 20.6% | 637.2hPa | 2.7V | 07:20:20 | 03:15:47 | 00:00:00 | |
| DO2JMG | 2026-09-05 02:34:41 | 51.82996 | 8.89571 | 105° | 88km/h | 3848m | -3m/s | -3.7°C | 20.6% | 637hPa | 2.7V | 07:20:20 | 03:15:46 | 00:00:00 | |
| DB0DAN | 2026-09-05 02:34:40 | 51.83001 | 8.89536 | 104° | 82km/h | 3851m | -3.2m/s | -3.8°C | 17.8% | 636.73hPa | 2.7V | 00:00:00 | 00:00:00 | 00:00:00 | |
| DB0UT-7 | 2026-09-05 02:34:38 | 51.83012 | 8.89468 | 105° | 86km/h | 3858m | -2.9m/s | -3.8°C | 18.1% | 636.3hPa | 2.6V | 00:00:00 | 00:00:00 | 00:00:00 | |
| DM0DOS-11 | 2026-09-05 02:34:37 | 51.83045 | 8.89264 | 105° | 86km/h | 3876m | -3.1m/s | -4°C | 18.2% | 634.8hPa | 2.6V | 07:20:13 | 03:15:37 | 00:00:00 | |
| BIOWL1-15 | 2026-09-05 02:34:36 | 51.83034 | 8.89332 | 105° | 86km/h | 3870m | -3.1m/s | -3.9°C | 20.8% | 635.3hPa | 2.7V | 07:21:11 | 03:15:39 | 00:00:00 | |
| DL1XH-west | 2026-09-05 02:34:35 | 51.83028 | 8.89366 | 105° | 86km/h | 3866m | -3.2m/s | -3.9°C | 20.8% | 635.5hPa | 2.7V | 07:20:20 | 03:15:40 | 00:00:00 | |
| HSKMA3-T | 2026-09-05 02:34:31 | 51.83051 | 8.89230 | 106° | 86km/h | 3879m | -3.2m/s | -4°C | 20.9% | 634.5hPa | 2.7V | 07:20:20 | 03:15:36 | 00:00:00 | |
| DO2JMG | 2026-09-05 02:34:30 | 51.83057 | 8.89196 | 106° | 86km/h | 3882m | -3.1m/s | -4°C | 21% | 634.3hPa | 2.7V | 07:20:20 | 03:15:35 | 00:00:00 | |
| DF2AP-13 | 2026-09-05 02:34:29 | 51.83062 | 8.89162 | 106° | 86km/h | 3885m | -3.1m/s | -4.0°C | 18.3% | 634.0hPa | 2.7V | 00:00:00 | 03:15:34 | 00:00:00 | |
| BIOWL9-15 | 2026-09-05 02:34:28 | 51.83068 | 8.89128 | 105° | 86km/h | 3888m | -3.0m/s | -4.1°C | 18.0% | 633.9hPa | 2.7V | 00:00:00 | 00:00:00 | 00:00:00 | |
| DM0DOS-11 | 2026-09-05 02:34:27 | 51.83104 | 8.88927 | 106° | 86km/h | 3906m | -3m/s | -4.2°C | 18.4% | 632.4hPa | 2.7V | 07:20:23 | 03:15:27 | 00:00:00 | |
| DB0DAN | 2026-09-05 02:34:25 | 51.83086 | 8.89027 | 106° | 82km/h | 3897m | -3.2m/s | -4.2°C | 18% | 633.1hPa | 2.7V | 00:00:00 | 00:00:00 | 00:00:00 | |
| DL1XH-west | 2026-09-05 02:34:25 | 51.83086 | 8.89027 | 106° | 86km/h | 3897m | -3.2m/s | -4.2°C | 21.1% | 633.1hPa | 2.7V | 07:20:20 | 03:15:30 | 00:00:00 | |
| BIOWL1-15 | 2026-09-05 02:34:24 | 51.83092 | 8.88994 | 106° | 86km/h | 3900m | -2.9m/s | -4.2°C | 21.1% | 632.9hPa | 2.7V | 07:21:11 | 03:15:29 | 00:00:00 | |
| DO2JMG | 2026-09-05 02:34:20 | 51.83116 | 8.88860 | 106° | 86km/h | 3912m | -3.1m/s | -4.3°C | 21% | 631.9hPa | 2.6V | 07:21:11 | 03:15:25 | 00:00:00 | |
| DM0DOS-11 | 2026-09-05 02:34:17 | 51.83135 | 8.88759 | 105° | 86km/h | 3921m | -2.9m/s | -4.4°C | 18.5% | 631.2hPa | 2.7V | 07:20:28 | 03:15:22 | 00:00:00 | |
| DM0DOS-11 | 2026-09-05 02:34:17 | 51.83164 | 8.88590 | 105° | 86km/h | 3936m | -3.1m/s | -4.5°C | 18.6% | 630hPa | 2.7V | 07:20:33 | 03:15:17 | 00:00:00 | |
| DL1XH-west | 2026-09-05 02:34:14 | 51.83153 | 8.88658 | 106° | 86km/h | 3930m | -2.9m/s | -4.5°C | 21.4% | 630.4hPa | 2.6V | 07:21:11 | 03:15:19 | 00:00:00 | |
| BIOWL1-15 | 2026-09-05 02:34:12 | 51.83164 | 8.88590 | 106° | 86km/h | 3936m | -3.1m/s | -4.5°C | 21.3% | 630hPa | 2.7V | 07:21:11 | 03:15:17 | 00:00:00 | |
| DB0DAN | 2026-09-05 02:34:10 | 51.83176 | 8.88523 | 106° | 82km/h | 3942m | -2.9m/s | -4.6°C | 18.3% | 629.48hPa | 2.7V | 00:00:00 | 00:00:00 | 00:00:00 | |
| DO2JMG | 2026-09-05 02:34:10 | 51.83176 | 8.88523 | 106° | 86km/h | 3942m | -2.9m/s | -4.6°C | 21.3% | 629.5hPa | 2.7V | 07:21:11 | 03:15:15 | 00:00:00 | |
| DB0UT-7 | 2026-09-05 02:34:08 | 51.83188 | 8.88455 | 106° | 86km/h | 3948m | -3.0m/s | -4.6°C | 18.6% | 629.1hPa | 2.6V | 00:00:00 | 03:15:13 | 00:00:00 | |
| DM0DOS-11 | 2026-09-05 02:34:07 | 51.83223 | 8.88253 | 105° | 86km/h | 3966m | -2.9m/s | -4.7°C | 18% | 627.6hPa | 2.6V | 07:20:43 | 03:15:07 | 00:00:00 | |
| DL1XH-west | 2026-09-05 02:34:03 | 51.83217 | 8.88287 | 106° | 86km/h | 3963m | -3m/s | -4.7°C | 20.6% | 627.8hPa | 2.7V | 07:21:11 | 03:15:08 | 00:00:00 | |
| BIOWL1-15 | 2026-09-05 02:34:01 | 51.83229 | 8.88220 | 105° | 86km/h | 3968m | -2.9m/s | -4.7°C | 20.3% | 627.3hPa | 2.6V | 07:21:11 | 03:15:06 | 00:00:00 | |
| HSKMA3-T | 2026-09-05 02:34:00 | 51.83234 | 8.88186 | 105° | 86km/h | 3972m | -2.9m/s | -4.8°C | 20.1% | 627.1hPa | 2.7V | 07:21:11 | 03:15:05 | 00:00:00 | |
| DO2JMG | 2026-09-05 02:33:59 | 51.83240 | 8.88152 | 105° | 86km/h | 3975m | -3.1m/s | -4.8°C | 19.9% | 626.9hPa | 2.7V | 07:21:11 | 03:15:04 | 00:00:00 | |
| DF2AP-13 | 2026-09-05 02:33:59 | 51.83240 | 8.88152 | 106° | 86km/h | 3975m | -3.0m/s | -4.7°C | 17.4% | 626.8hPa | 2.7V | 00:00:00 | 03:15:04 | 00:00:00 | |
| DO3DL | 2026-09-05 02:33:58 | 51.83246 | 8.88118 | 107° | 86km/h | 3978m | -3.0m/s | -4.8°C | 17.0% | 626.6hPa | 2.7V | 07:21:00 | 00:00:00 | 00:00:00 | |
| DM0DOS-11 | 2026-09-05 02:33:57 | 51.83281 | 8.87916 | 106° | 86km/h | 3995m | -3m/s | -4.9°C | 17.4% | 625.2hPa | 2.7V | 07:20:53 | 03:14:57 | 00:00:00 | |
| DC4HF-4 | 2026-09-05 02:33:57 | 51.83257 | 8.88051 | 105° | 84km/h | 3983m | -3.0m/s | -4.8°C | 17.0% | 626.2hPa | 2.6V | 00:00:00 | 00:00:00 | 00:00:00 | |
| DB0DAN | 2026-09-05 02:33:55 | 51.83263 | 8.88017 | 106° | 82km/h | 3986m | -3m/s | -4.9°C | 17.1% | 625.94hPa | 2.6V | 00:00:00 | 00:00:00 | 00:00:00 | |
| DL1XH-west | 2026-09-05 02:33:52 | 51.83281 | 8.87916 | 106° | 86km/h | 3996m | -3m/s | -4.9°C | 19.9% | 625.2hPa | 2.7V | 07:21:11 | 03:14:57 | 00:00:00 | |
| BIOWL1-15 | 2026-09-05 02:33:49 | 51.83299 | 8.87815 | 106° | 84km/h | 4004m | -3.1m/s | -5°C | 19.9% | 624.5hPa | 2.6V | 07:21:11 | 03:14:54 | 00:00:00 | |
| DO2JMG | 2026-09-05 02:33:48 | 51.83305 | 8.87782 | 106° | 84km/h | 4008m | -2.9m/s | -5°C | 19.9% | 624.3hPa | 2.6V | 07:21:11 | 03:14:53 | 00:00:00 | |
| DL3AQ-11 | 2026-09-05 02:33:45 | 51.83323 | 8.87683 | 106° | 84km/h | 4016m | -2.9m/s | -5.1°C | 17.0% | 623.7hPa | 2.6V | 00:00:00 | 00:00:00 | 00:00:00 | |
| DL1XH-west | 2026-09-05 02:33:42 | 51.83342 | 8.87583 | 107° | 84km/h | 4025m | -3m/s | -5.2°C | 19.9% | 622.9hPa | 2.6V | 07:21:11 | 03:14:47 | 00:00:00 | |
| DB0DAN | 2026-09-05 02:33:40 | 51.83355 | 8.87517 | 107° | 80km/h | 4031m | -3m/s | -5.2°C | 17% | 622.44hPa | 2.7V | 00:00:00 | 00:00:00 | 00:00:00 | |
| HSKMA3-T | 2026-09-05 02:33:39 | 51.83361 | 8.87484 | 107° | 86km/h | 4034m | -2.8m/s | -5.3°C | 19.9% | 622.2hPa | 2.7V | 07:21:11 | 03:14:44 | 00:00:00 | |
| DO2JMG | 2026-09-05 02:33:38 | 51.83367 | 8.87451 | 107° | 84km/h | 4037m | -2.8m/s | -5.3°C | 19.9% | 621.9hPa | 2.7V | 07:21:11 | 03:14:43 | 00:00:00 | |
| DM0DOS-11 | 2026-09-05 02:33:37 | 51.83373 | 8.87418 | 106° | 86km/h | 4040m | -3m/s | -5.3°C | 17.4% | 621.6hPa | 2.6V | 07:21:08 | 03:14:42 | 00:00:00 | |
| DL4BBY-15 | 2026-09-05 02:33:36 | 51.83380 | 8.87384 | 108° | 84km/h | 4043m | -3.0m/s | -5.3°C | 0% | 0hPa | 2.7V | 00:00:00 | 00:00:00 | 00:00:00 | |
| DL1CLM-18 | 2026-09-05 02:33:34 | 51.83386 | 8.87351 | 108° | 86km/h | 4046m | -3.2m/s | -5.3°C | 16.8% | 621.3hPa | 2.7V | 00:00:00 | 00:00:00 | 00:00:00 | |
| DL3AQ-11 | 2026-09-05 02:33:33 | 51.83405 | 8.87250 | 107° | 84km/h | 4055m | -2.9m/s | -5.4°C | 16.2% | 620.5hPa | 2.7V | 00:00:00 | 00:00:00 | 00:00:00 | |
| DM0DOS-11 | 2026-09-05 02:33:32 | 51.83438 | 8.87084 | 107° | 86km/h | 4070m | -3m/s | -5.5°C | 16.8% | 619.4hPa | 2.7V | 07:21:18 | 03:14:32 | 00:00:00 | |
| DL1XH-west | 2026-09-05 02:33:32 | 51.83405 | 8.87250 | 108° | 86km/h | 4055m | -2.9m/s | -5.4°C | 18.9% | 620.5hPa | 2.7V | 07:22:02 | 03:14:37 | 00:00:00 | |
| HSKMA3-T | 2026-09-05 02:33:28 | 51.83431 | 8.87117 | 108° | 86km/h | 4067m | -3m/s | -5.5°C | 19.3% | 619.5hPa | 2.7V | 07:22:02 | 03:14:33 | 00:00:00 | |
| DM0DOS-11 | 2026-09-05 02:33:27 | 51.83471 | 8.86919 | 107° | 84km/h | 4085m | -2.8m/s | -5.6°C | 16.9% | 618.2hPa | 2.7V | 07:21:23 | 03:14:27 | 00:00:00 | |
| DO2JMG | 2026-09-05 02:33:27 | 51.83438 | 8.87084 | 108° | 86km/h | 4070m | -3m/s | -5.5°C | 19.2% | 619.4hPa | 2.7V | 07:22:02 | 03:14:32 | 00:00:00 | |
| DB0DAN | 2026-09-05 02:33:25 | 51.83451 | 8.87018 | 108° | 80km/h | 4076m | -3.1m/s | -5.5°C | 16.4% | 618.97hPa | 2.6V | 00:00:00 | 00:00:00 | 00:00:00 | |
| DO3DL | 2026-09-05 02:33:24 | 51.83451 | 8.87018 | 109° | 84km/h | 4076m | -3.1m/s | -5.5°C | 16.4% | 619.0hPa | 2.7V | 07:22:00 | 00:00:00 | 00:00:00 | |
| DD1CC3-15 | 2026-09-05 02:33:23 | 51.83458 | 8.86985 | 109° | 84km/h | 4079m | -2.7m/s | -5.5°C | 16.4% | 618.6hPa | 2.7V | 07:22:00 | 00:00:00 | 00:00:00 | |
| DM0DOS-11 | 2026-09-05 02:33:22 | 51.83503 | 8.86755 | 108° | 84km/h | 4100m | -2.9m/s | -5.6°C | 16.5% | 616.9hPa | 2.7V | 07:21:28 | 03:14:22 | 00:00:00 | |
| DL1XH-west | 2026-09-05 02:33:21 | 51.83477 | 8.86887 | 108° | 84km/h | 4088m | -2.9m/s | -5.6°C | 19.4% | 617.9hPa | 2.7V | 07:22:02 | 03:14:26 | 00:00:00 | |
| DL3OBA | 2026-09-05 02:33:20 | 51.83477 | 8.86887 | 109° | 84km/h | 4088m | -2.9m/s | -5.6°C | 16.6% | 617.9hPa | 2.6V | 07:22:00 | 00:00:00 | 00:00:00 | |
| DM0DOS-11 | 2026-09-05 02:33:17 | 51.83536 | 8.86592 | 108° | 84km/h | 4115m | -2.9m/s | -5.7°C | 16.3% | 615.8hPa | 2.6V | 07:21:33 | 03:14:17 | 00:00:00 | |
| HSKMA3-T | 2026-09-05 02:33:17 | 51.83503 | 8.86755 | 108° | 84km/h | 4100m | -2.9m/s | -5.6°C | 18.8% | 617hPa | 2.7V | 07:22:02 | 03:14:22 | 00:00:00 | |
| DO2JMG | 2026-09-05 02:33:16 | 51.83510 | 8.86723 | 108° | 84km/h | 4102m | -2.9m/s | -5.7°C | 18.7% | 616.7hPa | 2.7V | 07:22:02 | 03:14:21 | 00:00:00 | |
| BIOWL1-15 | 2026-09-05 02:33:15 | 51.83516 | 8.86690 | 108° | 84km/h | 4105m | -3.3m/s | -5.7°C | 18.7% | 616.5hPa | 2.7V | 07:22:02 | 03:14:20 | 00:00:00 | |
| DM0DOS-11 | 2026-09-05 02:33:12 | 51.83569 | 8.86431 | 107° | 84km/h | 4130m | -3m/s | -5.8°C | 15.9% | 614.6hPa | 2.6V | 07:21:38 | 03:14:12 | 00:00:00 | |
| DB0DAN | 2026-09-05 02:33:10 | 51.83549 | 8.86528 | 108° | 78km/h | 4121m | -3m/s | -5.8°C | 15.9% | 615.29hPa | 2.7V | 00:00:00 | 00:00:00 | 00:00:00 | |
| DL1XH-west | 2026-09-05 02:33:10 | 51.83549 | 8.86528 | 108° | 84km/h | 4121m | -3m/s | -5.8°C | 18.5% | 615.3hPa | 2.7V | 07:22:02 | 03:14:15 | 00:00:00 | |
| HSKMA3-T | 2026-09-05 02:33:06 | 51.83575 | 8.86398 | 108° | 84km/h | 4133m | -3.1m/s | -5.8°C | 18.1% | 614.4hPa | 2.6V | 07:22:02 | 03:14:11 | 00:00:00 | |
| BIOWL1-15 | 2026-09-05 02:33:04 | 51.83588 | 8.86333 | 108° | 84km/h | 4139m | -2.9m/s | -5.9°C | 17.9% | 613.9hPa | 2.7V | 07:22:02 | 03:14:09 | 00:00:00 | |
| DM0DOS-11 | 2026-09-05 02:33:02 | 51.83601 | 8.86267 | 107° | 86km/h | 4145m | -3.1m/s | -5.9°C | 16% | 613.4hPa | 2.7V | 07:21:43 | 03:14:07 | 00:00:00 | |
| DM0DOS-11 | 2026-09-05 02:33:02 | 51.83633 | 8.86102 | 107° | 84km/h | 4160m | -3m/s | -6.1°C | 16.4% | 612.2hPa | 2.7V | 07:21:48 | 03:14:02 | 00:00:00 | |
| DL1XH-west | 2026-09-05 02:33:00 | 51.83614 | 8.86201 | 107° | 84km/h | 4151m | -2.9m/s | -6°C | 18.4% | 612.9hPa | 2.6V | 07:22:02 | 03:14:05 | 00:00:00 | |
| DO2JMG | 2026-09-05 02:32:57 | 51.83651 | 8.86004 | 107° | 84km/h | 4169m | -3m/s | -6.2°C | 19% | 611.5hPa | 2.6V | 07:22:02 | 03:13:59 | 00:00:00 | |
| HSKMA3-T | 2026-09-05 02:32:56 | 51.83639 | 8.86069 | 107° | 84km/h | 4163m | -3.2m/s | -6.1°C | 18.8% | 612hPa | 2.7V | 07:22:02 | 03:14:01 | 00:00:00 | |
| DB0DAN | 2026-09-05 02:32:55 | 51.83645 | 8.86037 | 107° | 80km/h | 4166m | -3m/s | -6.1°C | 16.1% | 611.71hPa | 2.6V | 00:00:00 | 00:00:00 | 00:00:00 | |
| BIOWL1-15 | 2026-09-05 02:32:53 | 51.83658 | 8.85971 | 107° | 84km/h | 4172m | -3.2m/s | -6.2°C | 19.3% | 611.3hPa | 2.7V | 07:22:02 | 03:13:58 | 00:00:00 | |
| DM0DOS-11 | 2026-09-05 02:32:52 | 51.83664 | 8.85939 | 106° | 84km/h | 4175m | -2.9m/s | -6.2°C | 17% | 611hPa | 2.7V | 07:21:53 | 03:13:57 | 00:00:00 | |
| DM0DOS-11 | 2026-09-05 02:32:52 | 51.83693 | 8.85774 | 106° | 84km/h | 4190m | -3.2m/s | -6.3°C | 17.1% | 609.9hPa | 2.7V | 07:21:58 | 03:13:52 | 00:00:00 | |
| DL1XH-west | 2026-09-05 02:32:50 | 51.83675 | 8.85873 | 106° | 84km/h | 4181m | -3m/s | -6.2°C | 19.8% | 610.6hPa | 2.7V | 07:22:02 | 03:13:55 | 00:00:00 | |
| DO3DL | 2026-09-05 02:32:49 | 51.83675 | 8.85873 | 107° | 84km/h | 4181m | -3.0m/s | -6.2°C | 16.9% | 610.6hPa | 2.6V | 07:22:00 | 00:00:00 | 00:00:00 | |
| DL1CLM-18 | 2026-09-05 02:32:48 | 51.83681 | 8.85840 | 108° | 84km/h | 4184m | -3.1m/s | -6.3°C | 16.9% | 610.3hPa | 2.6V | 07:22:00 | 00:00:00 | 00:00:00 | |
| DM0DOS-11 | 2026-09-05 02:32:47 | 51.83724 | 8.85608 | 106° | 84km/h | 4205m | -2.9m/s | -6.4°C | 17% | 608.7hPa | 2.6V | 07:22:03 | 03:13:47 | 00:00:00 | |
| HSKMA3-T | 2026-09-05 02:32:45 | 51.83706 | 8.85708 | 107° | 86km/h | 4196m | -3m/s | -6.3°C | 19.6% | 609.4hPa | 2.7V | 07:22:02 | 03:13:50 | 00:00:00 | |
| DC4HF-4 | 2026-09-05 02:32:45 | 51.83712 | 8.85674 | 106° | 84km/h | 4199m | -2.9m/s | -6.4°C | 16.7% | 609.1hPa | 2.6V | 00:00:00 | 00:00:00 | 00:00:00 | |
| DM0DOS-11 | 2026-09-05 02:32:42 | 51.83754 | 8.85444 | 106° | 84km/h | 4221m | -3.2m/s | -6.5°C | 17% | 607.5hPa | 2.6V | 07:22:08 | 03:13:42 | 00:00:00 | |
| BIOWL1-15 | 2026-09-05 02:32:41 | 51.83730 | 8.85575 | 107° | 84km/h | 4209m | -3.2m/s | -6.4°C | 19.4% | 608.5hPa | 2.7V | 07:22:53 | 03:13:46 | 00:00:00 | |
| DB0DAN | 2026-09-05 02:32:40 | 51.83736 | 8.85542 | 107° | 80km/h | 4212m | -3m/s | -6.4°C | 16.6% | 608.21hPa | 2.7V | 00:00:00 | 00:00:00 | 00:00:00 | |
| DL1XH-west | 2026-09-05 02:32:39 | 51.83742 | 8.85510 | 107° | 84km/h | 4215m | -3.1m/s | -6.5°C | 19.5% | 608hPa | 2.7V | 07:22:53 | 03:13:44 | 00:00:00 | |
| DM0DOS-11 | 2026-09-05 02:32:37 | 51.83785 | 8.85279 | 106° | 86km/h | 4236m | -2.8m/s | -6.6°C | 17% | 606.4hPa | 2.7V | 07:22:13 | 03:13:37 | 00:00:00 | |
| DO2JMG | 2026-09-05 02:32:36 | 51.83760 | 8.85411 | 107° | 84km/h | 4224m | -3.1m/s | -6.5°C | 19.6% | 607.3hPa | 2.6V | 07:23:44 | 03:13:41 | 00:00:00 | |
| HSKMA3-T | 2026-09-05 02:32:34 | 51.83773 | 8.85345 | 107° | 84km/h | 4230m | -3m/s | -6.6°C | 19.5% | 606.9hPa | 2.7V | 07:22:53 | 03:13:39 | 00:00:00 | |
| DL1CLM-18 | 2026-09-05 02:32:33 | 51.83773 | 8.85345 | 108° | 84km/h | 4230m | -3.0m/s | -6.6°C | 16.6% | 606.9hPa | 2.7V | 00:00:00 | 00:00:00 | 00:00:00 | |
| DM0DOS-11 | 2026-09-05 02:32:32 | 51.83816 | 8.85113 | 106° | 84km/h | 4251m | -3.2m/s | -6.7°C | 16.9% | 605.2hPa | 2.7V | 07:22:18 | 03:13:32 | 00:00:00 | |
| BIOWL1-15 | 2026-09-05 02:32:30 | 51.83797 | 8.85213 | 107° | 86km/h | 4242m | -3.1m/s | -6.7°C | 19.3% | 605.9hPa | 2.6V | 07:22:53 | 03:13:35 | 00:00:00 | |
| DL1XH-west | 2026-09-05 02:32:29 | 51.83804 | 8.85180 | 107° | 86km/h | 4245m | -3.1m/s | -6.7°C | 19.4% | 605.6hPa | 2.7V | 07:22:53 | 03:13:34 | 00:00:00 | |
| DF2AP-13 | 2026-09-05 02:32:29 | 51.83803 | 8.85180 | 107° | 86km/h | 4245m | -3.1m/s | -6.6°C | 17.0% | 605.5hPa | 2.6V | 00:00:00 | 03:13:34 | 00:00:00 | |
| DL1LOL-11 | 2026-09-05 02:32:27 | 51.83810 | 8.85146 | 107° | 84km/h | 4248m | -2.9m/s | -6.7°C | 16.5% | 605.4hPa | 2.6V | 00:00:00 | 00:00:00 | 00:00:00 | |
| DB0DAN | 2026-09-05 02:32:25 | 51.83828 | 8.85047 | 107° | 80km/h | 4257m | -2.8m/s | -6.8°C | 16.4% | 604.71hPa | 2.6V | 00:00:00 | 00:00:00 | 00:00:00 | |
| DO2JMG | 2026-09-05 02:32:25 | 51.83828 | 8.85047 | 107° | 84km/h | 4257m | -2.8m/s | -6.8°C | 19.3% | 604.7hPa | 2.6V | 07:23:44 | 03:13:30 | 00:00:00 | |
| HSKMA3-T | 2026-09-05 02:32:23 | 51.83840 | 8.84981 | 107° | 84km/h | 4263m | -3.2m/s | -6.8°C | 19.3% | 604.2hPa | 2.7V | 07:22:53 | 03:13:28 | 00:00:00 | |
| DM0DOS-11 | 2026-09-05 02:32:22 | 51.83847 | 8.84948 | 107° | 84km/h | 4266m | -3.1m/s | -6.8°C | 16.8% | 603.9hPa | 2.7V | 07:22:23 | 03:13:27 | 00:00:00 | |
| DM0DOS-11 | 2026-09-05 02:32:22 | 51.83878 | 8.84781 | 106° | 86km/h | 4281m | -3.1m/s | -7°C | 16.6% | 602.8hPa | 2.7V | 07:22:28 | 03:13:22 | 00:00:00 | |
| BIOWL1-15 | 2026-09-05 02:32:20 | 51.83859 | 8.84882 | 107° | 86km/h | 4273m | -2.9m/s | -6.9°C | 19.1% | 603.5hPa | 2.7V | 07:22:53 | 03:13:25 | 00:00:00 | |
| DL1XH-west | 2026-09-05 02:32:19 | 51.83866 | 8.84848 | 107° | 86km/h | 4275m | -2.7m/s | -6.9°C | 19% | 603.3hPa | 2.6V | 07:22:53 | 03:13:24 | 00:00:00 | |
| DO2JMG | 2026-09-05 02:32:14 | 51.83897 | 8.84681 | 106° | 86km/h | 4290m | -3.1m/s | -7°C | 18.8% | 602.1hPa | 2.7V | 07:23:44 | 03:13:19 | 00:00:00 | |
| HSKMA3-T | 2026-09-05 02:32:13 | 51.83903 | 8.84647 | 106° | 86km/h | 4293m | -3.1m/s | -7.1°C | 18.9% | 602hPa | 2.6V | 07:22:53 | 03:13:18 | 00:00:00 | |
| DL3AQ-11 | 2026-09-05 02:32:13 | 51.83909 | 8.84614 | 106° | 84km/h | 4297m | -3.1m/s | -7.1°C | 16.1% | 601.6hPa | 2.6V | 00:00:00 | 00:00:00 | 00:00:00 | |
| DM0DOS-11 | 2026-09-05 02:32:12 | 51.83939 | 8.84446 | 106° | 86km/h | 4312m | -3m/s | -7.2°C | 15.9% | 600.5hPa | 2.6V | 07:22:38 | 03:13:12 | 00:00:00 | |
| DB0DAN | 2026-09-05 02:32:10 | 51.83921 | 8.84547 | 106° | 82km/h | 4303m | -3m/s | -7.1°C | 15.7% | 601.12hPa | 2.7V | 00:00:00 | 00:00:00 | 00:00:00 | |
| BIOWL1-15 | 2026-09-05 02:32:09 | 51.83927 | 8.84513 | 106° | 86km/h | 4306m | -3.2m/s | -7.1°C | 18.3% | 601hPa | 2.7V | 07:22:53 | 03:13:14 | 00:00:00 | |
| DL1XH-west | 2026-09-05 02:32:08 | 51.83933 | 8.84480 | 107° | 86km/h | 4309m | -2.7m/s | -7.2°C | 18.2% | 600.7hPa | 2.7V | 07:22:53 | 03:13:13 | 00:00:00 | |
| DO2JMG | 2026-09-05 02:32:03 | 51.83964 | 8.84310 | 106° | 88km/h | 4323m | -3m/s | -7.3°C | 18% | 599.5hPa | 2.7V | 07:23:44 | 03:13:08 | 00:00:00 | |
| DM0DOS-11 | 2026-09-05 02:32:02 | 51.84000 | 8.84106 | 105° | 86km/h | 4341m | -3m/s | -7.4°C | 15.7% | 598.2hPa | 2.7V | 07:22:48 | 03:13:02 | 00:00:00 | |
| BIOWL1-15 | 2026-09-05 02:32:01 | 51.83988 | 8.84174 | 106° | 86km/h | 4335m | -3.1m/s | -7.4°C | 17.9% | 598.7hPa | 2.7V | 07:22:53 | 03:13:04 | 00:00:00 | |
| DL1ZP-14 | 2026-09-05 02:32:00 | 51.83982 | 8.84208 | 105° | 86km/h | 4332m | -3.0m/s | -7.3°C | 15.4% | 598.9hPa | 2.7V | 00:00:00 | 00:00:00 | 00:00:00 | |
| DF2AP-13 | 2026-09-05 02:31:59 | 51.83988 | 8.84174 | 106° | 86km/h | 4335m | -3.0m/s | -7.3°C | 15.8% | 598.6hPa | 2.7V | 00:00:00 | 03:13:04 | 00:00:00 | |
| DL3OBA | 2026-09-05 02:31:58 | 51.83988 | 8.84174 | 107° | 86km/h | 4335m | -3.1m/s | -7.4°C | 15.3% | 598.7hPa | 2.7V | 07:22:00 | 00:00:00 | 00:00:00 | |
| DM0DOS-11 | 2026-09-05 02:31:57 | 51.84029 | 8.83937 | 105° | 86km/h | 4356m | -2.9m/s | -7.5°C | 15.6% | 597.1hPa | 2.7V | 07:22:53 | 03:12:57 | 00:00:00 | |
| DL1XH-west | 2026-09-05 02:31:57 | 51.84000 | 8.84106 | 105° | 86km/h | 4341m | -3.1m/s | -7.4°C | 17.9% | 598.2hPa | 2.7V | 07:22:53 | 03:13:02 | 00:00:00 | |
| DB0DAN | 2026-09-05 02:31:55 | 51.84011 | 8.84039 | 105° | 82km/h | 4347m | -3.2m/s | -7.5°C | 15.2% | 597.66hPa | 2.6V | 00:00:00 | 00:00:00 | 00:00:00 | |
| HSKMA3-T | 2026-09-05 02:31:53 | 51.84023 | 8.83971 | 105° | 86km/h | 4353m | -2.9m/s | -7.5°C | 17.7% | 597.2hPa | 2.7V | 07:22:53 | 03:12:58 | 00:00:00 | |
| BIOWL1-15 | 2026-09-05 02:31:48 | 51.84052 | 8.83802 | 106° | 88km/h | 4368m | -3.1m/s | -7.6°C | 17.8% | 596.1hPa | 2.7V | 07:23:44 | 03:12:53 | 00:00:00 | |
| DL1XH-west | 2026-09-05 02:31:47 | 51.84057 | 8.83768 | 106° | 86km/h | 4371m | -3.1m/s | -7.7°C | 17.8% | 595.9hPa | 2.7V | 07:23:44 | 03:12:52 | 00:00:00 | |
| DL3AQ-11 | 2026-09-05 02:31:45 | 51.84069 | 8.83700 | 105° | 86km/h | 4377m | -3.3m/s | -7.7°C | 15.2% | 595.5hPa | 2.6V | 00:00:00 | 00:00:00 | 00:00:00 | |
| HSKMA3-T | 2026-09-05 02:31:43 | 51.84081 | 8.83632 | 105° | 86km/h | 4383m | -3.1m/s | -7.8°C | 17.8% | 595.1hPa | 2.6V | 07:23:44 | 03:12:48 | 00:00:00 | |
| DM0DOS-11 | 2026-09-05 02:31:42 | 51.84115 | 8.83430 | 104° | 86km/h | 4401m | -3m/s | -7.9°C | 15.5% | 593.5hPa | 2.7V | 07:23:08 | 03:12:42 | 00:00:00 | |
| DO2JMG | 2026-09-05 02:31:41 | 51.84092 | 8.83564 | 105° | 86km/h | 4389m | -3m/s | -7.8°C | 17.6% | 594.5hPa | 2.7V | 07:23:44 | 03:12:46 | 00:00:00 | |
| DB0DAN | 2026-09-05 02:31:40 | 51.84098 | 8.83531 | 105° | 82km/h | 4392m | -3.2m/s | -7.8°C | 15% | 594.27hPa | 2.7V | 00:00:00 | 00:00:00 | 00:00:00 | |
| BIOWL1-15 | 2026-09-05 02:31:38 | 51.84109 | 8.83463 | 105° | 86km/h | 4398m | -3.1m/s | -7.9°C | 17.6% | 593.9hPa | 2.6V | 07:23:44 | 03:12:43 | 00:00:00 | |
| DL1XH-west | 2026-09-05 02:31:36 | 51.84120 | 8.83396 | 105° | 86km/h | 4404m | -3m/s | -7.9°C | 17.5% | 593.4hPa | 2.7V | 07:23:44 | 03:12:41 | 00:00:00 | |
| DL4BBY-15 | 2026-09-05 02:31:36 | 51.84120 | 8.83396 | 106° | 86km/h | 4404m | -3.0m/s | -7.9°C | 0% | 0hPa | 2.6V | 00:00:00 | 00:00:00 | 00:00:00 | |
| DL4XJ-10 | 2026-09-05 02:31:35 | 51.84126 | 8.83362 | 106° | 86km/h | 4407m | -3.0m/s | -7.9°C | 0% | 0hPa | 2.6V | 00:00:00 | 00:00:00 | 00:00:00 | |
| DL3AQ-11 | 2026-09-05 02:31:33 | 51.84143 | 8.83261 | 105° | 84km/h | 4416m | -3.0m/s | -8.0°C | 14.9% | 592.4hPa | 2.6V | 00:00:00 | 00:00:00 | 00:00:00 | |
| DM0DOS-11 | 2026-09-05 02:31:32 | 51.84172 | 8.83094 | 105° | 86km/h | 4432m | -3m/s | -8.1°C | 15.7% | 591.3hPa | 2.6V | 07:23:18 | 03:12:32 | 00:00:00 | |
| HSKMA3-T | 2026-09-05 02:31:32 | 51.84143 | 8.83261 | 106° | 86km/h | 4416m | -3m/s | -8°C | 17.5% | 592.4hPa | 2.6V | 07:23:44 | 03:12:37 | 00:00:00 | |
| DO2JMG | 2026-09-05 02:31:30 | 51.84155 | 8.83194 | 106° | 86km/h | 4423m | -3.3m/s | -8°C | 17.8% | 592hPa | 2.7V | 07:23:44 | 03:12:35 | 00:00:00 | |
| BIOWL1-15 | 2026-09-05 02:31:27 | 51.84172 | 8.83094 | 106° | 86km/h | 4432m | -3m/s | -8.1°C | 17.8% | 591.3hPa | 2.6V | 07:23:44 | 03:12:32 | 00:00:00 | |
| DB0DAN | 2026-09-05 02:31:25 | 51.84184 | 8.83027 | 106° | 80km/h | 4438m | -3.1m/s | -8.2°C | 15.3% | 590.75hPa | 2.7V | 00:00:00 | 00:00:00 | 00:00:00 | |
| DL1XH-west | 2026-09-05 02:31:25 | 51.84184 | 8.83027 | 106° | 84km/h | 4438m | -3.1m/s | -8.2°C | 17.9% | 590.8hPa | 2.7V | 07:23:44 | 03:12:30 | 00:00:00 | |
| DM0DOS-11 | 2026-09-05 02:31:22 | 51.84231 | 8.82757 | 106° | 86km/h | 4463m | -3.2m/s | -8.3°C | 14.5% | 588.8hPa | 2.7V | 07:23:28 | 03:12:22 | 00:00:00 | |
| HSKMA3-T | 2026-09-05 02:31:21 | 51.84207 | 8.82892 | 106° | 86km/h | 4450m | -3.1m/s | -8.3°C | 17.3% | 589.9hPa | 2.6V | 07:23:44 | 03:12:26 | 00:00:00 | |
| BIOWL1-15 | 2026-09-05 02:31:21 | 51.84231 | 8.82758 | 106° | 86km/h | 4463m | -3.2m/s | -8.3°C | 16.4% | 588.8hPa | 2.7V | 07:23:44 | 03:12:22 | 00:00:00 | |
| DO2JMG | 2026-09-05 02:31:19 | 51.84219 | 8.82825 | 106° | 86km/h | 4456m | -3.2m/s | -8.3°C | 16.9% | 589.4hPa | 2.7V | 07:23:44 | 03:12:24 | 00:00:00 | |
| SONCRA | 2026-09-05 02:31:18 | 51.84225 | 8.82791 | 106° | 84km/h | 4460m | -3.0m/s | -8.3°C | 14.3% | 589.1hPa | 2.7V | 00:00:00 | 00:00:00 | 00:00:00 | |
| DM0DOS-11 | 2026-09-05 02:31:17 | 51.84261 | 8.82588 | 105° | 86km/h | 4478m | -3.2m/s | -8.5°C | 14.7% | 587.7hPa | 2.7V | 07:23:33 | 03:12:17 | 00:00:00 | |
| DL1XH-west | 2026-09-05 02:31:15 | 51.84243 | 8.82690 | 106° | 86km/h | 4469m | -3.4m/s | -8.4°C | 16.7% | 588.3hPa | 2.6V | 07:23:44 | 03:12:20 | 00:00:00 | |
| DL4XJ-10 | 2026-09-05 02:31:15 | 51.84243 | 8.82690 | 107° | 86km/h | 4469m | -3.3m/s | -8.4°C | 0% | 0hPa | 2.7V | 00:00:00 | 00:00:00 | 00:00:00 | |
| DO3DL | 2026-09-05 02:31:14 | 51.84243 | 8.82690 | 107° | 86km/h | 4469m | -3.4m/s | -8.4°C | 14.2% | 588.3hPa | 2.7V | 07:23:00 | 00:00:00 | 00:00:00 | |
| DM0DOS-11 | 2026-09-05 02:31:12 | 51.84291 | 8.82419 | 105° | 86km/h | 4494m | -2.9m/s | -8.6°C | 14.6% | 586.5hPa | 2.7V | 07:23:38 | 03:12:12 | 00:00:00 | |
| HSKMA3-T | 2026-09-05 02:31:11 | 51.84267 | 8.82554 | 106° | 86km/h | 4482m | -3.2m/s | -8.5°C | 16.6% | 587.5hPa | 2.7V | 07:23:44 | 03:12:16 | 00:00:00 | |
| DB0DAN | 2026-09-05 02:31:10 | 51.84273 | 8.82520 | 106° | 82km/h | 4485m | -3m/s | -8.5°C | 14.2% | 587.24hPa | 2.6V | 00:00:00 | 00:00:00 | 00:00:00 | |
| DO2JMG | 2026-09-05 02:31:08 | 51.84285 | 8.82453 | 106° | 86km/h | 4491m | -3.1m/s | -8.6°C | 16.6% | 586.8hPa | 2.7V | 07:23:44 | 03:12:13 | 00:00:00 | |
| BIOWL1-15 | 2026-09-05 02:31:07 | 51.84291 | 8.82419 | 106° | 86km/h | 4494m | -2.9m/s | -8.6°C | 16.5% | 586.5hPa | 2.7V | 07:23:44 | 03:12:12 | 00:00:00 | |
| DL1XH-west | 2026-09-05 02:31:05 | 51.84302 | 8.82351 | 105° | 86km/h | 4500m | -3.1m/s | -8.6°C | 16.5% | 586.1hPa | 2.6V | 07:23:44 | 03:12:10 | 00:00:00 | |
| DM0DOS-11 | 2026-09-05 02:31:02 | 51.84348 | 8.82081 | 105° | 88km/h | 4524m | -3.2m/s | -8.9°C | 15.1% | 584.2hPa | 2.7V | 07:23:48 | 03:12:02 | 00:00:00 | |
| HSKMA3-T | 2026-09-05 02:31:00 | 51.84331 | 8.82183 | 106° | 86km/h | 4515m | -3.1m/s | -8.8°C | 16.7% | 584.9hPa | 2.7V | 07:24:35 | 03:12:05 | 00:00:00 | |
| DO2JMG | 2026-09-05 02:30:58 | 51.84342 | 8.82116 | 106° | 86km/h | 4521m | -2.9m/s | -8.8°C | 17% | 584.5hPa | 2.6V | 07:24:35 | 03:12:03 | 00:00:00 | |
| BIOWL1-15 | 2026-09-05 02:30:58 | 51.84354 | 8.82047 | 105° | 86km/h | 4527m | -3.1m/s | -8.9°C | 17.2% | 584hPa | 2.7V | 07:24:35 | 03:12:01 | 00:00:00 | |
| DL1ZP-14 | 2026-09-05 02:30:58 | 51.84348 | 8.82081 | 105° | 86km/h | 4524m | -3.2m/s | -8.9°C | 14.6% | 584.2hPa | 2.7V | 00:00:00 | 00:00:00 | 00:00:00 | |
| DC4HF-4 | 2026-09-05 02:30:56 | 51.84354 | 8.82047 | 105° | 86km/h | 4527m | -3.1m/s | -8.9°C | 14.7% | 584.0hPa | 2.7V | 00:00:00 | 00:00:00 | 00:00:00 | |
| DB0DAN | 2026-09-05 02:30:55 | 51.84360 | 8.82013 | 106° | 82km/h | 4530m | -3.3m/s | -8.9°C | 14.7% | 583.76hPa | 2.7V | 00:00:00 | 00:00:00 | 00:00:00 | |
| DL1XH-west | 2026-09-05 02:30:54 | 51.84366 | 8.81979 | 106° | 86km/h | 4533m | -3.2m/s | -8.9°C | 17.4% | 583.6hPa | 2.6V | 07:24:35 | 03:11:59 | 00:00:00 | |
| DL3AQ-11 | 2026-09-05 02:30:53 | 51.84378 | 8.81911 | 105° | 86km/h | 4540m | -3.1m/s | -9.0°C | 15.0% | 583.0hPa | 2.7V | 00:00:00 | 00:00:00 | 00:00:00 | |
| DM0DOS-11 | 2026-09-05 02:30:52 | 51.84378 | 8.81911 | 105° | 86km/h | 4540m | -3.1m/s | -9°C | 15.5% | 583hPa | 2.7V | 07:23:53 | 03:11:57 | 00:00:00 | |
| DM0DOS-11 | 2026-09-05 02:30:52 | 51.84406 | 8.81741 | 104° | 86km/h | 4555m | -3m/s | -9.1°C | 15.2% | 582hPa | 2.6V | 07:23:58 | 03:11:52 | 00:00:00 | |
| HSKMA3-T | 2026-09-05 02:30:49 | 51.84395 | 8.81809 | 105° | 86km/h | 4549m | -3.3m/s | -9.1°C | 17.4% | 582.4hPa | 2.7V | 07:24:35 | 03:11:54 | 00:00:00 | |
| DM0DOS-11 | 2026-09-05 02:30:47 | 51.84433 | 8.81571 | 105° | 86km/h | 4570m | -3m/s | -9.2°C | 14.2% | 580.7hPa | 2.6V | 07:24:03 | 03:11:47 | 00:00:00 | |
| DO2JMG | 2026-09-05 02:30:47 | 51.84406 | 8.81741 | 104° | 86km/h | 4555m | -3m/s | -9.1°C | 17.3% | 582hPa | 2.6V | 07:24:35 | 03:11:52 | 00:00:00 | |
| BIOWL1-15 | 2026-09-05 02:30:46 | 51.84411 | 8.81707 | 104° | 86km/h | 4558m | -3m/s | -9.1°C | 17.1% | 581.7hPa | 2.7V | 07:24:35 | 03:11:51 | 00:00:00 | |
| DL1XH-west | 2026-09-05 02:30:44 | 51.84422 | 8.81639 | 104° | 86km/h | 4564m | -3.1m/s | -9.2°C | 16.5% | 581.2hPa | 2.7V | 07:24:35 | 03:11:49 | 00:00:00 | |
| DL1CLM-18 | 2026-09-05 02:30:42 | 51.84427 | 8.81606 | 106° | 86km/h | 4567m | -3.2m/s | -9.2°C | 14.0% | 581.0hPa | 2.7V | 00:00:00 | 00:00:00 | 00:00:00 | |
| DB0DAN | 2026-09-05 02:30:40 | 51.84444 | 8.81503 | 105° | 82km/h | 4576m | -2.7m/s | -9.3°C | 13.2% | 580.33hPa | 2.7V | 00:00:00 | 00:00:00 | 00:00:00 | |
| HSKMA3-T | 2026-09-05 02:30:38 | 51.84456 | 8.81435 | 105° | 88km/h | 4583m | -3.5m/s | -9.3°C | 15.5% | 579.9hPa | 2.7V | 07:24:35 | 03:11:43 | 00:00:00 | |
| DM0DOS-11 | 2026-09-05 02:30:37 | 51.84489 | 8.81230 | 104° | 86km/h | 4602m | -3.1m/s | -9.5°C | 15.1% | 578.4hPa | 2.6V | 07:24:13 | 03:11:37 | 00:00:00 | |
| BIOWL1-15 | 2026-09-05 02:30:37 | 51.84473 | 8.81333 | 105° | 86km/h | 4592m | -3.1m/s | -9.4°C | 16.7% | 579.1hPa | 2.7V | 07:24:35 | 03:11:40 | 00:00:00 | |
| DO2JMG | 2026-09-05 02:30:34 | 51.84478 | 8.81298 | 105° | 86km/h | 4595m | -3m/s | -9.4°C | 17.1% | 578.8hPa | 2.7V | 07:24:35 | 03:11:39 | 00:00:00 | |
| DL1XH-west | 2026-09-05 02:30:33 | 51.84484 | 8.81264 | 105° | 86km/h | 4599m | -3.1m/s | -9.4°C | 17.2% | 578.7hPa | 2.7V | 07:24:35 | 03:11:38 | 00:00:00 | |
| HSKMA3-T | 2026-09-05 02:30:28 | 51.84512 | 8.81094 | 105° | 86km/h | 4614m | -3.2m/s | -9.6°C | 17% | 577.5hPa | 2.7V | 07:24:35 | 03:11:33 | 00:00:00 | |
| BIOWL1-15 | 2026-09-05 02:30:27 | 51.84529 | 8.80991 | 105° | 86km/h | 4623m | -3m/s | -9.7°C | 16.8% | 576.8hPa | 2.6V | 07:24:35 | 03:11:30 | 00:00:00 | |
| DB0DAN | 2026-09-05 02:30:25 | 51.84529 | 8.80991 | 105° | 82km/h | 4623m | -3m/s | -9.7°C | 14.3% | 576.81hPa | 2.6V | 00:00:00 | 00:00:00 | 00:00:00 | |
| DO2JMG | 2026-09-05 02:30:24 | 51.84534 | 8.80957 | 105° | 86km/h | 4626m | -3.2m/s | -9.7°C | 16.8% | 576.6hPa | 2.7V | 07:24:35 | 03:11:29 | 00:00:00 | |
| DL1XH-west | 2026-09-05 02:30:22 | 51.84546 | 8.80890 | 105° | 86km/h | 4632m | -3.1m/s | -9.8°C | 16.8% | 576.1hPa | 2.7V | 07:24:35 | 03:11:27 | 00:00:00 | |
| HSKMA3-T | 2026-09-05 02:30:18 | 51.84569 | 8.80754 | 106° | 86km/h | 4645m | -3.1m/s | -9.9°C | 17% | 575.2hPa | 2.7V | 07:24:35 | 03:11:23 | 00:00:00 | |
| BIOWL1-15 | 2026-09-05 02:30:14 | 51.84593 | 8.80619 | 106° | 86km/h | 4656m | -2.9m/s | -10°C | 17.2% | 574.4hPa | 2.6V | 07:24:35 | 03:11:19 | 00:00:00 | |
| DO2JMG | 2026-09-05 02:30:13 | 51.84599 | 8.80586 | 106° | 86km/h | 4659m | -3.2m/s | -10°C | 17.2% | 574hPa | 2.7V | 07:24:35 | 03:11:18 | 00:00:00 | |
| DM0DOS-11 | 2026-09-05 02:30:12 | 51.84605 | 8.80552 | 105° | 86km/h | 4663m | -3.1m/s | -10°C | 15.2% | 573.8hPa | 2.7V | 07:24:33 | 03:11:17 | 00:00:00 | |
| DL1XH-west | 2026-09-05 02:30:12 | 51.84605 | 8.80552 | 106° | 86km/h | 4663m | -3.1m/s | -10°C | 17.3% | 573.8hPa | 2.7V | 07:24:35 | 03:11:17 | 00:00:00 | |
| DB0DAN | 2026-09-05 02:30:10 | 51.84616 | 8.80485 | 105° | 80km/h | 4669m | -2.9m/s | -10.1°C | 14.8% | 573.35hPa | 2.6V | 00:00:00 | 00:00:00 | 00:00:00 | |
| HSKMA3-T | 2026-09-05 02:30:07 | 51.84633 | 8.80385 | 106° | 84km/h | 4678m | -3.2m/s | -10.2°C | 17.3% | 572.8hPa | 2.7V | 07:25:26 | 03:11:12 | 00:00:00 | |
| BIOWL1-15 | 2026-09-05 02:30:06 | 51.84650 | 8.80286 | 106° | 84km/h | 4687m | -3.2m/s | -10.2°C | 16.5% | 572hPa | 2.6V | 07:25:26 | 03:11:09 | 00:00:00 | |
| DO2JMG | 2026-09-05 02:30:03 | 51.84656 | 8.80252 | 106° | 84km/h | 4691m | -3.5m/s | -10.2°C | 15.8% | 571.8hPa | 2.6V | 07:25:26 | 03:11:08 | 00:00:00 | |
| DM0DOS-11 | 2026-09-05 02:30:02 | 51.84662 | 8.80219 | 105° | 84km/h | 4694m | -3.2m/s | -10.2°C | 13.7% | 571.5hPa | 2.7V | 07:24:43 | 03:11:07 | 00:00:00 | |
| DL1XH-west | 2026-09-05 02:30:02 | 51.84662 | 8.80219 | 106° | 84km/h | 4694m | -3.2m/s | -10.3°C | 15.5% | 571.5hPa | 2.7V | 07:25:26 | 03:11:07 | 00:00:00 | |
| DL3AQ-11 | 2026-09-05 02:30:02 | 51.84668 | 8.80186 | 105° | 84km/h | 4697m | -3.2m/s | -10.3°C | 13.2% | 571.3hPa | 2.6V | 00:00:00 | 00:00:00 | 00:00:00 | |
| DF2AP-13 | 2026-09-05 02:29:59 | 51.84679 | 8.80120 | 106° | 84km/h | 4703m | -3.0m/s | -10.3°C | 13.7% | 570.8hPa | 2.6V | 00:00:00 | 03:11:04 | 00:00:00 | |
| DM0DOS-11 | 2026-09-05 02:29:57 | 51.84719 | 8.79892 | 105° | 82km/h | 4724m | -3.1m/s | -10.5°C | 14.1% | 569.4hPa | 2.6V | 07:24:53 | 03:10:57 | 00:00:00 | |
| HSKMA3-T | 2026-09-05 02:29:56 | 51.84696 | 8.80022 | 106° | 82km/h | 4712m | -2.9m/s | -10.4°C | 15.5% | 570.1hPa | 2.7V | 07:25:26 | 03:11:01 | 00:00:00 | |
| DL1ZP-14 | 2026-09-05 02:29:56 | 51.84702 | 8.79989 | 105° | 82km/h | 4715m | -3.1m/s | -10.4°C | 13.4% | 569.9hPa | 2.7V | 00:00:00 | 00:00:00 | 00:00:00 | |
| DB0DAN | 2026-09-05 02:29:55 | 51.84702 | 8.79989 | 106° | 78km/h | 4715m | -3.1m/s | -10.4°C | 13.4% | 569.94hPa | 2.7V | 00:00:00 | 00:00:00 | 00:00:00 | |
| BIOWL1-15 | 2026-09-05 02:29:53 | 51.84713 | 8.79924 | 106° | 82km/h | 4721m | -3.1m/s | -10.5°C | 15.8% | 569.5hPa | 2.6V | 07:25:26 | 03:10:58 | 00:00:00 | |
| DO2JMG | 2026-09-05 02:29:52 | 51.84719 | 8.79892 | 105° | 82km/h | 4724m | -3.1m/s | -10.5°C | 15.9% | 569.4hPa | 2.6V | 07:25:26 | 03:10:57 | 00:00:00 | |
| DL1XH-west | 2026-09-05 02:29:51 | 51.84724 | 8.79859 | 106° | 82km/h | 4728m | -3.2m/s | -10.6°C | 16% | 569.1hPa | 2.7V | 07:25:26 | 03:10:56 | 00:00:00 | |
| HSKMA3-T | 2026-09-05 02:29:46 | 51.84752 | 8.79694 | 106° | 86km/h | 4743m | -3m/s | -10.7°C | 16.6% | 568hPa | 2.7V | 07:25:26 | 03:10:51 | 00:00:00 | |
| BIOWL1-15 | 2026-09-05 02:29:46 | 51.84775 | 8.79560 | 105° | 86km/h | 4755m | -2.9m/s | -10.8°C | 16.9% | 567.1hPa | 2.6V | 07:25:26 | 03:10:47 | 00:00:00 | |
| DL3AQ-11 | 2026-09-05 02:29:46 | 51.84758 | 8.79661 | 105° | 84km/h | 4746m | -3.0m/s | -10.7°C | 14.3% | 567.8hPa | 2.6V | 00:00:00 | 00:00:00 | 00:00:00 | |
| DM0DOS-11 | 2026-09-05 02:29:42 | 51.84775 | 8.79560 | 105° | 86km/h | 4755m | -2.9m/s | -10.8°C | 14.9% | 567.1hPa | 2.6V | 07:25:03 | 03:10:47 | 00:00:00 | |
| DL1XH-west | 2026-09-05 02:29:41 | 51.84781 | 8.79526 | 105° | 86km/h | 4758m | -3.2m/s | -10.8°C | 17% | 566.9hPa | 2.7V | 07:25:26 | 03:10:46 | 00:00:00 | |
| HSKMA3-T | 2026-09-05 02:29:36 | 51.84809 | 8.79357 | 105° | 86km/h | 4773m | -3m/s | -10.9°C | 18.6% | 565.6hPa | 2.6V | 07:25:26 | 03:10:41 | 00:00:00 | |
| DL4BBY-15 | 2026-09-05 02:29:36 | 51.84809 | 8.79357 | 106° | 86km/h | 4773m | -3.0m/s | -10.9°C | 0% | 0hPa | 2.7V | 00:00:00 | 00:00:00 | 00:00:00 | |
| DL4XJ-10 | 2026-09-05 02:29:35 | 51.84815 | 8.79323 | 106° | 86km/h | 4776m | -3.2m/s | -10.9°C | 0% | 0hPa | 2.7V | 00:00:00 | 00:00:00 | 00:00:00 | |
| DM0DOS-11 | 2026-09-05 02:29:32 | 51.84832 | 8.79222 | 105° | 86km/h | 4785m | -3.2m/s | -11°C | 17.3% | 564.8hPa | 2.7V | 07:25:13 | 03:10:37 | 00:00:00 | |
| DM0DOS-11 | 2026-09-05 02:29:32 | 51.84860 | 8.79054 | 104° | 86km/h | 4800m | -3.3m/s | -11.1°C | 16.9% | 563.6hPa | 2.7V | 07:25:18 | 03:10:32 | 00:00:00 | |
| BIOWL1-15 | 2026-09-05 02:29:32 | 51.84832 | 8.79222 | 105° | 86km/h | 4786m | -3.2m/s | -11°C | 19.7% | 564.8hPa | 2.7V | 07:25:26 | 03:10:37 | 00:00:00 | |
| DL1XH-west | 2026-09-05 02:29:30 | 51.84844 | 8.79155 | 105° | 86km/h | 4792m | -3m/s | -11.1°C | 20.2% | 564.3hPa | 2.6V | 07:25:26 | 03:10:35 | 00:00:00 | |
| DO3DL | 2026-09-05 02:29:29 | 51.84844 | 8.79155 | 106° | 86km/h | 4792m | -3.0m/s | -11.1°C | 17.1% | 564.3hPa | 2.6V | 07:25:00 | 00:00:00 | 00:00:00 | |
| DM0DOS-11 | 2026-09-05 02:29:27 | 51.84888 | 8.78885 | 105° | 86km/h | 4816m | -3m/s | -11.2°C | 14.1% | 562.5hPa | 2.6V | 07:25:23 | 03:10:27 | 00:00:00 | |
| DB0DAN | 2026-09-05 02:29:25 | 51.84871 | 8.78987 | 105° | 82km/h | 4807m | -3.2m/s | -11.1°C | 14.9% | 563.23hPa | 2.7V | 00:00:00 | 00:00:00 | 00:00:00 | |
| HSKMA3-T | 2026-09-05 02:29:25 | 51.84871 | 8.78987 | 105° | 86km/h | 4807m | -3.2m/s | -11.1°C | 17.6% | 563.2hPa | 2.7V | 07:25:26 | 03:10:30 | 00:00:00 | |
| DL1ZP-14 | 2026-09-05 02:29:24 | 51.84877 | 8.78953 | 104° | 84km/h | 4810m | -3.0m/s | -11.1°C | 14.4% | 562.9hPa | 2.7V | 00:00:00 | 00:00:00 | 00:00:00 | |
| DO3DL | 2026-09-05 02:29:23 | 51.84877 | 8.78953 | 106° | 86km/h | 4810m | -3.0m/s | -11.1°C | 14.4% | 562.9hPa | 2.7V | 07:25:00 | 00:00:00 | 00:00:00 | |
| DM0DOS-11 | 2026-09-05 02:29:22 | 51.84916 | 8.78714 | 104° | 86km/h | 4831m | -3m/s | -11.3°C | 13.9% | 561.4hPa | 2.7V | 07:25:28 | 03:10:22 | 00:00:00 | |
| BIOWL1-15 | 2026-09-05 02:29:22 | 51.84888 | 8.78885 | 105° | 86km/h | 4816m | -3m/s | -11.2°C | 16% | 562.5hPa | 2.6V | 07:25:26 | 03:10:27 | 00:00:00 | |
| DL1XH-west | 2026-09-05 02:29:20 | 51.84899 | 8.78817 | 105° | 88km/h | 4822m | -3.1m/s | -11.2°C | 16% | 562hPa | 2.7V | 07:25:26 | 03:10:25 | 00:00:00 | |
| BIOWL9-15 | 2026-09-05 02:29:18 | 51.84911 | 8.78748 | 105° | 86km/h | 4828m | -2.9m/s | -11.3°C | 13.4% | 561.6hPa | 2.7V | 00:00:00 | 00:00:00 | 00:00:00 | |
| DM0DOS-11 | 2026-09-05 02:29:17 | 51.84944 | 8.78545 | 104° | 84km/h | 4846m | -3m/s | -11.4°C | 14.5% | 560.3hPa | 2.7V | 07:25:33 | 03:10:17 | 00:00:00 | |
| HSKMA3-T | 2026-09-05 02:29:14 | 51.84933 | 8.78613 | 105° | 86km/h | 4840m | -3.1m/s | -11.4°C | 15.9% | 560.8hPa | 2.7V | 07:26:17 | 03:10:19 | 00:00:00 | |
| BIOWL1-15 | 2026-09-05 02:29:11 | 51.84949 | 8.78512 | 104° | 84km/h | 4849m | -3.1m/s | -11.5°C | 16.7% | 560.1hPa | 2.6V | 07:26:17 | 03:10:16 | 00:00:00 | |
| DB0DAN | 2026-09-05 02:29:10 | 51.84954 | 8.78478 | 104° | 80km/h | 4852m | -3m/s | -11.5°C | 14.4% | 559.85hPa | 2.6V | 00:00:00 | 00:00:00 | 00:00:00 | |
| DL1XH-west | 2026-09-05 02:29:10 | 51.84954 | 8.78478 | 104° | 84km/h | 4852m | -3m/s | -11.5°C | 16.9% | 559.9hPa | 2.6V | 07:26:17 | 03:10:15 | 00:00:00 | |
| HSKMA3-T | 2026-09-05 02:29:03 | 51.84991 | 8.78243 | 104° | 86km/h | 4873m | -3.1m/s | -11.7°C | 17.1% | 558.3hPa | 2.7V | 07:26:17 | 03:10:08 | 00:00:00 | |
| DM0DOS-11 | 2026-09-05 02:29:02 | 51.84996 | 8.78210 | 104° | 84km/h | 4876m | -3m/s | -11.7°C | 15% | 558.1hPa | 2.7V | 07:25:43 | 03:10:07 | 00:00:00 | |
| BIOWL1-15 | 2026-09-05 02:29:00 | 51.85006 | 8.78142 | 104° | 86km/h | 4883m | -3.1m/s | -11.8°C | 16.9% | 557.6hPa | 2.6V | 07:26:17 | 03:10:05 | 00:00:00 | |
| DL1XH-west | 2026-09-05 02:28:59 | 51.85012 | 8.78108 | 105° | 86km/h | 4886m | -3m/s | -11.8°C | 16.8% | 557.4hPa | 2.6V | 07:26:17 | 03:10:04 | 00:00:00 | |
| DO3DL | 2026-09-05 02:28:57 | 51.85017 | 8.78075 | 106° | 86km/h | 4889m | -3.0m/s | -11.8°C | 14.2% | 557.2hPa | 2.6V | 07:26:00 | 00:00:00 | 00:00:00 | |
| DB0DAN | 2026-09-05 02:28:55 | 51.85034 | 8.77973 | 105° | 82km/h | 4898m | -3.2m/s | -11.9°C | 14.3% | 556.51hPa | 2.6V | 00:00:00 | 00:00:00 | 00:00:00 | |
| DL3AQ-11 | 2026-09-05 02:28:53 | 51.85051 | 8.77871 | 104° | 84km/h | 4907m | -3.0m/s | -12.0°C | 14.5% | 555.9hPa | 2.6V | 00:00:00 | 00:00:00 | 00:00:00 | |
| DM0DOS-11 | 2026-09-05 02:28:52 | 51.85077 | 8.77702 | 104° | 86km/h | 4922m | -3.4m/s | -12.1°C | 14.6% | 554.8hPa | 2.6V | 07:25:58 | 03:09:52 | 00:00:00 | |
| HSKMA3-T | 2026-09-05 02:28:52 | 51.85051 | 8.77871 | 104° | 86km/h | 4907m | -3m/s | -12°C | 17.1% | 555.9hPa | 2.7V | 07:26:17 | 03:09:57 | 00:00:00 | |
| BIOWL1-15 | 2026-09-05 02:28:49 | 51.85066 | 8.77769 | 104° | 86km/h | 4916m | -3m/s | -12°C | 16.9% | 555.1hPa | 2.6V | 07:26:17 | 03:09:54 | 00:00:00 | |
| DL1XH-west | 2026-09-05 02:28:48 | 51.85072 | 8.77735 | 105° | 86km/h | 4919m | -2.9m/s | -12.1°C | 16.7% | 555hPa | 2.6V | 07:26:17 | 03:09:53 | 00:00:00 | |
| DM0DOS-11 | 2026-09-05 02:28:47 | 51.85104 | 8.77533 | 104° | 86km/h | 4937m | -3.1m/s | -12.2°C | 14% | 553.6hPa | 2.6V | 07:26:03 | 03:09:47 | 00:00:00 | |
| DO3DL | 2026-09-05 02:28:44 | 51.85088 | 8.77634 | 105° | 86km/h | 4928m | -3.1m/s | -12.1°C | 13.7% | 554.3hPa | 2.6V | 07:26:00 | 00:00:00 | 00:00:00 | |
| SONCRA | 2026-09-05 02:28:43 | 51.85104 | 8.77533 | 104° | 84km/h | 4937m | -3.1m/s | -12.2°C | 13.5% | 553.6hPa | 2.6V | 00:00:00 | 00:00:00 | 00:00:00 | |
| DM0DOS-11 | 2026-09-05 02:28:42 | 51.85132 | 8.77363 | 104° | 86km/h | 4953m | -3.1m/s | -12.3°C | 14.1% | 552.5hPa | 2.6V | 07:26:08 | 03:09:42 | 00:00:00 | |
| HSKMA3-T | 2026-09-05 02:28:42 | 51.85104 | 8.77533 | 105° | 86km/h | 4937m | -3.1m/s | -12.2°C | 15.9% | 553.6hPa | 2.6V | 07:26:17 | 03:09:47 | 00:00:00 | |
| DB0DAN | 2026-09-05 02:28:40 | 51.85116 | 8.77465 | 105° | 82km/h | 4944m | -3.3m/s | -12.2°C | 13.5% | 553.25hPa | 2.7V | 00:00:00 | 00:00:00 | 00:00:00 | |
| BIOWL1-15 | 2026-09-05 02:28:39 | 51.85121 | 8.77431 | 105° | 86km/h | 4947m | -3.2m/s | -12.3°C | 16% | 553hPa | 2.7V | 07:26:17 | 03:09:44 | 00:00:00 | |
| DL1XH-west | 2026-09-05 02:28:38 | 51.85126 | 8.77397 | 104° | 86km/h | 4950m | -3.2m/s | -12.3°C | 16% | 552.8hPa | 2.7V | 07:26:17 | 03:09:43 | 00:00:00 | |
| DM0DOS-11 | 2026-09-05 02:28:37 | 51.85159 | 8.77193 | 104° | 86km/h | 4969m | -3.2m/s | -12.5°C | 14.4% | 551.4hPa | 2.6V | 07:26:13 | 03:09:37 | 00:00:00 | |
| DO2JMG | 2026-09-05 02:28:37 | 51.85132 | 8.77363 | 104° | 86km/h | 4953m | -3.1m/s | -12.3°C | 16% | 552.5hPa | 2.6V | 07:26:17 | 03:09:42 | 00:00:00 | |
| DL4BBY-15 | 2026-09-05 02:28:36 | 51.85137 | 8.77329 | 105° | 86km/h | 4956m | -3.1m/s | -12.3°C | 0% | 0hPa | 2.7V | 00:00:00 | 00:00:00 | 00:00:00 | |
| DL4XJ-10 | 2026-09-05 02:28:35 | 51.85142 | 8.77295 | 105° | 86km/h | 4959m | -3.2m/s | -12.3°C | 0% | 0hPa | 2.7V | 00:00:00 | 00:00:00 | 00:00:00 | |
| DL3OBA | 2026-09-05 02:28:33 | 51.85148 | 8.77261 | 105° | 86km/h | 4962m | -3.1m/s | -12.4°C | 13.7% | 551.8hPa | 2.7V | 07:26:00 | 00:00:00 | 00:00:00 | |
| DM0DOS-11 | 2026-09-05 02:28:32 | 51.85187 | 8.77023 | 104° | 86km/h | 4984m | -3m/s | -12.6°C | 14.4% | 550.3hPa | 2.7V | 07:26:18 | 03:09:32 | 00:00:00 | |
| HSKMA3-T | 2026-09-05 02:28:31 | 51.85164 | 8.77159 | 105° | 86km/h | 4972m | -3.4m/s | -12.5°C | 16.3% | 551.2hPa | 2.6V | 07:26:17 | 03:09:36 | 00:00:00 | |
| BIOWL1-15 | 2026-09-05 02:28:29 | 51.85175 | 8.77091 | 105° | 86km/h | 4978m | -2.9m/s | -12.5°C | 16.4% | 550.7hPa | 2.7V | 07:26:17 | 03:09:34 | 00:00:00 | |
| DL1XH-west | 2026-09-05 02:28:28 | 51.85181 | 8.77057 | 105° | 86km/h | 4981m | -3.1m/s | -12.6°C | 16.4% | 550.5hPa | 2.7V | 07:26:17 | 03:09:33 | 00:00:00 | |
| DO2JMG | 2026-09-05 02:28:26 | 51.85192 | 8.76988 | 105° | 88km/h | 4987m | -3.2m/s | -12.6°C | 16.4% | 550.1hPa | 2.6V | 07:27:08 | 03:09:31 | 00:00:00 | |
| DB0DAN | 2026-09-05 02:28:25 | 51.85198 | 8.76954 | 105° | 82km/h | 4990m | -3.1m/s | -12.6°C | 13.9% | 549.91hPa | 2.6V | 00:00:00 | 00:00:00 | 00:00:00 | |
| HSKMA3-T | 2026-09-05 02:28:20 | 51.85226 | 8.76783 | 104° | 86km/h | 5006m | -3.2m/s | -12.8°C | 15.7% | 548.7hPa | 2.7V | 07:27:08 | 03:09:25 | 00:00:00 | |
| DM0DOS-11 | 2026-09-05 02:28:19 | 51.85258 | 8.76578 | 104° | 86km/h | 5024m | -3m/s | -12.9°C | 13.5% | 547.4hPa | 2.6V | 07:26:31 | 03:09:19 | 00:00:00 | |
| DL1XH-west | 2026-09-05 02:28:18 | 51.85236 | 8.76715 | 105° | 86km/h | 5012m | -2.9m/s | -12.8°C | 15.5% | 548.3hPa | 2.6V | 07:27:08 | 03:09:23 | 00:00:00 | |
| DO2JMG | 2026-09-05 02:28:15 | 51.85253 | 8.76612 | 105° | 86km/h | 5021m | -2.8m/s | -12.9°C | 15.3% | 547.6hPa | 2.7V | 07:27:08 | 03:09:20 | 00:00:00 | |
| DL4XJ-10 | 2026-09-05 02:28:15 | 51.85253 | 8.76612 | 105° | 86km/h | 5021m | -2.7m/s | -12.8°C | 0% | 0hPa | 2.7V | 00:00:00 | 00:00:00 | 00:00:00 | |
| DD1CC3-15 | 2026-09-05 02:28:14 | 51.85253 | 8.76612 | 106° | 86km/h | 5021m | -2.8m/s | -12.9°C | 13.0% | 547.6hPa | 2.7V | 07:27:00 | 00:00:00 | 00:00:00 | |
| DL3OBA | 2026-09-05 02:28:13 | 51.85258 | 8.76578 | 105° | 86km/h | 5024m | -3.1m/s | -12.9°C | 12.9% | 547.4hPa | 2.7V | 07:27:00 | 00:00:00 | 00:00:00 | |
| DB0DAN | 2026-09-05 02:28:10 | 51.85279 | 8.76441 | 104° | 82km/h | 5036m | -3.2m/s | -12.9°C | 11.9% | 546.51hPa | 2.7V | 00:00:00 | 00:00:00 | 00:00:00 | |
| HSKMA3-T | 2026-09-05 02:28:10 | 51.85279 | 8.76441 | 104° | 86km/h | 5036m | -3.2m/s | -12.9°C | 13.9% | 546.5hPa | 2.7V | 07:27:08 | 03:09:15 | 00:00:00 | |
| DL1XH-west | 2026-09-05 02:28:07 | 51.85295 | 8.76339 | 104° | 86km/h | 5045m | -3.2m/s | -13°C | 13.7% | 545.9hPa | 2.7V | 07:27:08 | 03:09:12 | 00:00:00 | |
| DO2JMG | 2026-09-05 02:28:05 | 51.85305 | 8.76271 | 104° | 86km/h | 5052m | -3.2m/s | -13°C | 13.9% | 545.5hPa | 2.7V | 07:27:08 | 03:09:10 | 00:00:00 | |
| HSKMA3-T | 2026-09-05 02:28:00 | 51.85331 | 8.76101 | 104° | 86km/h | 5067m | -3.3m/s | -13.2°C | 13.9% | 544.3hPa | 2.6V | 07:27:08 | 03:09:05 | 00:00:00 | |
| BIOWL1-15 | 2026-09-05 02:27:58 | 51.85352 | 8.75964 | 104° | 86km/h | 5079m | -3m/s | -13.3°C | 14.1% | 543.5hPa | 2.7V | 07:27:08 | 03:09:01 | 00:00:00 | |
| DL1XH-west | 2026-09-05 02:27:57 | 51.85346 | 8.75998 | 104° | 86km/h | 5076m | -3.2m/s | -13.3°C | 14.1% | 543.7hPa | 2.7V | 07:27:08 | 03:09:02 | 00:00:00 | |
| DC4HF-4 | 2026-09-05 02:27:56 | 51.85352 | 8.75964 | 104° | 86km/h | 5079m | -3.0m/s | -13.3°C | 12.0% | 543.5hPa | 2.6V | 00:00:00 | 00:00:00 | 00:00:00 | |
| DB0DAN | 2026-09-05 02:27:55 | 51.85357 | 8.75930 | 104° | 82km/h | 5083m | -3.2m/s | -13.3°C | 12.1% | 543.27hPa | 2.6V | 00:00:00 | 00:00:00 | 00:00:00 | |
| DO2JMG | 2026-09-05 02:27:55 | 51.85357 | 8.75930 | 104° | 86km/h | 5083m | -3.2m/s | -13.3°C | 14.1% | 543.3hPa | 2.6V | 07:27:08 | 03:09:00 | 00:00:00 | |
| HSKMA3-T | 2026-09-05 02:27:49 | 51.85388 | 8.75727 | 104° | 86km/h | 5101m | -3.1m/s | -13.5°C | 14.6% | 541.9hPa | 2.6V | 07:27:08 | 03:08:54 | 00:00:00 | |
| BIOWL1-15 | 2026-09-05 02:27:46 | 51.85403 | 8.75624 | 105° | 86km/h | 5110m | -3.1m/s | -13.6°C | 14.8% | 541.3hPa | 2.7V | 07:27:08 | 03:08:51 | 00:00:00 | |
| DO2JMG | 2026-09-05 02:27:45 | 51.85409 | 8.75590 | 104° | 86km/h | 5113m | -3.2m/s | -13.6°C | 14.9% | 541hPa | 2.6V | 07:27:08 | 03:08:50 | 00:00:00 | |
| DB0DAN | 2026-09-05 02:27:40 | 51.85437 | 8.75418 | 105° | 84km/h | 5128m | -3m/s | -13.7°C | 13.1% | 540.03hPa | 2.6V | 00:00:00 | 00:00:00 | 00:00:00 | |
| DM0DOS-11 | 2026-09-05 02:27:39 | 51.85471 | 8.75210 | 104° | 88km/h | 5146m | -3.1m/s | -13.9°C | 14% | 538.7hPa | 2.6V | 07:27:11 | 03:08:39 | 00:00:00 | |
| HSKMA3-T | 2026-09-05 02:27:39 | 51.85442 | 8.75383 | 105° | 88km/h | 5131m | -3.1m/s | -13.8°C | 15.4% | 539.8hPa | 2.6V | 07:27:08 | 03:08:44 | 00:00:00 | |
| BIOWL1-15 | 2026-09-05 02:27:37 | 51.85466 | 8.75244 | 105° | 88km/h | 5143m | -2.8m/s | -13.9°C | 15.5% | 539hPa | 2.6V | 07:27:59 | 03:08:40 | 00:00:00 | |
| DL1XH-west | 2026-09-05 02:27:36 | 51.85460 | 8.75279 | 105° | 88km/h | 5140m | -3.1m/s | -13.9°C | 15.3% | 539.2hPa | 2.7V | 07:27:59 | 03:08:41 | 00:00:00 | |
| DO2JMG | 2026-09-05 02:27:34 | 51.85471 | 8.75210 | 105° | 88km/h | 5146m | -3.1m/s | -13.9°C | 15.7% | 538.7hPa | 2.6V | 07:27:59 | 03:08:39 | 00:00:00 | |
| DD1CC3-15 | 2026-09-05 02:27:32 | 51.85477 | 8.75175 | 106° | 88km/h | 5149m | -3.2m/s | -13.9°C | 13.6% | 538.5hPa | 2.6V | 07:27:00 | 00:00:00 | 00:00:00 | |
| DL3OBA | 2026-09-05 02:27:31 | 51.85483 | 8.75140 | 106° | 88km/h | 5152m | -3.2m/s | -14.0°C | 13.7% | 538.3hPa | 2.6V | 07:27:00 | 00:00:00 | 00:00:00 | |
| BUE01 | 2026-09-05 02:27:30 | 51.85494 | 8.75071 | 105° | 86km/h | 5158m | -3.3m/s | -14.0°C | 13.9% | 537.8hPa | 2.6V | 00:00:00 | 00:00:00 | 00:00:00 | |
| DM0DOS-11 | 2026-09-05 02:27:29 | 51.85530 | 8.74864 | 105° | 88km/h | 5176m | -3.2m/s | -14.1°C | 14.2% | 536.5hPa | 2.6V | 07:27:21 | 03:08:29 | 00:00:00 | |
| HSKMA3-T | 2026-09-05 02:27:29 | 51.85500 | 8.75037 | 105° | 88km/h | 5161m | -3.2m/s | -14°C | 16.4% | 537.6hPa | 2.6V | 07:27:59 | 03:08:34 | 00:00:00 | |
| DF2AP-13 | 2026-09-05 02:27:29 | 51.85500 | 8.75036 | 106° | 88km/h | 5161m | -3.2m/s | -14.0°C | 14.6% | 537.5hPa | 2.6V | 07:27:00 | 03:08:34 | 00:00:00 | |
| DD1CC1-15 | 2026-09-05 02:27:27 | 51.85506 | 8.75002 | 106° | 88km/h | 5165m | -3.0m/s | -14.1°C | 14.1% | 537.4hPa | 2.6V | 07:27:00 | 00:00:00 | 00:00:00 | |
| DB0DAN | 2026-09-05 02:27:25 | 51.85524 | 8.74899 | 106° | 84km/h | 5174m | -2.9m/s | -14.1°C | 13.8% | 536.77hPa | 2.6V | 00:00:00 | 00:00:00 | 00:00:00 | |
| DL1XH-west | 2026-09-05 02:27:25 | 51.85524 | 8.74899 | 106° | 88km/h | 5174m | -2.9m/s | -14.1°C | 16.2% | 536.8hPa | 2.6V | 07:27:59 | 03:08:30 | 00:00:00 | |
| DO2JMG | 2026-09-05 02:27:24 | 51.85530 | 8.74864 | 105° | 88km/h | 5176m | -3.2m/s | -14.1°C | 15.9% | 536.5hPa | 2.6V | 07:27:59 | 03:08:29 | 00:00:00 | |
| DO9LL-15 | 2026-09-05 02:27:22 | 51.85542 | 8.74794 | 106° | 89km/h | 5183m | -3.2m/s | -14.1°C | 13.6% | 536.1hPa | 2.6V | 00:00:00 | 03:08:27 | 00:00:00 | |
| DL8OAI-8 | 2026-09-05 02:27:21 | 51.85542 | 8.74794 | 106° | 88km/h | 5183m | -3.3m/s | -14.1°C | 13.0% | 536.1hPa | 2.6V | 07:27:00 | 00:00:00 | 00:00:00 | |
| DC4HF-4 | 2026-09-05 02:27:20 | 51.85553 | 8.74725 | 105° | 88km/h | 5189m | -3.2m/s | -14.2°C | 12.5% | 535.7hPa | 2.6V | 00:00:00 | 00:00:00 | 00:00:00 | |
| DM0DOS-11 | 2026-09-05 02:27:19 | 51.85588 | 8.74516 | 105° | 88km/h | 5207m | -2.9m/s | -14.3°C | 12.8% | 534.4hPa | 2.6V | 07:27:31 | 03:08:19 | 00:00:00 | |
| HSKMA3-T | 2026-09-05 02:27:18 | 51.85565 | 8.74655 | 106° | 89km/h | 5195m | -3m/s | -14.2°C | 14.4% | 535.3hPa | 2.6V | 07:27:59 | 03:08:23 | 00:00:00 | |
| BIOWL1-15 | 2026-09-05 02:27:14 | 51.85589 | 8.74516 | 105° | 88km/h | 5207m | -2.9m/s | -14.3°C | 14.2% | 534.4hPa | 2.6V | 07:27:59 | 03:08:19 | 00:00:00 | |
| BIOWL9-15 | 2026-09-05 02:27:14 | 51.85594 | 8.74481 | 105° | 88km/h | 5210m | -3.1m/s | -14.3°C | 12.2% | 534.3hPa | 2.6V | 00:00:00 | 00:00:00 | 00:00:00 | |
| DO3DL | 2026-09-05 02:27:12 | 51.85595 | 8.74481 | 106° | 88km/h | 5210m | -3.1m/s | -14.3°C | 12.2% | 534.3hPa | 2.6V | 07:27:00 | 00:00:00 | 00:00:00 | |
| DB0DAN | 2026-09-05 02:27:10 | 51.85612 | 8.74377 | 105° | 84km/h | 5219m | -2.8m/s | -14.4°C | 11.9% | 533.53hPa | 2.6V | 00:00:00 | 00:00:00 | 00:00:00 | |
| DM0DOS-11 | 2026-09-05 02:27:09 | 51.85648 | 8.74167 | 105° | 89km/h | 5237m | -3.3m/s | -14.5°C | 12.5% | 532.3hPa | 2.6V | 07:27:41 | 03:08:09 | 00:00:00 | |
| HSKMA3-T | 2026-09-05 02:27:07 | 51.85630 | 8.74273 | 106° | 89km/h | 5228m | -3.2m/s | -14.4°C | 13.8% | 532.9hPa | 2.6V | 07:27:59 | 03:08:12 | 00:00:00 | |
| DL1XH-west | 2026-09-05 02:27:04 | 51.85648 | 8.74167 | 106° | 89km/h | 5237m | -3.3m/s | -14.5°C | 13.9% | 532.3hPa | 2.6V | 07:27:59 | 03:08:09 | 00:00:00 | |
| DO2JMG | 2026-09-05 02:27:03 | 51.85654 | 8.74132 | 106° | 89km/h | 5241m | -3.1m/s | -14.5°C | 13.9% | 532.1hPa | 2.6V | 07:27:59 | 03:08:08 | 00:00:00 | |
| DJ2DS-15 | 2026-09-05 02:27:03 | 51.85660 | 8.74097 | 105° | 89km/h | 5244m | -3.0m/s | -14.5°C | 12.0% | 531.8hPa | 2.6V | 00:00:00 | 00:00:00 | 00:00:00 | |
| DL1CLM-18 | 2026-09-05 02:27:01 | 51.85660 | 8.74097 | 107° | 89km/h | 5244m | -3.0m/s | -14.5°C | 12.0% | 531.8hPa | 2.6V | 07:27:00 | 00:00:00 | 00:00:00 | |
| DL8OAI-8 | 2026-09-05 02:27:00 | 51.85666 | 8.74062 | 107° | 89km/h | 5247m | -3.2m/s | -14.5°C | 12.1% | 531.6hPa | 2.6V | 07:27:00 | 00:00:00 | 00:00:00 | |
| DM0DOS-11 | 2026-09-05 02:26:59 | 51.85709 | 8.73815 | 105° | 89km/h | 5268m | -2.9m/s | -14.6°C | 12.8% | 530.1hPa | 2.6V | 07:27:51 | 03:07:59 | 00:00:00 | |
| HSKMA3-T | 2026-09-05 02:26:57 | 51.85691 | 8.73921 | 106° | 89km/h | 5259m | -3.1m/s | -14.6°C | 14.2% | 530.8hPa | 2.6V | 07:27:59 | 03:08:02 | 00:00:00 | |
| DB0DAN | 2026-09-05 02:26:55 | 51.85703 | 8.73850 | 105° | 86km/h | 5265m | -3.1m/s | -14.6°C | 12.1% | 530.37hPa | 2.6V | 00:00:00 | 00:00:00 | 00:00:00 | |
| DL1XH-west | 2026-09-05 02:26:53 | 51.85715 | 8.73780 | 105° | 89km/h | 5271m | -3.2m/s | -14.6°C | 14.3% | 530hPa | 2.6V | 07:27:59 | 03:07:58 | 00:00:00 | |
| DO2JMG | 2026-09-05 02:26:52 | 51.85721 | 8.73744 | 105° | 89km/h | 5274m | -3m/s | -14.7°C | 14.3% | 529.7hPa | 2.6V | 07:27:59 | 03:07:57 | 00:00:00 | |
| DO9LL-15 | 2026-09-05 02:26:52 | 51.85721 | 8.73744 | 106° | 89km/h | 5275m | -2.9m/s | -14.6°C | 12.8% | 529.7hPa | 2.6V | 00:00:00 | 03:07:57 | 00:00:00 | |
| DD1CC3-15 | 2026-09-05 02:26:50 | 51.85727 | 8.73709 | 106° | 89km/h | 5278m | -3.1m/s | -14.7°C | 12.2% | 529.5hPa | 2.6V | 07:27:00 | 00:00:00 | 00:00:00 | |
| DM0DOS-11 | 2026-09-05 02:26:49 | 51.85770 | 8.73460 | 105° | 89km/h | 5298m | -3m/s | -14.8°C | 12% | 528hPa | 2.6V | 07:28:01 | 03:07:49 | 00:00:00 | |
| HSKMA3-T | 2026-09-05 02:26:47 | 51.85751 | 8.73567 | 106° | 89km/h | 5290m | -3m/s | -14.7°C | 14% | 528.6hPa | 2.6V | 07:27:59 | 03:07:52 | 00:00:00 | |
| DL1XH-west | 2026-09-05 02:26:42 | 51.85782 | 8.73389 | 106° | 89km/h | 5304m | -2.9m/s | -14.8°C | 12.8% | 527.6hPa | 2.6V | 07:28:50 | 03:07:47 | 00:00:00 | |
| DB0DAN | 2026-09-05 02:26:40 | 51.85794 | 8.73318 | 105° | 86km/h | 5311m | -3.3m/s | -14.9°C | 10.8% | 527.24hPa | 2.6V | 00:00:00 | 00:00:00 | 00:00:00 | |
| DM0DOS-11 | 2026-09-05 02:26:39 | 51.85830 | 8.73104 | 104° | 89km/h | 5329m | -3.3m/s | -15°C | 11.4% | 525.9hPa | 2.6V | 07:28:11 | 03:07:39 | 00:00:00 | |
| HSKMA3-T | 2026-09-05 02:26:36 | 51.85818 | 8.73175 | 105° | 89km/h | 5323m | -3.1m/s | -15°C | 12.7% | 526.3hPa | 2.6V | 07:28:50 | 03:07:41 | 00:00:00 | |
| DL1XH-west | 2026-09-05 02:26:32 | 51.85842 | 8.73033 | 105° | 89km/h | 5336m | -2.9m/s | -15.1°C | 12.6% | 525.4hPa | 2.6V | 07:28:50 | 03:07:37 | 00:00:00 | |
| BIOWL1-15 | 2026-09-05 02:26:31 | 51.85847 | 8.72997 | 105° | 91km/h | 5339m | -3.2m/s | -15.1°C | 12.7% | 525.2hPa | 2.6V | 07:28:50 | 03:07:36 | 00:00:00 | |
| DM0DOS-11 | 2026-09-05 02:26:29 | 51.85886 | 8.72747 | 103° | 89km/h | 5360m | -3m/s | -15.3°C | 11.4% | 523.8hPa | 2.6V | 07:28:21 | 03:07:29 | 00:00:00 | |
| HSKMA3-T | 2026-09-05 02:26:26 | 51.85876 | 8.72818 | 104° | 89km/h | 5353m | -3m/s | -15.2°C | 12.5% | 524.2hPa | 2.6V | 07:28:50 | 03:07:31 | 00:00:00 | |
| DL1XH-west | 2026-09-05 02:26:21 | 51.85903 | 8.72639 | 103° | 89km/h | 5368m | -3.1m/s | -15.4°C | 12.5% | 523.2hPa | 2.6V | 07:28:50 | 03:07:26 | 00:00:00 | |
| BIOWL1-15 | 2026-09-05 02:26:20 | 51.85908 | 8.72603 | 103° | 89km/h | 5371m | -3m/s | -15.4°C | 12.5% | 522.9hPa | 2.6V | 07:28:50 | 03:07:25 | 00:00:00 | |
| HSKMA3-T | 2026-09-05 02:26:15 | 51.85934 | 8.72424 | 103° | 91km/h | 5386m | -3m/s | -15.5°C | 13% | 521.9hPa | 2.6V | 07:28:50 | 03:07:20 | 00:00:00 | |
| DL1XH-west | 2026-09-05 02:26:11 | 51.85955 | 8.72279 | 103° | 91km/h | 5399m | -2.9m/s | -15.6°C | 14.5% | 521hPa | 2.5V | 07:28:50 | 03:07:16 | 00:00:00 | |
| DB0DAN | 2026-09-05 02:26:10 | 51.85961 | 8.72242 | 104° | 88km/h | 5401m | -3m/s | -15.6°C | 12.4% | 520.88hPa | 2.6V | 00:00:00 | 00:00:00 | 00:00:00 | |
| DO2JMG | 2026-09-05 02:26:10 | 51.85961 | 8.72242 | 104° | 91km/h | 5401m | -3m/s | -15.6°C | 14.5% | 520.9hPa | 2.6V | 07:28:50 | 03:07:15 | 00:00:00 | |
| HSKMA3-T | 2026-09-05 02:26:04 | 51.85995 | 8.72025 | 105° | 91km/h | 5420m | -3m/s | -15.7°C | 14.7% | 519.6hPa | 2.6V | 07:28:50 | 03:07:09 | 00:00:00 | |
| DL1XH-west | 2026-09-05 02:26:01 | 51.86012 | 8.71916 | 104° | 93km/h | 5429m | -3m/s | -15.8°C | 14.2% | 519hPa | 2.6V | 07:28:50 | 03:07:06 | 00:00:00 | |
| DM0DOS-11 | 2026-09-05 02:25:59 | 51.86052 | 8.71659 | 103° | 93km/h | 5450m | -3m/s | -15.9°C | 12.9% | 517.5hPa | 2.6V | 07:28:51 | 03:06:59 | 00:00:00 | |
| DO2JMG | 2026-09-05 02:25:59 | 51.86024 | 8.71843 | 105° | 93km/h | 5435m | -2.9m/s | -15.8°C | 14.3% | 518.6hPa | 2.5V | 07:28:50 | 03:07:04 | 00:00:00 | |
| BUE01 | 2026-09-05 02:25:57 | 51.86035 | 8.71769 | 103° | 91km/h | 5441m | -2.9m/s | -15.8°C | 12.3% | 518.1hPa | 2.6V | 00:00:00 | 00:00:00 | 00:00:00 | |
| DB0DAN | 2026-09-05 02:25:55 | 51.86046 | 8.71696 | 104° | 88km/h | 5447m | -3.2m/s | -15.9°C | 12.3% | 517.74hPa | 2.6V | 00:00:00 | 00:00:00 | 00:00:00 | |
| HSKMA3-T | 2026-09-05 02:25:53 | 51.86057 | 8.71623 | 104° | 91km/h | 5453m | -3.4m/s | -15.9°C | 14.3% | 517.3hPa | 2.6V | 07:29:41 | 03:06:58 | 00:00:00 | |
| DL1XH-west | 2026-09-05 02:25:50 | 51.86073 | 8.71513 | 103° | 93km/h | 5462m | -3m/s | -16°C | 14.3% | 516.7hPa | 2.6V | 07:29:41 | 03:06:55 | 00:00:00 | |
| DM0DOS-11 | 2026-09-05 02:25:49 | 51.86105 | 8.71292 | 103° | 93km/h | 5480m | -3m/s | -16.2°C | 12.9% | 515.4hPa | 2.6V | 07:29:01 | 03:06:49 | 00:00:00 | |
| BIOWL1-15 | 2026-09-05 02:25:49 | 51.86079 | 8.71476 | 103° | 93km/h | 5465m | -3.2m/s | -16°C | 14.2% | 516.5hPa | 2.6V | 07:29:41 | 03:06:54 | 00:00:00 | |
| DO2JMG | 2026-09-05 02:25:48 | 51.86084 | 8.71439 | 103° | 93km/h | 5468m | -3.4m/s | -16.1°C | 14.2% | 516.3hPa | 2.6V | 07:29:41 | 03:06:53 | 00:00:00 | |
| DL1ZP-14 | 2026-09-05 02:25:47 | 51.86089 | 8.71403 | 102° | 91km/h | 5471m | -3.0m/s | -16.1°C | 12.2% | 516.0hPa | 2.6V | 00:00:00 | 00:00:00 | 00:00:00 | |
| DL3AQ-11 | 2026-09-05 02:25:46 | 51.86100 | 8.71329 | 103° | 91km/h | 5478m | -3.0m/s | -16.1°C | 12.2% | 515.7hPa | 2.6V | 00:00:00 | 00:00:00 | 00:00:00 | |
| HSKMA3-T | 2026-09-05 02:25:42 | 51.86116 | 8.71219 | 103° | 93km/h | 5486m | -2.9m/s | -16.2°C | 14.4% | 515hPa | 2.6V | 07:29:41 | 03:06:47 | 00:00:00 | |
| DB0DAN | 2026-09-05 02:25:40 | 51.86127 | 8.71145 | 104° | 89km/h | 5492m | -3.3m/s | -16.3°C | 12.2% | 514.69hPa | 2.6V | 00:00:00 | 00:00:00 | 00:00:00 | |
| DL1XH-west | 2026-09-05 02:25:40 | 51.86127 | 8.71145 | 104° | 93km/h | 5492m | -3.3m/s | -16.3°C | 14.4% | 514.7hPa | 2.6V | 07:29:41 | 03:06:45 | 00:00:00 | |
| DM0DOS-11 | 2026-09-05 02:25:39 | 51.86160 | 8.70923 | 103° | 93km/h | 5511m | -2.7m/s | -16.4°C | 12.6% | 513.4hPa | 2.6V | 07:29:11 | 03:06:39 | 00:00:00 | |
| DO2JMG | 2026-09-05 02:25:38 | 51.86138 | 8.71071 | 104° | 93km/h | 5499m | -3.1m/s | -16.3°C | 14.1% | 514.2hPa | 2.6V | 07:29:41 | 03:06:43 | 00:00:00 | |
| HSKMA3-T | 2026-09-05 02:25:32 | 51.86171 | 8.70849 | 104° | 93km/h | 5517m | -3m/s | -16.5°C | 14.2% | 513hPa | 2.5V | 07:29:41 | 03:06:37 | 00:00:00 | |
| DL1XH-west | 2026-09-05 02:25:30 | 51.86181 | 8.70775 | 103° | 91km/h | 5523m | -2.8m/s | -16.5°C | 14.3% | 512.6hPa | 2.6V | 07:29:41 | 03:06:35 | 00:00:00 | |
| BIOWL1-15 | 2026-09-05 02:25:27 | 51.86197 | 8.70665 | 103° | 93km/h | 5532m | -3.2m/s | -16.6°C | 14.5% | 511.9hPa | 2.6V | 07:29:41 | 03:06:32 | 00:00:00 | |
| DB0DAN | 2026-09-05 02:25:25 | 51.86207 | 8.70591 | 102° | 88km/h | 5538m | -3.1m/s | -16.7°C | 12.4% | 511.52hPa | 2.5V | 00:00:00 | 00:00:00 | 00:00:00 | |
| HSKMA3-T | 2026-09-05 02:25:21 | 51.86228 | 8.70442 | 103° | 93km/h | 5550m | -3.1m/s | -16.8°C | 14.5% | 510.8hPa | 2.6V | 07:29:41 | 03:06:26 | 00:00:00 | |
| DL1XH-west | 2026-09-05 02:25:20 | 51.86233 | 8.70405 | 103° | 93km/h | 5553m | -2.9m/s | -16.8°C | 14.6% | 510.6hPa | 2.6V | 07:29:41 | 03:06:25 | 00:00:00 | |
| BIOWL1-15 | 2026-09-05 02:25:16 | 51.86254 | 8.70256 | 103° | 93km/h | 5565m | -3m/s | -16.9°C | 14.6% | 509.7hPa | 2.6V | 07:29:41 | 03:06:21 | 00:00:00 | |
| DJ2DS-15 | 2026-09-05 02:25:15 | 51.86264 | 8.70182 | 102° | 93km/h | 5571m | -2.9m/s | -16.9°C | 12.3% | 509.3hPa | 2.6V | 00:00:00 | 00:00:00 | 00:00:00 | |
| GOEST3-10 | 2026-09-05 02:25:14 | 51.86264 | 8.70182 | 103° | 93km/h | 5571m | -2.9m/s | -16.9°C | 13.0% | 509.2hPa | 2.6V | 00:00:00 | 03:06:19 | 00:00:00 | |
| DJ2KF-10 | 2026-09-05 02:25:13 | 51.86269 | 8.70145 | 103° | 102km/h | 5574m | -3.1m/s | -16.9°C | 12.9% | 509.1hPa | 2.6V | 00:00:00 | 03:06:18 | 00:00:00 | |
| DB0DAN | 2026-09-05 02:25:10 | 51.86285 | 8.70033 | 102° | 89km/h | 5583m | -3.3m/s | -17°C | 12% | 508.6hPa | 2.6V | 00:00:00 | 00:00:00 | 00:00:00 | |
| HSKMA3-T | 2026-09-05 02:25:10 | 51.86285 | 8.70033 | 102° | 93km/h | 5583m | -3.3m/s | -17°C | 14% | 508.6hPa | 2.6V | 07:29:41 | 03:06:15 | 00:00:00 | |
| DM0DOS-11 | 2026-09-05 02:25:09 | 51.86314 | 8.69809 | 101° | 93km/h | 5600m | -2.8m/s | -17.2°C | 12.6% | 507.3hPa | 2.5V | 07:29:41 | 03:06:09 | 00:00:00 | |
| DL1XH-west | 2026-09-05 02:25:09 | 51.86290 | 8.69996 | 102° | 93km/h | 5586m | -2.9m/s | -17.1°C | 14% | 508.3hPa | 2.6V | 07:29:41 | 03:06:14 | 00:00:00 | |
| BIOWL1-15 | 2026-09-05 02:25:06 | 51.86304 | 8.69884 | 102° | 93km/h | 5594m | -2.7m/s | -17.1°C | 13.9% | 507.7hPa | 2.6V | 07:29:41 | 03:06:11 | 00:00:00 | |
| DL4BBY-15 | 2026-09-05 02:25:06 | 51.86304 | 8.69884 | 103° | 93km/h | 5594m | -2.7m/s | -17.1°C | 0% | 0hPa | 2.6V | 00:00:00 | 00:00:00 | 00:00:00 | |
| SONCRA | 2026-09-05 02:25:05 | 51.86309 | 8.69847 | 101° | 93km/h | 5597m | -3.1m/s | -17.2°C | 11.9% | 507.5hPa | 2.6V | 00:00:00 | 00:00:00 | 00:00:00 | |
| GOEST3-10 | 2026-09-05 02:25:04 | 51.86314 | 8.69809 | 102° | 93km/h | 5600m | -2.7m/s | -17.1°C | 12.6% | 507.3hPa | 2.6V | 00:00:00 | 03:06:09 | 00:00:00 | |
| DD1CC1-15 | 2026-09-05 02:25:03 | 51.86314 | 8.69809 | 103° | 93km/h | 5600m | -2.8m/s | -17.2°C | 11.9% | 507.3hPa | 2.6V | 07:29:00 | 00:00:00 | 00:00:00 | |
| DM0DOS-11 | 2026-09-05 02:24:59 | 51.86359 | 8.69434 | 100° | 93km/h | 5630m | -3m/s | -17.4°C | 12.3% | 505.3hPa | 2.6V | 07:29:51 | 03:05:59 | 00:00:00 | |
| DL1XH-west | 2026-09-05 02:24:59 | 51.86337 | 8.69622 | 101° | 93km/h | 5615m | -3.1m/s | -17.3°C | 13.7% | 506.3hPa | 2.6V | 07:30:32 | 03:06:04 | 00:00:00 | |
| DC4HF-4 | 2026-09-05 02:24:56 | 51.86350 | 8.69509 | 100° | 93km/h | 5624m | -3.0m/s | -17.4°C | 11.7% | 505.7hPa | 2.6V | 00:00:00 | 00:00:00 | 00:00:00 | |
| DB0DAN | 2026-09-05 02:24:55 | 51.86355 | 8.69472 | 100° | 89km/h | 5627m | -3.1m/s | -17.4°C | 11.7% | 505.41hPa | 2.6V | 00:00:00 | 00:00:00 | 00:00:00 | |
| DO2JMG | 2026-09-05 02:24:55 | 51.86355 | 8.69472 | 101° | 93km/h | 5627m | -3.1m/s | -17.4°C | 13.6% | 505.4hPa | 2.6V | 07:30:32 | 03:06:00 | 00:00:00 | |
| DL4XJ-10 | 2026-09-05 02:24:55 | 51.86355 | 8.69471 | 101° | 95km/h | 5628m | -3.0m/s | -17.3°C | 0% | 0hPa | 2.6V | 00:00:00 | 00:00:00 | 00:00:00 | |
| DO9LL-15 | 2026-09-05 02:24:52 | 51.86368 | 8.69359 | 101° | 95km/h | 5636m | -2.8m/s | -17.4°C | 12.3% | 504.8hPa | 2.6V | 00:00:00 | 03:05:57 | 00:00:00 | |
| DO3DL | 2026-09-05 02:24:51 | 51.86367 | 8.69359 | 101° | 93km/h | 5636m | -2.9m/s | -17.4°C | 11.6% | 504.8hPa | 2.5V | 07:30:00 | 00:00:00 | 00:00:00 | |
| DM0DOS-11 | 2026-09-05 02:24:50 | 51.86401 | 8.69056 | 100° | 95km/h | 5660m | -3m/s | -17.6°C | 13.7% | 503.3hPa | 2.5V | 07:30:01 | 03:05:49 | 00:00:00 | |
| DL1XH-west | 2026-09-05 02:24:48 | 51.86384 | 8.69208 | 100° | 95km/h | 5648m | -2.7m/s | -17.5°C | 14.9% | 504.1hPa | 2.6V | 07:30:32 | 03:05:53 | 00:00:00 | |
| BIOWL1-15 | 2026-09-05 02:24:45 | 51.86397 | 8.69094 | 100° | 95km/h | 5657m | -2.9m/s | -17.6°C | 15.1% | 503.6hPa | 2.6V | 07:30:32 | 03:05:50 | 00:00:00 | |
| DO2JMG | 2026-09-05 02:24:45 | 51.86401 | 8.69056 | 101° | 95km/h | 5660m | -3m/s | -17.6°C | 15.2% | 503.3hPa | 2.5V | 07:30:32 | 03:05:49 | 00:00:00 | |
| DO3DL | 2026-09-05 02:24:44 | 51.86397 | 8.69093 | 101° | 95km/h | 5657m | -2.9m/s | -17.6°C | 12.9% | 503.5hPa | 2.6V | 07:30:00 | 00:00:00 | 00:00:00 | |
| DD1CC1-15 | 2026-09-05 02:24:42 | 51.86406 | 8.69018 | 102° | 95km/h | 5663m | -3.4m/s | -17.6°C | 12.9% | 503.0hPa | 2.6V | 07:30:00 | 00:00:00 | 00:00:00 | |
| GOEST3-10 | 2026-09-05 02:24:41 | 51.86414 | 8.68942 | 101° | 95km/h | 5669m | -3.0m/s | -17.6°C | 13.7% | 502.7hPa | 2.6V | 00:00:00 | 03:05:46 | 00:00:00 | |
| DM0DOS-11 | 2026-09-05 02:24:40 | 51.86444 | 8.68675 | 99° | 95km/h | 5691m | -3.2m/s | -17.8°C | 14.1% | 501.3hPa | 2.6V | 07:30:11 | 03:05:39 | 00:00:00 | |
| DB0DAN | 2026-09-05 02:24:40 | 51.86419 | 8.68904 | 101° | 89km/h | 5672m | -3.1m/s | -17.7°C | 12.9% | 502.48hPa | 2.6V | 00:00:00 | 00:00:00 | 00:00:00 | |
| DL1XH-west | 2026-09-05 02:24:40 | 51.86428 | 8.68828 | 101° | 93km/h | 5678m | -3m/s | -17.7°C | 15.3% | 502.1hPa | 2.6V | 07:30:32 | 03:05:43 | 00:00:00 | |
| HSKMA3-T | 2026-09-05 02:24:40 | 51.86432 | 8.68790 | 100° | 95km/h | 5681m | -3.3m/s | -17.7°C | 15.5% | 501.9hPa | 2.5V | 07:30:32 | 03:05:42 | 00:00:00 | |
| BIOWL1-15 | 2026-09-05 02:24:39 | 51.86440 | 8.68714 | 100° | 95km/h | 5688m | -2.9m/s | -17.8°C | 15.6% | 501.5hPa | 2.6V | 07:30:32 | 03:05:40 | 00:00:00 | |
| DO2JMG | 2026-09-05 02:24:35 | 51.86444 | 8.68675 | 99° | 95km/h | 5691m | -3.2m/s | -17.8°C | 15.5% | 501.3hPa | 2.6V | 07:30:32 | 03:05:39 | 00:00:00 | |
| DL4XJ-10 | 2026-09-05 02:24:35 | 51.86440 | 8.68714 | 100° | 95km/h | 5688m | -2.9m/s | -17.7°C | 0% | 0hPa | 2.6V | 00:00:00 | 00:00:00 | 00:00:00 | |
| SONCRA | 2026-09-05 02:24:34 | 51.86444 | 8.68675 | 99° | 93km/h | 5691m | -3.2m/s | -17.8°C | 13.3% | 501.3hPa | 2.6V | 00:00:00 | 00:00:00 | 00:00:00 | |
| GOEST3-10 | 2026-09-05 02:24:31 | 51.86455 | 8.68560 | 99° | 95km/h | 5700m | -2.8m/s | -17.8°C | 13.9% | 500.7hPa | 2.6V | 00:00:00 | 03:05:36 | 00:00:00 | |
| DM0DOS-11 | 2026-09-05 02:24:29 | 51.86482 | 8.68293 | 99° | 95km/h | 5721m | -3m/s | -17.9°C | 13.5% | 499.3hPa | 2.6V | 07:30:21 | 03:05:29 | 00:00:00 | |
| DL1XH-west | 2026-09-05 02:24:28 | 51.86470 | 8.68407 | 99° | 95km/h | 5712m | -3.1m/s | -17.9°C | 15.2% | 499.9hPa | 2.6V | 07:30:32 | 03:05:32 | 00:00:00 | |
| DB0DAN | 2026-09-05 02:24:25 | 51.86478 | 8.68331 | 100° | 89km/h | 5718m | -3m/s | -17.9°C | 12.7% | 499.41hPa | 2.5V | 00:00:00 | 00:00:00 | 00:00:00 | |
| BIOWL1-15 | 2026-09-05 02:24:24 | 51.86482 | 8.68293 | 100° | 95km/h | 5721m | -3m/s | -17.9°C | 14.9% | 499.3hPa | 2.6V | 07:30:32 | 03:05:29 | 00:00:00 | |
| GOEST3-10 | 2026-09-05 02:24:24 | 51.86482 | 8.68293 | 100° | 95km/h | 5721m | -2.9m/s | -17.9°C | 13.5% | 499.2hPa | 2.6V | 00:00:00 | 00:00:00 | 00:00:00 | |
| DO9LL-15 | 2026-09-05 02:24:22 | 51.86490 | 8.68217 | 100° | 97km/h | 5727m | -3.2m/s | -17.9°C | 13.4% | 498.8hPa | 2.5V | 00:00:00 | 03:05:27 | 00:00:00 | |
| DD1CC1-15 | 2026-09-05 02:24:21 | 51.86490 | 8.68217 | 101° | 95km/h | 5727m | -3.2m/s | -18.0°C | 12.6% | 498.9hPa | 2.5V | 07:30:00 | 00:00:00 | 00:00:00 | |
| DC4HF-4 | 2026-09-05 02:24:20 | 51.86502 | 8.68101 | 98° | 95km/h | 5736m | -2.9m/s | -18.0°C | 12.7% | 498.1hPa | 2.5V | 00:00:00 | 00:00:00 | 00:00:00 | |
| DM0DOS-11 | 2026-09-05 02:24:19 | 51.86520 | 8.67906 | 98° | 97km/h | 5751m | -2.9m/s | -18.1°C | 13.7% | 497.2hPa | 2.5V | 07:30:31 | 03:05:19 | 00:00:00 | |
| HSKMA3-T | 2026-09-05 02:24:17 | 51.86509 | 8.68023 | 98° | 97km/h | 5742m | -3m/s | -18.1°C | 14.9% | 497.9hPa | 2.6V | 07:30:32 | 03:05:22 | 00:00:00 | |
| DL1XH-west | 2026-09-05 02:24:16 | 51.86513 | 8.67984 | 98° | 97km/h | 5745m | -3m/s | -18.1°C | 15% | 497.6hPa | 2.6V | 07:30:32 | 03:05:21 | 00:00:00 | |
| BIOWL1-15 | 2026-09-05 02:24:14 | 51.86520 | 8.67906 | 98° | 97km/h | 5751m | -2.9m/s | -18.1°C | 15.1% | 497.2hPa | 2.5V | 07:30:32 | 03:05:19 | 00:00:00 | |
| DO2JMG | 2026-09-05 02:24:13 | 51.86523 | 8.67867 | 99° | 95km/h | 5754m | -2.7m/s | -18.1°C | 15% | 497hPa | 2.5V | 07:30:32 | 03:05:18 | 00:00:00 | |
| DB0DAN | 2026-09-05 02:24:10 | 51.86534 | 8.67751 | 98° | 91km/h | 5763m | -2.9m/s | -18.2°C | 12.2% | 496.41hPa | 2.6V | 00:00:00 | 00:00:00 | 00:00:00 | |
| DM0DOS-11 | 2026-09-05 02:24:09 | 51.86556 | 8.67519 | 99° | 97km/h | 5781m | -3m/s | -18.3°C | 12.6% | 495.3hPa | 2.6V | 07:30:41 | 03:05:09 | 00:00:00 | |
| HSKMA3-T | 2026-09-05 02:24:07 | 51.86544 | 8.67635 | 99° | 95km/h | 5772m | -2.9m/s | -18.2°C | 13.9% | 495.8hPa | 2.5V | 07:31:23 | 03:05:12 | 00:00:00 | |
| DL1XH-west | 2026-09-05 02:24:05 | 51.86552 | 8.67558 | 99° | 95km/h | 5778m | -2.7m/s | -18.2°C | 13.8% | 495.5hPa | 2.5V | 07:31:23 | 03:05:10 | 00:00:00 | |
| DL1XH-15 | 2026-09-05 02:24:04 | 51.86575 | 8.67323 | 98° | 99km/h | 5795m | -2.9m/s | -18.3°C | 12.3% | 494.2hPa | 2.6V | 07:30:46 | 03:05:04 | 00:00:00 | |
| BIOWL1-15 | 2026-09-05 02:24:04 | 51.86556 | 8.67519 | 99° | 97km/h | 5781m | -3m/s | -18.3°C | 13.7% | 495.3hPa | 2.6V | 07:31:23 | 03:05:09 | 00:00:00 | |
| DO2JMG | 2026-09-05 02:24:02 | 51.86563 | 8.67441 | 99° | 97km/h | 5787m | -3m/s | -18.3°C | 13.7% | 494.8hPa | 2.6V | 07:31:23 | 03:05:07 | 00:00:00 | |
| DL3AQ-11 | 2026-09-05 02:24:02 | 51.86567 | 8.67402 | 98° | 97km/h | 5789m | -3.0m/s | -18.3°C | 11.7% | 494.7hPa | 2.5V | 00:00:00 | 00:00:00 | 00:00:00 | |
| DD1CC1-15 | 2026-09-05 02:24:00 | 51.86567 | 8.67402 | 99° | 97km/h | 5790m | -3.0m/s | -18.3°C | 11.7% | 494.7hPa | 2.5V | 07:31:00 | 00:00:00 | 00:00:00 | |
| DM0DOS-11 | 2026-09-05 02:23:59 | 51.86592 | 8.67122 | 97° | 100km/h | 5811m | -3m/s | -18.4°C | 11.8% | 493.3hPa | 2.5V | 07:30:51 | 03:04:59 | 00:00:00 | |
| HSKMA3-T | 2026-09-05 02:23:56 | 51.86585 | 8.67203 | 99° | 100km/h | 5805m | -2.9m/s | -18.4°C | 13.1% | 493.7hPa | 2.5V | 07:31:23 | 03:05:01 | 00:00:00 | |
| DB0DAN | 2026-09-05 02:23:55 | 51.86589 | 8.67162 | 98° | 95km/h | 5808m | -3m/s | -18.4°C | 11.1% | 493.41hPa | 2.5V | 00:00:00 | 00:00:00 | 00:00:00 | |
| DL1XH-west | 2026-09-05 02:23:54 | 51.86592 | 8.67122 | 98° | 100km/h | 5811m | -3m/s | -18.4°C | 12.9% | 493.3hPa | 2.5V | 07:31:23 | 03:04:59 | 00:00:00 | |
| BIOWL1-15 | 2026-09-05 02:23:53 | 51.86596 | 8.67081 | 98° | 100km/h | 5814m | -3m/s | -18.4°C | 12.8% | 493.1hPa | 2.6V | 07:31:23 | 03:04:58 | 00:00:00 | |
| DO2JMG | 2026-09-05 02:23:51 | 51.86602 | 8.66999 | 98° | 100km/h | 5820m | -3.3m/s | -18.5°C | 12.7% | 492.6hPa | 2.6V | 07:31:23 | 03:04:56 | 00:00:00 | |
| DM0DOS-11 | 2026-09-05 02:23:49 | 51.86628 | 8.66712 | 97° | 100km/h | 5840m | -3.1m/s | -18.6°C | 11.1% | 491.3hPa | 2.6V | 07:31:01 | 03:04:49 | 00:00:00 | |
| HSKMA3-T | 2026-09-05 02:23:45 | 51.86625 | 8.66753 | 98° | 100km/h | 5837m | -3m/s | -18.6°C | 12% | 491.5hPa | 2.6V | 07:31:23 | 03:04:50 | 00:00:00 | |
| DL1XH-west | 2026-09-05 02:23:43 | 51.86632 | 8.66671 | 97° | 100km/h | 5843m | -2.9m/s | -18.6°C | 11.8% | 491.1hPa | 2.5V | 07:31:23 | 03:04:48 | 00:00:00 | |
| BIOWL1-15 | 2026-09-05 02:23:42 | 51.86635 | 8.66631 | 98° | 100km/h | 5846m | -3m/s | -18.6°C | 11.6% | 490.8hPa | 2.5V | 07:31:23 | 03:04:47 | 00:00:00 | |
| DO2JMG | 2026-09-05 02:23:41 | 51.86638 | 8.66590 | 98° | 100km/h | 5849m | -2.9m/s | -18.6°C | 11.1% | 490.7hPa | 2.6V | 07:31:23 | 03:04:46 | 00:00:00 | |
| DB0DAN | 2026-09-05 02:23:40 | 51.86642 | 8.66548 | 98° | 97km/h | 5852m | -2.9m/s | -18.6°C | 9.2% | 490.47hPa | 2.6V | 00:00:00 | 00:00:00 | 00:00:00 | |
| DM0DOS-11 | 2026-09-05 02:23:39 | 51.86663 | 8.66302 | 97° | 102km/h | 5870m | -3m/s | -18.7°C | 9.2% | 489.2hPa | 2.6V | 07:31:11 | 03:04:39 | 00:00:00 | |
| HSKMA3-T | 2026-09-05 02:23:34 | 51.86663 | 8.66302 | 98° | 102km/h | 5870m | -3m/s | -18.7°C | 9.6% | 489.2hPa | 2.6V | 07:31:23 | 03:04:39 | 00:00:00 | |
| DL1XH-west | 2026-09-05 02:23:32 | 51.86670 | 8.66219 | 98° | 102km/h | 5876m | -3.4m/s | -18.7°C | 10% | 488.9hPa | 2.6V | 07:31:23 | 03:04:37 | 00:00:00 | |
| DO2JMG | 2026-09-05 02:23:31 | 51.86673 | 8.66178 | 98° | 102km/h | 5879m | -3.2m/s | -18.7°C | 10.1% | 488.6hPa | 2.5V | 07:31:23 | 03:04:36 | 00:00:00 | |
| DM0DOS-11 | 2026-09-05 02:23:29 | 51.86696 | 8.65891 | 96° | 100km/h | 5901m | -3m/s | -18.8°C | 9.6% | 487.3hPa | 2.5V | 07:31:21 | 03:04:29 | 00:00:00 | |
| DF2AP-13 | 2026-09-05 02:23:29 | 51.86680 | 8.66096 | 98° | 100km/h | 5885m | -3.2m/s | -18.7°C | 9.5% | 488.2hPa | 2.5V | 07:31:00 | 03:04:34 | 00:00:00 | |
| DB0DAN | 2026-09-05 02:23:25 | 51.86693 | 8.65932 | 97° | 97km/h | 5898m | -2.9m/s | -18.8°C | 8.9% | 487.44hPa | 2.5V | 00:00:00 | 00:00:00 | 00:00:00 | |
| HSKMA3-T | 2026-09-05 02:23:23 | 51.86699 | 8.65850 | 98° | 100km/h | 5904m | -2.9m/s | -18.8°C | 10.2% | 487.1hPa | 2.6V | 07:31:23 | 03:04:28 | 00:00:00 | |
| BIOWL1-15 | 2026-09-05 02:23:22 | 51.86702 | 8.65809 | 97° | 100km/h | 5907m | -3m/s | -18.9°C | 10.3% | 486.9hPa | 2.6V | 07:31:23 | 03:04:27 | 00:00:00 | |
| DO2JMG | 2026-09-05 02:23:21 | 51.86706 | 8.65768 | 97° | 100km/h | 5910m | -2.9m/s | -18.9°C | 10.6% | 486.7hPa | 2.6V | 07:32:14 | 03:04:26 | 00:00:00 | |
| BIOWL1-15 | 2026-09-05 02:23:13 | 51.86734 | 8.65358 | 96° | 100km/h | 5940m | -3.1m/s | -19.2°C | 11.9% | 484.7hPa | 2.5V | 07:32:14 | 03:04:16 | 00:00:00 | |
| DL1XH-west | 2026-09-05 02:23:12 | 51.86732 | 8.65399 | 96° | 100km/h | 5937m | -3.1m/s | -19.1°C | 11.9% | 484.8hPa | 2.5V | 07:32:14 | 03:04:17 | 00:00:00 | |
| DB0DAN | 2026-09-05 02:23:10 | 51.86737 | 8.65317 | 96° | 97km/h | 5943m | -3.1m/s | -19.2°C | 10.3% | 484.51hPa | 2.6V | 00:00:00 | 00:00:00 | 00:00:00 | |
| DO2JMG | 2026-09-05 02:23:10 | 51.86737 | 8.65317 | 96° | 100km/h | 5943m | -3.1m/s | -19.2°C | 12% | 484.5hPa | 2.6V | 07:32:14 | 03:04:15 | 00:00:00 | |
| HSKMA3-T | 2026-09-05 02:23:02 | 51.86760 | 8.64988 | 97° | 102km/h | 5968m | -3m/s | -19.4°C | 12.6% | 482.9hPa | 2.5V | 07:32:14 | 03:04:07 | 00:00:00 | |
| DL1XH-west | 2026-09-05 02:23:01 | 51.86763 | 8.64947 | 97° | 102km/h | 5971m | -3.2m/s | -19.4°C | 12.7% | 482.7hPa | 2.5V | 07:32:14 | 03:04:06 | 00:00:00 | |
| BIOWL1-15 | 2026-09-05 02:23:00 | 51.86766 | 8.64905 | 97° | 102km/h | 5974m | -3.1m/s | -19.5°C | 12.7% | 482.5hPa | 2.5V | 07:32:14 | 03:04:05 | 00:00:00 | |
| DO2JMG | 2026-09-05 02:22:59 | 51.86769 | 8.64864 | 97° | 102km/h | 5977m | -3.3m/s | -19.5°C | 12.8% | 482.2hPa | 2.6V | 07:32:14 | 03:04:04 | 00:00:00 | |
| DF2AP-13 | 2026-09-05 02:22:59 | 51.86769 | 8.64864 | 97° | 104km/h | 5977m | -3.2m/s | -19.5°C | 11.7% | 482.2hPa | 2.5V | 00:00:00 | 03:04:04 | 00:00:00 | |
| DD1CC1-15 | 2026-09-05 02:22:58 | 51.86769 | 8.64864 | 97° | 102km/h | 5977m | -3.3m/s | -19.5°C | 10.9% | 482.2hPa | 2.5V | 07:32:00 | 00:00:00 | 00:00:00 | |
| DB0DAN | 2026-09-05 02:22:55 | 51.86780 | 8.64698 | 96° | 99km/h | 5990m | -3.1m/s | -19.6°C | 11.2% | 481.47hPa | 2.5V | 00:00:00 | 00:00:00 | 00:00:00 | |
| DL1XH-west | 2026-09-05 02:22:51 | 51.86792 | 8.64531 | 96° | 102km/h | 6003m | -3.1m/s | -19.7°C | 13.1% | 480.7hPa | 2.5V | 07:32:14 | 03:03:56 | 00:00:00 | |
| DJ2DS-15 | 2026-09-05 02:22:50 | 51.86795 | 8.64489 | 96° | 102km/h | 6005m | -2.9m/s | -19.7°C | 11.4% | 480.4hPa | 2.5V | 00:00:00 | 00:00:00 | 00:00:00 | |
| DM0DOS-11 | 2026-09-05 02:22:49 | 51.86813 | 8.64237 | 96° | 104km/h | 6024m | -3.2m/s | -19.9°C | 12.5% | 479.2hPa | 2.5V | 07:32:01 | 03:03:49 | 00:00:00 | |
| BIOWL1-15 | 2026-09-05 02:22:49 | 51.86798 | 8.64447 | 97° | 102km/h | 6009m | -3.1m/s | -19.8°C | 13.6% | 480.2hPa | 2.5V | 07:32:14 | 03:03:54 | 00:00:00 | |
| HSKMA3-T | 2026-09-05 02:22:41 | 51.86823 | 8.64110 | 97° | 106km/h | 6034m | -3.3m/s | -20°C | 13.5% | 478.6hPa | 2.6V | 07:32:14 | 03:03:46 | 00:00:00 | |
| DB0DAN | 2026-09-05 02:22:40 | 51.86826 | 8.64067 | 97° | 100km/h | 6037m | -3m/s | -20°C | 11.5% | 478.45hPa | 2.5V | 00:00:00 | 00:00:00 | 00:00:00 | |
| DL1XH-west | 2026-09-05 02:22:40 | 51.86826 | 8.64067 | 97° | 104km/h | 6037m | -3m/s | -20°C | 13.4% | 478.4hPa | 2.5V | 07:32:14 | 03:03:45 | 00:00:00 | |
| DO2JMG | 2026-09-05 02:22:39 | 51.86829 | 8.64024 | 97° | 106km/h | 6040m | -3.2m/s | -20°C | 13.3% | 478.3hPa | 2.5V | 07:32:14 | 03:03:44 | 00:00:00 | |
| DL1XH-west | 2026-09-05 02:22:30 | 51.86855 | 8.63642 | 97° | 104km/h | 6069m | -3.1m/s | -20.2°C | 13.2% | 476.4hPa | 2.6V | 07:33:05 | 03:03:35 | 00:00:00 | |
| DO2JMG | 2026-09-05 02:22:28 | 51.86862 | 8.63557 | 97° | 104km/h | 6075m | -3.1m/s | -20.2°C | 13.1% | 476.1hPa | 2.5V | 07:33:05 | 03:03:33 | 00:00:00 | |
| DB0DAN | 2026-09-05 02:22:25 | 51.86871 | 8.63430 | 97° | 100km/h | 6084m | -3.3m/s | -20.3°C | 11.2% | 475.45hPa | 2.6V | 00:00:00 | 00:00:00 | 00:00:00 | |
| DO3DL | 2026-09-05 02:22:24 | 51.86871 | 8.63430 | 98° | 104km/h | 6084m | -3.3m/s | -20.3°C | 11.2% | 475.5hPa | 2.6V | 07:33:00 | 00:00:00 | 00:00:00 | |
| GOEST3-10 | 2026-09-05 02:22:22 | 51.86880 | 8.63302 | 97° | 106km/h | 6094m | -3.0m/s | -20.3°C | 12.0% | 474.7hPa | 2.6V | 00:00:00 | 03:03:27 | 00:00:00 | |
| DD1CC8 | 2026-09-05 02:22:20 | 51.86890 | 8.63174 | 96° | 104km/h | 6103m | -3.4m/s | -20.4°C | 11.0% | 474.2hPa | 2.6V | 00:00:00 | 00:00:00 | 00:00:00 | |
| DM0DOS-11 | 2026-09-05 02:22:19 | 51.86906 | 8.62961 | 97° | 106km/h | 6119m | -3.2m/s | -20.5°C | 11.8% | 473.2hPa | 2.6V | 07:32:31 | 03:03:19 | 00:00:00 | |
| DL1XH-west | 2026-09-05 02:22:19 | 51.86890 | 8.63174 | 97° | 106km/h | 6103m | -3.4m/s | -20.4°C | 12.9% | 474.2hPa | 2.6V | 07:33:05 | 03:03:24 | 00:00:00 | |
| BIOWL1-15 | 2026-09-05 02:22:18 | 51.86893 | 8.63131 | 97° | 106km/h | 6107m | -3.2m/s | -20.4°C | 12.9% | 474hPa | 2.5V | 07:33:05 | 03:03:23 | 00:00:00 | |
| DO2JMG | 2026-09-05 02:22:17 | 51.86896 | 8.63088 | 97° | 104km/h | 6110m | -2.8m/s | -20.5°C | 12.9% | 473.8hPa | 2.5V | 07:33:05 | 03:03:22 | 00:00:00 | |
| DL4XJ-10 | 2026-09-05 02:22:15 | 51.86902 | 8.63003 | 98° | 106km/h | 6115m | -3.3m/s | -20.5°C | 0% | 0hPa | 2.6V | 00:00:00 | 00:00:00 | 00:00:00 | |
| DJ2DS-15 | 2026-09-05 02:22:14 | 51.86906 | 8.62960 | 97° | 104km/h | 6119m | -3.2m/s | -20.5°C | 11.0% | 473.2hPa | 2.6V | 00:00:00 | 00:00:00 | 00:00:00 | |
| DO2KSM | 2026-09-05 02:22:13 | 51.86906 | 8.62960 | 98° | 106km/h | 6119m | -3.2m/s | -20.5°C | 11.0% | 473.2hPa | 2.6V | 07:33:00 | 00:00:00 | 00:00:00 | |
| DB0DAN | 2026-09-05 02:22:10 | 51.86920 | 8.62789 | 98° | 100km/h | 6132m | -3.3m/s | -20.6°C | 10.9% | 472.35hPa | 2.6V | 00:00:00 | 00:00:00 | 00:00:00 | |
| DL1ZP-14 | 2026-09-05 02:22:10 | 51.86923 | 8.62746 | 97° | 104km/h | 6135m | -3.2m/s | -20.7°C | 10.9% | 472.2hPa | 2.6V | 00:00:00 | 00:00:00 | 00:00:00 | |
| DM0DOS-11 | 2026-09-05 02:22:09 | 51.86940 | 8.62533 | 97° | 104km/h | 6151m | -3m/s | -20.7°C | 11.4% | 471.1hPa | 2.6V | 07:32:41 | 03:03:09 | 00:00:00 | |
| DL1XH-west | 2026-09-05 02:22:09 | 51.86923 | 8.62746 | 97° | 106km/h | 6135m | -3.2m/s | -20.7°C | 12.8% | 472.2hPa | 2.6V | 07:33:05 | 03:03:14 | 00:00:00 | |
| DO2JMG | 2026-09-05 02:22:07 | 51.86930 | 8.62661 | 97° | 106km/h | 6141m | -3.5m/s | -20.7°C | 12.7% | 471.8hPa | 2.5V | 07:33:05 | 03:03:12 | 00:00:00 | |
| DL4BBY-15 | 2026-09-05 02:22:06 | 51.86934 | 8.62619 | 98° | 104km/h | 6144m | -3.2m/s | -20.7°C | 0% | 0hPa | 2.6V | 00:00:00 | 00:00:00 | 00:00:00 | |
| DO3DL | 2026-09-05 02:22:04 | 51.86937 | 8.62576 | 98° | 106km/h | 6148m | -3.5m/s | -20.7°C | 10.7% | 471.4hPa | 2.6V | 07:33:00 | 00:00:00 | 00:00:00 | |
| BIOWL9-15 | 2026-09-05 02:22:03 | 51.86944 | 8.62491 | 97° | 104km/h | 6154m | -3.2m/s | -20.8°C | 10.6% | 470.9hPa | 2.6V | 00:00:00 | 00:00:00 | 00:00:00 | |
| DL3AQ-11 | 2026-09-05 02:22:02 | 51.86951 | 8.62406 | 97° | 104km/h | 6160m | -3.4m/s | -20.8°C | 10.6% | 470.5hPa | 2.6V | 00:00:00 | 00:00:00 | 00:00:00 | |
| DM0DOS-11 | 2026-09-05 02:21:59 | 51.86975 | 8.62108 | 97° | 106km/h | 6184m | -3.5m/s | -21°C | 11.3% | 469hPa | 2.6V | 07:32:51 | 03:02:59 | 00:00:00 | |
| DL1XH-west | 2026-09-05 02:21:58 | 51.86961 | 8.62279 | 97° | 106km/h | 6170m | -3.5m/s | -20.9°C | 12.3% | 469.9hPa | 2.6V | 07:33:05 | 03:03:03 | 00:00:00 | |
| DO2JMG | 2026-09-05 02:21:57 | 51.86964 | 8.62237 | 97° | 104km/h | 6174m | -3.4m/s | -20.9°C | 12.2% | 469.7hPa | 2.5V | 07:33:05 | 03:03:02 | 00:00:00 | |
| DC4HF-4 | 2026-09-05 02:21:56 | 51.86971 | 8.62151 | 97° | 104km/h | 6180m | -3.4m/s | -21.0°C | 10.3% | 469.3hPa | 2.6V | 00:00:00 | 00:00:00 | 00:00:00 | |
| DB0DAN | 2026-09-05 02:21:55 | 51.86971 | 8.62151 | 98° | 100km/h | 6180m | -3.4m/s | -21°C | 10.3% | 469.29hPa | 2.6V | 00:00:00 | 00:00:00 | 00:00:00 | |
| DL4XJ-10 | 2026-09-05 02:21:55 | 51.86971 | 8.62151 | 98° | 104km/h | 6180m | -3.3m/s | -21.0°C | 0% | 0hPa | 2.6V | 00:00:00 | 00:00:00 | 00:00:00 | |
| DL1LOL-11 | 2026-09-05 02:21:54 | 51.86971 | 8.62151 | 99° | 106km/h | 6180m | -3.4m/s | -21.0°C | 10.3% | 469.3hPa | 2.6V | 00:00:00 | 00:00:00 | 00:00:00 | |
| DO2KSM | 2026-09-05 02:21:52 | 51.86978 | 8.62066 | 98° | 106km/h | 6187m | -3.1m/s | -21.1°C | 10.5% | 468.9hPa | 2.6V | 07:33:00 | 00:00:00 | 00:00:00 | |
| DO3DL | 2026-09-05 02:21:51 | 51.86982 | 8.62023 | 98° | 104km/h | 6190m | -3.1m/s | -21.1°C | 10.6% | 468.7hPa | 2.6V | 07:33:00 | 00:00:00 | 00:00:00 | |
| BIOWL7-15 | 2026-09-05 02:21:50 | 51.86985 | 8.61980 | 98° | 106km/h | 6194m | -3.3m/s | -21.1°C | 10.7% | 468.4hPa | 2.6V | 07:33:00 | 00:00:00 | 00:00:00 | |
| DM0DOS-11 | 2026-09-05 02:21:49 | 51.87006 | 8.61684 | 96° | 104km/h | 6216m | -3.5m/s | -21.3°C | 11.9% | 467hPa | 2.6V | 07:33:01 | 03:02:49 | 00:00:00 | |
| HSKMA3-T | 2026-09-05 02:21:48 | 51.86994 | 8.61853 | 97° | 104km/h | 6203m | -3.5m/s | -21.2°C | 12.8% | 467.8hPa | 2.6V | 07:33:05 | 03:02:53 | 00:00:00 | |
| DL1XH-west | 2026-09-05 02:21:47 | 51.86997 | 8.61811 | 96° | 104km/h | 6206m | -3.5m/s | -21.2°C | 12.9% | 467.7hPa | 2.6V | 07:33:05 | 03:02:52 | 00:00:00 | |
| DO2JMG | 2026-09-05 02:21:46 | 51.87000 | 8.61768 | 96° | 104km/h | 6210m | -3.3m/s | -21.3°C | 12.9% | 467.5hPa | 2.5V | 07:33:05 | 03:02:51 | 00:00:00 | |
| DL3AQ-11 | 2026-09-05 02:21:46 | 51.87003 | 8.61726 | 96° | 102km/h | 6213m | -3.4m/s | -21.3°C | 11.0% | 467.2hPa | 2.5V | 00:00:00 | 00:00:00 | 00:00:00 | |
| DO3DL | 2026-09-05 02:21:44 | 51.87003 | 8.61726 | 98° | 104km/h | 6213m | -3.4m/s | -21.3°C | 11.0% | 467.2hPa | 2.5V | 07:33:00 | 00:00:00 | 00:00:00 | |
| DB0DAN | 2026-09-05 02:21:40 | 51.87018 | 8.61516 | 97° | 99km/h | 6230m | -3.1m/s | -21.5°C | 11.2% | 466.24hPa | 2.5V | 00:00:00 | 00:00:00 | 00:00:00 | |
| DM0DOS-11 | 2026-09-05 02:21:39 | 51.87038 | 8.61263 | 97° | 104km/h | 6249m | -3.5m/s | -21.6°C | 12.3% | 464.9hPa | 2.5V | 07:33:11 | 03:02:39 | 00:00:00 | |
| HSKMA3-T | 2026-09-05 02:21:37 | 51.87028 | 8.61389 | 97° | 104km/h | 6240m | -3.2m/s | -21.5°C | 13.4% | 465.6hPa | 2.6V | 07:33:56 | 03:02:42 | 00:00:00 | |
| DL1XH-west | 2026-09-05 02:21:36 | 51.87031 | 8.61347 | 97° | 104km/h | 6243m | -3.4m/s | -21.6°C | 13.5% | 465.4hPa | 2.6V | 07:33:56 | 03:02:41 | 00:00:00 | |
| DO2JMG | 2026-09-05 02:21:35 | 51.87035 | 8.61305 | 98° | 104km/h | 6246m | -3.2m/s | -21.6°C | 13.5% | 465.1hPa | 2.5V | 07:33:56 | 03:02:40 | 00:00:00 | |
| DL4XJ-10 | 2026-09-05 02:21:35 | 51.87034 | 8.61305 | 98° | 102km/h | 6246m | -3.2m/s | -21.6°C | 0% | 0hPa | 2.6V | 00:00:00 | 00:00:00 | 00:00:00 | |
| BIOWL9-15 | 2026-09-05 02:21:33 | 51.87045 | 8.61179 | 97° | 102km/h | 6256m | -3.2m/s | -21.7°C | 11.4% | 464.5hPa | 2.6V | 00:00:00 | 00:00:00 | 00:00:00 | |
| DO2KSM | 2026-09-05 02:21:31 | 51.87045 | 8.61179 | 98° | 104km/h | 6256m | -3.2m/s | -21.7°C | 11.4% | 464.5hPa | 2.6V | 00:00:00 | 00:00:00 | 00:00:00 | |
| DM0DOS-11 | 2026-09-05 02:21:29 | 51.87071 | 8.60842 | 97° | 102km/h | 6283m | -3.1m/s | -21.9°C | 12.5% | 462.9hPa | 2.6V | 07:33:21 | 03:02:29 | 00:00:00 | |
| HSKMA3-T | 2026-09-05 02:21:27 | 51.87061 | 8.60967 | 97° | 104km/h | 6272m | -3.6m/s | -21.8°C | 13.7% | 463.5hPa | 2.5V | 07:33:56 | 03:02:32 | 00:00:00 | |
| DL1XH-west | 2026-09-05 02:21:26 | 51.87065 | 8.60925 | 97° | 104km/h | 6276m | -3.5m/s | -21.9°C | 13.7% | 463.3hPa | 2.5V | 07:33:56 | 03:02:31 | 00:00:00 | |
| DB0DAN | 2026-09-05 02:21:25 | 51.87068 | 8.60883 | 97° | 99km/h | 6279m | -3.4m/s | -21.9°C | 11.6% | 463.01hPa | 2.6V | 00:00:00 | 00:00:00 | 00:00:00 | |
| BIOWL1-15 | 2026-09-05 02:21:25 | 51.87068 | 8.60883 | 97° | 102km/h | 6279m | -3.4m/s | -21.9°C | 13.7% | 463hPa | 2.6V | 07:33:56 | 03:02:30 | 00:00:00 | |
| DL1LOL-11 | 2026-09-05 02:21:22 | 51.87075 | 8.60800 | 99° | 102km/h | 6286m | -3.4m/s | -21.9°C | 11.6% | 462.7hPa | 2.6V | 00:00:00 | 00:00:00 | 00:00:00 | |
| DD1CC3-15 | 2026-09-05 02:21:21 | 51.87078 | 8.60759 | 99° | 102km/h | 6289m | -3.3m/s | -22.0°C | 11.7% | 462.4hPa | 2.6V | 07:33:00 | 00:00:00 | 00:00:00 | |
| BIOWL7-15 | 2026-09-05 02:21:20 | 51.87082 | 8.60718 | 99° | 100km/h | 6293m | -3.3m/s | -22.0°C | 11.7% | 462.2hPa | 2.6V | 00:00:00 | 00:00:00 | 00:00:00 | |
| DM0DOS-11 | 2026-09-05 02:21:19 | 51.87104 | 8.60431 | 96° | 102km/h | 6316m | -3.3m/s | -22.2°C | 12.8% | 460.8hPa | 2.6V | 07:33:31 | 03:02:19 | 00:00:00 | |
| DL1XH-west | 2026-09-05 02:21:16 | 51.87098 | 8.60513 | 97° | 102km/h | 6310m | -3.2m/s | -22.1°C | 14% | 461.2hPa | 2.5V | 07:33:56 | 03:02:21 | 00:00:00 | |
| DO2JMG | 2026-09-05 02:21:14 | 51.87104 | 8.60431 | 96° | 102km/h | 6316m | -3.3m/s | -22.2°C | 14.1% | 460.8hPa | 2.6V | 07:33:56 | 03:02:19 | 00:00:00 | |
| DL1CLM-18 | 2026-09-05 02:21:13 | 51.87103 | 8.60431 | 97° | 102km/h | 6316m | -3.3m/s | -22.2°C | 11.8% | 460.8hPa | 2.5V | 00:00:00 | 00:00:00 | 00:00:00 | |
| DO3DL | 2026-09-05 02:21:12 | 51.87107 | 8.60389 | 98° | 102km/h | 6319m | -3.3m/s | -22.2°C | 11.8% | 460.6hPa | 2.5V | 00:00:00 | 00:00:00 | 00:00:00 | |
| DB0DAN | 2026-09-05 02:21:10 | 51.87116 | 8.60265 | 97° | 97km/h | 6329m | -3.5m/s | -22.3°C | 11.9% | 459.95hPa | 2.5V | 00:00:00 | 00:00:00 | 00:00:00 | |
| DB0NH | 2026-09-05 02:21:10 | 51.87116 | 8.60265 | 97° | 113km/h | 6329m | -3.5m/s | -22.3°C | 12.9% | 459.9hPa | 2.5V | 00:00:00 | 03:02:15 | 00:00:00 | |
| DM0DOS-11 | 2026-09-05 02:21:09 | 51.87134 | 8.60017 | 97° | 102km/h | 6349m | -3.2m/s | -22.5°C | 12.8% | 458.7hPa | 2.5V | 07:33:41 | 03:02:09 | 00:00:00 | |
| BIOWL1-15 | 2026-09-05 02:21:06 | 51.87134 | 8.60017 | 97° | 102km/h | 6349m | -3.3m/s | -22.5°C | 14.1% | 458.7hPa | 2.5V | 07:33:56 | 03:02:09 | 00:00:00 | |
| DL1XH-west | 2026-09-05 02:21:06 | 51.87128 | 8.60099 | 97° | 102km/h | 6343m | -3.4m/s | -22.4°C | 14.2% | 459.1hPa | 2.6V | 07:33:56 | 03:02:11 | 00:00:00 | |
| HSKMA3-T | 2026-09-05 02:21:05 | 51.87131 | 8.60058 | 97° | 102km/h | 6346m | -3.3m/s | -22.5°C | 14.1% | 458.9hPa | 2.5V | 07:33:56 | 03:02:10 | 00:00:00 | |
| DO2JMG | 2026-09-05 02:21:03 | 51.87137 | 8.59976 | 98° | 102km/h | 6353m | -3.2m/s | -22.5°C | 14.1% | 458.4hPa | 2.5V | 07:33:56 | 03:02:08 | 00:00:00 | |
| BIOWL9-15 | 2026-09-05 02:21:01 | 51.87144 | 8.59893 | 97° | 100km/h | 6359m | -3.2m/s | -22.6°C | 11.8% | 458.0hPa | 2.5V | 00:00:00 | 00:00:00 | 00:00:00 | |
| BIOWL7-15 | 2026-09-05 02:21:00 | 51.87147 | 8.59852 | 98° | 102km/h | 6362m | -3.4m/s | -22.6°C | 11.7% | 457.9hPa | 2.5V | 00:00:00 | 00:00:00 | 00:00:00 | |
| DM0DOS-11 | 2026-09-05 02:20:59 | 51.87168 | 8.59608 | 98° | 100km/h | 6383m | -3.5m/s | -22.6°C | 12.2% | 456.6hPa | 2.5V | 07:33:51 | 03:01:59 | 00:00:00 | |
| SONCRA | 2026-09-05 02:20:57 | 51.87161 | 8.59689 | 97° | 100km/h | 6376m | -3.4m/s | -22.6°C | 11.4% | 457.0hPa | 2.6V | 00:00:00 | 00:00:00 | 00:00:00 | |
| DB0DAN | 2026-09-05 02:20:55 | 51.87164 | 8.59648 | 98° | 95km/h | 6379m | -3.4m/s | -22.6°C | 11.3% | 456.83hPa | 2.6V | 00:00:00 | 00:00:00 | 00:00:00 | |
| DL1XH-west | 2026-09-05 02:20:55 | 51.87164 | 8.59648 | 98° | 100km/h | 6379m | -3.4m/s | -22.6°C | 13.5% | 456.8hPa | 2.6V | 07:33:56 | 03:02:00 | 00:00:00 | |
| HSKMA3-T | 2026-09-05 02:20:54 | 51.87168 | 8.59608 | 98° | 100km/h | 6383m | -3.5m/s | -22.7°C | 13.4% | 456.6hPa | 2.5V | 07:33:56 | 03:01:59 | 00:00:00 | |
| DO2JMG | 2026-09-05 02:20:52 | 51.87175 | 8.59526 | 98° | 102km/h | 6390m | -3.6m/s | -22.7°C | 13.4% | 456.1hPa | 2.5V | 07:33:56 | 03:01:57 | 00:00:00 | |
| DM0DOS-11 | 2026-09-05 02:20:49 | 51.87203 | 8.59195 | 97° | 102km/h | 6417m | -3.4m/s | -22.9°C | 12.5% | 454.5hPa | 2.6V | 07:34:01 | 03:01:49 | 00:00:00 | |
| DL1XH-west | 2026-09-05 02:20:45 | 51.87199 | 8.59236 | 98° | 102km/h | 6414m | -3.5m/s | -22.9°C | 13.6% | 454.6hPa | 2.6V | 07:34:47 | 03:01:50 | 00:00:00 | |
| BIOWL1-15 | 2026-09-05 02:20:44 | 51.87203 | 8.59195 | 97° | 102km/h | 6417m | -3.4m/s | -22.9°C | 13.7% | 454.5hPa | 2.6V | 07:34:47 | 03:01:49 | 00:00:00 | |
| HSKMA3-T | 2026-09-05 02:20:43 | 51.87206 | 8.59153 | 98° | 102km/h | 6421m | -3.4m/s | -22.9°C | 13.9% | 454.2hPa | 2.6V | 07:34:47 | 03:01:48 | 00:00:00 | |
| DO2JMG | 2026-09-05 02:20:42 | 51.87210 | 8.59112 | 98° | 102km/h | 6424m | -3.2m/s | -22.9°C | 13.9% | 454.1hPa | 2.5V | 07:34:47 | 03:01:47 | 00:00:00 | |
| DL1XH-15 | 2026-09-05 02:20:41 | 51.87230 | 8.58864 | 97° | 100km/h | 6444m | -3.6m/s | -23.1°C | 13% | 452.7hPa | 2.6V | 07:34:09 | 03:01:41 | 00:00:00 | |
| DB0DAN | 2026-09-05 02:20:40 | 51.87216 | 8.59029 | 97° | 97km/h | 6431m | -3.3m/s | -23°C | 11.8% | 453.58hPa | 2.6V | 00:00:00 | 00:00:00 | 00:00:00 | |
| DM0DOS-11 | 2026-09-05 02:20:39 | 51.87236 | 8.58782 | 97° | 102km/h | 6451m | -3.5m/s | -23.2°C | 13.2% | 452.3hPa | 2.6V | 07:34:11 | 03:01:39 | 00:00:00 | |
| DL1XH-west | 2026-09-05 02:20:34 | 51.87236 | 8.58782 | 97° | 102km/h | 6451m | -3.5m/s | -23.2°C | 14.7% | 452.3hPa | 2.6V | 07:34:47 | 03:01:39 | 00:00:00 | |
| BIOWL1-15 | 2026-09-05 02:20:33 | 51.87239 | 8.58740 | 98° | 102km/h | 6455m | -3.3m/s | -23.2°C | 14.9% | 452.1hPa | 2.5V | 07:34:47 | 03:01:38 | 00:00:00 | |
| DO2JMG | 2026-09-05 02:20:31 | 51.87246 | 8.58657 | 97° | 104km/h | 6461m | -3.7m/s | -23.3°C | 15.6% | 451.7hPa | 2.5V | 07:34:47 | 03:01:36 | 00:00:00 | |
| BIOWL9-15 | 2026-09-05 02:20:30 | 51.87249 | 8.58615 | 97° | 102km/h | 6465m | -3.3m/s | -23.3°C | 13.5% | 451.4hPa | 2.5V | 00:00:00 | 00:00:00 | 00:00:00 | |
| DB0DAN | 2026-09-05 02:20:25 | 51.87265 | 8.58402 | 96° | 100km/h | 6482m | -3.6m/s | -23.5°C | 16.6% | 450.38hPa | 2.5V | 00:00:00 | 00:00:00 | 00:00:00 | |
| BIOWL1-15 | 2026-09-05 02:20:23 | 51.87271 | 8.58316 | 95° | 106km/h | 6489m | -3.2m/s | -23.5°C | 20.4% | 449.9hPa | 2.6V | 07:34:47 | 03:01:28 | 00:00:00 | |
| DO2JMG | 2026-09-05 02:20:20 | 51.87278 | 8.58188 | 95° | 104km/h | 6499m | -3.7m/s | -23.6°C | 20.5% | 449.3hPa | 2.5V | 07:34:47 | 03:01:25 | 00:00:00 | |
| DM0DOS-11 | 2026-09-05 02:20:18 | 51.87291 | 8.57937 | 94° | 102km/h | 6521m | -3.5m/s | -23.8°C | 19.8% | 448hPa | 2.6V | 07:34:31 | 03:01:19 | 00:00:00 | |
| BIOWL1-15 | 2026-09-05 02:20:13 | 51.87293 | 8.57896 | 95° | 102km/h | 6524m | -3.6m/s | -23.8°C | 22.4% | 447.8hPa | 2.6V | 07:34:47 | 03:01:18 | 00:00:00 | |
| DL1XH-west | 2026-09-05 02:20:12 | 51.87295 | 8.57854 | 95° | 100km/h | 6528m | -3.4m/s | -23.8°C | 22.7% | 447.6hPa | 2.5V | 07:34:47 | 03:01:17 | 00:00:00 | |
| DB0DAN | 2026-09-05 02:20:10 | 51.87299 | 8.57772 | 95° | 97km/h | 6535m | -3.6m/s | -23.8°C | 19.5% | 447.15hPa | 2.5V | 00:00:00 | 00:00:00 | 00:00:00 | |
| DM0DOS-11 | 2026-09-05 02:20:09 | 51.87313 | 8.57525 | 96° | 102km/h | 6556m | -3.9m/s | -23.9°C | 19.3% | 445.9hPa | 2.5V | 07:34:41 | 03:01:09 | 00:00:00 | |
| DO2JMG | 2026-09-05 02:20:09 | 51.87301 | 8.57731 | 95° | 100km/h | 6538m | -3.7m/s | -23.9°C | 22.9% | 447hPa | 2.6V | 07:34:47 | 03:01:14 | 00:00:00 | |
| BIOWL1-15 | 2026-09-05 02:20:02 | 51.87319 | 8.57442 | 97° | 102km/h | 6563m | -3.5m/s | -23.9°C | 20.3% | 445.4hPa | 2.6V | 07:34:47 | 03:01:07 | 00:00:00 | |
| DL1XH-west | 2026-09-05 02:20:01 | 51.87322 | 8.57401 | 97° | 102km/h | 6567m | -3.6m/s | -23.9°C | 19.8% | 445.2hPa | 2.6V | 07:34:47 | 03:01:06 | 00:00:00 | |
| DM0DOS-11 | 2026-09-05 02:19:59 | 51.87344 | 8.57112 | 97° | 102km/h | 6592m | -3.4m/s | -23.8°C | 12.7% | 443.7hPa | 2.6V | 07:34:51 | 03:00:59 | 00:00:00 | |
| DO2JMG | 2026-09-05 02:19:58 | 51.87331 | 8.57277 | 97° | 102km/h | 6578m | -3.5m/s | -23.9°C | 17.9% | 444.6hPa | 2.6V | 07:34:47 | 03:01:03 | 00:00:00 | |
| DD1CC3-15 | 2026-09-05 02:19:57 | 51.87331 | 8.57277 | 98° | 102km/h | 6578m | -3.5m/s | -23.9°C | 15.0% | 444.6hPa | 2.5V | 07:34:00 | 00:00:00 | 00:00:00 | |
| DB0DAN | 2026-09-05 02:19:55 | 51.87341 | 8.57153 | 98° | 97km/h | 6589m | -3.4m/s | -23.8°C | 12.3% | 443.93hPa | 2.5V | 00:00:00 | 00:00:00 | 00:00:00 | |
| HSKMA3-T | 2026-09-05 02:19:52 | 51.87351 | 8.57030 | 98° | 102km/h | 6599m | -3.3m/s | -23.8°C | 12.4% | 443.3hPa | 2.5V | 07:35:38 | 03:00:57 | 00:00:00 | |
| DL1XH-15 | 2026-09-05 02:19:51 | 51.87373 | 8.56782 | 98° | 102km/h | 6620m | -3.4m/s | -23.9°C | 9.3% | 442hPa | 2.5V | 07:34:59 | 03:00:51 | 00:00:00 | |
| DL1XH-west | 2026-09-05 02:19:51 | 51.87355 | 8.56989 | 98° | 102km/h | 6602m | -3.3m/s | -23.8°C | 12.1% | 443.1hPa | 2.5V | 07:35:38 | 03:00:56 | 00:00:00 | |
| DO2JMG | 2026-09-05 02:19:48 | 51.87365 | 8.56865 | 98° | 102km/h | 6613m | -3.6m/s | -23.9°C | 10.7% | 442.5hPa | 2.6V | 07:35:38 | 03:00:53 | 00:00:00 | |
| DL3AQ-11 | 2026-09-05 02:19:46 | 51.87376 | 8.56741 | 98° | 102km/h | 6623m | -3.3m/s | -23.9°C | 8.1% | 441.9hPa | 2.6V | 00:00:00 | 00:00:00 | 00:00:00 | |
| BUE01 | 2026-09-05 02:19:45 | 51.87380 | 8.56700 | 99° | 102km/h | 6626m | -3.3m/s | -23.9°C | 8.0% | 441.6hPa | 2.6V | 00:00:00 | 00:00:00 | 00:00:00 | |
| DD1CC8 | 2026-09-05 02:19:44 | 51.87380 | 8.56700 | 99° | 102km/h | 6626m | -3.3m/s | -23.9°C | 8.0% | 441.6hPa | 2.6V | 00:00:00 | 00:00:00 | 00:00:00 | |
| DL1XH-15 | 2026-09-05 02:19:41 | 51.87414 | 8.56367 | 99° | 102km/h | 6653m | -3.5m/s | -24.1°C | 8.2% | 439.9hPa | 2.6V | 07:35:09 | 03:00:41 | 00:00:00 | |
| HSKMA3-T | 2026-09-05 02:19:41 | 51.87393 | 8.56575 | 99° | 102km/h | 6636m | -3.7m/s | -23.9°C | 9% | 441hPa | 2.5V | 07:35:38 | 03:00:46 | 00:00:00 | |
| DB0DAN | 2026-09-05 02:19:40 | 51.87397 | 8.56533 | 99° | 99km/h | 6640m | -3.4m/s | -24°C | 7.7% | 440.8hPa | 2.5V | 00:00:00 | 00:00:00 | 00:00:00 | |
| DL1XH-west | 2026-09-05 02:19:40 | 51.87397 | 8.56533 | 99° | 102km/h | 6640m | -3.4m/s | -24°C | 8.9% | 440.8hPa | 2.5V | 07:35:38 | 03:00:45 | 00:00:00 | |
| DM0DOS-11 | 2026-09-05 02:19:39 | 51.87423 | 8.56284 | 100° | 104km/h | 6660m | -3.3m/s | -24.1°C | 7.9% | 439.5hPa | 2.5V | 07:35:11 | 03:00:39 | 00:00:00 | |
| DO2JMG | 2026-09-05 02:19:38 | 51.87406 | 8.56450 | 99° | 104km/h | 6646m | -3.7m/s | -24°C | 8.7% | 440.4hPa | 2.6V | 07:35:38 | 03:00:43 | 00:00:00 | |
| DO9LL-15 | 2026-09-05 02:19:38 | 51.87406 | 8.56450 | 100° | 106km/h | 6646m | -3.6m/s | -24.0°C | 8.4% | 440.3hPa | 2.6V | 00:00:00 | 03:00:43 | 00:00:00 | |
| DL4BBY-15 | 2026-09-05 02:19:36 | 51.87414 | 8.56367 | 100° | 106km/h | 6653m | -3.5m/s | -24.0°C | 0% | 0hPa | 2.5V | 00:00:00 | 00:00:00 | 00:00:00 | |
| DL4XJ-10 | 2026-09-05 02:19:35 | 51.87418 | 8.56325 | 100° | 106km/h | 6657m | -3.9m/s | -24.1°C | 0% | 0hPa | 2.5V | 00:00:00 | 00:00:00 | 00:00:00 | |
| DL1ZP-14 | 2026-09-05 02:19:34 | 51.87423 | 8.56284 | 100° | 102km/h | 6660m | -3.3m/s | -24.1°C | 7.1% | 439.5hPa | 2.5V | 00:00:00 | 00:00:00 | 00:00:00 | |
| DL3AQ-11 | 2026-09-05 02:19:33 | 51.87432 | 8.56200 | 100° | 104km/h | 6668m | -3.7m/s | -24.2°C | 6.9% | 439.1hPa | 2.6V | 00:00:00 | 00:00:00 | 00:00:00 | |
| DL1XH-15 | 2026-09-05 02:19:31 | 51.87462 | 8.55947 | 100° | 106km/h | 6689m | -3.2m/s | -24.2°C | 6.7% | 437.9hPa | 2.6V | 07:35:19 | 03:00:31 | 00:00:00 | |
| HSKMA3-T | 2026-09-05 02:19:30 | 51.87442 | 8.56116 | 100° | 104km/h | 6675m | -3.8m/s | -24.2°C | 7.2% | 438.6hPa | 2.6V | 07:35:38 | 03:00:35 | 00:00:00 | |
| DL1XH-west | 2026-09-05 02:19:29 | 51.87446 | 8.56074 | 101° | 106km/h | 6678m | -3.4m/s | -24.2°C | 7% | 438.5hPa | 2.5V | 07:35:38 | 03:00:34 | 00:00:00 | |
| DO2JMG | 2026-09-05 02:19:28 | 51.87452 | 8.56032 | 101° | 106km/h | 6682m | -3.5m/s | -24.2°C | 6.7% | 438.2hPa | 2.5V | 07:35:38 | 03:00:33 | 00:00:00 | |
| DO3DL | 2026-09-05 02:19:28 | 51.87451 | 8.56032 | 102° | 106km/h | 6682m | -3.5m/s | -24.2°C | 6.1% | 438.2hPa | 2.5V | 07:35:00 | 00:00:00 | 00:00:00 | |
| DB0DAN | 2026-09-05 02:19:25 | 51.87467 | 8.55904 | 101° | 102km/h | 6692m | -3.9m/s | -24.3°C | 5.8% | 437.58hPa | 2.5V | 00:00:00 | 00:00:00 | 00:00:00 | |
| SONCRA | 2026-09-05 02:19:23 | 51.87477 | 8.55819 | 100° | 106km/h | 6700m | -3.7m/s | -24.3°C | 5.6% | 437.2hPa | 2.5V | 00:00:00 | 00:00:00 | 00:00:00 | |
| DL3AQ-11 | 2026-09-05 02:19:22 | 51.87488 | 8.55732 | 100° | 106km/h | 6707m | -3.7m/s | -24.4°C | 5.5% | 436.8hPa | 2.5V | 00:00:00 | 00:00:00 | 00:00:00 | |
| DL1XH-15 | 2026-09-05 02:19:21 | 51.87511 | 8.55516 | 99° | 108km/h | 6724m | -3.5m/s | -24.5°C | 6% | 435.7hPa | 2.5V | 07:35:29 | 03:00:21 | 00:00:00 | |
| HSKMA3-T | 2026-09-05 02:19:20 | 51.87492 | 8.55689 | 100° | 108km/h | 6710m | -3.4m/s | -24.4°C | 5.7% | 436.6hPa | 2.5V | 07:35:38 | 03:00:25 | 00:00:00 | |
| DM0DOS-11 | 2026-09-05 02:19:19 | 51.87520 | 8.55430 | 98° | 108km/h | 6732m | -3.5m/s | -24.5°C | 5.9% | 435.3hPa | 2.6V | 07:35:31 | 03:00:19 | 00:00:00 | |
| DL1XH-west | 2026-09-05 02:19:18 | 51.87502 | 8.55603 | 100° | 108km/h | 6717m | -3.5m/s | -24.5°C | 5.6% | 436.1hPa | 2.6V | 07:35:38 | 03:00:23 | 00:00:00 | |
| DO2JMG | 2026-09-05 02:19:17 | 51.87507 | 8.55559 | 100° | 108km/h | 6721m | -3.7m/s | -24.5°C | 5.5% | 435.9hPa | 2.5V | 07:35:38 | 03:00:22 | 00:00:00 | |
| DL4XJ-10 | 2026-09-05 02:19:15 | 51.87516 | 8.55473 | 100° | 111km/h | 6728m | -3.8m/s | -24.5°C | 0% | 0hPa | 2.6V | 00:00:00 | 00:00:00 | 00:00:00 | |
| BUE01 | 2026-09-05 02:19:14 | 51.87525 | 8.55387 | 98° | 106km/h | 6735m | -3.3m/s | -24.6°C | 5.2% | 435.1hPa | 2.6V | 00:00:00 | 00:00:00 | 00:00:00 | |
| GOEST3-10 | 2026-09-05 02:19:13 | 51.87525 | 8.55386 | 99° | 110km/h | 6735m | -3.3m/s | -24.5°C | 5.9% | 435.0hPa | 2.6V | 00:00:00 | 00:00:00 | 00:00:00 | |
| DL1XH-15 | 2026-09-05 02:19:11 | 51.87557 | 8.55080 | 99° | 110km/h | 6760m | -3.6m/s | -24.7°C | 5.5% | 433.6hPa | 2.5V | 07:35:39 | 03:00:11 | 00:00:00 | |
| DB0DAN | 2026-09-05 02:19:10 | 51.87538 | 8.55256 | 99° | 104km/h | 6746m | -3.5m/s | -24.6°C | 5% | 434.47hPa | 2.5V | 00:00:00 | 00:00:00 | 00:00:00 | |
| DM0DOS-11 | 2026-09-05 02:19:09 | 51.87567 | 8.54991 | 100° | 111km/h | 6767m | -3.5m/s | -24.7°C | 5.4% | 433.2hPa | 2.5V | 07:35:41 | 03:00:09 | 00:00:00 | |
| HSKMA3-T | 2026-09-05 02:19:09 | 51.87543 | 8.55212 | 100° | 110km/h | 6749m | -3.6m/s | -24.6°C | 5.1% | 434.3hPa | 2.6V | 07:35:38 | 03:00:14 | 00:00:00 | |
| DL1XH-west | 2026-09-05 02:19:08 | 51.87547 | 8.55168 | 100° | 110km/h | 6753m | -3.4m/s | -24.6°C | 5% | 434hPa | 2.6V | 07:35:38 | 03:00:13 | 00:00:00 | |
| BIOWL1-15 | 2026-09-05 02:19:07 | 51.87552 | 8.55124 | 100° | 110km/h | 6756m | -3.5m/s | -24.7°C | 4.9% | 433.9hPa | 2.6V | 07:35:38 | 03:00:12 | 00:00:00 | |
| DO2JMG | 2026-09-05 02:19:06 | 51.87557 | 8.55080 | 100° | 110km/h | 6760m | -3.6m/s | -24.7°C | 4.8% | 433.6hPa | 2.5V | 07:36:29 | 03:00:11 | 00:00:00 | |
| DL3AQ-11 | 2026-09-05 02:19:06 | 51.87562 | 8.55035 | 100° | 110km/h | 6764m | -3.6m/s | -24.7°C | 4.8% | 433.4hPa | 2.5V | 00:00:00 | 00:00:00 | 00:00:00 | |
| DL1ZP-14 | 2026-09-05 02:19:03 | 51.87587 | 8.54812 | 100° | 111km/h | 6781m | -3.6m/s | -24.6°C | 4.5% | 432.4hPa | 2.5V | 00:00:00 | 00:00:00 | 00:00:00 | |
| DL1XH-15 | 2026-09-05 02:19:01 | 51.87608 | 8.54632 | 100° | 113km/h | 6796m | -3.7m/s | -24.7°C | 5.1% | 431.5hPa | 2.6V | 07:35:49 | 03:00:01 | 00:00:00 | |
| GOEST3-10 | 2026-09-05 02:19:00 | 51.87587 | 8.54812 | 101° | 111km/h | 6781m | -3.5m/s | -24.6°C | 5.1% | 432.3hPa | 2.5V | 00:00:00 | 00:00:00 | 00:00:00 | |
| DM0DOS-11 | 2026-09-05 02:18:59 | 51.87618 | 8.54542 | 100° | 111km/h | 6802m | -3.4m/s | -24.7°C | 5.1% | 431hPa | 2.5V | 07:35:51 | 02:59:59 | 00:00:00 | |
| DL1XH-west | 2026-09-05 02:18:58 | 51.87597 | 8.54722 | 100° | 111km/h | 6788m | -3.8m/s | -24.7°C | 4.2% | 431.9hPa | 2.5V | 07:36:29 | 03:00:03 | 00:00:00 | |
| DO2JMG | 2026-09-05 02:18:56 | 51.87608 | 8.54632 | 100° | 113km/h | 6796m | -3.7m/s | -24.7°C | 4.2% | 431.5hPa | 2.6V | 07:36:29 | 03:00:01 | 00:00:00 | |
| DB0DAN | 2026-09-05 02:18:55 | 51.87613 | 8.54587 | 100° | 108km/h | 6799m | -3.4m/s | -24.7°C | 4.4% | 431.26hPa | 2.6V | 00:00:00 | 00:00:00 | 00:00:00 | |
| DL3AQ-11 | 2026-09-05 02:18:53 | 51.87628 | 8.54452 | 100° | 110km/h | 6809m | -3.5m/s | -24.7°C | 4.4% | 430.6hPa | 2.5V | 00:00:00 | 00:00:00 | 00:00:00 | |
| DL4XJ-10 | 2026-09-05 02:18:52 | 51.87628 | 8.54452 | 101° | 111km/h | 6808m | -3.5m/s | -24.7°C | 0% | 0hPa | 2.5V | 00:00:00 | 00:00:00 | 00:00:00 | |
| DL1XH-15 | 2026-09-05 02:18:51 | 51.87658 | 8.54184 | 100° | 111km/h | 6830m | -3.7m/s | -24.9°C | 5.1% | 429.4hPa | 2.5V | 07:35:59 | 02:59:51 | 00:00:00 | |
| GOEST3-10 | 2026-09-05 02:18:50 | 51.87638 | 8.54362 | 101° | 111km/h | 6816m | -3.7m/s | -24.7°C | 5.1% | 430.2hPa | 2.6V | 07:35:00 | 00:00:00 | 00:00:00 | |
| DM0DOS-11 | 2026-09-05 02:18:49 | 51.87668 | 8.54094 | 99° | 111km/h | 6838m | -4m/s | -24.9°C | 5.2% | 429hPa | 2.6V | 07:36:01 | 02:59:49 | 00:00:00 | |
| DL1XH-west | 2026-09-05 02:18:48 | 51.87648 | 8.54274 | 100° | 110km/h | 6823m | -3.6m/s | -24.8°C | 4.3% | 429.8hPa | 2.5V | 07:36:29 | 02:59:53 | 00:00:00 | |
| BIOWL1-15 | 2026-09-05 02:18:46 | 51.87658 | 8.54184 | 100° | 111km/h | 6830m | -3.7m/s | -24.9°C | 4.3% | 429.4hPa | 2.5V | 07:36:29 | 02:59:51 | 00:00:00 | |
| GOEST3-10 | 2026-09-05 02:18:45 | 51.87662 | 8.54139 | 101° | 111km/h | 6834m | -3.7m/s | -24.8°C | 5.2% | 429.2hPa | 2.5V | 00:00:00 | 02:59:50 | 00:00:00 | |
| BUE01 | 2026-09-05 02:18:43 | 51.87677 | 8.54004 | 99° | 111km/h | 6845m | -3.6m/s | -25.0°C | 4.5% | 428.6hPa | 2.5V | 00:00:00 | 00:00:00 | 00:00:00 | |
| DL3AQ-11 | 2026-09-05 02:18:42 | 51.87682 | 8.53959 | 99° | 111km/h | 6848m | -3.7m/s | -25.0°C | 4.5% | 428.3hPa | 2.5V | 00:00:00 | 00:00:00 | 00:00:00 | |
| DL1XH-15 | 2026-09-05 02:18:41 | 51.87706 | 8.53732 | 99° | 113km/h | 6866m | -3.6m/s | -25.1°C | 5.2% | 427.3hPa | 2.5V | 07:36:09 | 02:59:41 | 00:00:00 | |
| GOEST3-10 | 2026-09-05 02:18:40 | 51.87687 | 8.53913 | 100° | 113km/h | 6852m | -3.3m/s | -25.0°C | 5.2% | 428.1hPa | 2.5V | 00:00:00 | 00:00:00 | 00:00:00 | |
| DM0DOS-11 | 2026-09-05 02:18:39 | 51.87716 | 8.53641 | 99° | 113km/h | 6874m | -3.9m/s | -25.2°C | 5.2% | 426.9hPa | 2.5V | 07:36:11 | 02:59:39 | 00:00:00 | |
| DL1XH-west | 2026-09-05 02:18:37 | 51.87702 | 8.53778 | 100° | 113km/h | 6862m | -3.9m/s | -25.1°C | 4.4% | 427.4hPa | 2.6V | 07:36:29 | 02:59:42 | 00:00:00 | |
| DO2JMG | 2026-09-05 02:18:35 | 51.87711 | 8.53687 | 100° | 113km/h | 6870m | -3.7m/s | -25.1°C | 4.4% | 427.1hPa | 2.5V | 07:36:29 | 02:59:40 | 00:00:00 | |
| GOEST3-10 | 2026-09-05 02:18:35 | 51.87711 | 8.53686 | 100° | 113km/h | 6870m | -3.7m/s | -25.1°C | 5.2% | 427.0hPa | 2.6V | 00:00:00 | 02:59:40 | 00:00:00 | |
| DO3DL | 2026-09-05 02:18:34 | 51.87716 | 8.53641 | 101° | 113km/h | 6874m | -3.9m/s | -25.2°C | 4.5% | 426.9hPa | 2.6V | 07:36:00 | 00:00:00 | 00:00:00 | |
| DL4XJ-10 | 2026-09-05 02:18:32 | 51.87726 | 8.53550 | 101° | 117km/h | 6881m | -3.6m/s | -25.2°C | 0% | 0hPa | 2.6V | 00:00:00 | 00:00:00 | 00:00:00 | |
| DL1XH-15 | 2026-09-05 02:18:31 | 51.87757 | 8.53274 | 100° | 115km/h | 6902m | -3.1m/s | -25.4°C | 5.4% | 425.2hPa | 2.6V | 07:36:19 | 02:59:31 | 00:00:00 | |
| GOEST3-10 | 2026-09-05 02:18:30 | 51.87736 | 8.53458 | 101° | 115km/h | 6888m | -3.8m/s | -25.2°C | 5.3% | 425.9hPa | 2.5V | 00:00:00 | 00:00:00 | 00:00:00 | |
| DM0DOS-11 | 2026-09-05 02:18:29 | 51.87767 | 8.53182 | 101° | 115km/h | 6909m | -3.6m/s | -25.4°C | 5.4% | 424.7hPa | 2.5V | 07:36:21 | 02:59:29 | 00:00:00 | |
| HSKMA3-T | 2026-09-05 02:18:27 | 51.87752 | 8.53320 | 101° | 115km/h | 6899m | -3.3m/s | -25.4°C | 4.6% | 425.4hPa | 2.6V | 07:36:29 | 02:59:32 | 00:00:00 | |
| DL1XH-west | 2026-09-05 02:18:26 | 51.87757 | 8.53274 | 100° | 115km/h | 6902m | -3.1m/s | -25.4°C | 4.6% | 425.2hPa | 2.6V | 07:36:29 | 02:59:31 | 00:00:00 | |
| DB0DAN | 2026-09-05 02:18:25 | 51.87762 | 8.53228 | 100° | 108km/h | 6906m | -3.5m/s | -25.4°C | 4.7% | 424.98hPa | 2.6V | 00:00:00 | 00:00:00 | 00:00:00 | |
| DO2JMG | 2026-09-05 02:18:25 | 51.87762 | 8.53228 | 100° | 113km/h | 6906m | -3.5m/s | -25.4°C | 4.6% | 425hPa | 2.6V | 07:36:29 | 02:59:30 | 00:00:00 | |
| BIOWL1-15 | 2026-09-05 02:18:24 | 51.87768 | 8.53182 | 101° | 115km/h | 6909m | -3.6m/s | -25.5°C | 4.6% | 424.8hPa | 2.5V | 07:36:29 | 02:59:29 | 00:00:00 | |
| DL1LOL-11 | 2026-09-05 02:18:22 | 51.87773 | 8.53136 | 102° | 117km/h | 6913m | -3.8m/s | -25.5°C | 4.7% | 424.5hPa | 2.5V | 00:00:00 | 00:00:00 | 00:00:00 | |
| DL1XH-15 | 2026-09-05 02:18:21 | 51.87814 | 8.52807 | 101° | 120km/h | 6938m | -3.7m/s | -25.6°C | 5.3% | 423.1hPa | 2.5V | 07:36:29 | 02:59:21 | 00:00:00 | |
| GOEST3-10 | 2026-09-05 02:18:20 | 51.87790 | 8.52996 | 101° | 119km/h | 6924m | -3.7m/s | -25.5°C | 5.4% | 423.9hPa | 2.6V | 00:00:00 | 00:00:00 | 00:00:00 | |
| DM0DOS-11 | 2026-09-05 02:18:19 | 51.87827 | 8.52712 | 102° | 119km/h | 6945m | -3.2m/s | -25.6°C | 5.1% | 422.7hPa | 2.6V | 07:36:31 | 02:59:19 | 00:00:00 | |
| HSKMA3-T | 2026-09-05 02:18:17 | 51.87808 | 8.52855 | 101° | 117km/h | 6935m | -3.3m/s | -25.6°C | 4.4% | 423.3hPa | 2.5V | 07:36:29 | 02:59:22 | 00:00:00 | |
| DL1XH-west | 2026-09-05 02:18:16 | 51.87814 | 8.52807 | 102° | 120km/h | 6938m | -3.7m/s | -25.6°C | 4.4% | 423.1hPa | 2.5V | 07:36:29 | 02:59:21 | 00:00:00 | |
| DO2JMG | 2026-09-05 02:18:14 | 51.87827 | 8.52712 | 102° | 119km/h | 6945m | -3.2m/s | -25.6°C | 4.2% | 422.7hPa | 2.6V | 07:37:20 | 02:59:19 | 00:00:00 | |
| BIOWL1-15 | 2026-09-05 02:18:13 | 51.87833 | 8.52664 | 102° | 120km/h | 6948m | -3.4m/s | -25.6°C | 4.1% | 422.6hPa | 2.6V | 07:37:20 | 02:59:18 | 00:00:00 | |
| DB0DAN | 2026-09-05 02:18:10 | 51.87852 | 8.52521 | 101° | 115km/h | 6959m | -3.8m/s | -25.7°C | 4.3% | 421.92hPa | 2.5V | 00:00:00 | 00:00:00 | 00:00:00 | |
| GOEST3-10 | 2026-09-05 02:18:10 | 51.87852 | 8.52521 | 102° | 120km/h | 6959m | -3.8m/s | -25.7°C | 5.0% | 421.9hPa | 2.5V | 07:36:00 | 00:00:00 | 00:00:00 | |
| DL1XH-15 | 2026-09-05 02:18:09 | 51.87889 | 8.52232 | 102° | 119km/h | 6981m | -3.8m/s | -25.7°C | 4.9% | 420.6hPa | 2.5V | 07:36:41 | 02:59:09 | 00:00:00 | |
| HSKMA3-T | 2026-09-05 02:18:06 | 51.87876 | 8.52328 | 102° | 119km/h | 6973m | -3.6m/s | -25.7°C | 4% | 421hPa | 2.5V | 07:37:20 | 02:59:11 | 00:00:00 | |
| DL1XH-west | 2026-09-05 02:18:05 | 51.87882 | 8.52280 | 103° | 120km/h | 6977m | -3.6m/s | -25.7°C | 4% | 420.8hPa | 2.5V | 07:37:20 | 02:59:10 | 00:00:00 | |
| BIOWL1-15 | 2026-09-05 02:18:04 | 51.87902 | 8.52136 | 103° | 120km/h | 6988m | -3.5m/s | -25.8°C | 4% | 420.2hPa | 2.6V | 07:37:20 | 02:59:07 | 00:00:00 | |
| DO2JMG | 2026-09-05 02:18:04 | 51.87889 | 8.52232 | 102° | 120km/h | 6981m | -3.8m/s | -25.7°C | 4% | 420.6hPa | 2.5V | 07:37:20 | 02:59:09 | 00:00:00 | |
| DJ2KF-10 | 2026-09-05 02:18:04 | 51.87889 | 8.52232 | 103° | 124km/h | 6981m | -3.7m/s | -25.7°C | 4.9% | 420.6hPa | 2.5V | 00:00:00 | 02:59:09 | 00:00:00 | |
| DL1CLM-18 | 2026-09-05 02:18:03 | 51.87889 | 8.52232 | 103° | 120km/h | 6981m | -3.8m/s | -25.7°C | 4.2% | 420.6hPa | 2.5V | 00:00:00 | 00:00:00 | 00:00:00 | |
| DL3AQ-11 | 2026-09-05 02:18:02 | 51.87909 | 8.52089 | 103° | 119km/h | 6991m | -3.7m/s | -25.8°C | 4.2% | 420.0hPa | 2.5V | 00:00:00 | 00:00:00 | 00:00:00 | |
| DL1ZP-14 | 2026-09-05 02:18:01 | 51.87970 | 8.51653 | 102° | 122km/h | 7023m | -3.6m/s | -25.8°C | 4.1% | 418.1hPa | 2.5V | 00:00:00 | 00:00:00 | 00:00:00 | |
| GOEST3-10 | 2026-09-05 02:18:00 | 51.87916 | 8.52041 | 104° | 120km/h | 6995m | -3.4m/s | -25.8°C | 4.9% | 419.8hPa | 2.5V | 00:00:00 | 00:00:00 | 00:00:00 | |
| DM0DOS-11 | 2026-09-05 02:17:59 | 51.87957 | 8.51751 | 102° | 122km/h | 7016m | -3.3m/s | -25.8°C | 4.8% | 418.5hPa | 2.5V | 07:36:51 | 02:58:59 | 00:00:00 | |
| HSKMA3-T | 2026-09-05 02:17:56 | 51.87944 | 8.51848 | 103° | 122km/h | 7009m | -3.9m/s | -25.8°C | 3.8% | 418.9hPa | 2.6V | 07:37:20 | 02:59:01 | 00:00:00 | |
| DB0DAN | 2026-09-05 02:17:55 | 51.87951 | 8.51799 | 102° | 115km/h | 7013m | -3.3m/s | -25.8°C | 4.1% | 418.73hPa | 2.6V | 00:00:00 | 00:00:00 | 00:00:00 | |
| DO2JMG | 2026-09-05 02:17:54 | 51.87957 | 8.51751 | 102° | 122km/h | 7016m | -3.3m/s | -25.8°C | 3.8% | 418.5hPa | 2.5V | 07:37:20 | 02:58:59 | 00:00:00 | |
| BIOWL1-15 | 2026-09-05 02:17:53 | 51.87977 | 8.51604 | 103° | 124km/h | 7027m | -3.7m/s | -25.7°C | 3.7% | 417.9hPa | 2.6V | 07:37:20 | 02:58:56 | 00:00:00 | |
| DL4XJ-10 | 2026-09-05 02:17:51 | 51.87977 | 8.51603 | 103° | 128km/h | 7027m | -3.6m/s | -25.7°C | 0% | 0hPa | 2.6V | 00:00:00 | 00:00:00 | 00:00:00 | |
| GOEST3-10 | 2026-09-05 02:17:50 | 51.87984 | 8.51554 | 103° | 126km/h | 7030m | -3.5m/s | -25.7°C | 4.7% | 417.7hPa | 2.6V | 00:00:00 | 00:00:00 | 00:00:00 | |
| DD1CC1-15 | 2026-09-05 02:17:49 | 51.87984 | 8.51554 | 104° | 124km/h | 7030m | -3.6m/s | -25.7°C | 4.0% | 417.7hPa | 2.6V | 07:37:00 | 00:00:00 | 00:00:00 | |
| DL1CLM-18 | 2026-09-05 02:17:47 | 51.87998 | 8.51454 | 104° | 124km/h | 7038m | -4.0m/s | -25.8°C | 4.0% | 417.3hPa | 2.6V | 00:00:00 | 00:00:00 | 00:00:00 | |
| DM0DOS-11 | 2026-09-05 02:17:46 | 51.88027 | 8.51255 | 102° | 126km/h | 7051m | -3.2m/s | -25.9°C | 4.7% | 416.5hPa | 2.6V | 07:37:01 | 02:58:49 | 00:00:00 | |
| HSKMA3-T | 2026-09-05 02:17:46 | 51.88013 | 8.51354 | 104° | 126km/h | 7045m | -3.4m/s | -25.8°C | 3.7% | 416.9hPa | 2.5V | 07:37:20 | 02:58:51 | 00:00:00 | |
| DL3AQ-11 | 2026-09-05 02:17:46 | 51.88020 | 8.51305 | 102° | 122km/h | 7048m | -3.1m/s | -25.9°C | 4.1% | 416.7hPa | 2.6V | 00:00:00 | 00:00:00 | 00:00:00 | |
| DL1XH-west | 2026-09-05 02:17:43 | 51.88034 | 8.51205 | 103° | 124km/h | 7055m | -3.6m/s | -25.9°C | 3.7% | 416.3hPa | 2.6V | 07:37:20 | 02:58:48 | 00:00:00 | |
| DL8OAI-8 | 2026-09-05 02:17:42 | 51.88034 | 8.51205 | 104° | 124km/h | 7055m | -3.6m/s | -25.9°C | 4.1% | 416.3hPa | 2.5V | 00:00:00 | 00:00:00 | 00:00:00 | |
| DB0DAN | 2026-09-05 02:17:40 | 51.88056 | 8.51056 | 103° | 120km/h | 7065m | -3.7m/s | -25.9°C | 4% | 415.68hPa | 2.5V | 00:00:00 | 00:00:00 | 00:00:00 | |
| BIOWL1-15 | 2026-09-05 02:17:40 | 51.88056 | 8.51056 | 103° | 126km/h | 7065m | -3.7m/s | -25.9°C | 3.7% | 415.7hPa | 2.5V | 07:37:20 | 02:58:45 | 00:00:00 | |
| GOEST3-10 | 2026-09-05 02:17:40 | 51.88056 | 8.51056 | 104° | 130km/h | 7065m | -3.6m/s | -25.8°C | 4.7% | 415.6hPa | 2.5V | 00:00:00 | 00:00:00 | 00:00:00 | |
| DO9LL-15 | 2026-09-05 02:17:38 | 51.88070 | 8.50953 | 103° | 135km/h | 7072m | -3.5m/s | -25.9°C | 4.8% | 415.2hPa | 2.5V | 00:00:00 | 02:58:43 | 00:00:00 | |
| DM0DOS-11 | 2026-09-05 02:17:35 | 51.88100 | 8.50744 | 102° | 133km/h | 7085m | -3.3m/s | -26.1°C | 4.8% | 414.5hPa | 2.5V | 07:37:11 | 02:58:39 | 00:00:00 | |
| HSKMA3-T | 2026-09-05 02:17:35 | 51.88092 | 8.50797 | 103° | 131km/h | 7082m | -3.3m/s | -26.1°C | 3.7% | 414.7hPa | 2.5V | 07:37:20 | 02:58:40 | 00:00:00 | |
| DL1XH-west | 2026-09-05 02:17:33 | 51.88107 | 8.50691 | 102° | 131km/h | 7088m | -3.2m/s | -26.1°C | 3.7% | 414.3hPa | 2.6V | 07:37:20 | 02:58:38 | 00:00:00 | |
| DO2JMG | 2026-09-05 02:17:32 | 51.88114 | 8.50638 | 103° | 133km/h | 7092m | -3.5m/s | -26.1°C | 3.7% | 414.2hPa | 2.6V | 07:37:20 | 02:58:37 | 00:00:00 | |
| BIOWL1-15 | 2026-09-05 02:17:29 | 51.88144 | 8.50426 | 102° | 135km/h | 7105m | -3.4m/s | -26.2°C | 3.7% | 413.5hPa | 2.6V | 07:37:20 | 02:58:33 | 00:00:00 | |
| DB0NH | 2026-09-05 02:17:28 | 51.88144 | 8.50426 | 103° | 137km/h | 7105m | -3.4m/s | -26.1°C | 4.8% | 413.5hPa | 2.6V | 07:37:00 | 02:58:33 | 00:00:00 | |
| DB0UT-7 | 2026-09-05 02:17:27 | 51.88151 | 8.50372 | 103° | 137km/h | 7109m | -3.8m/s | -26.2°C | 4.8% | 413.2hPa | 2.6V | 00:00:00 | 02:58:32 | 00:00:00 | |
| DM0DOS-11 | 2026-09-05 02:17:25 | 51.88173 | 8.50213 | 103° | 133km/h | 7118m | -3.4m/s | -26.3°C | 4.8% | 412.6hPa | 2.6V | 07:37:21 | 02:58:29 | 00:00:00 | |
| DB0DAN | 2026-09-05 02:17:25 | 51.88165 | 8.50266 | 102° | 126km/h | 7115m | -3.3m/s | -26.3°C | 4.1% | 412.82hPa | 2.6V | 00:00:00 | 00:00:00 | 00:00:00 | |
| HSKMA3-T | 2026-09-05 02:17:24 | 51.88173 | 8.50213 | 103° | 133km/h | 7119m | -3.4m/s | -26.3°C | 3.6% | 412.6hPa | 2.6V | 07:38:11 | 02:58:29 | 00:00:00 | |
| DL1XH-west | 2026-09-05 02:17:22 | 51.88188 | 8.50106 | 103° | 133km/h | 7125m | -3.4m/s | -26.3°C | 3.6% | 412.2hPa | 2.5V | 07:38:11 | 02:58:27 | 00:00:00 | |
| DO2JMG | 2026-09-05 02:17:21 | 51.88196 | 8.50053 | 103° | 133km/h | 7129m | -3.6m/s | -26.2°C | 3.5% | 412.1hPa | 2.6V | 07:38:11 | 02:58:26 | 00:00:00 | |
| BIOWL1-15 | 2026-09-05 02:17:17 | 51.88233 | 8.49783 | 103° | 137km/h | 7146m | -3.5m/s | -25.7°C | 3.2% | 411.1hPa | 2.6V | 07:38:11 | 02:58:21 | 00:00:00 | |
| DM0DOS-11 | 2026-09-05 02:17:15 | 51.88248 | 8.49674 | 102° | 137km/h | 7153m | -3.5m/s | -25.7°C | 4.4% | 410.8hPa | 2.5V | 07:37:31 | 02:58:19 | 00:00:00 | |
| HSKMA3-T | 2026-09-05 02:17:13 | 51.88256 | 8.49619 | 103° | 137km/h | 7156m | -3.3m/s | -25.8°C | 3.2% | 410.6hPa | 2.5V | 07:38:11 | 02:58:18 | 00:00:00 | |
| DL1XH-west | 2026-09-05 02:17:11 | 51.88271 | 8.49509 | 103° | 137km/h | 7163m | -3.5m/s | -25.9°C | 3.3% | 410.1hPa | 2.6V | 07:38:11 | 02:58:16 | 00:00:00 | |
| DO2JMG | 2026-09-05 02:17:11 | 51.88278 | 8.49455 | 103° | 137km/h | 7166m | -3.7m/s | -25.9°C | 3.3% | 409.9hPa | 2.6V | 07:38:11 | 02:58:15 | 00:00:00 | |
| BIOWL1-15 | 2026-09-05 02:17:07 | 51.88301 | 8.49290 | 103° | 137km/h | 7177m | -3.6m/s | -26°C | 3.3% | 409.3hPa | 2.5V | 07:38:11 | 02:58:12 | 00:00:00 | |
| DM0DOS-11 | 2026-09-05 02:17:05 | 51.88325 | 8.49126 | 102° | 139km/h | 7187m | -3.4m/s | -26°C | 4.5% | 408.7hPa | 2.6V | 07:37:41 | 02:58:09 | 00:00:00 | |
| HSKMA3-T | 2026-09-05 02:17:02 | 51.88340 | 8.49016 | 102° | 139km/h | 7194m | -3.6m/s | -26.1°C | 3.4% | 408.4hPa | 2.5V | 07:38:11 | 02:58:07 | 00:00:00 | |
| DL1XH-west | 2026-09-05 02:17:01 | 51.88347 | 8.48960 | 103° | 139km/h | 7198m | -3.3m/s | -26.1°C | 3.4% | 408.2hPa | 2.5V | 07:38:11 | 02:58:06 | 00:00:00 | |
| DO2JMG | 2026-09-05 02:17:00 | 51.88355 | 8.48905 | 102° | 139km/h | 7201m | -3.7m/s | -26.1°C | 3.4% | 408hPa | 2.6V | 07:38:11 | 02:58:05 | 00:00:00 | |
| BIOWL1-15 | 2026-09-05 02:16:56 | 51.88393 | 8.48627 | 103° | 141km/h | 7218m | -3.6m/s | -26.3°C | 3.5% | 407.1hPa | 2.5V | 07:38:11 | 02:58:00 | 00:00:00 | |
| DL1XH-west | 2026-09-05 02:16:51 | 51.88424 | 8.48404 | 103° | 141km/h | 7232m | -3.7m/s | -26.4°C | 3.6% | 406.2hPa | 2.5V | 07:38:11 | 02:57:56 | 00:00:00 | |
| DO2JMG | 2026-09-05 02:16:50 | 51.88432 | 8.48348 | 103° | 141km/h | 7235m | -3.6m/s | -26.4°C | 3.6% | 406hPa | 2.5V | 07:38:11 | 02:57:55 | 00:00:00 | |
| BIOWL1-15 | 2026-09-05 02:16:47 | 51.88473 | 8.48067 | 103° | 142km/h | 7253m | -3.9m/s | -26.6°C | 3.8% | 405hPa | 2.5V | 07:38:11 | 02:57:50 | 00:00:00 | |
| DL1XH-west | 2026-09-05 02:16:40 | 51.88515 | 8.47785 | 104° | 142km/h | 7271m | -3.6m/s | -26.6°C | 4.1% | 404hPa | 2.5V | 07:38:11 | 02:57:45 | 00:00:00 | |
| DO2JMG | 2026-09-05 02:16:39 | 51.88523 | 8.47729 | 104° | 142km/h | 7275m | -3.7m/s | -26.7°C | 4.1% | 403.9hPa | 2.6V | 07:38:11 | 02:57:44 | 00:00:00 | |
| BIOWL1-15 | 2026-09-05 02:16:37 | 51.88557 | 8.47502 | 104° | 142km/h | 7289m | -3.6m/s | -26.8°C | 4.4% | 403hPa | 2.5V | 07:38:11 | 02:57:40 | 00:00:00 | |
| HSKMA3-T | 2026-09-05 02:16:30 | 51.88600 | 8.47218 | 104° | 142km/h | 7306m | -3.6m/s | -26.9°C | 4.9% | 402.1hPa | 2.5V | 07:39:02 | 02:57:35 | 00:00:00 | |
| DL1XH-west | 2026-09-05 02:16:29 | 51.88609 | 8.47162 | 104° | 142km/h | 7310m | -3.2m/s | -26.9°C | 5% | 401.9hPa | 2.5V | 07:39:02 | 02:57:34 | 00:00:00 | |
| DO2JMG | 2026-09-05 02:16:28 | 51.88618 | 8.47106 | 104° | 142km/h | 7313m | -3.9m/s | -27°C | 5% | 401.7hPa | 2.5V | 07:39:02 | 02:57:33 | 00:00:00 | |
| BIOWL1-15 | 2026-09-05 02:16:26 | 51.88653 | 8.46880 | 104° | 144km/h | 7327m | -3.5m/s | -27.1°C | 5.4% | 400.9hPa | 2.5V | 07:39:02 | 02:57:29 | 00:00:00 | |
| HSKMA3-T | 2026-09-05 02:16:20 | 51.88690 | 8.46651 | 104° | 144km/h | 7341m | -3.7m/s | -27.2°C | 6.2% | 400.1hPa | 2.6V | 07:39:02 | 02:57:25 | 00:00:00 | |
| DL1XH-west | 2026-09-05 02:16:19 | 51.88699 | 8.46594 | 104° | 144km/h | 7345m | -3.5m/s | -27.3°C | 6.3% | 399.9hPa | 2.5V | 07:39:02 | 02:57:24 | 00:00:00 | |
| DO2JMG | 2026-09-05 02:16:18 | 51.88708 | 8.46537 | 104° | 144km/h | 7349m | -3.7m/s | -27.3°C | 6.4% | 399.6hPa | 2.5V | 07:39:02 | 02:57:23 | 00:00:00 | |
| SONCRA | 2026-09-05 02:16:17 | 51.88716 | 8.46480 | 104° | 142km/h | 7352m | -3.6m/s | -27.3°C | 5.7% | 399.5hPa | 2.5V | 00:00:00 | 00:00:00 | 00:00:00 | |
| DL8OAI-8 | 2026-09-05 02:16:16 | 51.88717 | 8.46480 | 105° | 144km/h | 7352m | -3.6m/s | -27.3°C | 5.7% | 399.5hPa | 2.5V | 00:00:00 | 00:00:00 | 00:00:00 | |
| DM0DOS-11 | 2026-09-05 02:16:15 | 51.88742 | 8.46309 | 103° | 144km/h | 7362m | -3.6m/s | -27.4°C | 6.9% | 398.9hPa | 2.5V | 07:38:31 | 02:57:19 | 00:00:00 | |
| BIOWL1-15 | 2026-09-05 02:16:14 | 51.88743 | 8.46309 | 104° | 144km/h | 7363m | -3.6m/s | -27.4°C | 6.8% | 398.9hPa | 2.5V | 07:39:02 | 02:57:19 | 00:00:00 | |
| DL1XH-west | 2026-09-05 02:16:09 | 51.88785 | 8.46023 | 103° | 144km/h | 7380m | -3.5m/s | -27.5°C | 8.3% | 397.9hPa | 2.5V | 07:39:02 | 02:57:14 | 00:00:00 | |
| DO2JMG | 2026-09-05 02:16:08 | 51.88794 | 8.45966 | 103° | 144km/h | 7384m | -3.4m/s | -27.5°C | 8.7% | 397.7hPa | 2.5V | 07:39:02 | 02:57:13 | 00:00:00 | |
| DO9LL-15 | 2026-09-05 02:16:08 | 51.88794 | 8.45966 | 104° | 142km/h | 7384m | -3.3m/s | -27.5°C | 8.3% | 397.7hPa | 2.6V | 00:00:00 | 02:57:13 | 00:00:00 | |
| BUE01 | 2026-09-05 02:16:07 | 51.88802 | 8.45909 | 103° | 142km/h | 7387m | -3.5m/s | -27.6°C | 7.5% | 397.6hPa | 2.6V | 00:00:00 | 00:00:00 | 00:00:00 | |
| DD1CC1-15 | 2026-09-05 02:16:06 | 51.88802 | 8.45909 | 105° | 144km/h | 7387m | -3.5m/s | -27.6°C | 7.5% | 397.6hPa | 2.6V | 07:39:00 | 00:00:00 | 00:00:00 | |
| DM0DOS-11 | 2026-09-05 02:16:05 | 51.88828 | 8.45737 | 103° | 144km/h | 7397m | -3.5m/s | -27.6°C | 9.1% | 397hPa | 2.6V | 07:38:41 | 02:57:09 | 00:00:00 | |
| BIOWL1-15 | 2026-09-05 02:16:04 | 51.88828 | 8.45737 | 104° | 144km/h | 7397m | -3.5m/s | -27.6°C | 9.7% | 397hPa | 2.6V | 07:39:02 | 02:57:09 | 00:00:00 | |
| DF8AY | 2026-09-05 02:16:01 | 51.88853 | 8.45565 | 104° | 144km/h | 7408m | -3.5m/s | 0°C | 0% | 0hPa | 2.5V | 18:12:15 | 02:57:06 | 00:00:00 | |
| DL1XH-west | 2026-09-05 02:15:58 | 51.88879 | 8.45394 | 103° | 142km/h | 7418m | -3.3m/s | -27.8°C | 10.3% | 395.8hPa | 2.5V | 07:39:02 | 02:57:03 | 00:00:00 | |
| DO2JMG | 2026-09-05 02:15:57 | 51.88887 | 8.45338 | 104° | 142km/h | 7422m | -3.5m/s | -27.8°C | 10.4% | 395.6hPa | 2.5V | 07:39:02 | 02:57:02 | 00:00:00 | |
| DB0UT-7 | 2026-09-05 02:15:57 | 51.88887 | 8.45338 | 104° | 142km/h | 7422m | -3.5m/s | -27.8°C | 9.6% | 395.6hPa | 2.5V | 00:00:00 | 00:00:00 | 00:00:00 | |
| DM0DOS-11 | 2026-09-05 02:15:55 | 51.88913 | 8.45168 | 103° | 142km/h | 7432m | -3.6m/s | -27.9°C | 9.9% | 395.1hPa | 2.5V | 07:38:51 | 02:56:59 | 00:00:00 | |
| DB0DAN | 2026-09-05 02:15:55 | 51.88904 | 8.45225 | 104° | 135km/h | 7429m | -3.3m/s | -27.9°C | 8.7% | 395.27hPa | 2.6V | 00:00:00 | 00:00:00 | 00:00:00 | |
| BIOWL1-15 | 2026-09-05 02:15:53 | 51.88921 | 8.45112 | 104° | 142km/h | 7436m | -3.3m/s | -27.9°C | 10.8% | 394.9hPa | 2.5V | 07:39:02 | 02:56:58 | 00:00:00 | |
| DL1XH-west | 2026-09-05 02:15:48 | 51.88962 | 8.44827 | 103° | 144km/h | 7452m | -3.5m/s | -28°C | 11% | 394hPa | 2.5V | 07:39:02 | 02:56:53 | 00:00:00 | |
| DO2JMG | 2026-09-05 02:15:47 | 51.88970 | 8.44770 | 103° | 144km/h | 7456m | -3.7m/s | -28.1°C | 11% | 393.7hPa | 2.5V | 07:39:02 | 02:56:52 | 00:00:00 | |
| DL3AQ-11 | 2026-09-05 02:15:46 | 51.88985 | 8.44655 | 102° | 142km/h | 7463m | -3.5m/s | -28.1°C | 9.0% | 393.3hPa | 2.6V | 00:00:00 | 00:00:00 | 00:00:00 | |
| DM0DOS-11 | 2026-09-05 02:15:45 | 51.88993 | 8.44598 | 102° | 142km/h | 7467m | -3.5m/s | -28.1°C | 10.1% | 393.2hPa | 2.6V | 07:39:01 | 02:56:49 | 00:00:00 | |
| BIOWL1-15 | 2026-09-05 02:15:43 | 51.89000 | 8.44541 | 102° | 142km/h | 7470m | -3.4m/s | -28.2°C | 11.1% | 393hPa | 2.6V | 07:39:02 | 02:56:48 | 00:00:00 | |
| DB0DAN | 2026-09-05 02:15:40 | 51.89024 | 8.44371 | 103° | 135km/h | 7480m | -3.4m/s | -28.3°C | 9.1% | 392.44hPa | 2.5V | 00:00:00 | 00:00:00 | 00:00:00 | |
| DL1XH-west | 2026-09-05 02:15:38 | 51.89041 | 8.44258 | 104° | 142km/h | 7487m | -3.3m/s | -28.3°C | 11.2% | 392.1hPa | 2.6V | 07:39:53 | 02:56:43 | 00:00:00 | |
| HSKMA3-T | 2026-09-05 02:15:37 | 51.89049 | 8.44202 | 103° | 142km/h | 7490m | -3.4m/s | -28.3°C | 11.2% | 391.9hPa | 2.5V | 07:39:53 | 02:56:42 | 00:00:00 | |
| DO2JMG | 2026-09-05 02:15:36 | 51.89057 | 8.44145 | 103° | 142km/h | 7494m | -3.7m/s | -28.4°C | 11.2% | 391.7hPa | 2.5V | 07:39:53 | 02:56:41 | 00:00:00 | |
| DM0DOS-11 | 2026-09-05 02:15:35 | 51.89073 | 8.44032 | 102° | 141km/h | 7501m | -3.2m/s | -28.4°C | 10.3% | 391.3hPa | 2.6V | 07:39:11 | 02:56:39 | 00:00:00 | |
| BIOWL1-15 | 2026-09-05 02:15:32 | 51.89089 | 8.43919 | 102° | 142km/h | 7507m | -3.4m/s | -28.5°C | 11.4% | 391hPa | 2.5V | 07:39:53 | 02:56:37 | 00:00:00 | |
| DL1XH-west | 2026-09-05 02:15:27 | 51.89127 | 8.43633 | 102° | 142km/h | 7524m | -3.5m/s | -28.7°C | 11.5% | 390hPa | 2.5V | 07:39:53 | 02:56:32 | 00:00:00 | |
| HSKMA3-T | 2026-09-05 02:15:26 | 51.89135 | 8.43576 | 102° | 142km/h | 7527m | -3.3m/s | -28.7°C | 11.6% | 389.8hPa | 2.5V | 07:39:53 | 02:56:31 | 00:00:00 | |
| DB0DAN | 2026-09-05 02:15:25 | 51.89142 | 8.43520 | 102° | 135km/h | 7530m | -3.7m/s | -28.7°C | 9.3% | 389.65hPa | 2.5V | 00:00:00 | 00:00:00 | 00:00:00 | |
| DM0DOS-11 | 2026-09-05 02:15:25 | 51.89149 | 8.43463 | 101° | 141km/h | 7534m | -3.3m/s | -28.8°C | 10.6% | 389.5hPa | 2.6V | 07:39:21 | 02:56:29 | 00:00:00 | |
| DO2JMG | 2026-09-05 02:15:25 | 51.89142 | 8.43520 | 102° | 142km/h | 7530m | -3.7m/s | -28.7°C | 11.5% | 389.6hPa | 2.5V | 07:39:53 | 02:56:30 | 00:00:00 | |
| BIOWL1-15 | 2026-09-05 02:15:25 | 51.89172 | 8.43293 | 102° | 142km/h | 7543m | -3.5m/s | -28.9°C | 11.6% | 388.9hPa | 2.5V | 07:39:53 | 02:56:26 | 00:00:00 | |
| DF8AY | 2026-09-05 02:15:23 | 51.89194 | 8.43123 | 102° | 142km/h | 7554m | -3.4m/s | 0°C | 0% | 0hPa | 2.5V | 18:12:15 | 02:56:23 | 00:00:00 | |
| DL1XH-west | 2026-09-05 02:15:17 | 51.89201 | 8.43066 | 102° | 142km/h | 7557m | -3.4m/s | -29°C | 11.6% | 388.1hPa | 2.5V | 07:39:53 | 02:56:22 | 00:00:00 | |
| DM0DOS-11 | 2026-09-05 02:15:15 | 51.89223 | 8.42896 | 101° | 142km/h | 7567m | -3.6m/s | -29°C | 10.7% | 387.6hPa | 2.6V | 07:39:31 | 02:56:19 | 00:00:00 | |
| BIOWL1-15 | 2026-09-05 02:15:15 | 51.89245 | 8.42726 | 102° | 141km/h | 7577m | -3.3m/s | -29.1°C | 11.7% | 387.1hPa | 2.5V | 07:39:53 | 02:56:16 | 00:00:00 | |
| DO2JMG | 2026-09-05 02:15:15 | 51.89216 | 8.42952 | 102° | 142km/h | 7564m | -3.4m/s | -29°C | 11.6% | 387.9hPa | 2.6V | 07:39:53 | 02:56:20 | 00:00:00 | |
| DL1XH-west | 2026-09-05 02:15:07 | 51.89274 | 8.42500 | 101° | 142km/h | 7591m | -3.3m/s | -29.2°C | 11.8% | 386.4hPa | 2.5V | 07:39:53 | 02:56:12 | 00:00:00 | |
| DO2JMG | 2026-09-05 02:15:05 | 51.89287 | 8.42386 | 101° | 142km/h | 7597m | -3.3m/s | -29.3°C | 11.8% | 386hPa | 2.6V | 07:39:53 | 02:56:10 | 00:00:00 | |
| HSKMA3-T | 2026-09-05 02:15:04 | 51.89294 | 8.42329 | 101° | 142km/h | 7601m | -3.6m/s | -29.3°C | 11.7% | 385.9hPa | 2.6V | 07:39:53 | 02:56:09 | 00:00:00 | |
| BIOWL1-15 | 2026-09-05 02:15:01 | 51.89314 | 8.42156 | 100° | 142km/h | 7611m | -3.2m/s | -29.4°C | 11.8% | 385.3hPa | 2.5V | 07:39:53 | 02:56:06 | 00:00:00 | |
| DL1XH-west | 2026-09-05 02:14:57 | 51.89339 | 8.41927 | 100° | 142km/h | 7625m | -3.4m/s | -29.5°C | 11.6% | 384.6hPa | 2.5V | 07:39:53 | 02:56:02 | 00:00:00 | |
| DF8AY | 2026-09-05 02:14:56 | 51.89346 | 8.41870 | 100° | 142km/h | 7628m | -3.4m/s | 0°C | 0% | 0hPa | 2.5V | 18:12:15 | 02:56:01 | 00:00:00 | |
| DB0DAN | 2026-09-05 02:14:55 | 51.89352 | 8.41813 | 100° | 135km/h | 7632m | -3.3m/s | -29.6°C | 9.2% | 384.15hPa | 2.5V | 00:00:00 | 00:00:00 | 00:00:00 | |
| DO2JMG | 2026-09-05 02:14:54 | 51.89359 | 8.41756 | 101° | 141km/h | 7635m | -3.2m/s | -29.6°C | 11.3% | 384hPa | 2.6V | 07:39:53 | 02:55:59 | 00:00:00 | |
| AA1-15 | 2026-09-05 02:14:52 | 51.89372 | 8.41642 | 101° | 141km/h | 7642m | -3.4m/s | -29.6°C | 11.2% | 383.7hPa | 2.5V | 07:39:53 | 02:55:57 | 00:00:00 | |
| BIOWL1-15 | 2026-09-05 02:14:50 | 51.89392 | 8.41472 | 101° | 142km/h | 7652m | -3.5m/s | -29.7°C | 10.7% | 383.1hPa | 2.6V | 07:40:44 | 02:55:54 | 00:00:00 | |
| DL1XH-west | 2026-09-05 02:14:47 | 51.89406 | 8.41358 | 101° | 142km/h | 7659m | -3.4m/s | -29.7°C | 10.4% | 382.7hPa | 2.6V | 07:40:44 | 02:55:52 | 00:00:00 | |
| DF8AY | 2026-09-05 02:14:46 | 51.89412 | 8.41301 | 101° | 142km/h | 7662m | -3.6m/s | 0°C | 0% | 0hPa | 2.5V | 18:12:15 | 02:55:51 | 00:00:00 | |
| DM0DOS-11 | 2026-09-05 02:14:45 | 51.89426 | 8.41187 | 101° | 141km/h | 7669m | -3.1m/s | -29.8°C | 9.5% | 382.1hPa | 2.5V | 07:40:01 | 02:55:49 | 00:00:00 | |
| DO2JMG | 2026-09-05 02:14:44 | 51.89426 | 8.41187 | 101° | 141km/h | 7669m | -3.1m/s | -29.8°C | 10.2% | 382.2hPa | 2.5V | 07:40:44 | 02:55:49 | 00:00:00 | |
| HSKMA3-T | 2026-09-05 02:14:43 | 51.89433 | 8.41130 | 101° | 142km/h | 7672m | -3.5m/s | -29.8°C | 10.2% | 382hPa | 2.6V | 07:40:44 | 02:55:48 | 00:00:00 | |
| BIOWL1-15 | 2026-09-05 02:14:43 | 51.89461 | 8.40903 | 101° | 141km/h | 7686m | -3.1m/s | -29.8°C | 10% | 381.3hPa | 2.6V | 07:40:44 | 02:55:44 | 00:00:00 | |
| AA1-15 | 2026-09-05 02:14:42 | 51.89440 | 8.41073 | 101° | 141km/h | 7675m | -3.6m/s | -29.8°C | 10.1% | 381.9hPa | 2.6V | 07:40:44 | 02:55:47 | 00:00:00 | |
| DL1XH-west | 2026-09-05 02:14:37 | 51.89475 | 8.40789 | 101° | 142km/h | 7693m | -3.4m/s | -29.9°C | 9.9% | 380.9hPa | 2.5V | 07:40:44 | 02:55:42 | 00:00:00 | |
| DM0DOS-11 | 2026-09-05 02:14:35 | 51.89495 | 8.40617 | 100° | 142km/h | 7703m | -3.2m/s | -30°C | 9.2% | 380.3hPa | 2.6V | 07:40:11 | 02:55:39 | 00:00:00 | |
| DO2JMG | 2026-09-05 02:14:33 | 51.89502 | 8.40559 | 101° | 144km/h | 7707m | -3.6m/s | -30°C | 9.8% | 380.2hPa | 2.6V | 07:40:44 | 02:55:38 | 00:00:00 | |
| AA1-15 | 2026-09-05 02:14:32 | 51.89509 | 8.40501 | 101° | 144km/h | 7710m | -3.4m/s | -30°C | 9.8% | 380hPa | 2.6V | 07:40:44 | 02:55:37 | 00:00:00 | |
| BIOWL1-15 | 2026-09-05 02:14:28 | 51.89537 | 8.40270 | 101° | 144km/h | 7724m | -3.4m/s | -30.1°C | 9.8% | 379.2hPa | 2.6V | 07:40:44 | 02:55:33 | 00:00:00 | |
| DL1XH-west | 2026-09-05 02:14:27 | 51.89544 | 8.40212 | 101° | 144km/h | 7727m | -3.2m/s | -30.2°C | 9.8% | 379.1hPa | 2.6V | 07:40:44 | 02:55:32 | 00:00:00 | |
| DB0UT-7 | 2026-09-05 02:14:27 | 51.89544 | 8.40212 | 102° | 144km/h | 7727m | -3.2m/s | -30.1°C | 9.2% | 379.0hPa | 2.5V | 07:40:00 | 02:55:32 | 00:00:00 | |
| DM0DOS-11 | 2026-09-05 02:14:25 | 51.89566 | 8.40039 | 101° | 144km/h | 7737m | -3.5m/s | -30.2°C | 9.2% | 378.5hPa | 2.5V | 07:40:21 | 02:55:29 | 00:00:00 | |
| DO2JMG | 2026-09-05 02:14:23 | 51.89574 | 8.39981 | 102° | 144km/h | 7741m | -3.5m/s | -30.3°C | 9.9% | 378.3hPa | 2.6V | 07:40:44 | 02:55:28 | 00:00:00 | |
| HSKMA3-T | 2026-09-05 02:14:22 | 51.89582 | 8.39923 | 102° | 144km/h | 7744m | -3.5m/s | -30.3°C | 9.9% | 378.1hPa | 2.6V | 07:40:44 | 02:55:27 | 00:00:00 | |
| BIOWL1-15 | 2026-09-05 02:14:20 | 51.89611 | 8.39691 | 101° | 144km/h | 7758m | -3.3m/s | -30.4°C | 10% | 377.4hPa | 2.5V | 07:40:44 | 02:55:23 | 00:00:00 | |
| DL1XH-west | 2026-09-05 02:14:16 | 51.89626 | 8.39576 | 102° | 144km/h | 7765m | -3.5m/s | -30.4°C | 10.1% | 377.1hPa | 2.6V | 07:40:44 | 02:55:21 | 00:00:00 | |
| DF8AY | 2026-09-05 02:14:15 | 51.89633 | 8.39519 | 101° | 144km/h | 7768m | -3.4m/s | 0°C | 0% | 0hPa | 2.5V | 18:12:15 | 02:55:20 | 00:00:00 | |
| AA1-15 | 2026-09-05 02:14:13 | 51.89647 | 8.39404 | 102° | 142km/h | 7775m | -3.5m/s | -30.5°C | 10.2% | 376.5hPa | 2.5V | 07:40:44 | 02:55:18 | 00:00:00 | |
| DO2JMG | 2026-09-05 02:14:12 | 51.89655 | 8.39347 | 102° | 142km/h | 7778m | -3.5m/s | -30.5°C | 10.2% | 376.4hPa | 2.6V | 07:40:44 | 02:55:17 | 00:00:00 | |
| HSKMA3-T | 2026-09-05 02:14:11 | 51.89662 | 8.39290 | 102° | 142km/h | 7782m | -3.4m/s | -30.5°C | 10.3% | 376.1hPa | 2.6V | 07:40:44 | 02:55:16 | 00:00:00 | |
| BIOWL1-15 | 2026-09-05 02:14:09 | 51.89692 | 8.39061 | 102° | 144km/h | 7795m | -3.4m/s | -30.7°C | 10.3% | 375.4hPa | 2.5V | 07:40:44 | 02:55:12 | 00:00:00 | |
| DL1XH-west | 2026-09-05 02:14:05 | 51.89707 | 8.38945 | 102° | 144km/h | 7802m | -3.6m/s | -30.7°C | 10.4% | 375.1hPa | 2.6V | 07:40:44 | 02:55:10 | 00:00:00 | |
| BIOWL1-15 | 2026-09-05 02:14:03 | 51.89766 | 8.38481 | 102° | 144km/h | 7829m | -3.5m/s | -30.9°C | 10.2% | 373.6hPa | 2.5V | 07:41:35 | 02:55:02 | 00:00:00 | |
| DO2JMG | 2026-09-05 02:14:01 | 51.89736 | 8.38712 | 102° | 144km/h | 7816m | -3.6m/s | -30.8°C | 10.2% | 374.4hPa | 2.6V | 07:40:44 | 02:55:06 | 00:00:00 | |
| AA1-15 | 2026-09-05 02:13:59 | 51.89751 | 8.38596 | 102° | 144km/h | 7822m | -3.3m/s | -30.9°C | 10.3% | 374hPa | 2.6V | 07:42:26 | 02:55:04 | 00:00:00 | |
| GOEST3-10 | 2026-09-05 02:13:59 | 51.89751 | 8.38596 | 102° | 144km/h | 7823m | -3.2m/s | -30.8°C | 9.5% | 374.0hPa | 2.6V | 00:00:00 | 02:55:04 | 00:00:00 | |
| DB0UT-7 | 2026-09-05 02:13:57 | 51.89766 | 8.38481 | 102° | 146km/h | 7829m | -3.4m/s | -30.9°C | 9.5% | 373.6hPa | 2.6V | 00:00:00 | 00:00:00 | 00:00:00 | |
| DM0DOS-11 | 2026-09-05 02:13:55 | 51.89789 | 8.38307 | 101° | 146km/h | 7839m | -3.2m/s | -31°C | 9.6% | 373.1hPa | 2.6V | 07:40:51 | 02:54:59 | 00:00:00 | |
| DL1XH-west | 2026-09-05 02:13:55 | 51.89781 | 8.38365 | 102° | 144km/h | 7836m | -3.3m/s | -31°C | 10.2% | 373.3hPa | 2.6V | 07:41:35 | 02:55:00 | 00:00:00 | |
| DO2JMG | 2026-09-05 02:13:51 | 51.89812 | 8.38132 | 102° | 146km/h | 7849m | -3.5m/s | -31.1°C | 10.2% | 372.6hPa | 2.5V | 07:41:35 | 02:54:56 | 00:00:00 | |
| HSKMA3-T | 2026-09-05 02:13:50 | 51.89819 | 8.38073 | 101° | 146km/h | 7853m | -3.2m/s | -31.1°C | 10.1% | 372.4hPa | 2.6V | 07:41:35 | 02:54:55 | 00:00:00 | |
| AA1-15 | 2026-09-05 02:13:49 | 51.89826 | 8.38015 | 101° | 146km/h | 7856m | -3.4m/s | -31.2°C | 10.1% | 372.2hPa | 2.6V | 07:42:26 | 02:54:54 | 00:00:00 | |
| BIOWL1-15 | 2026-09-05 02:13:48 | 51.89848 | 8.37839 | 102° | 146km/h | 7866m | -3.6m/s | -31.2°C | 10.6% | 371.7hPa | 2.5V | 07:41:35 | 02:54:51 | 00:00:00 | |
| DL1XH-west | 2026-09-05 02:13:45 | 51.89855 | 8.37781 | 101° | 144km/h | 7870m | -3.6m/s | -31.2°C | 10.8% | 371.5hPa | 2.5V | 07:41:35 | 02:54:50 | 00:00:00 | |
| DO2JMG | 2026-09-05 02:13:41 | 51.89884 | 8.37549 | 101° | 146km/h | 7883m | -3.5m/s | -31.4°C | 11.3% | 370.8hPa | 2.5V | 07:41:35 | 02:54:46 | 00:00:00 | |
| DB0DAN | 2026-09-05 02:13:40 | 51.89892 | 8.37490 | 101° | 139km/h | 7886m | -3.3m/s | -31.4°C | 9.1% | 370.62hPa | 2.5V | 00:00:00 | 00:00:00 | 00:00:00 | |
| HSKMA3-T | 2026-09-05 02:13:40 | 51.89892 | 8.37490 | 102° | 146km/h | 7886m | -3.3m/s | -31.4°C | 11.3% | 370.6hPa | 2.5V | 07:41:35 | 02:54:45 | 00:00:00 | |
| AA1-15 | 2026-09-05 02:13:38 | 51.89906 | 8.37373 | 101° | 146km/h | 7893m | -3.6m/s | -31.4°C | 11.1% | 370.3hPa | 2.6V | 07:42:26 | 02:54:43 | 00:00:00 | |
| BIOWL1-15 | 2026-09-05 02:13:35 | 51.89928 | 8.37196 | 101° | 148km/h | 7903m | -3.2m/s | -31.5°C | 11% | 369.8hPa | 2.5V | 07:41:35 | 02:54:40 | 00:00:00 | |
| DL1XH-west | 2026-09-05 02:13:34 | 51.89936 | 8.37137 | 101° | 148km/h | 7907m | -3.7m/s | -31.5°C | 11% | 369.6hPa | 2.5V | 07:41:35 | 02:54:39 | 00:00:00 | |
| DO2JMG | 2026-09-05 02:13:30 | 51.89966 | 8.36900 | 102° | 148km/h | 7921m | -3.4m/s | -31.6°C | 11% | 368.9hPa | 2.6V | 07:41:35 | 02:54:35 | 00:00:00 | |
| HSKMA3-T | 2026-09-05 02:13:29 | 51.89973 | 8.36840 | 101° | 148km/h | 7924m | -3.6m/s | -31.6°C | 11.1% | 368.7hPa | 2.5V | 07:41:35 | 02:54:34 | 00:00:00 | |
| AA1-15 | 2026-09-05 02:13:26 | 51.89995 | 8.36662 | 102° | 148km/h | 7934m | -3.3m/s | -31.7°C | 11.4% | 368.1hPa | 2.6V | 07:42:26 | 02:54:31 | 00:00:00 | |
| BIOWL1-15 | 2026-09-05 02:13:24 | 51.90010 | 8.36545 | 101° | 146km/h | 7941m | -3.6m/s | -31.7°C | 11.7% | 367.8hPa | 2.5V | 07:41:35 | 02:54:29 | 00:00:00 | |
| DL1XH-west | 2026-09-05 02:13:23 | 51.90017 | 8.36486 | 101° | 146km/h | 7945m | -3.4m/s | -31.8°C | 11.8% | 367.6hPa | 2.5V | 07:41:35 | 02:54:28 | 00:00:00 | |
| DO2JMG | 2026-09-05 02:13:20 | 51.90038 | 8.36310 | 101° | 146km/h | 7954m | -3.4m/s | -31.9°C | 11.8% | 367.1hPa | 2.6V | 07:41:35 | 02:54:25 | 00:00:00 | |
| HSKMA3-T | 2026-09-05 02:13:19 | 51.90046 | 8.36252 | 101° | 146km/h | 7958m | -3.8m/s | -31.9°C | 11.8% | 366.9hPa | 2.6V | 07:41:35 | 02:54:24 | 00:00:00 | |
| BIOWL1-15 | 2026-09-05 02:13:16 | 51.90081 | 8.35959 | 101° | 146km/h | 7975m | -3.4m/s | -32°C | 10.7% | 366hPa | 2.6V | 07:41:35 | 02:54:19 | 00:00:00 | |
| DM0DOS-11 | 2026-09-05 02:13:15 | 51.90081 | 8.35959 | 101° | 146km/h | 7975m | -3.4m/s | -32°C | 10% | 366hPa | 2.6V | 07:41:31 | 02:54:19 | 00:00:00 | |
| AA1-15 | 2026-09-05 02:13:15 | 51.90074 | 8.36017 | 101° | 148km/h | 7971m | -3.2m/s | -32°C | 11% | 366.2hPa | 2.5V | 07:42:26 | 02:54:20 | 00:00:00 | |
| DL1XH-west | 2026-09-05 02:13:13 | 51.90088 | 8.35900 | 102° | 146km/h | 7978m | -3.4m/s | -32°C | 10.6% | 365.9hPa | 2.6V | 07:41:35 | 02:54:18 | 00:00:00 | |
| BIOWL7-15 | 2026-09-05 02:13:12 | 51.90088 | 8.35900 | 102° | 146km/h | 7978m | -3.4m/s | -32.0°C | 8.5% | 365.9hPa | 2.5V | 00:00:00 | 00:00:00 | 00:00:00 | |
| DB0DAN | 2026-09-05 02:13:10 | 51.90111 | 8.35724 | 102° | 139km/h | 7988m | -3.4m/s | -32.1°C | 7.9% | 365.26hPa | 2.5V | 00:00:00 | 00:00:00 | 00:00:00 | |
| DO2JMG | 2026-09-05 02:13:09 | 51.90118 | 8.35666 | 102° | 146km/h | 7992m | -3.5m/s | -32.1°C | 9.6% | 365.1hPa | 2.5V | 07:42:26 | 02:54:14 | 00:00:00 | |
| GOEST3-10 | 2026-09-05 02:13:09 | 51.90118 | 8.35666 | 102° | 146km/h | 7992m | -3.4m/s | -32.0°C | 9.1% | 365.1hPa | 2.5V | 00:00:00 | 02:54:14 | 00:00:00 | |
| DO9LL-15 | 2026-09-05 02:13:08 | 51.90126 | 8.35607 | 102° | 148km/h | 7995m | -3.2m/s | -32.1°C | 8.9% | 364.9hPa | 2.5V | 00:00:00 | 02:54:13 | 00:00:00 | |
| DF7PN | 2026-09-05 02:13:07 | 51.90133 | 8.35549 | 102° | 146km/h | 7998m | -3.5m/s | -32.1°C | 7.5% | 364.8hPa | 2.5V | 00:00:00 | 00:00:00 | 00:00:00 | |
| DM0DOS-11 | 2026-09-05 02:13:05 | 51.90157 | 8.35373 | 102° | 148km/h | 8008m | -3.3m/s | -32.2°C | 8.5% | 364.3hPa | 2.5V | 07:41:41 | 02:54:09 | 00:00:00 | |
| AA1-15 | 2026-09-05 02:13:05 | 51.90149 | 8.35432 | 102° | 148km/h | 8005m | -3.6m/s | -32.2°C | 9% | 364.4hPa | 2.5V | 07:42:26 | 02:54:10 | 00:00:00 | |
| BIOWL1-15 | 2026-09-05 02:13:03 | 51.90189 | 8.35137 | 102° | 148km/h | 8022m | -3.5m/s | -32.3°C | 8.4% | 363.5hPa | 2.5V | 07:42:26 | 02:54:05 | 00:00:00 | |
| DL1XH-west | 2026-09-05 02:13:02 | 51.90173 | 8.35255 | 102° | 148km/h | 8015m | -3.6m/s | -32.2°C | 8.6% | 363.9hPa | 2.6V | 07:42:26 | 02:54:07 | 00:00:00 | |
| DD1CC8 | 2026-09-05 02:13:01 | 51.90189 | 8.35137 | 102° | 146km/h | 8022m | -3.5m/s | -32.3°C | 6.9% | 363.5hPa | 2.6V | 00:00:00 | 00:00:00 | 00:00:00 | |
| DD1CC1-15 | 2026-09-05 02:13:00 | 51.90180 | 8.35196 | 103° | 148km/h | 8019m | -3.4m/s | -32.3°C | 7.0% | 363.7hPa | 2.6V | 07:42:00 | 00:00:00 | 00:00:00 | |
| DL1XH-15 | 2026-09-05 02:12:59 | 51.90238 | 8.34784 | 102° | 148km/h | 8042m | -3.7m/s | -32.4°C | 8.1% | 362.5hPa | 2.6V | 07:41:51 | 02:53:59 | 00:00:00 | |
| DO2JMG | 2026-09-05 02:12:58 | 51.90205 | 8.35019 | 103° | 148km/h | 8029m | -3.4m/s | -32.3°C | 8.3% | 363.1hPa | 2.5V | 07:42:26 | 02:54:03 | 00:00:00 | |
| BIOWL1-15 | 2026-09-05 02:12:52 | 51.90255 | 8.34665 | 103° | 150km/h | 8050m | -3.5m/s | -32.5°C | 8.3% | 362.2hPa | 2.5V | 07:42:26 | 02:53:57 | 00:00:00 | |
| DL1XH-west | 2026-09-05 02:12:51 | 51.90263 | 8.34605 | 103° | 150km/h | 8053m | -3.4m/s | -32.5°C | 8.2% | 361.9hPa | 2.5V | 07:42:26 | 02:53:56 | 00:00:00 | |
| DO2JMG | 2026-09-05 02:12:48 | 51.90289 | 8.34425 | 103° | 150km/h | 8063m | -3.4m/s | -32.6°C | 8.1% | 361.4hPa | 2.5V | 07:42:26 | 02:53:53 | 00:00:00 | |
| HSKMA3-T | 2026-09-05 02:12:47 | 51.90297 | 8.34365 | 103° | 150km/h | 8067m | -3.5m/s | -32.6°C | 8.2% | 361.2hPa | 2.5V | 07:42:26 | 02:53:52 | 00:00:00 | |
| BIOWL1-15 | 2026-09-05 02:12:41 | 51.90349 | 8.34006 | 103° | 150km/h | 8087m | -3.6m/s | -32.7°C | 8.1% | 360.2hPa | 2.5V | 07:42:26 | 02:53:46 | 00:00:00 | |
| DB0DAN | 2026-09-05 02:12:40 | 51.90358 | 8.33947 | 104° | 142km/h | 8091m | -3.6m/s | -32.8°C | 6.7% | 360hPa | 2.5V | 00:00:00 | 00:00:00 | 00:00:00 | |
| SONCRA | 2026-09-05 02:12:40 | 51.90367 | 8.33887 | 103° | 148km/h | 8094m | -3.3m/s | -32.8°C | 6.6% | 359.8hPa | 2.5V | 00:00:00 | 00:00:00 | 00:00:00 | |
| DL1XH-15 | 2026-09-05 02:12:39 | 51.90409 | 8.33589 | 102° | 150km/h | 8112m | -3.4m/s | -32.8°C | 7.8% | 359hPa | 2.5V | 07:42:11 | 02:53:39 | 00:00:00 | |
| DO2JMG | 2026-09-05 02:12:38 | 51.90375 | 8.33828 | 104° | 150km/h | 8098m | -3.5m/s | -32.8°C | 8% | 359.6hPa | 2.6V | 07:42:26 | 02:53:43 | 00:00:00 | |
| HSKMA3-T | 2026-09-05 02:12:36 | 51.90393 | 8.33709 | 103° | 150km/h | 8105m | -3.8m/s | -32.8°C | 8% | 359.3hPa | 2.6V | 07:42:26 | 02:53:41 | 00:00:00 | |
| BIOWL1-15 | 2026-09-05 02:12:33 | 51.90434 | 8.33410 | 103° | 148km/h | 8122m | -3.5m/s | -32.9°C | 7.7% | 358.4hPa | 2.6V | 07:42:26 | 02:53:36 | 00:00:00 | |
| DL1XH-west | 2026-09-05 02:12:30 | 51.90442 | 8.33351 | 103° | 148km/h | 8126m | -3.8m/s | -32.9°C | 7.6% | 358.2hPa | 2.5V | 07:42:26 | 02:53:35 | 00:00:00 | |
| AA1-15 | 2026-09-05 02:12:29 | 51.90450 | 8.33292 | 103° | 148km/h | 8129m | -3.7m/s | -32.9°C | 7.5% | 358.1hPa | 2.5V | 07:42:26 | 02:53:34 | 00:00:00 | |
| DO2JMG | 2026-09-05 02:12:27 | 51.90467 | 8.33173 | 103° | 148km/h | 8136m | -3.4m/s | -32.9°C | 7.4% | 357.8hPa | 2.6V | 07:42:26 | 02:53:32 | 00:00:00 | |
| HSKMA3-T | 2026-09-05 02:12:26 | 51.90476 | 8.33114 | 103° | 148km/h | 8140m | -3.8m/s | -33°C | 7.4% | 357.6hPa | 2.6V | 07:42:26 | 02:53:31 | 00:00:00 | |
| BIOWL1-15 | 2026-09-05 02:12:20 | 51.90526 | 8.32761 | 102° | 148km/h | 8161m | -3.6m/s | -33.1°C | 7% | 356.4hPa | 2.5V | 07:42:26 | 02:53:25 | 00:00:00 | |
| AA1-15 | 2026-09-05 02:12:18 | 51.90541 | 8.32643 | 102° | 146km/h | 8168m | -3.2m/s | -33.1°C | 7.1% | 356.1hPa | 2.6V | 07:46:41 | 02:53:23 | 00:00:00 | |
| DO2JMG | 2026-09-05 02:12:17 | 51.90549 | 8.32585 | 102° | 146km/h | 8171m | -3.6m/s | -33.2°C | 7.1% | 356hPa | 2.6V | 07:43:17 | 02:53:22 | 00:00:00 | |
| HSKMA3-T | 2026-09-05 02:12:15 | 51.90564 | 8.32467 | 102° | 146km/h | 8178m | -3.6m/s | -33.2°C | 7.1% | 355.6hPa | 2.5V | 07:43:17 | 02:53:20 | 00:00:00 | |
| GOEST3-10 | 2026-09-05 02:12:14 | 51.90572 | 8.32409 | 102° | 146km/h | 8181m | -3.3m/s | -33.2°C | 7.2% | 355.4hPa | 2.5V | 00:00:00 | 00:00:00 | 00:00:00 | |
| BIOWL9-15 | 2026-09-05 02:12:13 | 51.90579 | 8.32350 | 101° | 146km/h | 8184m | -3.7m/s | 0°C | -1.0% | 355.3hPa | 2.5V | 00:00:00 | 00:00:00 | 00:00:00 | |
| DL1LOL-11 | 2026-09-05 02:12:12 | 51.90579 | 8.32350 | 103° | 146km/h | 8185m | -3.7m/s | -33.3°C | 6.1% | 355.3hPa | 2.5V | 07:43:00 | 00:00:00 | 00:00:00 | |
| DB0DAN | 2026-09-05 02:12:10 | 51.90602 | 8.32174 | 102° | 141km/h | 8195m | -3.7m/s | -33.4°C | 6.1% | 354.7hPa | 2.5V | 00:00:00 | 00:00:00 | 00:00:00 | |
| DM0DOS-11 | 2026-09-05 02:12:09 | 51.90646 | 8.31821 | 101° | 146km/h | 8216m | -3.5m/s | -33.5°C | 7.4% | 353.7hPa | 2.6V | 07:42:41 | 02:53:09 | 00:00:00 | |
| BIOWL1-15 | 2026-09-05 02:12:09 | 51.90609 | 8.32115 | 101° | 146km/h | 8199m | -3.5m/s | -33.4°C | 7.3% | 354.6hPa | 2.5V | 07:43:17 | 02:53:14 | 00:00:00 | |
| DO2JMG | 2026-09-05 02:12:06 | 51.90631 | 8.31939 | 101° | 146km/h | 8209m | -3.5m/s | -33.5°C | 7.3% | 354hPa | 2.6V | 07:43:17 | 02:53:11 | 00:00:00 | |
| HSKMA3-T | 2026-09-05 02:12:05 | 51.90639 | 8.31880 | 101° | 146km/h | 8213m | -3.6m/s | -33.5°C | 7.3% | 353.8hPa | 2.6V | 07:43:17 | 02:53:10 | 00:00:00 | |
| DD1CC3-15 | 2026-09-05 02:12:05 | 51.90639 | 8.31880 | 102° | 146km/h | 8213m | -3.6m/s | -33.5°C | 6.1% | 353.8hPa | 2.5V | 07:43:00 | 00:00:00 | 00:00:00 | |
| DO2LYB-13 | 2026-09-05 02:12:04 | 51.90639 | 8.31880 | 102° | 146km/h | 8213m | -3.6m/s | -33.5°C | 6.1% | 353.8hPa | 2.5V | 00:00:00 | 00:00:00 | 00:00:00 | |
| DL3AQ-11 | 2026-09-05 02:12:02 | 51.90667 | 8.31646 | 101° | 144km/h | 8227m | -3.8m/s | -33.6°C | 6.1% | 353.1hPa | 2.5V | 00:00:00 | 00:00:00 | 00:00:00 | |
| DL1XH-15 | 2026-09-05 02:11:59 | 51.90717 | 8.31236 | 101° | 146km/h | 8252m | -3.4m/s | -33.7°C | 7.8% | 351.9hPa | 2.5V | 07:42:51 | 02:52:59 | 00:00:00 | |
| DL1XH-west | 2026-09-05 02:11:59 | 51.90681 | 8.31529 | 101° | 146km/h | 8234m | -3.7m/s | -33.6°C | 7.3% | 352.8hPa | 2.6V | 07:43:17 | 02:53:04 | 00:00:00 | |
| BIOWL1-15 | 2026-09-05 02:11:58 | 51.90688 | 8.31471 | 101° | 146km/h | 8238m | -3.6m/s | -33.6°C | 7.4% | 352.6hPa | 2.6V | 07:43:17 | 02:53:03 | 00:00:00 | |
| DO3DL | 2026-09-05 02:11:57 | 51.90688 | 8.31471 | 102° | 146km/h | 8238m | -3.6m/s | -33.6°C | 6.2% | 352.6hPa | 2.5V | 07:43:00 | 00:00:00 | 00:00:00 | |
| DB0DAN | 2026-09-05 02:11:55 | 51.90710 | 8.31295 | 101° | 141km/h | 8248m | -3.4m/s | -33.7°C | 6.3% | 0hPa | 2.5V | 00:00:00 | 00:00:00 | 00:00:00 | |
| DO2JMG | 2026-09-05 02:11:55 | 51.90710 | 8.31295 | 101° | 146km/h | 8248m | -3.4m/s | -33.7°C | 7.7% | 352.1hPa | 2.5V | 07:43:17 | 02:53:00 | 00:00:00 | |
| HSKMA3-T | 2026-09-05 02:11:54 | 51.90717 | 8.31236 | 101° | 146km/h | 8252m | -3.4m/s | -33.7°C | 7.8% | 351.9hPa | 2.5V | 07:43:17 | 02:52:59 | 00:00:00 | |
| HTAHTA | 2026-09-05 02:11:50 | 51.90754 | 8.30942 | 100° | 146km/h | 8269m | -3.8m/s | -33.8°C | 7.6% | 351.0hPa | 2.6V | 00:00:00 | 00:00:00 | 00:00:00 | |
| DL1XH-15 | 2026-09-05 02:11:49 | 51.90789 | 8.30647 | 101° | 146km/h | 8287m | -3.4m/s | -33.9°C | 10.8% | 350.1hPa | 2.6V | 07:43:01 | 02:52:49 | 00:00:00 | |
| DL1XH-west | 2026-09-05 02:11:48 | 51.90761 | 8.30883 | 101° | 146km/h | 8273m | -3.5m/s | -33.8°C | 10.1% | 350.9hPa | 2.5V | 07:43:17 | 02:52:53 | 00:00:00 | |
| DO2JMG | 2026-09-05 02:11:45 | 51.90782 | 8.30706 | 101° | 146km/h | 8283m | -3.8m/s | -33.9°C | 11.4% | 350.3hPa | 2.6V | 07:43:17 | 02:52:50 | 00:00:00 | |
| HSKMA3-T | 2026-09-05 02:11:44 | 51.90789 | 8.30647 | 101° | 146km/h | 8287m | -3.4m/s | -33.9°C | 11.7% | 350.1hPa | 2.6V | 07:43:17 | 02:52:49 | 00:00:00 | |
| BIOWL1-15 | 2026-09-05 02:11:40 | 51.90835 | 8.30295 | 102° | 146km/h | 8308m | -3.5m/s | -34.1°C | 12.6% | 349.1hPa | 2.6V | 07:43:17 | 02:52:43 | 00:00:00 | |
| DL1XH-west | 2026-09-05 02:11:37 | 51.90843 | 8.30236 | 102° | 148km/h | 8312m | -3.5m/s | -34.1°C | 12.6% | 348.8hPa | 2.6V | 07:43:17 | 02:52:42 | 00:00:00 | |
| DO2JMG | 2026-09-05 02:11:35 | 51.90858 | 8.30118 | 102° | 148km/h | 8319m | -3.6m/s | -34.2°C | 12.5% | 348.5hPa | 2.5V | 07:43:17 | 02:52:40 | 00:00:00 | |
| DM0DOS-11 | 2026-09-05 02:11:34 | 51.90866 | 8.30059 | 102° | 148km/h | 8322m | -3.8m/s | -34.2°C | 11.4% | 348.3hPa | 2.5V | 07:43:11 | 02:52:39 | 00:00:00 | |
| HSKMA3-T | 2026-09-05 02:11:33 | 51.90874 | 8.30000 | 102° | 148km/h | 8326m | -3.4m/s | -34.3°C | 12.3% | 348.2hPa | 2.5V | 07:43:17 | 02:52:38 | 00:00:00 | |
| BIOWL1-15 | 2026-09-05 02:11:30 | 51.90913 | 8.29701 | 101° | 150km/h | 8343m | -3.7m/s | -34.4°C | 12.2% | 347.3hPa | 2.5V | 07:43:17 | 02:52:33 | 00:00:00 | |
| DL1XH-west | 2026-09-05 02:11:26 | 51.90928 | 8.29581 | 101° | 150km/h | 8350m | -3.6m/s | -34.5°C | 12.2% | 347hPa | 2.5V | 07:44:08 | 02:52:31 | 00:00:00 | |
| DM0DOS-11 | 2026-09-05 02:11:24 | 51.90942 | 8.29460 | 100° | 151km/h | 8357m | -3.3m/s | -34.5°C | 11.5% | 346.6hPa | 2.6V | 07:43:21 | 02:52:29 | 00:00:00 | |
| DO2JMG | 2026-09-05 02:11:24 | 51.90942 | 8.29460 | 101° | 151km/h | 8357m | -3.3m/s | -34.6°C | 12.4% | 346.6hPa | 2.6V | 07:44:08 | 02:52:29 | 00:00:00 | |
| HSKMA3-T | 2026-09-05 02:11:22 | 51.90957 | 8.29339 | 101° | 150km/h | 8364m | -3.7m/s | -34.6°C | 12.2% | 346.3hPa | 2.5V | 07:44:08 | 02:52:27 | 00:00:00 | |
| BIOWL1-15 | 2026-09-05 02:11:20 | 51.90985 | 8.29098 | 101° | 150km/h | 8379m | -3.6m/s | -34.7°C | 11% | 345.5hPa | 2.5V | 07:44:08 | 02:52:23 | 00:00:00 | |
| DL1XH-15 | 2026-09-05 02:11:19 | 51.91013 | 8.28855 | 100° | 151km/h | 8394m | -3.8m/s | -34.7°C | 9.3% | 344.8hPa | 2.6V | 07:43:31 | 02:52:19 | 00:00:00 | |
| DL1XH-west | 2026-09-05 02:11:16 | 51.90999 | 8.28977 | 101° | 151km/h | 8386m | -3.6m/s | -34.7°C | 10.2% | 345.1hPa | 2.5V | 07:44:08 | 02:52:21 | 00:00:00 | |
| DO2JMG | 2026-09-05 02:11:13 | 51.91020 | 8.28794 | 100° | 153km/h | 8397m | -3.5m/s | -34.7°C | 9.6% | 344.7hPa | 2.5V | 07:44:08 | 02:52:18 | 00:00:00 | |
| HSKMA3-T | 2026-09-05 02:11:12 | 51.91026 | 8.28732 | 100° | 153km/h | 8401m | -3.7m/s | -34.7°C | 9.5% | 344.5hPa | 2.5V | 07:44:08 | 02:52:17 | 00:00:00 | |
| BIOWL9-15 | 2026-09-05 02:11:11 | 51.91033 | 8.28671 | 100° | 151km/h | 8405m | -3.6m/s | -34.7°C | 7.6% | 344.3hPa | 2.6V | 00:00:00 | 00:00:00 | 00:00:00 | |
| DL1XH-15 | 2026-09-05 02:11:09 | 51.91082 | 8.28237 | 100° | 155km/h | 8430m | -3.5m/s | -34.8°C | 8.3% | 343.1hPa | 2.6V | 07:43:41 | 02:52:09 | 00:00:00 | |
| BIOWL1-15 | 2026-09-05 02:11:08 | 51.91054 | 8.28485 | 100° | 153km/h | 8416m | -3.6m/s | -34.8°C | 9.1% | 343.8hPa | 2.5V | 07:44:08 | 02:52:13 | 00:00:00 | |
| DL1XH-west | 2026-09-05 02:11:06 | 51.91068 | 8.28361 | 100° | 155km/h | 8423m | -3.6m/s | -34.8°C | 8.8% | 343.4hPa | 2.5V | 07:44:08 | 02:52:11 | 00:00:00 | |
| DO2JMG | 2026-09-05 02:11:03 | 51.91089 | 8.28174 | 101° | 155km/h | 8434m | -3.6m/s | -34.8°C | 8.3% | 342.8hPa | 2.6V | 07:44:08 | 02:52:08 | 00:00:00 | |
| HSKMA3-T | 2026-09-05 02:11:01 | 51.91104 | 8.28049 | 101° | 157km/h | 8441m | -3.6m/s | -34.8°C | 8.1% | 342.4hPa | 2.5V | 07:44:08 | 02:52:06 | 00:00:00 | |
| DL1XH-15 | 2026-09-05 02:10:59 | 51.91158 | 8.27607 | 101° | 157km/h | 8466m | -3.5m/s | -35°C | 7.4% | 341.3hPa | 2.5V | 07:43:51 | 02:51:59 | 00:00:00 | |
| BIOWL1-15 | 2026-09-05 02:10:57 | 51.91135 | 8.27797 | 101° | 159km/h | 8455m | -3.5m/s | -34.9°C | 7.6% | 341.8hPa | 2.6V | 07:44:08 | 02:52:02 | 00:00:00 | |
| DD1CC8 | 2026-09-05 02:10:57 | 51.91143 | 8.27734 | 101° | 157km/h | 8458m | -3.8m/s | -35.0°C | 6.2% | 341.7hPa | 2.5V | 00:00:00 | 00:00:00 | 00:00:00 | |
| DB0DAN | 2026-09-05 02:10:55 | 51.91151 | 8.27670 | 101° | 151km/h | 8462m | -3.4m/s | -35°C | 6.1% | 0hPa | 2.5V | 00:00:00 | 00:00:00 | 00:00:00 | |
| DL1XH-west | 2026-09-05 02:10:55 | 51.91151 | 8.27670 | 101° | 159km/h | 8462m | -3.4m/s | -35°C | 7.3% | 341.5hPa | 2.5V | 07:44:08 | 02:52:00 | 00:00:00 | |
| DO2JMG | 2026-09-05 02:10:52 | 51.91174 | 8.27480 | 101° | 157km/h | 8473m | -3.6m/s | -35°C | 6.9% | 341hPa | 2.5V | 07:44:08 | 02:51:57 | 00:00:00 | |
| HSKMA3-T | 2026-09-05 02:10:50 | 51.91189 | 8.27354 | 101° | 157km/h | 8480m | -3.5m/s | -35°C | 6.5% | 340.6hPa | 2.6V | 07:44:08 | 02:51:55 | 00:00:00 | |
| BIOWL1-15 | 2026-09-05 02:10:47 | 51.91213 | 8.27165 | 101° | 157km/h | 8491m | -3.6m/s | -35.1°C | 6.3% | 340.1hPa | 2.5V | 07:44:08 | 02:51:52 | 00:00:00 | |
| DL1XH-west | 2026-09-05 02:10:45 | 51.91228 | 8.27038 | 101° | 157km/h | 8498m | -3.4m/s | -35.2°C | 6.2% | 339.7hPa | 2.6V | 07:44:08 | 02:51:50 | 00:00:00 | |
| DO2JMG | 2026-09-05 02:10:42 | 51.91251 | 8.26848 | 101° | 159km/h | 8509m | -3.8m/s | -35.2°C | 6% | 339.2hPa | 2.5V | 07:44:08 | 02:51:47 | 00:00:00 | |
| HSKMA3-T | 2026-09-05 02:10:40 | 51.91267 | 8.26720 | 102° | 159km/h | 8516m | -3.9m/s | -35.2°C | 5.9% | 338.8hPa | 2.5V | 07:44:08 | 02:51:45 | 00:00:00 | |
| BIOWL1-15 | 2026-09-05 02:10:39 | 51.91291 | 8.26530 | 102° | 159km/h | 8527m | -3.8m/s | -35.2°C | 5.6% | 338.3hPa | 2.6V | 07:44:08 | 02:51:42 | 00:00:00 | |
| DL1XH-west | 2026-09-05 02:10:34 | 51.91316 | 8.26341 | 102° | 157km/h | 8538m | -3.9m/s | -35.2°C | 5.6% | 337.7hPa | 2.5V | 07:44:59 | 02:51:39 | 00:00:00 | |
| DO2JMG | 2026-09-05 02:10:31 | 51.91340 | 8.26152 | 102° | 157km/h | 8550m | -3.8m/s | -35.3°C | 5.7% | 337.2hPa | 2.5V | 07:44:59 | 02:51:36 | 00:00:00 | |
| HSKMA3-T | 2026-09-05 02:10:29 | 51.91356 | 8.26026 | 102° | 157km/h | 8557m | -3.9m/s | -35.4°C | 5.6% | 336.8hPa | 2.5V | 07:44:59 | 02:51:34 | 00:00:00 | |
| BIOWL1-15 | 2026-09-05 02:10:28 | 51.91380 | 8.25836 | 101° | 157km/h | 8568m | -3.9m/s | -35.5°C | 5.6% | 336.3hPa | 2.6V | 07:44:59 | 02:51:31 | 00:00:00 | |
| DB0UT-7 | 2026-09-05 02:10:27 | 51.91372 | 8.25899 | 102° | 157km/h | 8565m | -3.5m/s | -35.4°C | 6.2% | 336.5hPa | 2.6V | 07:44:00 | 02:51:32 | 00:00:00 | |
| DD1CC8 | 2026-09-05 02:10:26 | 51.91388 | 8.25773 | 101° | 157km/h | 8572m | -3.7m/s | -35.5°C | 4.9% | 336.1hPa | 2.5V | 00:00:00 | 00:00:00 | 00:00:00 | |
| DM0DOS-11 | 2026-09-05 02:10:24 | 51.91413 | 8.25584 | 101° | 157km/h | 8583m | -3.7m/s | -35.6°C | 6.2% | 335.6hPa | 2.5V | 07:44:23 | 02:51:27 | 00:00:00 | |
| DL1XH-west | 2026-09-05 02:10:23 | 51.91405 | 8.25647 | 102° | 157km/h | 8580m | -3.9m/s | -35.5°C | 5.6% | 335.8hPa | 2.5V | 07:44:59 | 02:51:28 | 00:00:00 | |
| DO2JMG | 2026-09-05 02:10:21 | 51.91421 | 8.25522 | 102° | 157km/h | 8587m | -3.7m/s | -35.6°C | 5.7% | 335.4hPa | 2.6V | 07:44:59 | 02:51:26 | 00:00:00 | |
| HSKMA3-T | 2026-09-05 02:10:19 | 51.91437 | 8.25396 | 102° | 157km/h | 8594m | -3.8m/s | -35.7°C | 5.7% | 335.1hPa | 2.5V | 07:44:59 | 02:51:24 | 00:00:00 | |
| AA1-15 | 2026-09-05 02:10:17 | 51.91453 | 8.25271 | 102° | 157km/h | 8602m | -3.6m/s | -35.7°C | 5.7% | 334.7hPa | 2.5V | 07:46:41 | 02:51:22 | 00:00:00 | |
| BIOWL1-15 | 2026-09-05 02:10:16 | 51.91461 | 8.25208 | 102° | 157km/h | 8606m | -4.1m/s | -35.7°C | 5.8% | 334.5hPa | 2.6V | 07:44:59 | 02:51:21 | 00:00:00 | |
| DD1CC1-15 | 2026-09-05 02:10:15 | 51.91461 | 8.25208 | 103° | 157km/h | 8606m | -4.1m/s | -35.7°C | 5.0% | 334.5hPa | 2.5V | 07:44:00 | 00:00:00 | 00:00:00 | |
| DM0DOS-11 | 2026-09-05 02:10:14 | 51.91493 | 8.24956 | 101° | 157km/h | 8621m | -3.7m/s | -35.8°C | 6.3% | 333.8hPa | 2.5V | 07:44:33 | 02:51:17 | 00:00:00 | |
| DL1XH-west | 2026-09-05 02:10:12 | 51.91493 | 8.24956 | 101° | 157km/h | 8621m | -3.7m/s | -35.8°C | 5.8% | 333.8hPa | 2.5V | 07:44:59 | 02:51:17 | 00:00:00 | |
| DO2JMG | 2026-09-05 02:10:11 | 51.91501 | 8.24893 | 101° | 157km/h | 8625m | -3.6m/s | -35.9°C | 5.7% | 333.6hPa | 2.5V | 07:44:59 | 02:51:16 | 00:00:00 | |
| DB0DAN | 2026-09-05 02:10:10 | 51.91509 | 8.24830 | 101° | 150km/h | 8629m | -4.1m/s | -35.9°C | 5% | 0hPa | 2.6V | 00:00:00 | 00:00:00 | 00:00:00 | |
| DL1XH-15 | 2026-09-05 02:10:09 | 51.91558 | 8.24450 | 102° | 159km/h | 8651m | -3.7m/s | -36.1°C | 6.4% | 332.3hPa | 2.6V | 07:44:41 | 02:51:09 | 00:00:00 | |
| HSKMA3-T | 2026-09-05 02:10:09 | 51.91517 | 8.24767 | 102° | 157km/h | 8633m | -3.8m/s | -35.9°C | 5.8% | 333.3hPa | 2.6V | 07:44:59 | 02:51:14 | 00:00:00 | |
| BIOWL1-15 | 2026-09-05 02:10:05 | 51.91549 | 8.24514 | 102° | 159km/h | 8648m | -4m/s | -36.1°C | 5.9% | 332.5hPa | 2.5V | 07:44:59 | 02:51:10 | 00:00:00 | |
| DM0DOS-11 | 2026-09-05 02:10:04 | 51.91575 | 8.24324 | 102° | 159km/h | 8659m | -3.9m/s | -36.1°C | 6.4% | 331.9hPa | 2.5V | 07:44:43 | 02:51:07 | 00:00:00 | |
| AA1-15 | 2026-09-05 02:10:01 | 51.91584 | 8.24261 | 103° | 159km/h | 8663m | -4m/s | -36.1°C | 6% | 331.7hPa | 2.5V | 07:46:41 | 02:51:06 | 00:00:00 | |
| DO2JMG | 2026-09-05 02:10:00 | 51.91593 | 8.24197 | 103° | 159km/h | 8667m | -3.7m/s | -36.2°C | 6% | 331.6hPa | 2.5V | 07:44:59 | 02:51:05 | 00:00:00 | |
| DL1XH-15 | 2026-09-05 02:09:59 | 51.91645 | 8.23818 | 102° | 159km/h | 8690m | -4m/s | -36.3°C | 6.9% | 330.4hPa | 2.5V | 07:44:51 | 02:50:59 | 00:00:00 | |
| HSKMA3-T | 2026-09-05 02:09:59 | 51.91602 | 8.24134 | 103° | 159km/h | 8671m | -4m/s | -36.2°C | 6% | 331.4hPa | 2.6V | 07:44:59 | 02:51:04 | 00:00:00 | |
| BIOWL1-15 | 2026-09-05 02:09:54 | 51.91644 | 8.23818 | 102° | 159km/h | 8690m | -4m/s | -36.3°C | 6.5% | 330.4hPa | 2.5V | 07:44:59 | 02:50:59 | 00:00:00 | |
| DL1XH-west | 2026-09-05 02:09:51 | 51.91669 | 8.23627 | 102° | 159km/h | 8702m | -3.9m/s | -36.4°C | 7.2% | 329.9hPa | 2.6V | 07:44:59 | 02:50:56 | 00:00:00 | |
| DO2JMG | 2026-09-05 02:09:50 | 51.91678 | 8.23564 | 101° | 159km/h | 8706m | -3.8m/s | -36.4°C | 7.5% | 329.7hPa | 2.5V | 07:44:59 | 02:50:55 | 00:00:00 | |
| HSKMA3-T | 2026-09-05 02:09:48 | 51.91693 | 8.23435 | 101° | 161km/h | 8714m | -4.1m/s | -36.4°C | 8.1% | 329.3hPa | 2.5V | 07:44:59 | 02:50:53 | 00:00:00 | |
| DL3AQ-11 | 2026-09-05 02:09:46 | 51.91717 | 8.23242 | 101° | 159km/h | 8726m | -4.0m/s | -36.5°C | 7.5% | 328.8hPa | 2.5V | 00:00:00 | 00:00:00 | 00:00:00 | |
| BIOWL1-15 | 2026-09-05 02:09:45 | 51.91733 | 8.23114 | 102° | 161km/h | 8734m | -4m/s | -36.6°C | 10.2% | 328.4hPa | 2.5V | 07:45:50 | 02:50:48 | 00:00:00 | |
| DM0DOS-11 | 2026-09-05 02:09:44 | 51.91742 | 8.23049 | 101° | 161km/h | 8738m | -4m/s | -36.6°C | 10% | 328.2hPa | 2.6V | 07:45:03 | 02:50:47 | 00:00:00 | |
| DL1XH-west | 2026-09-05 02:09:41 | 51.91750 | 8.22985 | 102° | 161km/h | 8741m | -3.7m/s | -36.6°C | 11% | 328hPa | 2.6V | 07:45:50 | 02:50:46 | 00:00:00 | |
| DB0DAN | 2026-09-05 02:09:40 | 51.91758 | 8.22921 | 102° | 153km/h | 8745m | -3.9m/s | -36.7°C | 9% | 0hPa | 2.5V | 00:00:00 | 00:00:00 | 00:00:00 | |
| DO2JMG | 2026-09-05 02:09:40 | 51.91758 | 8.22921 | 102° | 161km/h | 8745m | -3.9m/s | -36.7°C | 11.5% | 327.8hPa | 2.5V | 07:45:50 | 02:50:45 | 00:00:00 | |
| DL1XH-15 | 2026-09-05 02:09:39 | 51.91806 | 8.22535 | 101° | 161km/h | 8769m | -3.8m/s | -36.8°C | 13.2% | 326.7hPa | 2.5V | 07:45:11 | 02:50:39 | 00:00:00 | |
| HSKMA3-T | 2026-09-05 02:09:37 | 51.91782 | 8.22728 | 102° | 161km/h | 8757m | -3.9m/s | -36.7°C | 13.2% | 327.3hPa | 2.6V | 07:45:50 | 02:50:42 | 00:00:00 | |
| GOEST3-10 | 2026-09-05 02:09:37 | 51.91782 | 8.22728 | 102° | 161km/h | 8757m | -3.9m/s | -36.7°C | 12.1% | 327.2hPa | 2.6V | 00:00:00 | 00:00:00 | 00:00:00 | |
| DB0NH | 2026-09-05 02:09:36 | 51.91790 | 8.22664 | 102° | 161km/h | 8761m | -4.0m/s | -36.7°C | 12.5% | 327.1hPa | 2.6V | 00:00:00 | 02:50:41 | 00:00:00 | |
| DD1CC1-15 | 2026-09-05 02:09:35 | 51.91790 | 8.22664 | 102° | 161km/h | 8761m | -4.0m/s | -36.8°C | 10.7% | 327.1hPa | 2.6V | 07:45:00 | 00:00:00 | 00:00:00 | |
| DM0DOS-11 | 2026-09-05 02:09:34 | 51.91822 | 8.22406 | 101° | 161km/h | 8776m | -3.9m/s | -36.9°C | 13.6% | 326.4hPa | 2.6V | 07:45:13 | 02:50:37 | 00:00:00 | |
| BIOWL1-15 | 2026-09-05 02:09:32 | 51.91822 | 8.22407 | 101° | 161km/h | 8776m | -3.9m/s | -36.9°C | 14.9% | 326.4hPa | 2.6V | 07:45:50 | 02:50:37 | 00:00:00 | |
| DL1XH-west | 2026-09-05 02:09:30 | 51.91838 | 8.22278 | 101° | 161km/h | 8784m | -3.9m/s | -37°C | 15.1% | 326hPa | 2.5V | 07:45:50 | 02:50:35 | 00:00:00 | |
| DL1XH-15 | 2026-09-05 02:09:29 | 51.91886 | 8.21892 | 101° | 161km/h | 8808m | -4m/s | -37.2°C | 14.2% | 324.9hPa | 2.5V | 07:45:21 | 02:50:29 | 00:00:00 | |
| DO2JMG | 2026-09-05 02:09:29 | 51.91846 | 8.22213 | 101° | 161km/h | 8788m | -3.9m/s | -37°C | 15.1% | 325.8hPa | 2.5V | 07:45:50 | 02:50:34 | 00:00:00 | |
| AA1-15 | 2026-09-05 02:09:26 | 51.91870 | 8.22020 | 102° | 161km/h | 8800m | -3.9m/s | -37.1°C | 15.3% | 325.2hPa | 2.6V | 07:46:41 | 02:50:31 | 00:00:00 | |
| DO3DL | 2026-09-05 02:09:26 | 51.91870 | 8.22020 | 103° | 161km/h | 8800m | -3.9m/s | -37.1°C | 11.9% | 325.2hPa | 2.6V | 07:45:00 | 00:00:00 | 00:00:00 | |
| DM0DOS-11 | 2026-09-05 02:09:24 | 51.91902 | 8.21763 | 101° | 161km/h | 8815m | -3.9m/s | -37.3°C | 14.4% | 324.5hPa | 2.6V | 07:45:23 | 02:50:27 | 00:00:00 | |
| BIOWL1-15 | 2026-09-05 02:09:23 | 51.91910 | 8.21699 | 101° | 161km/h | 8819m | -4m/s | -37.3°C | 15.9% | 324.4hPa | 2.6V | 07:45:50 | 02:50:26 | 00:00:00 | |
| DL1XH-west | 2026-09-05 02:09:20 | 51.91918 | 8.21635 | 101° | 161km/h | 8823m | -3.8m/s | -37.4°C | 15.9% | 324.1hPa | 2.5V | 07:45:50 | 02:50:25 | 00:00:00 | |
| DO2JMG | 2026-09-05 02:09:18 | 51.91933 | 8.21506 | 101° | 161km/h | 8831m | -4.1m/s | -37.4°C | 16.1% | 323.8hPa | 2.5V | 07:45:50 | 02:50:23 | 00:00:00 | |
| HSKMA3-T | 2026-09-05 02:09:15 | 51.91957 | 8.21313 | 101° | 161km/h | 8843m | -3.8m/s | -37.6°C | 16.5% | 323.2hPa | 2.5V | 07:45:50 | 02:50:20 | 00:00:00 | |
| DL1XH-west | 2026-09-05 02:09:10 | 51.91996 | 8.20990 | 101° | 161km/h | 8863m | -4m/s | -37.7°C | 16.9% | 322.3hPa | 2.5V | 07:45:50 | 02:50:15 | 00:00:00 | |
| DO2JMG | 2026-09-05 02:09:08 | 51.92012 | 8.20862 | 101° | 161km/h | 8871m | -4.2m/s | -37.8°C | 17% | 321.9hPa | 2.5V | 07:45:50 | 02:50:13 | 00:00:00 | |
| HSKMA3-T | 2026-09-05 02:09:04 | 51.92044 | 8.20606 | 102° | 159km/h | 8887m | -4.1m/s | -38°C | 17.6% | 321.2hPa | 2.5V | 07:45:50 | 02:50:09 | 00:00:00 | |
| DB0ND-19 | 2026-09-05 02:09:02 | 51.92069 | 8.20414 | 101° | 159km/h | 8899m | -3.9m/s | -38.1°C | 14.3% | 320.7hPa | 2.5V | 00:00:00 | 00:00:00 | 00:00:00 | |
| DJ2DS-15 | 2026-09-05 02:09:01 | 51.92069 | 8.20414 | 101° | 159km/h | 8899m | -3.9m/s | -38.1°C | 14.3% | 320.7hPa | 2.5V | 00:00:00 | 00:00:00 | 00:00:00 | |
| DL1XH-15 | 2026-09-05 02:08:59 | 51.92125 | 8.19967 | 101° | 159km/h | 8926m | -3.8m/s | -38.3°C | 19% | 319.4hPa | 2.5V | 07:45:51 | 02:49:59 | 00:00:00 | |
| DL1XH-west | 2026-09-05 02:08:59 | 51.92085 | 8.20286 | 102° | 159km/h | 8907m | -3.9m/s | -38.2°C | 18.6% | 320.3hPa | 2.5V | 07:45:50 | 02:50:04 | 00:00:00 | |
| DO2JMG | 2026-09-05 02:08:57 | 51.92102 | 8.20158 | 101° | 159km/h | 8914m | -3.9m/s | -38.2°C | 19.1% | 319.9hPa | 2.6V | 07:45:50 | 02:50:02 | 00:00:00 | |
| DB0DAN | 2026-09-05 02:08:55 | 51.92117 | 8.20030 | 101° | 151km/h | 8922m | -4.1m/s | -38.3°C | 16% | 0hPa | 2.5V | 00:00:00 | 00:00:00 | 00:00:00 | |
| HSKMA3-T | 2026-09-05 02:08:53 | 51.92133 | 8.19904 | 101° | 157km/h | 8930m | -3.9m/s | -38.4°C | 20.8% | 319.2hPa | 2.5V | 07:46:41 | 02:49:58 | 00:00:00 | |
| BIOWL1-15 | 2026-09-05 02:08:53 | 51.92166 | 8.19650 | 102° | 159km/h | 8946m | -4m/s | -38.5°C | 20.9% | 318.5hPa | 2.5V | 07:46:41 | 02:49:54 | 00:00:00 | |
| BUE01 | 2026-09-05 02:08:53 | 51.92141 | 8.19840 | 101° | 157km/h | 8934m | -3.6m/s | -38.4°C | 16.5% | 319.0hPa | 2.5V | 00:00:00 | 00:00:00 | 00:00:00 | |
| GOEST3-10 | 2026-09-05 02:08:52 | 51.92141 | 8.19840 | 102° | 159km/h | 8934m | -3.5m/s | -38.4°C | 19.0% | 319.0hPa | 2.5V | 00:00:00 | 02:49:57 | 00:00:00 | |
| DO3DL | 2026-09-05 02:08:51 | 51.92141 | 8.19840 | 103° | 157km/h | 8934m | -3.6m/s | -38.4°C | 16.6% | 319.0hPa | 2.5V | 07:46:00 | 00:00:00 | 00:00:00 | |
| DL1XH-15 | 2026-09-05 02:08:49 | 51.92206 | 8.19331 | 101° | 159km/h | 8966m | -4.1m/s | -38.7°C | 19.2% | 317.6hPa | 2.5V | 07:46:01 | 02:49:49 | 00:00:00 | |
| DL1XH-west | 2026-09-05 02:08:48 | 51.92174 | 8.19587 | 102° | 159km/h | 8950m | -3.9m/s | -38.6°C | 21% | 318.3hPa | 2.5V | 07:46:41 | 02:49:53 | 00:00:00 | |
| DO2JMG | 2026-09-05 02:08:47 | 51.92182 | 8.19523 | 102° | 159km/h | 8954m | -4m/s | -38.6°C | 21.1% | 318.1hPa | 2.6V | 07:46:41 | 02:49:52 | 00:00:00 | |
| GOEST3-10 | 2026-09-05 02:08:47 | 51.92182 | 8.19523 | 102° | 159km/h | 8954m | -3.9m/s | -38.5°C | 19.3% | 318.1hPa | 2.6V | 07:45:00 | 00:00:00 | 00:00:00 | |
| DM0DOS-11 | 2026-09-05 02:08:44 | 51.92221 | 8.19204 | 100° | 159km/h | 8974m | -3.7m/s | -38.8°C | 19.3% | 317.1hPa | 2.6V | 07:46:03 | 02:49:47 | 00:00:00 | |
| HSKMA3-T | 2026-09-05 02:08:42 | 51.92221 | 8.19204 | 101° | 159km/h | 8974m | -3.7m/s | -38.8°C | 21.2% | 317.1hPa | 2.6V | 07:46:41 | 02:49:47 | 00:00:00 | |
| DB0DAN | 2026-09-05 02:08:40 | 51.92236 | 8.19077 | 100° | 150km/h | 8982m | -4m/s | -38.8°C | 16.8% | 0hPa | 2.5V | 00:00:00 | 00:00:00 | 00:00:00 | |
| DL1XH-15 | 2026-09-05 02:08:39 | 51.92280 | 8.18699 | 100° | 157km/h | 9006m | -4.2m/s | -39°C | 19.2% | 315.6hPa | 2.5V | 07:46:11 | 02:49:39 | 00:00:00 | |
| DL1XH-west | 2026-09-05 02:08:38 | 51.92251 | 8.18951 | 101° | 157km/h | 8990m | -4.6m/s | -38.9°C | 21.1% | 316.4hPa | 2.5V | 07:46:41 | 02:49:43 | 00:00:00 | |
| DO2JMG | 2026-09-05 02:08:37 | 51.92258 | 8.18888 | 101° | 157km/h | 8994m | -4.2m/s | -38.9°C | 21.1% | 316.2hPa | 2.6V | 07:46:41 | 02:49:42 | 00:00:00 | |
| AA1-15 | 2026-09-05 02:08:34 | 51.92280 | 8.18699 | 101° | 157km/h | 9007m | -4.2m/s | -39°C | 21% | 315.6hPa | 2.5V | 07:46:41 | 02:49:39 | 00:00:00 | |
| HSKMA3-T | 2026-09-05 02:08:32 | 51.92295 | 8.18573 | 101° | 157km/h | 9014m | -4.1m/s | -39.1°C | 20.9% | 315.3hPa | 2.6V | 07:46:41 | 02:49:37 | 00:00:00 | |
| DJ2KF-10 | 2026-09-05 02:08:32 | 51.92295 | 8.18573 | 102° | 157km/h | 9015m | -4.1m/s | -39.0°C | 19.2% | 315.2hPa | 2.6V | 00:00:00 | 02:49:37 | 00:00:00 | |
| SONCRA | 2026-09-05 02:08:31 | 51.92303 | 8.18510 | 101° | 157km/h | 9019m | -4.2m/s | -39.1°C | 16.6% | 315.1hPa | 2.5V | 00:00:00 | 00:00:00 | 00:00:00 | |
| DO3DL | 2026-09-05 02:08:30 | 51.92303 | 8.18510 | 102° | 157km/h | 9019m | -4.2m/s | -39.1°C | 16.6% | 315.1hPa | 2.5V | 07:46:00 | 00:00:00 | 00:00:00 | |
| DL1XH-15 | 2026-09-05 02:08:29 | 51.92355 | 8.18067 | 100° | 159km/h | 9047m | -4.2m/s | -39.3°C | 19% | 313.8hPa | 2.5V | 07:46:21 | 02:49:29 | 00:00:00 | |
| DL1XH-west | 2026-09-05 02:08:28 | 51.92326 | 8.18320 | 101° | 157km/h | 9031m | -4m/s | -39.2°C | 20.9% | 314.5hPa | 2.5V | 07:46:41 | 02:49:33 | 00:00:00 | |
| DO2JMG | 2026-09-05 02:08:26 | 51.92340 | 8.18194 | 101° | 159km/h | 9039m | -4m/s | -39.3°C | 20.8% | 314.1hPa | 2.6V | 07:46:41 | 02:49:31 | 00:00:00 | |
| DB0DAN | 2026-09-05 02:08:25 | 51.92348 | 8.18130 | 100° | 150km/h | 9043m | -4.2m/s | -39.3°C | 16.4% | 0hPa | 2.5V | 00:00:00 | 00:00:00 | 00:00:00 | |
| HSKMA3-T | 2026-09-05 02:08:22 | 51.92369 | 8.17939 | 100° | 157km/h | 9056m | -4.1m/s | -39.4°C | 20.7% | 313.4hPa | 2.6V | 07:46:41 | 02:49:27 | 00:00:00 | |
| BUE01 | 2026-09-05 02:08:22 | 51.92376 | 8.17876 | 100° | 157km/h | 9060m | -4.1m/s | -39.4°C | 16.4% | 313.2hPa | 2.5V | 00:00:00 | 00:00:00 | 00:00:00 | |
| DD1CC8 | 2026-09-05 02:08:21 | 51.92383 | 8.17813 | 100° | 157km/h | 9064m | -4.2m/s | -39.4°C | 16.5% | 313.0hPa | 2.5V | 00:00:00 | 00:00:00 | 00:00:00 | |
| DL1XH-15 | 2026-09-05 02:08:19 | 51.92427 | 8.17432 | 100° | 159km/h | 9089m | -4m/s | -39.6°C | 19.2% | 311.9hPa | 2.5V | 07:46:31 | 02:49:19 | 00:00:00 | |
| DL1XH-west | 2026-09-05 02:08:18 | 51.92398 | 8.17685 | 101° | 159km/h | 9072m | -4.1m/s | -39.5°C | 20.8% | 312.6hPa | 2.5V | 07:46:41 | 02:49:23 | 00:00:00 | |
| BIOWL1-15 | 2026-09-05 02:08:17 | 51.92405 | 8.17622 | 101° | 157km/h | 9077m | -4.2m/s | -39.5°C | 20.8% | 312.4hPa | 2.6V | 07:46:41 | 02:49:22 | 00:00:00 | |
| DO2JMG | 2026-09-05 02:08:16 | 51.92412 | 8.17559 | 101° | 159km/h | 9081m | -4.2m/s | -39.6°C | 20.8% | 312.3hPa | 2.6V | 07:46:41 | 02:49:21 | 00:00:00 | |
| AA1-15 | 2026-09-05 02:08:14 | 51.92427 | 8.17432 | 101° | 159km/h | 9089m | -4m/s | -39.6°C | 20.9% | 311.9hPa | 2.5V | 07:46:41 | 02:49:19 | 00:00:00 | |
| HSKMA3-T | 2026-09-05 02:08:11 | 51.92449 | 8.17241 | 101° | 157km/h | 9101m | -4.2m/s | -39.7°C | 20.9% | 311.3hPa | 2.6V | 07:46:41 | 02:49:16 | 00:00:00 | |
| DB0DAN | 2026-09-05 02:08:10 | 51.92457 | 8.17178 | 101° | 150km/h | 9106m | -4.4m/s | -39.8°C | 0% | 0hPa | 2.5V | 00:00:00 | 00:00:00 | 00:00:00 | |
| BIOWL1-15 | 2026-09-05 02:08:10 | 51.92486 | 8.16925 | 101° | 159km/h | 9123m | -4.1m/s | -39.9°C | 21% | 310.4hPa | 2.6V | 07:46:41 | 02:49:11 | 00:00:00 | |
| DL1XH-15 | 2026-09-05 02:08:09 | 51.92501 | 8.16798 | 100° | 159km/h | 9131m | -4.2m/s | -40°C | 19.4% | 310hPa | 2.5V | 07:46:41 | 02:49:09 | 00:00:00 | |
| DL1XH-west | 2026-09-05 02:08:07 | 51.92479 | 8.16988 | 101° | 157km/h | 9118m | -4.3m/s | -39.9°C | 20.9% | 310.6hPa | 2.6V | 07:46:41 | 02:49:12 | 00:00:00 | |
| DO2JMG | 2026-09-05 02:08:05 | 51.92494 | 8.16861 | 101° | 157km/h | 9127m | -3.9m/s | -39.9°C | 21% | 310.2hPa | 2.5V | 07:46:41 | 02:49:10 | 00:00:00 | |
| AA1-15 | 2026-09-05 02:08:03 | 51.92508 | 8.16734 | 101° | 157km/h | 9135m | -4m/s | -40°C | 21% | 309.8hPa | 2.5V | 07:47:32 | 02:49:08 | 00:00:00 | |
| HSKMA3-T | 2026-09-05 02:08:01 | 51.92523 | 8.16608 | 101° | 157km/h | 9143m | -4.1m/s | -40.1°C | 21.1% | 309.5hPa | 2.6V | 07:47:32 | 02:49:06 | 00:00:00 | |
| DL1XH-west | 2026-09-05 02:07:57 | 51.92553 | 8.16354 | 101° | 159km/h | 9160m | -3.8m/s | -40.2°C | 21.2% | 308.7hPa | 2.6V | 07:47:32 | 02:49:02 | 00:00:00 | |
| DF7PN | 2026-09-05 02:07:56 | 51.92561 | 8.16290 | 100° | 157km/h | 9163m | -4.0m/s | -40.2°C | -1.0% | 308.5hPa | 2.5V | 00:00:00 | 00:00:00 | 00:00:00 | |
| DB0DAN | 2026-09-05 02:07:55 | 51.92568 | 8.16226 | 101° | 151km/h | 9167m | -4.1m/s | -40.3°C | 0% | 0hPa | 2.5V | 00:00:00 | 00:00:00 | 00:00:00 | |
| BIOWL1-15 | 2026-09-05 02:07:55 | 51.92568 | 8.16226 | 101° | 159km/h | 9167m | -4.1m/s | -40.3°C | 21.3% | 308.3hPa | 2.5V | 07:47:32 | 02:49:00 | 00:00:00 | |
| DM0DOS-11 | 2026-09-05 02:07:54 | 51.92589 | 8.16035 | 99° | 159km/h | 9179m | -3.9m/s | -40.4°C | 19.8% | 307.8hPa | 2.6V | 07:46:53 | 02:48:57 | 00:00:00 | |
| DO2JMG | 2026-09-05 02:07:54 | 51.92575 | 8.16163 | 101° | 159km/h | 9171m | -3.9m/s | -40.3°C | 21.3% | 308.1hPa | 2.5V | 07:47:32 | 02:48:59 | 00:00:00 | |
| AA1-15 | 2026-09-05 02:07:52 | 51.92589 | 8.16035 | 100° | 159km/h | 9179m | -3.9m/s | -40.4°C | 21.5% | 307.8hPa | 2.6V | 07:47:32 | 02:48:57 | 00:00:00 | |
| HSKMA3-T | 2026-09-05 02:07:50 | 51.92603 | 8.15907 | 100° | 159km/h | 9187m | -4m/s | -40.4°C | 21.6% | 307.4hPa | 2.5V | 07:47:32 | 02:48:55 | 00:00:00 | |
| DL1XH-west | 2026-09-05 02:07:47 | 51.92624 | 8.15714 | 100° | 159km/h | 9199m | -4.3m/s | -40.5°C | 21.8% | 306.8hPa | 2.6V | 07:47:32 | 02:48:52 | 00:00:00 | |
| BIOWL1-15 | 2026-09-05 02:07:45 | 51.92638 | 8.15587 | 100° | 159km/h | 9208m | -4.2m/s | -40.6°C | 22% | 306.5hPa | 2.5V | 07:47:32 | 02:48:50 | 00:00:00 | |
| DM0DOS-11 | 2026-09-05 02:07:44 | 51.92659 | 8.15396 | 99° | 159km/h | 9220m | -4m/s | -40.7°C | 20.4% | 305.9hPa | 2.5V | 07:47:03 | 02:48:47 | 00:00:00 | |
| DO2JMG | 2026-09-05 02:07:44 | 51.92645 | 8.15523 | 100° | 159km/h | 9212m | -4m/s | -40.7°C | 22% | 306.3hPa | 2.5V | 07:47:32 | 02:48:49 | 00:00:00 | |
| AA1-15 | 2026-09-05 02:07:41 | 51.92666 | 8.15332 | 100° | 159km/h | 9223m | -3.8m/s | -40.8°C | 22.1% | 305.7hPa | 2.6V | 07:47:32 | 02:48:46 | 00:00:00 | |
| DL1ZP-14 | 2026-09-05 02:07:40 | 51.92680 | 8.15205 | 100° | 157km/h | 9231m | -3.9m/s | -40.9°C | 17.6% | 305.4hPa | 2.6V | 00:00:00 | 00:00:00 | 00:00:00 | |
| DL1XH-15 | 2026-09-05 02:07:39 | 51.92715 | 8.14887 | 100° | 159km/h | 9252m | -4.2m/s | -41°C | 20.1% | 304.5hPa | 2.6V | 07:47:11 | 02:48:39 | 00:00:00 | |
| HSKMA3-T | 2026-09-05 02:07:39 | 51.92680 | 8.15205 | 101° | 159km/h | 9231m | -3.9m/s | -40.9°C | 22.1% | 305.4hPa | 2.6V | 07:47:32 | 02:48:44 | 00:00:00 | |
| DL1XH-west | 2026-09-05 02:07:36 | 51.92701 | 8.15014 | 100° | 157km/h | 9243m | -4.1m/s | -41°C | 22% | 304.9hPa | 2.5V | 07:47:32 | 02:48:41 | 00:00:00 | |
| DB0NH | 2026-09-05 02:07:36 | 51.92701 | 8.15014 | 100° | 157km/h | 9244m | -4.0m/s | -40.9°C | 20.3% | 304.8hPa | 2.5V | 00:00:00 | 02:48:41 | 00:00:00 | |
| DM0DOS-11 | 2026-09-05 02:07:35 | 51.92730 | 8.14760 | 100° | 157km/h | 9260m | -3.9m/s | -41°C | 20% | 304.2hPa | 2.5V | 07:47:13 | 02:48:37 | 00:00:00 | |
| DO2JMG | 2026-09-05 02:07:34 | 51.92715 | 8.14887 | 100° | 159km/h | 9252m | -4.2m/s | -41°C | 21.8% | 304.5hPa | 2.6V | 07:47:32 | 02:48:39 | 00:00:00 | |
| AA1-15 | 2026-09-05 02:07:30 | 51.92744 | 8.14634 | 100° | 157km/h | 9267m | -3.8m/s | -41.1°C | 21.5% | 303.8hPa | 2.5V | 07:47:32 | 02:48:35 | 00:00:00 | |
| HSKMA3-T | 2026-09-05 02:07:29 | 51.92751 | 8.14570 | 100° | 157km/h | 9271m | -4.3m/s | -41.1°C | 21.4% | 303.6hPa | 2.6V | 07:47:32 | 02:48:34 | 00:00:00 | |
| DB0ND-19 | 2026-09-05 02:07:29 | 51.92758 | 8.14507 | 100° | 157km/h | 9276m | -4.1m/s | -41.2°C | 17.0% | 303.4hPa | 2.5V | 00:00:00 | 00:00:00 | 00:00:00 | |
| SONDE2-11 | 2026-09-05 02:07:28 | 51.92758 | 8.14507 | 100° | 157km/h | 9276m | -4.1m/s | -41.2°C | 17.0% | 303.4hPa | 2.5V | 00:00:00 | 00:00:00 | 00:00:00 | |
| DB0DAN | 2026-09-05 02:07:25 | 51.92780 | 8.14316 | 100° | 150km/h | 9288m | -4m/s | -41.3°C | 0% | 0hPa | 2.5V | 00:00:00 | 00:00:00 | 00:00:00 | |
| DL1XH-west | 2026-09-05 02:07:25 | 51.92780 | 8.14316 | 100° | 157km/h | 9288m | -4m/s | -41.3°C | 21.6% | 302.9hPa | 2.5V | 07:47:32 | 02:48:30 | 00:00:00 | |
| DM0DOS-11 | 2026-09-05 02:07:24 | 51.92801 | 8.14126 | 100° | 157km/h | 9299m | -4m/s | -41.4°C | 19.9% | 302.4hPa | 2.5V | 07:47:23 | 02:48:27 | 00:00:00 | |
| BIOWL1-15 | 2026-09-05 02:07:23 | 51.92794 | 8.14190 | 101° | 157km/h | 9296m | -4m/s | -41.3°C | 21.5% | 302.5hPa | 2.6V | 07:47:32 | 02:48:28 | 00:00:00 | |
| AA1-15 | 2026-09-05 02:07:20 | 51.92815 | 8.13999 | 100° | 157km/h | 9308m | -4.4m/s | -41.4°C | 21.6% | 302hPa | 2.5V | 07:47:32 | 02:48:25 | 00:00:00 | |
| HSKMA3-T | 2026-09-05 02:07:18 | 51.92830 | 8.13872 | 101° | 157km/h | 9316m | -4.1m/s | -41.5°C | 21.7% | 301.6hPa | 2.6V | 07:47:32 | 02:48:23 | 00:00:00 | |
| DL1XH-west | 2026-09-05 02:07:14 | 51.92859 | 8.13619 | 101° | 157km/h | 9332m | -4.1m/s | -41.6°C | 21.7% | 300.9hPa | 2.6V | 07:47:32 | 02:48:19 | 00:00:00 | |
| DO2JMG | 2026-09-05 02:07:13 | 51.92866 | 8.13556 | 101° | 157km/h | 9336m | -4m/s | -41.7°C | 21.7% | 300.7hPa | 2.6V | 07:47:32 | 02:48:18 | 00:00:00 | |
| BIOWL1-15 | 2026-09-05 02:07:12 | 51.92874 | 8.13493 | 101° | 157km/h | 9340m | -3.9m/s | -41.7°C | 21.8% | 300.6hPa | 2.5V | 07:48:23 | 02:48:17 | 00:00:00 | |
| DB0DAN | 2026-09-05 02:07:10 | 51.92889 | 8.13366 | 101° | 150km/h | 9348m | -4.2m/s | 0°C | 0% | 0hPa | 2.5V | 00:00:00 | 00:00:00 | 00:00:00 | |
| DL1XH-15 | 2026-09-05 02:07:09 | 51.92933 | 8.12986 | 100° | 157km/h | 9371m | -4m/s | -42°C | 20.6% | 299.2hPa | 2.5V | 07:47:41 | 02:48:09 | 00:00:00 | |
| AA1-15 | 2026-09-05 02:07:09 | 51.92896 | 8.13303 | 101° | 157km/h | 9352m | -4.2m/s | -41.8°C | 21.9% | 300hPa | 2.5V | 07:48:23 | 02:48:14 | 00:00:00 | |
| HSKMA3-T | 2026-09-05 02:07:08 | 51.92904 | 8.13240 | 101° | 159km/h | 9356m | -3.9m/s | -41.8°C | 22% | 299.9hPa | 2.6V | 07:48:23 | 02:48:13 | 00:00:00 | |
| BIOWL1-15 | 2026-09-05 02:07:05 | 51.92954 | 8.12796 | 100° | 159km/h | 9383m | -3.8m/s | -42.1°C | 22.3% | 298.6hPa | 2.6V | 07:48:23 | 02:48:06 | 00:00:00 | |
| DM0DOS-11 | 2026-09-05 02:07:04 | 51.92947 | 8.12859 | 100° | 157km/h | 9379m | -3.8m/s | -42.1°C | 20.6% | 298.8hPa | 2.5V | 07:47:43 | 02:48:07 | 00:00:00 | |
| DL1XH-west | 2026-09-05 02:07:04 | 51.92933 | 8.12986 | 100° | 157km/h | 9371m | -4m/s | -42°C | 22.2% | 299.2hPa | 2.5V | 07:48:23 | 02:48:09 | 00:00:00 | |
| DO2JMG | 2026-09-05 02:07:03 | 51.92940 | 8.12922 | 101° | 157km/h | 9375m | -4m/s | -42°C | 22.3% | 299hPa | 2.5V | 07:48:23 | 02:48:08 | 00:00:00 | |
| DJ2KF-10 | 2026-09-05 02:07:02 | 51.92947 | 8.12859 | 101° | 157km/h | 9379m | -3.8m/s | -42.0°C | 20.6% | 298.8hPa | 2.5V | 00:00:00 | 02:48:07 | 00:00:00 | |
| DO3DL | 2026-09-05 02:07:00 | 51.92954 | 8.12795 | 101° | 159km/h | 9383m | -3.8m/s | -42.1°C | 17.7% | 298.7hPa | 2.5V | 07:48:00 | 00:00:00 | 00:00:00 | |
| DL1XH-15 | 2026-09-05 02:06:59 | 51.93006 | 8.12349 | 100° | 159km/h | 9411m | -4m/s | -42.3°C | 20.9% | 297.4hPa | 2.5V | 07:47:51 | 02:47:59 | 00:00:00 | |
| AA1-15 | 2026-09-05 02:06:59 | 51.92969 | 8.12668 | 101° | 159km/h | 9391m | -4.1m/s | -42.2°C | 22.4% | 298.3hPa | 2.5V | 07:48:23 | 02:48:04 | 00:00:00 | |
| HSKMA3-T | 2026-09-05 02:06:57 | 51.92983 | 8.12541 | 101° | 159km/h | 9399m | -3.9m/s | -42.2°C | 22.5% | 298hPa | 2.5V | 07:48:23 | 02:48:02 | 00:00:00 | |
| BIOWL1-15 | 2026-09-05 02:06:53 | 51.93029 | 8.12158 | 101° | 159km/h | 9422m | -4.1m/s | -42.4°C | 22.5% | 296.9hPa | 2.6V | 07:48:23 | 02:47:56 | 00:00:00 | |
| DL1XH-west | 2026-09-05 02:06:53 | 51.93014 | 8.12285 | 101° | 159km/h | 9415m | -3.8m/s | -42.4°C | 22.5% | 297.3hPa | 2.5V | 07:48:23 | 02:47:58 | 00:00:00 | |
| DO2JMG | 2026-09-05 02:06:52 | 51.93021 | 8.12222 | 101° | 159km/h | 9419m | -3.8m/s | -42.4°C | 22.5% | 297.1hPa | 2.5V | 07:48:23 | 02:47:57 | 00:00:00 | |
| DF5WG-10 | 2026-09-05 02:06:52 | 51.93021 | 8.12221 | 102° | 157km/h | 9419m | -3.7m/s | -42.4°C | 20.9% | 297.1hPa | 2.5V | 00:00:00 | 02:47:57 | 00:00:00 | |
| DO2KSM | 2026-09-05 02:06:51 | 51.93021 | 8.12221 | 102° | 159km/h | 9419m | -3.8m/s | -42.4°C | 17.9% | 297.1hPa | 2.6V | 07:48:00 | 00:00:00 | 00:00:00 | |
| DL1XH-15 | 2026-09-05 02:06:49 | 51.93081 | 8.11715 | 100° | 157km/h | 9450m | -3.8m/s | -42.7°C | 20.6% | 295.7hPa | 2.6V | 07:48:01 | 02:47:49 | 00:00:00 | |
| AA1-15 | 2026-09-05 02:06:48 | 51.93051 | 8.11968 | 101° | 157km/h | 9434m | -4.1m/s | -42.5°C | 22.4% | 296.4hPa | 2.5V | 07:48:23 | 02:47:53 | 00:00:00 | |
| HSKMA3-T | 2026-09-05 02:06:46 | 51.93066 | 8.11841 | 101° | 157km/h | 9442m | -4.1m/s | -42.6°C | 22.4% | 296.1hPa | 2.5V | 07:48:23 | 02:47:51 | 00:00:00 | |
| DM0DOS-11 | 2026-09-05 02:06:44 | 51.93095 | 8.11589 | 100° | 157km/h | 9458m | -4m/s | -42.7°C | 20.6% | 295.4hPa | 2.5V | 07:48:03 | 02:47:47 | 00:00:00 | |
| DL1XH-west | 2026-09-05 02:06:42 | 51.93096 | 8.11589 | 101° | 157km/h | 9458m | -4m/s | -42.7°C | 22.3% | 295.4hPa | 2.5V | 07:48:23 | 02:47:47 | 00:00:00 | |
| DO2JMG | 2026-09-05 02:06:41 | 51.93103 | 8.11525 | 101° | 157km/h | 9462m | -3.8m/s | -42.8°C | 22.3% | 295.2hPa | 2.5V | 07:48:23 | 02:47:46 | 00:00:00 | |
| HARRO8 | 2026-09-05 02:06:40 | 51.93111 | 8.11462 | 100° | 155km/h | 9466m | -4.0m/s | -42.8°C | 17.6% | 295.1hPa | 2.5V | 00:00:00 | 00:00:00 | 00:00:00 | |
| DL1XH-15 | 2026-09-05 02:06:39 | 51.93156 | 8.11083 | 100° | 155km/h | 9489m | -3.9m/s | -43°C | 20.7% | 294hPa | 2.5V | 07:48:11 | 02:47:39 | 00:00:00 | |
| AA1-15 | 2026-09-05 02:06:37 | 51.93133 | 8.11273 | 101° | 157km/h | 9477m | -4.1m/s | -42.9°C | 22.3% | 294.5hPa | 2.6V | 07:48:23 | 02:47:42 | 00:00:00 | |
| HSKMA3-T | 2026-09-05 02:06:36 | 51.93141 | 8.11209 | 101° | 157km/h | 9481m | -3.9m/s | -43°C | 22.3% | 294.4hPa | 2.5V | 07:48:23 | 02:47:41 | 00:00:00 | |
| DB0NH | 2026-09-05 02:06:36 | 51.93141 | 8.11209 | 102° | 153km/h | 9481m | -3.8m/s | -42.9°C | 20.7% | 294.3hPa | 2.6V | 00:00:00 | 02:47:41 | 00:00:00 | |
| DM0DOS-11 | 2026-09-05 02:06:34 | 51.93170 | 8.10958 | 100° | 155km/h | 9497m | -3.8m/s | -43.1°C | 20.7% | 293.7hPa | 2.6V | 07:48:13 | 02:47:37 | 00:00:00 | |
| DL1XH-west | 2026-09-05 02:06:32 | 51.93170 | 8.10958 | 101° | 155km/h | 9497m | -3.8m/s | -43.1°C | 22.2% | 293.7hPa | 2.6V | 07:48:23 | 02:47:37 | 00:00:00 | |
| BIOWL1-15 | 2026-09-05 02:06:31 | 51.93177 | 8.10895 | 100° | 155km/h | 9501m | -3.9m/s | -43.1°C | 22.2% | 293.5hPa | 2.5V | 07:48:23 | 02:47:36 | 00:00:00 | |
| HSKMA3-T | 2026-09-05 02:06:26 | 51.93211 | 8.10586 | 100° | 153km/h | 9521m | -4m/s | -43.2°C | 22.2% | 292.7hPa | 2.6V | 07:48:23 | 02:47:31 | 00:00:00 | |
| DD1CC1-15 | 2026-09-05 02:06:25 | 51.93211 | 8.10586 | 101° | 153km/h | 9521m | -4.0m/s | -43.2°C | 17.6% | 292.7hPa | 2.5V | 07:48:00 | 00:00:00 | 00:00:00 | |
| DM0DOS-11 | 2026-09-05 02:06:24 | 51.93237 | 8.10339 | 99° | 151km/h | 9537m | -4m/s | -43.3°C | 20.7% | 292hPa | 2.5V | 07:48:23 | 02:47:27 | 00:00:00 | |
| DL1XH-west | 2026-09-05 02:06:21 | 51.93243 | 8.10278 | 100° | 153km/h | 9541m | -3.8m/s | -43.4°C | 22.2% | 291.9hPa | 2.5V | 07:49:14 | 02:47:26 | 00:00:00 | |
| BIOWL1-15 | 2026-09-05 02:06:20 | 51.93249 | 8.10216 | 100° | 153km/h | 9544m | -3.6m/s | -43.4°C | 22.1% | 291.7hPa | 2.6V | 07:49:14 | 02:47:25 | 00:00:00 | |
| AA1-15 | 2026-09-05 02:06:16 | 51.93274 | 8.09970 | 99° | 151km/h | 9559m | -4m/s | -43.5°C | 22% | 291hPa | 2.5V | 07:49:14 | 02:47:21 | 00:00:00 | |
| HSKMA3-T | 2026-09-05 02:06:15 | 51.93279 | 8.09909 | 99° | 151km/h | 9563m | -3.9m/s | -43.6°C | 21.9% | 290.8hPa | 2.6V | 07:49:14 | 02:47:20 | 00:00:00 | |
| DM0DOS-11 | 2026-09-05 02:06:14 | 51.93296 | 8.09726 | 98° | 150km/h | 9576m | -4m/s | -43.6°C | 19.9% | 290.3hPa | 2.5V | 07:48:33 | 02:47:17 | 00:00:00 | |
| BIOWL1-15 | 2026-09-05 02:06:12 | 51.93312 | 8.09543 | 98° | 151km/h | 9587m | -3.9m/s | -43.7°C | 21.4% | 289.8hPa | 2.6V | 07:49:14 | 02:47:14 | 00:00:00 | |
| DL1XH-west | 2026-09-05 02:06:12 | 51.93306 | 8.09604 | 98° | 151km/h | 9584m | -3.8m/s | -43.6°C | 21.4% | 289.9hPa | 2.5V | 07:49:14 | 02:47:15 | 00:00:00 | |
| AA1-15 | 2026-09-05 02:06:06 | 51.93327 | 8.09359 | 98° | 151km/h | 9599m | -4.1m/s | -43.7°C | 21.3% | 289.3hPa | 2.5V | 07:49:14 | 02:47:11 | 00:00:00 | |
| HSKMA3-T | 2026-09-05 02:06:05 | 51.93333 | 8.09298 | 98° | 151km/h | 9603m | -4m/s | -43.8°C | 21.2% | 289.1hPa | 2.5V | 07:49:14 | 02:47:10 | 00:00:00 | |
| DM0DOS-11 | 2026-09-05 02:06:04 | 51.93349 | 8.09114 | 98° | 151km/h | 9614m | -3.8m/s | -43.9°C | 19.6% | 288.7hPa | 2.6V | 07:48:43 | 02:47:07 | 00:00:00 | |
| DO2JMG | 2026-09-05 02:06:00 | 51.93361 | 8.08992 | 99° | 150km/h | 9622m | -4.1m/s | -43.9°C | 21% | 288.3hPa | 2.5V | 07:49:14 | 02:47:05 | 00:00:00 | |
| DL1XH-west | 2026-09-05 02:05:59 | 51.93366 | 8.08932 | 98° | 150km/h | 9626m | -3.8m/s | -43.9°C | 21% | 288.1hPa | 2.5V | 07:49:14 | 02:47:04 | 00:00:00 | |
| HSKMA3-T | 2026-09-05 02:05:55 | 51.93388 | 8.08690 | 98° | 150km/h | 9641m | -3.9m/s | -44°C | 20.7% | 287.6hPa | 2.5V | 07:49:14 | 02:47:00 | 00:00:00 | |
| DM0DOS-11 | 2026-09-05 02:05:54 | 51.93404 | 8.08508 | 98° | 150km/h | 9653m | -4m/s | -44°C | 19.1% | 287.1hPa | 2.5V | 07:48:53 | 02:46:57 | 00:00:00 | |
| DO2JMG | 2026-09-05 02:05:50 | 51.93416 | 8.08386 | 99° | 150km/h | 9660m | -3.8m/s | -44.1°C | 20.7% | 286.7hPa | 2.6V | 07:49:14 | 02:46:55 | 00:00:00 | |
| DL1XH-west | 2026-09-05 02:05:49 | 51.93421 | 8.08325 | 98° | 150km/h | 9664m | -4.1m/s | -44.1°C | 20.7% | 286.5hPa | 2.6V | 07:49:14 | 02:46:54 | 00:00:00 | |
| AA1-15 | 2026-09-05 02:05:45 | 51.93443 | 8.08083 | 98° | 150km/h | 9680m | -3.8m/s | -44.2°C | 20.7% | 285.9hPa | 2.5V | 07:49:14 | 02:46:50 | 00:00:00 | |
| DM0DOS-11 | 2026-09-05 02:05:44 | 51.93460 | 8.07901 | 98° | 150km/h | 9691m | -3.8m/s | -44.3°C | 19.2% | 285.4hPa | 2.5V | 07:49:03 | 02:46:47 | 00:00:00 | |
| HSKMA3-T | 2026-09-05 02:05:44 | 51.93449 | 8.08022 | 98° | 150km/h | 9684m | -3.9m/s | -44.2°C | 20.7% | 285.6hPa | 2.6V | 07:49:14 | 02:46:49 | 00:00:00 | |
| GOEST3-10 | 2026-09-05 02:05:44 | 51.93449 | 8.08022 | 99° | 150km/h | 9684m | -3.8m/s | -44.2°C | 19.2% | 285.6hPa | 2.5V | 00:00:00 | 00:00:00 | 00:00:00 | |
| DF5WG-10 | 2026-09-05 02:05:42 | 51.93460 | 8.07901 | 99° | 148km/h | 9691m | -3.8m/s | -44.2°C | 19.2% | 285.3hPa | 2.5V | 00:00:00 | 02:46:47 | 00:00:00 | |
| DB0UT-7 | 2026-09-05 02:05:40 | 51.93470 | 8.07780 | 98° | 148km/h | 9699m | -3.5m/s | -44.3°C | 19.2% | 285.0hPa | 2.5V | 00:00:00 | 00:00:00 | 00:00:00 | |
| DL1XH-15 | 2026-09-05 02:05:39 | 51.93501 | 8.07419 | 98° | 148km/h | 9721m | -3.7m/s | -44.5°C | 19.6% | 284hPa | 2.5V | 07:49:11 | 02:46:39 | 00:00:00 | |
| DL1XH-west | 2026-09-05 02:05:39 | 51.93475 | 8.07720 | 98° | 148km/h | 9702m | -3.8m/s | -44.3°C | 20.8% | 284.9hPa | 2.5V | 07:49:14 | 02:46:44 | 00:00:00 | |
| BIOWL1-15 | 2026-09-05 02:05:38 | 51.93481 | 8.07660 | 98° | 148km/h | 9706m | -3.7m/s | -44.4°C | 20.9% | 284.7hPa | 2.6V | 07:49:14 | 02:46:43 | 00:00:00 | |
| AA1-15 | 2026-09-05 02:05:34 | 51.93501 | 8.07419 | 98° | 148km/h | 9721m | -3.7m/s | -44.5°C | 21.1% | 284hPa | 2.5V | 07:49:14 | 02:46:39 | 00:00:00 | |
| DL4XJ-10 | 2026-09-05 02:05:34 | 51.93501 | 8.07419 | 99° | 148km/h | 9721m | -3.6m/s | -44.5°C | 0% | 0hPa | 2.5V | 00:00:00 | 00:00:00 | 00:00:00 | |
| DL3AQ-11 | 2026-09-05 02:05:33 | 51.93512 | 8.07299 | 98° | 148km/h | 9729m | -3.8m/s | -44.6°C | 16.4% | 283.8hPa | 2.5V | 00:00:00 | 00:00:00 | 00:00:00 | |
| DJ2KF-10 | 2026-09-05 02:05:32 | 51.93512 | 8.07299 | 99° | 148km/h | 9729m | -3.8m/s | -44.5°C | 19.6% | 283.7hPa | 2.5V | 00:00:00 | 02:46:37 | 00:00:00 | |
| BIOWL7-15 | 2026-09-05 02:05:31 | 51.93512 | 8.07299 | 100° | 148km/h | 9729m | -3.8m/s | -44.6°C | 16.4% | 283.7hPa | 2.6V | 00:00:00 | 00:00:00 | 00:00:00 | |
| BIOWL9-15 | 2026-09-05 02:05:30 | 51.93524 | 8.07179 | 98° | 148km/h | 9736m | -3.7m/s | -44.6°C | 16.6% | 283.4hPa | 2.6V | 00:00:00 | 00:00:00 | 00:00:00 | |
| DL1XH-15 | 2026-09-05 02:05:29 | 51.93554 | 8.06821 | 97° | 146km/h | 9758m | -3.8m/s | -44.8°C | 19.9% | 282.5hPa | 2.6V | 07:49:21 | 02:46:29 | 00:00:00 | |
| DL1XH-west | 2026-09-05 02:05:29 | 51.93529 | 8.07119 | 99° | 148km/h | 9740m | -3.7m/s | -44.6°C | 21.5% | 283.3hPa | 2.5V | 07:50:05 | 02:46:34 | 00:00:00 | |
| BIOWL1-15 | 2026-09-05 02:05:28 | 51.93534 | 8.07060 | 98° | 148km/h | 9744m | -3.8m/s | -44.7°C | 21.5% | 283.1hPa | 2.5V | 07:50:05 | 02:46:33 | 00:00:00 | |
| HSKMA3-T | 2026-09-05 02:05:24 | 51.93554 | 8.06821 | 97° | 146km/h | 9758m | -3.8m/s | -44.8°C | 21.6% | 282.5hPa | 2.6V | 07:50:05 | 02:46:29 | 00:00:00 | |
| AA1-15 | 2026-09-05 02:05:23 | 51.93559 | 8.06761 | 97° | 146km/h | 9762m | -4.2m/s | -44.8°C | 21.5% | 282.3hPa | 2.6V | 07:50:05 | 02:46:28 | 00:00:00 | |
| DL3AQ-11 | 2026-09-05 02:05:22 | 51.93568 | 8.06642 | 97° | 146km/h | 9770m | -3.7m/s | -44.9°C | 16.7% | 282.0hPa | 2.5V | 00:00:00 | 00:00:00 | 00:00:00 | |
| AM1SDL-15 | 2026-09-05 02:05:20 | 51.93573 | 8.06582 | 98° | 150km/h | 9774m | -3.7m/s | 0°C | 0% | 0hPa | 2.5V | 00:00:00 | 02:46:25 | 00:00:00 | |
| DL1XH-15 | 2026-09-05 02:05:19 | 51.93605 | 8.06220 | 97° | 151km/h | 9796m | -3.8m/s | -45.1°C | 20% | 280.8hPa | 2.5V | 07:49:31 | 02:46:19 | 00:00:00 | |
| BIOWL1-15 | 2026-09-05 02:05:19 | 51.93589 | 8.06402 | 98° | 150km/h | 9785m | -3.8m/s | -45°C | 21.5% | 281.3hPa | 2.6V | 07:50:05 | 02:46:22 | 00:00:00 | |
| DL1XH-west | 2026-09-05 02:05:18 | 51.93583 | 8.06462 | 98° | 148km/h | 9781m | -4m/s | -44.9°C | 21.5% | 281.5hPa | 2.6V | 07:50:05 | 02:46:23 | 00:00:00 | |
| HSKMA3-T | 2026-09-05 02:05:13 | 51.93610 | 8.06159 | 98° | 150km/h | 9800m | -3.7m/s | -45.1°C | 21.6% | 280.7hPa | 2.6V | 07:50:05 | 02:46:18 | 00:00:00 | |
| AA1-15 | 2026-09-05 02:05:12 | 51.93615 | 8.06098 | 97° | 151km/h | 9804m | -3.6m/s | -45.1°C | 21.5% | 280.5hPa | 2.6V | 07:50:05 | 02:46:17 | 00:00:00 | |
| BIOWL7-15 | 2026-09-05 02:05:12 | 51.93614 | 8.06097 | 98° | 151km/h | 9804m | -3.6m/s | -45.1°C | 16.7% | 280.5hPa | 2.5V | 07:50:00 | 00:00:00 | 00:00:00 | |
| DD1CC3-15 | 2026-09-05 02:05:11 | 51.93614 | 8.06097 | 98° | 151km/h | 9804m | -3.6m/s | -45.1°C | 16.8% | 280.5hPa | 2.5V | 07:50:00 | 00:00:00 | 00:00:00 | |
| DB0UT-7 | 2026-09-05 02:05:10 | 51.93624 | 8.05975 | 97° | 150km/h | 9811m | -3.9m/s | -45.1°C | 20.2% | 280.2hPa | 2.5V | 00:00:00 | 02:46:15 | 00:00:00 | |
| DL1XH-15 | 2026-09-05 02:05:09 | 51.93651 | 8.05611 | 96° | 150km/h | 9835m | -3.8m/s | -45.3°C | 20.4% | 279.3hPa | 2.5V | 07:49:41 | 02:46:09 | 00:00:00 | |
| DL1XH-west | 2026-09-05 02:05:07 | 51.93638 | 8.05793 | 97° | 150km/h | 9823m | -4.1m/s | -45.2°C | 21.9% | 279.8hPa | 2.6V | 07:50:05 | 02:46:12 | 00:00:00 | |
| BIOWL1-15 | 2026-09-05 02:05:06 | 51.93642 | 8.05732 | 97° | 150km/h | 9827m | -4m/s | -45.3°C | 21.9% | 279.6hPa | 2.5V | 07:50:05 | 02:46:11 | 00:00:00 | |
| DL3AQ-11 | 2026-09-05 02:05:06 | 51.93647 | 8.05671 | 96° | 148km/h | 9831m | -3.8m/s | -45.3°C | 17.1% | 279.5hPa | 2.6V | 00:00:00 | 00:00:00 | 00:00:00 | |
| DO1YAY-16 | 2026-09-05 02:05:05 | 51.93647 | 8.05671 | 96° | 148km/h | 9831m | -3.8m/s | -45.3°C | 17.1% | 279.5hPa | 2.6V | 00:00:00 | 00:00:00 | 00:00:00 | |
| DM0DOS-11 | 2026-09-05 02:05:04 | 51.93660 | 8.05490 | 96° | 150km/h | 9842m | -3.7m/s | -45.4°C | 20.4% | 279hPa | 2.6V | 07:49:43 | 02:46:07 | 00:00:00 | |
| HSKMA3-T | 2026-09-05 02:05:03 | 51.93656 | 8.05550 | 97° | 148km/h | 9839m | -3.7m/s | -45.4°C | 22% | 279.1hPa | 2.5V | 07:50:05 | 02:46:08 | 00:00:00 | |
| AA1-15 | 2026-09-05 02:05:02 | 51.93660 | 8.05490 | 97° | 150km/h | 9842m | -3.7m/s | -45.4°C | 21.9% | 279hPa | 2.6V | 07:50:05 | 02:46:07 | 00:00:00 | |
| DJ2KF-10 | 2026-09-05 02:05:02 | 51.93660 | 8.05490 | 97° | 148km/h | 9842m | -3.7m/s | -45.3°C | 20.4% | 278.9hPa | 2.5V | 07:49:00 | 02:46:07 | 00:00:00 | |
| DL1XH-15 | 2026-09-05 02:04:59 | 51.93695 | 8.05004 | 95° | 150km/h | 9872m | -4.1m/s | -45.5°C | 20.2% | 277.7hPa | 2.5V | 07:49:51 | 02:45:59 | 00:00:00 | |
| BIOWL9-15 | 2026-09-05 02:04:59 | 51.93678 | 8.05248 | 96° | 148km/h | 9857m | -3.9m/s | -45.5°C | -1.0% | -1.0hPa | 2.6V | 00:00:00 | 00:00:00 | 00:00:00 | |
| WEDDY | 2026-09-05 02:04:58 | 51.93674 | 8.05308 | 98° | 150km/h | 9853m | -3.7m/s | -45.4°C | 17.1% | 278.6hPa | 2.6V | 00:00:00 | 00:00:00 | 00:00:00 | |
| DM0DOS-11 | 2026-09-05 02:04:57 | 51.93702 | 8.04883 | 95° | 148km/h | 9879m | -3.9m/s | -45.5°C | 20.1% | 277.4hPa | 2.6V | 07:49:53 | 02:45:57 | 00:00:00 | |
| DL1XH-west | 2026-09-05 02:04:57 | 51.93683 | 8.05187 | 96° | 150km/h | 9861m | -3.9m/s | -45.5°C | 21.8% | 278.2hPa | 2.6V | 07:50:05 | 02:46:02 | 00:00:00 | |
| DO2JMG | 2026-09-05 02:04:56 | 51.93687 | 8.05126 | 96° | 150km/h | 9864m | -3.6m/s | -45.5°C | 21.8% | 278.1hPa | 2.6V | 07:50:05 | 02:46:01 | 00:00:00 | |
| HSKMA3-T | 2026-09-05 02:04:52 | 51.93702 | 8.04883 | 96° | 148km/h | 9879m | -3.9m/s | -45.5°C | 21.6% | 277.4hPa | 2.6V | 07:50:05 | 02:45:57 | 00:00:00 | |
| AA1-15 | 2026-09-05 02:04:51 | 51.93706 | 8.04823 | 96° | 148km/h | 9883m | -3.8m/s | -45.5°C | 21.6% | 277.2hPa | 2.6V | 07:50:05 | 02:45:56 | 00:00:00 | |
| BIOWL7-15 | 2026-09-05 02:04:51 | 51.93706 | 8.04823 | 97° | 148km/h | 9883m | -3.8m/s | -45.5°C | 16.8% | 277.2hPa | 2.5V | 07:50:00 | 00:00:00 | 00:00:00 | |
| AM1SDL-15 | 2026-09-05 02:04:50 | 51.93710 | 8.04762 | 96° | 148km/h | 9887m | -3.7m/s | 0°C | 0% | 0hPa | 2.5V | 00:00:00 | 02:45:55 | 00:00:00 | |
| DL1XH-15 | 2026-09-05 02:04:49 | 51.93734 | 8.04401 | 95° | 148km/h | 9910m | -3.8m/s | -45.7°C | 20.2% | 276.2hPa | 2.5V | 07:50:01 | 02:45:49 | 00:00:00 | |
| DB0NH | 2026-09-05 02:04:49 | 51.93714 | 8.04702 | 97° | 148km/h | 9891m | -3.9m/s | -45.5°C | 20.1% | 276.9hPa | 2.5V | 00:00:00 | 02:45:54 | 00:00:00 | |
| DC6BW-12 | 2026-09-05 02:04:48 | 51.93714 | 8.04702 | 97° | 148km/h | 9891m | -3.9m/s | -45.5°C | 16.8% | 277.0hPa | 2.5V | 07:50:00 | 00:00:00 | 00:00:00 | |
| DM0DOS-11 | 2026-09-05 02:04:47 | 51.93741 | 8.04280 | 95° | 148km/h | 9917m | -3.8m/s | -45.7°C | 20.3% | 275.9hPa | 2.5V | 07:50:03 | 02:45:47 | 00:00:00 | |
| DL1XH-west | 2026-09-05 02:04:46 | 51.93726 | 8.04522 | 96° | 148km/h | 9902m | -3.8m/s | -45.6°C | 21.7% | 276.5hPa | 2.6V | 07:50:05 | 02:45:51 | 00:00:00 | |
| DO2JMG | 2026-09-05 02:04:45 | 51.93730 | 8.04461 | 96° | 148km/h | 9906m | -3.8m/s | -45.6°C | 21.7% | 276.4hPa | 2.6V | 07:50:05 | 02:45:50 | 00:00:00 | |
| BIOWL1-15 | 2026-09-05 02:04:44 | 51.93734 | 8.04401 | 96° | 148km/h | 9910m | -3.8m/s | -45.7°C | 21.7% | 276.2hPa | 2.5V | 07:50:05 | 02:45:49 | 00:00:00 | |
| HSKMA3-T | 2026-09-05 02:04:42 | 51.93741 | 8.04280 | 96° | 148km/h | 9917m | -3.8m/s | -45.7°C | 21.8% | 275.9hPa | 2.5V | 07:50:05 | 02:45:47 | 00:00:00 | |
| AA1-15 | 2026-09-05 02:04:40 | 51.93748 | 8.04160 | 95° | 148km/h | 9925m | -3.8m/s | -45.8°C | 21.8% | 275.6hPa | 2.6V | 07:50:05 | 02:45:45 | 00:00:00 | |
| DB0UT-7 | 2026-09-05 02:04:40 | 51.93748 | 8.04160 | 95° | 150km/h | 9925m | -3.8m/s | -45.7°C | 20.4% | 275.5hPa | 2.5V | 00:00:00 | 00:00:00 | 00:00:00 | |
| DF2AP-13 | 2026-09-05 02:04:39 | 51.93752 | 8.04100 | 96° | 150km/h | 9929m | -3.7m/s | -45.7°C | 20.4% | 275.4hPa | 2.5V | 00:00:00 | 02:45:44 | 00:00:00 | |
| DO9LL-15 | 2026-09-05 02:04:38 | 51.93755 | 8.04040 | 95° | 150km/h | 9932m | -3.9m/s | -45.8°C | 20.4% | 275.2hPa | 2.5V | 00:00:00 | 02:45:43 | 00:00:00 | |
| DM0DOS-11 | 2026-09-05 02:04:37 | 51.93771 | 8.03676 | 93° | 150km/h | 9954m | -3.5m/s | -45.9°C | 20.4% | 274.3hPa | 2.5V | 07:50:13 | 02:45:37 | 00:00:00 | |
| DL1XH-west | 2026-09-05 02:04:36 | 51.93760 | 8.03919 | 94° | 148km/h | 9940m | -3.9m/s | -45.8°C | 21.9% | 274.9hPa | 2.6V | 07:50:56 | 02:45:41 | 00:00:00 | |
| DO2JMG | 2026-09-05 02:04:35 | 51.93763 | 8.03858 | 94° | 148km/h | 9943m | -3.5m/s | -45.9°C | 21.9% | 274.8hPa | 2.6V | 07:50:56 | 02:45:40 | 00:00:00 | |
| DF8AY | 2026-09-05 02:04:34 | 51.93766 | 8.03798 | 94° | 150km/h | 9947m | -3.8m/s | -45.9°C | 21.9% | 274.7hPa | 2.5V | 07:50:56 | 02:45:39 | 00:00:00 | |
| HSKMA3-T | 2026-09-05 02:04:31 | 51.93774 | 8.03615 | 94° | 150km/h | 9958m | -3.9m/s | -46°C | 21.9% | 274.2hPa | 2.5V | 07:50:56 | 02:45:36 | 00:00:00 | |
| AA1-15 | 2026-09-05 02:04:30 | 51.93776 | 8.03554 | 94° | 150km/h | 9962m | -3.6m/s | -46°C | 22% | 274.1hPa | 2.6V | 07:50:56 | 02:45:35 | 00:00:00 | |
| DL1CLM-18 | 2026-09-05 02:04:29 | 51.93776 | 8.03554 | 95° | 150km/h | 9962m | -3.6m/s | -46.0°C | 17.1% | 274.1hPa | 2.6V | 00:00:00 | 00:00:00 | 00:00:00 | |
| DC6BW-12 | 2026-09-05 02:04:28 | 51.93779 | 8.03493 | 95° | 150km/h | 9965m | -3.9m/s | -46.0°C | 17.2% | 273.9hPa | 2.6V | 07:50:00 | 00:00:00 | 00:00:00 | |
| DM0DOS-11 | 2026-09-05 02:04:27 | 51.93796 | 8.03068 | 93° | 148km/h | 9991m | -3.8m/s | -46.1°C | 20.7% | 272.8hPa | 2.6V | 07:50:23 | 02:45:27 | 00:00:00 | |
| DL1XH-west | 2026-09-05 02:04:26 | 51.93786 | 8.03310 | 94° | 148km/h | 9977m | -3.8m/s | -46.1°C | 22% | 273.4hPa | 2.5V | 07:50:56 | 02:45:31 | 00:00:00 | |
| BIOWL1-15 | 2026-09-05 02:04:25 | 51.93794 | 8.03128 | 94° | 148km/h | 9988m | -3.7m/s | -46.1°C | 22.1% | 272.9hPa | 2.6V | 07:50:56 | 02:45:28 | 00:00:00 | |
| DO2JMG | 2026-09-05 02:04:24 | 51.93791 | 8.03189 | 94° | 148km/h | 9984m | -3.7m/s | -46.1°C | 22.1% | 273.1hPa | 2.6V | 07:50:56 | 02:45:29 | 00:00:00 | |
| DF8AY | 2026-09-05 02:04:22 | 51.93796 | 8.03068 | 94° | 148km/h | 9991m | -3.8m/s | -46.2°C | 22.1% | 272.8hPa | 2.6V | 07:50:56 | 02:45:27 | 00:00:00 | |
| HSKMA3-T | 2026-09-05 02:04:20 | 51.93802 | 8.02947 | 94° | 148km/h | 9999m | -3.7m/s | -46.2°C | 22.2% | 272.4hPa | 2.5V | 07:50:56 | 02:45:25 | 00:00:00 | |
| AA1-15 | 2026-09-05 02:04:19 | 51.93804 | 8.02886 | 94° | 148km/h | 10003m | -4m/s | -46.2°C | 22.2% | 272.3hPa | 2.5V | 07:50:56 | 02:45:24 | 00:00:00 | |
| DL1XH-west | 2026-09-05 02:04:16 | 51.93812 | 8.02704 | 94° | 150km/h | 10014m | -3.9m/s | -46.3°C | 22.3% | 271.9hPa | 2.6V | 07:50:56 | 02:45:21 | 00:00:00 | |
| DO2JMG | 2026-09-05 02:04:13 | 51.93819 | 8.02519 | 94° | 151km/h | 10025m | -4.1m/s | -46.3°C | 22.4% | 271.4hPa | 2.5V | 07:50:56 | 02:45:18 | 00:00:00 | |
| BIOWL1-15 | 2026-09-05 02:04:12 | 51.93827 | 8.02271 | 93° | 151km/h | 10041m | -3.7m/s | -46.4°C | 22.6% | 270.7hPa | 2.5V | 07:50:56 | 02:45:14 | 00:00:00 | |
| DF8AY | 2026-09-05 02:04:11 | 51.93823 | 8.02395 | 93° | 151km/h | 10033m | -3.9m/s | -46.4°C | 22.5% | 271hPa | 2.5V | 07:50:56 | 02:45:16 | 00:00:00 | |
| HSKMA3-T | 2026-09-05 02:04:10 | 51.93825 | 8.02333 | 93° | 151km/h | 10037m | -3.9m/s | -46.4°C | 22.6% | 271hPa | 2.5V | 07:50:56 | 02:45:15 | 00:00:00 | |
| AA1-15 | 2026-09-05 02:04:08 | 51.93829 | 8.02209 | 93° | 151km/h | 10044m | -4.1m/s | -46.5°C | 22.6% | 270.6hPa | 2.6V | 07:50:56 | 02:45:13 | 00:00:00 | |
| DO9LL-15 | 2026-09-05 02:04:08 | 51.93829 | 8.02209 | 94° | 153km/h | 10045m | -4.1m/s | -46.4°C | 21.2% | 270.6hPa | 2.5V | 00:00:00 | 02:45:13 | 00:00:00 | |
| DM0DOS-11 | 2026-09-05 02:04:07 | 51.93842 | 8.01835 | 93° | 153km/h | 10068m | -4m/s | -46.6°C | 21.3% | 269.7hPa | 2.5V | 07:50:43 | 02:45:07 | 00:00:00 | |
| DL1XH-west | 2026-09-05 02:04:05 | 51.93835 | 8.02023 | 93° | 153km/h | 10056m | -4m/s | -46.6°C | 22.7% | 270.2hPa | 2.5V | 07:50:56 | 02:45:10 | 00:00:00 | |
| BIOWL1-15 | 2026-09-05 02:04:02 | 51.93842 | 8.01835 | 93° | 153km/h | 10068m | -4m/s | -46.6°C | 22.6% | 269.7hPa | 2.5V | 07:50:56 | 02:45:07 | 00:00:00 | |
| DF8AY | 2026-09-05 02:04:00 | 51.93846 | 8.01710 | 94° | 153km/h | 10075m | -3.9m/s | -46.7°C | 22.6% | 269.3hPa | 2.6V | 07:50:56 | 02:45:05 | 00:00:00 | |
| DL1XH-15 | 2026-09-05 02:03:59 | 51.93862 | 8.01332 | 93° | 153km/h | 10099m | -3.9m/s | -46.7°C | 20.7% | 268.3hPa | 2.5V | 07:50:51 | 02:44:59 | 00:00:00 | |
| HSKMA3-T | 2026-09-05 02:03:59 | 51.93849 | 8.01647 | 94° | 155km/h | 10079m | -3.8m/s | -46.7°C | 22.5% | 269.2hPa | 2.5V | 07:50:56 | 02:45:04 | 00:00:00 | |
| AA1-15 | 2026-09-05 02:03:57 | 51.93854 | 8.01521 | 94° | 155km/h | 10087m | -3.9m/s | -46.7°C | 22.3% | 268.9hPa | 2.5V | 07:50:56 | 02:45:02 | 00:00:00 | |
| DL1XH-west | 2026-09-05 02:03:54 | 51.93862 | 8.01332 | 94° | 153km/h | 10099m | -3.9m/s | -46.7°C | 21.9% | 268.3hPa | 2.5V | 07:50:56 | 02:44:59 | 00:00:00 | |
| DM0DOS-11 | 2026-09-05 02:03:52 | 51.93867 | 8.01208 | 93° | 153km/h | 10107m | -3.8m/s | -46.8°C | 20.6% | 268.1hPa | 2.5V | 07:50:53 | 02:44:57 | 00:00:00 | |
| BIOWL1-15 | 2026-09-05 02:03:52 | 51.93867 | 8.01208 | 94° | 153km/h | 10107m | -3.8m/s | -46.8°C | 21.7% | 268.1hPa | 2.5V | 07:50:56 | 02:44:57 | 00:00:00 | |
| DF8AY | 2026-09-05 02:03:49 | 51.93875 | 8.01021 | 94° | 151km/h | 10118m | -4.4m/s | -46.8°C | 21.3% | 267.6hPa | 2.6V | 07:50:56 | 02:44:54 | 00:00:00 | |
| HSKMA3-T | 2026-09-05 02:03:48 | 51.93878 | 8.00959 | 94° | 151km/h | 10123m | -4.4m/s | -46.9°C | 21.2% | 267.4hPa | 2.5V | 07:51:47 | 02:44:53 | 00:00:00 | |
| AA1-15 | 2026-09-05 02:03:46 | 51.93884 | 8.00835 | 95° | 153km/h | 10131m | -4m/s | -46.9°C | 20.9% | 267.1hPa | 2.5V | 07:51:47 | 02:44:51 | 00:00:00 | |
| DB0NH | 2026-09-05 02:03:46 | 51.93884 | 8.00835 | 95° | 157km/h | 10131m | -3.9m/s | -46.8°C | 19.9% | 267.0hPa | 2.5V | 00:00:00 | 02:44:51 | 00:00:00 | |
| DO2KSM | 2026-09-05 02:03:45 | 51.93884 | 8.00835 | 96° | 153km/h | 10131m | -4.0m/s | -46.9°C | 16.4% | 267.1hPa | 2.5V | 07:51:00 | 00:00:00 | 00:00:00 | |
| DM0DOS-11 | 2026-09-05 02:03:43 | 51.93911 | 8.00334 | 95° | 155km/h | 10164m | -4.3m/s | -47°C | 19.1% | 265.8hPa | 2.5V | 07:51:07 | 02:44:43 | 00:00:00 | |
| DL1XH-west | 2026-09-05 02:03:43 | 51.93894 | 8.00649 | 95° | 153km/h | 10143m | -4m/s | -46.9°C | 20.5% | 266.6hPa | 2.5V | 07:51:47 | 02:44:48 | 00:00:00 | |
| BIOWL1-15 | 2026-09-05 02:03:41 | 51.93901 | 8.00523 | 95° | 155km/h | 10151m | -4.2m/s | -46.9°C | 20.3% | 266.3hPa | 2.5V | 07:51:47 | 02:44:46 | 00:00:00 | |
| HSKMA3-T | 2026-09-05 02:03:38 | 51.93911 | 8.00334 | 95° | 155km/h | 10164m | -4.3m/s | -47°C | 19.9% | 265.8hPa | 2.5V | 07:51:47 | 02:44:43 | 00:00:00 | |
| AA1-15 | 2026-09-05 02:03:35 | 51.93922 | 8.00143 | 95° | 157km/h | 10176m | -4.3m/s | -47°C | 19.5% | 265.3hPa | 2.5V | 07:51:47 | 02:44:40 | 00:00:00 | |
| HTAHTA | 2026-09-05 02:03:34 | 51.93937 | 7.99887 | 94° | 157km/h | 10193m | -4.2m/s | -47.0°C | 14.6% | 264.7hPa | 2.6V | 00:00:00 | 00:00:00 | 00:00:00 | |
| DM0DOS-11 | 2026-09-05 02:03:33 | 51.93947 | 7.99694 | 94° | 157km/h | 10206m | -4.1m/s | -46.9°C | 17.5% | 264.2hPa | 2.6V | 07:51:17 | 02:44:33 | 00:00:00 | |
| DL1XH-west | 2026-09-05 02:03:33 | 51.93930 | 8.00015 | 95° | 157km/h | 10185m | -4.3m/s | -47°C | 19.2% | 265hPa | 2.6V | 07:51:47 | 02:44:38 | 00:00:00 | |
| BIOWL1-15 | 2026-09-05 02:03:31 | 51.93937 | 7.99887 | 95° | 157km/h | 10193m | -4.2m/s | -47°C | 18.8% | 264.7hPa | 2.5V | 07:51:47 | 02:44:36 | 00:00:00 | |
| DO2JMG | 2026-09-05 02:03:30 | 51.93940 | 7.99823 | 95° | 159km/h | 10197m | -3.9m/s | -47°C | 18.6% | 264.4hPa | 2.5V | 07:51:47 | 02:44:35 | 00:00:00 | |
| DF8AY | 2026-09-05 02:03:29 | 51.93943 | 7.99759 | 95° | 157km/h | 10202m | -4.5m/s | -46.9°C | 18.4% | 264.3hPa | 2.6V | 07:51:47 | 02:44:34 | 00:00:00 | |
| HSKMA3-T | 2026-09-05 02:03:27 | 51.93950 | 7.99630 | 95° | 159km/h | 10210m | -4.4m/s | -46.9°C | 18.3% | 264hPa | 2.5V | 07:51:47 | 02:44:32 | 00:00:00 | |
| AA1-15 | 2026-09-05 02:03:25 | 51.93956 | 7.99500 | 94° | 161km/h | 10219m | -4m/s | -46.9°C | 18% | 263.6hPa | 2.5V | 07:51:47 | 02:44:30 | 00:00:00 | |
| DL1XH-west | 2026-09-05 02:03:22 | 51.93963 | 7.99303 | 93° | 162km/h | 10231m | -4.5m/s | -46.9°C | 17.6% | 263.1hPa | 2.6V | 07:51:47 | 02:44:27 | 00:00:00 | |
| BIOWL1-15 | 2026-09-05 02:03:22 | 51.93968 | 7.99171 | 94° | 164km/h | 10239m | -4.1m/s | -46.9°C | 17.4% | 262.8hPa | 2.5V | 07:51:47 | 02:44:25 | 00:00:00 | |
| DO2JMG | 2026-09-05 02:03:19 | 51.93971 | 7.99104 | 94° | 164km/h | 10244m | -4.4m/s | -46.9°C | 17.3% | 262.6hPa | 2.5V | 07:51:47 | 02:44:24 | 00:00:00 | |
| HSKMA3-T | 2026-09-05 02:03:16 | 51.93981 | 7.98904 | 95° | 164km/h | 10257m | -4.5m/s | -46.9°C | 17% | 262.1hPa | 2.5V | 07:51:47 | 02:44:21 | 00:00:00 | |
| AA1-15 | 2026-09-05 02:03:14 | 51.93988 | 7.98771 | 95° | 162km/h | 10265m | -4.4m/s | -46.9°C | 16.8% | 261.8hPa | 2.5V | 07:51:47 | 02:44:19 | 00:00:00 | |
| DM0DOS-11 | 2026-09-05 02:03:13 | 51.94008 | 7.98372 | 93° | 161km/h | 10292m | -4.7m/s | -47°C | 15.4% | 260.7hPa | 2.5V | 07:51:37 | 02:44:13 | 00:00:00 | |
| DL1XH-west | 2026-09-05 02:03:12 | 51.93995 | 7.98637 | 95° | 162km/h | 10274m | -4.4m/s | -47°C | 16.6% | 261.4hPa | 2.6V | 07:51:47 | 02:44:17 | 00:00:00 | |
| DF8AY | 2026-09-05 02:03:10 | 51.94002 | 7.98505 | 94° | 162km/h | 10282m | -4.6m/s | -46.9°C | 16.3% | 261.1hPa | 2.5V | 07:51:47 | 02:44:15 | 00:00:00 | |
| DL1XH-15 | 2026-09-05 02:03:09 | 51.94019 | 7.98106 | 94° | 164km/h | 10310m | -4.4m/s | -47°C | 15% | 260.1hPa | 2.5V | 07:51:41 | 02:44:09 | 00:00:00 | |
| BIOWL1-15 | 2026-09-05 02:03:09 | 51.94005 | 7.98438 | 94° | 162km/h | 10287m | -4.6m/s | -47°C | 16.2% | 260.9hPa | 2.5V | 07:51:47 | 02:44:14 | 00:00:00 | |
| HSKMA3-T | 2026-09-05 02:03:05 | 51.94016 | 7.98173 | 94° | 164km/h | 10305m | -4.5m/s | -47°C | 15.8% | 260.2hPa | 2.5V | 07:51:47 | 02:44:10 | 00:00:00 | |
| DO2KSM | 2026-09-05 02:03:04 | 51.94016 | 7.98173 | 95° | 164km/h | 10305m | -4.5m/s | -47.0°C | 12.0% | 260.2hPa | 2.5V | 07:51:00 | 00:00:00 | 00:00:00 | |
| DM0DOS-11 | 2026-09-05 02:03:03 | 51.94039 | 7.97701 | 94° | 166km/h | 10337m | -4.5m/s | -47°C | 14.5% | 259hPa | 2.5V | 07:51:47 | 02:44:03 | 00:00:00 | |
| AA1-15 | 2026-09-05 02:03:03 | 51.94022 | 7.98039 | 94° | 166km/h | 10314m | -4.6m/s | -47.1°C | 15.6% | 259.9hPa | 2.5V | 07:51:47 | 02:44:08 | 00:00:00 | |
| DL1XH-west | 2026-09-05 02:03:02 | 51.94025 | 7.97972 | 94° | 166km/h | 10319m | -4.7m/s | -47.1°C | 15.5% | 259.7hPa | 2.6V | 07:51:47 | 02:44:07 | 00:00:00 | |
| DL1ZP-14 | 2026-09-05 02:03:01 | 51.94032 | 7.97836 | 94° | 166km/h | 10328m | -4.6m/s | -46.9°C | 11.6% | 259.3hPa | 2.5V | 00:00:00 | 00:00:00 | 00:00:00 | |
| DD1CC1-15 | 2026-09-05 02:03:00 | 51.94028 | 7.97904 | 95° | 166km/h | 10324m | -4.6m/s | -47.0°C | 11.7% | 259.5hPa | 2.5V | 07:51:00 | 00:00:00 | 00:00:00 | |
| DL1XH-15 | 2026-09-05 02:02:59 | 51.94054 | 7.97430 | 95° | 166km/h | 10355m | -4.4m/s | -47.1°C | 14.6% | 258.3hPa | 2.5V | 07:51:51 | 02:43:59 | 00:00:00 | |
| BIOWL1-15 | 2026-09-05 02:02:59 | 51.94035 | 7.97769 | 95° | 166km/h | 10333m | -4.6m/s | -46.9°C | 15.3% | 259.2hPa | 2.5V | 07:51:47 | 02:44:04 | 00:00:00 | |
| DO2JMG | 2026-09-05 02:02:58 | 51.94039 | 7.97701 | 95° | 166km/h | 10337m | -4.5m/s | -47°C | 15.2% | 259hPa | 2.5V | 07:51:47 | 02:44:03 | 00:00:00 | |
| HSKMA3-T | 2026-09-05 02:02:54 | 51.94054 | 7.97430 | 95° | 166km/h | 10355m | -4.4m/s | -47.1°C | 15.2% | 258.3hPa | 2.5V | 07:52:38 | 02:43:59 | 00:00:00 | |
| AA1-15 | 2026-09-05 02:02:52 | 51.94061 | 7.97294 | 95° | 166km/h | 10364m | -4.4m/s | -47.1°C | 15.1% | 257.9hPa | 2.5V | 07:52:38 | 02:43:57 | 00:00:00 | |
| DL1XH-west | 2026-09-05 02:02:51 | 51.94064 | 7.97226 | 95° | 166km/h | 10368m | -4.4m/s | -47.2°C | 15.1% | 257.7hPa | 2.6V | 07:52:38 | 02:43:56 | 00:00:00 | |
| BIOWL1-15 | 2026-09-05 02:02:48 | 51.94074 | 7.97022 | 94° | 166km/h | 10381m | -4.5m/s | -47.2°C | 15% | 257.3hPa | 2.5V | 07:52:38 | 02:43:53 | 00:00:00 | |
| DO2JMG | 2026-09-05 02:02:47 | 51.94077 | 7.96954 | 94° | 166km/h | 10386m | -4.6m/s | -47.2°C | 15% | 257hPa | 2.5V | 07:52:38 | 02:43:52 | 00:00:00 | |
| HSKMA3-T | 2026-09-05 02:02:44 | 51.94086 | 7.96750 | 94° | 166km/h | 10400m | -4.6m/s | -47.3°C | 15% | 256.5hPa | 2.6V | 07:52:38 | 02:43:49 | 00:00:00 | |
| DM0DOS-11 | 2026-09-05 02:02:43 | 51.94106 | 7.96338 | 94° | 170km/h | 10427m | -4.6m/s | -47.4°C | 14.2% | 255.4hPa | 2.5V | 07:52:07 | 02:43:43 | 00:00:00 | |
| AA1-15 | 2026-09-05 02:02:42 | 51.94092 | 7.96613 | 94° | 168km/h | 10409m | -4.5m/s | -47.4°C | 14.9% | 256.2hPa | 2.5V | 07:52:38 | 02:43:47 | 00:00:00 | |
| DL1XH-west | 2026-09-05 02:02:40 | 51.94099 | 7.96476 | 95° | 168km/h | 10418m | -4.9m/s | -47.4°C | 14.9% | 255.8hPa | 2.6V | 07:52:38 | 02:43:45 | 00:00:00 | |
| BIOWL1-15 | 2026-09-05 02:02:38 | 51.94105 | 7.96338 | 95° | 170km/h | 10427m | -4.6m/s | -47.4°C | 14.8% | 255.4hPa | 2.5V | 07:52:38 | 02:43:43 | 00:00:00 | |
| DO2JMG | 2026-09-05 02:02:37 | 51.94109 | 7.96269 | 94° | 170km/h | 10432m | -4.6m/s | -47.5°C | 14.9% | 255.3hPa | 2.5V | 07:52:38 | 02:43:42 | 00:00:00 | |
| GOEST3-10 | 2026-09-05 02:02:37 | 51.94108 | 7.96269 | 95° | 170km/h | 10432m | -4.5m/s | -47.4°C | 14.3% | 255.2hPa | 2.6V | 00:00:00 | 02:43:42 | 00:00:00 | |
| DL4BBY-15 | 2026-09-05 02:02:36 | 51.94112 | 7.96200 | 95° | 168km/h | 10437m | -4.7m/s | -47.5°C | 0% | 0hPa | 2.6V | 00:00:00 | 00:00:00 | 00:00:00 | |
| DO3DL | 2026-09-05 02:02:34 | 51.94115 | 7.96131 | 95° | 170km/h | 10441m | -4.5m/s | -47.5°C | 11.3% | 254.9hPa | 2.6V | 07:52:00 | 00:00:00 | 00:00:00 | |
| DM0DOS-11 | 2026-09-05 02:02:33 | 51.94135 | 7.95649 | 93° | 168km/h | 10474m | -4.7m/s | -47.6°C | 14.2% | 253.7hPa | 2.6V | 07:52:17 | 02:43:33 | 00:00:00 | |
| HSKMA3-T | 2026-09-05 02:02:33 | 51.94121 | 7.95993 | 94° | 168km/h | 10450m | -4.8m/s | -47.5°C | 14.8% | 254.6hPa | 2.6V | 07:52:38 | 02:43:38 | 00:00:00 | |
| AA1-15 | 2026-09-05 02:02:32 | 51.94123 | 7.95924 | 94° | 168km/h | 10455m | -4.6m/s | -47.5°C | 14.8% | 254.4hPa | 2.5V | 07:52:38 | 02:43:37 | 00:00:00 | |
| DL1XH-west | 2026-09-05 02:02:29 | 51.94132 | 7.95718 | 94° | 168km/h | 10469m | -4.7m/s | -47.6°C | 14.7% | 253.9hPa | 2.6V | 07:52:38 | 02:43:34 | 00:00:00 | |
| BIOWL1-15 | 2026-09-05 02:02:27 | 51.94137 | 7.95580 | 94° | 168km/h | 10478m | -4.8m/s | -47.6°C | 14.7% | 253.5hPa | 2.5V | 07:52:38 | 02:43:32 | 00:00:00 | |
| DO2JMG | 2026-09-05 02:02:26 | 51.94140 | 7.95512 | 94° | 168km/h | 10483m | -4.6m/s | -47.6°C | 14.7% | 253.4hPa | 2.5V | 07:52:38 | 02:43:31 | 00:00:00 | |
| DJ2DS-15 | 2026-09-05 02:02:25 | 51.94143 | 7.95443 | 93° | 166km/h | 10488m | -4.6m/s | -47.6°C | 11.1% | 253.2hPa | 2.6V | 00:00:00 | 00:00:00 | 00:00:00 | |
| BIOWL9-15 | 2026-09-05 02:02:24 | 51.94149 | 7.95306 | 93° | 166km/h | 10497m | -4.6m/s | -47.7°C | 11.1% | 252.8hPa | 2.6V | 00:00:00 | 00:00:00 | 00:00:00 | |
| DM0DOS-11 | 2026-09-05 02:02:23 | 51.94160 | 7.94962 | 92° | 168km/h | 10519m | -4.7m/s | -47.8°C | 14.2% | 251.9hPa | 2.6V | 07:52:27 | 02:43:23 | 00:00:00 | |
| HSKMA3-T | 2026-09-05 02:02:22 | 51.94151 | 7.95238 | 93° | 168km/h | 10501m | -4.5m/s | -47.7°C | 14.7% | 252.6hPa | 2.6V | 07:52:38 | 02:43:27 | 00:00:00 | |
| AA1-15 | 2026-09-05 02:02:21 | 51.94154 | 7.95169 | 93° | 168km/h | 10506m | -4.5m/s | -47.7°C | 14.7% | 252.4hPa | 2.5V | 07:52:38 | 02:43:26 | 00:00:00 | |
| DL1XH-west | 2026-09-05 02:02:19 | 51.94158 | 7.95031 | 93° | 168km/h | 10515m | -4.6m/s | -47.8°C | 14.7% | 252.1hPa | 2.5V | 07:52:38 | 02:43:24 | 00:00:00 | |
| BIOWL1-15 | 2026-09-05 02:02:17 | 51.94162 | 7.94894 | 93° | 168km/h | 10524m | -4.9m/s | -47.8°C | 14.7% | 251.8hPa | 2.6V | 07:52:38 | 02:43:22 | 00:00:00 | |
| DO2JMG | 2026-09-05 02:02:16 | 51.94164 | 7.94825 | 92° | 168km/h | 10529m | -4.7m/s | -47.9°C | 14.7% | 251.6hPa | 2.5V | 07:52:38 | 02:43:21 | 00:00:00 | |
| HSKMA3-T | 2026-09-05 02:02:11 | 51.94174 | 7.94484 | 93° | 166km/h | 10552m | -4.6m/s | -48°C | 14.6% | 250.7hPa | 2.6V | 07:52:38 | 02:43:16 | 00:00:00 | |
| AA1-15 | 2026-09-05 02:02:10 | 51.94176 | 7.94416 | 93° | 166km/h | 10556m | -4.9m/s | -48°C | 14.5% | 250.5hPa | 2.5V | 07:52:38 | 02:43:15 | 00:00:00 | |
| DL1XH-west | 2026-09-05 02:02:09 | 51.94178 | 7.94348 | 93° | 166km/h | 10561m | -4.8m/s | -48°C | 14.5% | 250.3hPa | 2.5V | 07:52:38 | 02:43:14 | 00:00:00 | |
| BIOWL1-15 | 2026-09-05 02:02:06 | 51.94186 | 7.94144 | 94° | 166km/h | 10575m | -4.8m/s | -48.1°C | 14.5% | 249.8hPa | 2.6V | 07:53:29 | 02:43:11 | 00:00:00 | |
| DO2JMG | 2026-09-05 02:02:05 | 51.94188 | 7.94076 | 93° | 168km/h | 10580m | -4.6m/s | -48.1°C | 14.4% | 249.6hPa | 2.5V | 07:53:29 | 02:43:10 | 00:00:00 | |
| HSKMA3-T | 2026-09-05 02:02:00 | 51.94198 | 7.93731 | 92° | 170km/h | 10603m | -4.7m/s | -48.2°C | 14.1% | 248.7hPa | 2.6V | 07:53:29 | 02:43:05 | 00:00:00 | |
| DL1XH-west | 2026-09-05 02:01:59 | 51.94199 | 7.93662 | 91° | 170km/h | 10608m | -4.5m/s | -48.2°C | 14.1% | 248.6hPa | 2.5V | 07:53:29 | 02:43:04 | 00:00:00 | |
| BIOWL1-15 | 2026-09-05 02:01:58 | 51.94202 | 7.93454 | 91° | 168km/h | 10622m | -4.7m/s | -48.3°C | 13.9% | 248hPa | 2.6V | 07:53:29 | 02:43:01 | 00:00:00 | |
| DO2JMG | 2026-09-05 02:01:54 | 51.94205 | 7.93316 | 92° | 168km/h | 10631m | -4.8m/s | -48.2°C | 13.8% | 247.7hPa | 2.5V | 07:53:29 | 02:42:59 | 00:00:00 | |
| DF8AY | 2026-09-05 02:01:53 | 51.94206 | 7.93248 | 92° | 168km/h | 10635m | -4.7m/s | -48.2°C | 13.7% | 0hPa | 2.5V | 07:54:20 | 02:42:58 | 00:00:00 | |
| HSKMA3-T | 2026-09-05 02:01:50 | 51.94211 | 7.93041 | 93° | 170km/h | 10650m | -4.7m/s | -48.2°C | 13.6% | 247hPa | 2.6V | 07:53:29 | 02:42:55 | 00:00:00 | |
| DL1XH-15 | 2026-09-05 02:01:49 | 51.94225 | 7.92624 | 92° | 172km/h | 10677m | -4.7m/s | -48.2°C | 13.2% | 245.9hPa | 2.6V | 07:53:01 | 02:42:49 | 00:00:00 | |
| DM0DOS-11 | 2026-09-05 02:01:49 | 51.94216 | 7.92902 | 93° | 170km/h | 10659m | -4.7m/s | -48.2°C | 13.3% | 246.6hPa | 2.5V | 07:52:57 | 02:42:53 | 00:00:00 | |
| AA1-15 | 2026-09-05 02:01:49 | 51.94214 | 7.92971 | 93° | 170km/h | 10655m | -4.7m/s | -48.2°C | 13.6% | 246.8hPa | 2.6V | 07:53:29 | 02:42:54 | 00:00:00 | |
| DL1XH-west | 2026-09-05 02:01:48 | 51.94216 | 7.92902 | 93° | 170km/h | 10659m | -4.7m/s | -48.2°C | 13.5% | 246.6hPa | 2.5V | 07:53:29 | 02:42:53 | 00:00:00 | |
| BIOWL1-15 | 2026-09-05 02:01:45 | 51.94223 | 7.92694 | 93° | 172km/h | 10673m | -4.6m/s | -48.3°C | 13.5% | 246.1hPa | 2.6V | 07:53:29 | 02:42:50 | 00:00:00 | |
| DO2JMG | 2026-09-05 02:01:43 | 51.94227 | 7.92554 | 93° | 172km/h | 10682m | -4.9m/s | -48.2°C | 13.4% | 245.7hPa | 2.5V | 07:53:29 | 02:42:48 | 00:00:00 | |
| DF8AY | 2026-09-05 02:01:40 | 51.94233 | 7.92343 | 93° | 172km/h | 10697m | -4.7m/s | -48.2°C | 13.3% | 0hPa | 2.5V | 07:54:20 | 02:42:45 | 00:00:00 | |
| DM0DOS-11 | 2026-09-05 02:01:39 | 51.94236 | 7.92203 | 92° | 172km/h | 10706m | -4.4m/s | -48.2°C | 13.1% | 244.9hPa | 2.6V | 07:53:07 | 02:42:43 | 00:00:00 | |
| HSKMA3-T | 2026-09-05 02:01:39 | 51.94234 | 7.92273 | 93° | 172km/h | 10701m | -4.9m/s | -48.2°C | 13.4% | 245.1hPa | 2.6V | 07:53:29 | 02:42:44 | 00:00:00 | |
| DL1XH-west | 2026-09-05 02:01:38 | 51.94236 | 7.92203 | 93° | 172km/h | 10706m | -4.4m/s | -48.2°C | 13.3% | 244.9hPa | 2.6V | 07:53:29 | 02:42:43 | 00:00:00 | |
| BIOWL1-15 | 2026-09-05 02:01:35 | 51.94242 | 7.91994 | 92° | 170km/h | 10720m | -4.4m/s | -48.3°C | 13.4% | 244.4hPa | 2.5V | 07:53:29 | 02:42:40 | 00:00:00 | |
| DO2JMG | 2026-09-05 02:01:32 | 51.94248 | 7.91785 | 92° | 170km/h | 10734m | -4.8m/s | -48.3°C | 13.4% | 243.9hPa | 2.5V | 07:53:29 | 02:42:37 | 00:00:00 | |
| DJ2KF-10 | 2026-09-05 02:01:32 | 51.94247 | 7.91785 | 93° | 172km/h | 10734m | -4.8m/s | -48.3°C | 13.1% | 243.8hPa | 2.6V | 00:00:00 | 02:42:37 | 00:00:00 | |
| DO3DL | 2026-09-05 02:01:30 | 51.94249 | 7.91716 | 93° | 170km/h | 10738m | -4.8m/s | -48.4°C | 10.0% | 243.7hPa | 2.6V | 07:53:00 | 00:00:00 | 00:00:00 | |
| DM0DOS-11 | 2026-09-05 02:01:29 | 51.94253 | 7.91508 | 91° | 170km/h | 10753m | -4.5m/s | -48.4°C | 13% | 243.2hPa | 2.6V | 07:53:17 | 02:42:33 | 00:00:00 | |
| DL1XH-15 | 2026-09-05 02:01:29 | 51.94255 | 7.91229 | 90° | 170km/h | 10771m | -4.4m/s | -48.4°C | 12.9% | 242.5hPa | 2.5V | 07:53:21 | 02:42:29 | 00:00:00 | |
| AA1-15 | 2026-09-05 02:01:28 | 51.94253 | 7.91508 | 91° | 172km/h | 10753m | -4.5m/s | -48.4°C | 13.3% | 243.2hPa | 2.6V | 07:53:29 | 02:42:33 | 00:00:00 | |
| DL1XH-west | 2026-09-05 02:01:27 | 51.94254 | 7.91438 | 91° | 170km/h | 10757m | -4.5m/s | -48.4°C | 13.3% | 243.1hPa | 2.6V | 07:53:29 | 02:42:32 | 00:00:00 | |
| BIOWL1-15 | 2026-09-05 02:01:27 | 51.94255 | 7.91299 | 91° | 170km/h | 10766m | -4.5m/s | -48.4°C | 13.2% | 242.7hPa | 2.5V | 07:53:29 | 02:42:30 | 00:00:00 | |
| DO2JMG | 2026-09-05 02:01:22 | 51.94256 | 7.91090 | 90° | 172km/h | 10780m | -4.6m/s | -48.5°C | 13.1% | 242.2hPa | 2.6V | 07:53:29 | 02:42:27 | 00:00:00 | |
| DF5WG-10 | 2026-09-05 02:01:22 | 51.94256 | 7.91090 | 90° | 172km/h | 10780m | -4.6m/s | -48.4°C | 12.8% | 242.1hPa | 2.6V | 00:00:00 | 02:42:27 | 00:00:00 | |
| DO2KSM | 2026-09-05 02:01:21 | 51.94256 | 7.91090 | 91° | 172km/h | 10780m | -4.6m/s | -48.5°C | 9.8% | 242.2hPa | 2.5V | 07:53:00 | 00:00:00 | 00:00:00 | |
| DL1XH-15 | 2026-09-05 02:01:19 | 51.94254 | 7.90531 | 89° | 172km/h | 10816m | -4.2m/s | -48.5°C | 12.5% | 240.8hPa | 2.5V | 07:53:31 | 02:42:19 | 00:00:00 | |
| DF8AY | 2026-09-05 02:01:19 | 51.94256 | 7.90881 | 90° | 170km/h | 10794m | -4.7m/s | -48.5°C | 13% | 0hPa | 2.5V | 07:54:20 | 02:42:24 | 00:00:00 | |
| AA1-15 | 2026-09-05 02:01:18 | 51.94256 | 7.90811 | 90° | 172km/h | 10798m | -4.8m/s | -48.5°C | 12.9% | 241.5hPa | 2.5V | 07:53:29 | 02:42:23 | 00:00:00 | |
| DL1XH-west | 2026-09-05 02:01:17 | 51.94256 | 7.90741 | 90° | 172km/h | 10803m | -4.9m/s | -48.5°C | 12.9% | 241.3hPa | 2.6V | 07:53:29 | 02:42:22 | 00:00:00 | |
| BIOWL1-15 | 2026-09-05 02:01:16 | 51.94254 | 7.90531 | 89° | 172km/h | 10816m | -4.2m/s | -48.5°C | 12.7% | 240.8hPa | 2.5V | 07:54:20 | 02:42:19 | 00:00:00 | |
| DO2JMG | 2026-09-05 02:01:11 | 51.94252 | 7.90320 | 89° | 172km/h | 10830m | -4.5m/s | -48.6°C | 12.6% | 240.3hPa | 2.6V | 07:54:20 | 02:42:16 | 00:00:00 | |
| DB0UT-7 | 2026-09-05 02:01:10 | 51.94252 | 7.90249 | 90° | 173km/h | 10834m | -4.3m/s | -48.6°C | 12.5% | 240.1hPa | 2.6V | 00:00:00 | 02:42:15 | 00:00:00 | |
| DL1XH-15 | 2026-09-05 02:01:09 | 51.94245 | 7.89827 | 87° | 172km/h | 10861m | -4.6m/s | -48.7°C | 12.2% | 239.2hPa | 2.5V | 07:53:41 | 02:42:09 | 00:00:00 | |
| AA1-15 | 2026-09-05 02:01:07 | 51.94250 | 7.90038 | 89° | 172km/h | 10848m | -4.7m/s | -48.7°C | 12.4% | 239.7hPa | 2.5V | 07:55:11 | 02:42:12 | 00:00:00 | |
| DL1XH-west | 2026-09-05 02:01:06 | 51.94248 | 7.89968 | 88° | 172km/h | 10852m | -4.4m/s | -48.7°C | 12.3% | 239.6hPa | 2.6V | 07:54:20 | 02:42:11 | 00:00:00 | |
| BIOWL1-15 | 2026-09-05 02:01:03 | 51.94243 | 7.89757 | 88° | 172km/h | 10866m | -4.6m/s | -48.7°C | 12% | 239.1hPa | 2.5V | 07:54:20 | 02:42:08 | 00:00:00 | |
| DO2JMG | 2026-09-05 02:01:01 | 51.94239 | 7.89616 | 87° | 173km/h | 10875m | -4.5m/s | -48.7°C | 11.9% | 238.7hPa | 2.5V | 07:54:20 | 02:42:06 | 00:00:00 | |
| DM0DOS-11 | 2026-09-05 02:00:59 | 51.94231 | 7.89403 | 86° | 173km/h | 10888m | -4.7m/s | -48.8°C | 12% | 238.2hPa | 2.5V | 07:53:47 | 02:42:03 | 00:00:00 | |
| HSKMA3-T | 2026-09-05 02:00:57 | 51.94229 | 7.89332 | 87° | 173km/h | 10892m | -4.3m/s | -48.8°C | 11.8% | 238.1hPa | 2.5V | 07:54:20 | 02:42:02 | 00:00:00 | |
| AA1-15 | 2026-09-05 02:00:56 | 51.94227 | 7.89261 | 87° | 173km/h | 10897m | -4.6m/s | -48.9°C | 11.8% | 237.9hPa | 2.5V | 07:55:11 | 02:42:01 | 00:00:00 | |
| DL1XH-west | 2026-09-05 02:00:55 | 51.94225 | 7.89190 | 88° | 173km/h | 10901m | -4.4m/s | -48.9°C | 11.7% | 237.8hPa | 2.6V | 07:54:20 | 02:42:00 | 00:00:00 | |
| BIOWL1-15 | 2026-09-05 02:00:53 | 51.94223 | 7.89047 | 89° | 175km/h | 10910m | -4.5m/s | -48.9°C | 11.6% | 237.5hPa | 2.5V | 07:54:20 | 02:41:58 | 00:00:00 | |
| DF8AY | 2026-09-05 02:00:51 | 51.94221 | 7.88905 | 89° | 175km/h | 10919m | -4.6m/s | -48.9°C | 11.6% | 0hPa | 2.5V | 07:54:20 | 02:41:56 | 00:00:00 | |
| DO2JMG | 2026-09-05 02:00:50 | 51.94220 | 7.88833 | 89° | 175km/h | 10923m | -4.4m/s | -48.9°C | 11.5% | 236.9hPa | 2.5V | 07:54:20 | 02:41:55 | 00:00:00 | |
| DM0DOS-11 | 2026-09-05 02:00:49 | 51.94218 | 7.88690 | 88° | 175km/h | 10932m | -4.4m/s | -48.9°C | 11.7% | 236.7hPa | 2.6V | 07:53:57 | 02:41:53 | 00:00:00 | |
| DL1XH-15 | 2026-09-05 02:00:49 | 51.94213 | 7.88402 | 88° | 177km/h | 10950m | -4.5m/s | -48.8°C | 11.6% | 236hPa | 2.6V | 07:54:01 | 02:41:49 | 00:00:00 | |
| HSKMA3-T | 2026-09-05 02:00:47 | 51.94217 | 7.88618 | 89° | 175km/h | 10937m | -4.5m/s | -48.9°C | 11.5% | 236.5hPa | 2.5V | 07:54:20 | 02:41:52 | 00:00:00 | |
| DL1XH-west | 2026-09-05 02:00:45 | 51.94215 | 7.88474 | 89° | 177km/h | 10946m | -4.5m/s | -48.9°C | 11.4% | 236.2hPa | 2.5V | 07:54:20 | 02:41:50 | 00:00:00 | |
| BIOWL1-15 | 2026-09-05 02:00:42 | 51.94211 | 7.88257 | 89° | 177km/h | 10959m | -4.2m/s | -48.8°C | 11.4% | 235.7hPa | 2.5V | 07:54:20 | 02:41:47 | 00:00:00 | |
| DL3AQ-11 | 2026-09-05 02:00:42 | 51.94211 | 7.88184 | 88° | 179km/h | 10963m | -4.5m/s | -48.7°C | 8.5% | 235.5hPa | 2.5V | 00:00:00 | 00:00:00 | 00:00:00 | |
| GOEST3-10 | 2026-09-05 02:00:41 | 51.94210 | 7.88184 | 89° | 179km/h | 10963m | -4.5m/s | -48.7°C | 11.5% | 235.5hPa | 2.5V | 00:00:00 | 00:00:00 | 00:00:00 | |
| DB0UT-7 | 2026-09-05 02:00:40 | 51.94210 | 7.88110 | 90° | 183km/h | 10968m | -4.5m/s | -48.6°C | 11.4% | 235.3hPa | 2.5V | 00:00:00 | 00:00:00 | 00:00:00 | |
| DL1XH-15 | 2026-09-05 02:00:39 | 51.94206 | 7.87671 | 89° | 181km/h | 10994m | -4.5m/s | -48.6°C | 11.4% | 234.4hPa | 2.5V | 07:54:11 | 02:41:39 | 00:00:00 | |
| DO2JMG | 2026-09-05 02:00:39 | 51.94209 | 7.88038 | 89° | 179km/h | 10972m | -4.7m/s | -48.6°C | 11.4% | 235.2hPa | 2.5V | 07:54:20 | 02:41:44 | 00:00:00 | |
| DF8AY | 2026-09-05 02:00:37 | 51.94208 | 7.87891 | 89° | 179km/h | 10981m | -4.2m/s | -48.6°C | 11.4% | 0hPa | 2.6V | 07:54:20 | 02:41:42 | 00:00:00 | |
| HSKMA3-T | 2026-09-05 02:00:36 | 51.94207 | 7.87818 | 89° | 181km/h | 10985m | -4.3m/s | -48.6°C | 11.4% | 234.7hPa | 2.5V | 07:54:20 | 02:41:41 | 00:00:00 | |
| AA1-15 | 2026-09-05 02:00:35 | 51.94207 | 7.87744 | 89° | 179km/h | 10990m | -4.6m/s | -48.6°C | 11.4% | 234.6hPa | 2.5V | 07:55:11 | 02:41:40 | 00:00:00 | |
| DL1XH-west | 2026-09-05 02:00:34 | 51.94206 | 7.87671 | 89° | 181km/h | 10994m | -4.6m/s | -48.6°C | 11.5% | 234.4hPa | 2.5V | 07:54:20 | 02:41:39 | 00:00:00 | |
| BIOWL1-15 | 2026-09-05 02:00:31 | 51.94206 | 7.87449 | 90° | 181km/h | 11007m | -4.5m/s | -48.7°C | 11.6% | 233.9hPa | 2.6V | 07:54:20 | 02:41:36 | 00:00:00 | |
| GOEST3-10 | 2026-09-05 02:00:31 | 51.94206 | 7.87449 | 90° | 181km/h | 11008m | -4.5m/s | -48.6°C | 11.5% | 233.9hPa | 2.6V | 07:54:00 | 00:00:00 | 00:00:00 | |
| DL1XH-15 | 2026-09-05 02:00:29 | 51.94206 | 7.86930 | 89° | 181km/h | 11039m | -4.6m/s | -48.8°C | 11.7% | 232.7hPa | 2.5V | 07:54:21 | 02:41:29 | 00:00:00 | |
| DO2JMG | 2026-09-05 02:00:28 | 51.94206 | 7.87227 | 90° | 181km/h | 11021m | -4.3m/s | -48.8°C | 11.7% | 233.4hPa | 2.5V | 07:54:20 | 02:41:33 | 00:00:00 | |
| DF8AY | 2026-09-05 02:00:27 | 51.94206 | 7.87153 | 90° | 181km/h | 11025m | -4.5m/s | 0°C | 0% | 0hPa | 2.6V | 07:54:20 | 02:41:32 | 00:00:00 | |
| HSKMA3-T | 2026-09-05 02:00:25 | 51.94206 | 7.87004 | 90° | 181km/h | 11035m | -5m/s | -48.8°C | 11.8% | 233hPa | 2.5V | 07:54:20 | 02:41:30 | 00:00:00 | |
| BIOWL1-15 | 2026-09-05 02:00:24 | 51.94203 | 7.86408 | 90° | 184km/h | 11070m | -4.7m/s | -49.1°C | 12.3% | 231.7hPa | 2.5V | 07:55:11 | 02:41:22 | 00:00:00 | |
| DL1XH-west | 2026-09-05 02:00:24 | 51.94206 | 7.86930 | 90° | 181km/h | 11039m | -4.6m/s | -48.8°C | 11.9% | 232.8hPa | 2.5V | 07:55:11 | 02:41:29 | 00:00:00 | |
| AA1-15 | 2026-09-05 02:00:23 | 51.94205 | 7.86856 | 89° | 181km/h | 11044m | -4.6m/s | -48.9°C | 11.9% | 232.6hPa | 2.5V | 07:55:11 | 02:41:28 | 00:00:00 | |
| DO2JMG | 2026-09-05 02:00:18 | 51.94204 | 7.86483 | 90° | 183km/h | 11066m | -4.3m/s | -49.1°C | 12.2% | 231.8hPa | 2.5V | 07:55:11 | 02:41:23 | 00:00:00 | |
| DF8AY | 2026-09-05 02:00:16 | 51.94204 | 7.86333 | 90° | 184km/h | 11075m | -4.6m/s | 0°C | 0% | 0hPa | 2.6V | 07:55:11 | 02:41:21 | 00:00:00 | |
| HSKMA3-T | 2026-09-05 02:00:15 | 51.94204 | 7.86258 | 90° | 184km/h | 11079m | -4.5m/s | -49.2°C | 12.4% | 231.4hPa | 2.6V | 07:55:11 | 02:41:20 | 00:00:00 | |
| DL1XH-west | 2026-09-05 02:00:13 | 51.94205 | 7.86106 | 91° | 186km/h | 11088m | -4.5m/s | -49.2°C | 12.5% | 231hPa | 2.5V | 07:55:11 | 02:41:18 | 00:00:00 | |
| DL3AQ-11 | 2026-09-05 02:00:13 | 51.94205 | 7.86030 | 90° | 184km/h | 11093m | -4.4m/s | -49.3°C | 9.1% | 230.9hPa | 2.5V | 00:00:00 | 00:00:00 | 00:00:00 | |
| DF5WG-10 | 2026-09-05 02:00:12 | 51.94205 | 7.86030 | 91° | 186km/h | 11093m | -4.4m/s | -49.2°C | 12.1% | 230.9hPa | 2.5V | 00:00:00 | 02:41:17 | 00:00:00 | |
| GOEST3-10 | 2026-09-05 02:00:11 | 51.94206 | 7.85954 | 91° | 186km/h | 11097m | -4.4m/s | -49.3°C | 12.1% | 230.7hPa | 2.5V | 00:00:00 | 00:00:00 | 00:00:00 | |
| DB0UT-7 | 2026-09-05 02:00:10 | 51.94207 | 7.85878 | 92° | 188km/h | 11101m | -4.3m/s | -49.3°C | 12.1% | 230.5hPa | 2.5V | 00:00:00 | 02:41:15 | 00:00:00 | |
| DL4XJ-10 | 2026-09-05 02:00:09 | 51.94208 | 7.85802 | 91° | 186km/h | 11106m | -4.5m/s | -49.4°C | 0% | 0hPa | 2.5V | 00:00:00 | 00:00:00 | 00:00:00 | |
| DO9LL-15 | 2026-09-05 02:00:08 | 51.94209 | 7.85726 | 92° | 188km/h | 11110m | -4.2m/s | -49.4°C | 12.2% | 230.2hPa | 2.5V | 00:00:00 | 02:41:13 | 00:00:00 | |
| DL1XH-15 | 2026-09-05 02:00:07 | 51.94211 | 7.85422 | 90° | 184km/h | 11126m | -3.6m/s | -49.6°C | 12.5% | 229.7hPa | 2.6V | 07:54:41 | 02:41:09 | 00:00:00 | |
| DO2JMG | 2026-09-05 02:00:07 | 51.94210 | 7.85650 | 91° | 186km/h | 11114m | -4.3m/s | -49.5°C | 12.6% | 230.1hPa | 2.5V | 07:55:11 | 02:41:12 | 00:00:00 | |
| DF8AY | 2026-09-05 02:00:06 | 51.94210 | 7.85573 | 91° | 186km/h | 11118m | -4.2m/s | 0°C | 0% | 0hPa | 2.5V | 07:55:11 | 02:41:11 | 00:00:00 | |
| HSKMA3-T | 2026-09-05 02:00:04 | 51.94211 | 7.85422 | 90° | 184km/h | 11126m | -3.6m/s | -49.6°C | 12.7% | 229.7hPa | 2.6V | 07:55:11 | 02:41:09 | 00:00:00 | |
| DL1XH-west | 2026-09-05 02:00:03 | 51.94211 | 7.85346 | 90° | 184km/h | 11130m | -3.7m/s | -49.6°C | 12.9% | 229.6hPa | 2.6V | 07:55:11 | 02:41:08 | 00:00:00 | |
| AA1-15 | 2026-09-05 01:59:59 | 51.94209 | 7.85043 | 89° | 186km/h | 11143m | -3.4m/s | -49.8°C | 13.2% | 229.1hPa | 2.6V | 07:55:11 | 02:41:04 | 00:00:00 | |
| DO2JMG | 2026-09-05 01:59:56 | 51.94207 | 7.84815 | 90° | 186km/h | 11154m | -3.9m/s | -49.8°C | 13.4% | 228.7hPa | 2.5V | 07:55:11 | 02:41:01 | 00:00:00 | |
| HARRO8 | 2026-09-05 01:59:56 | 51.94207 | 7.84815 | 90° | 184km/h | 11154m | -3.9m/s | -49.8°C | 10.0% | 228.7hPa | 2.5V | 00:00:00 | 00:00:00 | 00:00:00 | |
| DL1XH-15 | 2026-09-05 01:59:55 | 51.94208 | 7.84663 | 90° | 186km/h | 11162m | -3.6m/s | -49.9°C | 13.5% | 228.5hPa | 2.5V | 07:54:51 | 02:40:59 | 00:00:00 | |
| DF8AY | 2026-09-05 01:59:55 | 51.94207 | 7.84739 | 90° | 186km/h | 11158m | -3.6m/s | 0°C | 0% | 0hPa | 2.5V | 07:55:11 | 02:41:00 | 00:00:00 | |
| HSKMA3-T | 2026-09-05 01:59:54 | 51.94208 | 7.84663 | 91° | 186km/h | 11162m | -3.6m/s | -49.9°C | 13.6% | 228.5hPa | 2.5V | 07:55:11 | 02:40:59 | 00:00:00 | |
| DL1XH-west | 2026-09-05 01:59:53 | 51.94209 | 7.84587 | 91° | 186km/h | 11166m | -3.9m/s | -49.9°C | 13.7% | 228.3hPa | 2.6V | 07:55:11 | 02:40:58 | 00:00:00 | |
| EDDB2-12 | 2026-09-05 01:59:53 | 51.94209 | 7.84511 | 91° | 186km/h | 11170m | -3.8m/s | -49.9°C | 10.2% | 228.2hPa | 2.5V | 00:00:00 | 00:00:00 | 00:00:00 | |
| DO3DL | 2026-09-05 01:59:52 | 51.94208 | 7.84587 | 92° | 186km/h | 11166m | -3.9m/s | -49.9°C | 10.2% | 228.3hPa | 2.5V | 07:55:00 | 00:00:00 | 00:00:00 | |
| DF5WG-10 | 2026-09-05 01:59:51 | 51.94210 | 7.84434 | 92° | 190km/h | 11174m | -4.1m/s | -49.9°C | 13.5% | 228.0hPa | 2.5V | 00:00:00 | 02:40:56 | 00:00:00 | |
| DL1XH-15 | 2026-09-05 01:59:49 | 51.94216 | 7.83892 | 90° | 193km/h | 11204m | -4m/s | -50.2°C | 13.7% | 227.1hPa | 2.5V | 07:55:01 | 02:40:49 | 00:00:00 | |
| AA1-15 | 2026-09-05 01:59:48 | 51.94214 | 7.84204 | 91° | 188km/h | 11187m | -4.3m/s | -50.1°C | 14.1% | 227.6hPa | 2.6V | 07:55:11 | 02:40:53 | 00:00:00 | |
| DO2JMG | 2026-09-05 01:59:46 | 51.94215 | 7.84049 | 91° | 190km/h | 11196m | -4.6m/s | -50.2°C | 14.3% | 227.4hPa | 2.5V | 07:55:11 | 02:40:51 | 00:00:00 | |
| BIOWL1-15 | 2026-09-05 01:59:45 | 51.94216 | 7.83971 | 90° | 192km/h | 11200m | -4.2m/s | -50.2°C | 14.3% | 227.2hPa | 2.5V | 07:55:11 | 02:40:50 | 00:00:00 | |
| DF8AY | 2026-09-05 01:59:44 | 51.94216 | 7.83892 | 90° | 193km/h | 11204m | -4m/s | 0°C | 0% | 0hPa | 2.5V | 07:55:11 | 02:40:49 | 00:00:00 | |
| HSKMA3-T | 2026-09-05 01:59:43 | 51.94216 | 7.83813 | 90° | 195km/h | 11208m | -3.9m/s | -50.3°C | 14.4% | 226.9hPa | 2.5V | 07:55:11 | 02:40:48 | 00:00:00 | |
| DL1XH-west | 2026-09-05 01:59:42 | 51.94217 | 7.83733 | 91° | 195km/h | 11212m | -4.1m/s | -50.3°C | 14.4% | 226.8hPa | 2.6V | 07:55:11 | 02:40:47 | 00:00:00 | |
| DF8AY | 2026-09-05 01:59:39 | 51.94225 | 7.83102 | 92° | 190km/h | 11250m | -4.7m/s | 0°C | 0% | 0hPa | 2.5V | 07:55:11 | 02:40:39 | 00:00:00 | |
| AA1-15 | 2026-09-05 01:59:37 | 51.94221 | 7.83337 | 92° | 193km/h | 11236m | -4.9m/s | -50.6°C | 14.8% | 225.9hPa | 2.5V | 07:55:11 | 02:40:42 | 00:00:00 | |
| DL1XH-15 | 2026-09-05 01:59:35 | 51.94225 | 7.83102 | 91° | 190km/h | 11250m | -4.7m/s | -50.7°C | 14.3% | 225.5hPa | 2.5V | 07:55:11 | 02:40:39 | 00:00:00 | |
| BIOWL1-15 | 2026-09-05 01:59:35 | 51.94224 | 7.83181 | 92° | 192km/h | 11245m | -4.6m/s | -50.6°C | 14.9% | 225.6hPa | 2.6V | 07:55:11 | 02:40:40 | 00:00:00 | |
| HSKMA3-T | 2026-09-05 01:59:33 | 51.94227 | 7.83024 | 92° | 192km/h | 11254m | -4.4m/s | -50.7°C | 15.1% | 225.3hPa | 2.5V | 07:56:02 | 02:40:38 | 00:00:00 | |
| DL1XH-west | 2026-09-05 01:59:32 | 51.94228 | 7.82946 | 92° | 192km/h | 11259m | -4.8m/s | -50.7°C | 15.1% | 225.2hPa | 2.5V | 07:56:02 | 02:40:37 | 00:00:00 | |
| GOEST3-10 | 2026-09-05 01:59:31 | 51.94229 | 7.82867 | 92° | 193km/h | 11264m | -4.9m/s | -50.7°C | 14.4% | 224.9hPa | 2.6V | 00:00:00 | 00:00:00 | 00:00:00 | |
| DJ2KF-10 | 2026-09-05 01:59:30 | 51.94230 | 7.82788 | 92° | 195km/h | 11269m | -5.0m/s | -50.8°C | 14.5% | 224.8hPa | 2.6V | 00:00:00 | 02:40:35 | 00:00:00 | |
| DL1XH-15 | 2026-09-05 01:59:29 | 51.94234 | 7.82309 | 90° | 195km/h | 11297m | -4.4m/s | -51.1°C | 15.4% | 223.8hPa | 2.6V | 07:55:21 | 02:40:29 | 00:00:00 | |
| AA1-15 | 2026-09-05 01:59:26 | 51.94233 | 7.82469 | 91° | 195km/h | 11288m | -4.8m/s | -51°C | 15.7% | 224.2hPa | 2.5V | 07:56:02 | 02:40:31 | 00:00:00 | |
| DO2JMG | 2026-09-05 01:59:24 | 51.94234 | 7.82309 | 91° | 195km/h | 11297m | -4.4m/s | -51.1°C | 16% | 223.8hPa | 2.6V | 07:56:02 | 02:40:29 | 00:00:00 | |
| HSKMA3-T | 2026-09-05 01:59:23 | 51.94235 | 7.82230 | 91° | 195km/h | 11302m | -4.5m/s | -51.1°C | 16% | 223.7hPa | 2.5V | 07:56:02 | 02:40:28 | 00:00:00 | |
| DL1XH-west | 2026-09-05 01:59:21 | 51.94235 | 7.82070 | 90° | 195km/h | 11311m | -4.4m/s | -51.2°C | 16.2% | 223.4hPa | 2.5V | 07:56:02 | 02:40:26 | 00:00:00 | |
| GOEST3-10 | 2026-09-05 01:59:21 | 51.94235 | 7.82069 | 91° | 197km/h | 11311m | -4.3m/s | -51.2°C | 15.4% | 223.3hPa | 2.5V | 00:00:00 | 00:00:00 | 00:00:00 | |
| DF5WG-10 | 2026-09-05 01:59:20 | 51.94236 | 7.81989 | 91° | 195km/h | 11315m | -5.1m/s | -51.2°C | 15.4% | 223.2hPa | 2.5V | 07:55:00 | 02:40:25 | 00:00:00 | |
| DD1CC3-15 | 2026-09-05 01:59:19 | 51.94236 | 7.81989 | 92° | 197km/h | 11315m | -5.2m/s | -51.3°C | 11.8% | 223.2hPa | 2.6V | 07:56:00 | 00:00:00 | 00:00:00 | |
| DL1XH-15 | 2026-09-05 01:59:18 | 51.94236 | 7.81506 | 89° | 195km/h | 11346m | -5m/s | -51.6°C | 15.6% | 222.1hPa | 2.6V | 07:55:31 | 02:40:19 | 00:00:00 | |
| AA1-15 | 2026-09-05 01:59:16 | 51.94236 | 7.81666 | 90° | 197km/h | 11336m | -5.3m/s | -51.5°C | 16.5% | 222.5hPa | 2.5V | 07:56:02 | 02:40:21 | 00:00:00 | |
| DO2JMG | 2026-09-05 01:59:14 | 51.94235 | 7.81506 | 90° | 195km/h | 11346m | -5m/s | -51.6°C | 16.6% | 222.1hPa | 2.6V | 07:56:02 | 02:40:19 | 00:00:00 | |
| BIOWL1-15 | 2026-09-05 01:59:13 | 51.94235 | 7.81425 | 90° | 195km/h | 11351m | -5m/s | -51.6°C | 16.7% | 222hPa | 2.6V | 07:56:02 | 02:40:18 | 00:00:00 | |
| HSKMA3-T | 2026-09-05 01:59:12 | 51.94235 | 7.81346 | 90° | 195km/h | 11356m | -5m/s | -51.7°C | 16.7% | 221.8hPa | 2.5V | 07:56:02 | 02:40:17 | 00:00:00 | |
| DL1XH-west | 2026-09-05 01:59:11 | 51.94235 | 7.81266 | 90° | 193km/h | 11361m | -5m/s | -51.7°C | 16.8% | 221.7hPa | 2.5V | 07:56:02 | 02:40:16 | 00:00:00 | |
| AA1-15 | 2026-09-05 01:59:05 | 51.94240 | 7.80788 | 91° | 197km/h | 11390m | -4.6m/s | -52°C | 17.3% | 220.7hPa | 2.5V | 07:56:02 | 02:40:10 | 00:00:00 | |
| DO2JMG | 2026-09-05 01:59:04 | 51.94241 | 7.80708 | 91° | 197km/h | 11394m | -4.3m/s | -52°C | 17.4% | 220.5hPa | 2.5V | 07:56:02 | 02:40:09 | 00:00:00 | |
| DM0DOS-11 | 2026-09-05 01:59:03 | 51.94241 | 7.80224 | 88° | 197km/h | 11421m | -4.5m/s | -52.3°C | 17% | 219.6hPa | 2.5V | 07:55:47 | 02:40:03 | 00:00:00 | |
| BIOWL1-15 | 2026-09-05 01:59:03 | 51.94242 | 7.80627 | 91° | 197km/h | 11399m | -4.5m/s | -52.1°C | 17.5% | 220.3hPa | 2.6V | 07:56:02 | 02:40:08 | 00:00:00 | |
| HSKMA3-T | 2026-09-05 01:59:02 | 51.94242 | 7.80547 | 90° | 197km/h | 11403m | -4.8m/s | -52.1°C | 17.7% | 220.2hPa | 2.6V | 07:56:02 | 02:40:07 | 00:00:00 | |
| DL1XH-west | 2026-09-05 01:59:00 | 51.94242 | 7.80386 | 90° | 197km/h | 11412m | -4.5m/s | -52.2°C | 17.8% | 219.9hPa | 2.5V | 07:56:02 | 02:40:05 | 00:00:00 | |
| DF5WG-10 | 2026-09-05 01:59:00 | 51.94242 | 7.80386 | 90° | 197km/h | 11412m | -4.4m/s | -52.2°C | 17.1% | 219.8hPa | 2.5V | 00:00:00 | 02:40:05 | 00:00:00 | |
| DL1XH-15 | 2026-09-05 01:58:59 | 51.94238 | 7.79901 | 90° | 197km/h | 11439m | -4.8m/s | -52.5°C | 17.4% | 219hPa | 2.5V | 07:55:51 | 02:39:59 | 00:00:00 | |
| AA1-15 | 2026-09-05 01:58:55 | 51.94238 | 7.79982 | 90° | 197km/h | 11435m | -4.7m/s | -52.4°C | 18.2% | 219.1hPa | 2.5V | 07:56:02 | 02:40:00 | 00:00:00 | |
| BIOWL1-15 | 2026-09-05 01:58:53 | 51.94238 | 7.79820 | 91° | 197km/h | 11444m | -5m/s | -52.5°C | 18.3% | 218.8hPa | 2.5V | 07:56:02 | 02:39:58 | 00:00:00 | |
| HSKMA3-T | 2026-09-05 01:58:51 | 51.94240 | 7.79658 | 91° | 197km/h | 11453m | -4.5m/s | -52.6°C | 18.5% | 218.5hPa | 2.6V | 07:56:02 | 02:39:56 | 00:00:00 | |
| DL1XH-west | 2026-09-05 01:58:49 | 51.94241 | 7.79496 | 91° | 199km/h | 11462m | -4.9m/s | -52.7°C | 18.6% | 218.2hPa | 2.5V | 07:56:02 | 02:39:54 | 00:00:00 | |
| DJ2DS-15 | 2026-09-05 01:58:49 | 51.94242 | 7.79415 | 90° | 199km/h | 11467m | -5.8m/s | -52.7°C | 13.6% | 218.0hPa | 2.5V | 00:00:00 | 00:00:00 | 00:00:00 | |
| DL1XH-15 | 2026-09-05 01:58:47 | 51.94244 | 7.79086 | 90° | 201km/h | 11486m | -4.5m/s | -52.9°C | 18.2% | 217.4hPa | 2.5V | 07:56:01 | 02:39:49 | 00:00:00 | |
| BIOWL9-15 | 2026-09-05 01:58:46 | 51.94243 | 7.79251 | 90° | 199km/h | 11477m | -4.8m/s | 0°C | -1.0% | -1.0hPa | 2.5V | 00:00:00 | 00:00:00 | 00:00:00 | |
| AA1-15 | 2026-09-05 01:58:44 | 51.94244 | 7.79086 | 91° | 201km/h | 11486m | -4.5m/s | -52.9°C | 19% | 217.4hPa | 2.5V | 07:56:02 | 02:39:49 | 00:00:00 | |
| DO2JMG | 2026-09-05 01:58:42 | 51.94245 | 7.78921 | 91° | 201km/h | 11495m | -4.5m/s | -53°C | 19.2% | 217.1hPa | 2.5V | 07:56:53 | 02:39:47 | 00:00:00 | |
| HSKMA3-T | 2026-09-05 01:58:40 | 51.94246 | 7.78756 | 91° | 201km/h | 11505m | -4.6m/s | -53°C | 19.3% | 216.8hPa | 2.6V | 07:56:53 | 02:39:45 | 00:00:00 | |
| DL1XH-west | 2026-09-05 01:58:38 | 51.94247 | 7.78591 | 91° | 203km/h | 11514m | -4.7m/s | -53.1°C | 19.5% | 216.5hPa | 2.5V | 07:56:53 | 02:39:43 | 00:00:00 | |
| AA1-15 | 2026-09-05 01:58:33 | 51.94248 | 7.78175 | 90° | 204km/h | 11538m | -4.6m/s | -53.3°C | 19.8% | 215.8hPa | 2.6V | 07:56:53 | 02:39:38 | 00:00:00 | |
| DM0DOS-11 | 2026-09-05 01:58:33 | 51.94249 | 7.77759 | 90° | 201km/h | 11560m | -4.9m/s | -53.5°C | 19.1% | 214.9hPa | 2.6V | 07:56:17 | 02:39:33 | 00:00:00 | |
| BIOWL1-15 | 2026-09-05 01:58:32 | 51.94248 | 7.78091 | 90° | 204km/h | 11542m | -4.4m/s | -53.4°C | 19.8% | 215.6hPa | 2.5V | 07:56:53 | 02:39:37 | 00:00:00 | |
| DO2JMG | 2026-09-05 01:58:31 | 51.94248 | 7.78008 | 90° | 204km/h | 11547m | -4.5m/s | -53.4°C | 19.8% | 215.5hPa | 2.5V | 07:56:53 | 02:39:36 | 00:00:00 | |
| DF8AY | 2026-09-05 01:58:30 | 51.94248 | 7.77925 | 90° | 203km/h | 11552m | -4.3m/s | 0°C | 0% | 0hPa | 2.5V | 18:12:15 | 02:39:35 | 00:00:00 | |
| DF5WG-10 | 2026-09-05 01:58:30 | 51.94248 | 7.77925 | 91° | 203km/h | 11552m | -4.3m/s | -53.4°C | 19.0% | 215.2hPa | 2.6V | 00:00:00 | 02:39:35 | 00:00:00 | |
| DJ2KF-10 | 2026-09-05 01:58:29 | 51.94248 | 7.77842 | 91° | 204km/h | 11556m | -4.2m/s | -53.5°C | 19.0% | 215.1hPa | 2.6V | 00:00:00 | 02:39:34 | 00:00:00 | |
| EDDB2-11 | 2026-09-05 01:58:28 | 51.94249 | 7.77759 | 90° | 201km/h | 11560m | -4.9m/s | -53.6°C | 14.8% | 215.0hPa | 2.6V | 00:00:00 | 00:00:00 | 00:00:00 | |
| DL1XH-west | 2026-09-05 01:58:28 | 51.94249 | 7.77759 | 90° | 203km/h | 11560m | -4.9m/s | -53.6°C | 20.1% | 215hPa | 2.6V | 07:56:53 | 02:39:33 | 00:00:00 | |
| GOEST3-10 | 2026-09-05 01:58:26 | 51.94250 | 7.77594 | 91° | 203km/h | 11570m | -4.2m/s | -53.6°C | 19.2% | 214.6hPa | 2.6V | 00:00:00 | 02:39:31 | 00:00:00 | |
| DL1CLM-18 | 2026-09-05 01:58:25 | 51.94250 | 7.77594 | 92° | 201km/h | 11570m | -4.2m/s | -53.6°C | 14.9% | 214.6hPa | 2.6V | 00:00:00 | 00:00:00 | 00:00:00 | |
| DM0DOS-11 | 2026-09-05 01:58:23 | 51.94257 | 7.76933 | 90° | 203km/h | 11607m | -4.5m/s | -54°C | 19.7% | 213.3hPa | 2.6V | 07:56:27 | 02:39:23 | 00:00:00 | |
| AA1-15 | 2026-09-05 01:58:23 | 51.94253 | 7.77347 | 91° | 203km/h | 11583m | -4.6m/s | -53.8°C | 20.2% | 214.1hPa | 2.6V | 07:56:53 | 02:39:28 | 00:00:00 | |
| BIOWL1-15 | 2026-09-05 01:58:23 | 51.94254 | 7.77181 | 91° | 203km/h | 11593m | -4.7m/s | -53.9°C | 20.3% | 213.8hPa | 2.5V | 07:56:53 | 02:39:26 | 00:00:00 | |
| DO2JMG | 2026-09-05 01:58:20 | 51.94255 | 7.77098 | 91° | 203km/h | 11597m | -4.7m/s | -53.9°C | 20.4% | 213.7hPa | 2.5V | 07:56:53 | 02:39:25 | 00:00:00 | |
| HSKMA3-T | 2026-09-05 01:58:19 | 51.94256 | 7.77016 | 91° | 203km/h | 11602m | -4.9m/s | -54°C | 20.3% | 213.5hPa | 2.5V | 07:56:53 | 02:39:24 | 00:00:00 | |
| DL1XH-15 | 2026-09-05 01:58:17 | 51.94257 | 7.76598 | 89° | 206km/h | 11625m | -4.6m/s | -54.2°C | 20.1% | 212.8hPa | 2.5V | 07:56:31 | 02:39:19 | 00:00:00 | |
| DL1XH-west | 2026-09-05 01:58:17 | 51.94257 | 7.76849 | 90° | 204km/h | 11611m | -4.7m/s | -54°C | 20.4% | 213.2hPa | 2.6V | 07:56:53 | 02:39:22 | 00:00:00 | |
| GOEST3-10 | 2026-09-05 01:58:16 | 51.94257 | 7.76766 | 91° | 204km/h | 11616m | -4.4m/s | -54.0°C | 19.9% | 213.0hPa | 2.5V | 00:00:00 | 02:39:21 | 00:00:00 | |
| WEDDY | 2026-09-05 01:58:14 | 51.94257 | 7.76682 | 91° | 204km/h | 11621m | -4.5m/s | -54.1°C | 15.4% | 212.9hPa | 2.5V | 00:00:00 | 00:00:00 | 00:00:00 | |
| DM0DOS-11 | 2026-09-05 01:58:13 | 51.94255 | 7.76093 | 89° | 206km/h | 11653m | -4.7m/s | -54.5°C | 20.6% | 211.8hPa | 2.5V | 07:56:37 | 02:39:13 | 00:00:00 | |
| AA1-15 | 2026-09-05 01:58:12 | 51.94256 | 7.76430 | 90° | 206km/h | 11634m | -4.9m/s | -54.3°C | 20.6% | 212.4hPa | 2.6V | 07:56:53 | 02:39:17 | 00:00:00 | |
| DO2JMG | 2026-09-05 01:58:10 | 51.94255 | 7.76261 | 89° | 206km/h | 11644m | -4.6m/s | -54.4°C | 20.7% | 212.1hPa | 2.5V | 07:56:53 | 02:39:15 | 00:00:00 | |
| HSKMA3-T | 2026-09-05 01:58:09 | 51.94255 | 7.76177 | 90° | 206km/h | 11649m | -4.8m/s | -54.4°C | 20.7% | 212hPa | 2.5V | 07:56:53 | 02:39:14 | 00:00:00 | |
| DL1XH-west | 2026-09-05 01:58:07 | 51.94254 | 7.76008 | 90° | 206km/h | 11658m | -4.9m/s | -54.5°C | 20.7% | 211.7hPa | 2.5V | 07:56:53 | 02:39:12 | 00:00:00 | |
| AA1-15 | 2026-09-05 01:58:01 | 51.94256 | 7.75496 | 91° | 210km/h | 11687m | -5.2m/s | -54.6°C | 20.8% | 210.7hPa | 2.6V | 07:56:53 | 02:39:06 | 00:00:00 | |
| DO2JMG | 2026-09-05 01:58:00 | 51.94257 | 7.75411 | 91° | 210km/h | 11692m | -5m/s | -54.6°C | 20.7% | 210.6hPa | 2.6V | 07:56:53 | 02:39:05 | 00:00:00 | |
| HSKMA3-T | 2026-09-05 01:57:58 | 51.94260 | 7.75240 | 91° | 208km/h | 11702m | -4.9m/s | -54.6°C | 20.7% | 210.2hPa | 2.5V | 07:56:53 | 02:39:03 | 00:00:00 | |
| DL1XH-west | 2026-09-05 01:57:56 | 51.94262 | 7.75070 | 92° | 206km/h | 11711m | -4.7m/s | -54.5°C | 20.5% | 210hPa | 2.5V | 07:56:53 | 02:39:01 | 00:00:00 | |
| DF8AY | 2026-09-05 01:57:55 | 51.94264 | 7.74986 | 92° | 206km/h | 11716m | -4.7m/s | 0°C | 0% | 0hPa | 2.6V | 18:12:15 | 02:39:00 | 00:00:00 | |
| DM0DOS-11 | 2026-09-05 01:57:53 | 51.94277 | 7.74391 | 92° | 210km/h | 11749m | -4.9m/s | -54.5°C | 19.9% | 208.7hPa | 2.5V | 07:56:57 | 02:38:53 | 00:00:00 | |
| AA1-15 | 2026-09-05 01:57:50 | 51.94272 | 7.74562 | 92° | 208km/h | 11740m | -5m/s | -54.5°C | 20.4% | 209hPa | 2.6V | 07:57:44 | 02:38:55 | 00:00:00 | |
| BIOWL1-15 | 2026-09-05 01:57:49 | 51.94274 | 7.74476 | 92° | 210km/h | 11745m | -5.1m/s | -54.6°C | 20.4% | 208.8hPa | 2.6V | 07:57:44 | 02:38:54 | 00:00:00 | |
| HSKMA3-T | 2026-09-05 01:57:48 | 51.94277 | 7.74391 | 92° | 210km/h | 11750m | -4.9m/s | -54.5°C | 20.4% | 208.7hPa | 2.5V | 07:57:44 | 02:38:53 | 00:00:00 | |
| DF2AP-13 | 2026-09-05 01:57:48 | 51.94277 | 7.74391 | 93° | 208km/h | 11750m | -4.8m/s | -54.5°C | 19.9% | 208.6hPa | 2.6V | 00:00:00 | 02:38:53 | 00:00:00 | |
| DL1XH-15 | 2026-09-05 01:57:46 | 51.94285 | 7.74050 | 92° | 208km/h | 11770m | -4.8m/s | -54.5°C | 19.8% | 208hPa | 2.6V | 07:57:01 | 02:38:49 | 00:00:00 | |
| DL1XH-west | 2026-09-05 01:57:46 | 51.94281 | 7.74220 | 92° | 208km/h | 11760m | -4.9m/s | -54.5°C | 20.4% | 208.4hPa | 2.5V | 07:57:44 | 02:38:51 | 00:00:00 | |
| GOEST3-10 | 2026-09-05 01:57:46 | 51.94281 | 7.74220 | 93° | 208km/h | 11760m | -4.9m/s | -54.4°C | 19.8% | 208.3hPa | 2.5V | 00:00:00 | 02:38:51 | 00:00:00 | |
| BIOWL9-15 | 2026-09-05 01:57:44 | 51.94285 | 7.74050 | 92° | 208km/h | 11770m | -4.8m/s | -54.5°C | 15.2% | 208.0hPa | 2.6V | 00:00:00 | 00:00:00 | 00:00:00 | |
| DM0DOS-11 | 2026-09-05 01:57:43 | 51.94302 | 7.73542 | 93° | 208km/h | 11798m | -4.8m/s | -54.7°C | 19.8% | 207.1hPa | 2.6V | 07:57:07 | 02:38:43 | 00:00:00 | |
| DF8AY | 2026-09-05 01:57:43 | 51.94288 | 7.73965 | 93° | 206km/h | 11774m | -4.8m/s | 0°C | 0% | 0hPa | 2.6V | 18:12:15 | 02:38:48 | 00:00:00 | |
| AA1-15 | 2026-09-05 01:57:40 | 51.94296 | 7.73711 | 93° | 206km/h | 11789m | -4.7m/s | -54.7°C | 20.4% | 207.5hPa | 2.5V | 07:57:44 | 02:38:45 | 00:00:00 | |
| BIOWL1-15 | 2026-09-05 01:57:39 | 51.94299 | 7.73627 | 94° | 206km/h | 11793m | -4.8m/s | -54.7°C | 20.3% | 207.3hPa | 2.5V | 07:57:44 | 02:38:44 | 00:00:00 | |
| HSKMA3-T | 2026-09-05 01:57:37 | 51.94306 | 7.73458 | 94° | 208km/h | 11803m | -4.7m/s | -54.6°C | 20.3% | 206.9hPa | 2.6V | 07:57:44 | 02:38:42 | 00:00:00 | |
| DL1XH-west | 2026-09-05 01:57:35 | 51.94313 | 7.73287 | 94° | 208km/h | 11812m | -4.9m/s | -54.7°C | 20.3% | 206.7hPa | 2.5V | 07:57:44 | 02:38:40 | 00:00:00 | |
| AA1-15 | 2026-09-05 01:57:30 | 51.94331 | 7.72862 | 94° | 206km/h | 11835m | -4.2m/s | -54.8°C | 20.3% | 205.9hPa | 2.5V | 07:57:44 | 02:38:35 | 00:00:00 | |
| BUE01 | 2026-09-05 01:57:30 | 51.94335 | 7.72778 | 94° | 206km/h | 11840m | -4.8m/s | -54.9°C | 15.1% | 205.8hPa | 2.5V | 00:00:00 | 00:00:00 | 00:00:00 | |
| DL4XJ-10 | 2026-09-05 01:57:29 | 51.94334 | 7.72778 | 95° | 206km/h | 11840m | -4.7m/s | -54.9°C | 0% | 0hPa | 2.5V | 00:00:00 | 00:00:00 | 00:00:00 | |
| DL1XH-15 | 2026-09-05 01:57:28 | 51.94355 | 7.72354 | 94° | 208km/h | 11865m | -4.9m/s | -55°C | 19.8% | 205hPa | 2.5V | 07:57:21 | 02:38:29 | 00:00:00 | |
| BIOWL1-15 | 2026-09-05 01:57:28 | 51.94338 | 7.72693 | 94° | 206km/h | 11845m | -5m/s | -54.9°C | 20.3% | 205.6hPa | 2.5V | 07:57:44 | 02:38:33 | 00:00:00 | |
| HSKMA3-T | 2026-09-05 01:57:26 | 51.94346 | 7.72524 | 95° | 208km/h | 11855m | -5.3m/s | -55°C | 20.2% | 205.3hPa | 2.6V | 07:57:44 | 02:38:31 | 00:00:00 | |
| EDDB2-11 | 2026-09-05 01:57:26 | 51.94351 | 7.72439 | 94° | 208km/h | 11860m | -5.2m/s | -55.0°C | 15.2% | 205.1hPa | 2.5V | 00:00:00 | 00:00:00 | 00:00:00 | |
| DO3DL | 2026-09-05 01:57:25 | 51.94350 | 7.72439 | 96° | 208km/h | 11860m | -5.2m/s | -55.0°C | 15.2% | 205.1hPa | 2.5V | 07:57:00 | 00:00:00 | 00:00:00 | |
| DL1XH-west | 2026-09-05 01:57:25 | 51.94351 | 7.72439 | 95° | 208km/h | 11860m | -5.2m/s | -55°C | 20.2% | 205.1hPa | 2.5V | 07:57:44 | 02:38:30 | 00:00:00 | |
| DM0DOS-11 | 2026-09-05 01:57:23 | 51.94381 | 7.71844 | 95° | 206km/h | 11893m | -4.8m/s | -55.1°C | 19.6% | 204.1hPa | 2.5V | 07:57:27 | 02:38:23 | 00:00:00 | |
| AA1-15 | 2026-09-05 01:57:19 | 51.94377 | 7.71928 | 95° | 206km/h | 11888m | -4.8m/s | -55.1°C | 20.1% | 204.3hPa | 2.5V | 07:57:44 | 02:38:24 | 00:00:00 | |
| DO2JMG | 2026-09-05 01:57:18 | 51.94381 | 7.71844 | 95° | 206km/h | 11893m | -4.8m/s | -55.1°C | 20.1% | 204.1hPa | 2.5V | 07:57:44 | 02:38:23 | 00:00:00 | |
| BIOWL1-15 | 2026-09-05 01:57:17 | 51.94386 | 7.71760 | 95° | 204km/h | 11898m | -4.9m/s | -55.1°C | 20% | 203.9hPa | 2.5V | 07:57:44 | 02:38:22 | 00:00:00 | |
| HSKMA3-T | 2026-09-05 01:57:15 | 51.94396 | 7.71593 | 96° | 204km/h | 11907m | -4.6m/s | -55.2°C | 20% | 203.6hPa | 2.6V | 07:57:44 | 02:38:20 | 00:00:00 | |
| DL1XH-west | 2026-09-05 01:57:14 | 51.94401 | 7.71510 | 95° | 204km/h | 11912m | -4.9m/s | -55.3°C | 20% | 203.5hPa | 2.5V | 07:57:44 | 02:38:19 | 00:00:00 | |
| DF8AY | 2026-09-05 01:57:13 | 51.94406 | 7.71427 | 96° | 204km/h | 11917m | -4.7m/s | 0°C | 0% | 0hPa | 2.5V | 18:12:15 | 02:38:18 | 00:00:00 | |
| AA1-15 | 2026-09-05 01:57:08 | 51.94432 | 7.71011 | 96° | 204km/h | 11942m | -5.1m/s | -55.4°C | 19.8% | 202.6hPa | 2.5V | 07:57:44 | 02:38:13 | 00:00:00 | |
| BIOWL1-15 | 2026-09-05 01:57:07 | 51.94437 | 7.70927 | 96° | 204km/h | 11947m | -5.1m/s | -55.4°C | 19.7% | 202.4hPa | 2.5V | 07:57:44 | 02:38:12 | 00:00:00 | |
| HSKMA3-T | 2026-09-05 01:57:05 | 51.94448 | 7.70761 | 96° | 204km/h | 11957m | -4.5m/s | -55.5°C | 19.6% | 202.1hPa | 2.6V | 07:57:44 | 02:38:10 | 00:00:00 | |
| DL1XH-15 | 2026-09-05 01:57:04 | 51.94460 | 7.70595 | 96° | 203km/h | 11966m | -4m/s | -55.5°C | 19.5% | 201.8hPa | 2.5V | 07:57:42 | 02:38:08 | 00:00:00 | |
| DL1XH-west | 2026-09-05 01:57:04 | 51.94454 | 7.70678 | 97° | 203km/h | 11961m | -4.6m/s | -55.5°C | 19.6% | 202hPa | 2.6V | 07:57:44 | 02:38:09 | 00:00:00 | |
| DM0DOS-11 | 2026-09-05 01:57:03 | 51.94490 | 7.70184 | 97° | 203km/h | 11987m | -4.7m/s | -55.6°C | 19.1% | 201.1hPa | 2.6V | 07:57:47 | 02:38:03 | 00:00:00 | |
| GOEST3-10 | 2026-09-05 01:57:01 | 51.94471 | 7.70430 | 97° | 203km/h | 11974m | -4.6m/s | -55.5°C | 19.4% | 201.5hPa | 2.5V | 00:00:00 | 00:00:00 | 00:00:00 | |
| DF5WG-10 | 2026-09-05 01:57:00 | 51.94477 | 7.70348 | 98° | 201km/h | 11979m | -4.0m/s | -55.5°C | 19.2% | 201.4hPa | 2.6V | 00:00:00 | 02:38:05 | 00:00:00 | |
| DL1XH-15 | 2026-09-05 01:56:58 | 51.94524 | 7.69776 | 97° | 199km/h | 12009m | -4.2m/s | -55.8°C | 18.8% | 200.4hPa | 2.6V | 07:57:52 | 02:37:58 | 00:00:00 | |
| AA1-15 | 2026-09-05 01:56:58 | 51.94490 | 7.70184 | 98° | 203km/h | 11987m | -4.7m/s | -55.6°C | 19.2% | 201.1hPa | 2.6V | 07:58:35 | 02:38:03 | 00:00:00 | |
| DO2JMG | 2026-09-05 01:56:57 | 51.94497 | 7.70102 | 98° | 203km/h | 11992m | -4.5m/s | -55.6°C | 19.2% | 201hPa | 2.5V | 07:58:35 | 02:38:02 | 00:00:00 | |
| BIOWL1-15 | 2026-09-05 01:56:56 | 51.94504 | 7.70020 | 98° | 203km/h | 11997m | -4.6m/s | -55.7°C | 19.1% | 200.8hPa | 2.5V | 07:58:35 | 02:38:01 | 00:00:00 | |
| HSKMA3-T | 2026-09-05 01:56:54 | 51.94518 | 7.69857 | 98° | 199km/h | 12005m | -4.3m/s | -55.8°C | 18.9% | 200.6hPa | 2.6V | 07:58:35 | 02:37:59 | 00:00:00 | |
| DL1XH-west | 2026-09-05 01:56:53 | 51.94524 | 7.69776 | 98° | 199km/h | 12009m | -4.2m/s | -55.8°C | 18.9% | 200.4hPa | 2.6V | 07:58:35 | 02:37:58 | 00:00:00 | |
| AA1-15 | 2026-09-05 01:56:47 | 51.94567 | 7.69296 | 98° | 199km/h | 12036m | -4.5m/s | -56°C | 18.2% | 199.6hPa | 2.6V | 07:58:35 | 02:37:52 | 00:00:00 | |
| DL1XH-15 | 2026-09-05 01:56:46 | 51.94595 | 7.68970 | 97° | 203km/h | 12054m | -4.5m/s | -56.1°C | 18.7% | 199hPa | 2.6V | 07:58:02 | 02:37:48 | 00:00:00 | |
| DO2JMG | 2026-09-05 01:56:46 | 51.94574 | 7.69215 | 98° | 201km/h | 12041m | -4.3m/s | -56°C | 18.1% | 199.5hPa | 2.5V | 07:58:35 | 02:37:51 | 00:00:00 | |
| HSKMA3-T | 2026-09-05 01:56:44 | 51.94588 | 7.69052 | 98° | 203km/h | 12049m | -4.3m/s | -56.1°C | 17.9% | 199.2hPa | 2.5V | 07:58:35 | 02:37:49 | 00:00:00 | |
| DL1XH-west | 2026-09-05 01:56:42 | 51.94601 | 7.68888 | 97° | 203km/h | 12058m | -4.4m/s | -56.1°C | 17.6% | 198.9hPa | 2.6V | 07:58:35 | 02:37:47 | 00:00:00 | |
| DF8AY | 2026-09-05 01:56:40 | 51.94614 | 7.68724 | 97° | 199km/h | 12067m | -4.6m/s | 0°C | 0% | 0hPa | 2.5V | 18:12:15 | 02:37:45 | 00:00:00 | |
| BIOWL1-15 | 2026-09-05 01:56:36 | 51.94641 | 7.68406 | 98° | 193km/h | 12086m | -4.8m/s | -56.2°C | 16.8% | 198hPa | 2.6V | 07:58:35 | 02:37:41 | 00:00:00 | |
| DO2JMG | 2026-09-05 01:56:35 | 51.94648 | 7.68327 | 98° | 193km/h | 12091m | -4.3m/s | -56.2°C | 16.7% | 197.9hPa | 2.5V | 07:58:35 | 02:37:40 | 00:00:00 | |
| DL1XH-15 | 2026-09-05 01:56:34 | 51.94662 | 7.68172 | 98° | 192km/h | 12100m | -4.7m/s | -55.9°C | 17.2% | 197.6hPa | 2.5V | 07:58:12 | 02:37:38 | 00:00:00 | |
| HSKMA3-T | 2026-09-05 01:56:33 | 51.94663 | 7.68172 | 99° | 192km/h | 12100m | -4.7m/s | -55.9°C | 16.2% | 197.6hPa | 2.5V | 07:58:35 | 02:37:38 | 00:00:00 | |
| DO3DL | 2026-09-05 01:56:32 | 51.94662 | 7.68171 | 100° | 192km/h | 12100m | -4.7m/s | -55.9°C | 12.6% | 197.6hPa | 2.6V | 07:58:00 | 00:00:00 | 00:00:00 | |
| GOEST3-10 | 2026-09-05 01:56:31 | 51.94678 | 7.68016 | 100° | 192km/h | 12109m | -4.5m/s | -55.8°C | 16.8% | 197.2hPa | 2.6V | 07:58:00 | 00:00:00 | 00:00:00 | |
| DL1XH-west | 2026-09-05 01:56:31 | 51.94678 | 7.68016 | 99° | 193km/h | 12109m | -4.6m/s | -55.8°C | 15.8% | 197.3hPa | 2.6V | 07:58:35 | 02:37:36 | 00:00:00 | |
| DD1CC1-15 | 2026-09-05 01:56:30 | 51.94678 | 7.68016 | 100° | 193km/h | 12109m | -4.6m/s | -55.8°C | 12.2% | 197.3hPa | 2.5V | 07:58:00 | 00:00:00 | 00:00:00 | |
| DL4XJ-10 | 2026-09-05 01:56:29 | 51.94695 | 7.67860 | 100° | 186km/h | 12118m | -4.6m/s | -55.9°C | 0% | 0hPa | 2.5V | 00:00:00 | 00:00:00 | 00:00:00 | |
| DL1XH-15 | 2026-09-05 01:56:28 | 51.94744 | 7.67401 | 99° | 188km/h | 12145m | -4.8m/s | -55.2°C | 15.1% | 196.2hPa | 2.5V | 07:58:22 | 02:37:28 | 00:00:00 | |
| AA1-15 | 2026-09-05 01:56:26 | 51.94720 | 7.67629 | 100° | 190km/h | 12131m | -4.5m/s | -55.7°C | 15% | 196.7hPa | 2.6V | 07:58:35 | 02:37:31 | 00:00:00 | |
| DO2JMG | 2026-09-05 01:56:25 | 51.94728 | 7.67553 | 100° | 190km/h | 12136m | -4.4m/s | -55.5°C | 14.8% | 196.5hPa | 2.6V | 07:58:35 | 02:37:30 | 00:00:00 | |
| EDDB2-11 | 2026-09-05 01:56:24 | 51.94744 | 7.67401 | 99° | 186km/h | 12145m | -4.8m/s | -55.2°C | 10.8% | 196.2hPa | 2.5V | 00:00:00 | 00:00:00 | 00:00:00 | |
| DM0DOS-11 | 2026-09-05 01:56:23 | 51.94783 | 7.67029 | 100° | 184km/h | 12169m | -4.7m/s | -55°C | 14.5% | 195.5hPa | 2.5V | 07:58:27 | 02:37:23 | 00:00:00 | |
| HSKMA3-T | 2026-09-05 01:56:23 | 51.94744 | 7.67401 | 99° | 188km/h | 12145m | -4.8m/s | -55.2°C | 14.4% | 196.2hPa | 2.5V | 07:58:35 | 02:37:28 | 00:00:00 | |
| DL1XH-west | 2026-09-05 01:56:20 | 51.94767 | 7.67177 | 100° | 184km/h | 12159m | -4.8m/s | -54.9°C | 14.1% | 195.8hPa | 2.6V | 07:58:35 | 02:37:25 | 00:00:00 | |
| DF5WG-10 | 2026-09-05 01:56:20 | 51.94767 | 7.67177 | 100° | 184km/h | 12159m | -4.7m/s | -54.9°C | 14.4% | 195.8hPa | 2.6V | 00:00:00 | 02:37:25 | 00:00:00 | |
| HTAHTA | 2026-09-05 01:56:19 | 51.94775 | 7.67103 | 99° | 183km/h | 12164m | -4.9m/s | -55.0°C | 10.4% | 195.7hPa | 2.5V | 00:00:00 | 00:00:00 | 00:00:00 | |
| DO3DL | 2026-09-05 01:56:18 | 51.94775 | 7.67103 | 101° | 184km/h | 12164m | -4.9m/s | -55.0°C | 10.4% | 195.7hPa | 2.5V | 07:58:00 | 00:00:00 | 00:00:00 | |
| DL1ZP-14 | 2026-09-05 01:56:17 | 51.94800 | 7.66880 | 100° | 183km/h | 12177m | -4.5m/s | -54.9°C | 10.2% | 195.2hPa | 2.5V | 00:00:00 | 00:00:00 | 00:00:00 | |
| DL1XH-15 | 2026-09-05 01:56:16 | 51.94826 | 7.66658 | 101° | 183km/h | 12190m | -4.4m/s | -55°C | 14.1% | 194.8hPa | 2.5V | 07:58:32 | 02:37:18 | 00:00:00 | |
| AA1-15 | 2026-09-05 01:56:16 | 51.94800 | 7.66880 | 101° | 184km/h | 12177m | -4.5m/s | -54.9°C | 13.8% | 195.2hPa | 2.5V | 07:58:35 | 02:37:21 | 00:00:00 | |
| DO2JMG | 2026-09-05 01:56:15 | 51.94808 | 7.66806 | 101° | 184km/h | 12181m | -4m/s | -54.9°C | 13.7% | 195.1hPa | 2.6V | 07:58:35 | 02:37:20 | 00:00:00 | |
| DM0DOS-11 | 2026-09-05 01:56:13 | 51.94870 | 7.66297 | 101° | 177km/h | 12215m | -4.6m/s | -55°C | 13.8% | 194hPa | 2.5V | 07:58:37 | 02:37:13 | 00:00:00 | |
| HSKMA3-T | 2026-09-05 01:56:13 | 51.94826 | 7.66658 | 101° | 183km/h | 12190m | -4.4m/s | -55°C | 13.6% | 194.8hPa | 2.5V | 07:58:35 | 02:37:18 | 00:00:00 | |
| DL1XH-west | 2026-09-05 01:56:09 | 51.94861 | 7.66368 | 101° | 177km/h | 12210m | -5.4m/s | -55°C | 13.3% | 194.2hPa | 2.6V | 07:59:26 | 02:37:14 | 00:00:00 | |
| AA1-15 | 2026-09-05 01:56:05 | 51.94898 | 7.66083 | 103° | 177km/h | 12228m | -4.6m/s | -55.2°C | 13% | 193.6hPa | 2.5V | 07:59:26 | 02:37:10 | 00:00:00 | |
| DO2JMG | 2026-09-05 01:56:04 | 51.94908 | 7.66012 | 102° | 177km/h | 12232m | -4.3m/s | -55.2°C | 12.9% | 193.5hPa | 2.6V | 07:59:26 | 02:37:09 | 00:00:00 | |
| HSKMA3-T | 2026-09-05 01:56:02 | 51.94927 | 7.65871 | 103° | 177km/h | 12241m | -4.9m/s | -55.3°C | 12.7% | 193.2hPa | 2.5V | 07:59:26 | 02:37:07 | 00:00:00 | |
| DL1XH-west | 2026-09-05 01:55:59 | 51.94956 | 7.65660 | 103° | 175km/h | 12256m | -4.8m/s | -55.4°C | 12.4% | 192.8hPa | 2.6V | 07:59:26 | 02:37:04 | 00:00:00 | |
| DL1XH-15 | 2026-09-05 01:55:58 | 51.95017 | 7.65245 | 102° | 172km/h | 12283m | -5m/s | -55.3°C | 12.6% | 191.9hPa | 2.6V | 07:58:52 | 02:36:58 | 00:00:00 | |
| AA1-15 | 2026-09-05 01:55:55 | 51.94997 | 7.65382 | 103° | 173km/h | 12274m | -4.8m/s | -55.3°C | 11.9% | 192.2hPa | 2.5V | 07:59:26 | 02:37:00 | 00:00:00 | |
| DO2JMG | 2026-09-05 01:55:54 | 51.95007 | 7.65313 | 104° | 173km/h | 12279m | -4.6m/s | -55.3°C | 11.8% | 192.1hPa | 2.5V | 07:59:26 | 02:36:59 | 00:00:00 | |
| HSKMA3-T | 2026-09-05 01:55:51 | 51.95036 | 7.65109 | 103° | 170km/h | 12293m | -4.9m/s | -55.3°C | 11.4% | 191.7hPa | 2.5V | 07:59:26 | 02:36:56 | 00:00:00 | |
| DL1XH-west | 2026-09-05 01:55:48 | 51.95063 | 7.64907 | 102° | 170km/h | 12308m | -4.5m/s | -55.4°C | 11% | 191.2hPa | 2.6V | 07:59:26 | 02:36:53 | 00:00:00 | |
| HARRO8 | 2026-09-05 01:55:48 | 51.95072 | 7.64839 | 101° | 166km/h | 12313m | -5.3m/s | -55.4°C | 8.2% | 191.1hPa | 2.5V | 00:00:00 | 00:00:00 | 00:00:00 | |
| DL1CLM-18 | 2026-09-05 01:55:47 | 51.95063 | 7.64906 | 103° | 170km/h | 12308m | -4.5m/s | -55.4°C | 8.3% | 191.2hPa | 2.5V | 00:00:00 | 00:00:00 | 00:00:00 | |
| DL1XH-15 | 2026-09-05 01:55:46 | 51.95105 | 7.64571 | 101° | 166km/h | 12332m | -5.2m/s | -55.2°C | 11.5% | 190.5hPa | 2.5V | 07:59:02 | 02:36:48 | 00:00:00 | |
| DL1ZP-14 | 2026-09-05 01:55:46 | 51.95089 | 7.64705 | 101° | 166km/h | 12322m | -4.4m/s | -55.3°C | 7.9% | 190.8hPa | 2.5V | 00:00:00 | 00:00:00 | 00:00:00 | |
| DL3AQ-11 | 2026-09-05 01:55:45 | 51.95089 | 7.64705 | 101° | 166km/h | 12322m | -4.4m/s | -55.3°C | 7.9% | 190.8hPa | 2.5V | 00:00:00 | 00:00:00 | 00:00:00 | |
| AA1-15 | 2026-09-05 01:55:44 | 51.95097 | 7.64638 | 102° | 168km/h | 12327m | -5.2m/s | -55.2°C | 10.4% | 190.7hPa | 2.5V | 07:59:26 | 02:36:49 | 00:00:00 | |
| BIOWL1-15 | 2026-09-05 01:55:43 | 51.95105 | 7.64571 | 101° | 166km/h | 12332m | -5.3m/s | -55.2°C | 10.3% | 190.5hPa | 2.5V | 07:59:26 | 02:36:48 | 00:00:00 | |
| HSKMA3-T | 2026-09-05 01:55:40 | 51.95130 | 7.64371 | 101° | 164km/h | 12347m | -4.9m/s | -55.3°C | 9.9% | 190.1hPa | 2.5V | 07:59:26 | 02:36:45 | 00:00:00 | |
| DL1XH-west | 2026-09-05 01:55:37 | 51.95154 | 7.64174 | 101° | 162km/h | 12363m | -5.4m/s | -55.3°C | 9.5% | 189.7hPa | 2.6V | 07:59:26 | 02:36:42 | 00:00:00 | |
| DL4BBY-15 | 2026-09-05 01:55:36 | 51.95162 | 7.64108 | 101° | 159km/h | 12368m | -4.6m/s | -55.4°C | 0% | 0hPa | 2.5V | 00:00:00 | 00:00:00 | 00:00:00 | |
| DL1XH-15 | 2026-09-05 01:55:34 | 51.95184 | 7.63912 | 99° | 162km/h | 12383m | -4.4m/s | -55.4°C | 10.6% | 189.1hPa | 2.5V | 07:59:12 | 02:36:38 | 00:00:00 | |
| AA1-15 | 2026-09-05 01:55:33 | 51.95184 | 7.63912 | 100° | 162km/h | 12383m | -4.4m/s | -55.4°C | 8.9% | 189.1hPa | 2.5V | 07:59:26 | 02:36:38 | 00:00:00 | |
| DM0DOS-11 | 2026-09-05 01:55:33 | 51.95214 | 7.63581 | 97° | 164km/h | 12407m | -4.6m/s | -55.5°C | 10.2% | 188.3hPa | 2.5V | 07:59:17 | 02:36:33 | 00:00:00 | |
| DO2JMG | 2026-09-05 01:55:32 | 51.95190 | 7.63847 | 100° | 162km/h | 12388m | -4.9m/s | -55.4°C | 8.7% | 188.9hPa | 2.5V | 07:59:26 | 02:36:37 | 00:00:00 | |
| HSKMA3-T | 2026-09-05 01:55:29 | 51.95209 | 7.63648 | 98° | 166km/h | 12402m | -4.4m/s | -55.5°C | 8.2% | 188.5hPa | 2.5V | 07:59:26 | 02:36:34 | 00:00:00 | |
| DL4XJ-10 | 2026-09-05 01:55:29 | 51.95209 | 7.63648 | 98° | 157km/h | 12403m | -4.3m/s | -55.6°C | 0% | 0hPa | 2.5V | 00:00:00 | 00:00:00 | 00:00:00 | |
| DL1XH-15 | 2026-09-05 01:55:28 | 51.95244 | 7.63253 | 100° | 159km/h | 12430m | -5.1m/s | -55.6°C | 10% | 187.6hPa | 2.5V | 07:59:22 | 02:36:28 | 00:00:00 | |
| DL1XH-west | 2026-09-05 01:55:27 | 51.95220 | 7.63514 | 98° | 164km/h | 12411m | -4.3m/s | -55.5°C | 8% | 188.2hPa | 2.5V | 07:59:26 | 02:36:32 | 00:00:00 | |
| DJ2KF-10 | 2026-09-05 01:55:27 | 51.95220 | 7.63514 | 98° | 153km/h | 12411m | -4.3m/s | -55.5°C | 10.2% | 188.2hPa | 2.5V | 00:00:00 | 02:36:32 | 00:00:00 | |
| GOEST3-10 | 2026-09-05 01:55:26 | 51.95225 | 7.63448 | 98° | 161km/h | 12416m | -4.5m/s | -55.5°C | 10.1% | 188.0hPa | 2.5V | 00:00:00 | 02:36:31 | 00:00:00 | |
| BUE01 | 2026-09-05 01:55:25 | 51.95231 | 7.63382 | 98° | 161km/h | 12420m | -4.6m/s | -55.5°C | 6.3% | 187.9hPa | 2.5V | 00:00:00 | 00:00:00 | 00:00:00 | |
| DO2KSM | 2026-09-05 01:55:24 | 51.95231 | 7.63382 | 99° | 161km/h | 12421m | -4.6m/s | -55.5°C | 6.3% | 187.9hPa | 2.5V | 07:59:00 | 00:00:00 | 00:00:00 | |
| DM0DOS-11 | 2026-09-05 01:55:23 | 51.95282 | 7.62936 | 100° | 157km/h | 12453m | -4.4m/s | -55.5°C | 9.3% | 186.9hPa | 2.5V | 07:59:27 | 02:36:23 | 00:00:00 | |
| AA1-15 | 2026-09-05 01:55:23 | 51.95244 | 7.63253 | 100° | 159km/h | 12430m | -5.1m/s | -55.6°C | 7.3% | 187.7hPa | 2.5V | 07:59:26 | 02:36:28 | 00:00:00 | |
| BIOWL1-15 | 2026-09-05 01:55:21 | 51.95259 | 7.63126 | 102° | 157km/h | 12439m | -4.7m/s | -55.6°C | 7% | 187.4hPa | 2.5V | 07:59:26 | 02:36:26 | 00:00:00 | |
| DL1XH-west | 2026-09-05 01:55:17 | 51.95290 | 7.62873 | 100° | 155km/h | 12458m | -4.9m/s | -55.4°C | 6.1% | 186.8hPa | 2.5V | 08:00:17 | 02:36:22 | 00:00:00 | |
| HTAHTA | 2026-09-05 01:55:17 | 51.95297 | 7.62810 | 100° | 155km/h | 12463m | -5.1m/s | -55.2°C | 5.1% | 186.7hPa | 2.5V | 00:00:00 | 00:00:00 | 00:00:00 | |
| DL1XH-15 | 2026-09-05 01:55:16 | 51.95317 | 7.62624 | 100° | 153km/h | 12478m | -4.4m/s | -54.5°C | 7.7% | 186.3hPa | 2.5V | 07:59:32 | 02:36:18 | 00:00:00 | |
| HSKMA3-T | 2026-09-05 01:55:16 | 51.95297 | 7.62810 | 100° | 155km/h | 12463m | -5.1m/s | -55.2°C | 5.8% | 186.7hPa | 2.5V | 08:00:17 | 02:36:21 | 00:00:00 | |
| GOEST3-10 | 2026-09-05 01:55:16 | 51.95297 | 7.62810 | 101° | 153km/h | 12463m | -5.1m/s | -55.2°C | 8.7% | 186.6hPa | 2.5V | 00:00:00 | 02:36:21 | 00:00:00 | |
| DL1ZP-14 | 2026-09-05 01:55:15 | 51.95310 | 7.62686 | 99° | 153km/h | 12473m | -4.9m/s | -54.8°C | 4.7% | 186.4hPa | 2.6V | 00:00:00 | 00:00:00 | 00:00:00 | |
| DM0DOS-11 | 2026-09-05 01:55:13 | 51.95351 | 7.62318 | 100° | 150km/h | 12500m | -4.4m/s | -53.3°C | 6.5% | 185.6hPa | 2.6V | 07:59:37 | 02:36:13 | 00:00:00 | |
| AA1-15 | 2026-09-05 01:55:12 | 51.95323 | 7.62562 | 100° | 151km/h | 12482m | -4.7m/s | -54.4°C | 4.9% | 186.1hPa | 2.5V | 08:00:17 | 02:36:17 | 00:00:00 | |
| BIOWL1-15 | 2026-09-05 01:55:10 | 51.95337 | 7.62440 | 100° | 150km/h | 12491m | -4.7m/s | -53.9°C | 4.4% | 185.8hPa | 2.5V | 08:00:17 | 02:36:15 | 00:00:00 | |
| DL1XH-west | 2026-09-05 01:55:07 | 51.95365 | 7.62198 | 101° | 148km/h | 12510m | -4.6m/s | -52.9°C | 3.9% | 185.3hPa | 2.5V | 08:00:17 | 02:36:11 | 00:00:00 | |
| DL4BBY-15 | 2026-09-05 01:55:06 | 51.95365 | 7.62198 | 102° | 142km/h | 12510m | -4.5m/s | -52.9°C | 0% | 0hPa | 2.6V | 00:00:00 | 00:00:00 | 00:00:00 | |
| DL3AQ-11 | 2026-09-05 01:55:05 | 51.95373 | 7.62139 | 101° | 148km/h | 12515m | -4.6m/s | -52.8°C | 3.3% | 185.2hPa | 2.6V | 00:00:00 | 00:00:00 | 00:00:00 | |
| DO2KSM | 2026-09-05 01:55:04 | 51.95373 | 7.62138 | 103° | 148km/h | 12515m | -4.6m/s | -52.8°C | 3.3% | 185.2hPa | 2.6V | 08:00:00 | 00:00:00 | 00:00:00 | |
| SONDE2-11 | 2026-09-05 01:55:03 | 51.95388 | 7.62020 | 101° | 146km/h | 12524m | -4.8m/s | -52.7°C | 3.3% | 184.9hPa | 2.6V | 00:00:00 | 00:00:00 | 00:00:00 | |
| DM0DOS-11 | 2026-09-05 01:55:02 | 51.95425 | 7.61728 | 101° | 144km/h | 12549m | -5.6m/s | -52.7°C | 5.8% | 184.2hPa | 2.6V | 07:59:47 | 02:36:03 | 00:00:00 | |
| AA1-15 | 2026-09-05 01:55:01 | 51.95403 | 7.61902 | 102° | 146km/h | 12534m | -4.8m/s | -52.7°C | 3.6% | 184.6hPa | 2.5V | 08:00:17 | 02:36:06 | 00:00:00 | |
| DO2JMG | 2026-09-05 01:55:00 | 51.95411 | 7.61844 | 102° | 144km/h | 12539m | -4.7m/s | -52.8°C | 3.5% | 184.5hPa | 2.5V | 08:00:17 | 02:36:05 | 00:00:00 | |
| BIOWL1-15 | 2026-09-05 01:54:59 | 51.95418 | 7.61786 | 102° | 144km/h | 12544m | -5.2m/s | -52.8°C | 3.4% | 184.4hPa | 2.5V | 08:00:17 | 02:36:04 | 00:00:00 | |
| DL1XH-west | 2026-09-05 01:54:55 | 51.95446 | 7.61554 | 101° | 144km/h | 12564m | -4.8m/s | -52.8°C | 3.3% | 183.8hPa | 2.5V | 08:00:17 | 02:36:00 | 00:00:00 | |
| MET0W-2 | 2026-09-05 01:54:54 | 51.95460 | 7.61439 | 101° | 142km/h | 12573m | -4.9m/s | -52.8°C | 3.0% | 183.5hPa | 2.5V | 00:00:00 | 00:00:00 | 00:00:00 | |
| DL3AQ-11 | 2026-09-05 01:54:53 | 51.95467 | 7.61382 | 101° | 142km/h | 12578m | -4.8m/s | -52.8°C | 3.0% | 183.4hPa | 2.5V | 00:00:00 | 00:00:00 | 00:00:00 | |
| DM0DOS-11 | 2026-09-05 01:54:52 | 51.95496 | 7.61152 | 101° | 141km/h | 12598m | -5.2m/s | -52.9°C | 5.5% | 182.8hPa | 2.5V | 07:59:57 | 02:35:53 | 00:00:00 | |
| AA1-15 | 2026-09-05 01:54:50 | 51.95482 | 7.61266 | 101° | 142km/h | 12587m | -5m/s | -52.9°C | 3.1% | 183.1hPa | 2.5V | 08:00:17 | 02:35:55 | 00:00:00 | |
| DO2JMG | 2026-09-05 01:54:49 | 51.95489 | 7.61209 | 101° | 142km/h | 12593m | -5m/s | -52.9°C | 3% | 182.9hPa | 2.5V | 08:00:17 | 02:35:54 | 00:00:00 | |
| BIOWL1-15 | 2026-09-05 01:54:48 | 51.95495 | 7.61152 | 101° | 141km/h | 12598m | -5.2m/s | -52.9°C | 3% | 182.8hPa | 2.5V | 08:00:17 | 02:35:53 | 00:00:00 | |
| DL1XH-west | 2026-09-05 01:54:45 | 51.95515 | 7.60983 | 100° | 139km/h | 12613m | -5.3m/s | -53°C | 2.8% | 182.4hPa | 2.5V | 08:00:17 | 02:35:50 | 00:00:00 | |
| HSKMA3-T | 2026-09-05 01:54:44 | 51.95521 | 7.60928 | 100° | 137km/h | 12618m | -4.7m/s | -53°C | 2.7% | 182.2hPa | 2.5V | 08:00:17 | 02:35:49 | 00:00:00 | |
| AA1-15 | 2026-09-05 01:54:40 | 51.95543 | 7.60704 | 98° | 141km/h | 12637m | -5.1m/s | -53.1°C | 2.6% | 181.7hPa | 2.5V | 08:00:17 | 02:35:45 | 00:00:00 | |
| DO2JMG | 2026-09-05 01:54:39 | 51.95548 | 7.60647 | 98° | 141km/h | 12642m | -5.2m/s | -53.1°C | 2.5% | 181.6hPa | 2.5V | 08:00:17 | 02:35:44 | 00:00:00 | |
| BIOWL1-15 | 2026-09-05 01:54:38 | 51.95553 | 7.60590 | 98° | 141km/h | 12647m | -5m/s | -53.2°C | 2.5% | 181.5hPa | 2.5V | 08:00:17 | 02:35:43 | 00:00:00 | |
| DL1XH-west | 2026-09-05 01:54:34 | 51.95575 | 7.60363 | 99° | 139km/h | 12667m | -5m/s | -53.3°C | 2.2% | 180.9hPa | 2.5V | 08:00:17 | 02:35:39 | 00:00:00 | |
| DO2JMG | 2026-09-05 01:54:29 | 51.95599 | 7.60088 | 97° | 133km/h | 12692m | -4.7m/s | -53.2°C | 1.9% | 180.2hPa | 2.5V | 08:00:17 | 02:35:34 | 00:00:00 | |
| DL1XH-15 | 2026-09-05 01:54:28 | 51.95624 | 7.59765 | 97° | 133km/h | 12723m | -5.7m/s | -52.9°C | 4.7% | 179.3hPa | 2.5V | 08:00:22 | 02:35:28 | 00:00:00 | |
| BIOWL1-15 | 2026-09-05 01:54:28 | 51.95604 | 7.60034 | 97° | 133km/h | 12697m | -5.5m/s | -53.2°C | 1.9% | 180.1hPa | 2.5V | 08:00:17 | 02:35:33 | 00:00:00 | |
| DL1XH-west | 2026-09-05 01:54:24 | 51.95619 | 7.59819 | 97° | 133km/h | 12717m | -5.2m/s | -52.9°C | 1.6% | 179.5hPa | 2.6V | 08:01:08 | 02:35:29 | 00:00:00 | |
| HSKMA3-T | 2026-09-05 01:54:23 | 51.95624 | 7.59765 | 98° | 133km/h | 12723m | -5.7m/s | -52.9°C | 1.6% | 179.4hPa | 2.5V | 08:01:59 | 02:35:28 | 00:00:00 | |
| DD1CC8 | 2026-09-05 01:54:23 | 51.95628 | 7.59711 | 97° | 133km/h | 12728m | -4.7m/s | -52.9°C | 2.0% | 179.2hPa | 2.5V | 00:00:00 | 00:00:00 | 00:00:00 | |
| MET0W-2 | 2026-09-05 01:54:22 | 51.95628 | 7.59711 | 97° | 133km/h | 12728m | -4.7m/s | -52.9°C | 2.0% | 179.2hPa | 2.5V | 00:00:00 | 00:00:00 | 00:00:00 | |
| GOEST3-10 | 2026-09-05 01:54:21 | 51.95632 | 7.59656 | 98° | 131km/h | 12733m | -4.7m/s | -52.8°C | 4.5% | 179.0hPa | 2.5V | 00:00:00 | 00:00:00 | 00:00:00 | |
| DM0DOS-11 | 2026-09-05 01:54:20 | 51.95645 | 7.59496 | 96° | 130km/h | 12747m | -4.7m/s | -52.9°C | 4.5% | 178.7hPa | 2.5V | 08:00:27 | 02:35:23 | 00:00:00 | |
| AA1-15 | 2026-09-05 01:54:19 | 51.95641 | 7.59549 | 97° | 131km/h | 12742m | -4.9m/s | -52.8°C | 1.5% | 178.8hPa | 2.6V | 08:01:08 | 02:35:24 | 00:00:00 | |
| DO2JMG | 2026-09-05 01:54:18 | 51.95645 | 7.59496 | 97° | 130km/h | 12747m | -4.7m/s | -52.9°C | 1.5% | 178.7hPa | 2.5V | 08:01:08 | 02:35:23 | 00:00:00 | |
| BIOWL1-15 | 2026-09-05 01:54:17 | 51.95649 | 7.59444 | 97° | 128km/h | 12752m | -5.4m/s | -52.9°C | 1.5% | 178.5hPa | 2.5V | 08:01:08 | 02:35:22 | 00:00:00 | |
| DL1XH-west | 2026-09-05 01:54:14 | 51.95659 | 7.59288 | 95° | 128km/h | 12768m | -4.8m/s | -52.9°C | 1.4% | 178.1hPa | 2.6V | 08:01:08 | 02:35:19 | 00:00:00 | |
| HSKMA3-T | 2026-09-05 01:54:13 | 51.95662 | 7.59237 | 95° | 124km/h | 12773m | -5.1m/s | -52.9°C | 1.5% | 177.9hPa | 2.6V | 08:01:59 | 02:35:18 | 00:00:00 | |
| BIOWL1-15 | 2026-09-05 01:54:10 | 51.95679 | 7.58885 | 93° | 122km/h | 12810m | -5m/s | -52.5°C | 1.3% | 177hPa | 2.5V | 08:01:08 | 02:35:11 | 00:00:00 | |
| AA1-15 | 2026-09-05 01:54:09 | 51.95672 | 7.59034 | 95° | 124km/h | 12795m | -5.2m/s | -52.7°C | 1.3% | 177.4hPa | 2.6V | 08:01:08 | 02:35:14 | 00:00:00 | |
| DO2JMG | 2026-09-05 01:54:07 | 51.95677 | 7.58934 | 95° | 122km/h | 12805m | -5.1m/s | -52.6°C | 1.3% | 177.1hPa | 2.5V | 08:01:08 | 02:35:12 | 00:00:00 | |
| DL4BBY-15 | 2026-09-05 01:54:06 | 51.95679 | 7.58885 | 94° | 120km/h | 12810m | -5.0m/s | -52.6°C | 0% | 0hPa | 2.6V | 00:00:00 | 00:00:00 | 00:00:00 | |
| DL1XH-15 | 2026-09-05 01:54:04 | 51.95683 | 7.58737 | 92° | 120km/h | 12825m | -4.8m/s | -52.4°C | 4.3% | 176.5hPa | 2.6V | 08:00:42 | 02:35:08 | 00:00:00 | |
| DL1XH-west | 2026-09-05 01:54:04 | 51.95682 | 7.58786 | 92° | 120km/h | 12820m | -4.7m/s | -52.4°C | 1.3% | 176.7hPa | 2.5V | 08:01:08 | 02:35:09 | 00:00:00 | |
| DM0DOS-11 | 2026-09-05 01:54:03 | 51.95687 | 7.58491 | 90° | 120km/h | 12851m | -4.8m/s | -52.2°C | 4.2% | 175.8hPa | 2.6V | 08:00:47 | 02:35:03 | 00:00:00 | |
| HSKMA3-T | 2026-09-05 01:54:02 | 51.95685 | 7.58688 | 92° | 120km/h | 12830m | -5.3m/s | -52.3°C | 1.2% | 176.4hPa | 2.6V | 08:01:59 | 02:35:07 | 00:00:00 | |
| AA1-15 | 2026-09-05 01:53:58 | 51.95687 | 7.58491 | 90° | 120km/h | 12851m | -4.9m/s | -52.2°C | 1.1% | 175.8hPa | 2.6V | 08:01:08 | 02:35:03 | 00:00:00 | |
| DL1XH-15 | 2026-09-05 01:53:58 | 51.95687 | 7.58248 | 90° | 119km/h | 12877m | -5m/s | -52.1°C | 4.2% | 175.2hPa | 2.5V | 08:00:52 | 02:34:58 | 00:00:00 | |
| BIOWL1-15 | 2026-09-05 01:53:56 | 51.95687 | 7.58393 | 90° | 119km/h | 12861m | -5.2m/s | -52.2°C | 1.2% | 175.6hPa | 2.5V | 08:01:08 | 02:35:01 | 00:00:00 | |
| GOEST3-10 | 2026-09-05 01:53:56 | 51.95687 | 7.58393 | 91° | 119km/h | 12861m | -5.1m/s | -52.1°C | 4.2% | 175.5hPa | 2.5V | 00:00:00 | 02:35:01 | 00:00:00 | |
| DM0DOS-11 | 2026-09-05 01:53:53 | 51.95686 | 7.58003 | 88° | 120km/h | 12901m | -5m/s | -52.2°C | 4.2% | 174.5hPa | 2.5V | 08:00:57 | 02:34:53 | 00:00:00 | |
| DL1XH-west | 2026-09-05 01:53:53 | 51.95687 | 7.58247 | 90° | 119km/h | 12877m | -5m/s | -52.1°C | 1.1% | 175.2hPa | 2.5V | 08:01:08 | 02:34:58 | 00:00:00 | |
| HSKMA3-T | 2026-09-05 01:53:51 | 51.95687 | 7.58150 | 90° | 119km/h | 12886m | -4.6m/s | -52.1°C | 1.1% | 174.9hPa | 2.6V | 08:01:59 | 02:34:56 | 00:00:00 | |
| AA1-15 | 2026-09-05 01:53:47 | 51.95685 | 7.57954 | 88° | 120km/h | 12906m | -4.7m/s | -52.2°C | 1.1% | 174.3hPa | 2.6V | 08:01:08 | 02:34:52 | 00:00:00 | |
| DL1XH-15 | 2026-09-05 01:53:46 | 51.95678 | 7.57759 | 85° | 119km/h | 12926m | -5m/s | -52.2°C | 4.1% | 173.8hPa | 2.5V | 08:01:02 | 02:34:48 | 00:00:00 | |
| BIOWL1-15 | 2026-09-05 01:53:45 | 51.95682 | 7.57856 | 87° | 120km/h | 12916m | -5.3m/s | -52.2°C | 1.1% | 174.1hPa | 2.5V | 08:01:08 | 02:34:50 | 00:00:00 | |
| DL1XH-west | 2026-09-05 01:53:42 | 51.95675 | 7.57710 | 86° | 119km/h | 12931m | -4.9m/s | -52.3°C | 1.1% | 173.7hPa | 2.5V | 08:01:08 | 02:34:47 | 00:00:00 | |
| HSKMA3-T | 2026-09-05 01:53:41 | 51.95673 | 7.57662 | 86° | 119km/h | 12936m | -4.9m/s | -52.3°C | 1.1% | 173.6hPa | 2.6V | 08:01:59 | 02:34:46 | 00:00:00 | |
| AA1-15 | 2026-09-05 01:53:37 | 51.95667 | 7.57465 | 88° | 122km/h | 12956m | -5.3m/s | -52.5°C | 1.1% | 173hPa | 2.5V | 08:01:08 | 02:34:42 | 00:00:00 | |
| DL4BBY-15 | 2026-09-05 01:53:36 | 51.95666 | 7.57415 | 89° | 126km/h | 12962m | -5.1m/s | -52.6°C | 0% | 0hPa | 2.5V | 00:00:00 | 00:00:00 | 00:00:00 | |
| DL1XH-15 | 2026-09-05 01:53:34 | 51.95663 | 7.57261 | 88° | 126km/h | 12976m | -5.1m/s | -52.6°C | 4.2% | 172.5hPa | 2.5V | 08:01:12 | 02:34:38 | 00:00:00 | |
| DO2JMG | 2026-09-05 01:53:34 | 51.95664 | 7.57313 | 89° | 126km/h | 12971m | -4.8m/s | -52.6°C | 1.1% | 172.6hPa | 2.5V | 08:01:59 | 02:34:39 | 00:00:00 | |
| DL1XH-west | 2026-09-05 01:53:31 | 51.95662 | 7.57159 | 89° | 126km/h | 12987m | -5m/s | -52.7°C | 1% | 172.2hPa | 2.5V | 08:01:59 | 02:34:36 | 00:00:00 | |
| DD1CC3-15 | 2026-09-05 01:53:29 | 51.95661 | 7.57108 | 90° | 124km/h | 12992m | -4.9m/s | -52.7°C | 1.8% | 172.1hPa | 2.5V | 08:01:00 | 00:00:00 | 00:00:00 | |
| DC6BW-12 | 2026-09-05 01:53:28 | 51.95661 | 7.57057 | 90° | 124km/h | 12997m | -4.8m/s | -52.7°C | 1.8% | 171.9hPa | 2.5V | 08:01:00 | 00:00:00 | 00:00:00 | |
| DL1XH-15 | 2026-09-05 01:53:27 | 51.95660 | 7.56760 | 90° | 120km/h | 13027m | -5.2m/s | -52.6°C | 4.2% | 171.1hPa | 2.5V | 08:01:22 | 02:34:28 | 00:00:00 | |
| AA1-15 | 2026-09-05 01:53:26 | 51.95659 | 7.56908 | 90° | 120km/h | 13012m | -5.2m/s | -52.6°C | 1% | 171.6hPa | 2.5V | 08:01:59 | 02:34:31 | 00:00:00 | |
| BIOWL1-15 | 2026-09-05 01:53:26 | 51.95660 | 7.56810 | 91° | 120km/h | 13022m | -5.3m/s | -52.6°C | 1% | 171.3hPa | 2.6V | 08:01:59 | 02:34:29 | 00:00:00 | |
| DO2JMG | 2026-09-05 01:53:23 | 51.95660 | 7.56760 | 91° | 120km/h | 13027m | -5.2m/s | -52.6°C | 1% | 171.1hPa | 2.5V | 08:01:59 | 02:34:28 | 00:00:00 | |
| DL3AQ-11 | 2026-09-05 01:53:22 | 51.95660 | 7.56711 | 90° | 122km/h | 13033m | -4.6m/s | -52.6°C | 1.7% | 171.0hPa | 2.6V | 00:00:00 | 00:00:00 | 00:00:00 | |
| GOEST3-10 | 2026-09-05 01:53:21 | 51.95660 | 7.56660 | 91° | 126km/h | 13038m | -5.2m/s | -52.6°C | 4.2% | 170.8hPa | 2.6V | 00:00:00 | 00:00:00 | 00:00:00 | |
| DL1XH-west | 2026-09-05 01:53:21 | 51.95661 | 7.56660 | 91° | 126km/h | 13038m | -5.2m/s | -52.6°C | 1% | 170.8hPa | 2.5V | 08:01:59 | 02:34:26 | 00:00:00 | |
| DM0DOS-11 | 2026-09-05 01:53:19 | 51.95662 | 7.56506 | 91° | 126km/h | 13053m | -5.3m/s | -52.6°C | 4.1% | 170.5hPa | 2.6V | 08:01:27 | 02:34:23 | 00:00:00 | |
| DL4XJ-10 | 2026-09-05 01:53:18 | 51.95663 | 7.56506 | 92° | 130km/h | 13053m | -5.2m/s | -52.6°C | 0% | 0hPa | 2.6V | 00:00:00 | 00:00:00 | 00:00:00 | |
| DL1XH-15 | 2026-09-05 01:53:17 | 51.95669 | 7.56243 | 93° | 130km/h | 13080m | -5.4m/s | -52.7°C | 4.2% | 169.8hPa | 2.6V | 08:01:32 | 02:34:18 | 00:00:00 | |
| AA1-15 | 2026-09-05 01:53:16 | 51.95665 | 7.56401 | 92° | 130km/h | 13063m | -4.9m/s | -52.6°C | 0.9% | 170.2hPa | 2.5V | 08:01:59 | 02:34:21 | 00:00:00 | |
| HSKMA3-T | 2026-09-05 01:53:15 | 51.95666 | 7.56348 | 92° | 130km/h | 13069m | -5.4m/s | -52.6°C | 0.9% | 170.1hPa | 2.5V | 08:01:59 | 02:34:20 | 00:00:00 | |
| DM0DOS-11 | 2026-09-05 01:53:13 | 51.95679 | 7.55979 | 93° | 128km/h | 13106m | -5.5m/s | -52.7°C | 4.2% | 169.1hPa | 2.6V | 08:01:37 | 02:34:13 | 00:00:00 | |
| DO2JMG | 2026-09-05 01:53:13 | 51.95669 | 7.56243 | 93° | 130km/h | 13080m | -5.4m/s | -52.7°C | 0.9% | 169.8hPa | 2.6V | 08:01:59 | 02:34:18 | 00:00:00 | |
| DL1XH-west | 2026-09-05 01:53:11 | 51.95673 | 7.56137 | 94° | 130km/h | 13090m | -5.1m/s | -52.7°C | 0.9% | 169.5hPa | 2.5V | 08:01:59 | 02:34:16 | 00:00:00 | |
| GOEST3-10 | 2026-09-05 01:53:11 | 51.95673 | 7.56136 | 94° | 128km/h | 13090m | -5.1m/s | -52.6°C | 4.2% | 169.4hPa | 2.6V | 00:00:00 | 00:00:00 | 00:00:00 | |
| DF5WG-10 | 2026-09-05 01:53:10 | 51.95675 | 7.56084 | 94° | 126km/h | 13095m | -4.7m/s | -52.7°C | 4.1% | 169.3hPa | 2.6V | 00:00:00 | 02:34:15 | 00:00:00 | |
| EDDB2-12 | 2026-09-05 01:53:09 | 51.95677 | 7.56031 | 93° | 128km/h | 13100m | -5.3m/s | -52.7°C | 1.7% | 169.2hPa | 2.6V | 00:00:00 | 00:00:00 | 00:00:00 | |
| DF2AP-13 | 2026-09-05 01:53:08 | 51.95679 | 7.55979 | 94° | 128km/h | 13106m | -5.5m/s | -52.6°C | 4.2% | 169.1hPa | 2.6V | 00:00:00 | 02:34:13 | 00:00:00 | |
| DL1XH-15 | 2026-09-05 01:53:07 | 51.95689 | 7.55723 | 93° | 124km/h | 13132m | -5m/s | -52.6°C | 4.1% | 168.4hPa | 2.6V | 08:01:42 | 02:34:08 | 00:00:00 | |
| AA1-15 | 2026-09-05 01:53:05 | 51.95685 | 7.55824 | 93° | 124km/h | 13122m | -5m/s | -52.6°C | 0.9% | 168.7hPa | 2.5V | 08:01:59 | 02:34:10 | 00:00:00 | |
| DC4HF-4 | 2026-09-05 01:53:05 | 51.95685 | 7.55824 | 93° | 124km/h | 13122m | -5.0m/s | -52.6°C | 1.6% | 168.7hPa | 2.5V | 00:00:00 | 00:00:00 | 00:00:00 | |
| DO3DL | 2026-09-05 01:53:04 | 51.95685 | 7.55824 | 94° | 124km/h | 13122m | -5.0m/s | -52.6°C | 1.6% | 168.7hPa | 2.5V | 08:01:00 | 00:00:00 | 00:00:00 | |
| DM0DOS-11 | 2026-09-05 01:53:02 | 51.95695 | 7.55469 | 91° | 124km/h | 13157m | -5m/s | -52.2°C | 3.9% | 167.7hPa | 2.5V | 08:01:47 | 02:34:03 | 00:00:00 | |
| BIOWL1-15 | 2026-09-05 01:53:02 | 51.95691 | 7.55672 | 93° | 124km/h | 13137m | -5.2m/s | -52.6°C | 0.8% | 168.3hPa | 2.6V | 08:01:59 | 02:34:07 | 00:00:00 | |
| DL1XH-west | 2026-09-05 01:53:00 | 51.95694 | 7.55571 | 92° | 124km/h | 13147m | -5.4m/s | -52.5°C | 0.8% | 168hPa | 2.5V | 08:01:59 | 02:34:05 | 00:00:00 | |
| DB0ND-19 | 2026-09-05 01:53:00 | 51.95695 | 7.55520 | 91° | 124km/h | 13152m | -4.9m/s | -52.3°C | 1.6% | 167.8hPa | 2.5V | 00:00:00 | 00:00:00 | 00:00:00 | |
| SONDE2-11 | 2026-09-05 01:52:59 | 51.95695 | 7.55469 | 91° | 124km/h | 13158m | -5.0m/s | -52.2°C | 1.5% | 167.7hPa | 2.5V | 00:00:00 | 00:00:00 | 00:00:00 | |
| DL1XH-15 | 2026-09-05 01:52:57 | 51.95697 | 7.55209 | 89° | 130km/h | 13183m | -5.2m/s | -52.1°C | 3.9% | 167.1hPa | 2.5V | 08:01:52 | 02:33:58 | 00:00:00 | |
| AA1-15 | 2026-09-05 01:52:55 | 51.95697 | 7.55314 | 90° | 128km/h | 13173m | -5.3m/s | -52.1°C | 0.7% | 167.3hPa | 2.5V | 08:01:59 | 02:34:00 | 00:00:00 | |
| DL3AQ-11 | 2026-09-05 01:52:53 | 51.95697 | 7.55156 | 89° | 130km/h | 13189m | -5.1m/s | -52.2°C | 1.5% | 166.9hPa | 2.5V | 00:00:00 | 00:00:00 | 00:00:00 | |
| DM0DOS-11 | 2026-09-05 01:52:52 | 51.95695 | 7.54942 | 88° | 131km/h | 13209m | -5.4m/s | -52.2°C | 3.9% | 166.4hPa | 2.5V | 08:01:57 | 02:33:53 | 00:00:00 | |
| DO2JMG | 2026-09-05 01:52:52 | 51.95697 | 7.55156 | 90° | 130km/h | 13189m | -5.1m/s | -52.2°C | 0.7% | 166.9hPa | 2.6V | 08:01:59 | 02:33:57 | 00:00:00 | |
| DL1XH-west | 2026-09-05 01:52:49 | 51.95696 | 7.54996 | 88° | 131km/h | 13205m | -4.9m/s | -52.2°C | 0.7% | 166.6hPa | 2.5V | 08:01:59 | 02:33:54 | 00:00:00 | |
| DJ2DS-15 | 2026-09-05 01:52:48 | 51.95695 | 7.54942 | 88° | 130km/h | 13209m | -5.4m/s | -52.2°C | 1.5% | 166.4hPa | 2.5V | 00:00:00 | 00:00:00 | 00:00:00 | |
| EDDB2-11 | 2026-09-05 01:52:46 | 51.95692 | 7.54784 | 88° | 126km/h | 13226m | -5.1m/s | -52.2°C | 1.5% | 166.0hPa | 2.5V | 00:00:00 | 00:00:00 | 00:00:00 | |
| AA1-15 | 2026-09-05 01:52:44 | 51.95691 | 7.54732 | 88° | 128km/h | 13231m | -5.2m/s | -52.2°C | 0.6% | 165.8hPa | 2.5V | 08:02:50 | 02:33:49 | 00:00:00 | |
| BIOWL1-15 | 2026-09-05 01:52:41 | 51.95688 | 7.54576 | 88° | 128km/h | 13247m | -4.9m/s | -52.2°C | 0.7% | 165.4hPa | 2.6V | 08:02:50 | 02:33:46 | 00:00:00 | |
| DL1XH-west | 2026-09-05 01:52:39 | 51.95687 | 7.54472 | 88° | 128km/h | 13257m | -4.9m/s | -52.3°C | 0.7% | 165.2hPa | 2.5V | 08:02:50 | 02:33:44 | 00:00:00 | |
| DO9LL-15 | 2026-09-05 01:52:38 | 51.95685 | 7.54420 | 88° | 124km/h | 13262m | -5.0m/s | -52.3°C | 3.9% | 165.0hPa | 2.5V | 00:00:00 | 02:33:43 | 00:00:00 | |
| DL1XH-15 | 2026-09-05 01:52:37 | 51.95673 | 7.54160 | 85° | 126km/h | 13288m | -5.2m/s | -52.5°C | 4% | 164.3hPa | 2.5V | 08:02:12 | 02:33:38 | 00:00:00 | |
| AA1-15 | 2026-09-05 01:52:34 | 51.95676 | 7.54212 | 85° | 128km/h | 13283m | -5.4m/s | -52.5°C | 0.7% | 164.5hPa | 2.6V | 08:02:50 | 02:33:39 | 00:00:00 | |
| DL1LOL-11 | 2026-09-05 01:52:33 | 51.95676 | 7.54212 | 86° | 128km/h | 13283m | -5.4m/s | -52.5°C | 1.5% | 164.5hPa | 2.5V | 00:00:00 | 00:00:00 | 00:00:00 | |
| DM0DOS-11 | 2026-09-05 01:52:32 | 51.95660 | 7.53905 | 85° | 124km/h | 13315m | -5.2m/s | -52.7°C | 4.1% | 163.6hPa | 2.5V | 08:02:17 | 02:33:33 | 00:00:00 | |
| DO2JMG | 2026-09-05 01:52:31 | 51.95668 | 7.54057 | 85° | 126km/h | 13299m | -5.5m/s | -52.6°C | 0.7% | 164hPa | 2.5V | 08:02:50 | 02:33:36 | 00:00:00 | |
| DL1XH-west | 2026-09-05 01:52:28 | 51.95661 | 7.53905 | 86° | 124km/h | 13315m | -5.2m/s | -52.7°C | 0.8% | 163.6hPa | 2.5V | 08:02:50 | 02:33:33 | 00:00:00 | |
| SONDE2-11 | 2026-09-05 01:52:28 | 51.95658 | 7.53854 | 85° | 124km/h | 13320m | -5.6m/s | -52.8°C | 1.6% | 163.5hPa | 2.6V | 00:00:00 | 00:00:00 | 00:00:00 | |
| DL1XH-15 | 2026-09-05 01:52:27 | 51.95647 | 7.53650 | 84° | 126km/h | 13342m | -5.4m/s | -52.8°C | 4.1% | 162.9hPa | 2.6V | 08:02:22 | 02:33:28 | 00:00:00 | |
| HSKMA3-T | 2026-09-05 01:52:23 | 51.95648 | 7.53650 | 85° | 126km/h | 13342m | -5.4m/s | -52.8°C | 0.8% | 163hPa | 2.6V | 08:02:50 | 02:33:28 | 00:00:00 | |
| DM0DOS-11 | 2026-09-05 01:52:22 | 51.95632 | 7.53399 | 83° | 120km/h | 13369m | -5.3m/s | -52.6°C | 4% | 162.3hPa | 2.6V | 08:02:27 | 02:33:23 | 00:00:00 | |
| BIOWL1-15 | 2026-09-05 01:52:20 | 51.95638 | 7.53498 | 84° | 122km/h | 13358m | -6.1m/s | -52.7°C | 0.8% | 162.5hPa | 2.5V | 08:02:50 | 02:33:25 | 00:00:00 | |
| DL1XH-west | 2026-09-05 01:52:17 | 51.95629 | 7.53350 | 85° | 120km/h | 13374m | -5.5m/s | -52.5°C | 0.8% | 162.2hPa | 2.5V | 08:02:50 | 02:33:22 | 00:00:00 | |
| GOEST3-10 | 2026-09-05 01:52:16 | 51.95625 | 7.53301 | 85° | 120km/h | 13380m | -5.3m/s | -52.3°C | 3.9% | 162.0hPa | 2.5V | 00:00:00 | 02:33:21 | 00:00:00 | |
| EDDB2-11 | 2026-09-05 01:52:15 | 51.95622 | 7.53252 | 84° | 119km/h | 13385m | -5.8m/s | -52.2°C | 1.5% | 161.9hPa | 2.6V | 00:00:00 | 00:00:00 | 00:00:00 | |
| DL3AQ-11 | 2026-09-05 01:52:13 | 51.95612 | 7.53105 | 82° | 120km/h | 13402m | -6.2m/s | -52.2°C | 1.5% | 161.4hPa | 2.6V | 00:00:00 | 00:00:00 | 00:00:00 | |
| DM0DOS-11 | 2026-09-05 01:52:12 | 51.95596 | 7.52905 | 82° | 122km/h | 13425m | -5.4m/s | -52.2°C | 3.9% | 160.9hPa | 2.6V | 08:02:37 | 02:33:13 | 00:00:00 | |
| AA1-15 | 2026-09-05 01:52:12 | 51.95612 | 7.53105 | 83° | 122km/h | 13402m | -6.2m/s | -52.2°C | 0.7% | 161.4hPa | 2.6V | 08:02:50 | 02:33:17 | 00:00:00 | |
| BIOWL1-15 | 2026-09-05 01:52:11 | 51.95600 | 7.52955 | 82° | 124km/h | 13419m | -5.5m/s | -52.2°C | 0.7% | 161hPa | 2.5V | 08:02:50 | 02:33:14 | 00:00:00 | |
| DO2JMG | 2026-09-05 01:52:10 | 51.95604 | 7.53005 | 82° | 122km/h | 13414m | -5.7m/s | -52.2°C | 0.7% | 161.2hPa | 2.5V | 08:02:50 | 02:33:15 | 00:00:00 | |
| DL1XH-west | 2026-09-05 01:52:06 | 51.95587 | 7.52805 | 83° | 124km/h | 13436m | -5.3m/s | -52.3°C | 0.8% | 160.7hPa | 2.5V | 08:02:50 | 02:33:11 | 00:00:00 | |
| DL1CLM-18 | 2026-09-05 01:52:04 | 51.95584 | 7.52754 | 85° | 124km/h | 13441m | -5.3m/s | -52.3°C | 1.5% | 160.5hPa | 2.5V | 00:00:00 | 00:00:00 | 00:00:00 | |
| BIOWL9-15 | 2026-09-05 01:52:03 | 51.95575 | 7.52602 | 84° | 124km/h | 13457m | -5.5m/s | -52.4°C | 1.5% | 160.1hPa | 2.5V | 00:00:00 | 00:00:00 | 00:00:00 | |
| DM0DOS-11 | 2026-09-05 01:52:02 | 51.95561 | 7.52399 | 83° | 126km/h | 13479m | -5.6m/s | -52.5°C | 4% | 159.6hPa | 2.5V | 08:02:47 | 02:33:03 | 00:00:00 | |
| AA1-15 | 2026-09-05 01:52:02 | 51.95575 | 7.52602 | 85° | 124km/h | 13457m | -5.5m/s | -52.4°C | 0.8% | 160.1hPa | 2.6V | 08:02:50 | 02:33:07 | 00:00:00 | |
| DO2JMG | 2026-09-05 01:51:59 | 51.95565 | 7.52450 | 83° | 126km/h | 13473m | -5.2m/s | -52.5°C | 0.8% | 159.7hPa | 2.5V | 08:02:50 | 02:33:04 | 00:00:00 | |
| BIOWL1-15 | 2026-09-05 01:51:58 | 51.95561 | 7.52399 | 83° | 126km/h | 13479m | -5.6m/s | -52.5°C | 0.8% | 159.6hPa | 2.5V | 08:02:50 | 02:33:03 | 00:00:00 | |
| DL1XH-15 | 2026-09-05 01:51:57 | 51.95541 | 7.52140 | 82° | 130km/h | 13506m | -5.6m/s | -52.7°C | 4.1% | 158.9hPa | 2.5V | 08:02:52 | 02:32:58 | 00:00:00 | |
| DL1XH-west | 2026-09-05 01:51:55 | 51.95549 | 7.52245 | 83° | 128km/h | 13495m | -5.5m/s | -52.6°C | 0.9% | 159.1hPa | 2.5V | 08:02:50 | 02:33:00 | 00:00:00 | |
| DB0NH | 2026-09-05 01:51:55 | 51.95549 | 7.52245 | 83° | 128km/h | 13495m | -5.4m/s | -52.6°C | 4.1% | 159.1hPa | 2.5V | 00:00:00 | 02:33:00 | 00:00:00 | |
| DM0DOS-11 | 2026-09-05 01:51:52 | 51.95522 | 7.51877 | 84° | 130km/h | 13534m | -5.5m/s | -52.9°C | 4.1% | 158.2hPa | 2.5V | 08:02:57 | 02:32:53 | 00:00:00 | |
| AA1-15 | 2026-09-05 01:51:52 | 51.95537 | 7.52088 | 83° | 130km/h | 13511m | -5.7m/s | -52.8°C | 0.9% | 158.8hPa | 2.5V | 08:03:41 | 02:32:57 | 00:00:00 | |
| HSKMA3-T | 2026-09-05 01:51:51 | 51.95533 | 7.52035 | 83° | 130km/h | 13517m | -5.5m/s | -52.8°C | 0.9% | 158.6hPa | 2.6V | 08:03:41 | 02:32:56 | 00:00:00 | |
| DO2JMG | 2026-09-05 01:51:48 | 51.95522 | 7.51877 | 85° | 130km/h | 13534m | -5.5m/s | -52.9°C | 0.9% | 158.2hPa | 2.5V | 08:03:41 | 02:32:53 | 00:00:00 | |
| DL1XH-15 | 2026-09-05 01:51:47 | 51.95510 | 7.51613 | 87° | 128km/h | 13561m | -6.2m/s | -53.1°C | 4.3% | 157.5hPa | 2.5V | 08:03:02 | 02:32:48 | 00:00:00 | |
| BIOWL1-15 | 2026-09-05 01:51:47 | 51.95519 | 7.51824 | 85° | 130km/h | 13540m | -5.5m/s | -52.9°C | 0.9% | 158.1hPa | 2.5V | 08:03:41 | 02:32:52 | 00:00:00 | |
| DL1XH-west | 2026-09-05 01:51:45 | 51.95514 | 7.51719 | 86° | 130km/h | 13550m | -5.2m/s | -53°C | 1% | 157.8hPa | 2.6V | 08:03:41 | 02:32:50 | 00:00:00 | |
| EDDB2-11 | 2026-09-05 01:51:44 | 51.95512 | 7.51666 | 86° | 128km/h | 13555m | -5.3m/s | -53.0°C | 1.6% | 157.7hPa | 2.5V | 00:00:00 | 00:00:00 | 00:00:00 | |
| DM0DOS-11 | 2026-09-05 01:51:42 | 51.95504 | 7.51357 | 87° | 122km/h | 13590m | -5.4m/s | -52.8°C | 4.2% | 156.8hPa | 2.5V | 08:03:07 | 02:32:43 | 00:00:00 | |
| AA1-15 | 2026-09-05 01:51:42 | 51.95509 | 7.51561 | 87° | 128km/h | 13567m | -5.9m/s | -53.1°C | 1% | 157.4hPa | 2.5V | 08:03:41 | 02:32:47 | 00:00:00 | |
| HSKMA3-T | 2026-09-05 01:51:41 | 51.95508 | 7.51509 | 88° | 126km/h | 13573m | -5.8m/s | -53°C | 1% | 157.2hPa | 2.5V | 08:03:41 | 02:32:46 | 00:00:00 | |
| DB0UT-7 | 2026-09-05 01:51:40 | 51.95506 | 7.51458 | 88° | 126km/h | 13579m | -5.9m/s | -52.9°C | 4.2% | 157.0hPa | 2.5V | 00:00:00 | 00:00:00 | 00:00:00 | |
| HARRO8 | 2026-09-05 01:51:39 | 51.95505 | 7.51407 | 87° | 122km/h | 13585m | -5.9m/s | -52.8°C | 1.7% | 156.9hPa | 2.5V | 00:00:00 | 00:00:00 | 00:00:00 | |
| DO9LL-15 | 2026-09-05 01:51:38 | 51.95504 | 7.51357 | 88° | 128km/h | 13590m | -5.4m/s | -52.7°C | 4.2% | 156.8hPa | 2.5V | 00:00:00 | 02:32:43 | 00:00:00 | |
| DL1XH-15 | 2026-09-05 01:51:37 | 51.95493 | 7.51105 | 85° | 126km/h | 13618m | -5.5m/s | -52.8°C | 4.2% | 156.2hPa | 2.5V | 08:03:12 | 02:32:38 | 00:00:00 | |
| DO2JMG | 2026-09-05 01:51:37 | 51.95502 | 7.51307 | 87° | 122km/h | 13596m | -5.5m/s | -52.8°C | 0.9% | 156.7hPa | 2.5V | 08:03:41 | 02:32:42 | 00:00:00 | |
| DL1XH-west | 2026-09-05 01:51:34 | 51.95496 | 7.51156 | 86° | 124km/h | 13612m | -5.8m/s | -52.8°C | 1% | 156.3hPa | 2.6V | 08:03:41 | 02:32:39 | 00:00:00 | |
| AA1-15 | 2026-09-05 01:51:31 | 51.95488 | 7.51001 | 86° | 130km/h | 13629m | -5.6m/s | -52.8°C | 1% | 155.9hPa | 2.5V | 08:03:41 | 02:32:36 | 00:00:00 | |
| HSKMA3-T | 2026-09-05 01:51:30 | 51.95486 | 7.50948 | 86° | 130km/h | 13634m | -5.6m/s | -52.8°C | 0.9% | 155.8hPa | 2.5V | 08:03:41 | 02:32:35 | 00:00:00 | |
| BIOWL1-15 | 2026-09-05 01:51:26 | 51.95476 | 7.50733 | 86° | 131km/h | 13657m | -6m/s | -52.5°C | 1% | 155.2hPa | 2.5V | 08:03:41 | 02:32:31 | 00:00:00 | |
| DL1XH-west | 2026-09-05 01:51:24 | 51.95470 | 7.50626 | 85° | 130km/h | 13669m | -5.7m/s | -52.4°C | 1% | 154.9hPa | 2.6V | 08:03:41 | 02:32:29 | 00:00:00 | |
| DM0DOS-11 | 2026-09-05 01:51:22 | 51.95452 | 7.50317 | 85° | 124km/h | 13704m | -5.6m/s | -52.6°C | 4.2% | 154.1hPa | 2.6V | 08:03:27 | 02:32:23 | 00:00:00 | |
| AA1-15 | 2026-09-05 01:51:20 | 51.95458 | 7.50419 | 85° | 124km/h | 13692m | -6m/s | -52.5°C | 1% | 154.4hPa | 2.5V | 08:03:41 | 02:32:25 | 00:00:00 | |
| HSKMA3-T | 2026-09-05 01:51:19 | 51.95455 | 7.50368 | 85° | 124km/h | 13698m | -6.1m/s | -52.6°C | 1% | 154.3hPa | 2.5V | 08:03:41 | 02:32:24 | 00:00:00 | |
| BIOWL1-15 | 2026-09-05 01:51:18 | 51.95447 | 7.50215 | 85° | 124km/h | 13716m | -5.9m/s | -52.7°C | 1% | 153.8hPa | 2.5V | 08:03:41 | 02:32:21 | 00:00:00 | |
| DL1XH-15 | 2026-09-05 01:51:17 | 51.95440 | 7.50061 | 85° | 128km/h | 13733m | -5.6m/s | -52.6°C | 4.2% | 153.4hPa | 2.6V | 08:03:32 | 02:32:18 | 00:00:00 | |
| DO2JMG | 2026-09-05 01:51:15 | 51.95445 | 7.50164 | 85° | 126km/h | 13722m | -5.9m/s | -52.7°C | 1% | 153.7hPa | 2.5V | 08:03:41 | 02:32:20 | 00:00:00 | |
| DL1XH-west | 2026-09-05 01:51:13 | 51.95440 | 7.50061 | 86° | 128km/h | 13733m | -5.6m/s | -52.6°C | 1% | 153.4hPa | 2.6V | 08:03:41 | 02:32:18 | 00:00:00 | |
| AA1-15 | 2026-09-05 01:51:10 | 51.95433 | 7.49906 | 86° | 128km/h | 13750m | -5.6m/s | -52.5°C | 1% | 153hPa | 2.5V | 08:03:41 | 02:32:15 | 00:00:00 | |
| HSKMA3-T | 2026-09-05 01:51:08 | 51.95429 | 7.49802 | 87° | 126km/h | 13761m | -6m/s | -52.5°C | 1% | 152.8hPa | 2.5V | 08:03:41 | 02:32:13 | 00:00:00 | |
| BIOWL1-15 | 2026-09-05 01:51:05 | 51.95425 | 7.49648 | 88° | 124km/h | 13778m | -5.9m/s | -52.5°C | 1% | 152.3hPa | 2.5V | 08:03:41 | 02:32:10 | 00:00:00 | |
| DO2JMG | 2026-09-05 01:51:04 | 51.95424 | 7.49598 | 88° | 122km/h | 13784m | -5.9m/s | -52.5°C | 1% | 152.2hPa | 2.5V | 08:03:41 | 02:32:09 | 00:00:00 | |
| DC6BW-12 | 2026-09-05 01:51:03 | 51.95424 | 7.49598 | 89° | 122km/h | 13784m | -5.9m/s | -52.5°C | 1.7% | 152.2hPa | 2.5V | 08:03:00 | 00:00:00 | 00:00:00 | |
| DM0DOS-11 | 2026-09-05 01:51:02 | 51.95414 | 7.49309 | 86° | 115km/h | 13821m | -6m/s | -52.6°C | 4.2% | 151.3hPa | 2.5V | 08:03:47 | 02:32:03 | 00:00:00 | |
| DL1XH-west | 2026-09-05 01:51:02 | 51.95422 | 7.49500 | 87° | 119km/h | 13796m | -6.1m/s | -52.6°C | 1% | 151.9hPa | 2.6V | 08:04:32 | 02:32:07 | 00:00:00 | |
| AA1-15 | 2026-09-05 01:50:59 | 51.95416 | 7.49356 | 86° | 115km/h | 13814m | -6.2m/s | -52.6°C | 1% | 151.6hPa | 2.5V | 08:04:32 | 02:32:04 | 00:00:00 | |
| HSKMA3-T | 2026-09-05 01:50:57 | 51.95412 | 7.49262 | 86° | 115km/h | 13826m | -5.9m/s | -52.6°C | 0.9% | 151.2hPa | 2.5V | 08:04:32 | 02:32:02 | 00:00:00 | |
| BIOWL1-15 | 2026-09-05 01:50:55 | 51.95408 | 7.49169 | 85° | 115km/h | 13838m | -5.8m/s | -52.6°C | 0.8% | 151hPa | 2.6V | 08:04:32 | 02:32:00 | 00:00:00 | |
| DO2JMG | 2026-09-05 01:50:53 | 51.95403 | 7.49073 | 85° | 119km/h | 13850m | -5.7m/s | -52.6°C | 0.9% | 150.7hPa | 2.5V | 08:04:32 | 02:31:58 | 00:00:00 | |
| DL3AQ-11 | 2026-09-05 01:50:53 | 51.95400 | 7.49025 | 84° | 119km/h | 13856m | -5.8m/s | -52.5°C | 1.5% | 150.6hPa | 2.5V | 00:00:00 | 00:00:00 | 00:00:00 | |
| DM0DOS-11 | 2026-09-05 01:50:52 | 51.95389 | 7.48826 | 85° | 122km/h | 13880m | -5.6m/s | -52.3°C | 3.9% | 150.1hPa | 2.5V | 08:03:57 | 02:31:53 | 00:00:00 | |
| DL1XH-west | 2026-09-05 01:50:51 | 51.95397 | 7.48976 | 85° | 122km/h | 13862m | -6.2m/s | -52.5°C | 0.8% | 150.5hPa | 2.6V | 08:04:32 | 02:31:56 | 00:00:00 | |
| AA1-15 | 2026-09-05 01:50:48 | 51.95389 | 7.48826 | 85° | 122km/h | 13880m | -5.6m/s | -52.3°C | 0.8% | 150.1hPa | 2.5V | 08:04:32 | 02:31:53 | 00:00:00 | |
| BUE01 | 2026-09-05 01:50:46 | 51.95381 | 7.48676 | 85° | 120km/h | 13897m | -6.2m/s | -52.2°C | 1.5% | 149.6hPa | 2.6V | 00:00:00 | 00:00:00 | 00:00:00 | |
| GOEST3-10 | 2026-09-05 01:50:45 | 51.95381 | 7.48675 | 86° | 120km/h | 13897m | -6.2m/s | -52.1°C | 3.9% | 149.5hPa | 2.6V | 00:00:00 | 02:31:50 | 00:00:00 | |
| BIOWL1-15 | 2026-09-05 01:50:45 | 51.95381 | 7.48676 | 86° | 122km/h | 13897m | -6.2m/s | -52.2°C | 0.8% | 149.6hPa | 2.6V | 08:04:32 | 02:31:50 | 00:00:00 | |
| WEDDY | 2026-09-05 01:50:44 | 51.95381 | 7.48675 | 86° | 122km/h | 13897m | -6.2m/s | -52.2°C | 1.5% | 149.6hPa | 2.5V | 00:00:00 | 00:00:00 | 00:00:00 | |
| DM0DOS-11 | 2026-09-05 01:50:43 | 51.95365 | 7.48330 | 84° | 120km/h | 13938m | -5.5m/s | -52.2°C | 3.9% | 148.6hPa | 2.5V | 08:04:07 | 02:31:43 | 00:00:00 | |
| DO2JMG | 2026-09-05 01:50:42 | 51.95375 | 7.48527 | 86° | 120km/h | 13915m | -5.8m/s | -52.1°C | 0.7% | 149.2hPa | 2.5V | 08:04:32 | 02:31:47 | 00:00:00 | |
| DL1XH-west | 2026-09-05 01:50:41 | 51.95373 | 7.48478 | 86° | 120km/h | 13921m | -5.8m/s | -52.1°C | 0.7% | 149.1hPa | 2.5V | 08:04:32 | 02:31:46 | 00:00:00 | |
| AA1-15 | 2026-09-05 01:50:38 | 51.95365 | 7.48330 | 84° | 120km/h | 13938m | -5.6m/s | -52.2°C | 0.7% | 148.6hPa | 2.5V | 08:04:32 | 02:31:43 | 00:00:00 | |
| BIOWL1-15 | 2026-09-05 01:50:36 | 51.95350 | 7.48131 | 83° | 124km/h | 13961m | -6.2m/s | -52.4°C | 0.7% | 148.1hPa | 2.6V | 08:04:32 | 02:31:39 | 00:00:00 | |
| DO2JMG | 2026-09-05 01:50:32 | 51.95342 | 7.48030 | 83° | 124km/h | 13973m | -5.8m/s | -52.5°C | 0.7% | 147.8hPa | 2.5V | 08:04:32 | 02:31:37 | 00:00:00 | |
| DL1XH-west | 2026-09-05 01:50:30 | 51.95335 | 7.47929 | 84° | 126km/h | 13985m | -5.7m/s | -52.6°C | 0.7% | 147.6hPa | 2.5V | 08:04:32 | 02:31:35 | 00:00:00 | |
| HSKMA3-T | 2026-09-05 01:50:28 | 51.95330 | 7.47826 | 85° | 126km/h | 13997m | -6.4m/s | -52.7°C | 0.7% | 147.3hPa | 2.6V | 08:04:32 | 02:31:33 | 00:00:00 | |
| BIOWL1-15 | 2026-09-05 01:50:28 | 51.95319 | 7.47618 | 86° | 128km/h | 14021m | -6m/s | -52.8°C | 0.7% | 146.8hPa | 2.5V | 08:04:32 | 02:31:29 | 00:00:00 | |
| DJ2KF-10 | 2026-09-05 01:50:28 | 51.95330 | 7.47826 | 86° | 131km/h | 13998m | -6.4m/s | -52.6°C | 4.0% | 147.2hPa | 2.6V | 00:00:00 | 02:31:33 | 00:00:00 | |
| DL1XH-15 | 2026-09-05 01:50:27 | 51.95317 | 7.47566 | 85° | 128km/h | 14027m | -6.1m/s | -52.8°C | 4% | 146.7hPa | 2.6V | 08:04:22 | 02:31:28 | 00:00:00 | |
| AA1-15 | 2026-09-05 01:50:27 | 51.95327 | 7.47775 | 85° | 128km/h | 14003m | -5.7m/s | -52.7°C | 0.8% | 147.2hPa | 2.5V | 08:04:32 | 02:31:32 | 00:00:00 | |
| DO2JMG | 2026-09-05 01:50:21 | 51.95312 | 7.47461 | 86° | 128km/h | 14039m | -5.9m/s | -52.8°C | 0.8% | 146.4hPa | 2.5V | 08:04:32 | 02:31:26 | 00:00:00 | |
| DL1XH-west | 2026-09-05 01:50:19 | 51.95307 | 7.47358 | 85° | 126km/h | 14051m | -5.8m/s | -52.9°C | 0.7% | 146.1hPa | 2.5V | 08:04:32 | 02:31:24 | 00:00:00 | |
| HSKMA3-T | 2026-09-05 01:50:18 | 51.95304 | 7.47307 | 85° | 126km/h | 14057m | -6.3m/s | -52.9°C | 0.8% | 145.9hPa | 2.6V | 08:04:32 | 02:31:23 | 00:00:00 | |
| AA1-15 | 2026-09-05 01:50:16 | 51.95299 | 7.47203 | 85° | 128km/h | 14069m | -6m/s | -53°C | 0.8% | 145.7hPa | 2.5V | 08:04:32 | 02:31:21 | 00:00:00 | |
| BIOWL1-15 | 2026-09-05 01:50:13 | 51.95290 | 7.47043 | 86° | 133km/h | 14087m | -5.8m/s | -53°C | 0.7% | 145.3hPa | 2.5V | 08:04:32 | 02:31:18 | 00:00:00 | |
| DK5PH-5 | 2026-09-05 01:50:13 | 51.95290 | 7.47043 | 86° | 135km/h | 14087m | -5.8m/s | -53.0°C | 4.0% | 145.2hPa | 2.5V | 00:00:00 | 02:31:18 | 00:00:00 | |
| DM0DOS-11 | 2026-09-05 01:50:11 | 51.95280 | 7.46766 | 87° | 137km/h | 14116m | -6.3m/s | -53.1°C | 4% | 144.6hPa | 2.5V | 08:04:37 | 02:31:13 | 00:00:00 | |
| DO2JMG | 2026-09-05 01:50:10 | 51.95284 | 7.46878 | 87° | 137km/h | 14104m | -6.2m/s | -53.1°C | 0.7% | 144.9hPa | 2.5V | 08:05:23 | 02:31:15 | 00:00:00 | |
| DL1XH-west | 2026-09-05 01:50:09 | 51.95282 | 7.46822 | 87° | 137km/h | 14110m | -6m/s | -53.1°C | 0.7% | 144.7hPa | 2.5V | 08:05:23 | 02:31:14 | 00:00:00 | |
| DB0UT-7 | 2026-09-05 01:50:09 | 51.95282 | 7.46822 | 87° | 135km/h | 14110m | -5.9m/s | -53.1°C | 4.0% | 144.7hPa | 2.5V | 00:00:00 | 02:31:14 | 00:00:00 | |
| DF2AP-13 | 2026-09-05 01:50:08 | 51.95280 | 7.46766 | 88° | 135km/h | 14117m | -6.2m/s | -53.1°C | 4.0% | 144.6hPa | 2.5V | 08:04:00 | 02:31:13 | 00:00:00 | |
| DL1XH-15 | 2026-09-05 01:50:07 | 51.95272 | 7.46490 | 86° | 133km/h | 14146m | -5.9m/s | -53.3°C | 4% | 144hPa | 2.5V | 08:04:42 | 02:31:08 | 00:00:00 | |
| HSKMA3-T | 2026-09-05 01:50:07 | 51.95279 | 7.46710 | 87° | 137km/h | 14122m | -6m/s | -53.2°C | 0.7% | 144.5hPa | 2.6V | 08:06:14 | 02:31:12 | 00:00:00 | |
| AA1-15 | 2026-09-05 01:50:05 | 51.95275 | 7.46599 | 87° | 133km/h | 14134m | -5.7m/s | -53.2°C | 0.8% | 144.2hPa | 2.5V | 08:05:23 | 02:31:10 | 00:00:00 | |
| BIOWL1-15 | 2026-09-05 01:50:03 | 51.95272 | 7.46490 | 87° | 133km/h | 14146m | -5.9m/s | -53.3°C | 0.7% | 144hPa | 2.5V | 08:05:23 | 02:31:08 | 00:00:00 | |
| EDDB2-12 | 2026-09-05 01:50:03 | 51.95271 | 7.46435 | 87° | 135km/h | 14152m | -5.9m/s | -53.3°C | 1.5% | 143.8hPa | 2.5V | 00:00:00 | 00:00:00 | 00:00:00 | |
| DL3AQ-11 | 2026-09-05 01:50:02 | 51.95269 | 7.46380 | 87° | 135km/h | 14158m | -6.3m/s | -53.3°C | 1.5% | 143.7hPa | 2.5V | 00:00:00 | 00:00:00 | 00:00:00 | |
| DM0DOS-11 | 2026-09-05 01:50:01 | 51.95265 | 7.46212 | 88° | 137km/h | 14176m | -6m/s | -53.4°C | 4.1% | 143.3hPa | 2.5V | 08:04:47 | 02:31:03 | 00:00:00 | |
| DO2JMG | 2026-09-05 01:49:59 | 51.95266 | 7.46268 | 88° | 137km/h | 14170m | -5.7m/s | -53.4°C | 0.8% | 143.4hPa | 2.5V | 08:05:23 | 02:31:04 | 00:00:00 | |
| DL1XH-west | 2026-09-05 01:49:58 | 51.95265 | 7.46212 | 88° | 139km/h | 14176m | -6m/s | -53.4°C | 0.8% | 143.3hPa | 2.5V | 08:05:23 | 02:31:03 | 00:00:00 | |
| HSKMA3-T | 2026-09-05 01:49:57 | 51.95264 | 7.46156 | 88° | 139km/h | 14181m | -5.9m/s | -53.4°C | 0.8% | 143.2hPa | 2.5V | 08:06:14 | 02:31:02 | 00:00:00 | |
| AA1-15 | 2026-09-05 01:49:55 | 51.95262 | 7.46043 | 89° | 139km/h | 14194m | -5.5m/s | -53.4°C | 0.8% | 142.9hPa | 2.6V | 08:05:23 | 02:31:00 | 00:00:00 | |
| BIOWL1-15 | 2026-09-05 01:49:52 | 51.95260 | 7.45873 | 89° | 137km/h | 14211m | -5.9m/s | -53.4°C | 0.8% | 142.5hPa | 2.5V | 08:05:23 | 02:30:57 | 00:00:00 | |
| DO2JMG | 2026-09-05 01:49:49 | 51.95259 | 7.45708 | 89° | 131km/h | 14229m | -5.9m/s | -53.5°C | 0.8% | 142.1hPa | 2.6V | 08:05:23 | 02:30:54 | 00:00:00 | |
| HSKMA3-T | 2026-09-05 01:49:47 | 51.95258 | 7.45602 | 89° | 130km/h | 14240m | -5.9m/s | -53.6°C | 0.8% | 141.9hPa | 2.5V | 08:06:14 | 02:30:52 | 00:00:00 | |
| DL3AQ-11 | 2026-09-05 01:49:46 | 51.95257 | 7.45497 | 89° | 126km/h | 14252m | -6.0m/s | -53.6°C | 1.5% | 141.6hPa | 2.6V | 00:00:00 | 00:00:00 | 00:00:00 | |
| AA1-15 | 2026-09-05 01:49:44 | 51.95257 | 7.45445 | 90° | 128km/h | 14258m | -6m/s | -53.7°C | 0.8% | 141.5hPa | 2.6V | 08:05:23 | 02:30:49 | 00:00:00 | |
| BUE01 | 2026-09-05 01:49:44 | 51.95257 | 7.45392 | 90° | 130km/h | 14264m | -5.9m/s | -53.7°C | 1.5% | 141.3hPa | 2.6V | 00:00:00 | 00:00:00 | 00:00:00 | |
| DD1CC8 | 2026-09-05 01:49:43 | 51.95257 | 7.45392 | 90° | 130km/h | 14264m | -5.9m/s | -53.7°C | 1.5% | 141.3hPa | 2.6V | 00:00:00 | 00:00:00 | 00:00:00 | |
| DK5PH-5 | 2026-09-05 01:49:42 | 51.95257 | 7.45338 | 91° | 135km/h | 14270m | -5.5m/s | -53.7°C | 4.2% | 141.1hPa | 2.6V | 00:00:00 | 02:30:47 | 00:00:00 | |
| DM0DOS-11 | 2026-09-05 01:49:41 | 51.95262 | 7.45118 | 92° | 137km/h | 14293m | -6.2m/s | -53.8°C | 4.2% | 140.7hPa | 2.6V | 08:05:07 | 02:30:43 | 00:00:00 | |
| BIOWL1-15 | 2026-09-05 01:49:41 | 51.95258 | 7.45284 | 92° | 133km/h | 14275m | -6.1m/s | -53.8°C | 0.9% | 141.1hPa | 2.5V | 08:05:23 | 02:30:46 | 00:00:00 | |
| DO2JMG | 2026-09-05 01:49:38 | 51.95262 | 7.45118 | 93° | 137km/h | 14293m | -6.2m/s | -53.8°C | 0.8% | 140.7hPa | 2.6V | 08:05:23 | 02:30:43 | 00:00:00 | |
| DO9LL-15 | 2026-09-05 01:49:38 | 51.95262 | 7.45118 | 93° | 131km/h | 14293m | -6.1m/s | -53.8°C | 4.2% | 140.6hPa | 2.6V | 08:05:00 | 02:30:43 | 00:00:00 | |
| DL1XH-15 | 2026-09-05 01:49:37 | 51.95271 | 7.44837 | 93° | 137km/h | 14323m | -6.3m/s | -53.8°C | 4.2% | 140hPa | 2.6V | 08:05:12 | 02:30:38 | 00:00:00 | |
| HSKMA3-T | 2026-09-05 01:49:36 | 51.95265 | 7.45006 | 93° | 139km/h | 14305m | -5.9m/s | -53.8°C | 0.8% | 140.4hPa | 2.5V | 08:06:14 | 02:30:41 | 00:00:00 | |
| AA1-15 | 2026-09-05 01:49:33 | 51.95271 | 7.44837 | 94° | 137km/h | 14323m | -6.3m/s | -53.8°C | 0.8% | 140hPa | 2.6V | 08:05:23 | 02:30:38 | 00:00:00 | |
| DL3AQ-11 | 2026-09-05 01:49:33 | 51.95273 | 7.44782 | 94° | 135km/h | 14328m | -5.7m/s | -53.8°C | 1.5% | 139.9hPa | 2.6V | 00:00:00 | 00:00:00 | 00:00:00 | |
| EDDB2-12 | 2026-09-05 01:49:32 | 51.95276 | 7.44727 | 94° | 133km/h | 14334m | -5.8m/s | -53.8°C | 1.5% | 139.8hPa | 2.6V | 00:00:00 | 00:00:00 | 00:00:00 | |
| DM0DOS-11 | 2026-09-05 01:49:31 | 51.95284 | 7.44565 | 94° | 131km/h | 14352m | -5.9m/s | -53.7°C | 4.2% | 139.4hPa | 2.6V | 08:05:17 | 02:30:33 | 00:00:00 | |
| BIOWL1-15 | 2026-09-05 01:49:30 | 51.95278 | 7.44672 | 95° | 133km/h | 14340m | -6.1m/s | -53.8°C | 0.8% | 139.7hPa | 2.5V | 08:05:23 | 02:30:35 | 00:00:00 | |
| DC4HF-4 | 2026-09-05 01:49:29 | 51.95284 | 7.44565 | 94° | 131km/h | 14352m | -5.9m/s | -53.7°C | 1.5% | 139.4hPa | 2.6V | 00:00:00 | 00:00:00 | 00:00:00 | |
| DJ2KF-10 | 2026-09-05 01:49:28 | 51.95284 | 7.44564 | 95° | 131km/h | 14352m | -5.8m/s | -53.6°C | 4.2% | 139.4hPa | 2.6V | 00:00:00 | 02:30:33 | 00:00:00 | |
| DO2JMG | 2026-09-05 01:49:28 | 51.95284 | 7.44565 | 95° | 131km/h | 14352m | -5.9m/s | -53.7°C | 0.8% | 139.4hPa | 2.6V | 08:05:23 | 02:30:33 | 00:00:00 | |
| DL1XH-15 | 2026-09-05 01:49:27 | 51.95300 | 7.44300 | 95° | 130km/h | 14381m | -5.9m/s | -53.5°C | 4.1% | 138.8hPa | 2.6V | 08:05:22 | 02:30:28 | 00:00:00 | |
| HSKMA3-T | 2026-09-05 01:49:26 | 51.95290 | 7.44458 | 96° | 130km/h | 14363m | -5.8m/s | -53.6°C | 0.7% | 139.2hPa | 2.5V | 08:06:14 | 02:30:31 | 00:00:00 | |
| DL1XH-west | 2026-09-05 01:49:25 | 51.95293 | 7.44405 | 96° | 130km/h | 14369m | -5.6m/s | -53.6°C | 0.8% | 139hPa | 2.5V | 08:05:23 | 02:30:30 | 00:00:00 | |
| AA1-15 | 2026-09-05 01:49:22 | 51.95303 | 7.44246 | 96° | 131km/h | 14387m | -5.9m/s | -53.5°C | 0.7% | 138.7hPa | 2.6V | 08:05:23 | 02:30:27 | 00:00:00 | |
| BIOWL1-15 | 2026-09-05 01:49:20 | 51.95309 | 7.44138 | 96° | 133km/h | 14399m | -5.7m/s | -53.4°C | 0.7% | 138.4hPa | 2.5V | 08:06:14 | 02:30:25 | 00:00:00 | |
| DO2JMG | 2026-09-05 01:49:17 | 51.95321 | 7.43975 | 97° | 135km/h | 14416m | -6m/s | -53.4°C | 0.7% | 138.1hPa | 2.6V | 08:06:14 | 02:30:22 | 00:00:00 | |
| DL1XH-west | 2026-09-05 01:49:14 | 51.95335 | 7.43814 | 99° | 131km/h | 14433m | -5.7m/s | -53.5°C | 0.6% | 137.7hPa | 2.5V | 08:06:14 | 02:30:19 | 00:00:00 | |
| HSKMA3-T | 2026-09-05 01:49:11 | 51.95350 | 7.43656 | 99° | 130km/h | 14451m | -6.3m/s | -53.5°C | 0.7% | 137.3hPa | 2.6V | 08:06:14 | 02:30:16 | 00:00:00 | |
| BIOWL1-15 | 2026-09-05 01:49:09 | 51.95359 | 7.43551 | 98° | 130km/h | 14463m | -5.9m/s | -53.5°C | 0.6% | 137hPa | 2.5V | 08:06:14 | 02:30:14 | 00:00:00 | |
| DB0UT-7 | 2026-09-05 01:49:09 | 51.95359 | 7.43551 | 99° | 126km/h | 14464m | -5.8m/s | -53.5°C | 4.0% | 137.0hPa | 2.5V | 00:00:00 | 02:30:14 | 00:00:00 | |
| DF2AP-13 | 2026-09-05 01:49:08 | 51.95364 | 7.43499 | 99° | 126km/h | 14469m | -5.7m/s | -53.5°C | 4.1% | 136.8hPa | 2.5V | 00:00:00 | 02:30:13 | 00:00:00 | |
| DL1XH-15 | 2026-09-05 01:49:07 | 51.95390 | 7.43231 | 99° | 131km/h | 14498m | -5.7m/s | -53.5°C | 4.1% | 136.3hPa | 2.5V | 08:05:42 | 02:30:08 | 00:00:00 | |
| DO2JMG | 2026-09-05 01:49:06 | 51.95375 | 7.43393 | 99° | 133km/h | 14481m | -5.7m/s | -53.5°C | 0.6% | 136.7hPa | 2.6V | 08:06:14 | 02:30:11 | 00:00:00 | |
| DL1XH-west | 2026-09-05 01:49:03 | 51.95390 | 7.43231 | 100° | 131km/h | 14498m | -5.7m/s | -53.5°C | 0.6% | 136.3hPa | 2.5V | 08:06:14 | 02:30:08 | 00:00:00 | |
| DO9LL-15 | 2026-09-05 01:49:02 | 51.95396 | 7.43178 | 100° | 120km/h | 14504m | -5.6m/s | -53.5°C | 4.1% | 136.1hPa | 2.5V | 00:00:00 | 02:30:07 | 00:00:00 | |
| DM0DOS-11 | 2026-09-05 01:49:01 | 51.95419 | 7.42968 | 100° | 130km/h | 14527m | -5.4m/s | -53.6°C | 4.2% | 135.7hPa | 2.5V | 08:05:47 | 02:30:03 | 00:00:00 | |
| HSKMA3-T | 2026-09-05 01:49:01 | 51.95401 | 7.43125 | 100° | 131km/h | 14509m | -6.1m/s | -53.6°C | 0.7% | 136.1hPa | 2.6V | 08:06:14 | 02:30:06 | 00:00:00 | |
| BIOWL1-15 | 2026-09-05 01:48:58 | 51.95419 | 7.42968 | 101° | 130km/h | 14527m | -5.4m/s | -53.6°C | 0.7% | 135.7hPa | 2.5V | 08:06:14 | 02:30:03 | 00:00:00 | |
| DL4XJ-10 | 2026-09-05 01:48:58 | 51.95419 | 7.42968 | 101° | 122km/h | 14527m | -5.4m/s | -53.6°C | 0% | 0hPa | 2.5V | 00:00:00 | 00:00:00 | 00:00:00 | |
| DL1XH-15 | 2026-09-05 01:48:57 | 51.95451 | 7.42709 | 100° | 128km/h | 14555m | -5.6m/s | -53.5°C | 4.1% | 135.1hPa | 2.5V | 08:05:52 | 02:29:58 | 00:00:00 | |
| DO2JMG | 2026-09-05 01:48:56 | 51.95432 | 7.42864 | 102° | 130km/h | 14538m | -6.1m/s | -53.5°C | 0.7% | 135.4hPa | 2.5V | 08:06:14 | 02:30:01 | 00:00:00 | |
| DL1XH-west | 2026-09-05 01:48:53 | 51.95451 | 7.42709 | 101° | 128km/h | 14555m | -5.6m/s | -53.5°C | 0.6% | 135.1hPa | 2.5V | 08:06:14 | 02:29:58 | 00:00:00 | |
| DK5PH-5 | 2026-09-05 01:48:52 | 51.95457 | 7.42658 | 100° | 113km/h | 14561m | -5.7m/s | -53.4°C | 4.1% | 134.9hPa | 2.5V | 08:05:00 | 02:29:57 | 00:00:00 | |
| DM0DOS-11 | 2026-09-05 01:48:51 | 51.95475 | 7.42461 | 97° | 120km/h | 14584m | -6.6m/s | -53.3°C | 4.1% | 134.5hPa | 2.5V | 08:05:57 | 02:29:53 | 00:00:00 | |
| AA1-15 | 2026-09-05 01:48:50 | 51.95467 | 7.42559 | 98° | 120km/h | 14572m | -6m/s | -53.4°C | 0.6% | 134.7hPa | 2.6V | 08:06:14 | 02:29:55 | 00:00:00 | |
| DO3DL | 2026-09-05 01:48:49 | 51.95467 | 7.42559 | 99° | 120km/h | 14572m | -6.0m/s | -53.4°C | 1.4% | 134.7hPa | 2.6V | 08:06:00 | 00:00:00 | 00:00:00 | |
| DL1XH-15 | 2026-09-05 01:48:47 | 51.95502 | 7.42220 | 100° | 119km/h | 14612m | -5.3m/s | -52.7°C | 3.9% | 133.9hPa | 2.6V | 08:06:02 | 02:29:48 | 00:00:00 | |
| BIOWL1-15 | 2026-09-05 01:48:47 | 51.95480 | 7.42412 | 99° | 120km/h | 14590m | -5.7m/s | -53.2°C | 0.6% | 134.3hPa | 2.5V | 08:06:14 | 02:29:52 | 00:00:00 | |
| DO2JMG | 2026-09-05 01:48:45 | 51.95490 | 7.42315 | 101° | 119km/h | 14601m | -5.5m/s | -52.7°C | 0.5% | 134.1hPa | 2.5V | 08:06:14 | 02:29:50 | 00:00:00 | |
| DL1XH-west | 2026-09-05 01:48:42 | 51.95508 | 7.42173 | 102° | 117km/h | 14618m | -5.5m/s | -52.6°C | 0.4% | 133.7hPa | 2.5V | 08:06:14 | 02:29:47 | 00:00:00 | |
| BUE01 | 2026-09-05 01:48:42 | 51.95514 | 7.42126 | 101° | 115km/h | 14624m | -5.9m/s | -52.6°C | 1.3% | 133.7hPa | 2.6V | 00:00:00 | 00:00:00 | 00:00:00 | |
| DM0DOS-11 | 2026-09-05 01:48:41 | 51.95531 | 7.41989 | 102° | 113km/h | 14641m | -5.8m/s | -52.1°C | 3.7% | 133.3hPa | 2.6V | 08:06:07 | 02:29:43 | 00:00:00 | |
| HSKMA3-T | 2026-09-05 01:48:40 | 51.95519 | 7.42079 | 102° | 115km/h | 14629m | -5.6m/s | -52.4°C | 0.4% | 133.6hPa | 2.5V | 08:06:14 | 02:29:45 | 00:00:00 | |
| AA1-15 | 2026-09-05 01:48:39 | 51.95526 | 7.42034 | 102° | 113km/h | 14635m | -6m/s | -52.3°C | 0.4% | 133.5hPa | 2.6V | 08:06:14 | 02:29:44 | 00:00:00 | |
| BIOWL1-15 | 2026-09-05 01:48:37 | 51.95537 | 7.41944 | 101° | 111km/h | 14647m | -5.4m/s | -52°C | 0.3% | 133.2hPa | 2.5V | 08:06:14 | 02:29:42 | 00:00:00 | |
| DO2JMG | 2026-09-05 01:48:34 | 51.95552 | 7.41810 | 99° | 110km/h | 14663m | -5.5m/s | -51.9°C | 0.2% | 132.9hPa | 2.5V | 08:06:14 | 02:29:39 | 00:00:00 | |
| DL1XH-west | 2026-09-05 01:48:31 | 51.95563 | 7.41679 | 97° | 106km/h | 14679m | -5.1m/s | -51.9°C | 0.3% | 132.5hPa | 2.5V | 08:06:14 | 02:29:36 | 00:00:00 | |
| AA1-15 | 2026-09-05 01:48:29 | 51.95569 | 7.41593 | 96° | 106km/h | 14688m | -4.7m/s | -51.9°C | 0.3% | 132.3hPa | 2.5V | 08:07:05 | 02:29:34 | 00:00:00 | |
| BIOWL1-15 | 2026-09-05 01:48:28 | 51.95578 | 7.41464 | 98° | 106km/h | 14706m | -5.9m/s | -52°C | 0.3% | 132hPa | 2.5V | 08:07:05 | 02:29:31 | 00:00:00 | |
| DL1XH-15 | 2026-09-05 01:48:27 | 51.95591 | 7.41333 | 99° | 110km/h | 14722m | -6.3m/s | -52°C | 3.7% | 131.6hPa | 2.5V | 08:06:22 | 02:29:28 | 00:00:00 | |
| DO2JMG | 2026-09-05 01:48:24 | 51.95586 | 7.41377 | 100° | 108km/h | 14717m | -5.4m/s | -52°C | 0.3% | 131.8hPa | 2.5V | 08:07:05 | 02:29:29 | 00:00:00 | |
| AU51GT2 | 2026-09-05 01:48:23 | 51.95590 | 7.41333 | 99° | 108km/h | 14722m | -6.3m/s | -52.0°C | 1.2% | 131.6hPa | 2.5V | 00:00:00 | 00:00:00 | 00:00:00 | |
| DL1CLM-18 | 2026-09-05 01:48:22 | 51.95590 | 7.41333 | 101° | 110km/h | 14722m | -6.3m/s | -52.0°C | 1.2% | 131.6hPa | 2.5V | 08:07:00 | 00:00:00 | 00:00:00 | |
| DM0DOS-11 | 2026-09-05 01:48:21 | 51.95610 | 7.41114 | 94° | 108km/h | 14754m | -5.6m/s | -52.1°C | 3.7% | 131.1hPa | 2.5V | 08:06:27 | 02:29:23 | 00:00:00 | |
| DL1XH-west | 2026-09-05 01:48:20 | 51.95604 | 7.41202 | 98° | 108km/h | 14742m | -6.3m/s | -52.1°C | 0.3% | 131.3hPa | 2.5V | 08:07:05 | 02:29:25 | 00:00:00 | |
| HSKMA3-T | 2026-09-05 01:48:18 | 51.95610 | 7.41114 | 95° | 108km/h | 14754m | -5.6m/s | -52.1°C | 0.3% | 131.1hPa | 2.5V | 08:07:05 | 02:29:23 | 00:00:00 | |
| BIOWL1-15 | 2026-09-05 01:48:15 | 51.95614 | 7.40986 | 92° | 102km/h | 14771m | -5.5m/s | -52.2°C | 0.3% | 130.7hPa | 2.5V | 08:07:05 | 02:29:20 | 00:00:00 | |
| AA1-15 | 2026-09-05 01:48:14 | 51.95615 | 7.40945 | 91° | 99km/h | 14776m | -5.2m/s | -52.3°C | 0.3% | 130.6hPa | 2.5V | 08:07:05 | 02:29:19 | 00:00:00 | |
| DO2JMG | 2026-09-05 01:48:13 | 51.95616 | 7.40905 | 91° | 99km/h | 14782m | -5.8m/s | -52.3°C | 0.3% | 130.4hPa | 2.5V | 08:07:05 | 02:29:18 | 00:00:00 | |
| DL1XH-west | 2026-09-05 01:48:09 | 51.95617 | 7.40747 | 91° | 95km/h | 14805m | -5.4m/s | -52.3°C | 0.3% | 129.9hPa | 2.5V | 08:07:05 | 02:29:14 | 00:00:00 | |
| HSKMA3-T | 2026-09-05 01:48:07 | 51.95618 | 7.40669 | 91° | 97km/h | 14816m | -5.8m/s | -52.4°C | 0.4% | 129.8hPa | 2.5V | 08:07:05 | 02:29:12 | 00:00:00 | |
| AA1-15 | 2026-09-05 01:48:04 | 51.95619 | 7.40548 | 90° | 97km/h | 14834m | -5.8m/s | -52.4°C | 0.3% | 129.4hPa | 2.5V | 08:07:05 | 02:29:09 | 00:00:00 | |
| DO2JMG | 2026-09-05 01:48:02 | 51.95619 | 7.40470 | 90° | 95km/h | 14845m | -5.1m/s | -52.3°C | 0.3% | 129.2hPa | 2.5V | 08:07:05 | 02:29:07 | 00:00:00 | |
| DL1XH-west | 2026-09-05 01:47:58 | 51.95617 | 7.40316 | 88° | 93km/h | 14866m | -5.3m/s | -52.1°C | 0.3% | 128.8hPa | 2.5V | 08:07:05 | 02:29:03 | 00:00:00 | |
| HSKMA3-T | 2026-09-05 01:47:57 | 51.95616 | 7.40278 | 88° | 93km/h | 14871m | -5.6m/s | -52.1°C | 0.3% | 128.7hPa | 2.5V | 08:07:05 | 02:29:02 | 00:00:00 | |
| BIOWL1-15 | 2026-09-05 01:47:54 | 51.95615 | 7.40162 | 90° | 95km/h | 14889m | -5.4m/s | -52°C | 0.3% | 128.3hPa | 2.6V | 08:07:05 | 02:28:59 | 00:00:00 | |
| AA1-15 | 2026-09-05 01:47:53 | 51.95615 | 7.40123 | 91° | 93km/h | 14894m | -5.4m/s | -52.1°C | 0.3% | 128.2hPa | 2.5V | 08:07:05 | 02:28:58 | 00:00:00 | |
| DO2JMG | 2026-09-05 01:47:51 | 51.95617 | 7.40048 | 92° | 91km/h | 14905m | -5.7m/s | -52.1°C | 0.3% | 128hPa | 2.5V | 08:07:05 | 02:28:56 | 00:00:00 | |
| DL1XH-west | 2026-09-05 01:47:48 | 51.95619 | 7.39937 | 91° | 91km/h | 14922m | -5.6m/s | -52.2°C | 0.4% | 127.6hPa | 2.6V | 08:07:05 | 02:28:53 | 00:00:00 | |
| DL1XH-15 | 2026-09-05 01:47:47 | 51.95617 | 7.39745 | 87° | 97km/h | 14950m | -5.7m/s | -52.4°C | 3.6% | 127.1hPa | 2.6V | 08:07:02 | 02:28:48 | 00:00:00 | |
| BIOWL1-15 | 2026-09-05 01:47:47 | 51.95617 | 7.39745 | 88° | 97km/h | 14950m | -5.7m/s | -52.4°C | 0.3% | 127.1hPa | 2.6V | 08:07:05 | 02:28:48 | 00:00:00 | |
| HSKMA3-T | 2026-09-05 01:47:46 | 51.95619 | 7.39863 | 89° | 93km/h | 14933m | -5.7m/s | -52.3°C | 0.3% | 127.4hPa | 2.5V | 08:07:05 | 02:28:51 | 00:00:00 | |
| DL3AQ-11 | 2026-09-05 01:47:46 | 51.95619 | 7.39824 | 87° | 95km/h | 14939m | -5.9m/s | -52.3°C | 1.2% | 127.3hPa | 2.5V | 00:00:00 | 00:00:00 | 00:00:00 | |
| AA1-15 | 2026-09-05 01:47:42 | 51.95616 | 7.39705 | 88° | 99km/h | 14956m | -5.8m/s | -52.4°C | 0.3% | 127hPa | 2.5V | 08:07:05 | 02:28:47 | 00:00:00 | |
| DO2JMG | 2026-09-05 01:47:40 | 51.95614 | 7.39625 | 88° | 99km/h | 14967m | -5.5m/s | -52.5°C | 0.3% | 126.7hPa | 2.5V | 08:07:05 | 02:28:45 | 00:00:00 | |
| DL1XH-west | 2026-09-05 01:47:38 | 51.95613 | 7.39544 | 90° | 97km/h | 14978m | -5.5m/s | -52.5°C | 0.4% | 126.5hPa | 2.6V | 08:07:56 | 02:28:43 | 00:00:00 | |
| DF2AP-13 | 2026-09-05 01:47:38 | 51.95613 | 7.39544 | 91° | 99km/h | 14978m | -5.5m/s | -52.5°C | 3.7% | 126.5hPa | 2.6V | 00:00:00 | 02:28:43 | 00:00:00 | |
| DL1XH-15 | 2026-09-05 01:47:37 | 51.95617 | 7.39349 | 92° | 95km/h | 15007m | -6.6m/s | -52.6°C | 3.7% | 126hPa | 2.6V | 08:07:12 | 02:28:38 | 00:00:00 | |
| HSKMA3-T | 2026-09-05 01:47:36 | 51.95614 | 7.39466 | 92° | 95km/h | 14989m | -5.6m/s | -52.6°C | 0.4% | 126.3hPa | 2.5V | 08:07:56 | 02:28:41 | 00:00:00 | |
| BIOWL1-15 | 2026-09-05 01:47:33 | 51.95617 | 7.39349 | 93° | 95km/h | 15007m | -6.6m/s | -52.6°C | 0.3% | 126hPa | 2.6V | 08:07:56 | 02:28:38 | 00:00:00 | |
| AA1-15 | 2026-09-05 01:47:31 | 51.95619 | 7.39272 | 91° | 95km/h | 15019m | -6m/s | -52.6°C | 0.3% | 125.8hPa | 2.5V | 08:07:56 | 02:28:36 | 00:00:00 | |
| DM0DOS-11 | 2026-09-05 01:47:30 | 51.95617 | 7.39154 | 87° | 97km/h | 15037m | -5.4m/s | -52.7°C | 3.7% | 125.4hPa | 2.5V | 08:07:17 | 02:28:33 | 00:00:00 | |
| DO2JMG | 2026-09-05 01:47:29 | 51.95618 | 7.39194 | 88° | 97km/h | 15031m | -6m/s | -52.7°C | 0.3% | 125.5hPa | 2.5V | 08:07:56 | 02:28:34 | 00:00:00 | |
| DL1ZP-14 | 2026-09-05 01:47:29 | 51.95618 | 7.39194 | 87° | 97km/h | 15031m | -6.0m/s | -52.7°C | 1.2% | 125.5hPa | 2.5V | 00:00:00 | 00:00:00 | 00:00:00 | |
| DJ2KF-10 | 2026-09-05 01:47:28 | 51.95617 | 7.39154 | 88° | 99km/h | 15037m | -5.4m/s | -52.7°C | 3.7% | 125.4hPa | 2.5V | 00:00:00 | 02:28:33 | 00:00:00 | |
| DL1XH-15 | 2026-09-05 01:47:27 | 51.95612 | 7.38948 | 89° | 104km/h | 15064m | -6m/s | -52.9°C | 3.7% | 124.8hPa | 2.5V | 08:07:22 | 02:28:28 | 00:00:00 | |
| DL1XH-west | 2026-09-05 01:47:27 | 51.95616 | 7.39114 | 88° | 99km/h | 15042m | -5.5m/s | -52.8°C | 0.3% | 125.3hPa | 2.6V | 08:07:56 | 02:28:32 | 00:00:00 | |
| HSKMA3-T | 2026-09-05 01:47:26 | 51.95615 | 7.39073 | 88° | 100km/h | 15047m | -5.4m/s | -52.8°C | 0.3% | 125.2hPa | 2.6V | 08:07:56 | 02:28:31 | 00:00:00 | |
| BIOWL1-15 | 2026-09-05 01:47:23 | 51.95612 | 7.38948 | 89° | 104km/h | 15064m | -6m/s | -52.9°C | 0.4% | 124.8hPa | 2.5V | 08:07:56 | 02:28:28 | 00:00:00 | |
| DL3AQ-11 | 2026-09-05 01:47:22 | 51.95613 | 7.38863 | 91° | 102km/h | 15075m | -5.9m/s | -53.0°C | 1.2% | 124.7hPa | 2.5V | 00:00:00 | 00:00:00 | 00:00:00 | |
| AU51GT2 | 2026-09-05 01:47:21 | 51.95613 | 7.38863 | 91° | 102km/h | 15075m | -5.9m/s | -53.0°C | 1.2% | 124.7hPa | 2.5V | 00:00:00 | 00:00:00 | 00:00:00 | |
| DM0DOS-11 | 2026-09-05 01:47:20 | 51.95615 | 7.38737 | 92° | 100km/h | 15093m | -6.1m/s | -53.2°C | 3.8% | 124.3hPa | 2.5V | 08:07:27 | 02:28:23 | 00:00:00 | |
| AA1-15 | 2026-09-05 01:47:20 | 51.95613 | 7.38821 | 91° | 102km/h | 15082m | -6.5m/s | -53.1°C | 0.4% | 124.5hPa | 2.5V | 08:07:56 | 02:28:25 | 00:00:00 | |
| DO2JMG | 2026-09-05 01:47:19 | 51.95614 | 7.38779 | 92° | 102km/h | 15088m | -5.9m/s | -53.1°C | 0.3% | 124.4hPa | 2.5V | 08:07:56 | 02:28:24 | 00:00:00 | |
| DL1XH-west | 2026-09-05 01:47:16 | 51.95618 | 7.38655 | 94° | 100km/h | 15105m | -6.4m/s | -53.3°C | 0.3% | 124hPa | 2.6V | 08:07:56 | 02:28:21 | 00:00:00 | |
| HSKMA3-T | 2026-09-05 01:47:15 | 51.95620 | 7.38615 | 95° | 99km/h | 15111m | -6.3m/s | -53.2°C | 0.4% | 123.9hPa | 2.6V | 08:07:56 | 02:28:20 | 00:00:00 | |
| BIOWL1-15 | 2026-09-05 01:47:12 | 51.95624 | 7.38496 | 92° | 95km/h | 15131m | -6.5m/s | -53.3°C | 0.4% | 123.5hPa | 2.5V | 08:07:56 | 02:28:17 | 00:00:00 | |
| AA1-15 | 2026-09-05 01:47:10 | 51.95625 | 7.38420 | 90° | 93km/h | 15143m | -6.6m/s | -53.4°C | 0.4% | 123.3hPa | 2.6V | 08:07:56 | 02:28:15 | 00:00:00 | |
| DO2JMG | 2026-09-05 01:47:09 | 51.95625 | 7.38382 | 89° | 93km/h | 15149m | -6.7m/s | -53.4°C | 0.4% | 123.2hPa | 2.5V | 08:07:56 | 02:28:14 | 00:00:00 | |
| DB0UT-7 | 2026-09-05 01:47:09 | 51.95625 | 7.38382 | 89° | 99km/h | 15149m | -6.6m/s | -53.3°C | 3.8% | 123.2hPa | 2.5V | 00:00:00 | 02:28:14 | 00:00:00 | |
| DD1CC8 | 2026-09-05 01:47:08 | 51.95624 | 7.38268 | 89° | 93km/h | 15169m | -6.5m/s | -53.6°C | 1.2% | 122.8hPa | 2.5V | 00:00:00 | 00:00:00 | 00:00:00 | |
| DL1XH-15 | 2026-09-05 01:47:07 | 51.95623 | 7.38151 | 91° | 97km/h | 15188m | -6.4m/s | -53.7°C | 3.9% | 122.5hPa | 2.5V | 08:07:42 | 02:28:08 | 00:00:00 | |
| DL1XH-west | 2026-09-05 01:47:05 | 51.95623 | 7.38229 | 89° | 95km/h | 15175m | -6.2m/s | -53.6°C | 0.4% | 122.7hPa | 2.6V | 08:07:56 | 02:28:10 | 00:00:00 | |
| HSKMA3-T | 2026-09-05 01:47:04 | 51.95623 | 7.38190 | 91° | 95km/h | 15182m | -6.7m/s | -53.7°C | 0.5% | 122.6hPa | 2.6V | 08:07:56 | 02:28:09 | 00:00:00 | |
| BIOWL1-15 | 2026-09-05 01:47:01 | 51.95625 | 7.38071 | 91° | 99km/h | 15201m | -5.8m/s | -53.8°C | 0.5% | 122.3hPa | 2.5V | 08:07:56 | 02:28:06 | 00:00:00 | |
| AA1-15 | 2026-09-05 01:46:59 | 51.95626 | 7.37990 | 90° | 100km/h | 15213m | -6m/s | -53.8°C | 0.5% | 122hPa | 2.6V | 08:07:56 | 02:28:04 | 00:00:00 | |
| DO2JMG | 2026-09-05 01:46:58 | 51.95626 | 7.37949 | 90° | 100km/h | 15219m | -6.4m/s | -53.9°C | 0.6% | 121.9hPa | 2.5V | 08:07:56 | 02:28:03 | 00:00:00 | |
| DL1XH-west | 2026-09-05 01:46:54 | 51.95625 | 7.37783 | 90° | 102km/h | 15243m | -6.4m/s | -53.9°C | 0.5% | 121.5hPa | 2.6V | 08:07:56 | 02:27:59 | 00:00:00 | |
| HSKMA3-T | 2026-09-05 01:46:53 | 51.95626 | 7.37741 | 92° | 104km/h | 15249m | -6.3m/s | -53.9°C | 0.5% | 121.3hPa | 2.6V | 08:07:56 | 02:27:58 | 00:00:00 | |
| BIOWL1-15 | 2026-09-05 01:46:51 | 51.95628 | 7.37657 | 94° | 104km/h | 15262m | -6.6m/s | -54°C | 0.5% | 121.1hPa | 2.5V | 08:07:56 | 02:27:56 | 00:00:00 | |
| DM0DOS-11 | 2026-09-05 01:46:50 | 51.95635 | 7.37531 | 96° | 102km/h | 15282m | -6.5m/s | -54.1°C | 4.2% | 120.7hPa | 2.6V | 08:07:57 | 02:27:53 | 00:00:00 | |
| AA1-15 | 2026-09-05 01:46:49 | 51.95632 | 7.37573 | 97° | 102km/h | 15275m | -7.1m/s | -54.1°C | 0.5% | 120.8hPa | 2.6V | 08:07:56 | 02:27:54 | 00:00:00 | |
| DO2JMG | 2026-09-05 01:46:47 | 51.95639 | 7.37490 | 98° | 100km/h | 15288m | -6.3m/s | -54°C | 0.6% | 120.6hPa | 2.5V | 08:08:47 | 02:27:52 | 00:00:00 | |
| SONDE2-11 | 2026-09-05 01:46:46 | 51.95642 | 7.37449 | 97° | 99km/h | 15295m | -6.9m/s | -53.9°C | 1.3% | 120.5hPa | 2.6V | 00:00:00 | 00:00:00 | 00:00:00 | |
| DL1XH-west | 2026-09-05 01:46:43 | 51.95653 | 7.37329 | 99° | 97km/h | 15314m | -6.3m/s | -53.7°C | 0.5% | 120.1hPa | 2.6V | 08:08:47 | 02:27:48 | 00:00:00 | |
| DL3AQ-11 | 2026-09-05 01:46:42 | 51.95659 | 7.37251 | 96° | 95km/h | 15326m | -6.1m/s | -53.7°C | 1.3% | 119.9hPa | 2.6V | 00:00:00 | 00:00:00 | 00:00:00 | |
| DM0DOS-11 | 2026-09-05 01:46:40 | 51.95667 | 7.37136 | 96° | 95km/h | 15344m | -6m/s | -53.5°C | 4% | 119.5hPa | 2.6V | 08:08:07 | 02:27:43 | 00:00:00 | |
| BIOWL1-15 | 2026-09-05 01:46:40 | 51.95662 | 7.37213 | 97° | 95km/h | 15332m | -6.1m/s | -53.7°C | 0.5% | 119.8hPa | 2.5V | 08:08:47 | 02:27:45 | 00:00:00 | |
| AA1-15 | 2026-09-05 01:46:38 | 51.95667 | 7.37136 | 97° | 95km/h | 15345m | -6m/s | -53.5°C | 0.5% | 119.5hPa | 2.6V | 08:08:47 | 02:27:43 | 00:00:00 | |
| DL1XH-15 | 2026-09-05 01:46:37 | 51.95680 | 7.36943 | 98° | 95km/h | 15376m | -6.9m/s | -52.8°C | 3.7% | 118.9hPa | 2.5V | 08:08:12 | 02:27:38 | 00:00:00 | |
| DO2JMG | 2026-09-05 01:46:36 | 51.95672 | 7.37059 | 96° | 95km/h | 15357m | -6.5m/s | -53.2°C | 0.4% | 119.3hPa | 2.5V | 08:08:47 | 02:27:41 | 00:00:00 | |
| DL1XH-west | 2026-09-05 01:46:32 | 51.95684 | 7.36905 | 100° | 93km/h | 15383m | -6.3m/s | -52.6°C | 0.2% | 118.8hPa | 2.6V | 08:08:47 | 02:27:37 | 00:00:00 | |
| DO9LL-15 | 2026-09-05 01:46:32 | 51.95684 | 7.36905 | 100° | 93km/h | 15383m | -6.3m/s | -52.5°C | 3.6% | 118.8hPa | 2.6V | 00:00:00 | 02:27:37 | 00:00:00 | |
| DM0DOS-11 | 2026-09-05 01:46:31 | 51.95700 | 7.36756 | 100° | 91km/h | 15407m | -6.5m/s | -52.5°C | 3.7% | 118.4hPa | 2.5V | 08:08:17 | 02:27:33 | 00:00:00 | |
| BIOWL1-15 | 2026-09-05 01:46:31 | 51.95696 | 7.36793 | 100° | 91km/h | 15401m | -6.1m/s | -52.5°C | 0.2% | 118.5hPa | 2.5V | 08:08:47 | 02:27:34 | 00:00:00 | |
| AA1-15 | 2026-09-05 01:46:28 | 51.95701 | 7.36756 | 100° | 91km/h | 15407m | -6.5m/s | -52.5°C | 0.3% | 118.4hPa | 2.5V | 08:08:47 | 02:27:33 | 00:00:00 | |
| DO2JMG | 2026-09-05 01:46:25 | 51.95710 | 7.36648 | 96° | 89km/h | 15427m | -6.6m/s | -52.4°C | 0.2% | 118hPa | 2.5V | 08:08:47 | 02:27:30 | 00:00:00 | |
| BIOWL1-15 | 2026-09-05 01:46:21 | 51.95722 | 7.36429 | 96° | 91km/h | 15463m | -6.7m/s | -52.4°C | 0.2% | 117.3hPa | 2.5V | 08:08:47 | 02:27:24 | 00:00:00 | |
| DL1XH-west | 2026-09-05 01:46:21 | 51.95718 | 7.36502 | 95° | 89km/h | 15451m | -6m/s | -52.3°C | 0.2% | 117.6hPa | 2.6V | 08:08:47 | 02:27:26 | 00:00:00 | |
| AA1-15 | 2026-09-05 01:46:17 | 51.95727 | 7.36354 | 97° | 93km/h | 15476m | -6.3m/s | -52.5°C | 0.3% | 117.1hPa | 2.5V | 08:08:47 | 02:27:22 | 00:00:00 | |
| DO2JMG | 2026-09-05 01:46:14 | 51.95736 | 7.36239 | 98° | 95km/h | 15495m | -7.1m/s | -52.6°C | 0.3% | 116.8hPa | 2.5V | 08:08:47 | 02:27:19 | 00:00:00 | |
| DM0DOS-11 | 2026-09-05 01:46:13 | 51.95755 | 7.36014 | 96° | 93km/h | 15536m | -6.6m/s | -53°C | 3.7% | 116hPa | 2.5V | 08:08:37 | 02:27:13 | 00:00:00 | |
| DL1XH-west | 2026-09-05 01:46:10 | 51.95749 | 7.36088 | 98° | 91km/h | 15522m | -6.6m/s | -52.9°C | 0.3% | 116.3hPa | 2.6V | 08:08:47 | 02:27:15 | 00:00:00 | |
| BIOWL1-15 | 2026-09-05 01:46:08 | 51.95755 | 7.36014 | 96° | 93km/h | 15536m | -6.6m/s | -53°C | 0.3% | 116hPa | 2.5V | 08:08:47 | 02:27:13 | 00:00:00 | |
| DL1XH-15 | 2026-09-05 01:46:07 | 51.95769 | 7.35822 | 96° | 97km/h | 15567m | -5.9m/s | -53.2°C | 3.8% | 115.5hPa | 2.5V | 08:08:42 | 02:27:08 | 00:00:00 | |
| AA1-15 | 2026-09-05 01:46:06 | 51.95760 | 7.35938 | 97° | 95km/h | 15548m | -6.5m/s | -53.1°C | 0.3% | 115.8hPa | 2.5V | 08:08:47 | 02:27:11 | 00:00:00 | |
| DO2JMG | 2026-09-05 01:46:03 | 51.95769 | 7.35822 | 97° | 97km/h | 15568m | -5.9m/s | -53.3°C | 0.4% | 115.5hPa | 2.5V | 08:08:47 | 02:27:08 | 00:00:00 | |
| BIOWL1-15 | 2026-09-05 01:46:00 | 51.95781 | 7.35631 | 95° | 91km/h | 15598m | -6.4m/s | -53.4°C | 0.4% | 114.9hPa | 2.6V | 08:08:47 | 02:27:03 | 00:00:00 | |
| DL1XH-west | 2026-09-05 01:45:59 | 51.95779 | 7.35668 | 95° | 93km/h | 15592m | -6.7m/s | -53.4°C | 0.4% | 115hPa | 2.6V | 08:08:47 | 02:27:04 | 00:00:00 | |
| AA1-15 | 2026-09-05 01:45:56 | 51.95784 | 7.35556 | 93° | 91km/h | 15611m | -6.5m/s | -53.4°C | 0.4% | 114.7hPa | 2.5V | 08:09:38 | 02:27:01 | 00:00:00 | |
| DO2JMG | 2026-09-05 01:45:52 | 51.95787 | 7.35403 | 91° | 95km/h | 15636m | -6.4m/s | -53.3°C | 0.4% | 114.2hPa | 2.5V | 08:09:38 | 02:26:57 | 00:00:00 | |
| HSKMA3-T | 2026-09-05 01:45:49 | 51.95788 | 7.35285 | 91° | 99km/h | 15655m | -6.4m/s | -53.2°C | 0.3% | 113.9hPa | 2.5V | 08:09:38 | 02:26:54 | 00:00:00 | |
| BIOWL1-15 | 2026-09-05 01:45:47 | 51.95790 | 7.35205 | 92° | 97km/h | 15668m | -6.3m/s | -53.2°C | 0.4% | 113.7hPa | 2.6V | 08:09:38 | 02:26:52 | 00:00:00 | |
| AA1-15 | 2026-09-05 01:45:45 | 51.95790 | 7.35126 | 91° | 95km/h | 15680m | -6.4m/s | -53.3°C | 0.4% | 113.5hPa | 2.5V | 08:09:38 | 02:26:50 | 00:00:00 | |
| DO2JMG | 2026-09-05 01:45:42 | 51.95792 | 7.35009 | 91° | 97km/h | 15700m | -6.2m/s | -53.3°C | 0.4% | 113.1hPa | 2.6V | 08:09:38 | 02:26:47 | 00:00:00 | |
| DM0DOS-11 | 2026-09-05 01:45:40 | 51.95794 | 7.34807 | 91° | 104km/h | 15732m | -6.1m/s | -53.4°C | 3.9% | 112.6hPa | 2.6V | 08:09:08 | 02:26:42 | 00:00:00 | |
| DF5WG-10 | 2026-09-05 01:45:40 | 51.95792 | 7.34930 | 92° | 104km/h | 15713m | -6.6m/s | -53.4°C | 3.9% | 112.9hPa | 2.5V | 00:00:00 | 02:26:45 | 00:00:00 | |
| DB0UT-7 | 2026-09-05 01:45:39 | 51.95793 | 7.34890 | 91° | 100km/h | 15719m | -6.7m/s | -53.3°C | 3.8% | 112.8hPa | 2.5V | 00:00:00 | 00:00:00 | 00:00:00 | |
| DL1XH-15 | 2026-09-05 01:45:38 | 51.95798 | 7.34634 | 92° | 106km/h | 15758m | -6.1m/s | -53.4°C | 3.9% | 112.1hPa | 2.5V | 08:09:12 | 02:26:38 | 00:00:00 | |
| DL1XH-west | 2026-09-05 01:45:38 | 51.95794 | 7.34849 | 92° | 102km/h | 15726m | -6.2m/s | -53.4°C | 0.4% | 112.7hPa | 2.5V | 08:09:38 | 02:26:43 | 00:00:00 | |
| BIOWL1-15 | 2026-09-05 01:45:37 | 51.95794 | 7.34807 | 91° | 104km/h | 15732m | -6.1m/s | -53.4°C | 0.4% | 112.6hPa | 2.6V | 08:09:38 | 02:26:42 | 00:00:00 | |
| AA1-15 | 2026-09-05 01:45:35 | 51.95796 | 7.34721 | 92° | 106km/h | 15745m | -6.5m/s | -53.4°C | 0.4% | 112.3hPa | 2.5V | 08:09:38 | 02:26:40 | 00:00:00 | |
| DO2JMG | 2026-09-05 01:45:32 | 51.95799 | 7.34591 | 93° | 104km/h | 15764m | -6.5m/s | -53.5°C | 0.4% | 112hPa | 2.6V | 08:09:38 | 02:26:37 | 00:00:00 | |
| DO9LL-15 | 2026-09-05 01:45:32 | 51.95799 | 7.34591 | 94° | 95km/h | 15764m | -6.4m/s | -53.4°C | 3.9% | 112.0hPa | 2.5V | 00:00:00 | 02:26:37 | 00:00:00 | |
| DM0DOS-11 | 2026-09-05 01:45:30 | 51.95808 | 7.34384 | 93° | 100km/h | 15796m | -6.1m/s | -53.6°C | 4% | 111.5hPa | 2.5V | 08:09:18 | 02:26:32 | 00:00:00 | |
| BIOWL1-15 | 2026-09-05 01:45:28 | 51.95809 | 7.34343 | 94° | 100km/h | 15802m | -6.5m/s | -53.7°C | 0.5% | 111.4hPa | 2.6V | 08:09:38 | 02:26:31 | 00:00:00 | |
| DL1XH-west | 2026-09-05 01:45:28 | 51.95806 | 7.34425 | 94° | 99km/h | 15790m | -6.4m/s | -53.6°C | 0.5% | 111.6hPa | 2.5V | 08:09:38 | 02:26:33 | 00:00:00 | |
| DL1XH-15 | 2026-09-05 01:45:27 | 51.95815 | 7.34218 | 94° | 102km/h | 15821m | -6.3m/s | -53.7°C | 4.1% | 111hPa | 2.5V | 08:09:22 | 02:26:28 | 00:00:00 | |
| AA1-15 | 2026-09-05 01:45:24 | 51.95813 | 7.34260 | 94° | 102km/h | 15815m | -6.1m/s | -53.7°C | 0.5% | 111.1hPa | 2.5V | 08:09:38 | 02:26:29 | 00:00:00 | |
| DO2JMG | 2026-09-05 01:45:21 | 51.95820 | 7.34135 | 95° | 104km/h | 15834m | -6.3m/s | -53.4°C | 0.5% | 110.8hPa | 2.6V | 08:09:38 | 02:26:26 | 00:00:00 | |
| BIOWL1-15 | 2026-09-05 01:45:18 | 51.95834 | 7.33932 | 99° | 97km/h | 15868m | -7m/s | -53°C | 0.3% | 110.2hPa | 2.5V | 08:09:38 | 02:26:21 | 00:00:00 | |
| DL1XH-15 | 2026-09-05 01:45:17 | 51.95845 | 7.33817 | 99° | 93km/h | 15890m | -8m/s | -53.1°C | 3.8% | 109.8hPa | 2.5V | 08:09:32 | 02:26:18 | 00:00:00 | |
| DL1XH-west | 2026-09-05 01:45:17 | 51.95831 | 7.33971 | 97° | 97km/h | 15861m | -7.1m/s | -53°C | 0.3% | 110.3hPa | 2.5V | 08:09:38 | 02:26:22 | 00:00:00 | |
| HSKMA3-T | 2026-09-05 01:45:15 | 51.95838 | 7.33893 | 99° | 95km/h | 15875m | -7.9m/s | -53.1°C | 0.4% | 110.1hPa | 2.6V | 08:09:38 | 02:26:20 | 00:00:00 | |
| AA1-15 | 2026-09-05 01:45:13 | 51.95845 | 7.33817 | 100° | 93km/h | 15890m | -8m/s | -53.1°C | 0.4% | 109.8hPa | 2.5V | 08:09:38 | 02:26:18 | 00:00:00 | |
| DO2JMG | 2026-09-05 01:45:11 | 51.95853 | 7.33743 | 99° | 89km/h | 15905m | -6.7m/s | -53.1°C | 0.4% | 109.6hPa | 2.5V | 08:09:38 | 02:26:16 | 00:00:00 | |
| DF5WG-10 | 2026-09-05 01:45:10 | 51.95856 | 7.33707 | 98° | 84km/h | 15912m | -7.3m/s | -53.1°C | 3.8% | 109.4hPa | 2.6V | 00:00:00 | 02:26:15 | 00:00:00 | |
| DD1CC1-15 | 2026-09-05 01:45:09 | 51.95859 | 7.33672 | 99° | 86km/h | 15919m | -7.3m/s | -53.1°C | 1.2% | 109.4hPa | 2.6V | 08:09:00 | 00:00:00 | 00:00:00 | |
| DL1XH-15 | 2026-09-05 01:45:07 | 51.95869 | 7.33469 | 92° | 80km/h | 15961m | -7.2m/s | -53°C | 3.8% | 108.6hPa | 2.6V | 08:09:42 | 02:26:08 | 00:00:00 | |
| BIOWL1-15 | 2026-09-05 01:45:07 | 51.95867 | 7.33536 | 94° | 82km/h | 15947m | -7.1m/s | -53°C | 0.3% | 108.9hPa | 2.5V | 08:10:29 | 02:26:10 | 00:00:00 | |
| DL1XH-west | 2026-09-05 01:45:06 | 51.95866 | 7.33569 | 94° | 82km/h | 15940m | -7.5m/s | -53°C | 0.3% | 109hPa | 2.5V | 08:10:29 | 02:26:11 | 00:00:00 | |
| HSKMA3-T | 2026-09-05 01:45:04 | 51.95869 | 7.33502 | 93° | 80km/h | 15954m | -7.3m/s | -53°C | 0.3% | 108.8hPa | 2.6V | 08:10:29 | 02:26:09 | 00:00:00 | |
| AA1-15 | 2026-09-05 01:45:02 | 51.95871 | 7.33436 | 93° | 80km/h | 15969m | -7.2m/s | -52.9°C | 0.4% | 108.5hPa | 2.5V | 08:10:29 | 02:26:07 | 00:00:00 | |
| DO2JMG | 2026-09-05 01:45:00 | 51.95873 | 7.33369 | 95° | 82km/h | 15984m | -7m/s | -52.7°C | 0.3% | 108.3hPa | 2.5V | 08:10:29 | 02:26:05 | 00:00:00 | |
| BIOWL1-15 | 2026-09-05 01:44:55 | 51.95885 | 7.33198 | 96° | 84km/h | 16019m | -6.8m/s | -52.6°C | 0.3% | 107.7hPa | 2.5V | 08:10:29 | 02:26:00 | 00:00:00 | |
| HSKMA3-T | 2026-09-05 01:44:53 | 51.95888 | 7.33129 | 92° | 84km/h | 16033m | -7.6m/s | -52.5°C | 0.3% | 107.5hPa | 2.6V | 08:10:29 | 02:25:58 | 00:00:00 | |
| AA1-15 | 2026-09-05 01:44:52 | 51.95888 | 7.33095 | 90° | 84km/h | 16040m | -6.8m/s | -52.5°C | 0.3% | 107.3hPa | 2.6V | 08:10:29 | 02:25:57 | 00:00:00 | |
| DO2JMG | 2026-09-05 01:44:49 | 51.95886 | 7.32992 | 87° | 84km/h | 16060m | -6.7m/s | -52.6°C | 0.2% | 107hPa | 2.5V | 08:10:29 | 02:25:54 | 00:00:00 | |
| BIOWL1-15 | 2026-09-05 01:44:48 | 51.95884 | 7.32817 | 92° | 89km/h | 16094m | -6.6m/s | -52.7°C | 0.2% | 106.5hPa | 2.5V | 08:10:29 | 02:25:49 | 00:00:00 | |
| DL1XH-15 | 2026-09-05 01:44:47 | 51.95885 | 7.32781 | 92° | 89km/h | 16100m | -6.5m/s | -52.7°C | 3.6% | 106.3hPa | 2.5V | 08:10:02 | 02:25:48 | 00:00:00 | |
| DL1XH-west | 2026-09-05 01:44:45 | 51.95883 | 7.32853 | 91° | 88km/h | 16087m | -6.5m/s | -52.7°C | 0.3% | 106.6hPa | 2.5V | 08:10:29 | 02:25:50 | 00:00:00 | |
| HSKMA3-T | 2026-09-05 01:44:42 | 51.95886 | 7.32744 | 94° | 89km/h | 16107m | -6.5m/s | -52.7°C | 0.2% | 106.2hPa | 2.6V | 08:10:29 | 02:25:47 | 00:00:00 | |
| AA1-15 | 2026-09-05 01:44:41 | 51.95888 | 7.32707 | 94° | 89km/h | 16113m | -6.6m/s | -52.7°C | 0.2% | 106.1hPa | 2.6V | 08:10:29 | 02:25:46 | 00:00:00 | |
| DO2JMG | 2026-09-05 01:44:38 | 51.95891 | 7.32600 | 92° | 86km/h | 16133m | -6.6m/s | -52.6°C | 0.2% | 105.8hPa | 2.5V | 08:10:29 | 02:25:43 | 00:00:00 | |
| DL1XH-15 | 2026-09-05 01:44:37 | 51.95888 | 7.32428 | 85° | 84km/h | 16166m | -6.8m/s | -52.8°C | 3.7% | 105.3hPa | 2.5V | 08:10:12 | 02:25:38 | 00:00:00 | |
| BIOWL1-15 | 2026-09-05 01:44:35 | 51.95888 | 7.32428 | 85° | 84km/h | 16166m | -6.8m/s | -52.8°C | 0.3% | 105.3hPa | 2.5V | 08:10:29 | 02:25:38 | 00:00:00 | |
| DL1XH-west | 2026-09-05 01:44:35 | 51.95891 | 7.32496 | 87° | 84km/h | 16153m | -6.6m/s | -52.7°C | 0.3% | 105.5hPa | 2.5V | 08:10:29 | 02:25:40 | 00:00:00 | |
| DB0NH | 2026-09-05 01:44:34 | 51.95890 | 7.32462 | 87° | 89km/h | 16160m | -6.6m/s | -52.7°C | 3.7% | 105.4hPa | 2.5V | 00:00:00 | 02:25:39 | 00:00:00 | |
| BUE01 | 2026-09-05 01:44:33 | 51.95888 | 7.32428 | 85° | 84km/h | 16166m | -6.8m/s | -52.8°C | 1.1% | 105.3hPa | 2.5V | 00:00:00 | 00:00:00 | 00:00:00 | |
| DM0DOS-11 | 2026-09-05 01:44:32 | 51.95887 | 7.32214 | 94° | 89km/h | 16207m | -6.7m/s | -53.2°C | 3.8% | 104.6hPa | 2.5V | 08:10:18 | 02:25:32 | 00:00:00 | |
| HSKMA3-T | 2026-09-05 01:44:32 | 51.95887 | 7.32393 | 86° | 86km/h | 16173m | -6.7m/s | -52.9°C | 0.3% | 105.1hPa | 2.5V | 08:10:29 | 02:25:37 | 00:00:00 | |
| AA1-15 | 2026-09-05 01:44:31 | 51.95885 | 7.32358 | 87° | 86km/h | 16180m | -7.3m/s | -53°C | 0.3% | 105hPa | 2.6V | 08:10:29 | 02:25:36 | 00:00:00 | |
| DF5WG-10 | 2026-09-05 01:44:30 | 51.95884 | 7.32322 | 90° | 91km/h | 16187m | -7.2m/s | -53.0°C | 3.7% | 104.9hPa | 2.5V | 00:00:00 | 02:25:35 | 00:00:00 | |
| DL1LOL-11 | 2026-09-05 01:44:29 | 51.95885 | 7.32322 | 90° | 88km/h | 16187m | -7.2m/s | -53.0°C | 1.1% | 104.9hPa | 2.5V | 00:00:00 | 00:00:00 | 00:00:00 | |
| DJ2KF-10 | 2026-09-05 01:44:28 | 51.95885 | 7.32251 | 93° | 91km/h | 16201m | -6.5m/s | -53.1°C | 3.7% | 104.7hPa | 2.5V | 00:00:00 | 02:25:33 | 00:00:00 | |
| DL1XH-15 | 2026-09-05 01:44:27 | 51.95897 | 7.32064 | 96° | 93km/h | 16235m | -7.5m/s | -53.4°C | 3.9% | 104.2hPa | 2.5V | 08:10:22 | 02:25:28 | 00:00:00 | |
| DO2JMG | 2026-09-05 01:44:27 | 51.95887 | 7.32214 | 95° | 89km/h | 16207m | -6.7m/s | -53.2°C | 0.3% | 104.6hPa | 2.5V | 08:10:29 | 02:25:32 | 00:00:00 | |
| DL1XH-west | 2026-09-05 01:44:24 | 51.95894 | 7.32102 | 97° | 93km/h | 16228m | -7.4m/s | -53.3°C | 0.3% | 104.2hPa | 2.5V | 08:10:29 | 02:25:29 | 00:00:00 | |
| BIOWL1-15 | 2026-09-05 01:44:22 | 51.95900 | 7.32026 | 96° | 95km/h | 16242m | -7.7m/s | -53.4°C | 0.3% | 104hPa | 2.5V | 08:10:29 | 02:25:27 | 00:00:00 | |
| HSKMA3-T | 2026-09-05 01:44:21 | 51.95902 | 7.31988 | 95° | 95km/h | 16249m | -6.6m/s | -53.4°C | 0.4% | 103.9hPa | 2.5V | 08:10:29 | 02:25:26 | 00:00:00 | |
| AA1-15 | 2026-09-05 01:44:20 | 51.95904 | 7.31950 | 95° | 93km/h | 16256m | -6.3m/s | -53.4°C | 0.4% | 103.8hPa | 2.6V | 08:10:29 | 02:25:25 | 00:00:00 | |
| GOEST3-10 | 2026-09-05 01:44:20 | 51.95904 | 7.31950 | 95° | 89km/h | 16256m | -6.3m/s | -53.4°C | 3.9% | 103.8hPa | 2.5V | 00:00:00 | 00:00:00 | 00:00:00 | |
| DL1XH-15 | 2026-09-05 01:44:17 | 51.95916 | 7.31698 | 95° | 88km/h | 16304m | -8m/s | -53.1°C | 3.8% | 103.1hPa | 2.5V | 08:10:32 | 02:25:18 | 00:00:00 | |
| DO2JMG | 2026-09-05 01:44:17 | 51.95909 | 7.31840 | 94° | 88km/h | 16275m | -6.9m/s | -53.4°C | 0.3% | 103.5hPa | 2.5V | 08:10:29 | 02:25:22 | 00:00:00 | |
| DL1XH-west | 2026-09-05 01:44:13 | 51.95916 | 7.31698 | 95° | 88km/h | 16304m | -8m/s | -53.2°C | 0.4% | 103.1hPa | 2.5V | 08:11:20 | 02:25:18 | 00:00:00 | |
| BIOWL1-15 | 2026-09-05 01:44:11 | 51.95921 | 7.31625 | 97° | 91km/h | 16319m | -6.7m/s | -53°C | 0.3% | 102.8hPa | 2.5V | 08:11:20 | 02:25:16 | 00:00:00 | |
| HSKMA3-T | 2026-09-05 01:44:10 | 51.95924 | 7.31587 | 98° | 93km/h | 16326m | -6.4m/s | -52.9°C | 0.3% | 102.7hPa | 2.5V | 08:11:20 | 02:25:15 | 00:00:00 | |
| AA1-15 | 2026-09-05 01:44:09 | 51.95928 | 7.31550 | 100° | 93km/h | 16332m | -6m/s | -52.9°C | 0.2% | 102.6hPa | 2.6V | 08:11:20 | 02:25:14 | 00:00:00 | |
| DO2JMG | 2026-09-05 01:44:07 | 51.95937 | 7.31474 | 102° | 95km/h | 16344m | -6.1m/s | -52.7°C | 0.3% | 102.5hPa | 2.5V | 08:11:20 | 02:25:12 | 00:00:00 | |
| DL1XH-west | 2026-09-05 01:44:02 | 51.95963 | 7.31290 | 101° | 89km/h | 16376m | -6.7m/s | -52.7°C | 0.3% | 101.9hPa | 2.5V | 08:11:20 | 02:25:07 | 00:00:00 | |
| DM0DOS-11 | 2026-09-05 01:44:02 | 51.95980 | 7.31112 | 97° | 86km/h | 16408m | -7.1m/s | -52.7°C | 3.8% | 101.4hPa | 2.6V | 08:10:48 | 02:25:02 | 00:00:00 | |
| BIOWL1-15 | 2026-09-05 01:44:00 | 51.95970 | 7.31218 | 99° | 88km/h | 16389m | -6.4m/s | -52.8°C | 0.3% | 101.7hPa | 2.5V | 08:11:20 | 02:25:05 | 00:00:00 | |
| AA1-15 | 2026-09-05 01:43:59 | 51.95974 | 7.31183 | 98° | 88km/h | 16395m | -6.3m/s | -52.7°C | 0.3% | 101.6hPa | 2.5V | 08:11:20 | 02:25:04 | 00:00:00 | |
| DO2JMG | 2026-09-05 01:43:56 | 51.95982 | 7.31077 | 97° | 86km/h | 16415m | -7m/s | -52.7°C | 0.3% | 101.3hPa | 2.5V | 08:11:20 | 02:25:01 | 00:00:00 | |
| DL1XH-west | 2026-09-05 01:43:52 | 51.95995 | 7.30942 | 100° | 80km/h | 16441m | -6.3m/s | -52.5°C | 0.3% | 100.9hPa | 2.6V | 08:11:20 | 02:24:57 | 00:00:00 | |
| DL1ZP-14 | 2026-09-05 01:43:51 | 51.95999 | 7.30910 | 99° | 77km/h | 16448m | -7.4m/s | -52.4°C | 1.1% | 100.8hPa | 2.5V | 00:00:00 | 00:00:00 | 00:00:00 | |
| DM0DOS-11 | 2026-09-05 01:43:50 | 51.96011 | 7.30784 | 97° | 80km/h | 16476m | -7.2m/s | -52.2°C | 3.6% | 100.3hPa | 2.6V | 08:10:58 | 02:24:52 | 00:00:00 | |
| BIOWL1-15 | 2026-09-05 01:43:49 | 51.96005 | 7.30847 | 99° | 77km/h | 16462m | -6.8m/s | -52.3°C | 0.2% | 100.6hPa | 2.5V | 08:11:20 | 02:24:54 | 00:00:00 | |
| AA1-15 | 2026-09-05 01:43:48 | 51.96008 | 7.30816 | 98° | 78km/h | 16469m | -7.7m/s | -52.2°C | 0.2% | 100.5hPa | 2.5V | 08:11:20 | 02:24:53 | 00:00:00 | |
| DO2JMG | 2026-09-05 01:43:45 | 51.96016 | 7.30717 | 97° | 84km/h | 16490m | -7m/s | -52.1°C | 0.2% | 100.1hPa | 2.5V | 08:11:20 | 02:24:50 | 00:00:00 | |
| DL1XH-west | 2026-09-05 01:43:41 | 51.96025 | 7.30586 | 97° | 75km/h | 16517m | -6.9m/s | -52.2°C | 0.2% | 99.7hPa | 2.6V | 08:11:20 | 02:24:46 | 00:00:00 | |
| DM0DOS-11 | 2026-09-05 01:43:40 | 51.96036 | 7.30473 | 100° | 66km/h | 16545m | -7.7m/s | -52.2°C | 3.5% | 99.3hPa | 2.5V | 08:11:08 | 02:24:42 | 00:00:00 | |
| SONDE2-11 | 2026-09-05 01:43:40 | 51.96030 | 7.30527 | 98° | 69km/h | 16531m | -6.7m/s | -52.2°C | 1.0% | 99.5hPa | 2.5V | 00:00:00 | 00:00:00 | 00:00:00 | |
| DB0UT-7 | 2026-09-05 01:43:39 | 51.96030 | 7.30527 | 99° | 68km/h | 16531m | -6.7m/s | -52.2°C | 3.6% | 99.4hPa | 2.5V | 00:00:00 | 00:00:00 | 00:00:00 | |
| DL1XH-15 | 2026-09-05 01:43:38 | 51.96047 | 7.30366 | 96° | 66km/h | 16573m | -6.9m/s | -52.1°C | 3.5% | 98.8hPa | 2.5V | 08:11:12 | 02:24:38 | 00:00:00 | |
| HSKMA3-T | 2026-09-05 01:43:38 | 51.96033 | 7.30500 | 100° | 68km/h | 16538m | -7m/s | -52.2°C | 0.2% | 99.4hPa | 2.5V | 08:11:20 | 02:24:43 | 00:00:00 | |
| DO2JMG | 2026-09-05 01:43:35 | 51.96042 | 7.30419 | 100° | 66km/h | 16559m | -6.9m/s | -52.1°C | 0.2% | 99.1hPa | 2.6V | 08:11:20 | 02:24:40 | 00:00:00 | |
| DL1XH-west | 2026-09-05 01:43:31 | 51.96050 | 7.30311 | 93° | 71km/h | 16587m | -6.6m/s | -52.1°C | 0.1% | 98.7hPa | 2.6V | 08:11:20 | 02:24:36 | 00:00:00 | |
| DM0DOS-11 | 2026-09-05 01:43:30 | 51.96053 | 7.30192 | 92° | 75km/h | 16613m | -6.8m/s | -52.2°C | 3.5% | 98.2hPa | 2.5V | 08:11:18 | 02:24:32 | 00:00:00 | |
| BIOWL1-15 | 2026-09-05 01:43:28 | 51.96052 | 7.30222 | 92° | 75km/h | 16606m | -6.7m/s | -52.2°C | 0.1% | 98.4hPa | 2.5V | 08:11:20 | 02:24:33 | 00:00:00 | |
| AA1-15 | 2026-09-05 01:43:27 | 51.96053 | 7.30192 | 92° | 75km/h | 16613m | -6.8m/s | -52.2°C | 0.2% | 98.3hPa | 2.5V | 08:11:20 | 02:24:32 | 00:00:00 | |
| DL1XH-15 | 2026-09-05 01:43:27 | 51.96056 | 7.30074 | 91° | 69km/h | 16640m | -6.2m/s | -52.4°C | 3.6% | 97.9hPa | 2.5V | 08:11:22 | 02:24:28 | 00:00:00 | |
| DO2JMG | 2026-09-05 01:43:24 | 51.96055 | 7.30102 | 92° | 71km/h | 16633m | -6.4m/s | -52.3°C | 0.2% | 97.9hPa | 2.6V | 08:12:11 | 02:24:29 | 00:00:00 | |
| HTAHTA | 2026-09-05 01:43:23 | 51.96056 | 7.29994 | 89° | 58km/h | 16658m | -6.1m/s | -52.5°C | 1.1% | 97.6hPa | 2.5V | 00:00:00 | 00:00:00 | 00:00:00 | |
| DM0DOS-11 | 2026-09-05 01:43:22 | 51.96053 | 7.29901 | 84° | 58km/h | 16683m | -6.5m/s | -52.6°C | 3.6% | 97.2hPa | 2.5V | 08:11:29 | 02:24:21 | 00:00:00 | |
| DL1XH-west | 2026-09-05 01:43:21 | 51.96056 | 7.30020 | 91° | 62km/h | 16652m | -6.2m/s | -52.4°C | 0.1% | 97.7hPa | 2.5V | 08:12:11 | 02:24:26 | 00:00:00 | |
| AA1-15 | 2026-09-05 01:43:17 | 51.96055 | 7.29924 | 85° | 57km/h | 16677m | -6.6m/s | -52.6°C | 0.2% | 97.3hPa | 2.5V | 08:12:11 | 02:24:22 | 00:00:00 | |
| DL4XJ-10 | 2026-09-05 01:43:17 | 51.96055 | 7.29924 | 86° | 73km/h | 16677m | -6.6m/s | -52.6°C | 0% | 0hPa | 2.6V | 00:00:00 | 00:00:00 | 00:00:00 | |
| DL1XH-15 | 2026-09-05 01:43:16 | 51.96045 | 7.29822 | 76° | 73km/h | 16702m | -6.4m/s | -52.6°C | 3.7% | 96.9hPa | 2.6V | 08:11:32 | 02:24:18 | 00:00:00 | |
| DO2JMG | 2026-09-05 01:43:14 | 51.96048 | 7.29850 | 78° | 68km/h | 16696m | -6.4m/s | -52.6°C | 0.3% | 97hPa | 2.6V | 08:12:11 | 02:24:19 | 00:00:00 | |
| DL1XH-west | 2026-09-05 01:43:10 | 51.96032 | 7.29730 | 79° | 80km/h | 16724m | -7m/s | -52.7°C | 0.2% | 96.6hPa | 2.5V | 08:12:11 | 02:24:15 | 00:00:00 | |
| DM0DOS-11 | 2026-09-05 01:43:10 | 51.96024 | 7.29630 | 85° | 82km/h | 16746m | -7.6m/s | -52.8°C | 3.6% | 96.2hPa | 2.5V | 08:11:38 | 02:24:12 | 00:00:00 | |
| BIOWL1-15 | 2026-09-05 01:43:07 | 51.96024 | 7.29630 | 86° | 82km/h | 16746m | -7.6m/s | -52.8°C | 0.2% | 96.2hPa | 2.5V | 08:12:11 | 02:24:12 | 00:00:00 | |
| AA1-15 | 2026-09-05 01:43:06 | 51.96023 | 7.29597 | 89° | 82km/h | 16753m | -6.9m/s | -52.8°C | 0.2% | 96.1hPa | 2.5V | 08:12:11 | 02:24:11 | 00:00:00 | |
| DL1XH-15 | 2026-09-05 01:43:06 | 51.96022 | 7.29500 | 89° | 75km/h | 16774m | -7.1m/s | -52.9°C | 3.7% | 95.8hPa | 2.6V | 08:11:42 | 02:24:08 | 00:00:00 | |
| DO2JMG | 2026-09-05 01:43:04 | 51.96022 | 7.29531 | 90° | 78km/h | 16767m | -7.3m/s | -52.9°C | 0.2% | 95.9hPa | 2.5V | 08:12:11 | 02:24:09 | 00:00:00 | |
| DO3DL | 2026-09-05 01:43:03 | 51.96022 | 7.29500 | 90° | 75km/h | 16775m | -7.1m/s | -52.9°C | 1.1% | 95.8hPa | 2.6V | 08:12:00 | 00:00:00 | 00:00:00 | |
| DM0DOS-11 | 2026-09-05 01:43:02 | 51.96021 | 7.29338 | 92° | 69km/h | 16816m | -6.7m/s | -52.9°C | 3.7% | 95.2hPa | 2.6V | 08:11:48 | 02:24:02 | 00:00:00 | |
| DL1XH-west | 2026-09-05 01:43:00 | 51.96021 | 7.29417 | 88° | 62km/h | 16795m | -6.9m/s | -52.9°C | 0.2% | 95.5hPa | 2.5V | 08:12:11 | 02:24:05 | 00:00:00 | |
| MET0W-2 | 2026-09-05 01:42:59 | 51.96021 | 7.29365 | 90° | 64km/h | 16809m | -6.8m/s | -52.9°C | 1.0% | 95.3hPa | 2.5V | 00:00:00 | 00:00:00 | 00:00:00 | |
| DL1XH-15 | 2026-09-05 01:42:58 | 51.96027 | 7.29222 | 94° | 69km/h | 16844m | -7.6m/s | -52.8°C | 3.6% | 94.8hPa | 2.5V | 08:11:52 | 02:23:58 | 00:00:00 | |
| BIOWL1-15 | 2026-09-05 01:42:57 | 51.96021 | 7.29338 | 93° | 69km/h | 16816m | -6.7m/s | -52.9°C | 0.2% | 95.2hPa | 2.6V | 08:12:11 | 02:24:02 | 00:00:00 | |
| AA1-15 | 2026-09-05 01:42:56 | 51.96022 | 7.29309 | 95° | 71km/h | 16823m | -7.1m/s | -52.8°C | 0.3% | 95.1hPa | 2.5V | 08:12:11 | 02:24:01 | 00:00:00 | |
| DO2JMG | 2026-09-05 01:42:53 | 51.96027 | 7.29222 | 95° | 69km/h | 16844m | -7.6m/s | -52.8°C | 0.2% | 94.8hPa | 2.5V | 08:12:11 | 02:23:58 | 00:00:00 | |
| DL1XH-west | 2026-09-05 01:42:50 | 51.96029 | 7.29142 | 88° | 64km/h | 16866m | -7.1m/s | -52.9°C | 0.2% | 94.5hPa | 2.5V | 08:12:11 | 02:23:55 | 00:00:00 | |
| DL1ZP-14 | 2026-09-05 01:42:49 | 51.96028 | 7.29116 | 87° | 62km/h | 16873m | -7.3m/s | -53.0°C | 1.0% | 94.4hPa | 2.5V | 00:00:00 | 00:00:00 | 00:00:00 | |
| EDDB2-12 | 2026-09-05 01:42:48 | 51.96027 | 7.29090 | 84° | 64km/h | 16880m | -7.2m/s | -53.0°C | 1.1% | 94.3hPa | 2.5V | 00:00:00 | 00:00:00 | 00:00:00 | |
| DL1XH-15 | 2026-09-05 01:42:46 | 51.96017 | 7.28955 | 88° | 69km/h | 16916m | -6.6m/s | -53.3°C | 3.8% | 93.8hPa | 2.5V | 08:12:02 | 02:23:48 | 00:00:00 | |
| HSKMA3-T | 2026-09-05 01:42:46 | 51.96023 | 7.29038 | 82° | 66km/h | 16894m | -7m/s | -53.1°C | 0.3% | 94.1hPa | 2.6V | 08:12:11 | 02:23:51 | 00:00:00 | |
| AA1-15 | 2026-09-05 01:42:45 | 51.96020 | 7.29011 | 83° | 66km/h | 16901m | -7.2m/s | -53.2°C | 0.3% | 94hPa | 2.5V | 08:12:11 | 02:23:50 | 00:00:00 | |
| DO2JMG | 2026-09-05 01:42:43 | 51.96017 | 7.28955 | 89° | 69km/h | 16916m | -6.6m/s | -53.3°C | 0.3% | 93.8hPa | 2.5V | 08:12:11 | 02:23:48 | 00:00:00 | |
| DL1XH-west | 2026-09-05 01:42:39 | 51.96026 | 7.28838 | 102° | 75km/h | 16944m | -7.8m/s | -53.5°C | 0.3% | 93.3hPa | 2.5V | 08:12:11 | 02:23:44 | 00:00:00 | |
| BIOWL1-15 | 2026-09-05 01:42:36 | 51.96038 | 7.28749 | 102° | 73km/h | 16968m | -7.8m/s | -53.6°C | 0.4% | 93hPa | 2.6V | 08:12:11 | 02:23:41 | 00:00:00 | |
| HSKMA3-T | 2026-09-05 01:42:35 | 51.96041 | 7.28719 | 99° | 77km/h | 16976m | -7.4m/s | -53.6°C | 0.4% | 92.9hPa | 2.6V | 08:12:11 | 02:23:40 | 00:00:00 | |
| AA1-15 | 2026-09-05 01:42:34 | 51.96044 | 7.28687 | 96° | 82km/h | 16983m | -6.8m/s | -53.6°C | 0.4% | 92.8hPa | 2.5V | 08:12:11 | 02:23:39 | 00:00:00 | |
| DO2JMG | 2026-09-05 01:42:32 | 51.96045 | 7.28618 | 88° | 88km/h | 16996m | -6.5m/s | -53.4°C | 0.4% | 92.6hPa | 2.5V | 08:13:02 | 02:23:37 | 00:00:00 | |
| DL1XH-west | 2026-09-05 01:42:29 | 51.96036 | 7.28515 | 78° | 82km/h | 17017m | -7.7m/s | -52.8°C | 0.1% | 92.3hPa | 2.6V | 08:13:02 | 02:23:34 | 00:00:00 | |
| DJ2KF-10 | 2026-09-05 01:42:28 | 51.96031 | 7.28482 | 77° | 75km/h | 17025m | -7.4m/s | -52.8°C | 3.7% | 92.1hPa | 2.5V | 00:00:00 | 02:23:33 | 00:00:00 | |
| AM1SDL-15 | 2026-09-05 01:42:27 | 51.96026 | 7.28451 | 75° | 78km/h | 17032m | -7.3m/s | 0°C | 0% | 0hPa | 2.5V | 00:00:00 | 02:23:32 | 00:00:00 | |
| DL1XH-15 | 2026-09-05 01:42:26 | 51.96009 | 7.28329 | 83° | 77km/h | 17062m | -7.2m/s | -52.7°C | 3.7% | 91.6hPa | 2.5V | 08:12:22 | 02:23:28 | 00:00:00 | |
| BIOWL1-15 | 2026-09-05 01:42:25 | 51.96016 | 7.28390 | 76° | 75km/h | 17047m | -7.9m/s | -52.9°C | 0.2% | 91.8hPa | 2.6V | 08:13:02 | 02:23:30 | 00:00:00 | |
| HSKMA3-T | 2026-09-05 01:42:24 | 51.96012 | 7.28360 | 80° | 75km/h | 17055m | -7.9m/s | -52.8°C | 0.2% | 91.7hPa | 2.6V | 08:13:53 | 02:23:29 | 00:00:00 | |
| AA1-15 | 2026-09-05 01:42:23 | 51.96010 | 7.28329 | 84° | 77km/h | 17063m | -7.2m/s | -52.7°C | 0.2% | 91.6hPa | 2.5V | 08:13:02 | 02:23:28 | 00:00:00 | |
| DM0DOS-11 | 2026-09-05 01:42:22 | 51.96016 | 7.28144 | 91° | 77km/h | 17104m | -7.4m/s | -52.1°C | 3.6% | 91hPa | 2.5V | 08:12:28 | 02:23:22 | 00:00:00 | |
| DO2JMG | 2026-09-05 01:42:22 | 51.96008 | 7.28298 | 88° | 77km/h | 17069m | -6.7m/s | -52.7°C | 0.3% | 91.5hPa | 2.5V | 08:13:02 | 02:23:27 | 00:00:00 | |
| DL1XH-west | 2026-09-05 01:42:18 | 51.96015 | 7.28174 | 95° | 75km/h | 17097m | -7.7m/s | -52.4°C | 0.2% | 91.1hPa | 2.6V | 08:13:02 | 02:23:23 | 00:00:00 | |
| DL4XJ-10 | 2026-09-05 01:42:17 | 51.96016 | 7.28144 | 92° | 73km/h | 17105m | -7.3m/s | -52.2°C | 0% | 0hPa | 2.6V | 00:00:00 | 00:00:00 | 00:00:00 | |
| DL1XH-15 | 2026-09-05 01:42:16 | 51.96008 | 7.28005 | 81° | 91km/h | 17132m | -7.3m/s | -52°C | 3.5% | 90.7hPa | 2.6V | 08:12:32 | 02:23:18 | 00:00:00 | |
| HSKMA3-T | 2026-09-05 01:42:14 | 51.96011 | 7.28042 | 83° | 89km/h | 17125m | -6.8m/s | -52°C | 0.1% | 90.8hPa | 2.6V | 08:13:53 | 02:23:19 | 00:00:00 | |
| AA1-15 | 2026-09-05 01:42:12 | 51.96005 | 7.27969 | 80° | 88km/h | 17139m | -8m/s | -52°C | 0.1% | 90.6hPa | 2.5V | 08:13:02 | 02:23:17 | 00:00:00 | |
| DO2JMG | 2026-09-05 01:42:11 | 51.96001 | 7.27934 | 79° | 84km/h | 17147m | -7.8m/s | -52°C | 0.1% | 90.4hPa | 2.5V | 08:13:02 | 02:23:16 | 00:00:00 | |
| DL1XH-west | 2026-09-05 01:42:07 | 51.95989 | 7.27811 | 86° | 69km/h | 17177m | -6.9m/s | -52°C | 0.2% | 90hPa | 2.6V | 08:13:02 | 02:23:12 | 00:00:00 | |
| SONDE2-11 | 2026-09-05 01:42:07 | 51.95988 | 7.27783 | 90° | 68km/h | 17184m | -7.1m/s | -52.0°C | 1.0% | 90.0hPa | 2.6V | 00:00:00 | 00:00:00 | 00:00:00 | |
| DL1XH-15 | 2026-09-05 01:42:06 | 51.95992 | 7.27700 | 98° | 66km/h | 17206m | -7m/s | -52°C | 3.5% | 89.6hPa | 2.6V | 08:12:42 | 02:23:08 | 00:00:00 | |
| HSKMA3-T | 2026-09-05 01:42:03 | 51.95992 | 7.27700 | 98° | 66km/h | 17206m | -7m/s | -52°C | 0.1% | 89.7hPa | 2.6V | 08:13:53 | 02:23:08 | 00:00:00 | |
| DO2JMG | 2026-09-05 01:42:01 | 51.95997 | 7.27648 | 100° | 64km/h | 17221m | -7.7m/s | -52°C | 0.1% | 89.4hPa | 2.5V | 08:13:02 | 02:23:06 | 00:00:00 | |
| DJ2DS-15 | 2026-09-05 01:41:59 | 51.96003 | 7.27599 | 103° | 58km/h | 17236m | -7.4m/s | -52.1°C | 1.0% | 89.2hPa | 2.5V | 00:00:00 | 00:00:00 | 00:00:00 | |
| DJ2KF-10 | 2026-09-05 01:41:58 | 51.96007 | 7.27575 | 105° | 66km/h | 17244m | -8.0m/s | -52.0°C | 3.5% | 89.0hPa | 2.5V | 08:12:00 | 02:23:03 | 00:00:00 | |
| DL4XJ-10 | 2026-09-05 01:41:57 | 51.96010 | 7.27553 | 103° | 69km/h | 17252m | -7.9m/s | -52.0°C | 0% | 0hPa | 2.5V | 00:00:00 | 00:00:00 | 00:00:00 | |
| DL1XH-west | 2026-09-05 01:41:57 | 51.96010 | 7.27553 | 102° | 57km/h | 17252m | -7.9m/s | -52°C | 0.1% | 89hPa | 2.6V | 08:13:02 | 02:23:02 | 00:00:00 | |
| DL1XH-15 | 2026-09-05 01:41:56 | 51.96016 | 7.27462 | 87° | 60km/h | 17283m | -7.6m/s | -52°C | 3.6% | 88.6hPa | 2.5V | 08:12:52 | 02:22:58 | 00:00:00 | |
| BIOWL1-15 | 2026-09-05 01:41:53 | 51.96016 | 7.27462 | 87° | 60km/h | 17283m | -7.6m/s | -52°C | 0.1% | 88.6hPa | 2.5V | 08:13:02 | 02:22:58 | 00:00:00 | |
| HSKMA3-T | 2026-09-05 01:41:52 | 51.96015 | 7.27436 | 88° | 68km/h | 17291m | -7.9m/s | -52°C | 0.1% | 88.5hPa | 2.6V | 08:13:53 | 02:22:57 | 00:00:00 | |
| DO2JMG | 2026-09-05 01:41:50 | 51.96016 | 7.27377 | 95° | 77km/h | 17306m | -7m/s | -52.1°C | 0.2% | 88.3hPa | 2.5V | 08:13:02 | 02:22:55 | 00:00:00 | |
| DL1XH-west | 2026-09-05 01:41:46 | 51.96037 | 7.27253 | 114° | 78km/h | 17334m | -7.3m/s | -52.1°C | 0.2% | 87.9hPa | 2.6V | 08:13:02 | 02:22:51 | 00:00:00 | |
| EDDB2-12 | 2026-09-05 01:41:46 | 51.96037 | 7.27253 | 113° | 77km/h | 17334m | -7.3m/s | -52.1°C | 1.0% | 87.9hPa | 2.5V | 00:00:00 | 00:00:00 | 00:00:00 | |
| DL3AQ-11 | 2026-09-05 01:41:45 | 51.96045 | 7.27225 | 115° | 75km/h | 17342m | -8.0m/s | -52.0°C | 1.0% | 87.8hPa | 2.5V | 00:00:00 | 00:00:00 | 00:00:00 | |
| BIOWL1-15 | 2026-09-05 01:41:44 | 51.96072 | 7.27144 | 120° | 71km/h | 17365m | -7.6m/s | -52°C | 0.1% | 87.5hPa | 2.5V | 08:13:53 | 02:22:47 | 00:00:00 | |
| AA1-15 | 2026-09-05 01:41:40 | 51.96090 | 7.27095 | 123° | 68km/h | 17381m | -7.4m/s | -52°C | 0.1% | 87.3hPa | 2.6V | 08:13:53 | 02:22:45 | 00:00:00 | |
| DL1XH-west | 2026-09-05 01:41:35 | 51.96134 | 7.26978 | 114° | 64km/h | 17420m | -8m/s | -51.8°C | 0.1% | 86.7hPa | 2.6V | 08:13:53 | 02:22:40 | 00:00:00 | |
| BIOWL1-15 | 2026-09-05 01:41:32 | 51.96147 | 7.26909 | 100° | 57km/h | 17442m | -7.4m/s | -51.7°C | 0.1% | 86.4hPa | 2.5V | 08:13:53 | 02:22:37 | 00:00:00 | |
| DO9LL-15 | 2026-09-05 01:41:32 | 51.96147 | 7.26909 | 100° | 57km/h | 17442m | -7.3m/s | -51.6°C | 3.4% | 86.4hPa | 2.5V | 00:00:00 | 02:22:37 | 00:00:00 | |
| DH3RM | 2026-09-05 01:41:31 | 51.96147 | 7.26909 | 101° | 57km/h | 17442m | -7.4m/s | -51.7°C | 0.9% | 86.4hPa | 2.5V | 08:13:00 | 00:00:00 | 00:00:00 | |
| DM0DOS-11 | 2026-09-05 01:41:30 | 51.96167 | 7.26799 | 116° | 57km/h | 17479m | -7.3m/s | -51.9°C | 3.5% | 85.9hPa | 2.5V | 08:13:18 | 02:22:32 | 00:00:00 | |
| DO2JMG | 2026-09-05 01:41:29 | 51.96156 | 7.26842 | 107° | 57km/h | 17465m | -7.4m/s | -51.8°C | 0.1% | 86.2hPa | 2.6V | 08:13:53 | 02:22:34 | 00:00:00 | |
| HSKMA3-T | 2026-09-05 01:41:28 | 51.96161 | 7.26820 | 113° | 57km/h | 17472m | -7.2m/s | -51.8°C | 0.2% | 86hPa | 2.5V | 08:13:53 | 02:22:33 | 00:00:00 | |
| DL1XH-west | 2026-09-05 01:41:24 | 51.96188 | 7.26737 | 120° | 58km/h | 17503m | -7.7m/s | -52°C | 0.1% | 85.7hPa | 2.6V | 08:13:53 | 02:22:29 | 00:00:00 | |
| DJ2DS-15 | 2026-09-05 01:41:23 | 51.96195 | 7.26716 | 120° | 57km/h | 17510m | -7.3m/s | -52.0°C | 1.0% | 85.5hPa | 2.5V | 00:00:00 | 00:00:00 | 00:00:00 | |
| DM0DOS-11 | 2026-09-05 01:41:22 | 51.96236 | 7.26599 | 113° | 53km/h | 17557m | -8.4m/s | -52°C | 3.5% | 84.9hPa | 2.5V | 08:13:28 | 02:22:22 | 00:00:00 | |
| BIOWL1-15 | 2026-09-05 01:41:22 | 51.96203 | 7.26696 | 121° | 57km/h | 17518m | -8m/s | -52°C | 0.1% | 85.4hPa | 2.5V | 08:13:53 | 02:22:27 | 00:00:00 | |
| HSKMA3-T | 2026-09-05 01:41:18 | 51.96230 | 7.26619 | 117° | 53km/h | 17549m | -8.1m/s | -52.1°C | 0.2% | 85hPa | 2.6V | 08:13:53 | 02:22:23 | 00:00:00 | |
| DL4XJ-10 | 2026-09-05 01:41:17 | 51.96236 | 7.26599 | 114° | 58km/h | 17557m | -8.3m/s | -52.0°C | 0% | 0hPa | 2.6V | 00:00:00 | 00:00:00 | 00:00:00 | |
| DL1XH-15 | 2026-09-05 01:41:16 | 51.96248 | 7.26514 | 95° | 58km/h | 17588m | -7.8m/s | -52.1°C | 3.5% | 84.5hPa | 2.6V | 08:13:32 | 02:22:18 | 00:00:00 | |
| DL1XH-west | 2026-09-05 01:41:14 | 51.96246 | 7.26537 | 98° | 57km/h | 17581m | -7.7m/s | -52°C | 0.1% | 84.6hPa | 2.6V | 08:13:53 | 02:22:19 | 00:00:00 | |
| BIOWL1-15 | 2026-09-05 01:41:11 | 51.96249 | 7.26464 | 90° | 66km/h | 17604m | -7.3m/s | -52.2°C | 0.1% | 84.3hPa | 2.5V | 08:13:53 | 02:22:16 | 00:00:00 | |
| DO2JMG | 2026-09-05 01:41:08 | 51.96249 | 7.26383 | 89° | 64km/h | 17627m | -7.9m/s | -52.4°C | 0.2% | 84hPa | 2.5V | 08:13:53 | 02:22:13 | 00:00:00 | |
| HSKMA3-T | 2026-09-05 01:41:07 | 51.96249 | 7.26357 | 91° | 60km/h | 17635m | -7.5m/s | -52.4°C | 0.2% | 83.9hPa | 2.6V | 08:13:53 | 02:22:12 | 00:00:00 | |
| DL1XH-15 | 2026-09-05 01:41:06 | 51.96255 | 7.26267 | 101° | 55km/h | 17664m | -7.5m/s | -52.6°C | 3.7% | 83.5hPa | 2.5V | 08:13:42 | 02:22:08 | 00:00:00 | |
| DL1XH-west | 2026-09-05 01:41:03 | 51.96255 | 7.26267 | 101° | 55km/h | 17664m | -7.5m/s | -52.6°C | 0.3% | 83.5hPa | 2.5V | 08:13:53 | 02:22:08 | 00:00:00 | |
| SMARD9-15 | 2026-09-05 01:41:03 | 51.96286 | 7.26118 | 116° | 53km/h | 17718m | -8.4m/s | -52.8°C | 1.0% | 82.8hPa | 2.6V | 00:00:00 | 00:00:00 | 00:00:00 | |
| DO9LL-15 | 2026-09-05 01:41:02 | 51.96258 | 7.26244 | 104° | 64km/h | 17671m | -7.5m/s | -52.6°C | 3.7% | 83.4hPa | 2.6V | 00:00:00 | 02:22:07 | 00:00:00 | |
| DD1CC1-15 | 2026-09-05 01:41:01 | 51.96258 | 7.26244 | 104° | 57km/h | 17671m | -7.5m/s | -52.7°C | 1.0% | 83.4hPa | 2.6V | 08:13:00 | 00:00:00 | 00:00:00 | |
| DM0DOS-11 | 2026-09-05 01:41:00 | 51.96270 | 7.26179 | 109° | 55km/h | 17694m | -7.3m/s | -52.8°C | 3.7% | 83.1hPa | 2.6V | 08:13:46 | 02:22:04 | 00:00:00 | |
| BIOWL1-15 | 2026-09-05 01:41:00 | 51.96266 | 7.26200 | 108° | 57km/h | 17686m | -7.7m/s | -52.8°C | 0.2% | 83.2hPa | 2.5V | 08:13:53 | 02:22:05 | 00:00:00 | |
| DO2JMG | 2026-09-05 01:40:57 | 51.96280 | 7.26138 | 115° | 53km/h | 17709m | -8.1m/s | -52.8°C | 0.3% | 82.9hPa | 2.6V | 08:13:53 | 02:22:02 | 00:00:00 | |
| AA1-15 | 2026-09-05 01:40:57 | 51.96286 | 7.26118 | 117° | 53km/h | 17718m | -8.4m/s | -52.8°C | 0.3% | 82.8hPa | 2.5V | 08:13:53 | 02:22:01 | 00:00:00 | |
| DL1XH-west | 2026-09-05 01:40:53 | 51.96307 | 7.26057 | 119° | 60km/h | 17743m | -8.3m/s | -52.7°C | 0.2% | 82.5hPa | 2.5V | 08:13:53 | 02:21:58 | 00:00:00 | |
| DL3AQ-11 | 2026-09-05 01:40:53 | 51.96314 | 7.26034 | 116° | 62km/h | 17751m | -8.6m/s | -52.7°C | 1.0% | 82.4hPa | 2.6V | 00:00:00 | 00:00:00 | 00:00:00 | |
| WPPR-10 | 2026-09-05 01:40:52 | 51.96314 | 7.26034 | 116° | 62km/h | 17751m | -8.6m/s | -52.7°C | 1.0% | 82.4hPa | 2.6V | 00:00:00 | 00:00:00 | 00:00:00 | |
| DH3RM | 2026-09-05 01:40:51 | 51.96314 | 7.26034 | 117° | 64km/h | 17752m | -8.6m/s | -52.7°C | 1.0% | 82.4hPa | 2.6V | 08:13:00 | 00:00:00 | 00:00:00 | |
| DM0DOS-11 | 2026-09-05 01:40:50 | 51.96329 | 7.25959 | 97° | 64km/h | 17775m | -6.9m/s | -52.7°C | 3.7% | 82.1hPa | 2.6V | 08:13:56 | 02:21:54 | 00:00:00 | |
| BIOWL1-15 | 2026-09-05 01:40:49 | 51.96329 | 7.25959 | 97° | 66km/h | 17775m | -6.9m/s | -52.7°C | 0.3% | 82.1hPa | 2.6V | 08:14:44 | 02:21:54 | 00:00:00 | |
| DO2JMG | 2026-09-05 01:40:46 | 51.96327 | 7.25880 | 82° | 66km/h | 17796m | -8.4m/s | -52.6°C | 0.2% | 81.8hPa | 2.5V | 08:14:44 | 02:21:51 | 00:00:00 | |
| DL1ZP-14 | 2026-09-05 01:40:45 | 51.96325 | 7.25854 | 82° | 64km/h | 17805m | -8.8m/s | -52.6°C | 1.0% | 81.7hPa | 2.5V | 00:00:00 | 00:00:00 | 00:00:00 | |
| DL1XH-west | 2026-09-05 01:40:42 | 51.96324 | 7.25775 | 97° | 66km/h | 17830m | -8m/s | -52.8°C | 0.2% | 81.4hPa | 2.6V | 08:14:44 | 02:21:47 | 00:00:00 | |
| BIOWL1-15 | 2026-09-05 01:40:40 | 51.96346 | 7.25667 | 114° | 73km/h | 17859m | -8.7m/s | -52.8°C | 0.2% | 81hPa | 2.5V | 08:14:44 | 02:21:43 | 00:00:00 | |
| HSKMA3-T | 2026-09-05 01:40:39 | 51.96338 | 7.25694 | 113° | 73km/h | 17851m | -7.4m/s | -52.8°C | 0.2% | 81.1hPa | 2.5V | 08:14:44 | 02:21:44 | 00:00:00 | |
| AA1-15 | 2026-09-05 01:40:36 | 51.96360 | 7.25611 | 110° | 73km/h | 17877m | -9.1m/s | -52.9°C | 0.2% | 80.8hPa | 2.5V | 08:14:44 | 02:21:41 | 00:00:00 | |
| DO2JMG | 2026-09-05 01:40:35 | 51.96366 | 7.25583 | 105° | 71km/h | 17886m | -7.9m/s | -53°C | 0.2% | 80.7hPa | 2.6V | 08:14:44 | 02:21:40 | 00:00:00 | |
| DL1XH-west | 2026-09-05 01:40:32 | 51.96371 | 7.25508 | 89° | 49km/h | 17909m | -7.1m/s | -53.2°C | 0.3% | 80.4hPa | 2.5V | 08:14:44 | 02:21:37 | 00:00:00 | |
| BIOWL1-15 | 2026-09-05 01:40:29 | 51.96372 | 7.25437 | 97° | 31km/h | 17950m | -9.4m/s | -53.4°C | 0.3% | 79.9hPa | 2.6V | 08:14:44 | 02:21:32 | 00:00:00 | |
| HSKMA3-T | 2026-09-05 01:40:28 | 51.96371 | 7.25449 | 94° | 31km/h | 17941m | -8.9m/s | -53.3°C | 0.3% | 80hPa | 2.5V | 08:14:44 | 02:21:33 | 00:00:00 | |
| DJ2KF-10 | 2026-09-05 01:40:28 | 51.96371 | 7.25449 | 95° | 51km/h | 17941m | -8.9m/s | -53.3°C | 3.7% | 79.9hPa | 2.5V | 00:00:00 | 02:21:33 | 00:00:00 | |
| DC6BW-12 | 2026-09-05 01:40:27 | 51.96371 | 7.25449 | 95° | 31km/h | 17941m | -8.9m/s | -53.3°C | 1.1% | 80.0hPa | 2.5V | 08:14:00 | 00:00:00 | 00:00:00 | |
| DL1XH-15 | 2026-09-05 01:40:26 | 51.96380 | 7.25366 | 104° | 60km/h | 17982m | -6.8m/s | -53.8°C | 3.8% | 79.5hPa | 2.5V | 08:14:22 | 02:21:28 | 00:00:00 | |
| AA1-15 | 2026-09-05 01:40:26 | 51.96375 | 7.25407 | 100° | 42km/h | 17968m | -8m/s | -53.6°C | 0.4% | 79.7hPa | 2.6V | 08:14:44 | 02:21:30 | 00:00:00 | |
| GOEST3-10 | 2026-09-05 01:40:25 | 51.96375 | 7.25407 | 101° | 58km/h | 17968m | -8.0m/s | -53.6°C | 3.8% | 79.6hPa | 2.6V | 00:00:00 | 02:21:30 | 00:00:00 | |
| DM0DOS-11 | 2026-09-05 01:40:24 | 51.96401 | 7.25255 | 105° | 75km/h | 18013m | -9.1m/s | -53.8°C | 3.8% | 79.1hPa | 2.6V | 08:14:26 | 02:21:24 | 00:00:00 | |
| DO2JMG | 2026-09-05 01:40:24 | 51.96377 | 7.25388 | 103° | 51km/h | 17975m | -6.7m/s | -53.8°C | 0.4% | 79.6hPa | 2.5V | 08:14:44 | 02:21:29 | 00:00:00 | |
| DL1XH-west | 2026-09-05 01:40:21 | 51.96390 | 7.25313 | 108° | 71km/h | 17997m | -7.8m/s | -53.8°C | 0.4% | 79.3hPa | 2.5V | 08:14:44 | 02:21:26 | 00:00:00 | |
| HSKMA3-T | 2026-09-05 01:40:18 | 51.96405 | 7.25226 | 101° | 71km/h | 18022m | -9.1m/s | -53.9°C | 0.4% | 79hPa | 2.6V | 08:14:44 | 02:21:23 | 00:00:00 | |
| BIOWL7-15 | 2026-09-05 01:40:17 | 51.96405 | 7.25226 | 102° | 71km/h | 18023m | -9.1m/s | -53.9°C | 1.1% | 79.0hPa | 2.5V | 00:00:00 | 00:00:00 | 00:00:00 | |
| DL1XH-15 | 2026-09-05 01:40:16 | 51.96407 | 7.25120 | 90° | 29km/h | 18062m | -7.9m/s | -54.1°C | 3.8% | 78.5hPa | 2.5V | 08:14:32 | 02:21:18 | 00:00:00 | |
| BIOWL1-15 | 2026-09-05 01:40:16 | 51.96409 | 7.25174 | 90° | 58km/h | 18039m | -7.6m/s | -54°C | 0.4% | 78.8hPa | 2.5V | 08:14:44 | 02:21:21 | 00:00:00 | |
| DL4XJ-10 | 2026-09-05 01:40:16 | 51.96408 | 7.25173 | 91° | 42km/h | 18040m | -7.6m/s | -54.0°C | 0% | 0hPa | 2.5V | 00:00:00 | 00:00:00 | 00:00:00 | |
| GOEST3-10 | 2026-09-05 01:40:15 | 51.96408 | 7.25151 | 87° | 33km/h | 18047m | -8.0m/s | -54.0°C | 3.8% | 78.6hPa | 2.5V | 00:00:00 | 02:21:20 | 00:00:00 | |
| AA1-15 | 2026-09-05 01:40:15 | 51.96408 | 7.25134 | 86° | 38km/h | 18055m | -7.8m/s | -54.1°C | 0.3% | 78.6hPa | 2.5V | 08:14:44 | 02:21:19 | 00:00:00 | |
| DM0DOS-11 | 2026-09-05 01:40:14 | 51.96422 | 7.25083 | 141° | 38km/h | 18097m | -8.2m/s | -54.3°C | 3.9% | 78hPa | 2.5V | 08:14:36 | 02:21:14 | 00:00:00 | |
| DO2JMG | 2026-09-05 01:40:13 | 51.96407 | 7.25120 | 90° | 29km/h | 18062m | -7.9m/s | -54.1°C | 0.3% | 78.5hPa | 2.5V | 08:14:44 | 02:21:18 | 00:00:00 | |
| DL1XH-west | 2026-09-05 01:40:11 | 51.96411 | 7.25100 | 126° | 24km/h | 18080m | -9.2m/s | -54.2°C | 0.4% | 78.3hPa | 2.6V | 08:14:44 | 02:21:16 | 00:00:00 | |
| HSKMA3-T | 2026-09-05 01:40:07 | 51.96439 | 7.25057 | 133° | 55km/h | 18113m | -8.1m/s | -54.4°C | 0.5% | 77.9hPa | 2.6V | 08:14:44 | 02:21:12 | 00:00:00 | |
| AU51GT2 | 2026-09-05 01:40:07 | 51.96448 | 7.25039 | 126° | 60km/h | 18121m | -7.4m/s | -54.5°C | 1.1% | 77.8hPa | 2.5V | 00:00:00 | 00:00:00 | 00:00:00 | |
| DL1XH-15 | 2026-09-05 01:40:06 | 51.96468 | 7.24968 | 102° | 62km/h | 18146m | -9.2m/s | -54.6°C | 4% | 77.5hPa | 2.5V | 08:14:42 | 02:21:08 | 00:00:00 | |
| BIOWL1-15 | 2026-09-05 01:40:05 | 51.96457 | 7.25017 | 119° | 66km/h | 18129m | -7.6m/s | -54.5°C | 0.5% | 77.7hPa | 2.5V | 08:14:44 | 02:21:10 | 00:00:00 | |
| DM0DOS-11 | 2026-09-05 01:40:04 | 51.96467 | 7.24884 | 73° | 38km/h | 18179m | -8.5m/s | -54.7°C | 4% | 77.1hPa | 2.5V | 08:14:46 | 02:21:04 | 00:00:00 | |
| DO2JMG | 2026-09-05 01:40:03 | 51.96468 | 7.24968 | 102° | 62km/h | 18146m | -9.2m/s | -54.6°C | 0.5% | 77.5hPa | 2.5V | 08:14:44 | 02:21:08 | 00:00:00 | |
| DL1XH-west | 2026-09-05 01:40:01 | 51.96471 | 7.24921 | 87° | 53km/h | 18163m | -7.9m/s | -54.7°C | 0.4% | 77.3hPa | 2.6V | 08:14:44 | 02:21:06 | 00:00:00 | |
| SMARD9-15 | 2026-09-05 01:40:01 | 51.96469 | 7.24901 | 79° | 44km/h | 18171m | -8.3m/s | -54.7°C | 1.1% | 77.2hPa | 2.5V | 00:00:00 | 00:00:00 | 00:00:00 | |
| DF5WG-10 | 2026-09-05 01:40:00 | 51.96469 | 7.24901 | 80° | 29km/h | 18171m | -8.3m/s | -54.6°C | 4.0% | 77.1hPa | 2.5V | 00:00:00 | 02:21:05 | 00:00:00 | |
| GOEST3-10 | 2026-09-05 01:39:59 | 51.96467 | 7.24884 | 74° | 26km/h | 18180m | -8.5m/s | -54.7°C | 4.0% | 77.0hPa | 2.5V | 08:14:00 | 00:00:00 | 00:00:00 | |
| DJ2KF-10 | 2026-09-05 01:39:58 | 51.96464 | 7.24871 | 72° | 44km/h | 18188m | -8.7m/s | -54.7°C | 4.0% | 76.8hPa | 2.5V | 00:00:00 | 02:21:03 | 00:00:00 | |
| DL1XH-15 | 2026-09-05 01:39:56 | 51.96470 | 7.24831 | 138° | 29km/h | 18229m | -7.8m/s | -55.3°C | 4.3% | 76.5hPa | 2.5V | 08:14:52 | 02:20:58 | 00:00:00 | |
| HSKMA3-T | 2026-09-05 01:39:56 | 51.96462 | 7.24853 | 91° | 18km/h | 18206m | -8.8m/s | -54.9°C | 0.6% | 76.8hPa | 2.6V | 08:15:35 | 02:21:01 | 00:00:00 | |
| BIOWL1-15 | 2026-09-05 01:39:55 | 51.96463 | 7.24846 | 114° | 18km/h | 18214m | -8m/s | -55°C | 0.6% | 76.6hPa | 2.6V | 08:15:35 | 02:21:00 | 00:00:00 | |
| DO2JMG | 2026-09-05 01:39:52 | 51.96477 | 7.24822 | 136° | 37km/h | 18237m | -8.1m/s | -55.3°C | 0.7% | 76.4hPa | 2.5V | 08:15:35 | 02:20:57 | 00:00:00 | |
| DL1XH-west | 2026-09-05 01:39:51 | 51.96483 | 7.24811 | 134° | 42km/h | 18245m | -8.1m/s | -55.4°C | 0.7% | 76.3hPa | 2.6V | 08:15:35 | 02:20:56 | 00:00:00 | |
| DF5WG-10 | 2026-09-05 01:39:50 | 51.96491 | 7.24797 | 130° | 53km/h | 18254m | -8.9m/s | -55.3°C | 4.4% | 76.2hPa | 2.6V | 00:00:00 | 02:20:55 | 00:00:00 | |
| GOEST3-10 | 2026-09-05 01:39:49 | 51.96498 | 7.24782 | 126° | 53km/h | 18263m | -9.0m/s | -55.3°C | 4.4% | 76.0hPa | 2.5V | 00:00:00 | 00:00:00 | 00:00:00 | |
| DL1XH-15 | 2026-09-05 01:39:46 | 51.96515 | 7.24654 | 79° | 58km/h | 18314m | -8.4m/s | -54.8°C | 4.1% | 75.5hPa | 2.5V | 08:15:02 | 02:20:48 | 00:00:00 | |
| HSKMA3-T | 2026-09-05 01:39:46 | 51.96514 | 7.24724 | 102° | 57km/h | 18289m | -8.6m/s | -55°C | 0.6% | 75.8hPa | 2.5V | 08:15:35 | 02:20:51 | 00:00:00 | |
| HTAHTA | 2026-09-05 01:39:45 | 51.96516 | 7.24701 | 94° | 57km/h | 18297m | -8.6m/s | -54.9°C | 1.2% | 75.7hPa | 2.5V | 00:00:00 | 00:00:00 | 00:00:00 | |
| AA1-15 | 2026-09-05 01:39:42 | 51.96511 | 7.24632 | 74° | 53km/h | 18323m | -9.8m/s | -54.7°C | 0.5% | 75.4hPa | 2.5V | 08:15:35 | 02:20:47 | 00:00:00 | |
| DO2JMG | 2026-09-05 01:39:41 | 51.96508 | 7.24612 | 72° | 49km/h | 18333m | -9.2m/s | -54.6°C | 0.5% | 75.3hPa | 2.5V | 08:15:35 | 02:20:46 | 00:00:00 | |
| DL1XH-west | 2026-09-05 01:39:40 | 51.96504 | 7.24594 | 70° | 42km/h | 18342m | -8.8m/s | -54.6°C | 0.4% | 75.2hPa | 2.5V | 08:15:35 | 02:20:45 | 00:00:00 | |
| DF5WG-10 | 2026-09-05 01:39:40 | 51.96504 | 7.24594 | 70° | 40km/h | 18342m | -8.8m/s | -54.5°C | 4.0% | 75.1hPa | 2.5V | 00:00:00 | 02:20:45 | 00:00:00 | |
| DB0UT-7 | 2026-09-05 01:39:39 | 51.96501 | 7.24580 | 74° | 55km/h | 18350m | -8.5m/s | -54.5°C | 3.9% | 75.0hPa | 2.5V | 00:00:00 | 00:00:00 | 00:00:00 | |
| BIOWL9-15 | 2026-09-05 01:39:38 | 51.96500 | 7.24556 | 104° | 26km/h | 18367m | -7.8m/s | -54.6°C | 1.1% | 74.9hPa | 2.5V | 00:00:00 | 00:00:00 | 00:00:00 | |
| BIOWL7-15 | 2026-09-05 01:39:37 | 51.96500 | 7.24556 | 106° | 27km/h | 18367m | -7.8m/s | -54.6°C | 1.1% | 74.9hPa | 2.5V | 08:15:00 | 00:00:00 | 00:00:00 | |
| DL1XH-15 | 2026-09-05 01:39:36 | 51.96518 | 7.24497 | 110° | 55km/h | 18402m | -8.9m/s | -54.8°C | 4.1% | 74.4hPa | 2.5V | 08:15:12 | 02:20:38 | 00:00:00 | |
| AU51GT2 | 2026-09-05 01:39:36 | 51.96507 | 7.24532 | 120° | 40km/h | 18384m | -9.2m/s | -54.7°C | 1.1% | 74.7hPa | 2.6V | 00:00:00 | 00:00:00 | 00:00:00 | |
| DL4XJ-10 | 2026-09-05 01:39:35 | 51.96507 | 7.24532 | 121° | 53km/h | 18384m | -9.2m/s | -54.7°C | 0% | 0hPa | 2.6V | 00:00:00 | 00:00:00 | 00:00:00 | |
| DM0DOS-11 | 2026-09-05 01:39:34 | 51.96524 | 7.24395 | 80° | 68km/h | 18437m | -8.3m/s | -54.8°C | 4% | 74.1hPa | 2.6V | 08:15:16 | 02:20:34 | 00:00:00 | |
| HSKMA3-T | 2026-09-05 01:39:34 | 51.96513 | 7.24516 | 116° | 49km/h | 18393m | -9.4m/s | -54.7°C | 0.5% | 74.6hPa | 2.5V | 08:15:35 | 02:20:39 | 00:00:00 | |
| AA1-15 | 2026-09-05 01:39:32 | 51.96522 | 7.24474 | 104° | 60km/h | 18411m | -8.8m/s | -54.8°C | 0.5% | 74.4hPa | 2.5V | 08:15:35 | 02:20:37 | 00:00:00 | |
| DL1XH-west | 2026-09-05 01:39:30 | 51.96525 | 7.24422 | 88° | 68km/h | 18429m | -8.6m/s | -54.8°C | 0.5% | 74.1hPa | 2.6V | 08:15:35 | 02:20:35 | 00:00:00 | |
| SMARD9-15 | 2026-09-05 01:39:30 | 51.96524 | 7.24395 | 80° | 66km/h | 18437m | -8.3m/s | -54.8°C | 1.1% | 74.1hPa | 2.6V | 00:00:00 | 00:00:00 | 00:00:00 | |
| GOEST3-10 | 2026-09-05 01:39:29 | 51.96524 | 7.24395 | 81° | 60km/h | 18437m | -8.2m/s | -54.8°C | 4.0% | 74.0hPa | 2.6V | 00:00:00 | 00:00:00 | 00:00:00 | |
| DJ2KF-10 | 2026-09-05 01:39:28 | 51.96520 | 7.24369 | 74° | 60km/h | 18446m | -8.2m/s | -54.8°C | 4.1% | 73.9hPa | 2.5V | 00:00:00 | 02:20:33 | 00:00:00 | |
| DL1LOL-11 | 2026-09-05 01:39:26 | 51.96515 | 7.24344 | 70° | 62km/h | 18454m | -9.3m/s | -54.8°C | 1.1% | 73.8hPa | 2.5V | 08:15:00 | 00:00:00 | 00:00:00 | |
| DJ3KS | 2026-09-05 01:39:25 | 51.96510 | 7.24322 | 69° | 57km/h | 18464m | -9.7m/s | 0°C | 0% | 0hPa | 2.5V | 00:00:00 | 00:00:00 | 00:00:00 | |
| DM0DOS-11 | 2026-09-05 01:39:24 | 51.96505 | 7.24190 | 106° | 53km/h | 18523m | -8.8m/s | -54.9°C | 4% | 73.1hPa | 2.5V | 08:15:26 | 02:20:24 | 00:00:00 | |
| HSKMA3-T | 2026-09-05 01:39:24 | 51.96500 | 7.24282 | 74° | 46km/h | 18481m | -8.5m/s | -54.8°C | 0.5% | 73.6hPa | 2.5V | 08:15:35 | 02:20:29 | 00:00:00 | |
| BIOWL1-15 | 2026-09-05 01:39:21 | 51.96499 | 7.24230 | 100° | 46km/h | 18506m | -8.3m/s | -54.9°C | 0.5% | 73.3hPa | 2.6V | 08:15:35 | 02:20:26 | 00:00:00 | |
| DL1XH-west | 2026-09-05 01:39:20 | 51.96502 | 7.24210 | 105° | 51km/h | 18514m | -8.4m/s | -54.9°C | 0.5% | 73.2hPa | 2.5V | 08:15:35 | 02:20:25 | 00:00:00 | |
| DO2JMG | 2026-09-05 01:39:19 | 51.96505 | 7.24190 | 107° | 53km/h | 18523m | -8.8m/s | -54.9°C | 0.4% | 73.1hPa | 2.5V | 08:15:35 | 02:20:24 | 00:00:00 | |
| GOEST3-10 | 2026-09-05 01:39:19 | 51.96505 | 7.24190 | 107° | 58km/h | 18523m | -8.7m/s | -54.9°C | 4.0% | 73.0hPa | 2.5V | 00:00:00 | 00:00:00 | 00:00:00 | |
| DO3DL | 2026-09-05 01:39:17 | 51.96510 | 7.24169 | 109° | 57km/h | 18532m | -8.7m/s | -55.0°C | 1.1% | 73.0hPa | 2.5V | 08:15:00 | 00:00:00 | 00:00:00 | |
| DL1XH-15 | 2026-09-05 01:39:16 | 51.96527 | 7.24045 | 91° | 69km/h | 18578m | -8.2m/s | -55.3°C | 4.2% | 72.4hPa | 2.5V | 08:15:32 | 02:20:18 | 00:00:00 | |
| DO2KSM | 2026-09-05 01:39:15 | 51.96518 | 7.24123 | 108° | 60km/h | 18550m | -9.9m/s | -55.1°C | 1.2% | 72.8hPa | 2.6V | 08:15:00 | 00:00:00 | 00:00:00 | |
| DM0DOS-11 | 2026-09-05 01:39:14 | 51.96510 | 7.23931 | 65° | 73km/h | 18611m | -8.5m/s | -55.2°C | 4.2% | 72.1hPa | 2.6V | 08:15:36 | 02:20:14 | 00:00:00 | |
| HSKMA3-T | 2026-09-05 01:39:13 | 51.96527 | 7.24045 | 91° | 69km/h | 18578m | -8.2m/s | -55.3°C | 0.6% | 72.4hPa | 2.5V | 08:15:35 | 02:20:18 | 00:00:00 | |
| DL1XH-west | 2026-09-05 01:39:10 | 51.96517 | 7.23959 | 70° | 73km/h | 18603m | -8.5m/s | -55.3°C | 0.6% | 72.2hPa | 2.6V | 08:15:35 | 02:20:15 | 00:00:00 | |
| DO2JMG | 2026-09-05 01:39:08 | 51.96502 | 7.23905 | 61° | 71km/h | 18620m | -8.7m/s | -55.2°C | 0.5% | 72hPa | 2.6V | 08:16:26 | 02:20:13 | 00:00:00 | |
| HSKMA3-T | 2026-09-05 01:39:02 | 51.96460 | 7.23759 | 82° | 62km/h | 18676m | -7.7m/s | -55.5°C | 0.6% | 71.4hPa | 2.6V | 08:16:26 | 02:20:07 | 00:00:00 | |
| DB0ND-19 | 2026-09-05 01:39:02 | 51.96459 | 7.23733 | 90° | 60km/h | 18683m | -7.3m/s | -55.4°C | 1.2% | 71.3hPa | 2.5V | 00:00:00 | 00:00:00 | 00:00:00 | |
| DM0DOS-11 | 2026-09-05 01:39:00 | 51.96461 | 7.23683 | 97° | 62km/h | 18699m | -9m/s | -55.3°C | 4.3% | 71.1hPa | 2.5V | 08:15:46 | 02:20:04 | 00:00:00 | |
| BIOWL1-15 | 2026-09-05 01:39:00 | 51.96460 | 7.23708 | 96° | 62km/h | 18691m | -8.1m/s | -55.3°C | 0.6% | 71.2hPa | 2.6V | 08:16:26 | 02:20:05 | 00:00:00 | |
| DL1XH-west | 2026-09-05 01:38:59 | 51.96462 | 7.23683 | 98° | 62km/h | 18699m | -9m/s | -55.3°C | 0.6% | 71.1hPa | 2.5V | 08:16:26 | 02:20:04 | 00:00:00 | |
| DO2JMG | 2026-09-05 01:38:57 | 51.96465 | 7.23631 | 94° | 66km/h | 18718m | -10.1m/s | -55.3°C | 0.6% | 70.8hPa | 2.5V | 08:16:26 | 02:20:02 | 00:00:00 | |
| HSKMA3-T | 2026-09-05 01:38:52 | 51.96448 | 7.23492 | 63° | 68km/h | 18763m | -8.6m/s | -55.1°C | 0.5% | 70.4hPa | 2.5V | 08:16:26 | 02:19:57 | 00:00:00 | |
| BUE01 | 2026-09-05 01:38:52 | 51.96440 | 7.23469 | 57° | 62km/h | 18771m | -8.9m/s | -55.1°C | 1.2% | 70.3hPa | 2.6V | 00:00:00 | 00:00:00 | 00:00:00 | |
| MET0W-2 | 2026-09-05 01:38:51 | 51.96431 | 7.23449 | 56° | 57km/h | 18781m | -9.7m/s | -55.1°C | 1.1% | 70.2hPa | 2.6V | 00:00:00 | 00:00:00 | 00:00:00 | |
| DM0DOS-11 | 2026-09-05 01:38:50 | 51.96424 | 7.23430 | 57° | 51km/h | 18790m | -9.6m/s | -55°C | 4.2% | 70.1hPa | 2.6V | 08:15:56 | 02:19:54 | 00:00:00 | |
| AA1-15 | 2026-09-05 01:38:49 | 51.96424 | 7.23430 | 57° | 51km/h | 18791m | -9.6m/s | -55°C | 0.5% | 70.1hPa | 2.6V | 08:16:26 | 02:19:54 | 00:00:00 | |
| DL1XH-west | 2026-09-05 01:38:48 | 51.96418 | 7.23413 | 61° | 44km/h | 18800m | -9.3m/s | -55°C | 0.6% | 70hPa | 2.6V | 08:16:26 | 02:19:53 | 00:00:00 | |
| DO2JMG | 2026-09-05 01:38:46 | 51.96411 | 7.23383 | 82° | 37km/h | 18817m | -8m/s | -55°C | 0.5% | 69.8hPa | 2.5V | 08:16:26 | 02:19:51 | 00:00:00 | |
| HSKMA3-T | 2026-09-05 01:38:41 | 51.96420 | 7.23300 | 99° | 47km/h | 18862m | -9m/s | -54.9°C | 0.5% | 69.3hPa | 2.6V | 08:16:26 | 02:19:46 | 00:00:00 | |
| DM0DOS-11 | 2026-09-05 01:38:40 | 51.96421 | 7.23259 | 88° | 53km/h | 18880m | -9.2m/s | -54.6°C | 4.1% | 69.1hPa | 2.6V | 08:16:06 | 02:19:44 | 00:00:00 | |
| BIOWL1-15 | 2026-09-05 01:38:39 | 51.96421 | 7.23259 | 88° | 53km/h | 18880m | -9.2m/s | -54.7°C | 0.5% | 69.1hPa | 2.6V | 08:16:26 | 02:19:44 | 00:00:00 | |
| AA1-15 | 2026-09-05 01:38:38 | 51.96420 | 7.23238 | 82° | 53km/h | 18889m | -8.6m/s | -54.6°C | 0.4% | 69hPa | 2.5V | 08:16:26 | 02:19:43 | 00:00:00 | |
| DL1XH-west | 2026-09-05 01:38:37 | 51.96418 | 7.23216 | 77° | 53km/h | 18898m | -8.4m/s | -54.6°C | 0.4% | 68.9hPa | 2.5V | 08:16:26 | 02:19:42 | 00:00:00 | |
| DO2JMG | 2026-09-05 01:38:35 | 51.96411 | 7.23173 | 74° | 57km/h | 18916m | -9.2m/s | -54.5°C | 0.4% | 68.7hPa | 2.5V | 08:16:26 | 02:19:40 | 00:00:00 | |
| BIOWL1-15 | 2026-09-05 01:38:32 | 51.96374 | 7.22996 | 68° | 66km/h | 18980m | -10.6m/s | -54.4°C | 0.4% | 68hPa | 2.6V | 08:16:26 | 02:19:33 | 00:00:00 | |
| HSKMA3-T | 2026-09-05 01:38:30 | 51.96387 | 7.23049 | 71° | 71km/h | 18960m | -9.2m/s | -54.3°C | 0.4% | 68.2hPa | 2.5V | 08:16:26 | 02:19:35 | 00:00:00 | |
| AA1-15 | 2026-09-05 01:38:27 | 51.96368 | 7.22972 | 66° | 60km/h | 18990m | -9.8m/s | -54.4°C | 0.5% | 67.9hPa | 2.6V | 08:16:26 | 02:19:32 | 00:00:00 | |
| DL1XH-west | 2026-09-05 01:38:26 | 51.96363 | 7.22952 | 69° | 51km/h | 19000m | -9.8m/s | -54.5°C | 0.5% | 67.8hPa | 2.6V | 08:16:26 | 02:19:31 | 00:00:00 | |
| DO2JMG | 2026-09-05 01:38:25 | 51.96359 | 7.22933 | 76° | 44km/h | 19009m | -8.8m/s | -54.5°C | 0.5% | 67.7hPa | 2.5V | 08:16:26 | 02:19:30 | 00:00:00 | |
| BIOWL1-15 | 2026-09-05 01:38:20 | 51.96380 | 7.22809 | 105° | 58km/h | 19075m | -9.8m/s | -54.2°C | 0.4% | 67.1hPa | 2.6V | 08:17:17 | 02:19:23 | 00:00:00 | |
| HSKMA3-T | 2026-09-05 01:38:20 | 51.96371 | 7.22851 | 113° | 51km/h | 19055m | -10.2m/s | -54°C | 0.4% | 67.2hPa | 2.6V | 08:16:26 | 02:19:25 | 00:00:00 | |
| AA1-15 | 2026-09-05 01:38:16 | 51.96384 | 7.22761 | 88° | 60km/h | 19094m | -9.2m/s | -54.4°C | 0.5% | 66.9hPa | 2.5V | 08:17:17 | 02:19:21 | 00:00:00 | |
| DL1XH-west | 2026-09-05 01:38:15 | 51.96382 | 7.22737 | 80° | 58km/h | 19103m | -8.7m/s | -54.4°C | 0.5% | 66.7hPa | 2.5V | 08:17:17 | 02:19:20 | 00:00:00 | |
| DO2JMG | 2026-09-05 01:38:14 | 51.96379 | 7.22714 | 72° | 57km/h | 19112m | -9.1m/s | -54.4°C | 0.5% | 66.7hPa | 2.5V | 08:17:17 | 02:19:19 | 00:00:00 | |
| HSKMA3-T | 2026-09-05 01:38:09 | 51.96348 | 7.22626 | 53° | 47km/h | 19159m | -10.5m/s | -53.9°C | 0.4% | 66.1hPa | 2.5V | 08:17:17 | 02:19:14 | 00:00:00 | |
| EDDB2-12 | 2026-09-05 01:38:09 | 51.96341 | 7.22610 | 54° | 47km/h | 19170m | -10.4m/s | -53.7°C | 1.0% | 66.0hPa | 2.5V | 00:00:00 | 00:00:00 | 00:00:00 | |
| DL1XH-15 | 2026-09-05 01:38:08 | 51.96317 | 7.22519 | 83° | 51km/h | 19216m | -8.4m/s | -53.5°C | 3.9% | 65.6hPa | 2.5V | 08:16:42 | 02:19:08 | 00:00:00 | |
| BIOWL1-15 | 2026-09-05 01:38:08 | 51.96341 | 7.22610 | 54° | 47km/h | 19169m | -10.4m/s | -53.7°C | 0.4% | 66hPa | 2.5V | 08:17:17 | 02:19:13 | 00:00:00 | |
| DL1XH-west | 2026-09-05 01:38:05 | 51.96323 | 7.22558 | 69° | 47km/h | 19199m | -9m/s | -53.5°C | 0.4% | 65.7hPa | 2.6V | 08:17:17 | 02:19:10 | 00:00:00 | |
| DO2JMG | 2026-09-05 01:38:04 | 51.96319 | 7.22539 | 77° | 49km/h | 19208m | -8.7m/s | -53.5°C | 0.3% | 65.6hPa | 2.5V | 08:17:17 | 02:19:09 | 00:00:00 | |
| HSKMA3-T | 2026-09-05 01:37:58 | 51.96309 | 7.22406 | 74° | 60km/h | 19263m | -9.6m/s | -53.6°C | 0.4% | 65.1hPa | 2.5V | 08:17:17 | 02:19:03 | 00:00:00 | |
| BIOWL1-15 | 2026-09-05 01:37:57 | 51.96304 | 7.22383 | 69° | 60km/h | 19273m | -9.7m/s | -53.5°C | 0.4% | 65hPa | 2.5V | 08:17:17 | 02:19:02 | 00:00:00 | |
| DL1XH-15 | 2026-09-05 01:37:56 | 51.96275 | 7.22306 | 46° | 51km/h | 19310m | -8.9m/s | -52.9°C | 3.7% | 64.6hPa | 2.6V | 08:16:52 | 02:18:58 | 00:00:00 | |
| AA1-15 | 2026-09-05 01:37:55 | 51.96291 | 7.22341 | 59° | 57km/h | 19292m | -9.3m/s | -53°C | 0.3% | 64.8hPa | 2.5V | 08:17:17 | 02:19:00 | 00:00:00 | |
| DL1XH-west | 2026-09-05 01:37:54 | 51.96284 | 7.22322 | 54° | 53km/h | 19301m | -8.8m/s | -52.9°C | 0.2% | 64.7hPa | 2.6V | 08:17:17 | 02:18:59 | 00:00:00 | |
| DO2JMG | 2026-09-05 01:37:53 | 51.96275 | 7.22306 | 47° | 51km/h | 19310m | -8.9m/s | -52.9°C | 0.2% | 64.6hPa | 2.6V | 08:17:17 | 02:18:58 | 00:00:00 | |
| BIOWL1-15 | 2026-09-05 01:37:48 | 51.96222 | 7.22227 | 51° | 31km/h | 19377m | -10m/s | -53.2°C | 0.3% | 64hPa | 2.6V | 08:17:17 | 02:18:51 | 00:00:00 | |
| HSKMA3-T | 2026-09-05 01:37:47 | 51.96227 | 7.22237 | 43° | 35km/h | 19367m | -10.1m/s | -53.2°C | 0.3% | 64.1hPa | 2.6V | 08:17:17 | 02:18:52 | 00:00:00 | |
| DJ2DS-15 | 2026-09-05 01:37:47 | 51.96222 | 7.22227 | 51° | 29km/h | 19377m | -10.0m/s | -53.2°C | 1.0% | 64.0hPa | 2.5V | 00:00:00 | 00:00:00 | 00:00:00 | |
| DL1XH-15 | 2026-09-05 01:37:46 | 51.96215 | 7.22194 | 85° | 33km/h | 19406m | -10.6m/s | -53.1°C | 3.8% | 63.7hPa | 2.5V | 08:17:02 | 02:18:48 | 00:00:00 | |
| WPPR-10 | 2026-09-05 01:37:46 | 51.96222 | 7.22227 | 51° | 29km/h | 19377m | -10.0m/s | -53.2°C | 1.0% | 64.0hPa | 2.5V | 00:00:00 | 00:00:00 | 00:00:00 | |
| DL3AQ-11 | 2026-09-05 01:37:45 | 51.96218 | 7.22218 | 64° | 26km/h | 19386m | -8.9m/s | -53.2°C | 1.0% | 63.9hPa | 2.5V | 00:00:00 | 00:00:00 | 00:00:00 | |
| AA1-15 | 2026-09-05 01:37:44 | 51.96216 | 7.22207 | 78° | 29km/h | 19396m | -9.4m/s | -53.2°C | 0.3% | 63.8hPa | 2.5V | 08:17:17 | 02:18:49 | 00:00:00 | |
| DL1XH-west | 2026-09-05 01:37:43 | 51.96215 | 7.22194 | 86° | 33km/h | 19406m | -10.6m/s | -53.1°C | 0.3% | 63.7hPa | 2.5V | 08:17:17 | 02:18:48 | 00:00:00 | |
| HSKMA3-T | 2026-09-05 01:37:37 | 51.96215 | 7.22070 | 88° | 62km/h | 19463m | -9.6m/s | -52.9°C | 0.3% | 63.1hPa | 2.6V | 08:17:17 | 02:18:42 | 00:00:00 | |
| DL1XH-15 | 2026-09-05 01:37:36 | 51.96212 | 7.21971 | 89° | 58km/h | 19501m | -9.4m/s | -52.6°C | 3.8% | 62.8hPa | 2.5V | 08:17:12 | 02:18:38 | 00:00:00 | |
| BIOWL1-15 | 2026-09-05 01:37:35 | 51.96213 | 7.22019 | 87° | 62km/h | 19482m | -9.4m/s | -52.6°C | 0.3% | 63hPa | 2.5V | 08:17:17 | 02:18:40 | 00:00:00 | |
| AA1-15 | 2026-09-05 01:37:34 | 51.96212 | 7.21995 | 87° | 60km/h | 19491m | -9.8m/s | -52.6°C | 0.2% | 62.9hPa | 2.5V | 08:17:17 | 02:18:39 | 00:00:00 | |
| DL1XH-west | 2026-09-05 01:37:32 | 51.96212 | 7.21947 | 90° | 58km/h | 19510m | -9.2m/s | -52.5°C | 0.2% | 62.7hPa | 2.5V | 08:17:17 | 02:18:37 | 00:00:00 | |
| BIOWL1-15 | 2026-09-05 01:37:28 | 51.96221 | 7.21733 | 90° | 69km/h | 19587m | -10.7m/s | -51.7°C | 0.1% | 61.9hPa | 2.5V | 08:18:08 | 02:18:29 | 00:00:00 | |
| DJ2KF-10 | 2026-09-05 01:37:28 | 51.96215 | 7.21846 | 96° | 53km/h | 19547m | -9.3m/s | -52.1°C | 3.6% | 62.3hPa | 2.5V | 08:17:00 | 02:18:33 | 00:00:00 | |
| SONCRA | 2026-09-05 01:37:27 | 51.96217 | 7.21819 | 96° | 68km/h | 19557m | -9.4m/s | -52.0°C | 0.9% | 62.2hPa | 2.5V | 00:00:00 | 00:00:00 | 00:00:00 | |
| DL1XH-15 | 2026-09-05 01:37:26 | 51.96221 | 7.21706 | 85° | 66km/h | 19597m | -10.1m/s | -51.7°C | 3.5% | 61.8hPa | 2.5V | 08:17:22 | 02:18:28 | 00:00:00 | |
| HSKMA3-T | 2026-09-05 01:37:26 | 51.96219 | 7.21791 | 96° | 71km/h | 19566m | -9.8m/s | -51.8°C | 0.1% | 62.1hPa | 2.6V | 08:18:59 | 02:18:31 | 00:00:00 | |
| AA1-15 | 2026-09-05 01:37:23 | 51.96221 | 7.21706 | 85° | 66km/h | 19597m | -10.1m/s | -51.7°C | 0.1% | 61.8hPa | 2.5V | 08:18:08 | 02:18:28 | 00:00:00 | |
| DO2JMG | 2026-09-05 01:37:22 | 51.96219 | 7.21680 | 81° | 60km/h | 19607m | -10.2m/s | -51.7°C | 0.1% | 61.7hPa | 2.5V | 08:18:08 | 02:18:27 | 00:00:00 | |
| DL1XH-west | 2026-09-05 01:37:21 | 51.96216 | 7.21657 | 78° | 53km/h | 19618m | -10.3m/s | -51.7°C | 0.1% | 61.6hPa | 2.5V | 08:18:08 | 02:18:26 | 00:00:00 | |
| DM0DOS-11 | 2026-09-05 01:37:20 | 51.96212 | 7.21622 | 86° | 35km/h | 19637m | -9.4m/s | -51.8°C | 3.5% | 61.5hPa | 2.6V | 08:17:26 | 02:18:24 | 00:00:00 | |
| GOEST3-10 | 2026-09-05 01:37:19 | 51.96212 | 7.21622 | 87° | 33km/h | 19638m | -9.4m/s | -51.8°C | 3.5% | 61.4hPa | 2.6V | 00:00:00 | 00:00:00 | 00:00:00 | |
| MET0W-2 | 2026-09-05 01:37:18 | 51.96216 | 7.21599 | 122° | 27km/h | 19656m | -9.1m/s | -51.9°C | 0.9% | 61.3hPa | 2.6V | 00:00:00 | 00:00:00 | 00:00:00 | |
| DL1XH-15 | 2026-09-05 01:37:16 | 51.96243 | 7.21554 | 134° | 49km/h | 19696m | -10m/s | -52.1°C | 3.6% | 60.9hPa | 2.6V | 08:17:32 | 02:18:18 | 00:00:00 | |
| BIOWL1-15 | 2026-09-05 01:37:14 | 51.96235 | 7.21568 | 137° | 44km/h | 19686m | -10.3m/s | -52°C | 0.2% | 61hPa | 2.5V | 08:18:08 | 02:18:19 | 00:00:00 | |
| DO2JMG | 2026-09-05 01:37:12 | 51.96252 | 7.21538 | 130° | 55km/h | 19707m | -10.3m/s | -52.1°C | 0.2% | 60.8hPa | 2.6V | 08:18:08 | 02:18:17 | 00:00:00 | |
| DO2KSM | 2026-09-05 01:37:11 | 51.96252 | 7.21538 | 131° | 55km/h | 19707m | -10.3m/s | -52.1°C | 0.9% | 60.8hPa | 2.5V | 08:18:00 | 00:00:00 | 00:00:00 | |
| DM0DOS-11 | 2026-09-05 01:37:10 | 51.96276 | 7.21476 | 112° | 66km/h | 19737m | -10m/s | -52.2°C | 3.6% | 60.5hPa | 2.5V | 08:17:36 | 02:18:14 | 00:00:00 | |
| DF5WG-10 | 2026-09-05 01:37:10 | 51.96269 | 7.21499 | 120° | 53km/h | 19727m | -10.0m/s | -52.1°C | 3.6% | 60.6hPa | 2.5V | 00:00:00 | 02:18:15 | 00:00:00 | |
| DL1XH-west | 2026-09-05 01:37:10 | 51.96269 | 7.21499 | 120° | 62km/h | 19727m | -10m/s | -52.2°C | 0.2% | 60.6hPa | 2.5V | 08:18:08 | 02:18:15 | 00:00:00 | |
| DB0UT-7 | 2026-09-05 01:37:09 | 51.96276 | 7.21476 | 113° | 44km/h | 19738m | -10.0m/s | -52.1°C | 3.6% | 60.5hPa | 2.5V | 00:00:00 | 02:18:14 | 00:00:00 | |
| DL1XH-15 | 2026-09-05 01:37:08 | 51.96283 | 7.21336 | 78° | 42km/h | 19798m | -10.1m/s | -52.3°C | 3.6% | 60hPa | 2.5V | 08:17:42 | 02:18:08 | 00:00:00 | |
| BIOWL1-15 | 2026-09-05 01:37:03 | 51.96283 | 7.21336 | 79° | 42km/h | 19798m | -10.1m/s | -52.3°C | 0.2% | 60hPa | 2.5V | 08:18:08 | 02:18:08 | 00:00:00 | |
| DO2JMG | 2026-09-05 01:37:01 | 51.96280 | 7.21309 | 85° | 27km/h | 19817m | -10.2m/s | -52.3°C | 0.2% | 59.8hPa | 2.5V | 08:18:08 | 02:18:06 | 00:00:00 | |
| DM0DOS-11 | 2026-09-05 01:37:00 | 51.96281 | 7.21290 | 120° | 22km/h | 19838m | -10.1m/s | -52.3°C | 3.5% | 59.6hPa | 2.6V | 08:17:46 | 02:18:04 | 00:00:00 | |
| DL1XH-west | 2026-09-05 01:37:00 | 51.96280 | 7.21299 | 99° | 22km/h | 19828m | -10.7m/s | -52.3°C | 0.1% | 59.7hPa | 2.6V | 08:18:08 | 02:18:05 | 00:00:00 | |
| DB0ND-19 | 2026-09-05 01:36:58 | 51.96291 | 7.21276 | 146° | 31km/h | 19858m | -10.2m/s | -52.4°C | 0.9% | 59.4hPa | 2.6V | 00:00:00 | 00:00:00 | 00:00:00 | |
| SONCRA | 2026-09-05 01:36:56 | 51.96299 | 7.21268 | 148° | 40km/h | 19869m | -10.2m/s | -52.5°C | 0.9% | 59.3hPa | 2.6V | 00:00:00 | 00:00:00 | 00:00:00 | |
| DD1CC1-15 | 2026-09-05 01:36:55 | 51.96299 | 7.21268 | 150° | 40km/h | 19869m | -10.2m/s | -52.5°C | 0.9% | 59.3hPa | 2.6V | 08:18:00 | 00:00:00 | 00:00:00 | |
| DM0DOS-11 | 2026-09-05 01:36:54 | 51.96360 | 7.21149 | 104° | 60km/h | 19939m | -9.6m/s | -52.4°C | 3.5% | 58.7hPa | 2.6V | 08:17:56 | 02:17:54 | 00:00:00 | |
| BIOWL1-15 | 2026-09-05 01:36:53 | 51.96329 | 7.21232 | 136° | 57km/h | 19900m | -10.5m/s | -52.5°C | 0.3% | 59hPa | 2.5V | 08:18:08 | 02:17:58 | 00:00:00 | |
| AA1-15 | 2026-09-05 01:36:51 | 51.96348 | 7.21195 | 121° | 62km/h | 19920m | -9.5m/s | -52.4°C | 0.2% | 58.8hPa | 2.5V | 08:18:08 | 02:17:56 | 00:00:00 | |
| DO2JMG | 2026-09-05 01:36:50 | 51.96355 | 7.21172 | 113° | 62km/h | 19930m | -9.3m/s | -52.4°C | 0.2% | 58.8hPa | 2.5V | 08:18:08 | 02:17:55 | 00:00:00 | |
| DL1XH-west | 2026-09-05 01:36:49 | 51.96360 | 7.21149 | 105° | 60km/h | 19939m | -9.6m/s | -52.4°C | 0.2% | 58.7hPa | 2.6V | 08:18:08 | 02:17:54 | 00:00:00 | |
| BUE01 | 2026-09-05 01:36:47 | 51.96364 | 7.21104 | 93° | 49km/h | 19959m | -10.5m/s | -52.4°C | 0.9% | 58.5hPa | 2.6V | 00:00:00 | 00:00:00 | 00:00:00 | |
| BIOWL1-15 | 2026-09-05 01:36:42 | 51.96366 | 7.21030 | 105° | 26km/h | 20009m | -9.5m/s | -52.6°C | 0.3% | 58.1hPa | 2.6V | 08:18:08 | 02:17:47 | 00:00:00 | |
| AA1-15 | 2026-09-05 01:36:40 | 51.96371 | 7.21011 | 121° | 26km/h | 20028m | -9.7m/s | -52.7°C | 0.3% | 57.9hPa | 2.5V | 08:18:08 | 02:17:45 | 00:00:00 | |
| DO2JMG | 2026-09-05 01:36:39 | 51.96375 | 7.21002 | 126° | 27km/h | 20038m | -9.2m/s | -52.8°C | 0.3% | 57.8hPa | 2.5V | 08:18:08 | 02:17:44 | 00:00:00 | |
| DL1XH-west | 2026-09-05 01:36:38 | 51.96379 | 7.20993 | 129° | 27km/h | 20047m | -9.3m/s | -52.8°C | 0.3% | 57.7hPa | 2.5V | 08:18:08 | 02:17:43 | 00:00:00 | |
| DL1ZP-14 | 2026-09-05 01:36:37 | 51.96388 | 7.20977 | 136° | 24km/h | 20067m | -9.7m/s | -52.9°C | 0.9% | 57.5hPa | 2.6V | 00:00:00 | 00:00:00 | 00:00:00 | |
| EDDB2-12 | 2026-09-05 01:36:36 | 51.96392 | 7.20970 | 142° | 24km/h | 20076m | -9.1m/s | -53.0°C | 1.0% | 57.5hPa | 2.6V | 00:00:00 | 00:00:00 | 00:00:00 | |
| DB0NH | 2026-09-05 01:36:35 | 51.96392 | 7.20970 | 143° | 35km/h | 20076m | -9.1m/s | -52.9°C | 3.7% | 57.4hPa | 2.6V | 00:00:00 | 02:17:40 | 00:00:00 | |
| DM0DOS-11 | 2026-09-05 01:36:34 | 51.96424 | 7.20953 | 161° | 26km/h | 20137m | -10.9m/s | -53.1°C | 3.8% | 56.9hPa | 2.6V | 08:18:16 | 02:17:34 | 00:00:00 | |
| BIOWL1-15 | 2026-09-05 01:36:31 | 51.96413 | 7.20957 | 173° | 22km/h | 20115m | -10.5m/s | -53.1°C | 0.3% | 57.1hPa | 2.6V | 08:18:59 | 02:17:36 | 00:00:00 | |
| AA1-15 | 2026-09-05 01:36:30 | 51.96418 | 7.20956 | 170° | 22km/h | 20126m | -10.8m/s | -53.1°C | 0.3% | 57hPa | 2.6V | 08:18:59 | 02:17:35 | 00:00:00 | |
| DL1XH-west | 2026-09-05 01:36:28 | 51.96430 | 7.20949 | 152° | 31km/h | 20147m | -9.8m/s | -53.2°C | 0.3% | 56.8hPa | 2.5V | 08:18:59 | 02:17:33 | 00:00:00 | |
| DJ2KF-10 | 2026-09-05 01:36:28 | 51.96430 | 7.20949 | 153° | 44km/h | 20148m | -9.8m/s | -53.1°C | 3.8% | 56.7hPa | 2.6V | 00:00:00 | 02:17:33 | 00:00:00 | |
| DH3RM | 2026-09-05 01:36:26 | 51.96437 | 7.20941 | 140° | 35km/h | 20157m | -8.8m/s | -53.1°C | 1.0% | 56.7hPa | 2.6V | 08:18:00 | 00:00:00 | 00:00:00 | |
| SONCRA | 2026-09-05 01:36:25 | 51.96448 | 7.20915 | 114° | 42km/h | 20175m | -9.3m/s | -53.3°C | 1.0% | 56.6hPa | 2.6V | 00:00:00 | 00:00:00 | 00:00:00 | |
| GOEST3-10 | 2026-09-05 01:36:24 | 51.96452 | 7.20898 | 106° | 47km/h | 20185m | -9.6m/s | -53.3°C | 3.8% | 56.4hPa | 2.6V | 00:00:00 | 02:17:29 | 00:00:00 | |
| HSKMA3-T | 2026-09-05 01:36:24 | 51.96452 | 7.20898 | 106° | 46km/h | 20184m | -9.6m/s | -53.3°C | 0.3% | 56.5hPa | 2.6V | 08:18:59 | 02:17:29 | 00:00:00 | |
| SMARD9-15 | 2026-09-05 01:36:23 | 51.96455 | 7.20879 | 98° | 47km/h | 20194m | -10.2m/s | -53.4°C | 1.0% | 56.4hPa | 2.6V | 00:00:00 | 00:00:00 | 00:00:00 | |
| DM0DOS-11 | 2026-09-05 01:36:22 | 51.96454 | 7.20802 | 77° | 46km/h | 20237m | -10.3m/s | -53.3°C | 3.8% | 56hPa | 2.6V | 08:18:26 | 02:17:24 | 00:00:00 | |
| BIOWL1-15 | 2026-09-05 01:36:22 | 51.96456 | 7.20820 | 85° | 47km/h | 20226m | -10.8m/s | -53.3°C | 0.3% | 56.1hPa | 2.5V | 08:18:59 | 02:17:25 | 00:00:00 | |
| AA1-15 | 2026-09-05 01:36:19 | 51.96454 | 7.20802 | 77° | 46km/h | 20237m | -10.3m/s | -53.3°C | 0.4% | 56hPa | 2.6V | 08:18:59 | 02:17:24 | 00:00:00 | |
| DO2JMG | 2026-09-05 01:36:18 | 51.96451 | 7.20784 | 70° | 42km/h | 20247m | -9.5m/s | -53.3°C | 0.3% | 55.9hPa | 2.6V | 08:18:59 | 02:17:23 | 00:00:00 | |
| DL1XH-west | 2026-09-05 01:36:17 | 51.96447 | 7.20769 | 63° | 38km/h | 20256m | -9.6m/s | -53.2°C | 0.3% | 55.8hPa | 2.5V | 08:18:59 | 02:17:22 | 00:00:00 | |
| DO3DL | 2026-09-05 01:36:16 | 51.96447 | 7.20769 | 64° | 38km/h | 20256m | -9.6m/s | -53.2°C | 1.0% | 55.8hPa | 2.5V | 08:18:00 | 00:00:00 | 00:00:00 | |
| DC4HF-4 | 2026-09-05 01:36:15 | 51.96438 | 7.20745 | 57° | 29km/h | 20276m | -10.0m/s | -53.1°C | 0.9% | 55.7hPa | 2.5V | 00:00:00 | 00:00:00 | 00:00:00 | |
| DM0DOS-11 | 2026-09-05 01:36:14 | 51.96425 | 7.20668 | 80° | 49km/h | 20339m | -12m/s | -53.3°C | 3.8% | 55.1hPa | 2.5V | 08:18:36 | 02:17:14 | 00:00:00 | |
| BIOWL1-15 | 2026-09-05 01:36:09 | 51.96425 | 7.20668 | 81° | 49km/h | 20339m | -12m/s | -53.3°C | 0.3% | 55.1hPa | 2.5V | 08:18:59 | 02:17:14 | 00:00:00 | |
| AA1-15 | 2026-09-05 01:36:08 | 51.96423 | 7.20647 | 81° | 55km/h | 20351m | -11.8m/s | -53.3°C | 0.3% | 55hPa | 2.5V | 08:18:59 | 02:17:13 | 00:00:00 | |
| DO2JMG | 2026-09-05 01:36:07 | 51.96421 | 7.20623 | 81° | 62km/h | 20362m | -11.3m/s | -53.3°C | 0.3% | 55hPa | 2.5V | 08:18:59 | 02:17:12 | 00:00:00 | |
| DL1XH-15 | 2026-09-05 01:36:06 | 51.96414 | 7.20521 | 84° | 58km/h | 20408m | -11.1m/s | -53.3°C | 4% | 54.5hPa | 2.5V | 08:18:42 | 02:17:08 | 00:00:00 | |
| DL1XH-west | 2026-09-05 01:36:06 | 51.96418 | 7.20598 | 83° | 64km/h | 20374m | -12.1m/s | -53.3°C | 0.4% | 54.8hPa | 2.6V | 08:18:59 | 02:17:11 | 00:00:00 | |
| DL1ZP-14 | 2026-09-05 01:36:06 | 51.96417 | 7.20572 | 84° | 64km/h | 20386m | -11.2m/s | -53.3°C | 1.0% | 54.7hPa | 2.6V | 00:00:00 | 00:00:00 | 00:00:00 | |
| DF2AP-13 | 2026-09-05 01:36:04 | 51.96415 | 7.20546 | 86° | 42km/h | 20397m | -11.4m/s | -53.2°C | 4.0% | 54.6hPa | 2.5V | 00:00:00 | 02:17:09 | 00:00:00 | |
| DO3DL | 2026-09-05 01:36:03 | 51.96415 | 7.20546 | 87° | 62km/h | 20397m | -11.5m/s | -53.3°C | 1.0% | 54.6hPa | 2.5V | 08:18:00 | 00:00:00 | 00:00:00 | |
| DM0DOS-11 | 2026-09-05 01:36:02 | 51.96410 | 7.20449 | 89° | 31km/h | 20449m | -12.2m/s | -53.4°C | 4% | 54.2hPa | 2.5V | 08:18:46 | 02:17:04 | 00:00:00 | |
| AA1-15 | 2026-09-05 01:35:58 | 51.96410 | 7.20437 | 99° | 29km/h | 20461m | -11.5m/s | -53.3°C | 0.4% | 54.1hPa | 2.5V | 08:18:59 | 02:17:03 | 00:00:00 | |
| DL1XH-west | 2026-09-05 01:35:56 | 51.96415 | 7.20414 | 114° | 31km/h | 20485m | -11.7m/s | -53.3°C | 0.3% | 53.9hPa | 2.5V | 08:18:59 | 02:17:01 | 00:00:00 | |
| DL1XH-15 | 2026-09-05 01:35:55 | 51.96427 | 7.20376 | 118° | 44km/h | 20519m | -12.7m/s | -53°C | 3.8% | 53.6hPa | 2.6V | 08:18:52 | 02:16:58 | 00:00:00 | |
| HSKMA3-T | 2026-09-05 01:35:53 | 51.96427 | 7.20376 | 119° | 44km/h | 20519m | -12.7m/s | -53°C | 0.3% | 53.6hPa | 2.6V | 08:18:59 | 02:16:58 | 00:00:00 | |
| AA1-15 | 2026-09-05 01:35:47 | 51.96439 | 7.20253 | 75° | 53km/h | 20590m | -10.8m/s | -52.2°C | 0.2% | 53hPa | 2.6V | 08:18:59 | 02:16:52 | 00:00:00 | |
| DL1XH-west | 2026-09-05 01:35:46 | 51.96435 | 7.20233 | 68° | 51km/h | 20602m | -12.2m/s | -52.2°C | 0.2% | 52.9hPa | 2.5V | 08:18:59 | 02:16:51 | 00:00:00 | |
| DL3AQ-11 | 2026-09-05 01:35:46 | 51.96430 | 7.20215 | 62° | 44km/h | 20614m | -11.8m/s | -52.2°C | 0.9% | 52.8hPa | 2.6V | 00:00:00 | 00:00:00 | 00:00:00 | |
| DL1XH-15 | 2026-09-05 01:35:45 | 51.96420 | 7.20191 | 52° | 24km/h | 20636m | -10.7m/s | -52.2°C | 3.6% | 52.6hPa | 2.6V | 08:19:02 | 02:16:48 | 00:00:00 | |
| DO2JMG | 2026-09-05 01:35:45 | 51.96430 | 7.20215 | 62° | 46km/h | 20614m | -11.8m/s | -52.2°C | 0.2% | 52.8hPa | 2.5V | 08:21:32 | 02:16:50 | 00:00:00 | |
| HSKMA3-T | 2026-09-05 01:35:43 | 51.96420 | 7.20191 | 52° | 24km/h | 20636m | -10.7m/s | -52.2°C | 0.2% | 52.7hPa | 2.6V | 08:19:50 | 02:16:48 | 00:00:00 | |
| DL1XH-west | 2026-09-05 01:35:36 | 51.96456 | 7.20140 | 135° | 60km/h | 20711m | -10.6m/s | -52.4°C | 0.2% | 52hPa | 2.6V | 08:19:50 | 02:16:41 | 00:00:00 | |
| DL1XH-15 | 2026-09-05 01:35:35 | 51.96481 | 7.20071 | 106° | 69km/h | 20743m | -10.5m/s | -52.5°C | 3.7% | 51.8hPa | 2.5V | 08:19:12 | 02:16:38 | 00:00:00 | |
| DO2JMG | 2026-09-05 01:35:34 | 51.96475 | 7.20097 | 117° | 69km/h | 20732m | -10.4m/s | -52.5°C | 0.3% | 51.8hPa | 2.5V | 08:21:32 | 02:16:39 | 00:00:00 | |
| HSKMA3-T | 2026-09-05 01:35:32 | 51.96485 | 7.20045 | 96° | 64km/h | 20753m | -10.8m/s | -52.5°C | 0.2% | 51.7hPa | 2.5V | 08:19:50 | 02:16:37 | 00:00:00 | |
| AA1-15 | 2026-09-05 01:35:26 | 51.96473 | 7.19958 | 125° | 5km/h | 20816m | -10.7m/s | -52.4°C | 0.1% | 51.1hPa | 2.5V | 08:19:50 | 02:16:31 | 00:00:00 | |
| BIOWL1-15 | 2026-09-05 01:35:25 | 51.96480 | 7.19955 | 167° | 26km/h | 20837m | -10m/s | -52.4°C | 0.2% | 51hPa | 2.6V | 08:19:50 | 02:16:29 | 00:00:00 | |
| DL1XH-15 | 2026-09-05 01:35:25 | 51.96488 | 7.19951 | 155° | 35km/h | 20847m | -10.3m/s | -52.4°C | 3.7% | 50.9hPa | 2.5V | 08:19:22 | 02:16:28 | 00:00:00 | |
| DL1XH-west | 2026-09-05 01:35:25 | 51.96475 | 7.19957 | 169° | 15km/h | 20827m | -10.1m/s | -52.4°C | 0.1% | 51.1hPa | 2.6V | 08:19:50 | 02:16:30 | 00:00:00 | |
| DO2JMG | 2026-09-05 01:35:23 | 51.96488 | 7.19951 | 156° | 37km/h | 20847m | -10.3m/s | -52.4°C | 0.3% | 50.9hPa | 2.5V | 08:21:32 | 02:16:28 | 00:00:00 | |
| HSKMA3-T | 2026-09-05 01:35:21 | 51.96505 | 7.19930 | 132° | 49km/h | 20868m | -10.2m/s | -52.4°C | 0.2% | 50.8hPa | 2.5V | 08:19:50 | 02:16:26 | 00:00:00 | |
| AA1-15 | 2026-09-05 01:35:16 | 51.96516 | 7.19837 | 66° | 37km/h | 20919m | -10.8m/s | -52.4°C | 0.3% | 50.4hPa | 2.5V | 08:19:50 | 02:16:21 | 00:00:00 | |
| BIOWL1-15 | 2026-09-05 01:35:15 | 51.96506 | 7.19816 | 12° | 4km/h | 20950m | -10.4m/s | -52.2°C | 0.2% | 50.1hPa | 2.6V | 08:19:50 | 02:16:18 | 00:00:00 | |
| DL1XH-15 | 2026-09-05 01:35:15 | 51.96507 | 7.19816 | 11° | 4km/h | 20950m | -10.4m/s | -52.1°C | 3.6% | 50.1hPa | 2.6V | 08:19:32 | 02:16:18 | 00:00:00 | |
| DL1XH-west | 2026-09-05 01:35:14 | 51.96508 | 7.19819 | 40° | 15km/h | 20940m | -10.2m/s | -52.3°C | 0.3% | 50.2hPa | 2.6V | 08:19:50 | 02:16:19 | 00:00:00 | |
| DO2JMG | 2026-09-05 01:35:12 | 51.96507 | 7.19817 | 198° | 11km/h | 20961m | -10.8m/s | -52.1°C | 0.2% | 50.1hPa | 2.6V | 08:21:32 | 02:16:17 | 00:00:00 | |
| HSKMA3-T | 2026-09-05 01:35:10 | 51.96519 | 7.19818 | 175° | 35km/h | 20982m | -10.4m/s | -52°C | 0.1% | 49.9hPa | 2.5V | 08:19:50 | 02:16:15 | 00:00:00 | |
| DF5WG-10 | 2026-09-05 01:35:10 | 51.96519 | 7.19818 | 175° | 46km/h | 20982m | -10.3m/s | -51.9°C | 3.5% | 49.8hPa | 2.5V | 00:00:00 | 02:16:15 | 00:00:00 | |
| DB0UT-7 | 2026-09-05 01:35:09 | 51.96528 | 7.19814 | 162° | 29km/h | 20993m | -10.7m/s | -51.9°C | 3.5% | 49.7hPa | 2.5V | 00:00:00 | 02:16:14 | 00:00:00 | |
| DH3RM | 2026-09-05 01:35:08 | 51.96528 | 7.19814 | 163° | 44km/h | 20993m | -10.7m/s | -51.9°C | 0.9% | 49.8hPa | 2.5V | 08:19:00 | 00:00:00 | 00:00:00 | |
| HTAHTA | 2026-09-05 01:35:06 | 51.96558 | 7.19777 | 124° | 53km/h | 21024m | -10.7m/s | -51.9°C | 0.9% | 49.5hPa | 2.5V | 00:00:00 | 00:00:00 | 00:00:00 | |
| DL1XH-15 | 2026-09-05 01:35:05 | 51.96568 | 7.19721 | 85° | 40km/h | 21056m | -10.4m/s | -51.8°C | 3.5% | 49.3hPa | 2.5V | 08:19:42 | 02:16:08 | 00:00:00 | |
| AA1-15 | 2026-09-05 01:35:05 | 51.96564 | 7.19758 | 112° | 53km/h | 21035m | -10.5m/s | -51.8°C | 0.1% | 49.5hPa | 2.5V | 08:19:50 | 02:16:10 | 00:00:00 | |
| DL1XH-west | 2026-09-05 01:35:04 | 51.96568 | 7.19739 | 99° | 47km/h | 21046m | -10.4m/s | -51.8°C | 0.2% | 49.3hPa | 2.5V | 08:19:50 | 02:16:09 | 00:00:00 | |
| DO2JMG | 2026-09-05 01:35:01 | 51.96564 | 7.19697 | 61° | 22km/h | 21078m | -10.8m/s | -51.8°C | 0.2% | 49.2hPa | 2.6V | 08:21:32 | 02:16:06 | 00:00:00 | |
| HSKMA3-T | 2026-09-05 01:35:00 | 51.96562 | 7.19691 | 45° | 11km/h | 21088m | -10.7m/s | -51.7°C | 0.1% | 49.1hPa | 2.5V | 08:19:50 | 02:16:05 | 00:00:00 | |
| DF5WG-10 | 2026-09-05 01:35:00 | 51.96562 | 7.19691 | 45° | 29km/h | 21089m | -10.7m/s | -51.6°C | 3.5% | 49.0hPa | 2.5V | 00:00:00 | 02:16:05 | 00:00:00 | |
| GOEST3-10 | 2026-09-05 01:34:59 | 51.96561 | 7.19690 | 324° | 20km/h | 21099m | -10.5m/s | -51.6°C | 3.4% | 48.9hPa | 2.5V | 00:00:00 | 00:00:00 | 00:00:00 | |
| DJ2KF-10 | 2026-09-05 01:34:58 | 51.96561 | 7.19692 | 226° | 20km/h | 21110m | -11.0m/s | -51.7°C | 3.5% | 48.9hPa | 2.5V | 00:00:00 | 02:16:03 | 00:00:00 | |
| DO3DL | 2026-09-05 01:34:57 | 51.96561 | 7.19692 | 226° | 11km/h | 21110m | -11.0m/s | -51.7°C | 0.9% | 48.9hPa | 2.5V | 08:19:00 | 00:00:00 | 00:00:00 | |
| DL4XJ-10 | 2026-09-05 01:34:56 | 51.96570 | 7.19697 | 188° | 20km/h | 21132m | -10.7m/s | -51.8°C | 0% | 0hPa | 2.5V | 00:00:00 | 00:00:00 | 00:00:00 | |
| DL1XH-15 | 2026-09-05 01:34:55 | 51.96597 | 7.19684 | 140° | 46km/h | 21163m | -10m/s | -52°C | 3.6% | 48.5hPa | 2.5V | 08:19:52 | 02:15:58 | 00:00:00 | |
| AA1-15 | 2026-09-05 01:34:55 | 51.96579 | 7.19697 | 172° | 35km/h | 21142m | -10.3m/s | -51.9°C | 0.2% | 48.7hPa | 2.5V | 08:19:50 | 02:16:00 | 00:00:00 | |
| BIOWL1-15 | 2026-09-05 01:34:54 | 51.96588 | 7.19693 | 156° | 42km/h | 21153m | -10m/s | -51.9°C | 0.2% | 48.6hPa | 2.5V | 08:20:41 | 02:15:59 | 00:00:00 | |
| DL1XH-west | 2026-09-05 01:34:53 | 51.96597 | 7.19684 | 140° | 46km/h | 21163m | -10m/s | -52°C | 0.2% | 48.5hPa | 2.5V | 08:20:41 | 02:15:58 | 00:00:00 | |
| HSKMA3-T | 2026-09-05 01:34:49 | 51.96615 | 7.19619 | 91° | 40km/h | 21206m | -11.1m/s | -52.1°C | 0.3% | 48.2hPa | 2.6V | 08:20:41 | 02:15:54 | 00:00:00 | |
| DJ2DS-15 | 2026-09-05 01:34:46 | 51.96609 | 7.19585 | 40° | 16km/h | 21238m | -9.9m/s | -52.2°C | 0.9% | 48.0hPa | 2.6V | 00:00:00 | 00:00:00 | 00:00:00 | |
| AA1-15 | 2026-09-05 01:34:44 | 51.96604 | 7.19583 | 328° | 9km/h | 21257m | -9.9m/s | -52°C | 0.3% | 47.8hPa | 2.6V | 08:20:41 | 02:15:49 | 00:00:00 | |
| GOEST3-10 | 2026-09-05 01:34:44 | 51.96604 | 7.19583 | 328° | 7km/h | 21258m | -9.8m/s | -51.9°C | 3.7% | 47.8hPa | 2.6V | 08:20:00 | 02:15:49 | 00:00:00 | |
| DM0DOS-11 | 2026-09-05 01:34:43 | 51.96608 | 7.19588 | 140° | 9km/h | 21310m | -10.3m/s | -51.6°C | 3.5% | 47.4hPa | 2.6V | 08:20:06 | 02:15:44 | 00:00:00 | |
| DL1XH-west | 2026-09-05 01:34:43 | 51.96603 | 7.19585 | 281° | 7km/h | 21268m | -11m/s | -51.9°C | 0.3% | 47.7hPa | 2.6V | 08:20:41 | 02:15:48 | 00:00:00 | |
| HSKMA3-T | 2026-09-05 01:34:39 | 51.96608 | 7.19588 | 140° | 9km/h | 21310m | -10.3m/s | -51.6°C | 0.1% | 47.4hPa | 2.6V | 08:20:41 | 02:15:44 | 00:00:00 | |
| DO3DL | 2026-09-05 01:34:37 | 51.96609 | 7.19584 | 106° | 11km/h | 21320m | -10.6m/s | -51.5°C | 0.9% | 47.4hPa | 2.6V | 08:20:00 | 00:00:00 | 00:00:00 | |
| DL1XH-15 | 2026-09-05 01:34:35 | 51.96601 | 7.19568 | 17° | 5km/h | 21376m | -12.5m/s | -51.4°C | 3.5% | 47hPa | 2.6V | 08:20:12 | 02:15:38 | 00:00:00 | |
| HARRO8 | 2026-09-05 01:34:35 | 51.96603 | 7.19569 | 28° | 7km/h | 21363m | -13.1m/s | -51.4°C | 0.8% | 47.1hPa | 2.6V | 00:00:00 | 00:00:00 | 00:00:00 | |
| DM0DOS-11 | 2026-09-05 01:34:34 | 51.96605 | 7.19570 | 175° | 11km/h | 21422m | -11.4m/s | -51.5°C | 3.5% | 46.6hPa | 2.6V | 08:20:16 | 02:15:34 | 00:00:00 | |
| AA1-15 | 2026-09-05 01:34:34 | 51.96603 | 7.19569 | 29° | 9km/h | 21363m | -13.1m/s | -51.4°C | 0.1% | 47.1hPa | 2.6V | 08:20:41 | 02:15:39 | 00:00:00 | |
| DL1XH-west | 2026-09-05 01:34:32 | 51.96601 | 7.19568 | 269° | 2km/h | 21388m | -11.9m/s | -51.4°C | 0.1% | 46.9hPa | 2.5V | 08:20:41 | 02:15:37 | 00:00:00 | |
| HSKMA3-T | 2026-09-05 01:34:28 | 51.96608 | 7.19568 | 158° | 16km/h | 21434m | -11.2m/s | -51.5°C | 0.2% | 46.6hPa | 2.6V | 08:20:41 | 02:15:33 | 00:00:00 | |
| DJ2KF-10 | 2026-09-05 01:34:28 | 51.96608 | 7.19568 | 158° | 29km/h | 21434m | -11.1m/s | -51.5°C | 3.5% | 46.5hPa | 2.6V | 00:00:00 | 02:15:33 | 00:00:00 | |
| DC4HF-4 | 2026-09-05 01:34:27 | 51.96612 | 7.19565 | 145° | 20km/h | 21445m | -12.1m/s | -51.5°C | 0.9% | 46.5hPa | 2.6V | 00:00:00 | 00:00:00 | 00:00:00 | |
| DL1XH-15 | 2026-09-05 01:34:25 | 51.96624 | 7.19523 | 90° | 37km/h | 21491m | -12.1m/s | -51.4°C | 3.5% | 46.1hPa | 2.6V | 08:20:22 | 02:15:28 | 00:00:00 | |
| DK5PH-5 | 2026-09-05 01:34:25 | 51.96621 | 7.19549 | 119° | 31km/h | 21468m | -10.9m/s | -51.5°C | 3.5% | 46.2hPa | 2.5V | 00:00:00 | 02:15:30 | 00:00:00 | |
| DM0DOS-11 | 2026-09-05 01:34:24 | 51.96609 | 7.19468 | 40° | 37km/h | 21543m | -10.8m/s | -51.3°C | 3.5% | 45.7hPa | 2.5V | 08:20:26 | 02:15:24 | 00:00:00 | |
| BIOWL1-15 | 2026-09-05 01:34:24 | 51.96624 | 7.19508 | 79° | 40km/h | 21503m | -12.2m/s | -51.4°C | 0.1% | 46hPa | 2.6V | 08:20:41 | 02:15:27 | 00:00:00 | |
| AA1-15 | 2026-09-05 01:34:23 | 51.96625 | 7.19523 | 91° | 37km/h | 21491m | -12.1m/s | -51.4°C | 0.2% | 46.1hPa | 2.6V | 08:20:41 | 02:15:28 | 00:00:00 | |
| DL1XH-west | 2026-09-05 01:34:21 | 51.96621 | 7.19492 | 65° | 40km/h | 21516m | -13.7m/s | -51.4°C | 0.2% | 46hPa | 2.6V | 08:20:41 | 02:15:26 | 00:00:00 | |
| HSKMA3-T | 2026-09-05 01:34:17 | 51.96595 | 7.19459 | 355° | 24km/h | 21565m | -10.9m/s | -51.2°C | 0.1% | 45.6hPa | 2.5V | 08:20:41 | 02:15:22 | 00:00:00 | |
| DL1XH-15 | 2026-09-05 01:34:15 | 51.96593 | 7.19478 | 198° | 22km/h | 21610m | -10.8m/s | -51.2°C | 3.4% | 45.3hPa | 2.5V | 08:20:32 | 02:15:18 | 00:00:00 | |
| DM0DOS-11 | 2026-09-05 01:34:14 | 51.96624 | 7.19454 | 125° | 44km/h | 21652m | -11.2m/s | -51.2°C | 3.4% | 45hPa | 2.5V | 08:20:36 | 02:15:14 | 00:00:00 | |
| AA1-15 | 2026-09-05 01:34:13 | 51.96593 | 7.19478 | 199° | 22km/h | 21610m | -10.8m/s | -51.2°C | 0.1% | 45.3hPa | 2.5V | 08:20:41 | 02:15:18 | 00:00:00 | |
| BIOWL1-15 | 2026-09-05 01:34:11 | 51.96608 | 7.19475 | 157° | 37km/h | 21631m | -10.4m/s | -51.2°C | 0% | 45.1hPa | 2.6V | 08:20:41 | 02:15:16 | 00:00:00 | |
| DL1XH-west | 2026-09-05 01:34:10 | 51.96617 | 7.19467 | 141° | 42km/h | 21641m | -10.6m/s | -51.1°C | 0% | 45.1hPa | 2.6V | 08:20:41 | 02:15:15 | 00:00:00 | |
| HSKMA3-T | 2026-09-05 01:34:07 | 51.96632 | 7.19422 | 98° | 42km/h | 21676m | -11.4m/s | -51.2°C | 0.1% | 44.8hPa | 2.5V | 08:20:41 | 02:15:12 | 00:00:00 | |
| DO2KSM | 2026-09-05 01:34:06 | 51.96632 | 7.19421 | 99° | 42km/h | 21676m | -11.4m/s | -51.2°C | 0.8% | 44.8hPa | 2.5V | 08:20:00 | 00:00:00 | 00:00:00 | |
| DL1XH-15 | 2026-09-05 01:34:05 | 51.96619 | 7.19377 | 17° | 24km/h | 21720m | -11.6m/s | -51.3°C | 3.4% | 44.5hPa | 2.5V | 08:20:42 | 02:15:08 | 00:00:00 | |
| AA1-15 | 2026-09-05 01:34:03 | 51.96619 | 7.19377 | 17° | 24km/h | 21720m | -11.6m/s | -51.3°C | 0.1% | 44.5hPa | 2.5V | 08:21:32 | 02:15:08 | 00:00:00 | |
| BIOWL1-15 | 2026-09-05 01:34:00 | 51.96607 | 7.19387 | 284° | 22km/h | 21756m | -11.8m/s | -51.3°C | 0.1% | 44.3hPa | 2.6V | 08:21:32 | 02:15:05 | 00:00:00 | |
| DL1XH-west | 2026-09-05 01:33:59 | 51.96607 | 7.19396 | 255° | 26km/h | 21768m | -12.1m/s | -51.4°C | 0.1% | 44.2hPa | 2.5V | 08:21:32 | 02:15:04 | 00:00:00 | |
| HSKMA3-T | 2026-09-05 01:33:56 | 51.96625 | 7.19420 | 193° | 38km/h | 21802m | -10.2m/s | -51.6°C | 0.2% | 44hPa | 2.6V | 08:21:32 | 02:15:01 | 00:00:00 | |
| DO2JMG | 2026-09-05 01:33:55 | 51.96635 | 7.19421 | 176° | 42km/h | 21812m | -10.7m/s | -51.7°C | 0.2% | 43.9hPa | 2.6V | 08:21:32 | 02:15:00 | 00:00:00 | |
| DB0NH | 2026-09-05 01:33:55 | 51.96635 | 7.19421 | 176° | 24km/h | 21812m | -10.7m/s | -51.6°C | 3.5% | 43.9hPa | 2.6V | 00:00:00 | 02:15:00 | 00:00:00 | |
| DM0DOS-11 | 2026-09-05 01:33:54 | 51.96669 | 7.19352 | 76° | 38km/h | 21882m | -11.5m/s | -51.9°C | 3.5% | 43.4hPa | 2.6V | 08:20:56 | 02:14:54 | 00:00:00 | |
| AA1-15 | 2026-09-05 01:33:52 | 51.96662 | 7.19397 | 130° | 40km/h | 21849m | -11.9m/s | -51.8°C | 0.1% | 43.7hPa | 2.5V | 08:21:32 | 02:14:57 | 00:00:00 | |
| BIOWL1-15 | 2026-09-05 01:33:50 | 51.96670 | 7.19368 | 95° | 40km/h | 21871m | -10.9m/s | -51.9°C | 0.1% | 43.5hPa | 2.6V | 08:21:32 | 02:14:55 | 00:00:00 | |
| DL1XH-west | 2026-09-05 01:33:49 | 51.96669 | 7.19352 | 76° | 38km/h | 21882m | -11.5m/s | -51.9°C | 0.1% | 43.4hPa | 2.6V | 08:21:32 | 02:14:54 | 00:00:00 | |
| HSKMA3-T | 2026-09-05 01:33:46 | 51.96654 | 7.19319 | 29° | 29km/h | 21919m | -12.5m/s | -52.1°C | 0.2% | 43.2hPa | 2.5V | 08:21:32 | 02:14:51 | 00:00:00 | |
| DL3AQ-11 | 2026-09-05 01:33:46 | 51.96648 | 7.19315 | 12° | 22km/h | 21931m | -12.0m/s | -52.2°C | 0.9% | 43.1hPa | 2.5V | 00:00:00 | 00:00:00 | 00:00:00 | |
| DM0DOS-11 | 2026-09-05 01:33:44 | 51.96660 | 7.19318 | 161° | 31km/h | 21997m | -12m/s | -52.2°C | 3.6% | 42.7hPa | 2.5V | 08:21:06 | 02:14:44 | 00:00:00 | |
| DO2JMG | 2026-09-05 01:33:44 | 51.96643 | 7.19315 | 350° | 15km/h | 21942m | -10.4m/s | -52.2°C | 0.2% | 43hPa | 2.5V | 08:21:32 | 02:14:49 | 00:00:00 | |
| AA1-15 | 2026-09-05 01:33:42 | 51.96642 | 7.19320 | 210° | 13km/h | 21963m | -10.9m/s | -52.4°C | 0.2% | 42.9hPa | 2.6V | 08:21:32 | 02:14:47 | 00:00:00 | |
| BIOWL1-15 | 2026-09-05 01:33:39 | 51.96682 | 7.19293 | 109° | 16km/h | 22047m | -11.5m/s | -52.3°C | 0.3% | 42.3hPa | 2.5V | 08:21:32 | 02:14:40 | 00:00:00 | |
| DL1XH-west | 2026-09-05 01:33:38 | 51.96667 | 7.19313 | 152° | 31km/h | 22009m | -13m/s | -52.3°C | 0.2% | 42.6hPa | 2.6V | 08:21:32 | 02:14:43 | 00:00:00 | |
| HSKMA3-T | 2026-09-05 01:33:36 | 51.96679 | 7.19300 | 132° | 24km/h | 22035m | -12.3m/s | -52.3°C | 0.2% | 42.4hPa | 2.5V | 08:21:32 | 02:14:41 | 00:00:00 | |
| DL1XH-15 | 2026-09-05 01:33:35 | 51.96680 | 7.19284 | 20° | 15km/h | 22067m | -9.7m/s | -52.3°C | 3.6% | 42.2hPa | 2.6V | 08:21:12 | 02:14:38 | 00:00:00 | |
| DO2JMG | 2026-09-05 01:33:33 | 51.96680 | 7.19284 | 21° | 15km/h | 22067m | -9.7m/s | -52.3°C | 0.2% | 42.2hPa | 2.6V | 08:21:32 | 02:14:38 | 00:00:00 | |
| AA1-15 | 2026-09-05 01:33:32 | 51.96675 | 7.19282 | 7° | 20km/h | 22077m | -10.6m/s | -52.4°C | 0.2% | 42.2hPa | 2.6V | 08:21:32 | 02:14:37 | 00:00:00 | |
| DL1XH-west | 2026-09-05 01:33:28 | 51.96655 | 7.19270 | 40° | 18km/h | 22125m | -11.4m/s | -52.3°C | 0.3% | 41.9hPa | 2.6V | 08:21:32 | 02:14:33 | 00:00:00 | |
| BIOWL1-15 | 2026-09-05 01:33:27 | 51.96653 | 7.19266 | 53° | 11km/h | 22137m | -11.1m/s | -52.3°C | 0.3% | 41.8hPa | 2.6V | 08:21:32 | 02:14:32 | 00:00:00 | |
| DO2KSM | 2026-09-05 01:33:26 | 51.96653 | 7.19266 | 54° | 11km/h | 22137m | -11.1m/s | -52.3°C | 0.9% | 41.8hPa | 2.6V | 08:21:00 | 00:00:00 | 00:00:00 | |
| DL1XH-15 | 2026-09-05 01:33:25 | 51.96659 | 7.19267 | 206° | 15km/h | 22182m | -13.6m/s | -52.2°C | 3.7% | 41.5hPa | 2.6V | 08:21:22 | 02:14:28 | 00:00:00 | |
| HSKMA3-T | 2026-09-05 01:33:25 | 51.96653 | 7.19263 | 189° | 9km/h | 22158m | -10.5m/s | -52.3°C | 0.2% | 41.6hPa | 2.5V | 08:21:32 | 02:14:30 | 00:00:00 | |
| DM0DOS-11 | 2026-09-05 01:33:24 | 51.96674 | 7.19272 | 155° | 13km/h | 22233m | -12m/s | -52.1°C | 3.7% | 41.1hPa | 2.5V | 08:21:26 | 02:14:24 | 00:00:00 | |
| DO2JMG | 2026-09-05 01:33:23 | 51.96659 | 7.19267 | 206° | 15km/h | 22182m | -13.6m/s | -52.2°C | 0.3% | 41.5hPa | 2.6V | 08:21:32 | 02:14:28 | 00:00:00 | |
| AA1-15 | 2026-09-05 01:33:22 | 51.96663 | 7.19270 | 202° | 18km/h | 22196m | -13.3m/s | -52.2°C | 0.3% | 41.4hPa | 2.6V | 08:21:32 | 02:14:27 | 00:00:00 | |
| DL1XH-west | 2026-09-05 01:33:17 | 51.96679 | 7.19262 | 116° | 20km/h | 22257m | -13.1m/s | -51.9°C | 0.2% | 41hPa | 2.6V | 08:21:32 | 02:14:22 | 00:00:00 | |
| SMARD9-15 | 2026-09-05 01:33:17 | 51.96679 | 7.19262 | 115° | 18km/h | 22257m | -13.1m/s | -51.9°C | 0.9% | 41.0hPa | 2.6V | 00:00:00 | 00:00:00 | 00:00:00 | |
| DC6BW-12 | 2026-09-05 01:33:16 | 51.96679 | 7.19262 | 117° | 20km/h | 22257m | -13.1m/s | -51.9°C | 0.9% | 41.0hPa | 2.6V | 08:21:00 | 00:00:00 | 00:00:00 | |
| DL1XH-15 | 2026-09-05 01:33:15 | 51.96675 | 7.19228 | 52° | 27km/h | 22313m | -13.1m/s | -51.6°C | 3.5% | 40.7hPa | 2.6V | 08:21:32 | 02:14:18 | 00:00:00 | |
| DM0DOS-11 | 2026-09-05 01:33:14 | 51.96653 | 7.19201 | 30° | 22km/h | 22365m | -12.7m/s | -51.4°C | 3.4% | 40.3hPa | 2.5V | 08:21:36 | 02:14:14 | 00:00:00 | |
| HSKMA3-T | 2026-09-05 01:33:14 | 51.96679 | 7.19238 | 66° | 26km/h | 22299m | -14.1m/s | -51.6°C | 0.1% | 40.8hPa | 2.5V | 08:21:32 | 02:14:19 | 00:00:00 | |
| DO2JMG | 2026-09-05 01:33:13 | 51.96675 | 7.19228 | 53° | 27km/h | 22313m | -13.1m/s | -51.6°C | 0.1% | 40.7hPa | 2.6V | 08:21:32 | 02:14:18 | 00:00:00 | |
| AA1-15 | 2026-09-05 01:33:11 | 51.96665 | 7.19212 | 34° | 31km/h | 22339m | -13m/s | -51.4°C | 0.1% | 40.5hPa | 2.5V | 08:22:23 | 02:14:16 | 00:00:00 | |
| DL1XH-west | 2026-09-05 01:33:07 | 51.96648 | 7.19191 | 85° | 15km/h | 22389m | -11m/s | -51.4°C | 0.1% | 40.2hPa | 2.6V | 08:22:23 | 02:14:12 | 00:00:00 | |
| DO8TBO-1 | 2026-09-05 01:33:06 | 51.96648 | 7.19183 | 109° | 22km/h | 22399m | -9.1m/s | -51.3°C | 3.4% | 40.1hPa | 2.6V | 00:00:00 | 02:14:11 | 00:00:00 | |
| DL1XH-15 | 2026-09-05 01:33:05 | 51.96657 | 7.19145 | 100° | 38km/h | 22434m | -14.5m/s | -51.3°C | 3.4% | 39.9hPa | 2.6V | 08:21:42 | 02:14:08 | 00:00:00 | |
| DM0DOS-11 | 2026-09-05 01:33:04 | 51.96653 | 7.19097 | 44° | 16km/h | 22483m | -10.8m/s | -51.6°C | 3.4% | 39.6hPa | 2.5V | 08:21:46 | 02:14:04 | 00:00:00 | |
| DO2JMG | 2026-09-05 01:33:03 | 51.96657 | 7.19145 | 100° | 38km/h | 22434m | -14.5m/s | -51.3°C | 0.1% | 39.9hPa | 2.6V | 08:22:23 | 02:14:08 | 00:00:00 | |
| AA1-15 | 2026-09-05 01:33:00 | 51.96656 | 7.19104 | 66° | 26km/h | 22472m | -10.9m/s | -51.5°C | 0.1% | 39.7hPa | 2.5V | 08:22:23 | 02:14:05 | 00:00:00 | |
| DL1XH-west | 2026-09-05 01:32:57 | 51.96648 | 7.19095 | 318° | 7km/h | 22503m | -10.6m/s | -51.6°C | 0.2% | 39.5hPa | 2.6V | 08:22:23 | 02:14:02 | 00:00:00 | |
| DC6BW-12 | 2026-09-05 01:32:56 | 51.96648 | 7.19095 | 319° | 9km/h | 22504m | -10.6m/s | -51.6°C | 0.9% | 39.5hPa | 2.6V | 08:22:00 | 00:00:00 | 00:00:00 | |
| BIOWL1-15 | 2026-09-05 01:32:56 | 51.96647 | 7.19098 | 288° | 7km/h | 22515m | -12.3m/s | -51.6°C | 0.1% | 39.4hPa | 2.5V | 08:22:23 | 02:14:01 | 00:00:00 | |
| DL1XH-15 | 2026-09-05 01:32:55 | 51.96646 | 7.19097 | 74° | 11km/h | 22551m | -11m/s | -51.8°C | 3.4% | 39.2hPa | 2.6V | 08:21:52 | 02:13:58 | 00:00:00 | |
| DM0DOS-11 | 2026-09-05 01:32:54 | 51.96633 | 7.19064 | 39° | 27km/h | 22597m | -13.9m/s | -52°C | 3.5% | 38.9hPa | 2.5V | 08:21:56 | 02:13:54 | 00:00:00 | |
| DO2JMG | 2026-09-05 01:32:52 | 51.96645 | 7.19090 | 67° | 20km/h | 22562m | -10.5m/s | -51.8°C | 0.1% | 39.1hPa | 2.6V | 08:22:23 | 02:13:57 | 00:00:00 | |
| AA1-15 | 2026-09-05 01:32:49 | 51.96633 | 7.19064 | 39° | 27km/h | 22597m | -13.9m/s | -52°C | 0.1% | 38.9hPa | 2.5V | 08:22:23 | 02:13:54 | 00:00:00 | |
| DL1XH-west | 2026-09-05 01:32:46 | 51.96621 | 7.19059 | 309° | 7km/h | 22634m | -10.4m/s | -52.3°C | 0.2% | 38.7hPa | 2.5V | 08:22:23 | 02:13:51 | 00:00:00 | |
| BIOWL1-15 | 2026-09-05 01:32:45 | 51.96628 | 7.19062 | 158° | 20km/h | 22669m | -12.5m/s | -52.3°C | 0.2% | 38.5hPa | 2.6V | 08:22:23 | 02:13:48 | 00:00:00 | |
| GOEST3-10 | 2026-09-05 01:32:44 | 51.96624 | 7.19063 | 184° | 24km/h | 22657m | -12.6m/s | -52.2°C | 3.6% | 38.5hPa | 2.5V | 00:00:00 | 02:13:49 | 00:00:00 | |
| DM0DOS-11 | 2026-09-05 01:32:42 | 51.96640 | 7.19024 | 81° | 31km/h | 22716m | -10.7m/s | -52.5°C | 3.6% | 38.2hPa | 2.5V | 08:22:06 | 02:13:44 | 00:00:00 | |
| DO2JMG | 2026-09-05 01:32:42 | 51.96633 | 7.19057 | 138° | 26km/h | 22681m | -12m/s | -52.3°C | 0.2% | 38.4hPa | 2.6V | 08:22:23 | 02:13:47 | 00:00:00 | |
| AA1-15 | 2026-09-05 01:32:39 | 51.96640 | 7.19024 | 82° | 31km/h | 22716m | -10.7m/s | -52.5°C | 0.2% | 38.2hPa | 2.5V | 08:22:23 | 02:13:44 | 00:00:00 | |
| DL1XH-west | 2026-09-05 01:32:36 | 51.96627 | 7.18996 | 22° | 26km/h | 22750m | -12.6m/s | -52.6°C | 0.2% | 38hPa | 2.5V | 08:22:23 | 02:13:41 | 00:00:00 | |
| DL1XH-15 | 2026-09-05 01:32:35 | 51.96614 | 7.18998 | 310° | 9km/h | 22787m | -13m/s | -52.9°C | 3.7% | 37.8hPa | 2.6V | 08:22:12 | 02:13:38 | 00:00:00 | |
| BIOWL1-15 | 2026-09-05 01:32:33 | 51.96614 | 7.18998 | 310° | 9km/h | 22787m | -13m/s | -52.9°C | 0.3% | 37.8hPa | 2.6V | 08:22:23 | 02:13:38 | 00:00:00 | |
| DM0DOS-11 | 2026-09-05 01:32:32 | 51.96615 | 7.18987 | 93° | 27km/h | 22839m | -11.4m/s | -53°C | 3.8% | 37.5hPa | 2.5V | 08:22:16 | 02:13:34 | 00:00:00 | |
| HSKMA3-T | 2026-09-05 01:32:32 | 51.96613 | 7.19000 | 288° | 4km/h | 22800m | -14m/s | -52.9°C | 0.2% | 37.7hPa | 2.6V | 08:22:23 | 02:13:37 | 00:00:00 | |
| DO2JMG | 2026-09-05 01:32:31 | 51.96614 | 7.19000 | 118° | 5km/h | 22814m | -13.5m/s | -53°C | 0.3% | 37.6hPa | 2.5V | 08:22:23 | 02:13:36 | 00:00:00 | |
| AA1-15 | 2026-09-05 01:32:28 | 51.96615 | 7.18974 | 85° | 38km/h | 22849m | -9.7m/s | -53°C | 0.4% | 37.4hPa | 2.6V | 08:22:23 | 02:13:33 | 00:00:00 | |
| DL1XH-west | 2026-09-05 01:32:26 | 51.96610 | 7.18937 | 73° | 51km/h | 22870m | -12.9m/s | -52.9°C | 0.3% | 37.3hPa | 2.5V | 08:22:23 | 02:13:31 | 00:00:00 | |
| DL1XH-15 | 2026-09-05 01:32:25 | 51.96596 | 7.18892 | 43° | 31km/h | 22912m | -12.2m/s | -52.7°C | 3.6% | 37hPa | 2.6V | 08:22:22 | 02:13:28 | 00:00:00 | |
| DM0DOS-11 | 2026-09-05 01:32:24 | 51.96584 | 7.18896 | 248° | 18km/h | 22960m | -14.2m/s | -52.6°C | 3.6% | 36.8hPa | 2.5V | 08:22:26 | 02:13:24 | 00:00:00 | |
| HSKMA3-T | 2026-09-05 01:32:22 | 51.96590 | 7.18886 | 19° | 22km/h | 22924m | -11.4m/s | -52.6°C | 0.3% | 37hPa | 2.6V | 08:22:23 | 02:13:27 | 00:00:00 | |
| DO2JMG | 2026-09-05 01:32:21 | 51.96586 | 7.18886 | 339° | 16km/h | 22935m | -11.1m/s | -52.6°C | 0.2% | 36.9hPa | 2.5V | 08:23:14 | 02:13:26 | 00:00:00 | |
| DL1XH-west | 2026-09-05 01:32:16 | 51.96597 | 7.18911 | 181° | 27km/h | 23000m | -13m/s | -52.7°C | 0.3% | 36.5hPa | 2.5V | 08:23:14 | 02:13:21 | 00:00:00 | |
| AA1-15 | 2026-09-05 01:32:15 | 51.96604 | 7.18908 | 156° | 27km/h | 23013m | -13.6m/s | -52.7°C | 0.2% | 36.5hPa | 2.5V | 08:23:14 | 02:13:20 | 00:00:00 | |
| DL1XH-15 | 2026-09-05 01:32:15 | 51.96613 | 7.18891 | 105° | 31km/h | 23038m | -11.8m/s | -52.9°C | 3.7% | 36.3hPa | 2.6V | 08:22:32 | 02:13:18 | 00:00:00 | |
| SMARD9-15 | 2026-09-05 01:32:15 | 51.96609 | 7.18901 | 130° | 27km/h | 23026m | -12.9m/s | -52.8°C | 0.9% | 36.4hPa | 2.5V | 00:00:00 | 00:00:00 | 00:00:00 | |
| GOEST3-10 | 2026-09-05 01:32:14 | 51.96609 | 7.18901 | 131° | 35km/h | 23026m | -12.9m/s | -52.7°C | 3.7% | 36.4hPa | 2.5V | 00:00:00 | 02:13:19 | 00:00:00 | |
| DM0DOS-11 | 2026-09-05 01:32:13 | 51.96598 | 7.18836 | 43° | 44km/h | 23085m | -12.3m/s | -52.9°C | 3.7% | 36.1hPa | 2.5V | 08:22:36 | 02:13:14 | 00:00:00 | |
| BIOWL1-15 | 2026-09-05 01:32:12 | 51.96613 | 7.18877 | 83° | 35km/h | 23050m | -11.2m/s | -52.9°C | 0.3% | 36.3hPa | 2.6V | 08:23:14 | 02:13:17 | 00:00:00 | |
| HSKMA3-T | 2026-09-05 01:32:11 | 51.96610 | 7.18863 | 64° | 38km/h | 23061m | -11.5m/s | -52.9°C | 0.3% | 36.2hPa | 2.5V | 08:23:14 | 02:13:16 | 00:00:00 | |
| DO2JMG | 2026-09-05 01:32:10 | 51.96605 | 7.18849 | 52° | 42km/h | 23073m | -11.9m/s | -52.9°C | 0.3% | 36.1hPa | 2.5V | 08:23:14 | 02:13:15 | 00:00:00 | |
| DF5WG-10 | 2026-09-05 01:32:09 | 51.96598 | 7.18836 | 44° | 37km/h | 23085m | -12.2m/s | -52.8°C | 3.7% | 36.0hPa | 2.6V | 00:00:00 | 02:13:14 | 00:00:00 | |
| BUE01 | 2026-09-05 01:32:08 | 51.96590 | 7.18825 | 39° | 42km/h | 23097m | -12.9m/s | -53.0°C | 0.9% | 36.0hPa | 2.6V | 00:00:00 | 00:00:00 | 00:00:00 | |
| DO3MHA-11 | 2026-09-05 01:32:07 | 51.96581 | 7.18814 | 38° | 37km/h | 23111m | -13.0m/s | -53.0°C | 3.8% | 35.9hPa | 2.6V | 00:00:00 | 02:13:12 | 00:00:00 | |
| DL1XH-15 | 2026-09-05 01:32:05 | 51.96559 | 7.18774 | 79° | 27km/h | 23162m | -10.1m/s | -53.1°C | 3.8% | 35.7hPa | 2.6V | 08:22:42 | 02:13:08 | 00:00:00 | |
| DL1XH-west | 2026-09-05 01:32:05 | 51.96566 | 7.18794 | 45° | 33km/h | 23137m | -14.1m/s | -53.1°C | 0.4% | 35.8hPa | 2.5V | 08:23:14 | 02:13:10 | 00:00:00 | |
| BIOWL1-15 | 2026-09-05 01:32:02 | 51.96559 | 7.18762 | 101° | 31km/h | 23173m | -10.6m/s | -53.1°C | 0.4% | 35.6hPa | 2.6V | 08:23:14 | 02:13:07 | 00:00:00 | |
| HSKMA3-T | 2026-09-05 01:32:01 | 51.96562 | 7.18749 | 110° | 35km/h | 23184m | -11.6m/s | -53.1°C | 0.3% | 35.5hPa | 2.5V | 08:23:14 | 02:13:06 | 00:00:00 | |
| DO2JMG | 2026-09-05 01:32:01 | 51.96565 | 7.18735 | 108° | 38km/h | 23196m | -13.2m/s | -53.1°C | 0.3% | 35.5hPa | 2.5V | 08:23:14 | 02:13:05 | 00:00:00 | |
| HTAHTA | 2026-09-05 01:32:00 | 51.96567 | 7.18719 | 102° | 42km/h | 23209m | -12.9m/s | -53.1°C | 0.9% | 35.4hPa | 2.6V | 00:00:00 | 00:00:00 | 00:00:00 | |
| HARRO8 | 2026-09-05 01:31:59 | 51.96567 | 7.18719 | 102° | 42km/h | 23209m | -12.9m/s | -53.1°C | 0.9% | 35.4hPa | 2.6V | 00:00:00 | 00:00:00 | 00:00:00 | |
| DO1YAY-16 | 2026-09-05 01:31:57 | 51.96571 | 7.18682 | 93° | 47km/h | 23234m | -13.1m/s | -53.0°C | 0.9% | 35.2hPa | 2.6V | 00:00:00 | 00:00:00 | 00:00:00 | |
| EDDB2-12 | 2026-09-05 01:31:56 | 51.96571 | 7.18663 | 92° | 46km/h | 23247m | -13.8m/s | -52.9°C | 0.9% | 35.2hPa | 2.6V | 00:00:00 | 00:00:00 | 00:00:00 | |
| DL1XH-15 | 2026-09-05 01:31:55 | 51.96570 | 7.18612 | 73° | 35km/h | 23288m | -14.4m/s | -53°C | 3.7% | 34.9hPa | 2.6V | 08:22:52 | 02:12:58 | 00:00:00 | |
| AA1-15 | 2026-09-05 01:31:55 | 51.96572 | 7.18644 | 91° | 44km/h | 23261m | -13.3m/s | -53°C | 0.3% | 35.1hPa | 2.5V | 08:23:14 | 02:13:00 | 00:00:00 | |
| BIOWL1-15 | 2026-09-05 01:31:51 | 51.96562 | 7.18592 | 41° | 26km/h | 23320m | -15.7m/s | -53°C | 0.3% | 34.8hPa | 2.5V | 08:23:14 | 02:12:56 | 00:00:00 | |
| HSKMA3-T | 2026-09-05 01:31:50 | 51.96557 | 7.18587 | 18° | 20km/h | 23335m | -15.6m/s | -53°C | 0.4% | 34.7hPa | 2.5V | 08:23:14 | 02:12:55 | 00:00:00 | |
| DO2JMG | 2026-09-05 01:31:49 | 51.96553 | 7.18587 | 335° | 16km/h | 23351m | -15.1m/s | -52.9°C | 0.3% | 34.6hPa | 2.5V | 08:23:14 | 02:12:54 | 00:00:00 | |
| DB0ND-19 | 2026-09-05 01:31:47 | 51.96551 | 7.18600 | 246° | 22km/h | 23378m | -12.4m/s | -52.8°C | 0.9% | 34.5hPa | 2.5V | 00:00:00 | 00:00:00 | 00:00:00 | |
| DL3AQ-11 | 2026-09-05 01:31:46 | 51.96563 | 7.18614 | 195° | 37km/h | 23404m | -13.9m/s | -52.8°C | 0.9% | 34.3hPa | 2.5V | 00:00:00 | 00:00:00 | 00:00:00 | |
| SONCRA | 2026-09-05 01:31:45 | 51.96563 | 7.18614 | 195° | 37km/h | 23404m | -13.9m/s | -52.8°C | 0.9% | 34.3hPa | 2.5V | 00:00:00 | 00:00:00 | 00:00:00 | |
| DM0DOS-11 | 2026-09-05 01:31:44 | 51.96603 | 7.18566 | 77° | 33km/h | 23486m | -13.3m/s | -52.7°C | 3.8% | 33.9hPa | 2.5V | 08:23:06 | 02:12:44 | 00:00:00 | |
| DL1XH-west | 2026-09-05 01:31:44 | 51.96573 | 7.18616 | 180° | 42km/h | 23418m | -13.2m/s | -52.7°C | 0.3% | 34.2hPa | 2.5V | 08:23:14 | 02:12:49 | 00:00:00 | |
| BIOWL1-15 | 2026-09-05 01:31:42 | 51.96603 | 7.18580 | 103° | 35km/h | 23473m | -13.7m/s | -52.6°C | 0.3% | 33.9hPa | 2.5V | 08:23:14 | 02:12:45 | 00:00:00 | |
| DO2JMG | 2026-09-05 01:31:39 | 51.96603 | 7.18566 | 78° | 33km/h | 23486m | -13.3m/s | -52.7°C | 0.3% | 33.9hPa | 2.5V | 08:23:14 | 02:12:44 | 00:00:00 | |
| DL1XH-west | 2026-09-05 01:31:34 | 51.96570 | 7.18552 | 325° | 35km/h | 23553m | -14.1m/s | -52.7°C | 0.2% | 33.5hPa | 2.5V | 08:23:14 | 02:12:39 | 00:00:00 | |
| DF2AP-13 | 2026-09-05 01:31:34 | 51.96570 | 7.18552 | 326° | 29km/h | 23554m | -14.0m/s | -52.7°C | 3.7% | 33.5hPa | 2.5V | 00:00:00 | 02:12:39 | 00:00:00 | |
| DL3AQ-11 | 2026-09-05 01:31:33 | 51.96560 | 7.18573 | 286° | 29km/h | 23582m | -14.9m/s | -52.5°C | 0.9% | 33.4hPa | 2.6V | 00:00:00 | 00:00:00 | 00:00:00 | |
| DO9LL-15 | 2026-09-05 01:31:32 | 51.96560 | 7.18573 | 287° | 29km/h | 23583m | -14.8m/s | -52.5°C | 3.7% | 33.3hPa | 2.6V | 08:23:00 | 02:12:37 | 00:00:00 | |
| SMARD9-10 | 2026-09-05 01:31:31 | 51.96560 | 7.18573 | 287° | 31km/h | 23583m | -14.9m/s | -52.5°C | 0.9% | 33.4hPa | 2.5V | 08:23:00 | 00:00:00 | 00:00:00 | |
| DM0DOS-11 | 2026-09-05 01:31:30 | 51.96566 | 7.18601 | 201° | 27km/h | 23624m | -12.7m/s | -52.6°C | 3.7% | 33.2hPa | 2.5V | 08:23:16 | 02:12:34 | 00:00:00 | |
| BIOWL1-15 | 2026-09-05 01:31:29 | 51.96567 | 7.18601 | 201° | 27km/h | 23624m | -12.7m/s | -52.6°C | 0.3% | 33.2hPa | 2.5V | 08:24:05 | 02:12:34 | 00:00:00 | |
| DO2JMG | 2026-09-05 01:31:28 | 51.96574 | 7.18602 | 173° | 33km/h | 23637m | -12.1m/s | -52.6°C | 0.3% | 33.1hPa | 2.6V | 08:24:05 | 02:12:33 | 00:00:00 | |
| DJ2KF-10 | 2026-09-05 01:31:28 | 51.96574 | 7.18602 | 173° | 27km/h | 23637m | -12.1m/s | -52.6°C | 3.7% | 33.0hPa | 2.6V | 00:00:00 | 02:12:33 | 00:00:00 | |
| DC4HF-4 | 2026-09-05 01:31:27 | 51.96591 | 7.18586 | 134° | 46km/h | 23662m | -12.8m/s | -52.7°C | 0.9% | 33.0hPa | 2.5V | 00:00:00 | 00:00:00 | 00:00:00 | |
| DO1YAY-16 | 2026-09-05 01:31:26 | 51.96591 | 7.18586 | 134° | 46km/h | 23662m | -12.8m/s | -52.7°C | 0.9% | 33.0hPa | 2.5V | 00:00:00 | 00:00:00 | 00:00:00 | |
| EDDB2-12 | 2026-09-05 01:31:25 | 51.96598 | 7.18571 | 122° | 51km/h | 23675m | -13.9m/s | -52.7°C | 0.9% | 32.9hPa | 2.5V | 00:00:00 | 00:00:00 | 00:00:00 | |
| DM0DOS-11 | 2026-09-05 01:31:24 | 51.96604 | 7.18466 | 50° | 26km/h | 23759m | -11.8m/s | -52.8°C | 3.9% | 32.5hPa | 2.5V | 08:23:26 | 02:12:24 | 00:00:00 | |
| DL1XH-west | 2026-09-05 01:31:23 | 51.96608 | 7.18531 | 103° | 53km/h | 23704m | -14.8m/s | -52.7°C | 0.3% | 32.8hPa | 2.6V | 08:24:05 | 02:12:28 | 00:00:00 | |
| BIOWL1-15 | 2026-09-05 01:31:21 | 51.96604 | 7.18466 | 50° | 26km/h | 23759m | -11.8m/s | -52.8°C | 0.4% | 32.5hPa | 2.5V | 08:24:05 | 02:12:24 | 00:00:00 | |
| HSKMA3-T | 2026-09-05 01:31:18 | 51.96600 | 7.18461 | 20° | 20km/h | 23770m | -10.9m/s | -52.7°C | 0.4% | 32.5hPa | 2.6V | 08:24:05 | 02:12:23 | 00:00:00 | |
| DO2JMG | 2026-09-05 01:31:17 | 51.96595 | 7.18461 | 347° | 18km/h | 23782m | -11.5m/s | -52.6°C | 0.4% | 32.4hPa | 2.6V | 08:24:05 | 02:12:22 | 00:00:00 | |
| DL1XH-west | 2026-09-05 01:31:13 | 51.96579 | 7.18475 | 330° | 11km/h | 23840m | -14m/s | -52.2°C | 0.4% | 32.1hPa | 2.6V | 08:24:05 | 02:12:18 | 00:00:00 | |
| AA1-15 | 2026-09-05 01:31:12 | 51.96578 | 7.18476 | 1° | 4km/h | 23853m | -13.6m/s | -52.2°C | 0.4% | 32hPa | 2.6V | 08:24:05 | 02:12:17 | 00:00:00 | |
| DM0DOS-11 | 2026-09-05 01:31:10 | 51.96580 | 7.18461 | 104° | 26km/h | 23890m | -11.5m/s | -52°C | 3.8% | 31.8hPa | 2.5V | 08:23:36 | 02:12:14 | 00:00:00 | |
| BIOWL1-15 | 2026-09-05 01:31:09 | 51.96580 | 7.18461 | 105° | 26km/h | 23890m | -11.5m/s | -52°C | 0.4% | 31.8hPa | 2.5V | 08:24:05 | 02:12:14 | 00:00:00 | |
| HSKMA3-T | 2026-09-05 01:31:08 | 51.96581 | 7.18449 | 98° | 33km/h | 23902m | -12.4m/s | -51.9°C | 0.3% | 31.8hPa | 2.6V | 08:24:05 | 02:12:13 | 00:00:00 | |
| DO2JMG | 2026-09-05 01:31:06 | 51.96581 | 7.18423 | 78° | 31km/h | 23929m | -14.7m/s | -51.4°C | 0.2% | 31.7hPa | 2.5V | 08:24:05 | 02:12:11 | 00:00:00 | |
| BUE01 | 2026-09-05 01:31:06 | 51.96579 | 7.18412 | 57° | 26km/h | 23944m | -15.0m/s | -51.3°C | 0.8% | 31.6hPa | 2.5V | 00:00:00 | 00:00:00 | 00:00:00 | |
| DD1CC8 | 2026-09-05 01:31:05 | 51.96569 | 7.18402 | 4° | 18km/h | 23976m | -17.4m/s | -50.9°C | 0.8% | 31.4hPa | 2.5V | 00:00:00 | 00:00:00 | 00:00:00 | |
| DM0DOS-11 | 2026-09-05 01:31:04 | 51.96560 | 7.18425 | 247° | 26km/h | 24038m | -13.8m/s | -50.2°C | 3.3% | 31.1hPa | 2.5V | 08:23:46 | 02:12:04 | 00:00:00 | |
| DL1XH-west | 2026-09-05 01:31:02 | 51.96565 | 7.18403 | 333° | 18km/h | 23994m | -17.9m/s | -50.7°C | 0.1% | 31.4hPa | 2.6V | 08:24:05 | 02:12:07 | 00:00:00 | |
| BIOWL1-15 | 2026-09-05 01:30:58 | 51.96564 | 7.18435 | 228° | 31km/h | 24051m | -13.3m/s | -50.1°C | 0% | 31hPa | 2.6V | 08:24:05 | 02:12:03 | 00:00:00 | |
| DJ2KF-10 | 2026-09-05 01:30:58 | 51.96564 | 7.18435 | 229° | 27km/h | 24052m | -13.3m/s | -50.1°C | 3.3% | 31.0hPa | 2.6V | 00:00:00 | 02:12:03 | 00:00:00 | |
| DO8TBO-1 | 2026-09-05 01:30:57 | 51.96571 | 7.18443 | 212° | 24km/h | 24065m | -13.5m/s | -50.0°C | 3.2% | 30.9hPa | 2.6V | 00:00:00 | 02:12:02 | 00:00:00 | |
| HSKMA3-T | 2026-09-05 01:30:57 | 51.96571 | 7.18443 | 212° | 37km/h | 24065m | -13.6m/s | -50.1°C | 0% | 31hPa | 2.6V | 08:24:05 | 02:12:02 | 00:00:00 | |
| DO3DL | 2026-09-05 01:30:56 | 51.96571 | 7.18443 | 212° | 37km/h | 24065m | -13.6m/s | -50.1°C | 0.7% | 31.0hPa | 2.6V | 08:24:00 | 00:00:00 | 00:00:00 | |
| DL1XH-15 | 2026-09-05 01:30:55 | 51.96603 | 7.18444 | 140° | 29km/h | 24125m | -14.8m/s | -50.2°C | 3.2% | 30.7hPa | 2.6V | 08:23:52 | 02:11:58 | 00:00:00 | |
| DO2JMG | 2026-09-05 01:30:55 | 51.96588 | 7.18451 | 182° | 35km/h | 24095m | -15.3m/s | -50.1°C | 0% | 30.9hPa | 2.5V | 08:24:05 | 02:12:00 | 00:00:00 | |
| DL1XH-west | 2026-09-05 01:30:51 | 51.96609 | 7.18425 | 88° | 27km/h | 24153m | -12.9m/s | -50.3°C | 0% | 30.6hPa | 2.5V | 08:24:05 | 02:11:56 | 00:00:00 | |
| BIOWL1-15 | 2026-09-05 01:30:48 | 51.96596 | 7.18396 | 34° | 35km/h | 24193m | -13.5m/s | -50.4°C | 0% | 30.4hPa | 2.6V | 08:24:05 | 02:11:53 | 00:00:00 | |
| HSKMA3-T | 2026-09-05 01:30:46 | 51.96580 | 7.18383 | 18° | 38km/h | 24220m | -13.6m/s | -50.4°C | 0% | 30.3hPa | 2.5V | 08:24:05 | 02:11:51 | 00:00:00 | |
| DL1XH-15 | 2026-09-05 01:30:45 | 51.96553 | 7.18367 | 29° | 35km/h | 24265m | -15.4m/s | -50.5°C | 3.2% | 30.1hPa | 2.6V | 08:24:02 | 02:11:48 | 00:00:00 | |
| DO2JMG | 2026-09-05 01:30:45 | 51.96570 | 7.18379 | 18° | 38km/h | 24234m | -15.4m/s | -50.4°C | 0% | 30.2hPa | 2.5V | 08:24:05 | 02:11:50 | 00:00:00 | |
| DL1XH-west | 2026-09-05 01:30:40 | 51.96538 | 7.18342 | 72° | 26km/h | 24307m | -12m/s | -50.5°C | 0% | 29.9hPa | 2.5V | 08:24:05 | 02:11:45 | 00:00:00 | |
| HSKMA3-T | 2026-09-05 01:30:36 | 51.96541 | 7.18309 | 103° | 13km/h | 24360m | -15.4m/s | -50.7°C | 0% | 29.7hPa | 2.5V | 08:24:56 | 02:11:41 | 00:00:00 | |
| DL4XJ-10 | 2026-09-05 01:30:36 | 51.96541 | 7.18309 | 103° | 20km/h | 24360m | -15.4m/s | -50.7°C | 0% | 0hPa | 2.5V | 00:00:00 | 00:00:00 | 00:00:00 | |
| BUE01 | 2026-09-05 01:30:35 | 51.96540 | 7.18300 | 56° | 9km/h | 24392m | -15.8m/s | -50.9°C | 0.8% | 29.5hPa | 2.5V | 00:00:00 | 00:00:00 | 00:00:00 | |
| DM0DOS-11 | 2026-09-05 01:30:34 | 51.96531 | 7.18279 | 79° | 13km/h | 24467m | -14.4m/s | -51.1°C | 3.4% | 29.2hPa | 2.5V | 08:24:16 | 02:11:34 | 00:00:00 | |
| DO2JMG | 2026-09-05 01:30:34 | 51.96540 | 7.18300 | 57° | 11km/h | 24392m | -15.8m/s | -50.9°C | 0% | 29.5hPa | 2.5V | 08:24:56 | 02:11:39 | 00:00:00 | |
| DL1XH-west | 2026-09-05 01:30:29 | 51.96531 | 7.18279 | 79° | 13km/h | 24467m | -14.4m/s | -51.1°C | 0.1% | 29.2hPa | 2.5V | 08:24:56 | 02:11:34 | 00:00:00 | |
| BIOWL1-15 | 2026-09-05 01:30:28 | 51.96530 | 7.18260 | 80° | 20km/h | 24511m | -13.6m/s | -51.1°C | 0% | 29hPa | 2.5V | 08:24:56 | 02:11:31 | 00:00:00 | |
| HSKMA3-T | 2026-09-05 01:30:25 | 51.96530 | 7.18252 | 82° | 20km/h | 24525m | -13.6m/s | -51.1°C | 0% | 28.9hPa | 2.5V | 08:24:56 | 02:11:30 | 00:00:00 | |
| DO2JMG | 2026-09-05 01:30:24 | 51.96529 | 7.18244 | 75° | 22km/h | 24539m | -15.4m/s | -51.2°C | 0.1% | 28.9hPa | 2.5V | 08:24:56 | 02:11:29 | 00:00:00 | |
| DL1XH-west | 2026-09-05 01:30:18 | 51.96519 | 7.18193 | 73° | 20km/h | 24629m | -14.3m/s | -51.1°C | 0% | 28.5hPa | 2.6V | 08:24:56 | 02:11:23 | 00:00:00 | |
| BIOWL1-15 | 2026-09-05 01:30:16 | 51.96519 | 7.18131 | 109° | 24km/h | 24731m | -15m/s | -51.4°C | 0.1% | 28hPa | 2.5V | 08:24:56 | 02:11:16 | 00:00:00 | |
| HSKMA3-T | 2026-09-05 01:30:16 | 51.96516 | 7.18168 | 88° | 22km/h | 24672m | -14.4m/s | -51.2°C | 0% | 28.2hPa | 2.5V | 08:24:56 | 02:11:20 | 00:00:00 | |
| DO2JMG | 2026-09-05 01:30:13 | 51.96517 | 7.18150 | 96° | 24km/h | 24701m | -14.4m/s | -51.3°C | 0% | 28.1hPa | 2.6V | 08:24:56 | 02:11:18 | 00:00:00 | |
| DL1XH-west | 2026-09-05 01:30:08 | 51.96525 | 7.18104 | 110° | 24km/h | 24775m | -14.8m/s | -51.6°C | 0% | 27.8hPa | 2.6V | 08:24:56 | 02:11:13 | 00:00:00 | |
| AA1-15 | 2026-09-05 01:30:07 | 51.96527 | 7.18095 | 115° | 22km/h | 24790m | -14.5m/s | -51.6°C | 0.1% | 27.8hPa | 2.6V | 08:24:56 | 02:11:12 | 00:00:00 | |
| SMARD9-10 | 2026-09-05 01:30:06 | 51.96527 | 7.18095 | 116° | 22km/h | 24790m | -14.5m/s | -51.6°C | 0.8% | 27.7hPa | 2.6V | 00:00:00 | 00:00:00 | 00:00:00 | |
| DL1XH-15 | 2026-09-05 01:30:05 | 51.96538 | 7.18069 | 136° | 18km/h | 24849m | -14.9m/s | -51.9°C | 3.5% | 27.5hPa | 2.6V | 08:24:42 | 02:11:08 | 00:00:00 | |
| HSKMA3-T | 2026-09-05 01:30:04 | 51.96535 | 7.18074 | 125° | 18km/h | 24834m | -14.6m/s | -51.8°C | 0.1% | 27.6hPa | 2.5V | 08:24:56 | 02:11:09 | 00:00:00 | |
| DO2JMG | 2026-09-05 01:30:03 | 51.96538 | 7.18069 | 137° | 20km/h | 24849m | -14.9m/s | -51.9°C | 0.2% | 27.5hPa | 2.6V | 08:24:56 | 02:11:08 | 00:00:00 | |
| DL1XH-west | 2026-09-05 01:29:58 | 51.96560 | 7.18050 | 171° | 20km/h | 24924m | -15.4m/s | -51.9°C | 0.1% | 27.2hPa | 2.6V | 08:24:56 | 02:11:03 | 00:00:00 | |
| AA1-15 | 2026-09-05 01:29:57 | 51.96565 | 7.18049 | 173° | 20km/h | 24940m | -15.8m/s | -51.9°C | 0.1% | 27.1hPa | 2.6V | 08:24:56 | 02:11:02 | 00:00:00 | |
| DM0DOS-11 | 2026-09-05 01:29:56 | 51.96590 | 7.18047 | 169° | 15km/h | 25031m | -15.2m/s | -52.2°C | 3.6% | 26.7hPa | 2.5V | 08:24:54 | 02:10:56 | 00:00:00 | |
| DL1XH-15 | 2026-09-05 01:29:55 | 51.96583 | 7.18048 | 177° | 15km/h | 25001m | -15.2m/s | -52.2°C | 3.6% | 26.9hPa | 2.6V | 08:24:52 | 02:10:58 | 00:00:00 | |
| HSKMA3-T | 2026-09-05 01:29:53 | 51.96583 | 7.18048 | 177° | 15km/h | 25001m | -15.2m/s | -52.2°C | 0.2% | 26.9hPa | 2.6V | 08:24:56 | 02:10:58 | 00:00:00 | |
| DO2JMG | 2026-09-05 01:29:52 | 51.96587 | 7.18048 | 175° | 15km/h | 25016m | -15.5m/s | -52.2°C | 0.2% | 26.8hPa | 2.6V | 08:24:56 | 02:10:57 | 00:00:00 | |
| DL1XH-west | 2026-09-05 01:29:47 | 51.96603 | 7.18039 | 140° | 15km/h | 25092m | -15.5m/s | -52.4°C | 0.2% | 26.5hPa | 2.6V | 08:25:47 | 02:10:52 | 00:00:00 | |
| DL3AQ-11 | 2026-09-05 01:29:46 | 51.96607 | 7.18032 | 125° | 11km/h | 25123m | -15.5m/s | -52.2°C | 0.8% | 26.4hPa | 2.5V | 00:00:00 | 00:00:00 | 00:00:00 | |
| DL1XH-15 | 2026-09-05 01:29:45 | 51.96610 | 7.18024 | 108° | 11km/h | 25154m | -14.9m/s | -52.2°C | 3.6% | 26.2hPa | 2.5V | 08:25:02 | 02:10:48 | 00:00:00 | |
| BIOWL1-15 | 2026-09-05 01:29:42 | 51.96611 | 7.18020 | 88° | 7km/h | 25169m | -15.5m/s | -52.2°C | 0.2% | 26.2hPa | 2.5V | 08:25:47 | 02:10:47 | 00:00:00 | |
| DL1XH-west | 2026-09-05 01:29:37 | 51.96605 | 7.18001 | 62° | 13km/h | 25247m | -15.2m/s | -52.7°C | 0.3% | 25.9hPa | 2.5V | 08:25:47 | 02:10:42 | 00:00:00 | |
| DL1XH-15 | 2026-09-05 01:29:35 | 51.96601 | 7.17980 | 85° | 16km/h | 25309m | -15.9m/s | -52.9°C | 4% | 25.6hPa | 2.5V | 08:25:12 | 02:10:38 | 00:00:00 | |
| BIOWL1-15 | 2026-09-05 01:29:32 | 51.96601 | 7.17972 | 89° | 20km/h | 25326m | -15.6m/s | -52.7°C | 0.3% | 25.6hPa | 2.5V | 08:25:47 | 02:10:37 | 00:00:00 | |
| DL4BBY-15 | 2026-09-05 01:29:32 | 51.96601 | 7.17972 | 89° | 27km/h | 25326m | -15.5m/s | -52.7°C | 0% | 0hPa | 2.6V | 00:00:00 | 00:00:00 | 00:00:00 | |
| DM0DOS-11 | 2026-09-05 01:29:31 | 51.96609 | 7.17910 | 111° | 27km/h | 25418m | -16.2m/s | -52.4°C | 3.9% | 25.2hPa | 2.6V | 08:25:19 | 02:10:31 | 00:00:00 | |
| DL1XH-west | 2026-09-05 01:29:26 | 51.96609 | 7.17910 | 112° | 27km/h | 25418m | -16.2m/s | -52.4°C | 0.4% | 25.2hPa | 2.6V | 08:25:47 | 02:10:31 | 00:00:00 | |
| DL1XH-15 | 2026-09-05 01:29:25 | 51.96618 | 7.17881 | 116° | 26km/h | 25466m | -15.6m/s | -52°C | 3.7% | 25hPa | 2.5V | 08:25:22 | 02:10:28 | 00:00:00 | |
| DO2JMG | 2026-09-05 01:29:21 | 51.96624 | 7.17862 | 121° | 26km/h | 25498m | -16.3m/s | -51.9°C | 0.3% | 24.9hPa | 2.6V | 08:25:47 | 02:10:26 | 00:00:00 | |
| AA1-15 | 2026-09-05 01:29:16 | 51.96647 | 7.17826 | 150° | 27km/h | 25579m | -16.6m/s | -51.7°C | 0.3% | 24.6hPa | 2.6V | 08:25:47 | 02:10:21 | 00:00:00 | |
| DL1XH-15 | 2026-09-05 01:29:15 | 51.96665 | 7.17812 | 150° | 26km/h | 25626m | -16m/s | -51.3°C | 3.6% | 24.4hPa | 2.5V | 08:25:32 | 02:10:18 | 00:00:00 | |
| DL1XH-west | 2026-09-05 01:29:15 | 51.96653 | 7.17821 | 155° | 27km/h | 25595m | -16.2m/s | -51.5°C | 0.2% | 24.5hPa | 2.6V | 08:25:47 | 02:10:20 | 00:00:00 | |
| BIOWL1-15 | 2026-09-05 01:29:10 | 51.96683 | 7.17796 | 152° | 27km/h | 25675m | -16.1m/s | -51.1°C | 0.2% | 24.2hPa | 2.6V | 08:25:47 | 02:10:15 | 00:00:00 | |
| AA1-15 | 2026-09-05 01:29:06 | 51.96709 | 7.17774 | 157° | 27km/h | 25739m | -16.2m/s | -50.6°C | 0.1% | 23.9hPa | 2.5V | 08:25:47 | 02:10:11 | 00:00:00 | |
| DL1XH-west | 2026-09-05 01:29:05 | 51.96715 | 7.17770 | 157° | 26km/h | 25755m | -15.9m/s | -50.6°C | 0.1% | 23.9hPa | 2.6V | 08:25:47 | 02:10:10 | 00:00:00 | |
| DO2JMG | 2026-09-05 01:29:00 | 51.96747 | 7.17755 | 172° | 26km/h | 25836m | -16.7m/s | -50.6°C | 0.1% | 23.6hPa | 2.5V | 08:25:47 | 02:10:05 | 00:00:00 | |
| HSKMA3-T | 2026-09-05 01:28:59 | 51.96754 | 7.17754 | 172° | 26km/h | 25853m | -16.4m/s | -50.6°C | 0.1% | 23.6hPa | 2.6V | 08:25:47 | 02:10:04 | 00:00:00 | |
| AA1-15 | 2026-09-05 01:28:56 | 51.96773 | 7.17752 | 180° | 24km/h | 25902m | -16.9m/s | -50.5°C | 0.2% | 23.4hPa | 2.5V | 08:26:38 | 02:10:01 | 00:00:00 | |
| DL1XH-15 | 2026-09-05 01:28:56 | 51.96791 | 7.17751 | 176° | 22km/h | 25952m | -16.6m/s | -50.5°C | 3.5% | 23.2hPa | 2.6V | 08:25:52 | 02:09:58 | 00:00:00 | |
| DL1XH-west | 2026-09-05 01:28:55 | 51.96779 | 7.17752 | 177° | 26km/h | 25919m | -17.1m/s | -50.6°C | 0.1% | 23.3hPa | 2.5V | 08:26:38 | 02:10:00 | 00:00:00 | |
| DO2JMG | 2026-09-05 01:28:49 | 51.96810 | 7.17748 | 170° | 16km/h | 26017m | -16.6m/s | -50.3°C | 0.1% | 22.9hPa | 2.6V | 08:26:38 | 02:09:54 | 00:00:00 | |
| BIOWL1-15 | 2026-09-05 01:28:48 | 51.96821 | 7.17741 | 159° | 18km/h | 26067m | -17.1m/s | -50.2°C | 0.1% | 22.8hPa | 2.5V | 08:26:38 | 02:09:51 | 00:00:00 | |
| HSKMA3-T | 2026-09-05 01:28:48 | 51.96814 | 7.17746 | 161° | 15km/h | 26034m | -16.7m/s | -50.2°C | 0.1% | 22.9hPa | 2.6V | 08:26:38 | 02:09:53 | 00:00:00 | |
| DL1XH-west | 2026-09-05 01:28:45 | 51.96826 | 7.17739 | 165° | 20km/h | 26084m | -17.5m/s | -50.1°C | 0.1% | 22.7hPa | 2.5V | 08:26:38 | 02:09:50 | 00:00:00 | |
| BIOWL1-15 | 2026-09-05 01:28:40 | 51.96864 | 7.17741 | 183° | 13km/h | 26236m | -17.1m/s | -49.3°C | 0% | 22.2hPa | 2.5V | 08:26:38 | 02:09:41 | 00:00:00 | |
| DO2JMG | 2026-09-05 01:28:39 | 51.96853 | 7.17739 | 192° | 16km/h | 26185m | -17.3m/s | -49.5°C | 0.1% | 22.4hPa | 2.6V | 08:26:38 | 02:09:44 | 00:00:00 | |
| HSKMA3-T | 2026-09-05 01:28:37 | 51.96861 | 7.17741 | 183° | 15km/h | 26219m | -17.4m/s | -49.4°C | 0.1% | 22.3hPa | 2.5V | 08:26:38 | 02:09:42 | 00:00:00 | |
| AA1-15 | 2026-09-05 01:28:35 | 51.96868 | 7.17741 | 169° | 13km/h | 26253m | -17m/s | -49.1°C | 0% | 22.1hPa | 2.5V | 08:26:38 | 02:09:40 | 00:00:00 | |
| DL1XH-west | 2026-09-05 01:28:34 | 51.96871 | 7.17739 | 167° | 15km/h | 26270m | -17m/s | -48.9°C | 0% | 22.1hPa | 2.5V | 08:26:38 | 02:09:39 | 00:00:00 | |
| DO2JMG | 2026-09-05 01:28:28 | 51.96899 | 7.17738 | 196° | 20km/h | 26371m | -17.3m/s | -48.2°C | 0% | 21.8hPa | 2.5V | 08:26:38 | 02:09:33 | 00:00:00 | |
| HSKMA3-T | 2026-09-05 01:28:26 | 51.96907 | 7.17744 | 206° | 18km/h | 26405m | -17.3m/s | -48°C | 0% | 21.6hPa | 2.6V | 08:26:38 | 02:09:31 | 00:00:00 | |
| DL1XH-15 | 2026-09-05 01:28:25 | 51.96920 | 7.17756 | 207° | 18km/h | 26455m | -16.6m/s | -47.9°C | 3% | 21.5hPa | 2.5V | 08:26:22 | 02:09:28 | 00:00:00 | |
| DM0DOS-11 | 2026-09-05 01:28:25 | 51.96934 | 7.17764 | 189° | 18km/h | 26507m | -17m/s | -47.7°C | 3% | 21.3hPa | 2.5V | 08:26:25 | 02:09:25 | 00:00:00 | |
| BIOWL1-15 | 2026-09-05 01:28:25 | 51.96912 | 7.17748 | 206° | 20km/h | 26422m | -17.2m/s | -48°C | 0% | 21.6hPa | 2.5V | 08:26:38 | 02:09:30 | 00:00:00 | |
| AA1-15 | 2026-09-05 01:28:24 | 51.96916 | 7.17752 | 213° | 20km/h | 26439m | -16.5m/s | -48°C | 0% | 21.6hPa | 2.5V | 08:26:38 | 02:09:29 | 00:00:00 | |
| DL1XH-west | 2026-09-05 01:28:23 | 51.96920 | 7.17756 | 208° | 18km/h | 26455m | -16.6m/s | -47.9°C | 0% | 21.5hPa | 2.5V | 08:26:38 | 02:09:28 | 00:00:00 | |
| DO2JMG | 2026-09-05 01:28:18 | 51.96944 | 7.17765 | 182° | 16km/h | 26541m | -16.6m/s | -47.7°C | 0% | 21.2hPa | 2.5V | 08:26:38 | 02:09:23 | 00:00:00 | |
| DM0DOS-11 | 2026-09-05 01:28:15 | 51.96969 | 7.17773 | 232° | 11km/h | 26676m | -17m/s | -47°C | 2.9% | 20.8hPa | 2.5V | 08:26:35 | 02:09:15 | 00:00:00 | |
| DL1XH-15 | 2026-09-05 01:28:15 | 51.96962 | 7.17766 | 185° | 11km/h | 26626m | -17m/s | -47.3°C | 2.9% | 20.9hPa | 2.5V | 08:26:32 | 02:09:18 | 00:00:00 | |
| HSKMA3-T | 2026-09-05 01:28:15 | 51.96956 | 7.17765 | 184° | 13km/h | 26592m | -17.1m/s | -47.5°C | 0% | 21hPa | 2.5V | 08:26:38 | 02:09:20 | 00:00:00 | |
| AA1-15 | 2026-09-05 01:28:13 | 51.96962 | 7.17766 | 186° | 11km/h | 26626m | -17m/s | -47.3°C | 0% | 20.9hPa | 2.5V | 08:26:38 | 02:09:18 | 00:00:00 | |
| DL1XH-west | 2026-09-05 01:28:12 | 51.96965 | 7.17767 | 205° | 13km/h | 26643m | -17.3m/s | -47.2°C | 0% | 20.9hPa | 2.6V | 08:26:38 | 02:09:17 | 00:00:00 | |
| DO2JMG | 2026-09-05 01:28:07 | 51.96975 | 7.17788 | 247° | 18km/h | 26727m | -16.7m/s | -46.9°C | 0% | 20.6hPa | 2.5V | 08:26:38 | 02:09:12 | 00:00:00 | |
| SMARD9-15 | 2026-09-05 01:28:06 | 51.96976 | 7.17795 | 259° | 16km/h | 26744m | -17.0m/s | -46.8°C | 0.6% | 20.6hPa | 2.6V | 00:00:00 | 00:00:00 | 00:00:00 | |
| DM0DOS-11 | 2026-09-05 01:28:05 | 51.96981 | 7.17836 | 258° | 16km/h | 26849m | -17.4m/s | -46.6°C | 2.8% | 20.2hPa | 2.6V | 08:26:45 | 02:09:05 | 00:00:00 | |
| DL1XH-15 | 2026-09-05 01:28:05 | 51.96979 | 7.17815 | 261° | 18km/h | 26796m | -17.7m/s | -46.6°C | 2.8% | 20.4hPa | 2.5V | 08:26:42 | 02:09:08 | 00:00:00 | |
| BIOWL1-15 | 2026-09-05 01:28:04 | 51.96978 | 7.17808 | 256° | 18km/h | 26779m | -17.2m/s | -46.6°C | 0% | 20.4hPa | 2.6V | 08:27:29 | 02:09:09 | 00:00:00 | |
| AA1-15 | 2026-09-05 01:28:02 | 51.96980 | 7.17823 | 262° | 18km/h | 26814m | -18m/s | -46.7°C | 0% | 20.3hPa | 2.5V | 08:27:29 | 02:09:07 | 00:00:00 | |
| DL1XH-west | 2026-09-05 01:28:01 | 51.96981 | 7.17830 | 259° | 16km/h | 26831m | -18m/s | -46.7°C | 0% | 20.3hPa | 2.5V | 08:27:29 | 02:09:06 | 00:00:00 | |
| DO2JMG | 2026-09-05 01:27:57 | 51.96982 | 7.17853 | 279° | 11km/h | 26901m | -17.7m/s | -46.6°C | 0% | 20.1hPa | 2.5V | 08:27:29 | 02:09:02 | 00:00:00 | |
| Es werden nur die letzten 3500 von 7288 Frames angezeigt. GPX/KML und Diagramme bleiben verfügbar. | |||||||||||||||